<?xml version="1.0" encoding="UTF-8"?>
<gpx version="1.1" creator="https://www.youtrack.es" xsi:schemaLocation="http://www.topografix.com/GPX/1/1 http://www.topografix.com/GPX/1/1/gpx.xsd http://www.garmin.com/xmlschemas/GpxExtensions/v3 http://www.garmin.com/xmlschemas/GpxExtensionsv3.xsd http://www.garmin.com/xmlschemas/TrackPointExtension/v1 http://www.garmin.com/xmlschemas/TrackPointExtensionv1.xsd" xmlns:gpxtpx="http://www.garmin.com/xmlschemas/TrackPointExtension/v1" xmlns:gpxx="http://www.garmin.com/xmlschemas/GpxExtensions/v3" xmlns:xsi="http://www.w3.org/2001/XMLSchema-instance">
  <metadata>
    <link href="https://www.youtrack.es">
      <text>YouTrack.es</text>
    </link>
    <time>2026-05-08T14:30:15Z</time>
  </metadata>
  <trk>
    <src>https://www.youtrack.es</src>
    <link href="https://www.youtrack.es/ruta/14846-kayak">
      <text>YouTrack.es</text>
    </link>
    <trkseg>
      <trkpt lat="42.5724510" lon="-8.8835970">
        <ele>3.0</ele>
        <time>2020-08-07T09:33:33Z</time>
      </trkpt>
      <trkpt lat="42.5724510" lon="-8.8835970">
        <ele>3.0</ele>
        <time>2020-08-07T09:33:35Z</time>
      </trkpt>
      <trkpt lat="42.5724510" lon="-8.8835970">
        <ele>3.0</ele>
        <time>2020-08-07T09:33:36Z</time>
      </trkpt>
      <trkpt lat="42.5724510" lon="-8.8835970">
        <ele>3.0</ele>
        <time>2020-08-07T09:33:37Z</time>
      </trkpt>
      <trkpt lat="42.5724510" lon="-8.8835970">
        <ele>3.0</ele>
        <time>2020-08-07T09:33:38Z</time>
      </trkpt>
      <trkpt lat="42.5724510" lon="-8.8835970">
        <ele>3.0</ele>
        <time>2020-08-07T09:33:39Z</time>
      </trkpt>
      <trkpt lat="42.5724510" lon="-8.8835970">
        <ele>3.0</ele>
        <time>2020-08-07T09:33:40Z</time>
      </trkpt>
      <trkpt lat="42.5724510" lon="-8.8835970">
        <ele>3.0</ele>
        <time>2020-08-07T09:33:41Z</time>
      </trkpt>
      <trkpt lat="42.5724510" lon="-8.8835970">
        <ele>3.2</ele>
        <time>2020-08-07T09:33:42Z</time>
      </trkpt>
      <trkpt lat="42.5724510" lon="-8.8835970">
        <ele>3.4</ele>
        <time>2020-08-07T09:33:43Z</time>
      </trkpt>
      <trkpt lat="42.5724510" lon="-8.8835970">
        <ele>3.6</ele>
        <time>2020-08-07T09:33:44Z</time>
      </trkpt>
      <trkpt lat="42.5724510" lon="-8.8835970">
        <ele>3.8</ele>
        <time>2020-08-07T09:33:45Z</time>
      </trkpt>
      <trkpt lat="42.5724510" lon="-8.8835970">
        <ele>4.0</ele>
        <time>2020-08-07T09:33:46Z</time>
      </trkpt>
      <trkpt lat="42.5724860" lon="-8.8836070">
        <ele>4.0</ele>
        <time>2020-08-07T09:33:47Z</time>
      </trkpt>
      <trkpt lat="42.5724860" lon="-8.8836070">
        <ele>4.2</ele>
        <time>2020-08-07T09:33:48Z</time>
      </trkpt>
      <trkpt lat="42.5725090" lon="-8.8836150">
        <ele>4.2</ele>
        <time>2020-08-07T09:33:49Z</time>
      </trkpt>
      <trkpt lat="42.5725090" lon="-8.8836150">
        <ele>4.4</ele>
        <time>2020-08-07T09:33:50Z</time>
      </trkpt>
      <trkpt lat="42.5725410" lon="-8.8836180">
        <ele>4.6</ele>
        <time>2020-08-07T09:33:51Z</time>
      </trkpt>
      <trkpt lat="42.5725410" lon="-8.8836180">
        <ele>4.8</ele>
        <time>2020-08-07T09:33:52Z</time>
      </trkpt>
      <trkpt lat="42.5725700" lon="-8.8836200">
        <ele>5.2</ele>
        <time>2020-08-07T09:33:53Z</time>
      </trkpt>
      <trkpt lat="42.5725700" lon="-8.8836200">
        <ele>5.4</ele>
        <time>2020-08-07T09:33:54Z</time>
      </trkpt>
      <trkpt lat="42.5726020" lon="-8.8836170">
        <ele>5.4</ele>
        <time>2020-08-07T09:33:55Z</time>
      </trkpt>
      <trkpt lat="42.5726020" lon="-8.8836170">
        <ele>5.4</ele>
        <time>2020-08-07T09:33:56Z</time>
      </trkpt>
      <trkpt lat="42.5726020" lon="-8.8836170">
        <ele>5.4</ele>
        <time>2020-08-07T09:33:57Z</time>
      </trkpt>
      <trkpt lat="42.5726210" lon="-8.8836050">
        <ele>5.4</ele>
        <time>2020-08-07T09:33:58Z</time>
      </trkpt>
      <trkpt lat="42.5726210" lon="-8.8836050">
        <ele>5.4</ele>
        <time>2020-08-07T09:33:59Z</time>
      </trkpt>
      <trkpt lat="42.5726370" lon="-8.8835940">
        <ele>5.4</ele>
        <time>2020-08-07T09:34:00Z</time>
      </trkpt>
      <trkpt lat="42.5726370" lon="-8.8835940">
        <ele>5.2</ele>
        <time>2020-08-07T09:34:01Z</time>
      </trkpt>
      <trkpt lat="42.5726370" lon="-8.8835940">
        <ele>5.2</ele>
        <time>2020-08-07T09:34:02Z</time>
      </trkpt>
      <trkpt lat="42.5726620" lon="-8.8835850">
        <ele>4.6</ele>
        <time>2020-08-07T09:34:03Z</time>
      </trkpt>
      <trkpt lat="42.5726620" lon="-8.8835850">
        <ele>4.4</ele>
        <time>2020-08-07T09:34:04Z</time>
      </trkpt>
      <trkpt lat="42.5726850" lon="-8.8835750">
        <ele>4.2</ele>
        <time>2020-08-07T09:34:05Z</time>
      </trkpt>
      <trkpt lat="42.5726850" lon="-8.8835750">
        <ele>4.0</ele>
        <time>2020-08-07T09:34:06Z</time>
      </trkpt>
      <trkpt lat="42.5727040" lon="-8.8835700">
        <ele>4.0</ele>
        <time>2020-08-07T09:34:07Z</time>
      </trkpt>
      <trkpt lat="42.5727040" lon="-8.8835700">
        <ele>3.8</ele>
        <time>2020-08-07T09:34:08Z</time>
      </trkpt>
      <trkpt lat="42.5727040" lon="-8.8835700">
        <ele>3.6</ele>
        <time>2020-08-07T09:34:09Z</time>
      </trkpt>
      <trkpt lat="42.5727300" lon="-8.8835690">
        <ele>3.4</ele>
        <time>2020-08-07T09:34:10Z</time>
      </trkpt>
      <trkpt lat="42.5727300" lon="-8.8835690">
        <ele>3.4</ele>
        <time>2020-08-07T09:34:11Z</time>
      </trkpt>
      <trkpt lat="42.5727550" lon="-8.8835670">
        <ele>3.0</ele>
        <time>2020-08-07T09:34:12Z</time>
      </trkpt>
      <trkpt lat="42.5727550" lon="-8.8835670">
        <ele>3.2</ele>
        <time>2020-08-07T09:34:13Z</time>
      </trkpt>
      <trkpt lat="42.5727780" lon="-8.8835720">
        <ele>3.4</ele>
        <time>2020-08-07T09:34:14Z</time>
      </trkpt>
      <trkpt lat="42.5727780" lon="-8.8835720">
        <ele>3.2</ele>
        <time>2020-08-07T09:34:15Z</time>
      </trkpt>
      <trkpt lat="42.5728000" lon="-8.8835750">
        <ele>3.2</ele>
        <time>2020-08-07T09:34:16Z</time>
      </trkpt>
      <trkpt lat="42.5728000" lon="-8.8835750">
        <ele>3.0</ele>
        <time>2020-08-07T09:34:17Z</time>
      </trkpt>
      <trkpt lat="42.5728190" lon="-8.8835830">
        <ele>3.0</ele>
        <time>2020-08-07T09:34:18Z</time>
      </trkpt>
      <trkpt lat="42.5728190" lon="-8.8835830">
        <ele>2.8</ele>
        <time>2020-08-07T09:34:19Z</time>
      </trkpt>
      <trkpt lat="42.5728420" lon="-8.8835940">
        <ele>2.8</ele>
        <time>2020-08-07T09:34:20Z</time>
      </trkpt>
      <trkpt lat="42.5728420" lon="-8.8835940">
        <ele>2.6</ele>
        <time>2020-08-07T09:34:21Z</time>
      </trkpt>
      <trkpt lat="42.5728640" lon="-8.8836000">
        <ele>2.4</ele>
        <time>2020-08-07T09:34:22Z</time>
      </trkpt>
      <trkpt lat="42.5728640" lon="-8.8836000">
        <ele>2.4</ele>
        <time>2020-08-07T09:34:23Z</time>
      </trkpt>
      <trkpt lat="42.5728860" lon="-8.8836030">
        <ele>2.0</ele>
        <time>2020-08-07T09:34:24Z</time>
      </trkpt>
      <trkpt lat="42.5728860" lon="-8.8836030">
        <ele>2.2</ele>
        <time>2020-08-07T09:34:25Z</time>
      </trkpt>
      <trkpt lat="42.5729090" lon="-8.8836100">
        <ele>2.2</ele>
        <time>2020-08-07T09:34:26Z</time>
      </trkpt>
      <trkpt lat="42.5729090" lon="-8.8836100">
        <ele>2.2</ele>
        <time>2020-08-07T09:34:27Z</time>
      </trkpt>
      <trkpt lat="42.5729340" lon="-8.8836150">
        <ele>2.4</ele>
        <time>2020-08-07T09:34:28Z</time>
      </trkpt>
      <trkpt lat="42.5729340" lon="-8.8836150">
        <ele>2.2</ele>
        <time>2020-08-07T09:34:29Z</time>
      </trkpt>
      <trkpt lat="42.5729600" lon="-8.8836150">
        <ele>2.2</ele>
        <time>2020-08-07T09:34:30Z</time>
      </trkpt>
      <trkpt lat="42.5729600" lon="-8.8836150">
        <ele>2.2</ele>
        <time>2020-08-07T09:34:31Z</time>
      </trkpt>
      <trkpt lat="42.5729820" lon="-8.8836150">
        <ele>2.0</ele>
        <time>2020-08-07T09:34:32Z</time>
      </trkpt>
      <trkpt lat="42.5729820" lon="-8.8836150">
        <ele>2.0</ele>
        <time>2020-08-07T09:34:33Z</time>
      </trkpt>
      <trkpt lat="42.5730080" lon="-8.8836140">
        <ele>2.0</ele>
        <time>2020-08-07T09:34:34Z</time>
      </trkpt>
      <trkpt lat="42.5730080" lon="-8.8836140">
        <ele>2.2</ele>
        <time>2020-08-07T09:34:35Z</time>
      </trkpt>
      <trkpt lat="42.5730340" lon="-8.8836100">
        <ele>2.2</ele>
        <time>2020-08-07T09:34:36Z</time>
      </trkpt>
      <trkpt lat="42.5730340" lon="-8.8836100">
        <ele>2.4</ele>
        <time>2020-08-07T09:34:37Z</time>
      </trkpt>
      <trkpt lat="42.5730590" lon="-8.8836020">
        <ele>2.4</ele>
        <time>2020-08-07T09:34:38Z</time>
      </trkpt>
      <trkpt lat="42.5730590" lon="-8.8836020">
        <ele>1.8</ele>
        <time>2020-08-07T09:34:39Z</time>
      </trkpt>
      <trkpt lat="42.5730820" lon="-8.8835940">
        <ele>2.0</ele>
        <time>2020-08-07T09:34:40Z</time>
      </trkpt>
      <trkpt lat="42.5730820" lon="-8.8835940">
        <ele>2.0</ele>
        <time>2020-08-07T09:34:41Z</time>
      </trkpt>
      <trkpt lat="42.5731040" lon="-8.8835850">
        <ele>2.0</ele>
        <time>2020-08-07T09:34:42Z</time>
      </trkpt>
      <trkpt lat="42.5731040" lon="-8.8835850">
        <ele>2.2</ele>
        <time>2020-08-07T09:34:43Z</time>
      </trkpt>
      <trkpt lat="42.5731260" lon="-8.8835830">
        <ele>2.2</ele>
        <time>2020-08-07T09:34:44Z</time>
      </trkpt>
      <trkpt lat="42.5731260" lon="-8.8835830">
        <ele>2.0</ele>
        <time>2020-08-07T09:34:45Z</time>
      </trkpt>
      <trkpt lat="42.5731460" lon="-8.8835920">
        <ele>2.0</ele>
        <time>2020-08-07T09:34:46Z</time>
      </trkpt>
      <trkpt lat="42.5731460" lon="-8.8835920">
        <ele>1.6</ele>
        <time>2020-08-07T09:34:47Z</time>
      </trkpt>
      <trkpt lat="42.5731650" lon="-8.8836080">
        <ele>1.4</ele>
        <time>2020-08-07T09:34:48Z</time>
      </trkpt>
      <trkpt lat="42.5731650" lon="-8.8836080">
        <ele>1.2</ele>
        <time>2020-08-07T09:34:49Z</time>
      </trkpt>
      <trkpt lat="42.5731840" lon="-8.8836280">
        <ele>1.4</ele>
        <time>2020-08-07T09:34:50Z</time>
      </trkpt>
      <trkpt lat="42.5731840" lon="-8.8836280">
        <ele>1.4</ele>
        <time>2020-08-07T09:34:51Z</time>
      </trkpt>
      <trkpt lat="42.5732000" lon="-8.8836540">
        <ele>1.6</ele>
        <time>2020-08-07T09:34:52Z</time>
      </trkpt>
      <trkpt lat="42.5732000" lon="-8.8836540">
        <ele>1.8</ele>
        <time>2020-08-07T09:34:53Z</time>
      </trkpt>
      <trkpt lat="42.5732160" lon="-8.8836780">
        <ele>1.6</ele>
        <time>2020-08-07T09:34:54Z</time>
      </trkpt>
      <trkpt lat="42.5732160" lon="-8.8836780">
        <ele>1.6</ele>
        <time>2020-08-07T09:34:55Z</time>
      </trkpt>
      <trkpt lat="42.5732350" lon="-8.8836980">
        <ele>1.6</ele>
        <time>2020-08-07T09:34:56Z</time>
      </trkpt>
      <trkpt lat="42.5732350" lon="-8.8836980">
        <ele>2.0</ele>
        <time>2020-08-07T09:34:57Z</time>
      </trkpt>
      <trkpt lat="42.5732510" lon="-8.8837220">
        <ele>1.8</ele>
        <time>2020-08-07T09:34:58Z</time>
      </trkpt>
      <trkpt lat="42.5732510" lon="-8.8837220">
        <ele>1.6</ele>
        <time>2020-08-07T09:34:59Z</time>
      </trkpt>
      <trkpt lat="42.5732700" lon="-8.8837470">
        <ele>1.4</ele>
        <time>2020-08-07T09:35:00Z</time>
      </trkpt>
      <trkpt lat="42.5732700" lon="-8.8837470">
        <ele>1.0</ele>
        <time>2020-08-07T09:35:01Z</time>
      </trkpt>
      <trkpt lat="42.5732860" lon="-8.8837720">
        <ele>0.8</ele>
        <time>2020-08-07T09:35:02Z</time>
      </trkpt>
      <trkpt lat="42.5732860" lon="-8.8837720">
        <ele>0.4</ele>
        <time>2020-08-07T09:35:03Z</time>
      </trkpt>
      <trkpt lat="42.5733020" lon="-8.8837980">
        <ele>0.4</ele>
        <time>2020-08-07T09:35:04Z</time>
      </trkpt>
      <trkpt lat="42.5733020" lon="-8.8837980">
        <ele>0.4</ele>
        <time>2020-08-07T09:35:05Z</time>
      </trkpt>
      <trkpt lat="42.5733220" lon="-8.8838230">
        <ele>0.6</ele>
        <time>2020-08-07T09:35:06Z</time>
      </trkpt>
      <trkpt lat="42.5733220" lon="-8.8838230">
        <ele>0.6</ele>
        <time>2020-08-07T09:35:07Z</time>
      </trkpt>
      <trkpt lat="42.5733380" lon="-8.8838480">
        <ele>0.8</ele>
        <time>2020-08-07T09:35:08Z</time>
      </trkpt>
      <trkpt lat="42.5733380" lon="-8.8838480">
        <ele>0.6</ele>
        <time>2020-08-07T09:35:09Z</time>
      </trkpt>
      <trkpt lat="42.5733570" lon="-8.8838770">
        <ele>0.6</ele>
        <time>2020-08-07T09:35:10Z</time>
      </trkpt>
      <trkpt lat="42.5733570" lon="-8.8838770">
        <ele>0.8</ele>
        <time>2020-08-07T09:35:11Z</time>
      </trkpt>
      <trkpt lat="42.5733700" lon="-8.8839060">
        <ele>0.6</ele>
        <time>2020-08-07T09:35:12Z</time>
      </trkpt>
      <trkpt lat="42.5733700" lon="-8.8839060">
        <ele>0.2</ele>
        <time>2020-08-07T09:35:13Z</time>
      </trkpt>
      <trkpt lat="42.5733760" lon="-8.8839380">
        <ele>0.0</ele>
        <time>2020-08-07T09:35:14Z</time>
      </trkpt>
      <trkpt lat="42.5733760" lon="-8.8839380">
        <ele>0.2</ele>
        <time>2020-08-07T09:35:15Z</time>
      </trkpt>
      <trkpt lat="42.5733790" lon="-8.8839680">
        <ele>0.2</ele>
        <time>2020-08-07T09:35:16Z</time>
      </trkpt>
      <trkpt lat="42.5733790" lon="-8.8839680">
        <ele>0.4</ele>
        <time>2020-08-07T09:35:17Z</time>
      </trkpt>
      <trkpt lat="42.5733820" lon="-8.8840020">
        <ele>0.4</ele>
        <time>2020-08-07T09:35:18Z</time>
      </trkpt>
      <trkpt lat="42.5733820" lon="-8.8840020">
        <ele>0.4</ele>
        <time>2020-08-07T09:35:19Z</time>
      </trkpt>
      <trkpt lat="42.5733820" lon="-8.8840380">
        <ele>1.0</ele>
        <time>2020-08-07T09:35:20Z</time>
      </trkpt>
      <trkpt lat="42.5733820" lon="-8.8840380">
        <ele>1.0</ele>
        <time>2020-08-07T09:35:21Z</time>
      </trkpt>
      <trkpt lat="42.5733820" lon="-8.8840750">
        <ele>0.8</ele>
        <time>2020-08-07T09:35:22Z</time>
      </trkpt>
      <trkpt lat="42.5733820" lon="-8.8840750">
        <ele>0.8</ele>
        <time>2020-08-07T09:35:23Z</time>
      </trkpt>
      <trkpt lat="42.5733820" lon="-8.8841110">
        <ele>0.8</ele>
        <time>2020-08-07T09:35:24Z</time>
      </trkpt>
      <trkpt lat="42.5733820" lon="-8.8841110">
        <ele>1.0</ele>
        <time>2020-08-07T09:35:25Z</time>
      </trkpt>
      <trkpt lat="42.5733860" lon="-8.8841500">
        <ele>1.2</ele>
        <time>2020-08-07T09:35:26Z</time>
      </trkpt>
      <trkpt lat="42.5733860" lon="-8.8841500">
        <ele>1.4</ele>
        <time>2020-08-07T09:35:27Z</time>
      </trkpt>
      <trkpt lat="42.5733920" lon="-8.8841900">
        <ele>1.8</ele>
        <time>2020-08-07T09:35:28Z</time>
      </trkpt>
      <trkpt lat="42.5733920" lon="-8.8841900">
        <ele>1.6</ele>
        <time>2020-08-07T09:35:29Z</time>
      </trkpt>
      <trkpt lat="42.5733950" lon="-8.8842290">
        <ele>1.8</ele>
        <time>2020-08-07T09:35:30Z</time>
      </trkpt>
      <trkpt lat="42.5733950" lon="-8.8842290">
        <ele>1.6</ele>
        <time>2020-08-07T09:35:31Z</time>
      </trkpt>
      <trkpt lat="42.5733980" lon="-8.8842650">
        <ele>1.6</ele>
        <time>2020-08-07T09:35:32Z</time>
      </trkpt>
      <trkpt lat="42.5733980" lon="-8.8842650">
        <ele>1.6</ele>
        <time>2020-08-07T09:35:33Z</time>
      </trkpt>
      <trkpt lat="42.5733950" lon="-8.8843020">
        <ele>1.8</ele>
        <time>2020-08-07T09:35:34Z</time>
      </trkpt>
      <trkpt lat="42.5733950" lon="-8.8843020">
        <ele>1.8</ele>
        <time>2020-08-07T09:35:35Z</time>
      </trkpt>
      <trkpt lat="42.5733920" lon="-8.8843340">
        <ele>2.0</ele>
        <time>2020-08-07T09:35:36Z</time>
      </trkpt>
      <trkpt lat="42.5733920" lon="-8.8843340">
        <ele>2.0</ele>
        <time>2020-08-07T09:35:37Z</time>
      </trkpt>
      <trkpt lat="42.5733920" lon="-8.8843670">
        <ele>2.2</ele>
        <time>2020-08-07T09:35:38Z</time>
      </trkpt>
      <trkpt lat="42.5733920" lon="-8.8843670">
        <ele>2.2</ele>
        <time>2020-08-07T09:35:39Z</time>
      </trkpt>
      <trkpt lat="42.5733790" lon="-8.8844020">
        <ele>2.2</ele>
        <time>2020-08-07T09:35:40Z</time>
      </trkpt>
      <trkpt lat="42.5733790" lon="-8.8844020">
        <ele>1.8</ele>
        <time>2020-08-07T09:35:41Z</time>
      </trkpt>
      <trkpt lat="42.5733700" lon="-8.8844340">
        <ele>1.8</ele>
        <time>2020-08-07T09:35:42Z</time>
      </trkpt>
      <trkpt lat="42.5733700" lon="-8.8844340">
        <ele>2.2</ele>
        <time>2020-08-07T09:35:43Z</time>
      </trkpt>
      <trkpt lat="42.5733570" lon="-8.8844630">
        <ele>2.4</ele>
        <time>2020-08-07T09:35:44Z</time>
      </trkpt>
      <trkpt lat="42.5733570" lon="-8.8844630">
        <ele>2.6</ele>
        <time>2020-08-07T09:35:45Z</time>
      </trkpt>
      <trkpt lat="42.5733410" lon="-8.8844900">
        <ele>2.4</ele>
        <time>2020-08-07T09:35:46Z</time>
      </trkpt>
      <trkpt lat="42.5733410" lon="-8.8844900">
        <ele>2.6</ele>
        <time>2020-08-07T09:35:47Z</time>
      </trkpt>
      <trkpt lat="42.5733220" lon="-8.8845170">
        <ele>2.4</ele>
        <time>2020-08-07T09:35:48Z</time>
      </trkpt>
      <trkpt lat="42.5733220" lon="-8.8845170">
        <ele>2.4</ele>
        <time>2020-08-07T09:35:49Z</time>
      </trkpt>
      <trkpt lat="42.5733020" lon="-8.8845430">
        <ele>2.2</ele>
        <time>2020-08-07T09:35:50Z</time>
      </trkpt>
      <trkpt lat="42.5733020" lon="-8.8845430">
        <ele>2.2</ele>
        <time>2020-08-07T09:35:51Z</time>
      </trkpt>
      <trkpt lat="42.5732860" lon="-8.8845680">
        <ele>2.2</ele>
        <time>2020-08-07T09:35:52Z</time>
      </trkpt>
      <trkpt lat="42.5732860" lon="-8.8845680">
        <ele>1.8</ele>
        <time>2020-08-07T09:35:53Z</time>
      </trkpt>
      <trkpt lat="42.5732640" lon="-8.8845950">
        <ele>1.8</ele>
        <time>2020-08-07T09:35:54Z</time>
      </trkpt>
      <trkpt lat="42.5732640" lon="-8.8845950">
        <ele>1.8</ele>
        <time>2020-08-07T09:35:55Z</time>
      </trkpt>
      <trkpt lat="42.5732420" lon="-8.8846180">
        <ele>2.0</ele>
        <time>2020-08-07T09:35:56Z</time>
      </trkpt>
      <trkpt lat="42.5732420" lon="-8.8846180">
        <ele>2.0</ele>
        <time>2020-08-07T09:35:57Z</time>
      </trkpt>
      <trkpt lat="42.5732220" lon="-8.8846400">
        <ele>2.2</ele>
        <time>2020-08-07T09:35:58Z</time>
      </trkpt>
      <trkpt lat="42.5732220" lon="-8.8846400">
        <ele>2.2</ele>
        <time>2020-08-07T09:35:59Z</time>
      </trkpt>
      <trkpt lat="42.5732000" lon="-8.8846600">
        <ele>2.0</ele>
        <time>2020-08-07T09:36:00Z</time>
      </trkpt>
      <trkpt lat="42.5732000" lon="-8.8846600">
        <ele>2.0</ele>
        <time>2020-08-07T09:36:01Z</time>
      </trkpt>
      <trkpt lat="42.5731810" lon="-8.8846800">
        <ele>2.0</ele>
        <time>2020-08-07T09:36:02Z</time>
      </trkpt>
      <trkpt lat="42.5731810" lon="-8.8846800">
        <ele>1.8</ele>
        <time>2020-08-07T09:36:03Z</time>
      </trkpt>
      <trkpt lat="42.5731620" lon="-8.8846970">
        <ele>1.8</ele>
        <time>2020-08-07T09:36:04Z</time>
      </trkpt>
      <trkpt lat="42.5731620" lon="-8.8846970">
        <ele>1.8</ele>
        <time>2020-08-07T09:36:05Z</time>
      </trkpt>
      <trkpt lat="42.5731420" lon="-8.8847170">
        <ele>1.8</ele>
        <time>2020-08-07T09:36:06Z</time>
      </trkpt>
      <trkpt lat="42.5731420" lon="-8.8847170">
        <ele>1.8</ele>
        <time>2020-08-07T09:36:07Z</time>
      </trkpt>
      <trkpt lat="42.5731260" lon="-8.8847350">
        <ele>1.8</ele>
        <time>2020-08-07T09:36:08Z</time>
      </trkpt>
      <trkpt lat="42.5731260" lon="-8.8847350">
        <ele>2.0</ele>
        <time>2020-08-07T09:36:09Z</time>
      </trkpt>
      <trkpt lat="42.5731140" lon="-8.8847550">
        <ele>2.2</ele>
        <time>2020-08-07T09:36:10Z</time>
      </trkpt>
      <trkpt lat="42.5731140" lon="-8.8847550">
        <ele>2.2</ele>
        <time>2020-08-07T09:36:11Z</time>
      </trkpt>
      <trkpt lat="42.5731010" lon="-8.8847740">
        <ele>2.6</ele>
        <time>2020-08-07T09:36:12Z</time>
      </trkpt>
      <trkpt lat="42.5731010" lon="-8.8847740">
        <ele>2.4</ele>
        <time>2020-08-07T09:36:13Z</time>
      </trkpt>
      <trkpt lat="42.5730880" lon="-8.8847940">
        <ele>2.6</ele>
        <time>2020-08-07T09:36:14Z</time>
      </trkpt>
      <trkpt lat="42.5730880" lon="-8.8847940">
        <ele>2.6</ele>
        <time>2020-08-07T09:36:15Z</time>
      </trkpt>
      <trkpt lat="42.5730880" lon="-8.8847940">
        <ele>2.6</ele>
        <time>2020-08-07T09:36:16Z</time>
      </trkpt>
      <trkpt lat="42.5730720" lon="-8.8848250">
        <ele>2.6</ele>
        <time>2020-08-07T09:36:17Z</time>
      </trkpt>
      <trkpt lat="42.5730720" lon="-8.8848250">
        <ele>2.8</ele>
        <time>2020-08-07T09:36:18Z</time>
      </trkpt>
      <trkpt lat="42.5730590" lon="-8.8848460">
        <ele>2.6</ele>
        <time>2020-08-07T09:36:19Z</time>
      </trkpt>
      <trkpt lat="42.5730590" lon="-8.8848460">
        <ele>2.6</ele>
        <time>2020-08-07T09:36:20Z</time>
      </trkpt>
      <trkpt lat="42.5730460" lon="-8.8848690">
        <ele>2.6</ele>
        <time>2020-08-07T09:36:21Z</time>
      </trkpt>
      <trkpt lat="42.5730460" lon="-8.8848690">
        <ele>2.4</ele>
        <time>2020-08-07T09:36:22Z</time>
      </trkpt>
      <trkpt lat="42.5730370" lon="-8.8848910">
        <ele>2.4</ele>
        <time>2020-08-07T09:36:23Z</time>
      </trkpt>
      <trkpt lat="42.5730370" lon="-8.8848910">
        <ele>2.6</ele>
        <time>2020-08-07T09:36:24Z</time>
      </trkpt>
      <trkpt lat="42.5730210" lon="-8.8849220">
        <ele>2.6</ele>
        <time>2020-08-07T09:36:25Z</time>
      </trkpt>
      <trkpt lat="42.5730210" lon="-8.8849220">
        <ele>2.6</ele>
        <time>2020-08-07T09:36:26Z</time>
      </trkpt>
      <trkpt lat="42.5730080" lon="-8.8849490">
        <ele>2.6</ele>
        <time>2020-08-07T09:36:27Z</time>
      </trkpt>
      <trkpt lat="42.5730080" lon="-8.8849490">
        <ele>2.8</ele>
        <time>2020-08-07T09:36:28Z</time>
      </trkpt>
      <trkpt lat="42.5729950" lon="-8.8849760">
        <ele>2.8</ele>
        <time>2020-08-07T09:36:29Z</time>
      </trkpt>
      <trkpt lat="42.5729820" lon="-8.8849940">
        <ele>3.0</ele>
        <time>2020-08-07T09:36:30Z</time>
      </trkpt>
      <trkpt lat="42.5729820" lon="-8.8849940">
        <ele>3.0</ele>
        <time>2020-08-07T09:36:31Z</time>
      </trkpt>
      <trkpt lat="42.5729660" lon="-8.8850270">
        <ele>3.4</ele>
        <time>2020-08-07T09:36:32Z</time>
      </trkpt>
      <trkpt lat="42.5729660" lon="-8.8850270">
        <ele>3.2</ele>
        <time>2020-08-07T09:36:33Z</time>
      </trkpt>
      <trkpt lat="42.5729540" lon="-8.8850580">
        <ele>3.2</ele>
        <time>2020-08-07T09:36:34Z</time>
      </trkpt>
      <trkpt lat="42.5729540" lon="-8.8850580">
        <ele>3.2</ele>
        <time>2020-08-07T09:36:35Z</time>
      </trkpt>
      <trkpt lat="42.5729340" lon="-8.8850880">
        <ele>3.0</ele>
        <time>2020-08-07T09:36:36Z</time>
      </trkpt>
      <trkpt lat="42.5729340" lon="-8.8850880">
        <ele>3.2</ele>
        <time>2020-08-07T09:36:37Z</time>
      </trkpt>
      <trkpt lat="42.5729180" lon="-8.8851140">
        <ele>3.2</ele>
        <time>2020-08-07T09:36:38Z</time>
      </trkpt>
      <trkpt lat="42.5729180" lon="-8.8851140">
        <ele>3.2</ele>
        <time>2020-08-07T09:36:39Z</time>
      </trkpt>
      <trkpt lat="42.5729020" lon="-8.8851410">
        <ele>3.2</ele>
        <time>2020-08-07T09:36:40Z</time>
      </trkpt>
      <trkpt lat="42.5729020" lon="-8.8851410">
        <ele>3.2</ele>
        <time>2020-08-07T09:36:41Z</time>
      </trkpt>
      <trkpt lat="42.5728960" lon="-8.8851660">
        <ele>2.8</ele>
        <time>2020-08-07T09:36:42Z</time>
      </trkpt>
      <trkpt lat="42.5728960" lon="-8.8851660">
        <ele>3.0</ele>
        <time>2020-08-07T09:36:43Z</time>
      </trkpt>
      <trkpt lat="42.5728830" lon="-8.8851920">
        <ele>2.6</ele>
        <time>2020-08-07T09:36:44Z</time>
      </trkpt>
      <trkpt lat="42.5728830" lon="-8.8851920">
        <ele>2.8</ele>
        <time>2020-08-07T09:36:45Z</time>
      </trkpt>
      <trkpt lat="42.5728740" lon="-8.8852230">
        <ele>2.8</ele>
        <time>2020-08-07T09:36:46Z</time>
      </trkpt>
      <trkpt lat="42.5728740" lon="-8.8852230">
        <ele>3.0</ele>
        <time>2020-08-07T09:36:47Z</time>
      </trkpt>
      <trkpt lat="42.5728610" lon="-8.8852580">
        <ele>2.8</ele>
        <time>2020-08-07T09:36:48Z</time>
      </trkpt>
      <trkpt lat="42.5728610" lon="-8.8852580">
        <ele>2.8</ele>
        <time>2020-08-07T09:36:49Z</time>
      </trkpt>
      <trkpt lat="42.5728540" lon="-8.8852950">
        <ele>2.8</ele>
        <time>2020-08-07T09:36:50Z</time>
      </trkpt>
      <trkpt lat="42.5728540" lon="-8.8852950">
        <ele>2.8</ele>
        <time>2020-08-07T09:36:51Z</time>
      </trkpt>
      <trkpt lat="42.5728480" lon="-8.8853280">
        <ele>2.6</ele>
        <time>2020-08-07T09:36:52Z</time>
      </trkpt>
      <trkpt lat="42.5728480" lon="-8.8853280">
        <ele>2.6</ele>
        <time>2020-08-07T09:36:53Z</time>
      </trkpt>
      <trkpt lat="42.5728450" lon="-8.8853630">
        <ele>3.0</ele>
        <time>2020-08-07T09:36:54Z</time>
      </trkpt>
      <trkpt lat="42.5728450" lon="-8.8853630">
        <ele>3.0</ele>
        <time>2020-08-07T09:36:55Z</time>
      </trkpt>
      <trkpt lat="42.5728420" lon="-8.8853980">
        <ele>3.0</ele>
        <time>2020-08-07T09:36:56Z</time>
      </trkpt>
      <trkpt lat="42.5728420" lon="-8.8853980">
        <ele>3.0</ele>
        <time>2020-08-07T09:36:57Z</time>
      </trkpt>
      <trkpt lat="42.5728420" lon="-8.8854330">
        <ele>3.0</ele>
        <time>2020-08-07T09:36:58Z</time>
      </trkpt>
      <trkpt lat="42.5728420" lon="-8.8854330">
        <ele>2.8</ele>
        <time>2020-08-07T09:36:59Z</time>
      </trkpt>
      <trkpt lat="42.5728450" lon="-8.8854600">
        <ele>2.8</ele>
        <time>2020-08-07T09:37:00Z</time>
      </trkpt>
      <trkpt lat="42.5728450" lon="-8.8854600">
        <ele>2.4</ele>
        <time>2020-08-07T09:37:01Z</time>
      </trkpt>
      <trkpt lat="42.5728450" lon="-8.8854900">
        <ele>2.2</ele>
        <time>2020-08-07T09:37:02Z</time>
      </trkpt>
      <trkpt lat="42.5728450" lon="-8.8854900">
        <ele>1.8</ele>
        <time>2020-08-07T09:37:03Z</time>
      </trkpt>
      <trkpt lat="42.5728420" lon="-8.8855170">
        <ele>1.6</ele>
        <time>2020-08-07T09:37:04Z</time>
      </trkpt>
      <trkpt lat="42.5728420" lon="-8.8855170">
        <ele>1.4</ele>
        <time>2020-08-07T09:37:05Z</time>
      </trkpt>
      <trkpt lat="42.5728420" lon="-8.8855170">
        <ele>1.2</ele>
        <time>2020-08-07T09:37:06Z</time>
      </trkpt>
      <trkpt lat="42.5728450" lon="-8.8855510">
        <ele>1.2</ele>
        <time>2020-08-07T09:37:07Z</time>
      </trkpt>
      <trkpt lat="42.5728450" lon="-8.8855510">
        <ele>1.4</ele>
        <time>2020-08-07T09:37:08Z</time>
      </trkpt>
      <trkpt lat="42.5728450" lon="-8.8855510">
        <ele>1.6</ele>
        <time>2020-08-07T09:37:09Z</time>
      </trkpt>
      <trkpt lat="42.5728450" lon="-8.8855890">
        <ele>1.8</ele>
        <time>2020-08-07T09:37:10Z</time>
      </trkpt>
      <trkpt lat="42.5728450" lon="-8.8855890">
        <ele>1.8</ele>
        <time>2020-08-07T09:37:11Z</time>
      </trkpt>
      <trkpt lat="42.5728450" lon="-8.8856150">
        <ele>1.6</ele>
        <time>2020-08-07T09:37:12Z</time>
      </trkpt>
      <trkpt lat="42.5728450" lon="-8.8856150">
        <ele>1.6</ele>
        <time>2020-08-07T09:37:13Z</time>
      </trkpt>
      <trkpt lat="42.5728380" lon="-8.8856420">
        <ele>1.6</ele>
        <time>2020-08-07T09:37:14Z</time>
      </trkpt>
      <trkpt lat="42.5728380" lon="-8.8856420">
        <ele>2.4</ele>
        <time>2020-08-07T09:37:15Z</time>
      </trkpt>
      <trkpt lat="42.5728260" lon="-8.8856630">
        <ele>2.6</ele>
        <time>2020-08-07T09:37:16Z</time>
      </trkpt>
      <trkpt lat="42.5728260" lon="-8.8856630">
        <ele>2.6</ele>
        <time>2020-08-07T09:37:17Z</time>
      </trkpt>
      <trkpt lat="42.5728100" lon="-8.8856890">
        <ele>2.4</ele>
        <time>2020-08-07T09:37:18Z</time>
      </trkpt>
      <trkpt lat="42.5728100" lon="-8.8856890">
        <ele>2.4</ele>
        <time>2020-08-07T09:37:19Z</time>
      </trkpt>
      <trkpt lat="42.5727970" lon="-8.8857150">
        <ele>2.2</ele>
        <time>2020-08-07T09:37:20Z</time>
      </trkpt>
      <trkpt lat="42.5727970" lon="-8.8857150">
        <ele>2.2</ele>
        <time>2020-08-07T09:37:21Z</time>
      </trkpt>
      <trkpt lat="42.5727780" lon="-8.8857400">
        <ele>2.4</ele>
        <time>2020-08-07T09:37:22Z</time>
      </trkpt>
      <trkpt lat="42.5727620" lon="-8.8857520">
        <ele>2.6</ele>
        <time>2020-08-07T09:37:23Z</time>
      </trkpt>
      <trkpt lat="42.5727620" lon="-8.8857520">
        <ele>2.8</ele>
        <time>2020-08-07T09:37:24Z</time>
      </trkpt>
      <trkpt lat="42.5727420" lon="-8.8857770">
        <ele>2.6</ele>
        <time>2020-08-07T09:37:25Z</time>
      </trkpt>
      <trkpt lat="42.5727420" lon="-8.8857770">
        <ele>2.8</ele>
        <time>2020-08-07T09:37:26Z</time>
      </trkpt>
      <trkpt lat="42.5727200" lon="-8.8858070">
        <ele>2.6</ele>
        <time>2020-08-07T09:37:27Z</time>
      </trkpt>
      <trkpt lat="42.5727200" lon="-8.8858070">
        <ele>3.0</ele>
        <time>2020-08-07T09:37:28Z</time>
      </trkpt>
      <trkpt lat="42.5726980" lon="-8.8858340">
        <ele>3.2</ele>
        <time>2020-08-07T09:37:29Z</time>
      </trkpt>
      <trkpt lat="42.5726850" lon="-8.8858540">
        <ele>3.4</ele>
        <time>2020-08-07T09:37:30Z</time>
      </trkpt>
      <trkpt lat="42.5726850" lon="-8.8858540">
        <ele>3.6</ele>
        <time>2020-08-07T09:37:31Z</time>
      </trkpt>
      <trkpt lat="42.5726660" lon="-8.8858880">
        <ele>3.6</ele>
        <time>2020-08-07T09:37:32Z</time>
      </trkpt>
      <trkpt lat="42.5726660" lon="-8.8858880">
        <ele>3.4</ele>
        <time>2020-08-07T09:37:33Z</time>
      </trkpt>
      <trkpt lat="42.5726460" lon="-8.8859280">
        <ele>3.6</ele>
        <time>2020-08-07T09:37:34Z</time>
      </trkpt>
      <trkpt lat="42.5726460" lon="-8.8859280">
        <ele>3.2</ele>
        <time>2020-08-07T09:37:35Z</time>
      </trkpt>
      <trkpt lat="42.5726300" lon="-8.8859680">
        <ele>3.0</ele>
        <time>2020-08-07T09:37:36Z</time>
      </trkpt>
      <trkpt lat="42.5726300" lon="-8.8859680">
        <ele>2.6</ele>
        <time>2020-08-07T09:37:37Z</time>
      </trkpt>
      <trkpt lat="42.5726210" lon="-8.8860100">
        <ele>2.2</ele>
        <time>2020-08-07T09:37:38Z</time>
      </trkpt>
      <trkpt lat="42.5726210" lon="-8.8860100">
        <ele>2.0</ele>
        <time>2020-08-07T09:37:39Z</time>
      </trkpt>
      <trkpt lat="42.5726110" lon="-8.8860460">
        <ele>1.8</ele>
        <time>2020-08-07T09:37:40Z</time>
      </trkpt>
      <trkpt lat="42.5726110" lon="-8.8860460">
        <ele>1.4</ele>
        <time>2020-08-07T09:37:41Z</time>
      </trkpt>
      <trkpt lat="42.5726020" lon="-8.8860900">
        <ele>1.4</ele>
        <time>2020-08-07T09:37:42Z</time>
      </trkpt>
      <trkpt lat="42.5726020" lon="-8.8860900">
        <ele>1.2</ele>
        <time>2020-08-07T09:37:43Z</time>
      </trkpt>
      <trkpt lat="42.5725890" lon="-8.8861260">
        <ele>1.4</ele>
        <time>2020-08-07T09:37:44Z</time>
      </trkpt>
      <trkpt lat="42.5725890" lon="-8.8861260">
        <ele>1.4</ele>
        <time>2020-08-07T09:37:45Z</time>
      </trkpt>
      <trkpt lat="42.5725790" lon="-8.8861620">
        <ele>1.6</ele>
        <time>2020-08-07T09:37:46Z</time>
      </trkpt>
      <trkpt lat="42.5725790" lon="-8.8861620">
        <ele>1.6</ele>
        <time>2020-08-07T09:37:47Z</time>
      </trkpt>
      <trkpt lat="42.5725660" lon="-8.8861950">
        <ele>1.6</ele>
        <time>2020-08-07T09:37:48Z</time>
      </trkpt>
      <trkpt lat="42.5725660" lon="-8.8861950">
        <ele>1.8</ele>
        <time>2020-08-07T09:37:49Z</time>
      </trkpt>
      <trkpt lat="42.5725470" lon="-8.8862300">
        <ele>1.4</ele>
        <time>2020-08-07T09:37:50Z</time>
      </trkpt>
      <trkpt lat="42.5725470" lon="-8.8862300">
        <ele>1.4</ele>
        <time>2020-08-07T09:37:51Z</time>
      </trkpt>
      <trkpt lat="42.5725250" lon="-8.8862620">
        <ele>1.4</ele>
        <time>2020-08-07T09:37:52Z</time>
      </trkpt>
      <trkpt lat="42.5725250" lon="-8.8862620">
        <ele>1.6</ele>
        <time>2020-08-07T09:37:53Z</time>
      </trkpt>
      <trkpt lat="42.5725020" lon="-8.8862910">
        <ele>1.4</ele>
        <time>2020-08-07T09:37:54Z</time>
      </trkpt>
      <trkpt lat="42.5725020" lon="-8.8862910">
        <ele>1.6</ele>
        <time>2020-08-07T09:37:55Z</time>
      </trkpt>
      <trkpt lat="42.5724860" lon="-8.8863260">
        <ele>2.0</ele>
        <time>2020-08-07T09:37:56Z</time>
      </trkpt>
      <trkpt lat="42.5724770" lon="-8.8863470">
        <ele>2.0</ele>
        <time>2020-08-07T09:37:57Z</time>
      </trkpt>
      <trkpt lat="42.5724770" lon="-8.8863470">
        <ele>2.2</ele>
        <time>2020-08-07T09:37:58Z</time>
      </trkpt>
      <trkpt lat="42.5724640" lon="-8.8863820">
        <ele>1.8</ele>
        <time>2020-08-07T09:37:59Z</time>
      </trkpt>
      <trkpt lat="42.5724640" lon="-8.8863820">
        <ele>1.8</ele>
        <time>2020-08-07T09:38:00Z</time>
      </trkpt>
      <trkpt lat="42.5724480" lon="-8.8864250">
        <ele>2.0</ele>
        <time>2020-08-07T09:38:01Z</time>
      </trkpt>
      <trkpt lat="42.5724480" lon="-8.8864250">
        <ele>2.0</ele>
        <time>2020-08-07T09:38:02Z</time>
      </trkpt>
      <trkpt lat="42.5724420" lon="-8.8864620">
        <ele>2.2</ele>
        <time>2020-08-07T09:38:03Z</time>
      </trkpt>
      <trkpt lat="42.5724420" lon="-8.8864620">
        <ele>2.4</ele>
        <time>2020-08-07T09:38:04Z</time>
      </trkpt>
      <trkpt lat="42.5724320" lon="-8.8865000">
        <ele>2.6</ele>
        <time>2020-08-07T09:38:05Z</time>
      </trkpt>
      <trkpt lat="42.5724320" lon="-8.8865000">
        <ele>2.4</ele>
        <time>2020-08-07T09:38:06Z</time>
      </trkpt>
      <trkpt lat="42.5724190" lon="-8.8865370">
        <ele>2.4</ele>
        <time>2020-08-07T09:38:07Z</time>
      </trkpt>
      <trkpt lat="42.5724190" lon="-8.8865370">
        <ele>2.4</ele>
        <time>2020-08-07T09:38:08Z</time>
      </trkpt>
      <trkpt lat="42.5724060" lon="-8.8865680">
        <ele>2.2</ele>
        <time>2020-08-07T09:38:09Z</time>
      </trkpt>
      <trkpt lat="42.5724060" lon="-8.8865680">
        <ele>2.4</ele>
        <time>2020-08-07T09:38:10Z</time>
      </trkpt>
      <trkpt lat="42.5723900" lon="-8.8866030">
        <ele>2.4</ele>
        <time>2020-08-07T09:38:11Z</time>
      </trkpt>
      <trkpt lat="42.5723900" lon="-8.8866030">
        <ele>2.6</ele>
        <time>2020-08-07T09:38:12Z</time>
      </trkpt>
      <trkpt lat="42.5723710" lon="-8.8866350">
        <ele>2.4</ele>
        <time>2020-08-07T09:38:13Z</time>
      </trkpt>
      <trkpt lat="42.5723710" lon="-8.8866350">
        <ele>2.6</ele>
        <time>2020-08-07T09:38:14Z</time>
      </trkpt>
      <trkpt lat="42.5723520" lon="-8.8866660">
        <ele>2.6</ele>
        <time>2020-08-07T09:38:15Z</time>
      </trkpt>
      <trkpt lat="42.5723520" lon="-8.8866660">
        <ele>2.8</ele>
        <time>2020-08-07T09:38:16Z</time>
      </trkpt>
      <trkpt lat="42.5723300" lon="-8.8866930">
        <ele>2.8</ele>
        <time>2020-08-07T09:38:17Z</time>
      </trkpt>
      <trkpt lat="42.5723300" lon="-8.8866930">
        <ele>3.0</ele>
        <time>2020-08-07T09:38:18Z</time>
      </trkpt>
      <trkpt lat="42.5723100" lon="-8.8867230">
        <ele>3.0</ele>
        <time>2020-08-07T09:38:19Z</time>
      </trkpt>
      <trkpt lat="42.5723100" lon="-8.8867230">
        <ele>3.0</ele>
        <time>2020-08-07T09:38:20Z</time>
      </trkpt>
      <trkpt lat="42.5722880" lon="-8.8867600">
        <ele>3.0</ele>
        <time>2020-08-07T09:38:21Z</time>
      </trkpt>
      <trkpt lat="42.5722880" lon="-8.8867600">
        <ele>3.0</ele>
        <time>2020-08-07T09:38:22Z</time>
      </trkpt>
      <trkpt lat="42.5722720" lon="-8.8867950">
        <ele>3.0</ele>
        <time>2020-08-07T09:38:23Z</time>
      </trkpt>
      <trkpt lat="42.5722720" lon="-8.8867950">
        <ele>3.2</ele>
        <time>2020-08-07T09:38:24Z</time>
      </trkpt>
      <trkpt lat="42.5722590" lon="-8.8868300">
        <ele>3.0</ele>
        <time>2020-08-07T09:38:25Z</time>
      </trkpt>
      <trkpt lat="42.5722590" lon="-8.8868300">
        <ele>3.0</ele>
        <time>2020-08-07T09:38:26Z</time>
      </trkpt>
      <trkpt lat="42.5722430" lon="-8.8868640">
        <ele>3.0</ele>
        <time>2020-08-07T09:38:27Z</time>
      </trkpt>
      <trkpt lat="42.5722430" lon="-8.8868640">
        <ele>3.0</ele>
        <time>2020-08-07T09:38:28Z</time>
      </trkpt>
      <trkpt lat="42.5722270" lon="-8.8868940">
        <ele>3.0</ele>
        <time>2020-08-07T09:38:29Z</time>
      </trkpt>
      <trkpt lat="42.5722270" lon="-8.8868940">
        <ele>3.4</ele>
        <time>2020-08-07T09:38:30Z</time>
      </trkpt>
      <trkpt lat="42.5722080" lon="-8.8869250">
        <ele>3.4</ele>
        <time>2020-08-07T09:38:31Z</time>
      </trkpt>
      <trkpt lat="42.5722080" lon="-8.8869250">
        <ele>3.2</ele>
        <time>2020-08-07T09:38:32Z</time>
      </trkpt>
      <trkpt lat="42.5721920" lon="-8.8869580">
        <ele>3.0</ele>
        <time>2020-08-07T09:38:33Z</time>
      </trkpt>
      <trkpt lat="42.5721920" lon="-8.8869580">
        <ele>3.0</ele>
        <time>2020-08-07T09:38:34Z</time>
      </trkpt>
      <trkpt lat="42.5721730" lon="-8.8869860">
        <ele>2.8</ele>
        <time>2020-08-07T09:38:35Z</time>
      </trkpt>
      <trkpt lat="42.5721730" lon="-8.8869860">
        <ele>2.8</ele>
        <time>2020-08-07T09:38:36Z</time>
      </trkpt>
      <trkpt lat="42.5721540" lon="-8.8870180">
        <ele>2.8</ele>
        <time>2020-08-07T09:38:37Z</time>
      </trkpt>
      <trkpt lat="42.5721540" lon="-8.8870180">
        <ele>2.8</ele>
        <time>2020-08-07T09:38:38Z</time>
      </trkpt>
      <trkpt lat="42.5721310" lon="-8.8870450">
        <ele>2.8</ele>
        <time>2020-08-07T09:38:39Z</time>
      </trkpt>
      <trkpt lat="42.5721310" lon="-8.8870450">
        <ele>2.8</ele>
        <time>2020-08-07T09:38:40Z</time>
      </trkpt>
      <trkpt lat="42.5721120" lon="-8.8870740">
        <ele>2.2</ele>
        <time>2020-08-07T09:38:41Z</time>
      </trkpt>
      <trkpt lat="42.5721120" lon="-8.8870740">
        <ele>2.6</ele>
        <time>2020-08-07T09:38:42Z</time>
      </trkpt>
      <trkpt lat="42.5720900" lon="-8.8870940">
        <ele>2.4</ele>
        <time>2020-08-07T09:38:43Z</time>
      </trkpt>
      <trkpt lat="42.5720900" lon="-8.8870940">
        <ele>2.6</ele>
        <time>2020-08-07T09:38:44Z</time>
      </trkpt>
      <trkpt lat="42.5720670" lon="-8.8871170">
        <ele>2.6</ele>
        <time>2020-08-07T09:38:45Z</time>
      </trkpt>
      <trkpt lat="42.5720510" lon="-8.8871290">
        <ele>3.0</ele>
        <time>2020-08-07T09:38:46Z</time>
      </trkpt>
      <trkpt lat="42.5720510" lon="-8.8871290">
        <ele>2.8</ele>
        <time>2020-08-07T09:38:47Z</time>
      </trkpt>
      <trkpt lat="42.5720260" lon="-8.8871520">
        <ele>2.8</ele>
        <time>2020-08-07T09:38:48Z</time>
      </trkpt>
      <trkpt lat="42.5720260" lon="-8.8871520">
        <ele>2.8</ele>
        <time>2020-08-07T09:38:49Z</time>
      </trkpt>
      <trkpt lat="42.5720060" lon="-8.8871780">
        <ele>2.8</ele>
        <time>2020-08-07T09:38:50Z</time>
      </trkpt>
      <trkpt lat="42.5720060" lon="-8.8871780">
        <ele>3.0</ele>
        <time>2020-08-07T09:38:51Z</time>
      </trkpt>
      <trkpt lat="42.5719840" lon="-8.8872050">
        <ele>3.0</ele>
        <time>2020-08-07T09:38:52Z</time>
      </trkpt>
      <trkpt lat="42.5719840" lon="-8.8872050">
        <ele>2.8</ele>
        <time>2020-08-07T09:38:53Z</time>
      </trkpt>
      <trkpt lat="42.5719650" lon="-8.8872370">
        <ele>2.8</ele>
        <time>2020-08-07T09:38:54Z</time>
      </trkpt>
      <trkpt lat="42.5719650" lon="-8.8872370">
        <ele>2.6</ele>
        <time>2020-08-07T09:38:55Z</time>
      </trkpt>
      <trkpt lat="42.5719520" lon="-8.8872700">
        <ele>2.4</ele>
        <time>2020-08-07T09:38:56Z</time>
      </trkpt>
      <trkpt lat="42.5719520" lon="-8.8872700">
        <ele>2.4</ele>
        <time>2020-08-07T09:38:57Z</time>
      </trkpt>
      <trkpt lat="42.5719420" lon="-8.8873080">
        <ele>2.2</ele>
        <time>2020-08-07T09:38:58Z</time>
      </trkpt>
      <trkpt lat="42.5719420" lon="-8.8873080">
        <ele>2.0</ele>
        <time>2020-08-07T09:38:59Z</time>
      </trkpt>
      <trkpt lat="42.5719330" lon="-8.8873480">
        <ele>2.2</ele>
        <time>2020-08-07T09:39:00Z</time>
      </trkpt>
      <trkpt lat="42.5719330" lon="-8.8873480">
        <ele>2.2</ele>
        <time>2020-08-07T09:39:01Z</time>
      </trkpt>
      <trkpt lat="42.5719260" lon="-8.8873900">
        <ele>2.2</ele>
        <time>2020-08-07T09:39:02Z</time>
      </trkpt>
      <trkpt lat="42.5719260" lon="-8.8873900">
        <ele>2.4</ele>
        <time>2020-08-07T09:39:03Z</time>
      </trkpt>
      <trkpt lat="42.5719260" lon="-8.8874280">
        <ele>2.0</ele>
        <time>2020-08-07T09:39:04Z</time>
      </trkpt>
      <trkpt lat="42.5719260" lon="-8.8874280">
        <ele>2.0</ele>
        <time>2020-08-07T09:39:05Z</time>
      </trkpt>
      <trkpt lat="42.5719300" lon="-8.8874650">
        <ele>2.0</ele>
        <time>2020-08-07T09:39:06Z</time>
      </trkpt>
      <trkpt lat="42.5719300" lon="-8.8874650">
        <ele>1.8</ele>
        <time>2020-08-07T09:39:07Z</time>
      </trkpt>
      <trkpt lat="42.5719330" lon="-8.8875040">
        <ele>1.8</ele>
        <time>2020-08-07T09:39:08Z</time>
      </trkpt>
      <trkpt lat="42.5719330" lon="-8.8875040">
        <ele>1.6</ele>
        <time>2020-08-07T09:39:09Z</time>
      </trkpt>
      <trkpt lat="42.5719420" lon="-8.8875420">
        <ele>1.8</ele>
        <time>2020-08-07T09:39:10Z</time>
      </trkpt>
      <trkpt lat="42.5719420" lon="-8.8875420">
        <ele>2.0</ele>
        <time>2020-08-07T09:39:11Z</time>
      </trkpt>
      <trkpt lat="42.5719460" lon="-8.8875820">
        <ele>2.2</ele>
        <time>2020-08-07T09:39:12Z</time>
      </trkpt>
      <trkpt lat="42.5719460" lon="-8.8875820">
        <ele>2.4</ele>
        <time>2020-08-07T09:39:13Z</time>
      </trkpt>
      <trkpt lat="42.5719420" lon="-8.8876220">
        <ele>2.6</ele>
        <time>2020-08-07T09:39:14Z</time>
      </trkpt>
      <trkpt lat="42.5719420" lon="-8.8876220">
        <ele>2.2</ele>
        <time>2020-08-07T09:39:15Z</time>
      </trkpt>
      <trkpt lat="42.5719330" lon="-8.8876570">
        <ele>2.0</ele>
        <time>2020-08-07T09:39:16Z</time>
      </trkpt>
      <trkpt lat="42.5719330" lon="-8.8876570">
        <ele>1.6</ele>
        <time>2020-08-07T09:39:17Z</time>
      </trkpt>
      <trkpt lat="42.5719230" lon="-8.8876910">
        <ele>1.8</ele>
        <time>2020-08-07T09:39:18Z</time>
      </trkpt>
      <trkpt lat="42.5719230" lon="-8.8876910">
        <ele>2.0</ele>
        <time>2020-08-07T09:39:19Z</time>
      </trkpt>
      <trkpt lat="42.5719100" lon="-8.8877220">
        <ele>2.0</ele>
        <time>2020-08-07T09:39:20Z</time>
      </trkpt>
      <trkpt lat="42.5719100" lon="-8.8877220">
        <ele>2.4</ele>
        <time>2020-08-07T09:39:21Z</time>
      </trkpt>
      <trkpt lat="42.5718940" lon="-8.8877540">
        <ele>2.4</ele>
        <time>2020-08-07T09:39:22Z</time>
      </trkpt>
      <trkpt lat="42.5718940" lon="-8.8877540">
        <ele>2.2</ele>
        <time>2020-08-07T09:39:23Z</time>
      </trkpt>
      <trkpt lat="42.5718750" lon="-8.8877850">
        <ele>2.2</ele>
        <time>2020-08-07T09:39:24Z</time>
      </trkpt>
      <trkpt lat="42.5718750" lon="-8.8877850">
        <ele>1.8</ele>
        <time>2020-08-07T09:39:25Z</time>
      </trkpt>
      <trkpt lat="42.5718560" lon="-8.8878200">
        <ele>1.6</ele>
        <time>2020-08-07T09:39:26Z</time>
      </trkpt>
      <trkpt lat="42.5718560" lon="-8.8878200">
        <ele>1.8</ele>
        <time>2020-08-07T09:39:27Z</time>
      </trkpt>
      <trkpt lat="42.5718370" lon="-8.8878540">
        <ele>2.2</ele>
        <time>2020-08-07T09:39:28Z</time>
      </trkpt>
      <trkpt lat="42.5718370" lon="-8.8878540">
        <ele>2.0</ele>
        <time>2020-08-07T09:39:29Z</time>
      </trkpt>
      <trkpt lat="42.5718240" lon="-8.8878900">
        <ele>2.2</ele>
        <time>2020-08-07T09:39:30Z</time>
      </trkpt>
      <trkpt lat="42.5718240" lon="-8.8878900">
        <ele>2.0</ele>
        <time>2020-08-07T09:39:31Z</time>
      </trkpt>
      <trkpt lat="42.5718050" lon="-8.8879220">
        <ele>2.2</ele>
        <time>2020-08-07T09:39:32Z</time>
      </trkpt>
      <trkpt lat="42.5718050" lon="-8.8879220">
        <ele>2.2</ele>
        <time>2020-08-07T09:39:33Z</time>
      </trkpt>
      <trkpt lat="42.5717890" lon="-8.8879570">
        <ele>2.2</ele>
        <time>2020-08-07T09:39:34Z</time>
      </trkpt>
      <trkpt lat="42.5717890" lon="-8.8879570">
        <ele>2.0</ele>
        <time>2020-08-07T09:39:35Z</time>
      </trkpt>
      <trkpt lat="42.5717760" lon="-8.8879970">
        <ele>1.8</ele>
        <time>2020-08-07T09:39:36Z</time>
      </trkpt>
      <trkpt lat="42.5717760" lon="-8.8879970">
        <ele>2.2</ele>
        <time>2020-08-07T09:39:37Z</time>
      </trkpt>
      <trkpt lat="42.5717660" lon="-8.8880380">
        <ele>2.4</ele>
        <time>2020-08-07T09:39:38Z</time>
      </trkpt>
      <trkpt lat="42.5717660" lon="-8.8880380">
        <ele>2.4</ele>
        <time>2020-08-07T09:39:39Z</time>
      </trkpt>
      <trkpt lat="42.5717570" lon="-8.8880800">
        <ele>2.2</ele>
        <time>2020-08-07T09:39:40Z</time>
      </trkpt>
      <trkpt lat="42.5717570" lon="-8.8880800">
        <ele>2.2</ele>
        <time>2020-08-07T09:39:41Z</time>
      </trkpt>
      <trkpt lat="42.5717500" lon="-8.8881230">
        <ele>1.8</ele>
        <time>2020-08-07T09:39:42Z</time>
      </trkpt>
      <trkpt lat="42.5717500" lon="-8.8881230">
        <ele>1.6</ele>
        <time>2020-08-07T09:39:43Z</time>
      </trkpt>
      <trkpt lat="42.5717380" lon="-8.8881630">
        <ele>1.8</ele>
        <time>2020-08-07T09:39:44Z</time>
      </trkpt>
      <trkpt lat="42.5717380" lon="-8.8881630">
        <ele>2.0</ele>
        <time>2020-08-07T09:39:45Z</time>
      </trkpt>
      <trkpt lat="42.5717250" lon="-8.8882040">
        <ele>1.8</ele>
        <time>2020-08-07T09:39:46Z</time>
      </trkpt>
      <trkpt lat="42.5717250" lon="-8.8882040">
        <ele>1.8</ele>
        <time>2020-08-07T09:39:47Z</time>
      </trkpt>
      <trkpt lat="42.5717090" lon="-8.8882380">
        <ele>1.8</ele>
        <time>2020-08-07T09:39:48Z</time>
      </trkpt>
      <trkpt lat="42.5717090" lon="-8.8882380">
        <ele>1.8</ele>
        <time>2020-08-07T09:39:49Z</time>
      </trkpt>
      <trkpt lat="42.5716900" lon="-8.8882700">
        <ele>1.6</ele>
        <time>2020-08-07T09:39:50Z</time>
      </trkpt>
      <trkpt lat="42.5716900" lon="-8.8882700">
        <ele>1.8</ele>
        <time>2020-08-07T09:39:51Z</time>
      </trkpt>
      <trkpt lat="42.5716670" lon="-8.8883000">
        <ele>1.8</ele>
        <time>2020-08-07T09:39:52Z</time>
      </trkpt>
      <trkpt lat="42.5716670" lon="-8.8883000">
        <ele>2.0</ele>
        <time>2020-08-07T09:39:53Z</time>
      </trkpt>
      <trkpt lat="42.5716450" lon="-8.8883250">
        <ele>2.2</ele>
        <time>2020-08-07T09:39:54Z</time>
      </trkpt>
      <trkpt lat="42.5716450" lon="-8.8883250">
        <ele>2.0</ele>
        <time>2020-08-07T09:39:55Z</time>
      </trkpt>
      <trkpt lat="42.5716220" lon="-8.8883540">
        <ele>2.2</ele>
        <time>2020-08-07T09:39:56Z</time>
      </trkpt>
      <trkpt lat="42.5716220" lon="-8.8883540">
        <ele>2.2</ele>
        <time>2020-08-07T09:39:57Z</time>
      </trkpt>
      <trkpt lat="42.5716030" lon="-8.8883850">
        <ele>2.4</ele>
        <time>2020-08-07T09:39:58Z</time>
      </trkpt>
      <trkpt lat="42.5716030" lon="-8.8883850">
        <ele>2.2</ele>
        <time>2020-08-07T09:39:59Z</time>
      </trkpt>
      <trkpt lat="42.5715780" lon="-8.8884160">
        <ele>2.2</ele>
        <time>2020-08-07T09:40:00Z</time>
      </trkpt>
      <trkpt lat="42.5715780" lon="-8.8884160">
        <ele>2.4</ele>
        <time>2020-08-07T09:40:01Z</time>
      </trkpt>
      <trkpt lat="42.5715650" lon="-8.8884510">
        <ele>2.4</ele>
        <time>2020-08-07T09:40:02Z</time>
      </trkpt>
      <trkpt lat="42.5715520" lon="-8.8884690">
        <ele>2.4</ele>
        <time>2020-08-07T09:40:03Z</time>
      </trkpt>
      <trkpt lat="42.5715520" lon="-8.8884690">
        <ele>2.2</ele>
        <time>2020-08-07T09:40:04Z</time>
      </trkpt>
      <trkpt lat="42.5715330" lon="-8.8885050">
        <ele>2.0</ele>
        <time>2020-08-07T09:40:05Z</time>
      </trkpt>
      <trkpt lat="42.5715330" lon="-8.8885050">
        <ele>2.0</ele>
        <time>2020-08-07T09:40:06Z</time>
      </trkpt>
      <trkpt lat="42.5715140" lon="-8.8885420">
        <ele>2.0</ele>
        <time>2020-08-07T09:40:07Z</time>
      </trkpt>
      <trkpt lat="42.5715140" lon="-8.8885420">
        <ele>2.0</ele>
        <time>2020-08-07T09:40:08Z</time>
      </trkpt>
      <trkpt lat="42.5714940" lon="-8.8885740">
        <ele>2.2</ele>
        <time>2020-08-07T09:40:09Z</time>
      </trkpt>
      <trkpt lat="42.5714940" lon="-8.8885740">
        <ele>2.0</ele>
        <time>2020-08-07T09:40:10Z</time>
      </trkpt>
      <trkpt lat="42.5714780" lon="-8.8886120">
        <ele>2.2</ele>
        <time>2020-08-07T09:40:11Z</time>
      </trkpt>
      <trkpt lat="42.5714780" lon="-8.8886120">
        <ele>2.2</ele>
        <time>2020-08-07T09:40:12Z</time>
      </trkpt>
      <trkpt lat="42.5714660" lon="-8.8886450">
        <ele>2.4</ele>
        <time>2020-08-07T09:40:13Z</time>
      </trkpt>
      <trkpt lat="42.5714660" lon="-8.8886450">
        <ele>2.2</ele>
        <time>2020-08-07T09:40:14Z</time>
      </trkpt>
      <trkpt lat="42.5714430" lon="-8.8886780">
        <ele>2.0</ele>
        <time>2020-08-07T09:40:15Z</time>
      </trkpt>
      <trkpt lat="42.5714430" lon="-8.8886780">
        <ele>1.6</ele>
        <time>2020-08-07T09:40:16Z</time>
      </trkpt>
      <trkpt lat="42.5714270" lon="-8.8887140">
        <ele>1.0</ele>
        <time>2020-08-07T09:40:17Z</time>
      </trkpt>
      <trkpt lat="42.5714140" lon="-8.8887330">
        <ele>1.0</ele>
        <time>2020-08-07T09:40:18Z</time>
      </trkpt>
      <trkpt lat="42.5714140" lon="-8.8887330">
        <ele>1.0</ele>
        <time>2020-08-07T09:40:19Z</time>
      </trkpt>
      <trkpt lat="42.5713950" lon="-8.8887720">
        <ele>1.2</ele>
        <time>2020-08-07T09:40:20Z</time>
      </trkpt>
      <trkpt lat="42.5713950" lon="-8.8887720">
        <ele>1.2</ele>
        <time>2020-08-07T09:40:21Z</time>
      </trkpt>
      <trkpt lat="42.5713760" lon="-8.8888100">
        <ele>1.2</ele>
        <time>2020-08-07T09:40:22Z</time>
      </trkpt>
      <trkpt lat="42.5713760" lon="-8.8888100">
        <ele>1.4</ele>
        <time>2020-08-07T09:40:23Z</time>
      </trkpt>
      <trkpt lat="42.5713570" lon="-8.8888430">
        <ele>1.4</ele>
        <time>2020-08-07T09:40:24Z</time>
      </trkpt>
      <trkpt lat="42.5713570" lon="-8.8888430">
        <ele>1.4</ele>
        <time>2020-08-07T09:40:25Z</time>
      </trkpt>
      <trkpt lat="42.5713380" lon="-8.8888780">
        <ele>1.4</ele>
        <time>2020-08-07T09:40:26Z</time>
      </trkpt>
      <trkpt lat="42.5713380" lon="-8.8888780">
        <ele>1.4</ele>
        <time>2020-08-07T09:40:27Z</time>
      </trkpt>
      <trkpt lat="42.5713250" lon="-8.8889130">
        <ele>1.2</ele>
        <time>2020-08-07T09:40:28Z</time>
      </trkpt>
      <trkpt lat="42.5713120" lon="-8.8889310">
        <ele>1.6</ele>
        <time>2020-08-07T09:40:29Z</time>
      </trkpt>
      <trkpt lat="42.5712990" lon="-8.8889510">
        <ele>1.4</ele>
        <time>2020-08-07T09:40:30Z</time>
      </trkpt>
      <trkpt lat="42.5712990" lon="-8.8889510">
        <ele>1.8</ele>
        <time>2020-08-07T09:40:31Z</time>
      </trkpt>
      <trkpt lat="42.5712860" lon="-8.8889890">
        <ele>1.6</ele>
        <time>2020-08-07T09:40:32Z</time>
      </trkpt>
      <trkpt lat="42.5712860" lon="-8.8889890">
        <ele>1.8</ele>
        <time>2020-08-07T09:40:33Z</time>
      </trkpt>
      <trkpt lat="42.5712700" lon="-8.8890230">
        <ele>1.8</ele>
        <time>2020-08-07T09:40:34Z</time>
      </trkpt>
      <trkpt lat="42.5712700" lon="-8.8890230">
        <ele>1.8</ele>
        <time>2020-08-07T09:40:35Z</time>
      </trkpt>
      <trkpt lat="42.5712510" lon="-8.8890510">
        <ele>1.8</ele>
        <time>2020-08-07T09:40:36Z</time>
      </trkpt>
      <trkpt lat="42.5712510" lon="-8.8890510">
        <ele>1.6</ele>
        <time>2020-08-07T09:40:37Z</time>
      </trkpt>
      <trkpt lat="42.5712320" lon="-8.8890780">
        <ele>1.6</ele>
        <time>2020-08-07T09:40:38Z</time>
      </trkpt>
      <trkpt lat="42.5712320" lon="-8.8890780">
        <ele>1.8</ele>
        <time>2020-08-07T09:40:39Z</time>
      </trkpt>
      <trkpt lat="42.5712100" lon="-8.8891030">
        <ele>2.0</ele>
        <time>2020-08-07T09:40:40Z</time>
      </trkpt>
      <trkpt lat="42.5712100" lon="-8.8891030">
        <ele>1.8</ele>
        <time>2020-08-07T09:40:41Z</time>
      </trkpt>
      <trkpt lat="42.5711870" lon="-8.8891260">
        <ele>1.4</ele>
        <time>2020-08-07T09:40:42Z</time>
      </trkpt>
      <trkpt lat="42.5711870" lon="-8.8891260">
        <ele>1.2</ele>
        <time>2020-08-07T09:40:43Z</time>
      </trkpt>
      <trkpt lat="42.5711620" lon="-8.8891550">
        <ele>1.0</ele>
        <time>2020-08-07T09:40:44Z</time>
      </trkpt>
      <trkpt lat="42.5711620" lon="-8.8891550">
        <ele>1.0</ele>
        <time>2020-08-07T09:40:45Z</time>
      </trkpt>
      <trkpt lat="42.5711460" lon="-8.8891830">
        <ele>1.0</ele>
        <time>2020-08-07T09:40:46Z</time>
      </trkpt>
      <trkpt lat="42.5711460" lon="-8.8891830">
        <ele>1.0</ele>
        <time>2020-08-07T09:40:47Z</time>
      </trkpt>
      <trkpt lat="42.5711330" lon="-8.8892120">
        <ele>1.0</ele>
        <time>2020-08-07T09:40:48Z</time>
      </trkpt>
      <trkpt lat="42.5711330" lon="-8.8892120">
        <ele>1.2</ele>
        <time>2020-08-07T09:40:49Z</time>
      </trkpt>
      <trkpt lat="42.5711170" lon="-8.8892380">
        <ele>1.4</ele>
        <time>2020-08-07T09:40:50Z</time>
      </trkpt>
      <trkpt lat="42.5711170" lon="-8.8892380">
        <ele>1.2</ele>
        <time>2020-08-07T09:40:51Z</time>
      </trkpt>
      <trkpt lat="42.5711070" lon="-8.8892680">
        <ele>1.4</ele>
        <time>2020-08-07T09:40:52Z</time>
      </trkpt>
      <trkpt lat="42.5711070" lon="-8.8892680">
        <ele>1.6</ele>
        <time>2020-08-07T09:40:53Z</time>
      </trkpt>
      <trkpt lat="42.5710940" lon="-8.8893020">
        <ele>2.0</ele>
        <time>2020-08-07T09:40:54Z</time>
      </trkpt>
      <trkpt lat="42.5710940" lon="-8.8893020">
        <ele>1.8</ele>
        <time>2020-08-07T09:40:55Z</time>
      </trkpt>
      <trkpt lat="42.5710780" lon="-8.8893370">
        <ele>2.0</ele>
        <time>2020-08-07T09:40:56Z</time>
      </trkpt>
      <trkpt lat="42.5710780" lon="-8.8893370">
        <ele>1.8</ele>
        <time>2020-08-07T09:40:57Z</time>
      </trkpt>
      <trkpt lat="42.5710720" lon="-8.8893680">
        <ele>1.6</ele>
        <time>2020-08-07T09:40:58Z</time>
      </trkpt>
      <trkpt lat="42.5710720" lon="-8.8893680">
        <ele>1.6</ele>
        <time>2020-08-07T09:40:59Z</time>
      </trkpt>
      <trkpt lat="42.5710560" lon="-8.8894010">
        <ele>1.2</ele>
        <time>2020-08-07T09:41:00Z</time>
      </trkpt>
      <trkpt lat="42.5710560" lon="-8.8894010">
        <ele>1.0</ele>
        <time>2020-08-07T09:41:01Z</time>
      </trkpt>
      <trkpt lat="42.5710460" lon="-8.8894330">
        <ele>1.0</ele>
        <time>2020-08-07T09:41:02Z</time>
      </trkpt>
      <trkpt lat="42.5710460" lon="-8.8894330">
        <ele>1.2</ele>
        <time>2020-08-07T09:41:03Z</time>
      </trkpt>
      <trkpt lat="42.5710300" lon="-8.8894630">
        <ele>1.6</ele>
        <time>2020-08-07T09:41:04Z</time>
      </trkpt>
      <trkpt lat="42.5710300" lon="-8.8894630">
        <ele>1.8</ele>
        <time>2020-08-07T09:41:05Z</time>
      </trkpt>
      <trkpt lat="42.5710110" lon="-8.8894920">
        <ele>2.0</ele>
        <time>2020-08-07T09:41:06Z</time>
      </trkpt>
      <trkpt lat="42.5710110" lon="-8.8894920">
        <ele>2.0</ele>
        <time>2020-08-07T09:41:07Z</time>
      </trkpt>
      <trkpt lat="42.5709920" lon="-8.8895200">
        <ele>2.2</ele>
        <time>2020-08-07T09:41:08Z</time>
      </trkpt>
      <trkpt lat="42.5709920" lon="-8.8895200">
        <ele>2.0</ele>
        <time>2020-08-07T09:41:09Z</time>
      </trkpt>
      <trkpt lat="42.5709790" lon="-8.8895500">
        <ele>1.8</ele>
        <time>2020-08-07T09:41:10Z</time>
      </trkpt>
      <trkpt lat="42.5709790" lon="-8.8895500">
        <ele>1.6</ele>
        <time>2020-08-07T09:41:11Z</time>
      </trkpt>
      <trkpt lat="42.5709600" lon="-8.8895770">
        <ele>1.6</ele>
        <time>2020-08-07T09:41:12Z</time>
      </trkpt>
      <trkpt lat="42.5709600" lon="-8.8895770">
        <ele>1.8</ele>
        <time>2020-08-07T09:41:13Z</time>
      </trkpt>
      <trkpt lat="42.5709470" lon="-8.8896040">
        <ele>2.4</ele>
        <time>2020-08-07T09:41:14Z</time>
      </trkpt>
      <trkpt lat="42.5709470" lon="-8.8896040">
        <ele>2.6</ele>
        <time>2020-08-07T09:41:15Z</time>
      </trkpt>
      <trkpt lat="42.5709280" lon="-8.8896330">
        <ele>2.8</ele>
        <time>2020-08-07T09:41:16Z</time>
      </trkpt>
      <trkpt lat="42.5709280" lon="-8.8896330">
        <ele>2.8</ele>
        <time>2020-08-07T09:41:17Z</time>
      </trkpt>
      <trkpt lat="42.5709020" lon="-8.8896620">
        <ele>2.8</ele>
        <time>2020-08-07T09:41:18Z</time>
      </trkpt>
      <trkpt lat="42.5709020" lon="-8.8896620">
        <ele>2.8</ele>
        <time>2020-08-07T09:41:19Z</time>
      </trkpt>
      <trkpt lat="42.5708830" lon="-8.8896910">
        <ele>3.0</ele>
        <time>2020-08-07T09:41:20Z</time>
      </trkpt>
      <trkpt lat="42.5708830" lon="-8.8896910">
        <ele>2.8</ele>
        <time>2020-08-07T09:41:21Z</time>
      </trkpt>
      <trkpt lat="42.5708580" lon="-8.8897240">
        <ele>2.6</ele>
        <time>2020-08-07T09:41:22Z</time>
      </trkpt>
      <trkpt lat="42.5708580" lon="-8.8897240">
        <ele>2.4</ele>
        <time>2020-08-07T09:41:23Z</time>
      </trkpt>
      <trkpt lat="42.5708420" lon="-8.8897580">
        <ele>2.0</ele>
        <time>2020-08-07T09:41:24Z</time>
      </trkpt>
      <trkpt lat="42.5708420" lon="-8.8897580">
        <ele>2.0</ele>
        <time>2020-08-07T09:41:25Z</time>
      </trkpt>
      <trkpt lat="42.5708220" lon="-8.8897960">
        <ele>2.2</ele>
        <time>2020-08-07T09:41:26Z</time>
      </trkpt>
      <trkpt lat="42.5708220" lon="-8.8897960">
        <ele>2.2</ele>
        <time>2020-08-07T09:41:27Z</time>
      </trkpt>
      <trkpt lat="42.5708130" lon="-8.8898340">
        <ele>2.2</ele>
        <time>2020-08-07T09:41:28Z</time>
      </trkpt>
      <trkpt lat="42.5708130" lon="-8.8898340">
        <ele>2.2</ele>
        <time>2020-08-07T09:41:29Z</time>
      </trkpt>
      <trkpt lat="42.5708000" lon="-8.8898750">
        <ele>2.4</ele>
        <time>2020-08-07T09:41:30Z</time>
      </trkpt>
      <trkpt lat="42.5708000" lon="-8.8898750">
        <ele>2.8</ele>
        <time>2020-08-07T09:41:31Z</time>
      </trkpt>
      <trkpt lat="42.5707900" lon="-8.8899170">
        <ele>2.6</ele>
        <time>2020-08-07T09:41:32Z</time>
      </trkpt>
      <trkpt lat="42.5707810" lon="-8.8899380">
        <ele>2.4</ele>
        <time>2020-08-07T09:41:33Z</time>
      </trkpt>
      <trkpt lat="42.5707810" lon="-8.8899380">
        <ele>2.4</ele>
        <time>2020-08-07T09:41:34Z</time>
      </trkpt>
      <trkpt lat="42.5707740" lon="-8.8899820">
        <ele>2.0</ele>
        <time>2020-08-07T09:41:35Z</time>
      </trkpt>
      <trkpt lat="42.5707620" lon="-8.8900020">
        <ele>1.4</ele>
        <time>2020-08-07T09:41:36Z</time>
      </trkpt>
      <trkpt lat="42.5707620" lon="-8.8900020">
        <ele>1.4</ele>
        <time>2020-08-07T09:41:37Z</time>
      </trkpt>
      <trkpt lat="42.5707420" lon="-8.8900370">
        <ele>1.6</ele>
        <time>2020-08-07T09:41:38Z</time>
      </trkpt>
      <trkpt lat="42.5707420" lon="-8.8900370">
        <ele>2.0</ele>
        <time>2020-08-07T09:41:39Z</time>
      </trkpt>
      <trkpt lat="42.5707300" lon="-8.8900680">
        <ele>2.0</ele>
        <time>2020-08-07T09:41:40Z</time>
      </trkpt>
      <trkpt lat="42.5707140" lon="-8.8900860">
        <ele>2.0</ele>
        <time>2020-08-07T09:41:41Z</time>
      </trkpt>
      <trkpt lat="42.5707140" lon="-8.8900860">
        <ele>2.2</ele>
        <time>2020-08-07T09:41:42Z</time>
      </trkpt>
      <trkpt lat="42.5706850" lon="-8.8901080">
        <ele>2.0</ele>
        <time>2020-08-07T09:41:43Z</time>
      </trkpt>
      <trkpt lat="42.5706850" lon="-8.8901080">
        <ele>1.8</ele>
        <time>2020-08-07T09:41:44Z</time>
      </trkpt>
      <trkpt lat="42.5706590" lon="-8.8901330">
        <ele>2.0</ele>
        <time>2020-08-07T09:41:45Z</time>
      </trkpt>
      <trkpt lat="42.5706590" lon="-8.8901330">
        <ele>2.0</ele>
        <time>2020-08-07T09:41:46Z</time>
      </trkpt>
      <trkpt lat="42.5706370" lon="-8.8901600">
        <ele>2.4</ele>
        <time>2020-08-07T09:41:47Z</time>
      </trkpt>
      <trkpt lat="42.5706210" lon="-8.8901720">
        <ele>2.4</ele>
        <time>2020-08-07T09:41:48Z</time>
      </trkpt>
      <trkpt lat="42.5706210" lon="-8.8901720">
        <ele>2.6</ele>
        <time>2020-08-07T09:41:49Z</time>
      </trkpt>
      <trkpt lat="42.5705980" lon="-8.8902000">
        <ele>2.6</ele>
        <time>2020-08-07T09:41:50Z</time>
      </trkpt>
      <trkpt lat="42.5705980" lon="-8.8902000">
        <ele>2.6</ele>
        <time>2020-08-07T09:41:51Z</time>
      </trkpt>
      <trkpt lat="42.5705760" lon="-8.8902320">
        <ele>2.6</ele>
        <time>2020-08-07T09:41:52Z</time>
      </trkpt>
      <trkpt lat="42.5705760" lon="-8.8902320">
        <ele>2.4</ele>
        <time>2020-08-07T09:41:53Z</time>
      </trkpt>
      <trkpt lat="42.5705570" lon="-8.8902660">
        <ele>2.4</ele>
        <time>2020-08-07T09:41:54Z</time>
      </trkpt>
      <trkpt lat="42.5705570" lon="-8.8902660">
        <ele>2.6</ele>
        <time>2020-08-07T09:41:55Z</time>
      </trkpt>
      <trkpt lat="42.5705410" lon="-8.8903020">
        <ele>2.4</ele>
        <time>2020-08-07T09:41:56Z</time>
      </trkpt>
      <trkpt lat="42.5705410" lon="-8.8903020">
        <ele>2.2</ele>
        <time>2020-08-07T09:41:57Z</time>
      </trkpt>
      <trkpt lat="42.5705220" lon="-8.8903380">
        <ele>2.4</ele>
        <time>2020-08-07T09:41:58Z</time>
      </trkpt>
      <trkpt lat="42.5705220" lon="-8.8903380">
        <ele>2.4</ele>
        <time>2020-08-07T09:41:59Z</time>
      </trkpt>
      <trkpt lat="42.5705020" lon="-8.8903750">
        <ele>2.2</ele>
        <time>2020-08-07T09:42:00Z</time>
      </trkpt>
      <trkpt lat="42.5705020" lon="-8.8903750">
        <ele>2.6</ele>
        <time>2020-08-07T09:42:01Z</time>
      </trkpt>
      <trkpt lat="42.5704860" lon="-8.8904110">
        <ele>2.6</ele>
        <time>2020-08-07T09:42:02Z</time>
      </trkpt>
      <trkpt lat="42.5704860" lon="-8.8904110">
        <ele>2.2</ele>
        <time>2020-08-07T09:42:03Z</time>
      </trkpt>
      <trkpt lat="42.5704770" lon="-8.8904450">
        <ele>2.2</ele>
        <time>2020-08-07T09:42:04Z</time>
      </trkpt>
      <trkpt lat="42.5704770" lon="-8.8904450">
        <ele>2.2</ele>
        <time>2020-08-07T09:42:05Z</time>
      </trkpt>
      <trkpt lat="42.5704610" lon="-8.8904760">
        <ele>2.0</ele>
        <time>2020-08-07T09:42:06Z</time>
      </trkpt>
      <trkpt lat="42.5704610" lon="-8.8904760">
        <ele>2.2</ele>
        <time>2020-08-07T09:42:07Z</time>
      </trkpt>
      <trkpt lat="42.5704380" lon="-8.8905100">
        <ele>2.2</ele>
        <time>2020-08-07T09:42:08Z</time>
      </trkpt>
      <trkpt lat="42.5704380" lon="-8.8905100">
        <ele>2.2</ele>
        <time>2020-08-07T09:42:09Z</time>
      </trkpt>
      <trkpt lat="42.5704190" lon="-8.8905360">
        <ele>2.2</ele>
        <time>2020-08-07T09:42:10Z</time>
      </trkpt>
      <trkpt lat="42.5704190" lon="-8.8905360">
        <ele>2.2</ele>
        <time>2020-08-07T09:42:11Z</time>
      </trkpt>
      <trkpt lat="42.5703970" lon="-8.8905630">
        <ele>2.2</ele>
        <time>2020-08-07T09:42:12Z</time>
      </trkpt>
      <trkpt lat="42.5703970" lon="-8.8905630">
        <ele>2.0</ele>
        <time>2020-08-07T09:42:13Z</time>
      </trkpt>
      <trkpt lat="42.5703740" lon="-8.8905870">
        <ele>2.0</ele>
        <time>2020-08-07T09:42:14Z</time>
      </trkpt>
      <trkpt lat="42.5703740" lon="-8.8905870">
        <ele>2.0</ele>
        <time>2020-08-07T09:42:15Z</time>
      </trkpt>
      <trkpt lat="42.5703520" lon="-8.8906100">
        <ele>1.8</ele>
        <time>2020-08-07T09:42:16Z</time>
      </trkpt>
      <trkpt lat="42.5703520" lon="-8.8906100">
        <ele>1.8</ele>
        <time>2020-08-07T09:42:17Z</time>
      </trkpt>
      <trkpt lat="42.5703330" lon="-8.8906380">
        <ele>1.4</ele>
        <time>2020-08-07T09:42:18Z</time>
      </trkpt>
      <trkpt lat="42.5703330" lon="-8.8906380">
        <ele>1.2</ele>
        <time>2020-08-07T09:42:19Z</time>
      </trkpt>
      <trkpt lat="42.5703070" lon="-8.8906600">
        <ele>1.4</ele>
        <time>2020-08-07T09:42:20Z</time>
      </trkpt>
      <trkpt lat="42.5703070" lon="-8.8906600">
        <ele>1.8</ele>
        <time>2020-08-07T09:42:21Z</time>
      </trkpt>
      <trkpt lat="42.5702850" lon="-8.8906830">
        <ele>2.0</ele>
        <time>2020-08-07T09:42:22Z</time>
      </trkpt>
      <trkpt lat="42.5702850" lon="-8.8906830">
        <ele>1.8</ele>
        <time>2020-08-07T09:42:23Z</time>
      </trkpt>
      <trkpt lat="42.5702620" lon="-8.8907070">
        <ele>1.8</ele>
        <time>2020-08-07T09:42:24Z</time>
      </trkpt>
      <trkpt lat="42.5702620" lon="-8.8907070">
        <ele>1.6</ele>
        <time>2020-08-07T09:42:25Z</time>
      </trkpt>
      <trkpt lat="42.5702400" lon="-8.8907340">
        <ele>1.6</ele>
        <time>2020-08-07T09:42:26Z</time>
      </trkpt>
      <trkpt lat="42.5702400" lon="-8.8907340">
        <ele>1.6</ele>
        <time>2020-08-07T09:42:27Z</time>
      </trkpt>
      <trkpt lat="42.5702180" lon="-8.8907610">
        <ele>1.6</ele>
        <time>2020-08-07T09:42:28Z</time>
      </trkpt>
      <trkpt lat="42.5702180" lon="-8.8907610">
        <ele>1.8</ele>
        <time>2020-08-07T09:42:29Z</time>
      </trkpt>
      <trkpt lat="42.5701950" lon="-8.8907900">
        <ele>1.6</ele>
        <time>2020-08-07T09:42:30Z</time>
      </trkpt>
      <trkpt lat="42.5701950" lon="-8.8907900">
        <ele>1.8</ele>
        <time>2020-08-07T09:42:31Z</time>
      </trkpt>
      <trkpt lat="42.5701760" lon="-8.8908230">
        <ele>1.6</ele>
        <time>2020-08-07T09:42:32Z</time>
      </trkpt>
      <trkpt lat="42.5701760" lon="-8.8908230">
        <ele>1.6</ele>
        <time>2020-08-07T09:42:33Z</time>
      </trkpt>
      <trkpt lat="42.5701570" lon="-8.8908530">
        <ele>1.6</ele>
        <time>2020-08-07T09:42:34Z</time>
      </trkpt>
      <trkpt lat="42.5701570" lon="-8.8908530">
        <ele>1.8</ele>
        <time>2020-08-07T09:42:35Z</time>
      </trkpt>
      <trkpt lat="42.5701340" lon="-8.8908860">
        <ele>2.0</ele>
        <time>2020-08-07T09:42:36Z</time>
      </trkpt>
      <trkpt lat="42.5701340" lon="-8.8908860">
        <ele>2.2</ele>
        <time>2020-08-07T09:42:37Z</time>
      </trkpt>
      <trkpt lat="42.5701150" lon="-8.8909130">
        <ele>2.2</ele>
        <time>2020-08-07T09:42:38Z</time>
      </trkpt>
      <trkpt lat="42.5701150" lon="-8.8909130">
        <ele>2.0</ele>
        <time>2020-08-07T09:42:39Z</time>
      </trkpt>
      <trkpt lat="42.5700960" lon="-8.8909460">
        <ele>1.8</ele>
        <time>2020-08-07T09:42:40Z</time>
      </trkpt>
      <trkpt lat="42.5700960" lon="-8.8909460">
        <ele>2.0</ele>
        <time>2020-08-07T09:42:41Z</time>
      </trkpt>
      <trkpt lat="42.5700770" lon="-8.8909750">
        <ele>2.4</ele>
        <time>2020-08-07T09:42:42Z</time>
      </trkpt>
      <trkpt lat="42.5700770" lon="-8.8909750">
        <ele>2.4</ele>
        <time>2020-08-07T09:42:43Z</time>
      </trkpt>
      <trkpt lat="42.5700540" lon="-8.8910040">
        <ele>2.4</ele>
        <time>2020-08-07T09:42:44Z</time>
      </trkpt>
      <trkpt lat="42.5700540" lon="-8.8910040">
        <ele>2.4</ele>
        <time>2020-08-07T09:42:45Z</time>
      </trkpt>
      <trkpt lat="42.5700380" lon="-8.8910310">
        <ele>2.2</ele>
        <time>2020-08-07T09:42:46Z</time>
      </trkpt>
      <trkpt lat="42.5700380" lon="-8.8910310">
        <ele>2.0</ele>
        <time>2020-08-07T09:42:47Z</time>
      </trkpt>
      <trkpt lat="42.5700190" lon="-8.8910620">
        <ele>2.0</ele>
        <time>2020-08-07T09:42:48Z</time>
      </trkpt>
      <trkpt lat="42.5700190" lon="-8.8910620">
        <ele>1.6</ele>
        <time>2020-08-07T09:42:49Z</time>
      </trkpt>
      <trkpt lat="42.5700000" lon="-8.8910940">
        <ele>1.6</ele>
        <time>2020-08-07T09:42:50Z</time>
      </trkpt>
      <trkpt lat="42.5700000" lon="-8.8910940">
        <ele>1.4</ele>
        <time>2020-08-07T09:42:51Z</time>
      </trkpt>
      <trkpt lat="42.5699780" lon="-8.8911240">
        <ele>1.4</ele>
        <time>2020-08-07T09:42:52Z</time>
      </trkpt>
      <trkpt lat="42.5699780" lon="-8.8911240">
        <ele>1.2</ele>
        <time>2020-08-07T09:42:53Z</time>
      </trkpt>
      <trkpt lat="42.5699550" lon="-8.8911490">
        <ele>1.2</ele>
        <time>2020-08-07T09:42:54Z</time>
      </trkpt>
      <trkpt lat="42.5699550" lon="-8.8911490">
        <ele>1.2</ele>
        <time>2020-08-07T09:42:55Z</time>
      </trkpt>
      <trkpt lat="42.5699300" lon="-8.8911700">
        <ele>1.0</ele>
        <time>2020-08-07T09:42:56Z</time>
      </trkpt>
      <trkpt lat="42.5699300" lon="-8.8911700">
        <ele>1.2</ele>
        <time>2020-08-07T09:42:57Z</time>
      </trkpt>
      <trkpt lat="42.5699070" lon="-8.8911940">
        <ele>1.4</ele>
        <time>2020-08-07T09:42:58Z</time>
      </trkpt>
      <trkpt lat="42.5699070" lon="-8.8911940">
        <ele>1.6</ele>
        <time>2020-08-07T09:42:59Z</time>
      </trkpt>
      <trkpt lat="42.5698850" lon="-8.8912180">
        <ele>1.4</ele>
        <time>2020-08-07T09:43:00Z</time>
      </trkpt>
      <trkpt lat="42.5698850" lon="-8.8912180">
        <ele>1.2</ele>
        <time>2020-08-07T09:43:01Z</time>
      </trkpt>
      <trkpt lat="42.5698660" lon="-8.8912460">
        <ele>0.8</ele>
        <time>2020-08-07T09:43:02Z</time>
      </trkpt>
      <trkpt lat="42.5698660" lon="-8.8912460">
        <ele>1.0</ele>
        <time>2020-08-07T09:43:03Z</time>
      </trkpt>
      <trkpt lat="42.5698460" lon="-8.8912760">
        <ele>1.4</ele>
        <time>2020-08-07T09:43:04Z</time>
      </trkpt>
      <trkpt lat="42.5698460" lon="-8.8912760">
        <ele>1.6</ele>
        <time>2020-08-07T09:43:05Z</time>
      </trkpt>
      <trkpt lat="42.5698270" lon="-8.8913080">
        <ele>1.6</ele>
        <time>2020-08-07T09:43:06Z</time>
      </trkpt>
      <trkpt lat="42.5698270" lon="-8.8913080">
        <ele>1.2</ele>
        <time>2020-08-07T09:43:07Z</time>
      </trkpt>
      <trkpt lat="42.5698080" lon="-8.8913430">
        <ele>1.4</ele>
        <time>2020-08-07T09:43:08Z</time>
      </trkpt>
      <trkpt lat="42.5698080" lon="-8.8913430">
        <ele>1.6</ele>
        <time>2020-08-07T09:43:09Z</time>
      </trkpt>
      <trkpt lat="42.5697950" lon="-8.8913780">
        <ele>1.6</ele>
        <time>2020-08-07T09:43:10Z</time>
      </trkpt>
      <trkpt lat="42.5697950" lon="-8.8913780">
        <ele>2.0</ele>
        <time>2020-08-07T09:43:11Z</time>
      </trkpt>
      <trkpt lat="42.5697790" lon="-8.8914100">
        <ele>2.0</ele>
        <time>2020-08-07T09:43:12Z</time>
      </trkpt>
      <trkpt lat="42.5697790" lon="-8.8914100">
        <ele>1.8</ele>
        <time>2020-08-07T09:43:13Z</time>
      </trkpt>
      <trkpt lat="42.5697600" lon="-8.8914430">
        <ele>1.8</ele>
        <time>2020-08-07T09:43:14Z</time>
      </trkpt>
      <trkpt lat="42.5697440" lon="-8.8914540">
        <ele>2.0</ele>
        <time>2020-08-07T09:43:15Z</time>
      </trkpt>
      <trkpt lat="42.5697440" lon="-8.8914540">
        <ele>1.8</ele>
        <time>2020-08-07T09:43:16Z</time>
      </trkpt>
      <trkpt lat="42.5697250" lon="-8.8914770">
        <ele>1.8</ele>
        <time>2020-08-07T09:43:17Z</time>
      </trkpt>
      <trkpt lat="42.5697250" lon="-8.8914770">
        <ele>1.8</ele>
        <time>2020-08-07T09:43:18Z</time>
      </trkpt>
      <trkpt lat="42.5696990" lon="-8.8914930">
        <ele>1.6</ele>
        <time>2020-08-07T09:43:19Z</time>
      </trkpt>
      <trkpt lat="42.5696990" lon="-8.8914930">
        <ele>1.4</ele>
        <time>2020-08-07T09:43:20Z</time>
      </trkpt>
      <trkpt lat="42.5696800" lon="-8.8915030">
        <ele>1.4</ele>
        <time>2020-08-07T09:43:21Z</time>
      </trkpt>
      <trkpt lat="42.5696800" lon="-8.8915030">
        <ele>1.4</ele>
        <time>2020-08-07T09:43:22Z</time>
      </trkpt>
      <trkpt lat="42.5696480" lon="-8.8915140">
        <ele>1.6</ele>
        <time>2020-08-07T09:43:23Z</time>
      </trkpt>
      <trkpt lat="42.5696480" lon="-8.8915140">
        <ele>2.0</ele>
        <time>2020-08-07T09:43:24Z</time>
      </trkpt>
      <trkpt lat="42.5696220" lon="-8.8915230">
        <ele>1.8</ele>
        <time>2020-08-07T09:43:25Z</time>
      </trkpt>
      <trkpt lat="42.5696220" lon="-8.8915230">
        <ele>2.0</ele>
        <time>2020-08-07T09:43:26Z</time>
      </trkpt>
      <trkpt lat="42.5696000" lon="-8.8915370">
        <ele>2.2</ele>
        <time>2020-08-07T09:43:27Z</time>
      </trkpt>
      <trkpt lat="42.5696000" lon="-8.8915370">
        <ele>2.4</ele>
        <time>2020-08-07T09:43:28Z</time>
      </trkpt>
      <trkpt lat="42.5695780" lon="-8.8915530">
        <ele>2.4</ele>
        <time>2020-08-07T09:43:29Z</time>
      </trkpt>
      <trkpt lat="42.5695780" lon="-8.8915530">
        <ele>2.0</ele>
        <time>2020-08-07T09:43:30Z</time>
      </trkpt>
      <trkpt lat="42.5695580" lon="-8.8915730">
        <ele>2.0</ele>
        <time>2020-08-07T09:43:31Z</time>
      </trkpt>
      <trkpt lat="42.5695580" lon="-8.8915730">
        <ele>2.0</ele>
        <time>2020-08-07T09:43:32Z</time>
      </trkpt>
      <trkpt lat="42.5695390" lon="-8.8915930">
        <ele>1.6</ele>
        <time>2020-08-07T09:43:33Z</time>
      </trkpt>
      <trkpt lat="42.5695390" lon="-8.8915930">
        <ele>1.4</ele>
        <time>2020-08-07T09:43:34Z</time>
      </trkpt>
      <trkpt lat="42.5695170" lon="-8.8916100">
        <ele>1.0</ele>
        <time>2020-08-07T09:43:35Z</time>
      </trkpt>
      <trkpt lat="42.5695170" lon="-8.8916100">
        <ele>0.8</ele>
        <time>2020-08-07T09:43:36Z</time>
      </trkpt>
      <trkpt lat="42.5694980" lon="-8.8916280">
        <ele>0.8</ele>
        <time>2020-08-07T09:43:37Z</time>
      </trkpt>
      <trkpt lat="42.5694980" lon="-8.8916280">
        <ele>1.0</ele>
        <time>2020-08-07T09:43:38Z</time>
      </trkpt>
      <trkpt lat="42.5694720" lon="-8.8916400">
        <ele>1.0</ele>
        <time>2020-08-07T09:43:39Z</time>
      </trkpt>
      <trkpt lat="42.5694720" lon="-8.8916400">
        <ele>1.0</ele>
        <time>2020-08-07T09:43:40Z</time>
      </trkpt>
      <trkpt lat="42.5694460" lon="-8.8916520">
        <ele>1.0</ele>
        <time>2020-08-07T09:43:41Z</time>
      </trkpt>
      <trkpt lat="42.5694460" lon="-8.8916520">
        <ele>1.0</ele>
        <time>2020-08-07T09:43:42Z</time>
      </trkpt>
      <trkpt lat="42.5694210" lon="-8.8916630">
        <ele>1.0</ele>
        <time>2020-08-07T09:43:43Z</time>
      </trkpt>
      <trkpt lat="42.5694210" lon="-8.8916630">
        <ele>0.8</ele>
        <time>2020-08-07T09:43:44Z</time>
      </trkpt>
      <trkpt lat="42.5693980" lon="-8.8916780">
        <ele>0.6</ele>
        <time>2020-08-07T09:43:45Z</time>
      </trkpt>
      <trkpt lat="42.5693980" lon="-8.8916780">
        <ele>1.0</ele>
        <time>2020-08-07T09:43:46Z</time>
      </trkpt>
      <trkpt lat="42.5693730" lon="-8.8916910">
        <ele>1.2</ele>
        <time>2020-08-07T09:43:47Z</time>
      </trkpt>
      <trkpt lat="42.5693730" lon="-8.8916910">
        <ele>1.4</ele>
        <time>2020-08-07T09:43:48Z</time>
      </trkpt>
      <trkpt lat="42.5693540" lon="-8.8917100">
        <ele>1.2</ele>
        <time>2020-08-07T09:43:49Z</time>
      </trkpt>
      <trkpt lat="42.5693540" lon="-8.8917100">
        <ele>1.2</ele>
        <time>2020-08-07T09:43:50Z</time>
      </trkpt>
      <trkpt lat="42.5693340" lon="-8.8917300">
        <ele>1.2</ele>
        <time>2020-08-07T09:43:51Z</time>
      </trkpt>
      <trkpt lat="42.5693340" lon="-8.8917300">
        <ele>1.2</ele>
        <time>2020-08-07T09:43:52Z</time>
      </trkpt>
      <trkpt lat="42.5693120" lon="-8.8917490">
        <ele>1.8</ele>
        <time>2020-08-07T09:43:53Z</time>
      </trkpt>
      <trkpt lat="42.5693120" lon="-8.8917490">
        <ele>1.6</ele>
        <time>2020-08-07T09:43:54Z</time>
      </trkpt>
      <trkpt lat="42.5692990" lon="-8.8917690">
        <ele>2.0</ele>
        <time>2020-08-07T09:43:55Z</time>
      </trkpt>
      <trkpt lat="42.5692990" lon="-8.8917690">
        <ele>1.8</ele>
        <time>2020-08-07T09:43:56Z</time>
      </trkpt>
      <trkpt lat="42.5692800" lon="-8.8917850">
        <ele>2.0</ele>
        <time>2020-08-07T09:43:57Z</time>
      </trkpt>
      <trkpt lat="42.5692800" lon="-8.8917850">
        <ele>2.0</ele>
        <time>2020-08-07T09:43:58Z</time>
      </trkpt>
      <trkpt lat="42.5692610" lon="-8.8918020">
        <ele>2.0</ele>
        <time>2020-08-07T09:43:59Z</time>
      </trkpt>
      <trkpt lat="42.5692610" lon="-8.8918020">
        <ele>1.6</ele>
        <time>2020-08-07T09:44:00Z</time>
      </trkpt>
      <trkpt lat="42.5692350" lon="-8.8918200">
        <ele>1.6</ele>
        <time>2020-08-07T09:44:01Z</time>
      </trkpt>
      <trkpt lat="42.5692350" lon="-8.8918200">
        <ele>1.6</ele>
        <time>2020-08-07T09:44:02Z</time>
      </trkpt>
      <trkpt lat="42.5692130" lon="-8.8918400">
        <ele>1.6</ele>
        <time>2020-08-07T09:44:03Z</time>
      </trkpt>
      <trkpt lat="42.5692130" lon="-8.8918400">
        <ele>1.6</ele>
        <time>2020-08-07T09:44:04Z</time>
      </trkpt>
      <trkpt lat="42.5691940" lon="-8.8918580">
        <ele>1.6</ele>
        <time>2020-08-07T09:44:05Z</time>
      </trkpt>
      <trkpt lat="42.5691940" lon="-8.8918580">
        <ele>1.6</ele>
        <time>2020-08-07T09:44:06Z</time>
      </trkpt>
      <trkpt lat="42.5691710" lon="-8.8918800">
        <ele>1.4</ele>
        <time>2020-08-07T09:44:07Z</time>
      </trkpt>
      <trkpt lat="42.5691710" lon="-8.8918800">
        <ele>1.8</ele>
        <time>2020-08-07T09:44:08Z</time>
      </trkpt>
      <trkpt lat="42.5691520" lon="-8.8918980">
        <ele>1.8</ele>
        <time>2020-08-07T09:44:09Z</time>
      </trkpt>
      <trkpt lat="42.5691520" lon="-8.8918980">
        <ele>2.0</ele>
        <time>2020-08-07T09:44:10Z</time>
      </trkpt>
      <trkpt lat="42.5691260" lon="-8.8919110">
        <ele>2.2</ele>
        <time>2020-08-07T09:44:11Z</time>
      </trkpt>
      <trkpt lat="42.5691260" lon="-8.8919110">
        <ele>2.2</ele>
        <time>2020-08-07T09:44:12Z</time>
      </trkpt>
      <trkpt lat="42.5691040" lon="-8.8919290">
        <ele>2.0</ele>
        <time>2020-08-07T09:44:13Z</time>
      </trkpt>
      <trkpt lat="42.5691040" lon="-8.8919290">
        <ele>2.2</ele>
        <time>2020-08-07T09:44:14Z</time>
      </trkpt>
      <trkpt lat="42.5690750" lon="-8.8919420">
        <ele>2.2</ele>
        <time>2020-08-07T09:44:15Z</time>
      </trkpt>
      <trkpt lat="42.5690750" lon="-8.8919420">
        <ele>2.4</ele>
        <time>2020-08-07T09:44:16Z</time>
      </trkpt>
      <trkpt lat="42.5690500" lon="-8.8919580">
        <ele>2.6</ele>
        <time>2020-08-07T09:44:17Z</time>
      </trkpt>
      <trkpt lat="42.5690500" lon="-8.8919580">
        <ele>2.6</ele>
        <time>2020-08-07T09:44:18Z</time>
      </trkpt>
      <trkpt lat="42.5690240" lon="-8.8919710">
        <ele>2.4</ele>
        <time>2020-08-07T09:44:19Z</time>
      </trkpt>
      <trkpt lat="42.5690240" lon="-8.8919710">
        <ele>2.4</ele>
        <time>2020-08-07T09:44:20Z</time>
      </trkpt>
      <trkpt lat="42.5690020" lon="-8.8919830">
        <ele>2.4</ele>
        <time>2020-08-07T09:44:21Z</time>
      </trkpt>
      <trkpt lat="42.5690020" lon="-8.8919830">
        <ele>2.4</ele>
        <time>2020-08-07T09:44:22Z</time>
      </trkpt>
      <trkpt lat="42.5689760" lon="-8.8919920">
        <ele>2.6</ele>
        <time>2020-08-07T09:44:23Z</time>
      </trkpt>
      <trkpt lat="42.5689760" lon="-8.8919920">
        <ele>2.8</ele>
        <time>2020-08-07T09:44:24Z</time>
      </trkpt>
      <trkpt lat="42.5689470" lon="-8.8920020">
        <ele>3.2</ele>
        <time>2020-08-07T09:44:25Z</time>
      </trkpt>
      <trkpt lat="42.5689470" lon="-8.8920020">
        <ele>3.0</ele>
        <time>2020-08-07T09:44:26Z</time>
      </trkpt>
      <trkpt lat="42.5689250" lon="-8.8920100">
        <ele>2.8</ele>
        <time>2020-08-07T09:44:27Z</time>
      </trkpt>
      <trkpt lat="42.5689250" lon="-8.8920100">
        <ele>2.8</ele>
        <time>2020-08-07T09:44:28Z</time>
      </trkpt>
      <trkpt lat="42.5689060" lon="-8.8920180">
        <ele>3.0</ele>
        <time>2020-08-07T09:44:29Z</time>
      </trkpt>
      <trkpt lat="42.5689060" lon="-8.8920180">
        <ele>2.8</ele>
        <time>2020-08-07T09:44:30Z</time>
      </trkpt>
      <trkpt lat="42.5688860" lon="-8.8920290">
        <ele>2.8</ele>
        <time>2020-08-07T09:44:31Z</time>
      </trkpt>
      <trkpt lat="42.5688860" lon="-8.8920290">
        <ele>3.0</ele>
        <time>2020-08-07T09:44:32Z</time>
      </trkpt>
      <trkpt lat="42.5688670" lon="-8.8920380">
        <ele>3.0</ele>
        <time>2020-08-07T09:44:33Z</time>
      </trkpt>
      <trkpt lat="42.5688670" lon="-8.8920380">
        <ele>3.4</ele>
        <time>2020-08-07T09:44:34Z</time>
      </trkpt>
      <trkpt lat="42.5688420" lon="-8.8920500">
        <ele>3.2</ele>
        <time>2020-08-07T09:44:35Z</time>
      </trkpt>
      <trkpt lat="42.5688420" lon="-8.8920500">
        <ele>3.4</ele>
        <time>2020-08-07T09:44:36Z</time>
      </trkpt>
      <trkpt lat="42.5688220" lon="-8.8920620">
        <ele>3.4</ele>
        <time>2020-08-07T09:44:37Z</time>
      </trkpt>
      <trkpt lat="42.5688220" lon="-8.8920620">
        <ele>3.2</ele>
        <time>2020-08-07T09:44:38Z</time>
      </trkpt>
      <trkpt lat="42.5687940" lon="-8.8920720">
        <ele>3.0</ele>
        <time>2020-08-07T09:44:39Z</time>
      </trkpt>
      <trkpt lat="42.5687940" lon="-8.8920720">
        <ele>3.0</ele>
        <time>2020-08-07T09:44:40Z</time>
      </trkpt>
      <trkpt lat="42.5687710" lon="-8.8920850">
        <ele>3.4</ele>
        <time>2020-08-07T09:44:41Z</time>
      </trkpt>
      <trkpt lat="42.5687710" lon="-8.8920850">
        <ele>3.4</ele>
        <time>2020-08-07T09:44:42Z</time>
      </trkpt>
      <trkpt lat="42.5687490" lon="-8.8920970">
        <ele>3.0</ele>
        <time>2020-08-07T09:44:43Z</time>
      </trkpt>
      <trkpt lat="42.5687490" lon="-8.8920970">
        <ele>2.8</ele>
        <time>2020-08-07T09:44:44Z</time>
      </trkpt>
      <trkpt lat="42.5687230" lon="-8.8921100">
        <ele>2.6</ele>
        <time>2020-08-07T09:44:45Z</time>
      </trkpt>
      <trkpt lat="42.5687230" lon="-8.8921100">
        <ele>2.2</ele>
        <time>2020-08-07T09:44:46Z</time>
      </trkpt>
      <trkpt lat="42.5686940" lon="-8.8921230">
        <ele>2.0</ele>
        <time>2020-08-07T09:44:47Z</time>
      </trkpt>
      <trkpt lat="42.5686940" lon="-8.8921230">
        <ele>1.8</ele>
        <time>2020-08-07T09:44:48Z</time>
      </trkpt>
      <trkpt lat="42.5686690" lon="-8.8921340">
        <ele>1.8</ele>
        <time>2020-08-07T09:44:49Z</time>
      </trkpt>
      <trkpt lat="42.5686690" lon="-8.8921340">
        <ele>1.8</ele>
        <time>2020-08-07T09:44:50Z</time>
      </trkpt>
      <trkpt lat="42.5686430" lon="-8.8921370">
        <ele>1.6</ele>
        <time>2020-08-07T09:44:51Z</time>
      </trkpt>
      <trkpt lat="42.5686430" lon="-8.8921370">
        <ele>1.8</ele>
        <time>2020-08-07T09:44:52Z</time>
      </trkpt>
      <trkpt lat="42.5686140" lon="-8.8921400">
        <ele>1.6</ele>
        <time>2020-08-07T09:44:53Z</time>
      </trkpt>
      <trkpt lat="42.5686140" lon="-8.8921400">
        <ele>1.2</ele>
        <time>2020-08-07T09:44:54Z</time>
      </trkpt>
      <trkpt lat="42.5685920" lon="-8.8921430">
        <ele>1.0</ele>
        <time>2020-08-07T09:44:55Z</time>
      </trkpt>
      <trkpt lat="42.5685920" lon="-8.8921430">
        <ele>1.2</ele>
        <time>2020-08-07T09:44:56Z</time>
      </trkpt>
      <trkpt lat="42.5685600" lon="-8.8921450">
        <ele>1.2</ele>
        <time>2020-08-07T09:44:57Z</time>
      </trkpt>
      <trkpt lat="42.5685600" lon="-8.8921450">
        <ele>1.2</ele>
        <time>2020-08-07T09:44:58Z</time>
      </trkpt>
      <trkpt lat="42.5685340" lon="-8.8921430">
        <ele>1.4</ele>
        <time>2020-08-07T09:44:59Z</time>
      </trkpt>
      <trkpt lat="42.5685340" lon="-8.8921430">
        <ele>1.6</ele>
        <time>2020-08-07T09:45:00Z</time>
      </trkpt>
      <trkpt lat="42.5685090" lon="-8.8921470">
        <ele>1.6</ele>
        <time>2020-08-07T09:45:01Z</time>
      </trkpt>
      <trkpt lat="42.5685090" lon="-8.8921470">
        <ele>1.6</ele>
        <time>2020-08-07T09:45:02Z</time>
      </trkpt>
      <trkpt lat="42.5684800" lon="-8.8921540">
        <ele>1.4</ele>
        <time>2020-08-07T09:45:03Z</time>
      </trkpt>
      <trkpt lat="42.5684800" lon="-8.8921540">
        <ele>1.4</ele>
        <time>2020-08-07T09:45:04Z</time>
      </trkpt>
      <trkpt lat="42.5684540" lon="-8.8921610">
        <ele>1.2</ele>
        <time>2020-08-07T09:45:05Z</time>
      </trkpt>
      <trkpt lat="42.5684540" lon="-8.8921610">
        <ele>1.2</ele>
        <time>2020-08-07T09:45:06Z</time>
      </trkpt>
      <trkpt lat="42.5684320" lon="-8.8921620">
        <ele>1.2</ele>
        <time>2020-08-07T09:45:07Z</time>
      </trkpt>
      <trkpt lat="42.5684320" lon="-8.8921620">
        <ele>1.2</ele>
        <time>2020-08-07T09:45:08Z</time>
      </trkpt>
      <trkpt lat="42.5684100" lon="-8.8921680">
        <ele>1.4</ele>
        <time>2020-08-07T09:45:09Z</time>
      </trkpt>
      <trkpt lat="42.5684100" lon="-8.8921680">
        <ele>1.8</ele>
        <time>2020-08-07T09:45:10Z</time>
      </trkpt>
      <trkpt lat="42.5683870" lon="-8.8921740">
        <ele>2.2</ele>
        <time>2020-08-07T09:45:11Z</time>
      </trkpt>
      <trkpt lat="42.5683870" lon="-8.8921740">
        <ele>2.4</ele>
        <time>2020-08-07T09:45:12Z</time>
      </trkpt>
      <trkpt lat="42.5683620" lon="-8.8921780">
        <ele>2.8</ele>
        <time>2020-08-07T09:45:13Z</time>
      </trkpt>
      <trkpt lat="42.5683620" lon="-8.8921780">
        <ele>3.0</ele>
        <time>2020-08-07T09:45:14Z</time>
      </trkpt>
      <trkpt lat="42.5683390" lon="-8.8921870">
        <ele>2.8</ele>
        <time>2020-08-07T09:45:15Z</time>
      </trkpt>
      <trkpt lat="42.5683390" lon="-8.8921870">
        <ele>3.0</ele>
        <time>2020-08-07T09:45:16Z</time>
      </trkpt>
      <trkpt lat="42.5683200" lon="-8.8921930">
        <ele>2.8</ele>
        <time>2020-08-07T09:45:17Z</time>
      </trkpt>
      <trkpt lat="42.5683200" lon="-8.8921930">
        <ele>2.8</ele>
        <time>2020-08-07T09:45:18Z</time>
      </trkpt>
      <trkpt lat="42.5682980" lon="-8.8922010">
        <ele>2.6</ele>
        <time>2020-08-07T09:45:19Z</time>
      </trkpt>
      <trkpt lat="42.5682980" lon="-8.8922010">
        <ele>2.6</ele>
        <time>2020-08-07T09:45:20Z</time>
      </trkpt>
      <trkpt lat="42.5682750" lon="-8.8922030">
        <ele>2.4</ele>
        <time>2020-08-07T09:45:21Z</time>
      </trkpt>
      <trkpt lat="42.5682750" lon="-8.8922030">
        <ele>2.4</ele>
        <time>2020-08-07T09:45:22Z</time>
      </trkpt>
      <trkpt lat="42.5682460" lon="-8.8922060">
        <ele>2.4</ele>
        <time>2020-08-07T09:45:23Z</time>
      </trkpt>
      <trkpt lat="42.5682460" lon="-8.8922060">
        <ele>2.6</ele>
        <time>2020-08-07T09:45:24Z</time>
      </trkpt>
      <trkpt lat="42.5682180" lon="-8.8922060">
        <ele>2.0</ele>
        <time>2020-08-07T09:45:25Z</time>
      </trkpt>
      <trkpt lat="42.5682180" lon="-8.8922060">
        <ele>1.8</ele>
        <time>2020-08-07T09:45:26Z</time>
      </trkpt>
      <trkpt lat="42.5681890" lon="-8.8922060">
        <ele>1.4</ele>
        <time>2020-08-07T09:45:27Z</time>
      </trkpt>
      <trkpt lat="42.5681890" lon="-8.8922060">
        <ele>1.2</ele>
        <time>2020-08-07T09:45:28Z</time>
      </trkpt>
      <trkpt lat="42.5681600" lon="-8.8922060">
        <ele>1.2</ele>
        <time>2020-08-07T09:45:29Z</time>
      </trkpt>
      <trkpt lat="42.5681600" lon="-8.8922060">
        <ele>1.4</ele>
        <time>2020-08-07T09:45:30Z</time>
      </trkpt>
      <trkpt lat="42.5681340" lon="-8.8921980">
        <ele>1.2</ele>
        <time>2020-08-07T09:45:31Z</time>
      </trkpt>
      <trkpt lat="42.5681340" lon="-8.8921980">
        <ele>1.2</ele>
        <time>2020-08-07T09:45:32Z</time>
      </trkpt>
      <trkpt lat="42.5681020" lon="-8.8921970">
        <ele>1.0</ele>
        <time>2020-08-07T09:45:33Z</time>
      </trkpt>
      <trkpt lat="42.5681020" lon="-8.8921970">
        <ele>1.0</ele>
        <time>2020-08-07T09:45:34Z</time>
      </trkpt>
      <trkpt lat="42.5680770" lon="-8.8921970">
        <ele>1.2</ele>
        <time>2020-08-07T09:45:35Z</time>
      </trkpt>
      <trkpt lat="42.5680770" lon="-8.8921970">
        <ele>1.2</ele>
        <time>2020-08-07T09:45:36Z</time>
      </trkpt>
      <trkpt lat="42.5680480" lon="-8.8922030">
        <ele>1.2</ele>
        <time>2020-08-07T09:45:37Z</time>
      </trkpt>
      <trkpt lat="42.5680480" lon="-8.8922030">
        <ele>1.4</ele>
        <time>2020-08-07T09:45:38Z</time>
      </trkpt>
      <trkpt lat="42.5680190" lon="-8.8922060">
        <ele>1.4</ele>
        <time>2020-08-07T09:45:39Z</time>
      </trkpt>
      <trkpt lat="42.5680190" lon="-8.8922060">
        <ele>1.6</ele>
        <time>2020-08-07T09:45:40Z</time>
      </trkpt>
      <trkpt lat="42.5679940" lon="-8.8922140">
        <ele>1.8</ele>
        <time>2020-08-07T09:45:41Z</time>
      </trkpt>
      <trkpt lat="42.5679940" lon="-8.8922140">
        <ele>2.2</ele>
        <time>2020-08-07T09:45:42Z</time>
      </trkpt>
      <trkpt lat="42.5679620" lon="-8.8922220">
        <ele>2.4</ele>
        <time>2020-08-07T09:45:43Z</time>
      </trkpt>
      <trkpt lat="42.5679620" lon="-8.8922220">
        <ele>2.4</ele>
        <time>2020-08-07T09:45:44Z</time>
      </trkpt>
      <trkpt lat="42.5679360" lon="-8.8922320">
        <ele>2.8</ele>
        <time>2020-08-07T09:45:45Z</time>
      </trkpt>
      <trkpt lat="42.5679360" lon="-8.8922320">
        <ele>2.8</ele>
        <time>2020-08-07T09:45:46Z</time>
      </trkpt>
      <trkpt lat="42.5679100" lon="-8.8922390">
        <ele>2.8</ele>
        <time>2020-08-07T09:45:47Z</time>
      </trkpt>
      <trkpt lat="42.5679100" lon="-8.8922390">
        <ele>3.0</ele>
        <time>2020-08-07T09:45:48Z</time>
      </trkpt>
      <trkpt lat="42.5678820" lon="-8.8922500">
        <ele>3.2</ele>
        <time>2020-08-07T09:45:49Z</time>
      </trkpt>
      <trkpt lat="42.5678820" lon="-8.8922500">
        <ele>3.4</ele>
        <time>2020-08-07T09:45:50Z</time>
      </trkpt>
      <trkpt lat="42.5678530" lon="-8.8922580">
        <ele>3.2</ele>
        <time>2020-08-07T09:45:51Z</time>
      </trkpt>
      <trkpt lat="42.5678530" lon="-8.8922580">
        <ele>3.4</ele>
        <time>2020-08-07T09:45:52Z</time>
      </trkpt>
      <trkpt lat="42.5678210" lon="-8.8922660">
        <ele>3.4</ele>
        <time>2020-08-07T09:45:53Z</time>
      </trkpt>
      <trkpt lat="42.5678210" lon="-8.8922660">
        <ele>3.4</ele>
        <time>2020-08-07T09:45:54Z</time>
      </trkpt>
      <trkpt lat="42.5677950" lon="-8.8922660">
        <ele>3.4</ele>
        <time>2020-08-07T09:45:55Z</time>
      </trkpt>
      <trkpt lat="42.5677950" lon="-8.8922660">
        <ele>3.4</ele>
        <time>2020-08-07T09:45:56Z</time>
      </trkpt>
      <trkpt lat="42.5677630" lon="-8.8922630">
        <ele>3.2</ele>
        <time>2020-08-07T09:45:57Z</time>
      </trkpt>
      <trkpt lat="42.5677630" lon="-8.8922630">
        <ele>3.4</ele>
        <time>2020-08-07T09:45:58Z</time>
      </trkpt>
      <trkpt lat="42.5677340" lon="-8.8922580">
        <ele>3.6</ele>
        <time>2020-08-07T09:45:59Z</time>
      </trkpt>
      <trkpt lat="42.5677340" lon="-8.8922580">
        <ele>3.4</ele>
        <time>2020-08-07T09:46:00Z</time>
      </trkpt>
      <trkpt lat="42.5677120" lon="-8.8922530">
        <ele>3.4</ele>
        <time>2020-08-07T09:46:01Z</time>
      </trkpt>
      <trkpt lat="42.5677120" lon="-8.8922530">
        <ele>3.6</ele>
        <time>2020-08-07T09:46:02Z</time>
      </trkpt>
      <trkpt lat="42.5676830" lon="-8.8922500">
        <ele>3.4</ele>
        <time>2020-08-07T09:46:03Z</time>
      </trkpt>
      <trkpt lat="42.5676830" lon="-8.8922500">
        <ele>3.4</ele>
        <time>2020-08-07T09:46:04Z</time>
      </trkpt>
      <trkpt lat="42.5676580" lon="-8.8922460">
        <ele>2.8</ele>
        <time>2020-08-07T09:46:05Z</time>
      </trkpt>
      <trkpt lat="42.5676580" lon="-8.8922460">
        <ele>2.8</ele>
        <time>2020-08-07T09:46:06Z</time>
      </trkpt>
      <trkpt lat="42.5676260" lon="-8.8922480">
        <ele>2.8</ele>
        <time>2020-08-07T09:46:07Z</time>
      </trkpt>
      <trkpt lat="42.5676260" lon="-8.8922480">
        <ele>3.2</ele>
        <time>2020-08-07T09:46:08Z</time>
      </trkpt>
      <trkpt lat="42.5676030" lon="-8.8922550">
        <ele>3.0</ele>
        <time>2020-08-07T09:46:09Z</time>
      </trkpt>
      <trkpt lat="42.5676030" lon="-8.8922550">
        <ele>3.6</ele>
        <time>2020-08-07T09:46:10Z</time>
      </trkpt>
      <trkpt lat="42.5675810" lon="-8.8922630">
        <ele>4.0</ele>
        <time>2020-08-07T09:46:11Z</time>
      </trkpt>
      <trkpt lat="42.5675620" lon="-8.8922660">
        <ele>3.8</ele>
        <time>2020-08-07T09:46:12Z</time>
      </trkpt>
      <trkpt lat="42.5675620" lon="-8.8922660">
        <ele>3.4</ele>
        <time>2020-08-07T09:46:13Z</time>
      </trkpt>
      <trkpt lat="42.5675360" lon="-8.8922720">
        <ele>3.4</ele>
        <time>2020-08-07T09:46:14Z</time>
      </trkpt>
      <trkpt lat="42.5675360" lon="-8.8922720">
        <ele>3.6</ele>
        <time>2020-08-07T09:46:15Z</time>
      </trkpt>
      <trkpt lat="42.5675040" lon="-8.8922800">
        <ele>3.6</ele>
        <time>2020-08-07T09:46:16Z</time>
      </trkpt>
      <trkpt lat="42.5675040" lon="-8.8922800">
        <ele>3.8</ele>
        <time>2020-08-07T09:46:17Z</time>
      </trkpt>
      <trkpt lat="42.5674780" lon="-8.8922830">
        <ele>3.8</ele>
        <time>2020-08-07T09:46:18Z</time>
      </trkpt>
      <trkpt lat="42.5674780" lon="-8.8922830">
        <ele>3.4</ele>
        <time>2020-08-07T09:46:19Z</time>
      </trkpt>
      <trkpt lat="42.5674530" lon="-8.8922880">
        <ele>3.4</ele>
        <time>2020-08-07T09:46:20Z</time>
      </trkpt>
      <trkpt lat="42.5674530" lon="-8.8922880">
        <ele>3.2</ele>
        <time>2020-08-07T09:46:21Z</time>
      </trkpt>
      <trkpt lat="42.5674240" lon="-8.8922860">
        <ele>3.0</ele>
        <time>2020-08-07T09:46:22Z</time>
      </trkpt>
      <trkpt lat="42.5674240" lon="-8.8922860">
        <ele>2.8</ele>
        <time>2020-08-07T09:46:23Z</time>
      </trkpt>
      <trkpt lat="42.5673980" lon="-8.8922780">
        <ele>3.0</ele>
        <time>2020-08-07T09:46:24Z</time>
      </trkpt>
      <trkpt lat="42.5673980" lon="-8.8922780">
        <ele>3.2</ele>
        <time>2020-08-07T09:46:25Z</time>
      </trkpt>
      <trkpt lat="42.5673760" lon="-8.8922660">
        <ele>3.0</ele>
        <time>2020-08-07T09:46:26Z</time>
      </trkpt>
      <trkpt lat="42.5673760" lon="-8.8922660">
        <ele>2.6</ele>
        <time>2020-08-07T09:46:27Z</time>
      </trkpt>
      <trkpt lat="42.5673470" lon="-8.8922530">
        <ele>2.8</ele>
        <time>2020-08-07T09:46:28Z</time>
      </trkpt>
      <trkpt lat="42.5673470" lon="-8.8922530">
        <ele>3.0</ele>
        <time>2020-08-07T09:46:29Z</time>
      </trkpt>
      <trkpt lat="42.5673180" lon="-8.8922480">
        <ele>3.2</ele>
        <time>2020-08-07T09:46:30Z</time>
      </trkpt>
      <trkpt lat="42.5673180" lon="-8.8922480">
        <ele>3.2</ele>
        <time>2020-08-07T09:46:31Z</time>
      </trkpt>
      <trkpt lat="42.5672960" lon="-8.8922480">
        <ele>3.0</ele>
        <time>2020-08-07T09:46:32Z</time>
      </trkpt>
      <trkpt lat="42.5672960" lon="-8.8922480">
        <ele>3.0</ele>
        <time>2020-08-07T09:46:33Z</time>
      </trkpt>
      <trkpt lat="42.5672670" lon="-8.8922530">
        <ele>2.6</ele>
        <time>2020-08-07T09:46:34Z</time>
      </trkpt>
      <trkpt lat="42.5672670" lon="-8.8922530">
        <ele>3.0</ele>
        <time>2020-08-07T09:46:35Z</time>
      </trkpt>
      <trkpt lat="42.5672420" lon="-8.8922580">
        <ele>2.8</ele>
        <time>2020-08-07T09:46:36Z</time>
      </trkpt>
      <trkpt lat="42.5672420" lon="-8.8922580">
        <ele>3.0</ele>
        <time>2020-08-07T09:46:37Z</time>
      </trkpt>
      <trkpt lat="42.5672160" lon="-8.8922700">
        <ele>3.0</ele>
        <time>2020-08-07T09:46:38Z</time>
      </trkpt>
      <trkpt lat="42.5672160" lon="-8.8922700">
        <ele>3.4</ele>
        <time>2020-08-07T09:46:39Z</time>
      </trkpt>
      <trkpt lat="42.5671870" lon="-8.8922780">
        <ele>3.2</ele>
        <time>2020-08-07T09:46:40Z</time>
      </trkpt>
      <trkpt lat="42.5671870" lon="-8.8922780">
        <ele>3.6</ele>
        <time>2020-08-07T09:46:41Z</time>
      </trkpt>
      <trkpt lat="42.5671580" lon="-8.8922900">
        <ele>3.8</ele>
        <time>2020-08-07T09:46:42Z</time>
      </trkpt>
      <trkpt lat="42.5671580" lon="-8.8922900">
        <ele>3.8</ele>
        <time>2020-08-07T09:46:43Z</time>
      </trkpt>
      <trkpt lat="42.5671360" lon="-8.8923000">
        <ele>3.6</ele>
        <time>2020-08-07T09:46:44Z</time>
      </trkpt>
      <trkpt lat="42.5671360" lon="-8.8923000">
        <ele>3.6</ele>
        <time>2020-08-07T09:46:45Z</time>
      </trkpt>
      <trkpt lat="42.5671040" lon="-8.8923060">
        <ele>3.4</ele>
        <time>2020-08-07T09:46:46Z</time>
      </trkpt>
      <trkpt lat="42.5671040" lon="-8.8923060">
        <ele>3.6</ele>
        <time>2020-08-07T09:46:47Z</time>
      </trkpt>
      <trkpt lat="42.5670820" lon="-8.8923060">
        <ele>3.4</ele>
        <time>2020-08-07T09:46:48Z</time>
      </trkpt>
      <trkpt lat="42.5670620" lon="-8.8923100">
        <ele>3.4</ele>
        <time>2020-08-07T09:46:49Z</time>
      </trkpt>
      <trkpt lat="42.5670620" lon="-8.8923100">
        <ele>3.2</ele>
        <time>2020-08-07T09:46:50Z</time>
      </trkpt>
      <trkpt lat="42.5670370" lon="-8.8923100">
        <ele>3.0</ele>
        <time>2020-08-07T09:46:51Z</time>
      </trkpt>
      <trkpt lat="42.5670370" lon="-8.8923100">
        <ele>2.8</ele>
        <time>2020-08-07T09:46:52Z</time>
      </trkpt>
      <trkpt lat="42.5670050" lon="-8.8923060">
        <ele>2.8</ele>
        <time>2020-08-07T09:46:53Z</time>
      </trkpt>
      <trkpt lat="42.5670050" lon="-8.8923060">
        <ele>3.0</ele>
        <time>2020-08-07T09:46:54Z</time>
      </trkpt>
      <trkpt lat="42.5669820" lon="-8.8923020">
        <ele>3.0</ele>
        <time>2020-08-07T09:46:55Z</time>
      </trkpt>
      <trkpt lat="42.5669820" lon="-8.8923020">
        <ele>3.0</ele>
        <time>2020-08-07T09:46:56Z</time>
      </trkpt>
      <trkpt lat="42.5669500" lon="-8.8923000">
        <ele>3.0</ele>
        <time>2020-08-07T09:46:57Z</time>
      </trkpt>
      <trkpt lat="42.5669500" lon="-8.8923000">
        <ele>2.8</ele>
        <time>2020-08-07T09:46:58Z</time>
      </trkpt>
      <trkpt lat="42.5669250" lon="-8.8923020">
        <ele>3.0</ele>
        <time>2020-08-07T09:46:59Z</time>
      </trkpt>
      <trkpt lat="42.5669250" lon="-8.8923020">
        <ele>2.8</ele>
        <time>2020-08-07T09:47:00Z</time>
      </trkpt>
      <trkpt lat="42.5668990" lon="-8.8923080">
        <ele>3.0</ele>
        <time>2020-08-07T09:47:01Z</time>
      </trkpt>
      <trkpt lat="42.5668990" lon="-8.8923080">
        <ele>2.8</ele>
        <time>2020-08-07T09:47:02Z</time>
      </trkpt>
      <trkpt lat="42.5668770" lon="-8.8923150">
        <ele>3.2</ele>
        <time>2020-08-07T09:47:03Z</time>
      </trkpt>
      <trkpt lat="42.5668770" lon="-8.8923150">
        <ele>3.0</ele>
        <time>2020-08-07T09:47:04Z</time>
      </trkpt>
      <trkpt lat="42.5668480" lon="-8.8923230">
        <ele>3.2</ele>
        <time>2020-08-07T09:47:05Z</time>
      </trkpt>
      <trkpt lat="42.5668480" lon="-8.8923230">
        <ele>3.2</ele>
        <time>2020-08-07T09:47:06Z</time>
      </trkpt>
      <trkpt lat="42.5668220" lon="-8.8923280">
        <ele>3.2</ele>
        <time>2020-08-07T09:47:07Z</time>
      </trkpt>
      <trkpt lat="42.5668220" lon="-8.8923280">
        <ele>3.0</ele>
        <time>2020-08-07T09:47:08Z</time>
      </trkpt>
      <trkpt lat="42.5667970" lon="-8.8923320">
        <ele>2.8</ele>
        <time>2020-08-07T09:47:09Z</time>
      </trkpt>
      <trkpt lat="42.5667970" lon="-8.8923320">
        <ele>2.8</ele>
        <time>2020-08-07T09:47:10Z</time>
      </trkpt>
      <trkpt lat="42.5667710" lon="-8.8923300">
        <ele>2.6</ele>
        <time>2020-08-07T09:47:11Z</time>
      </trkpt>
      <trkpt lat="42.5667710" lon="-8.8923300">
        <ele>2.2</ele>
        <time>2020-08-07T09:47:12Z</time>
      </trkpt>
      <trkpt lat="42.5667460" lon="-8.8923260">
        <ele>1.6</ele>
        <time>2020-08-07T09:47:13Z</time>
      </trkpt>
      <trkpt lat="42.5667460" lon="-8.8923260">
        <ele>1.4</ele>
        <time>2020-08-07T09:47:14Z</time>
      </trkpt>
      <trkpt lat="42.5667170" lon="-8.8923280">
        <ele>1.6</ele>
        <time>2020-08-07T09:47:15Z</time>
      </trkpt>
      <trkpt lat="42.5667170" lon="-8.8923280">
        <ele>1.8</ele>
        <time>2020-08-07T09:47:16Z</time>
      </trkpt>
      <trkpt lat="42.5666880" lon="-8.8923300">
        <ele>1.8</ele>
        <time>2020-08-07T09:47:17Z</time>
      </trkpt>
      <trkpt lat="42.5666880" lon="-8.8923300">
        <ele>2.0</ele>
        <time>2020-08-07T09:47:18Z</time>
      </trkpt>
      <trkpt lat="42.5666620" lon="-8.8923330">
        <ele>2.0</ele>
        <time>2020-08-07T09:47:19Z</time>
      </trkpt>
      <trkpt lat="42.5666620" lon="-8.8923330">
        <ele>1.8</ele>
        <time>2020-08-07T09:47:20Z</time>
      </trkpt>
      <trkpt lat="42.5666300" lon="-8.8923370">
        <ele>2.0</ele>
        <time>2020-08-07T09:47:21Z</time>
      </trkpt>
      <trkpt lat="42.5666300" lon="-8.8923370">
        <ele>1.8</ele>
        <time>2020-08-07T09:47:22Z</time>
      </trkpt>
      <trkpt lat="42.5666020" lon="-8.8923380">
        <ele>2.0</ele>
        <time>2020-08-07T09:47:23Z</time>
      </trkpt>
      <trkpt lat="42.5666020" lon="-8.8923380">
        <ele>1.8</ele>
        <time>2020-08-07T09:47:24Z</time>
      </trkpt>
      <trkpt lat="42.5665700" lon="-8.8923400">
        <ele>1.8</ele>
        <time>2020-08-07T09:47:25Z</time>
      </trkpt>
      <trkpt lat="42.5665700" lon="-8.8923400">
        <ele>2.0</ele>
        <time>2020-08-07T09:47:26Z</time>
      </trkpt>
      <trkpt lat="42.5665440" lon="-8.8923420">
        <ele>2.0</ele>
        <time>2020-08-07T09:47:27Z</time>
      </trkpt>
      <trkpt lat="42.5665440" lon="-8.8923420">
        <ele>2.2</ele>
        <time>2020-08-07T09:47:28Z</time>
      </trkpt>
      <trkpt lat="42.5665120" lon="-8.8923400">
        <ele>2.2</ele>
        <time>2020-08-07T09:47:29Z</time>
      </trkpt>
      <trkpt lat="42.5665120" lon="-8.8923400">
        <ele>2.2</ele>
        <time>2020-08-07T09:47:30Z</time>
      </trkpt>
      <trkpt lat="42.5664830" lon="-8.8923400">
        <ele>2.2</ele>
        <time>2020-08-07T09:47:31Z</time>
      </trkpt>
      <trkpt lat="42.5664830" lon="-8.8923400">
        <ele>2.0</ele>
        <time>2020-08-07T09:47:32Z</time>
      </trkpt>
      <trkpt lat="42.5664540" lon="-8.8923400">
        <ele>1.8</ele>
        <time>2020-08-07T09:47:33Z</time>
      </trkpt>
      <trkpt lat="42.5664540" lon="-8.8923400">
        <ele>1.4</ele>
        <time>2020-08-07T09:47:34Z</time>
      </trkpt>
      <trkpt lat="42.5664260" lon="-8.8923400">
        <ele>1.2</ele>
        <time>2020-08-07T09:47:35Z</time>
      </trkpt>
      <trkpt lat="42.5664260" lon="-8.8923400">
        <ele>1.4</ele>
        <time>2020-08-07T09:47:36Z</time>
      </trkpt>
      <trkpt lat="42.5664000" lon="-8.8923400">
        <ele>1.2</ele>
        <time>2020-08-07T09:47:37Z</time>
      </trkpt>
      <trkpt lat="42.5664000" lon="-8.8923400">
        <ele>1.4</ele>
        <time>2020-08-07T09:47:38Z</time>
      </trkpt>
      <trkpt lat="42.5663710" lon="-8.8923400">
        <ele>1.6</ele>
        <time>2020-08-07T09:47:39Z</time>
      </trkpt>
      <trkpt lat="42.5663710" lon="-8.8923400">
        <ele>1.6</ele>
        <time>2020-08-07T09:47:40Z</time>
      </trkpt>
      <trkpt lat="42.5663460" lon="-8.8923400">
        <ele>1.4</ele>
        <time>2020-08-07T09:47:41Z</time>
      </trkpt>
      <trkpt lat="42.5663460" lon="-8.8923400">
        <ele>1.2</ele>
        <time>2020-08-07T09:47:42Z</time>
      </trkpt>
      <trkpt lat="42.5663200" lon="-8.8923400">
        <ele>1.4</ele>
        <time>2020-08-07T09:47:43Z</time>
      </trkpt>
      <trkpt lat="42.5663200" lon="-8.8923400">
        <ele>1.6</ele>
        <time>2020-08-07T09:47:44Z</time>
      </trkpt>
      <trkpt lat="42.5662910" lon="-8.8923500">
        <ele>1.8</ele>
        <time>2020-08-07T09:47:45Z</time>
      </trkpt>
      <trkpt lat="42.5662910" lon="-8.8923500">
        <ele>2.2</ele>
        <time>2020-08-07T09:47:46Z</time>
      </trkpt>
      <trkpt lat="42.5662660" lon="-8.8923600">
        <ele>2.0</ele>
        <time>2020-08-07T09:47:47Z</time>
      </trkpt>
      <trkpt lat="42.5662660" lon="-8.8923600">
        <ele>2.2</ele>
        <time>2020-08-07T09:47:48Z</time>
      </trkpt>
      <trkpt lat="42.5662400" lon="-8.8923720">
        <ele>2.4</ele>
        <time>2020-08-07T09:47:49Z</time>
      </trkpt>
      <trkpt lat="42.5662400" lon="-8.8923720">
        <ele>2.4</ele>
        <time>2020-08-07T09:47:50Z</time>
      </trkpt>
      <trkpt lat="42.5662140" lon="-8.8923860">
        <ele>2.6</ele>
        <time>2020-08-07T09:47:51Z</time>
      </trkpt>
      <trkpt lat="42.5662140" lon="-8.8923860">
        <ele>2.6</ele>
        <time>2020-08-07T09:47:52Z</time>
      </trkpt>
      <trkpt lat="42.5661920" lon="-8.8924050">
        <ele>2.4</ele>
        <time>2020-08-07T09:47:53Z</time>
      </trkpt>
      <trkpt lat="42.5661920" lon="-8.8924050">
        <ele>2.2</ele>
        <time>2020-08-07T09:47:54Z</time>
      </trkpt>
      <trkpt lat="42.5661700" lon="-8.8924240">
        <ele>2.4</ele>
        <time>2020-08-07T09:47:55Z</time>
      </trkpt>
      <trkpt lat="42.5661700" lon="-8.8924240">
        <ele>2.6</ele>
        <time>2020-08-07T09:47:56Z</time>
      </trkpt>
      <trkpt lat="42.5661440" lon="-8.8924350">
        <ele>2.4</ele>
        <time>2020-08-07T09:47:57Z</time>
      </trkpt>
      <trkpt lat="42.5661440" lon="-8.8924350">
        <ele>2.2</ele>
        <time>2020-08-07T09:47:58Z</time>
      </trkpt>
      <trkpt lat="42.5661220" lon="-8.8924450">
        <ele>2.0</ele>
        <time>2020-08-07T09:47:59Z</time>
      </trkpt>
      <trkpt lat="42.5661220" lon="-8.8924450">
        <ele>2.0</ele>
        <time>2020-08-07T09:48:00Z</time>
      </trkpt>
      <trkpt lat="42.5660930" lon="-8.8924510">
        <ele>1.8</ele>
        <time>2020-08-07T09:48:01Z</time>
      </trkpt>
      <trkpt lat="42.5660930" lon="-8.8924510">
        <ele>1.8</ele>
        <time>2020-08-07T09:48:02Z</time>
      </trkpt>
      <trkpt lat="42.5660670" lon="-8.8924570">
        <ele>1.8</ele>
        <time>2020-08-07T09:48:03Z</time>
      </trkpt>
      <trkpt lat="42.5660670" lon="-8.8924570">
        <ele>1.8</ele>
        <time>2020-08-07T09:48:04Z</time>
      </trkpt>
      <trkpt lat="42.5660450" lon="-8.8924600">
        <ele>2.2</ele>
        <time>2020-08-07T09:48:05Z</time>
      </trkpt>
      <trkpt lat="42.5660450" lon="-8.8924600">
        <ele>2.0</ele>
        <time>2020-08-07T09:48:06Z</time>
      </trkpt>
      <trkpt lat="42.5660160" lon="-8.8924660">
        <ele>2.0</ele>
        <time>2020-08-07T09:48:07Z</time>
      </trkpt>
      <trkpt lat="42.5660160" lon="-8.8924660">
        <ele>2.0</ele>
        <time>2020-08-07T09:48:08Z</time>
      </trkpt>
      <trkpt lat="42.5659940" lon="-8.8924690">
        <ele>2.2</ele>
        <time>2020-08-07T09:48:09Z</time>
      </trkpt>
      <trkpt lat="42.5659940" lon="-8.8924690">
        <ele>2.4</ele>
        <time>2020-08-07T09:48:10Z</time>
      </trkpt>
      <trkpt lat="42.5659680" lon="-8.8924740">
        <ele>2.4</ele>
        <time>2020-08-07T09:48:11Z</time>
      </trkpt>
      <trkpt lat="42.5659680" lon="-8.8924740">
        <ele>2.4</ele>
        <time>2020-08-07T09:48:12Z</time>
      </trkpt>
      <trkpt lat="42.5659460" lon="-8.8924750">
        <ele>2.4</ele>
        <time>2020-08-07T09:48:13Z</time>
      </trkpt>
      <trkpt lat="42.5659460" lon="-8.8924750">
        <ele>2.2</ele>
        <time>2020-08-07T09:48:14Z</time>
      </trkpt>
      <trkpt lat="42.5659170" lon="-8.8924780">
        <ele>2.0</ele>
        <time>2020-08-07T09:48:15Z</time>
      </trkpt>
      <trkpt lat="42.5659170" lon="-8.8924780">
        <ele>1.8</ele>
        <time>2020-08-07T09:48:16Z</time>
      </trkpt>
      <trkpt lat="42.5658880" lon="-8.8924840">
        <ele>1.8</ele>
        <time>2020-08-07T09:48:17Z</time>
      </trkpt>
      <trkpt lat="42.5658880" lon="-8.8924840">
        <ele>1.6</ele>
        <time>2020-08-07T09:48:18Z</time>
      </trkpt>
      <trkpt lat="42.5658590" lon="-8.8924900">
        <ele>1.6</ele>
        <time>2020-08-07T09:48:19Z</time>
      </trkpt>
      <trkpt lat="42.5658590" lon="-8.8924900">
        <ele>1.6</ele>
        <time>2020-08-07T09:48:20Z</time>
      </trkpt>
      <trkpt lat="42.5658300" lon="-8.8924980">
        <ele>1.6</ele>
        <time>2020-08-07T09:48:21Z</time>
      </trkpt>
      <trkpt lat="42.5658300" lon="-8.8924980">
        <ele>1.8</ele>
        <time>2020-08-07T09:48:22Z</time>
      </trkpt>
      <trkpt lat="42.5658050" lon="-8.8925050">
        <ele>1.8</ele>
        <time>2020-08-07T09:48:23Z</time>
      </trkpt>
      <trkpt lat="42.5658050" lon="-8.8925050">
        <ele>1.8</ele>
        <time>2020-08-07T09:48:24Z</time>
      </trkpt>
      <trkpt lat="42.5657760" lon="-8.8925180">
        <ele>2.2</ele>
        <time>2020-08-07T09:48:25Z</time>
      </trkpt>
      <trkpt lat="42.5657760" lon="-8.8925180">
        <ele>2.2</ele>
        <time>2020-08-07T09:48:26Z</time>
      </trkpt>
      <trkpt lat="42.5657470" lon="-8.8925290">
        <ele>2.4</ele>
        <time>2020-08-07T09:48:27Z</time>
      </trkpt>
      <trkpt lat="42.5657470" lon="-8.8925290">
        <ele>2.2</ele>
        <time>2020-08-07T09:48:28Z</time>
      </trkpt>
      <trkpt lat="42.5657180" lon="-8.8925380">
        <ele>2.4</ele>
        <time>2020-08-07T09:48:29Z</time>
      </trkpt>
      <trkpt lat="42.5657180" lon="-8.8925380">
        <ele>2.6</ele>
        <time>2020-08-07T09:48:30Z</time>
      </trkpt>
      <trkpt lat="42.5656900" lon="-8.8925500">
        <ele>3.0</ele>
        <time>2020-08-07T09:48:31Z</time>
      </trkpt>
      <trkpt lat="42.5656900" lon="-8.8925500">
        <ele>3.2</ele>
        <time>2020-08-07T09:48:32Z</time>
      </trkpt>
      <trkpt lat="42.5656580" lon="-8.8925580">
        <ele>3.4</ele>
        <time>2020-08-07T09:48:33Z</time>
      </trkpt>
      <trkpt lat="42.5656580" lon="-8.8925580">
        <ele>3.4</ele>
        <time>2020-08-07T09:48:34Z</time>
      </trkpt>
      <trkpt lat="42.5656320" lon="-8.8925620">
        <ele>3.2</ele>
        <time>2020-08-07T09:48:35Z</time>
      </trkpt>
      <trkpt lat="42.5656320" lon="-8.8925620">
        <ele>3.0</ele>
        <time>2020-08-07T09:48:36Z</time>
      </trkpt>
      <trkpt lat="42.5656000" lon="-8.8925660">
        <ele>3.0</ele>
        <time>2020-08-07T09:48:37Z</time>
      </trkpt>
      <trkpt lat="42.5656000" lon="-8.8925660">
        <ele>3.0</ele>
        <time>2020-08-07T09:48:38Z</time>
      </trkpt>
      <trkpt lat="42.5655710" lon="-8.8925690">
        <ele>3.2</ele>
        <time>2020-08-07T09:48:39Z</time>
      </trkpt>
      <trkpt lat="42.5655710" lon="-8.8925690">
        <ele>3.4</ele>
        <time>2020-08-07T09:48:40Z</time>
      </trkpt>
      <trkpt lat="42.5655390" lon="-8.8925650">
        <ele>3.4</ele>
        <time>2020-08-07T09:48:41Z</time>
      </trkpt>
      <trkpt lat="42.5655390" lon="-8.8925650">
        <ele>2.8</ele>
        <time>2020-08-07T09:48:42Z</time>
      </trkpt>
      <trkpt lat="42.5655140" lon="-8.8925600">
        <ele>2.8</ele>
        <time>2020-08-07T09:48:43Z</time>
      </trkpt>
      <trkpt lat="42.5655140" lon="-8.8925600">
        <ele>2.6</ele>
        <time>2020-08-07T09:48:44Z</time>
      </trkpt>
      <trkpt lat="42.5654880" lon="-8.8925600">
        <ele>2.6</ele>
        <time>2020-08-07T09:48:45Z</time>
      </trkpt>
      <trkpt lat="42.5654880" lon="-8.8925600">
        <ele>2.6</ele>
        <time>2020-08-07T09:48:46Z</time>
      </trkpt>
      <trkpt lat="42.5654590" lon="-8.8925600">
        <ele>3.0</ele>
        <time>2020-08-07T09:48:47Z</time>
      </trkpt>
      <trkpt lat="42.5654590" lon="-8.8925600">
        <ele>3.2</ele>
        <time>2020-08-07T09:48:48Z</time>
      </trkpt>
      <trkpt lat="42.5654340" lon="-8.8925600">
        <ele>3.2</ele>
        <time>2020-08-07T09:48:49Z</time>
      </trkpt>
      <trkpt lat="42.5654340" lon="-8.8925600">
        <ele>3.2</ele>
        <time>2020-08-07T09:48:50Z</time>
      </trkpt>
      <trkpt lat="42.5654080" lon="-8.8925630">
        <ele>3.4</ele>
        <time>2020-08-07T09:48:51Z</time>
      </trkpt>
      <trkpt lat="42.5653890" lon="-8.8925650">
        <ele>3.4</ele>
        <time>2020-08-07T09:48:52Z</time>
      </trkpt>
      <trkpt lat="42.5653890" lon="-8.8925650">
        <ele>3.4</ele>
        <time>2020-08-07T09:48:53Z</time>
      </trkpt>
      <trkpt lat="42.5653570" lon="-8.8925620">
        <ele>3.2</ele>
        <time>2020-08-07T09:48:54Z</time>
      </trkpt>
      <trkpt lat="42.5653570" lon="-8.8925620">
        <ele>2.8</ele>
        <time>2020-08-07T09:48:55Z</time>
      </trkpt>
      <trkpt lat="42.5653310" lon="-8.8925550">
        <ele>2.8</ele>
        <time>2020-08-07T09:48:56Z</time>
      </trkpt>
      <trkpt lat="42.5653310" lon="-8.8925550">
        <ele>2.8</ele>
        <time>2020-08-07T09:48:57Z</time>
      </trkpt>
      <trkpt lat="42.5653020" lon="-8.8925500">
        <ele>2.6</ele>
        <time>2020-08-07T09:48:58Z</time>
      </trkpt>
      <trkpt lat="42.5653020" lon="-8.8925500">
        <ele>2.2</ele>
        <time>2020-08-07T09:48:59Z</time>
      </trkpt>
      <trkpt lat="42.5652740" lon="-8.8925380">
        <ele>2.2</ele>
        <time>2020-08-07T09:49:00Z</time>
      </trkpt>
      <trkpt lat="42.5652740" lon="-8.8925380">
        <ele>2.2</ele>
        <time>2020-08-07T09:49:01Z</time>
      </trkpt>
      <trkpt lat="42.5652480" lon="-8.8925300">
        <ele>1.8</ele>
        <time>2020-08-07T09:49:02Z</time>
      </trkpt>
      <trkpt lat="42.5652480" lon="-8.8925300">
        <ele>1.6</ele>
        <time>2020-08-07T09:49:03Z</time>
      </trkpt>
      <trkpt lat="42.5652190" lon="-8.8925300">
        <ele>1.8</ele>
        <time>2020-08-07T09:49:04Z</time>
      </trkpt>
      <trkpt lat="42.5652190" lon="-8.8925300">
        <ele>1.8</ele>
        <time>2020-08-07T09:49:05Z</time>
      </trkpt>
      <trkpt lat="42.5651940" lon="-8.8925300">
        <ele>1.6</ele>
        <time>2020-08-07T09:49:06Z</time>
      </trkpt>
      <trkpt lat="42.5651940" lon="-8.8925300">
        <ele>1.8</ele>
        <time>2020-08-07T09:49:07Z</time>
      </trkpt>
      <trkpt lat="42.5651680" lon="-8.8925340">
        <ele>2.0</ele>
        <time>2020-08-07T09:49:08Z</time>
      </trkpt>
      <trkpt lat="42.5651680" lon="-8.8925340">
        <ele>1.6</ele>
        <time>2020-08-07T09:49:09Z</time>
      </trkpt>
      <trkpt lat="42.5651390" lon="-8.8925360">
        <ele>1.4</ele>
        <time>2020-08-07T09:49:10Z</time>
      </trkpt>
      <trkpt lat="42.5651390" lon="-8.8925360">
        <ele>1.4</ele>
        <time>2020-08-07T09:49:11Z</time>
      </trkpt>
      <trkpt lat="42.5651140" lon="-8.8925380">
        <ele>1.6</ele>
        <time>2020-08-07T09:49:12Z</time>
      </trkpt>
      <trkpt lat="42.5651140" lon="-8.8925380">
        <ele>1.6</ele>
        <time>2020-08-07T09:49:13Z</time>
      </trkpt>
      <trkpt lat="42.5650910" lon="-8.8925400">
        <ele>1.6</ele>
        <time>2020-08-07T09:49:14Z</time>
      </trkpt>
      <trkpt lat="42.5650910" lon="-8.8925400">
        <ele>1.8</ele>
        <time>2020-08-07T09:49:15Z</time>
      </trkpt>
      <trkpt lat="42.5650590" lon="-8.8925360">
        <ele>1.6</ele>
        <time>2020-08-07T09:49:16Z</time>
      </trkpt>
      <trkpt lat="42.5650590" lon="-8.8925360">
        <ele>1.4</ele>
        <time>2020-08-07T09:49:17Z</time>
      </trkpt>
      <trkpt lat="42.5650300" lon="-8.8925350">
        <ele>1.2</ele>
        <time>2020-08-07T09:49:18Z</time>
      </trkpt>
      <trkpt lat="42.5650110" lon="-8.8925340">
        <ele>1.0</ele>
        <time>2020-08-07T09:49:19Z</time>
      </trkpt>
      <trkpt lat="42.5650110" lon="-8.8925340">
        <ele>1.0</ele>
        <time>2020-08-07T09:49:20Z</time>
      </trkpt>
      <trkpt lat="42.5649790" lon="-8.8925300">
        <ele>1.0</ele>
        <time>2020-08-07T09:49:21Z</time>
      </trkpt>
      <trkpt lat="42.5649790" lon="-8.8925300">
        <ele>0.6</ele>
        <time>2020-08-07T09:49:22Z</time>
      </trkpt>
      <trkpt lat="42.5649540" lon="-8.8925220">
        <ele>0.6</ele>
        <time>2020-08-07T09:49:23Z</time>
      </trkpt>
      <trkpt lat="42.5649540" lon="-8.8925220">
        <ele>0.6</ele>
        <time>2020-08-07T09:49:24Z</time>
      </trkpt>
      <trkpt lat="42.5649310" lon="-8.8925090">
        <ele>1.0</ele>
        <time>2020-08-07T09:49:25Z</time>
      </trkpt>
      <trkpt lat="42.5649310" lon="-8.8925090">
        <ele>1.4</ele>
        <time>2020-08-07T09:49:26Z</time>
      </trkpt>
      <trkpt lat="42.5649020" lon="-8.8924980">
        <ele>1.6</ele>
        <time>2020-08-07T09:49:27Z</time>
      </trkpt>
      <trkpt lat="42.5649020" lon="-8.8924980">
        <ele>1.8</ele>
        <time>2020-08-07T09:49:28Z</time>
      </trkpt>
      <trkpt lat="42.5648770" lon="-8.8924980">
        <ele>2.2</ele>
        <time>2020-08-07T09:49:29Z</time>
      </trkpt>
      <trkpt lat="42.5648770" lon="-8.8924980">
        <ele>2.6</ele>
        <time>2020-08-07T09:49:30Z</time>
      </trkpt>
      <trkpt lat="42.5648510" lon="-8.8924970">
        <ele>2.2</ele>
        <time>2020-08-07T09:49:31Z</time>
      </trkpt>
      <trkpt lat="42.5648510" lon="-8.8924970">
        <ele>2.2</ele>
        <time>2020-08-07T09:49:32Z</time>
      </trkpt>
      <trkpt lat="42.5648260" lon="-8.8924970">
        <ele>2.0</ele>
        <time>2020-08-07T09:49:33Z</time>
      </trkpt>
      <trkpt lat="42.5648260" lon="-8.8924970">
        <ele>2.2</ele>
        <time>2020-08-07T09:49:34Z</time>
      </trkpt>
      <trkpt lat="42.5648060" lon="-8.8924980">
        <ele>2.0</ele>
        <time>2020-08-07T09:49:35Z</time>
      </trkpt>
      <trkpt lat="42.5648060" lon="-8.8924980">
        <ele>2.0</ele>
        <time>2020-08-07T09:49:36Z</time>
      </trkpt>
      <trkpt lat="42.5647840" lon="-8.8924970">
        <ele>2.0</ele>
        <time>2020-08-07T09:49:37Z</time>
      </trkpt>
      <trkpt lat="42.5647840" lon="-8.8924970">
        <ele>1.6</ele>
        <time>2020-08-07T09:49:38Z</time>
      </trkpt>
      <trkpt lat="42.5647650" lon="-8.8924980">
        <ele>1.4</ele>
        <time>2020-08-07T09:49:39Z</time>
      </trkpt>
      <trkpt lat="42.5647650" lon="-8.8924980">
        <ele>1.6</ele>
        <time>2020-08-07T09:49:40Z</time>
      </trkpt>
      <trkpt lat="42.5647460" lon="-8.8924950">
        <ele>1.8</ele>
        <time>2020-08-07T09:49:41Z</time>
      </trkpt>
      <trkpt lat="42.5647460" lon="-8.8924950">
        <ele>2.0</ele>
        <time>2020-08-07T09:49:42Z</time>
      </trkpt>
      <trkpt lat="42.5647230" lon="-8.8924940">
        <ele>2.0</ele>
        <time>2020-08-07T09:49:43Z</time>
      </trkpt>
      <trkpt lat="42.5647230" lon="-8.8924940">
        <ele>1.8</ele>
        <time>2020-08-07T09:49:44Z</time>
      </trkpt>
      <trkpt lat="42.5647040" lon="-8.8924910">
        <ele>2.0</ele>
        <time>2020-08-07T09:49:45Z</time>
      </trkpt>
      <trkpt lat="42.5647040" lon="-8.8924910">
        <ele>2.0</ele>
        <time>2020-08-07T09:49:46Z</time>
      </trkpt>
      <trkpt lat="42.5646850" lon="-8.8924950">
        <ele>2.0</ele>
        <time>2020-08-07T09:49:47Z</time>
      </trkpt>
      <trkpt lat="42.5646850" lon="-8.8924950">
        <ele>2.2</ele>
        <time>2020-08-07T09:49:48Z</time>
      </trkpt>
      <trkpt lat="42.5646850" lon="-8.8924950">
        <ele>2.0</ele>
        <time>2020-08-07T09:49:49Z</time>
      </trkpt>
      <trkpt lat="42.5646660" lon="-8.8924980">
        <ele>1.8</ele>
        <time>2020-08-07T09:49:50Z</time>
      </trkpt>
      <trkpt lat="42.5646660" lon="-8.8924980">
        <ele>1.8</ele>
        <time>2020-08-07T09:49:51Z</time>
      </trkpt>
      <trkpt lat="42.5646460" lon="-8.8925040">
        <ele>1.8</ele>
        <time>2020-08-07T09:49:52Z</time>
      </trkpt>
      <trkpt lat="42.5646460" lon="-8.8925040">
        <ele>1.8</ele>
        <time>2020-08-07T09:49:53Z</time>
      </trkpt>
      <trkpt lat="42.5646270" lon="-8.8925060">
        <ele>1.6</ele>
        <time>2020-08-07T09:49:54Z</time>
      </trkpt>
      <trkpt lat="42.5646270" lon="-8.8925060">
        <ele>1.8</ele>
        <time>2020-08-07T09:49:55Z</time>
      </trkpt>
      <trkpt lat="42.5646270" lon="-8.8925060">
        <ele>1.8</ele>
        <time>2020-08-07T09:49:56Z</time>
      </trkpt>
      <trkpt lat="42.5645980" lon="-8.8925140">
        <ele>1.6</ele>
        <time>2020-08-07T09:49:57Z</time>
      </trkpt>
      <trkpt lat="42.5645980" lon="-8.8925140">
        <ele>1.6</ele>
        <time>2020-08-07T09:49:58Z</time>
      </trkpt>
      <trkpt lat="42.5645980" lon="-8.8925140">
        <ele>1.6</ele>
        <time>2020-08-07T09:49:59Z</time>
      </trkpt>
      <trkpt lat="42.5645760" lon="-8.8925090">
        <ele>1.8</ele>
        <time>2020-08-07T09:50:00Z</time>
      </trkpt>
      <trkpt lat="42.5645760" lon="-8.8925090">
        <ele>1.8</ele>
        <time>2020-08-07T09:50:01Z</time>
      </trkpt>
      <trkpt lat="42.5645540" lon="-8.8925020">
        <ele>1.6</ele>
        <time>2020-08-07T09:50:02Z</time>
      </trkpt>
      <trkpt lat="42.5645540" lon="-8.8925020">
        <ele>1.6</ele>
        <time>2020-08-07T09:50:03Z</time>
      </trkpt>
      <trkpt lat="42.5645280" lon="-8.8924940">
        <ele>1.8</ele>
        <time>2020-08-07T09:50:04Z</time>
      </trkpt>
      <trkpt lat="42.5645280" lon="-8.8924940">
        <ele>1.8</ele>
        <time>2020-08-07T09:50:05Z</time>
      </trkpt>
      <trkpt lat="42.5645060" lon="-8.8924800">
        <ele>1.8</ele>
        <time>2020-08-07T09:50:06Z</time>
      </trkpt>
      <trkpt lat="42.5645060" lon="-8.8924800">
        <ele>1.6</ele>
        <time>2020-08-07T09:50:07Z</time>
      </trkpt>
      <trkpt lat="42.5644860" lon="-8.8924640">
        <ele>1.8</ele>
        <time>2020-08-07T09:50:08Z</time>
      </trkpt>
      <trkpt lat="42.5644860" lon="-8.8924640">
        <ele>1.6</ele>
        <time>2020-08-07T09:50:09Z</time>
      </trkpt>
      <trkpt lat="42.5644670" lon="-8.8924440">
        <ele>1.4</ele>
        <time>2020-08-07T09:50:10Z</time>
      </trkpt>
      <trkpt lat="42.5644670" lon="-8.8924440">
        <ele>1.4</ele>
        <time>2020-08-07T09:50:11Z</time>
      </trkpt>
      <trkpt lat="42.5644450" lon="-8.8924220">
        <ele>1.4</ele>
        <time>2020-08-07T09:50:12Z</time>
      </trkpt>
      <trkpt lat="42.5644450" lon="-8.8924220">
        <ele>1.6</ele>
        <time>2020-08-07T09:50:13Z</time>
      </trkpt>
      <trkpt lat="42.5644220" lon="-8.8924000">
        <ele>1.8</ele>
        <time>2020-08-07T09:50:14Z</time>
      </trkpt>
      <trkpt lat="42.5644220" lon="-8.8924000">
        <ele>1.8</ele>
        <time>2020-08-07T09:50:15Z</time>
      </trkpt>
      <trkpt lat="42.5644000" lon="-8.8923770">
        <ele>2.0</ele>
        <time>2020-08-07T09:50:16Z</time>
      </trkpt>
      <trkpt lat="42.5643810" lon="-8.8923680">
        <ele>2.2</ele>
        <time>2020-08-07T09:50:17Z</time>
      </trkpt>
      <trkpt lat="42.5643810" lon="-8.8923680">
        <ele>2.2</ele>
        <time>2020-08-07T09:50:18Z</time>
      </trkpt>
      <trkpt lat="42.5643550" lon="-8.8923520">
        <ele>2.2</ele>
        <time>2020-08-07T09:50:19Z</time>
      </trkpt>
      <trkpt lat="42.5643550" lon="-8.8923520">
        <ele>2.6</ele>
        <time>2020-08-07T09:50:20Z</time>
      </trkpt>
      <trkpt lat="42.5643260" lon="-8.8923430">
        <ele>2.4</ele>
        <time>2020-08-07T09:50:21Z</time>
      </trkpt>
      <trkpt lat="42.5643260" lon="-8.8923430">
        <ele>2.2</ele>
        <time>2020-08-07T09:50:22Z</time>
      </trkpt>
      <trkpt lat="42.5643040" lon="-8.8923460">
        <ele>2.4</ele>
        <time>2020-08-07T09:50:23Z</time>
      </trkpt>
      <trkpt lat="42.5643040" lon="-8.8923460">
        <ele>2.2</ele>
        <time>2020-08-07T09:50:24Z</time>
      </trkpt>
      <trkpt lat="42.5642780" lon="-8.8923460">
        <ele>2.0</ele>
        <time>2020-08-07T09:50:25Z</time>
      </trkpt>
      <trkpt lat="42.5642780" lon="-8.8923460">
        <ele>2.0</ele>
        <time>2020-08-07T09:50:26Z</time>
      </trkpt>
      <trkpt lat="42.5642500" lon="-8.8923460">
        <ele>2.2</ele>
        <time>2020-08-07T09:50:27Z</time>
      </trkpt>
      <trkpt lat="42.5642300" lon="-8.8923460">
        <ele>2.0</ele>
        <time>2020-08-07T09:50:28Z</time>
      </trkpt>
      <trkpt lat="42.5642300" lon="-8.8923460">
        <ele>2.0</ele>
        <time>2020-08-07T09:50:29Z</time>
      </trkpt>
      <trkpt lat="42.5642050" lon="-8.8923430">
        <ele>1.8</ele>
        <time>2020-08-07T09:50:30Z</time>
      </trkpt>
      <trkpt lat="42.5642050" lon="-8.8923430">
        <ele>1.4</ele>
        <time>2020-08-07T09:50:31Z</time>
      </trkpt>
      <trkpt lat="42.5641790" lon="-8.8923380">
        <ele>1.6</ele>
        <time>2020-08-07T09:50:32Z</time>
      </trkpt>
      <trkpt lat="42.5641790" lon="-8.8923380">
        <ele>1.4</ele>
        <time>2020-08-07T09:50:33Z</time>
      </trkpt>
      <trkpt lat="42.5641500" lon="-8.8923300">
        <ele>1.6</ele>
        <time>2020-08-07T09:50:34Z</time>
      </trkpt>
      <trkpt lat="42.5641500" lon="-8.8923300">
        <ele>1.6</ele>
        <time>2020-08-07T09:50:35Z</time>
      </trkpt>
      <trkpt lat="42.5641280" lon="-8.8923180">
        <ele>1.8</ele>
        <time>2020-08-07T09:50:36Z</time>
      </trkpt>
      <trkpt lat="42.5641280" lon="-8.8923180">
        <ele>2.0</ele>
        <time>2020-08-07T09:50:37Z</time>
      </trkpt>
      <trkpt lat="42.5641020" lon="-8.8923060">
        <ele>1.8</ele>
        <time>2020-08-07T09:50:38Z</time>
      </trkpt>
      <trkpt lat="42.5641020" lon="-8.8923060">
        <ele>1.8</ele>
        <time>2020-08-07T09:50:39Z</time>
      </trkpt>
      <trkpt lat="42.5640700" lon="-8.8922930">
        <ele>1.8</ele>
        <time>2020-08-07T09:50:40Z</time>
      </trkpt>
      <trkpt lat="42.5640700" lon="-8.8922930">
        <ele>1.8</ele>
        <time>2020-08-07T09:50:41Z</time>
      </trkpt>
      <trkpt lat="42.5640480" lon="-8.8922820">
        <ele>1.4</ele>
        <time>2020-08-07T09:50:42Z</time>
      </trkpt>
      <trkpt lat="42.5640480" lon="-8.8922820">
        <ele>1.0</ele>
        <time>2020-08-07T09:50:43Z</time>
      </trkpt>
      <trkpt lat="42.5640220" lon="-8.8922680">
        <ele>0.8</ele>
        <time>2020-08-07T09:50:44Z</time>
      </trkpt>
      <trkpt lat="42.5640220" lon="-8.8922680">
        <ele>0.8</ele>
        <time>2020-08-07T09:50:45Z</time>
      </trkpt>
      <trkpt lat="42.5639970" lon="-8.8922530">
        <ele>1.0</ele>
        <time>2020-08-07T09:50:46Z</time>
      </trkpt>
      <trkpt lat="42.5639970" lon="-8.8922530">
        <ele>1.0</ele>
        <time>2020-08-07T09:50:47Z</time>
      </trkpt>
      <trkpt lat="42.5639710" lon="-8.8922380">
        <ele>1.2</ele>
        <time>2020-08-07T09:50:48Z</time>
      </trkpt>
      <trkpt lat="42.5639710" lon="-8.8922380">
        <ele>1.2</ele>
        <time>2020-08-07T09:50:49Z</time>
      </trkpt>
      <trkpt lat="42.5639490" lon="-8.8922190">
        <ele>1.0</ele>
        <time>2020-08-07T09:50:50Z</time>
      </trkpt>
      <trkpt lat="42.5639490" lon="-8.8922190">
        <ele>1.2</ele>
        <time>2020-08-07T09:50:51Z</time>
      </trkpt>
      <trkpt lat="42.5639300" lon="-8.8922030">
        <ele>1.4</ele>
        <time>2020-08-07T09:50:52Z</time>
      </trkpt>
      <trkpt lat="42.5639300" lon="-8.8922030">
        <ele>1.6</ele>
        <time>2020-08-07T09:50:53Z</time>
      </trkpt>
      <trkpt lat="42.5639070" lon="-8.8921830">
        <ele>1.6</ele>
        <time>2020-08-07T09:50:54Z</time>
      </trkpt>
      <trkpt lat="42.5639070" lon="-8.8921830">
        <ele>1.4</ele>
        <time>2020-08-07T09:50:55Z</time>
      </trkpt>
      <trkpt lat="42.5638820" lon="-8.8921680">
        <ele>1.4</ele>
        <time>2020-08-07T09:50:56Z</time>
      </trkpt>
      <trkpt lat="42.5638820" lon="-8.8921680">
        <ele>1.6</ele>
        <time>2020-08-07T09:50:57Z</time>
      </trkpt>
      <trkpt lat="42.5638500" lon="-8.8921570">
        <ele>1.4</ele>
        <time>2020-08-07T09:50:58Z</time>
      </trkpt>
      <trkpt lat="42.5638500" lon="-8.8921570">
        <ele>1.6</ele>
        <time>2020-08-07T09:50:59Z</time>
      </trkpt>
      <trkpt lat="42.5638210" lon="-8.8921520">
        <ele>1.6</ele>
        <time>2020-08-07T09:51:00Z</time>
      </trkpt>
      <trkpt lat="42.5638210" lon="-8.8921520">
        <ele>1.4</ele>
        <time>2020-08-07T09:51:01Z</time>
      </trkpt>
      <trkpt lat="42.5637920" lon="-8.8921540">
        <ele>1.6</ele>
        <time>2020-08-07T09:51:02Z</time>
      </trkpt>
      <trkpt lat="42.5637920" lon="-8.8921540">
        <ele>1.8</ele>
        <time>2020-08-07T09:51:03Z</time>
      </trkpt>
      <trkpt lat="42.5637660" lon="-8.8921570">
        <ele>1.6</ele>
        <time>2020-08-07T09:51:04Z</time>
      </trkpt>
      <trkpt lat="42.5637660" lon="-8.8921570">
        <ele>1.2</ele>
        <time>2020-08-07T09:51:05Z</time>
      </trkpt>
      <trkpt lat="42.5637410" lon="-8.8921630">
        <ele>1.0</ele>
        <time>2020-08-07T09:51:06Z</time>
      </trkpt>
      <trkpt lat="42.5637410" lon="-8.8921630">
        <ele>1.2</ele>
        <time>2020-08-07T09:51:07Z</time>
      </trkpt>
      <trkpt lat="42.5637180" lon="-8.8921740">
        <ele>1.4</ele>
        <time>2020-08-07T09:51:08Z</time>
      </trkpt>
      <trkpt lat="42.5637180" lon="-8.8921740">
        <ele>1.6</ele>
        <time>2020-08-07T09:51:09Z</time>
      </trkpt>
      <trkpt lat="42.5636900" lon="-8.8921870">
        <ele>1.6</ele>
        <time>2020-08-07T09:51:10Z</time>
      </trkpt>
      <trkpt lat="42.5636900" lon="-8.8921870">
        <ele>1.8</ele>
        <time>2020-08-07T09:51:11Z</time>
      </trkpt>
      <trkpt lat="42.5636640" lon="-8.8922020">
        <ele>1.6</ele>
        <time>2020-08-07T09:51:12Z</time>
      </trkpt>
      <trkpt lat="42.5636640" lon="-8.8922020">
        <ele>1.6</ele>
        <time>2020-08-07T09:51:13Z</time>
      </trkpt>
      <trkpt lat="42.5636350" lon="-8.8922220">
        <ele>1.8</ele>
        <time>2020-08-07T09:51:14Z</time>
      </trkpt>
      <trkpt lat="42.5636350" lon="-8.8922220">
        <ele>2.2</ele>
        <time>2020-08-07T09:51:15Z</time>
      </trkpt>
      <trkpt lat="42.5636130" lon="-8.8922390">
        <ele>2.4</ele>
        <time>2020-08-07T09:51:16Z</time>
      </trkpt>
      <trkpt lat="42.5636130" lon="-8.8922390">
        <ele>2.6</ele>
        <time>2020-08-07T09:51:17Z</time>
      </trkpt>
      <trkpt lat="42.5635870" lon="-8.8922590">
        <ele>2.6</ele>
        <time>2020-08-07T09:51:18Z</time>
      </trkpt>
      <trkpt lat="42.5635870" lon="-8.8922590">
        <ele>2.4</ele>
        <time>2020-08-07T09:51:19Z</time>
      </trkpt>
      <trkpt lat="42.5635620" lon="-8.8922780">
        <ele>2.6</ele>
        <time>2020-08-07T09:51:20Z</time>
      </trkpt>
      <trkpt lat="42.5635620" lon="-8.8922780">
        <ele>2.8</ele>
        <time>2020-08-07T09:51:21Z</time>
      </trkpt>
      <trkpt lat="42.5635300" lon="-8.8922930">
        <ele>2.6</ele>
        <time>2020-08-07T09:51:22Z</time>
      </trkpt>
      <trkpt lat="42.5635300" lon="-8.8922930">
        <ele>2.6</ele>
        <time>2020-08-07T09:51:23Z</time>
      </trkpt>
      <trkpt lat="42.5635040" lon="-8.8923080">
        <ele>3.2</ele>
        <time>2020-08-07T09:51:24Z</time>
      </trkpt>
      <trkpt lat="42.5635040" lon="-8.8923080">
        <ele>3.4</ele>
        <time>2020-08-07T09:51:25Z</time>
      </trkpt>
      <trkpt lat="42.5634720" lon="-8.8923150">
        <ele>3.6</ele>
        <time>2020-08-07T09:51:26Z</time>
      </trkpt>
      <trkpt lat="42.5634720" lon="-8.8923150">
        <ele>3.6</ele>
        <time>2020-08-07T09:51:27Z</time>
      </trkpt>
      <trkpt lat="42.5634430" lon="-8.8923260">
        <ele>3.8</ele>
        <time>2020-08-07T09:51:28Z</time>
      </trkpt>
      <trkpt lat="42.5634430" lon="-8.8923260">
        <ele>3.8</ele>
        <time>2020-08-07T09:51:29Z</time>
      </trkpt>
      <trkpt lat="42.5634140" lon="-8.8923320">
        <ele>3.6</ele>
        <time>2020-08-07T09:51:30Z</time>
      </trkpt>
      <trkpt lat="42.5634140" lon="-8.8923320">
        <ele>3.8</ele>
        <time>2020-08-07T09:51:31Z</time>
      </trkpt>
      <trkpt lat="42.5633860" lon="-8.8923370">
        <ele>3.6</ele>
        <time>2020-08-07T09:51:32Z</time>
      </trkpt>
      <trkpt lat="42.5633860" lon="-8.8923370">
        <ele>3.4</ele>
        <time>2020-08-07T09:51:33Z</time>
      </trkpt>
      <trkpt lat="42.5633570" lon="-8.8923420">
        <ele>3.4</ele>
        <time>2020-08-07T09:51:34Z</time>
      </trkpt>
      <trkpt lat="42.5633570" lon="-8.8923420">
        <ele>3.6</ele>
        <time>2020-08-07T09:51:35Z</time>
      </trkpt>
      <trkpt lat="42.5633310" lon="-8.8923500">
        <ele>3.6</ele>
        <time>2020-08-07T09:51:36Z</time>
      </trkpt>
      <trkpt lat="42.5633310" lon="-8.8923500">
        <ele>3.4</ele>
        <time>2020-08-07T09:51:37Z</time>
      </trkpt>
      <trkpt lat="42.5633060" lon="-8.8923600">
        <ele>3.6</ele>
        <time>2020-08-07T09:51:38Z</time>
      </trkpt>
      <trkpt lat="42.5633060" lon="-8.8923600">
        <ele>3.8</ele>
        <time>2020-08-07T09:51:39Z</time>
      </trkpt>
      <trkpt lat="42.5632770" lon="-8.8923720">
        <ele>3.8</ele>
        <time>2020-08-07T09:51:40Z</time>
      </trkpt>
      <trkpt lat="42.5632770" lon="-8.8923720">
        <ele>4.2</ele>
        <time>2020-08-07T09:51:41Z</time>
      </trkpt>
      <trkpt lat="42.5632510" lon="-8.8923830">
        <ele>4.0</ele>
        <time>2020-08-07T09:51:42Z</time>
      </trkpt>
      <trkpt lat="42.5632510" lon="-8.8923830">
        <ele>4.0</ele>
        <time>2020-08-07T09:51:43Z</time>
      </trkpt>
      <trkpt lat="42.5632260" lon="-8.8923950">
        <ele>4.0</ele>
        <time>2020-08-07T09:51:44Z</time>
      </trkpt>
      <trkpt lat="42.5632260" lon="-8.8923950">
        <ele>4.0</ele>
        <time>2020-08-07T09:51:45Z</time>
      </trkpt>
      <trkpt lat="42.5631970" lon="-8.8924110">
        <ele>3.8</ele>
        <time>2020-08-07T09:51:46Z</time>
      </trkpt>
      <trkpt lat="42.5631970" lon="-8.8924110">
        <ele>3.6</ele>
        <time>2020-08-07T09:51:47Z</time>
      </trkpt>
      <trkpt lat="42.5631740" lon="-8.8924280">
        <ele>3.6</ele>
        <time>2020-08-07T09:51:48Z</time>
      </trkpt>
      <trkpt lat="42.5631740" lon="-8.8924280">
        <ele>3.8</ele>
        <time>2020-08-07T09:51:49Z</time>
      </trkpt>
      <trkpt lat="42.5631490" lon="-8.8924440">
        <ele>3.8</ele>
        <time>2020-08-07T09:51:50Z</time>
      </trkpt>
      <trkpt lat="42.5631490" lon="-8.8924440">
        <ele>4.0</ele>
        <time>2020-08-07T09:51:51Z</time>
      </trkpt>
      <trkpt lat="42.5631230" lon="-8.8924600">
        <ele>4.0</ele>
        <time>2020-08-07T09:51:52Z</time>
      </trkpt>
      <trkpt lat="42.5631040" lon="-8.8924690">
        <ele>3.8</ele>
        <time>2020-08-07T09:51:53Z</time>
      </trkpt>
      <trkpt lat="42.5631040" lon="-8.8924690">
        <ele>3.6</ele>
        <time>2020-08-07T09:51:54Z</time>
      </trkpt>
      <trkpt lat="42.5630750" lon="-8.8924780">
        <ele>3.8</ele>
        <time>2020-08-07T09:51:55Z</time>
      </trkpt>
      <trkpt lat="42.5630750" lon="-8.8924780">
        <ele>3.6</ele>
        <time>2020-08-07T09:51:56Z</time>
      </trkpt>
      <trkpt lat="42.5630530" lon="-8.8924840">
        <ele>3.4</ele>
        <time>2020-08-07T09:51:57Z</time>
      </trkpt>
      <trkpt lat="42.5630530" lon="-8.8924840">
        <ele>3.4</ele>
        <time>2020-08-07T09:51:58Z</time>
      </trkpt>
      <trkpt lat="42.5630270" lon="-8.8924850">
        <ele>3.8</ele>
        <time>2020-08-07T09:51:59Z</time>
      </trkpt>
      <trkpt lat="42.5630270" lon="-8.8924850">
        <ele>4.0</ele>
        <time>2020-08-07T09:52:00Z</time>
      </trkpt>
      <trkpt lat="42.5630050" lon="-8.8924860">
        <ele>3.8</ele>
        <time>2020-08-07T09:52:01Z</time>
      </trkpt>
      <trkpt lat="42.5629790" lon="-8.8924860">
        <ele>3.8</ele>
        <time>2020-08-07T09:52:02Z</time>
      </trkpt>
      <trkpt lat="42.5629790" lon="-8.8924860">
        <ele>3.6</ele>
        <time>2020-08-07T09:52:03Z</time>
      </trkpt>
      <trkpt lat="42.5629500" lon="-8.8924860">
        <ele>3.6</ele>
        <time>2020-08-07T09:52:04Z</time>
      </trkpt>
      <trkpt lat="42.5629500" lon="-8.8924860">
        <ele>3.2</ele>
        <time>2020-08-07T09:52:05Z</time>
      </trkpt>
      <trkpt lat="42.5629280" lon="-8.8924940">
        <ele>3.0</ele>
        <time>2020-08-07T09:52:06Z</time>
      </trkpt>
      <trkpt lat="42.5629090" lon="-8.8924980">
        <ele>3.0</ele>
        <time>2020-08-07T09:52:07Z</time>
      </trkpt>
      <trkpt lat="42.5629090" lon="-8.8924980">
        <ele>3.2</ele>
        <time>2020-08-07T09:52:08Z</time>
      </trkpt>
      <trkpt lat="42.5628800" lon="-8.8925060">
        <ele>3.2</ele>
        <time>2020-08-07T09:52:09Z</time>
      </trkpt>
      <trkpt lat="42.5628800" lon="-8.8925060">
        <ele>3.4</ele>
        <time>2020-08-07T09:52:10Z</time>
      </trkpt>
      <trkpt lat="42.5628480" lon="-8.8925140">
        <ele>3.6</ele>
        <time>2020-08-07T09:52:11Z</time>
      </trkpt>
      <trkpt lat="42.5628480" lon="-8.8925140">
        <ele>3.8</ele>
        <time>2020-08-07T09:52:12Z</time>
      </trkpt>
      <trkpt lat="42.5628190" lon="-8.8925240">
        <ele>3.8</ele>
        <time>2020-08-07T09:52:13Z</time>
      </trkpt>
      <trkpt lat="42.5628190" lon="-8.8925240">
        <ele>4.0</ele>
        <time>2020-08-07T09:52:14Z</time>
      </trkpt>
      <trkpt lat="42.5627900" lon="-8.8925290">
        <ele>3.8</ele>
        <time>2020-08-07T09:52:15Z</time>
      </trkpt>
      <trkpt lat="42.5627900" lon="-8.8925290">
        <ele>3.4</ele>
        <time>2020-08-07T09:52:16Z</time>
      </trkpt>
      <trkpt lat="42.5627710" lon="-8.8925340">
        <ele>3.6</ele>
        <time>2020-08-07T09:52:17Z</time>
      </trkpt>
      <trkpt lat="42.5627710" lon="-8.8925340">
        <ele>3.6</ele>
        <time>2020-08-07T09:52:18Z</time>
      </trkpt>
      <trkpt lat="42.5627390" lon="-8.8925360">
        <ele>3.2</ele>
        <time>2020-08-07T09:52:19Z</time>
      </trkpt>
      <trkpt lat="42.5627390" lon="-8.8925360">
        <ele>3.4</ele>
        <time>2020-08-07T09:52:20Z</time>
      </trkpt>
      <trkpt lat="42.5627100" lon="-8.8925350">
        <ele>3.2</ele>
        <time>2020-08-07T09:52:21Z</time>
      </trkpt>
      <trkpt lat="42.5627100" lon="-8.8925350">
        <ele>3.0</ele>
        <time>2020-08-07T09:52:22Z</time>
      </trkpt>
      <trkpt lat="42.5626820" lon="-8.8925360">
        <ele>3.0</ele>
        <time>2020-08-07T09:52:23Z</time>
      </trkpt>
      <trkpt lat="42.5626820" lon="-8.8925360">
        <ele>3.0</ele>
        <time>2020-08-07T09:52:24Z</time>
      </trkpt>
      <trkpt lat="42.5626500" lon="-8.8925450">
        <ele>2.6</ele>
        <time>2020-08-07T09:52:25Z</time>
      </trkpt>
      <trkpt lat="42.5626500" lon="-8.8925450">
        <ele>2.6</ele>
        <time>2020-08-07T09:52:26Z</time>
      </trkpt>
      <trkpt lat="42.5626180" lon="-8.8925510">
        <ele>2.4</ele>
        <time>2020-08-07T09:52:27Z</time>
      </trkpt>
      <trkpt lat="42.5626180" lon="-8.8925510">
        <ele>2.4</ele>
        <time>2020-08-07T09:52:28Z</time>
      </trkpt>
      <trkpt lat="42.5625920" lon="-8.8925620">
        <ele>2.4</ele>
        <time>2020-08-07T09:52:29Z</time>
      </trkpt>
      <trkpt lat="42.5625920" lon="-8.8925620">
        <ele>2.2</ele>
        <time>2020-08-07T09:52:30Z</time>
      </trkpt>
      <trkpt lat="42.5625600" lon="-8.8925710">
        <ele>2.2</ele>
        <time>2020-08-07T09:52:31Z</time>
      </trkpt>
      <trkpt lat="42.5625600" lon="-8.8925710">
        <ele>2.4</ele>
        <time>2020-08-07T09:52:32Z</time>
      </trkpt>
      <trkpt lat="42.5625340" lon="-8.8925860">
        <ele>2.6</ele>
        <time>2020-08-07T09:52:33Z</time>
      </trkpt>
      <trkpt lat="42.5625180" lon="-8.8925990">
        <ele>2.6</ele>
        <time>2020-08-07T09:52:34Z</time>
      </trkpt>
      <trkpt lat="42.5625020" lon="-8.8926110">
        <ele>2.6</ele>
        <time>2020-08-07T09:52:35Z</time>
      </trkpt>
      <trkpt lat="42.5625020" lon="-8.8926110">
        <ele>2.8</ele>
        <time>2020-08-07T09:52:36Z</time>
      </trkpt>
      <trkpt lat="42.5624770" lon="-8.8926310">
        <ele>2.6</ele>
        <time>2020-08-07T09:52:37Z</time>
      </trkpt>
      <trkpt lat="42.5624770" lon="-8.8926310">
        <ele>2.4</ele>
        <time>2020-08-07T09:52:38Z</time>
      </trkpt>
      <trkpt lat="42.5624540" lon="-8.8926560">
        <ele>2.6</ele>
        <time>2020-08-07T09:52:39Z</time>
      </trkpt>
      <trkpt lat="42.5624540" lon="-8.8926560">
        <ele>2.2</ele>
        <time>2020-08-07T09:52:40Z</time>
      </trkpt>
      <trkpt lat="42.5624350" lon="-8.8926800">
        <ele>2.0</ele>
        <time>2020-08-07T09:52:41Z</time>
      </trkpt>
      <trkpt lat="42.5624190" lon="-8.8926940">
        <ele>2.0</ele>
        <time>2020-08-07T09:52:42Z</time>
      </trkpt>
      <trkpt lat="42.5624190" lon="-8.8926940">
        <ele>1.6</ele>
        <time>2020-08-07T09:52:43Z</time>
      </trkpt>
      <trkpt lat="42.5623970" lon="-8.8927200">
        <ele>2.0</ele>
        <time>2020-08-07T09:52:44Z</time>
      </trkpt>
      <trkpt lat="42.5623970" lon="-8.8927200">
        <ele>2.2</ele>
        <time>2020-08-07T09:52:45Z</time>
      </trkpt>
      <trkpt lat="42.5623740" lon="-8.8927430">
        <ele>2.2</ele>
        <time>2020-08-07T09:52:46Z</time>
      </trkpt>
      <trkpt lat="42.5623740" lon="-8.8927430">
        <ele>2.0</ele>
        <time>2020-08-07T09:52:47Z</time>
      </trkpt>
      <trkpt lat="42.5623550" lon="-8.8927700">
        <ele>2.2</ele>
        <time>2020-08-07T09:52:48Z</time>
      </trkpt>
      <trkpt lat="42.5623390" lon="-8.8927870">
        <ele>2.0</ele>
        <time>2020-08-07T09:52:49Z</time>
      </trkpt>
      <trkpt lat="42.5623390" lon="-8.8927870">
        <ele>2.2</ele>
        <time>2020-08-07T09:52:50Z</time>
      </trkpt>
      <trkpt lat="42.5623170" lon="-8.8928200">
        <ele>2.2</ele>
        <time>2020-08-07T09:52:51Z</time>
      </trkpt>
      <trkpt lat="42.5623170" lon="-8.8928200">
        <ele>1.8</ele>
        <time>2020-08-07T09:52:52Z</time>
      </trkpt>
      <trkpt lat="42.5622940" lon="-8.8928500">
        <ele>2.0</ele>
        <time>2020-08-07T09:52:53Z</time>
      </trkpt>
      <trkpt lat="42.5622820" lon="-8.8928670">
        <ele>2.0</ele>
        <time>2020-08-07T09:52:54Z</time>
      </trkpt>
      <trkpt lat="42.5622820" lon="-8.8928670">
        <ele>2.2</ele>
        <time>2020-08-07T09:52:55Z</time>
      </trkpt>
      <trkpt lat="42.5622590" lon="-8.8928940">
        <ele>2.4</ele>
        <time>2020-08-07T09:52:56Z</time>
      </trkpt>
      <trkpt lat="42.5622430" lon="-8.8929060">
        <ele>3.0</ele>
        <time>2020-08-07T09:52:57Z</time>
      </trkpt>
      <trkpt lat="42.5622430" lon="-8.8929060">
        <ele>3.2</ele>
        <time>2020-08-07T09:52:58Z</time>
      </trkpt>
      <trkpt lat="42.5622180" lon="-8.8929270">
        <ele>3.6</ele>
        <time>2020-08-07T09:52:59Z</time>
      </trkpt>
      <trkpt lat="42.5622180" lon="-8.8929270">
        <ele>3.6</ele>
        <time>2020-08-07T09:53:00Z</time>
      </trkpt>
      <trkpt lat="42.5621920" lon="-8.8929420">
        <ele>3.8</ele>
        <time>2020-08-07T09:53:01Z</time>
      </trkpt>
      <trkpt lat="42.5621920" lon="-8.8929420">
        <ele>3.8</ele>
        <time>2020-08-07T09:53:02Z</time>
      </trkpt>
      <trkpt lat="42.5621600" lon="-8.8929500">
        <ele>3.8</ele>
        <time>2020-08-07T09:53:03Z</time>
      </trkpt>
      <trkpt lat="42.5621410" lon="-8.8929550">
        <ele>3.6</ele>
        <time>2020-08-07T09:53:04Z</time>
      </trkpt>
      <trkpt lat="42.5621410" lon="-8.8929550">
        <ele>3.8</ele>
        <time>2020-08-07T09:53:05Z</time>
      </trkpt>
      <trkpt lat="42.5621120" lon="-8.8929660">
        <ele>4.0</ele>
        <time>2020-08-07T09:53:06Z</time>
      </trkpt>
      <trkpt lat="42.5621120" lon="-8.8929660">
        <ele>4.2</ele>
        <time>2020-08-07T09:53:07Z</time>
      </trkpt>
      <trkpt lat="42.5620800" lon="-8.8929770">
        <ele>4.0</ele>
        <time>2020-08-07T09:53:08Z</time>
      </trkpt>
      <trkpt lat="42.5620800" lon="-8.8929770">
        <ele>4.6</ele>
        <time>2020-08-07T09:53:09Z</time>
      </trkpt>
      <trkpt lat="42.5620510" lon="-8.8929820">
        <ele>4.4</ele>
        <time>2020-08-07T09:53:10Z</time>
      </trkpt>
      <trkpt lat="42.5620510" lon="-8.8929820">
        <ele>4.6</ele>
        <time>2020-08-07T09:53:11Z</time>
      </trkpt>
      <trkpt lat="42.5620190" lon="-8.8929900">
        <ele>4.4</ele>
        <time>2020-08-07T09:53:12Z</time>
      </trkpt>
      <trkpt lat="42.5620190" lon="-8.8929900">
        <ele>3.8</ele>
        <time>2020-08-07T09:53:13Z</time>
      </trkpt>
      <trkpt lat="42.5619900" lon="-8.8930030">
        <ele>4.0</ele>
        <time>2020-08-07T09:53:14Z</time>
      </trkpt>
      <trkpt lat="42.5619900" lon="-8.8930030">
        <ele>4.2</ele>
        <time>2020-08-07T09:53:15Z</time>
      </trkpt>
      <trkpt lat="42.5619620" lon="-8.8930180">
        <ele>4.2</ele>
        <time>2020-08-07T09:53:16Z</time>
      </trkpt>
      <trkpt lat="42.5619620" lon="-8.8930180">
        <ele>4.2</ele>
        <time>2020-08-07T09:53:17Z</time>
      </trkpt>
      <trkpt lat="42.5619360" lon="-8.8930330">
        <ele>3.8</ele>
        <time>2020-08-07T09:53:18Z</time>
      </trkpt>
      <trkpt lat="42.5619360" lon="-8.8930330">
        <ele>4.0</ele>
        <time>2020-08-07T09:53:19Z</time>
      </trkpt>
      <trkpt lat="42.5619070" lon="-8.8930520">
        <ele>3.8</ele>
        <time>2020-08-07T09:53:20Z</time>
      </trkpt>
      <trkpt lat="42.5619070" lon="-8.8930520">
        <ele>3.8</ele>
        <time>2020-08-07T09:53:21Z</time>
      </trkpt>
      <trkpt lat="42.5618820" lon="-8.8930750">
        <ele>3.6</ele>
        <time>2020-08-07T09:53:22Z</time>
      </trkpt>
      <trkpt lat="42.5618820" lon="-8.8930750">
        <ele>3.4</ele>
        <time>2020-08-07T09:53:23Z</time>
      </trkpt>
      <trkpt lat="42.5618530" lon="-8.8930990">
        <ele>3.2</ele>
        <time>2020-08-07T09:53:24Z</time>
      </trkpt>
      <trkpt lat="42.5618530" lon="-8.8930990">
        <ele>2.8</ele>
        <time>2020-08-07T09:53:25Z</time>
      </trkpt>
      <trkpt lat="42.5618270" lon="-8.8931200">
        <ele>3.0</ele>
        <time>2020-08-07T09:53:26Z</time>
      </trkpt>
      <trkpt lat="42.5618270" lon="-8.8931200">
        <ele>3.2</ele>
        <time>2020-08-07T09:53:27Z</time>
      </trkpt>
      <trkpt lat="42.5618020" lon="-8.8931370">
        <ele>3.2</ele>
        <time>2020-08-07T09:53:28Z</time>
      </trkpt>
      <trkpt lat="42.5618020" lon="-8.8931370">
        <ele>3.2</ele>
        <time>2020-08-07T09:53:29Z</time>
      </trkpt>
      <trkpt lat="42.5617760" lon="-8.8931490">
        <ele>3.2</ele>
        <time>2020-08-07T09:53:30Z</time>
      </trkpt>
      <trkpt lat="42.5617760" lon="-8.8931490">
        <ele>3.0</ele>
        <time>2020-08-07T09:53:31Z</time>
      </trkpt>
      <trkpt lat="42.5617470" lon="-8.8931580">
        <ele>3.0</ele>
        <time>2020-08-07T09:53:32Z</time>
      </trkpt>
      <trkpt lat="42.5617280" lon="-8.8931640">
        <ele>2.8</ele>
        <time>2020-08-07T09:53:33Z</time>
      </trkpt>
      <trkpt lat="42.5617280" lon="-8.8931640">
        <ele>3.0</ele>
        <time>2020-08-07T09:53:34Z</time>
      </trkpt>
      <trkpt lat="42.5616990" lon="-8.8931740">
        <ele>3.0</ele>
        <time>2020-08-07T09:53:35Z</time>
      </trkpt>
      <trkpt lat="42.5616990" lon="-8.8931740">
        <ele>3.0</ele>
        <time>2020-08-07T09:53:36Z</time>
      </trkpt>
      <trkpt lat="42.5616740" lon="-8.8931820">
        <ele>3.0</ele>
        <time>2020-08-07T09:53:37Z</time>
      </trkpt>
      <trkpt lat="42.5616740" lon="-8.8931820">
        <ele>3.2</ele>
        <time>2020-08-07T09:53:38Z</time>
      </trkpt>
      <trkpt lat="42.5616420" lon="-8.8931850">
        <ele>2.8</ele>
        <time>2020-08-07T09:53:39Z</time>
      </trkpt>
      <trkpt lat="42.5616420" lon="-8.8931850">
        <ele>2.8</ele>
        <time>2020-08-07T09:53:40Z</time>
      </trkpt>
      <trkpt lat="42.5616100" lon="-8.8931910">
        <ele>2.8</ele>
        <time>2020-08-07T09:53:41Z</time>
      </trkpt>
      <trkpt lat="42.5616100" lon="-8.8931910">
        <ele>2.8</ele>
        <time>2020-08-07T09:53:42Z</time>
      </trkpt>
      <trkpt lat="42.5615780" lon="-8.8931970">
        <ele>2.6</ele>
        <time>2020-08-07T09:53:43Z</time>
      </trkpt>
      <trkpt lat="42.5615780" lon="-8.8931970">
        <ele>2.4</ele>
        <time>2020-08-07T09:53:44Z</time>
      </trkpt>
      <trkpt lat="42.5615490" lon="-8.8932020">
        <ele>2.6</ele>
        <time>2020-08-07T09:53:45Z</time>
      </trkpt>
      <trkpt lat="42.5615490" lon="-8.8932020">
        <ele>3.0</ele>
        <time>2020-08-07T09:53:46Z</time>
      </trkpt>
      <trkpt lat="42.5615230" lon="-8.8932100">
        <ele>3.0</ele>
        <time>2020-08-07T09:53:47Z</time>
      </trkpt>
      <trkpt lat="42.5615230" lon="-8.8932100">
        <ele>3.2</ele>
        <time>2020-08-07T09:53:48Z</time>
      </trkpt>
      <trkpt lat="42.5614940" lon="-8.8932180">
        <ele>3.4</ele>
        <time>2020-08-07T09:53:49Z</time>
      </trkpt>
      <trkpt lat="42.5614940" lon="-8.8932180">
        <ele>3.4</ele>
        <time>2020-08-07T09:53:50Z</time>
      </trkpt>
      <trkpt lat="42.5614620" lon="-8.8932290">
        <ele>3.6</ele>
        <time>2020-08-07T09:53:51Z</time>
      </trkpt>
      <trkpt lat="42.5614620" lon="-8.8932290">
        <ele>4.0</ele>
        <time>2020-08-07T09:53:52Z</time>
      </trkpt>
      <trkpt lat="42.5614300" lon="-8.8932380">
        <ele>4.0</ele>
        <time>2020-08-07T09:53:53Z</time>
      </trkpt>
      <trkpt lat="42.5614300" lon="-8.8932380">
        <ele>4.2</ele>
        <time>2020-08-07T09:53:54Z</time>
      </trkpt>
      <trkpt lat="42.5614020" lon="-8.8932510">
        <ele>4.6</ele>
        <time>2020-08-07T09:53:55Z</time>
      </trkpt>
      <trkpt lat="42.5613840" lon="-8.8932600">
        <ele>4.6</ele>
        <time>2020-08-07T09:53:56Z</time>
      </trkpt>
      <trkpt lat="42.5613660" lon="-8.8932690">
        <ele>4.6</ele>
        <time>2020-08-07T09:53:57Z</time>
      </trkpt>
      <trkpt lat="42.5613660" lon="-8.8932690">
        <ele>4.8</ele>
        <time>2020-08-07T09:53:58Z</time>
      </trkpt>
      <trkpt lat="42.5613380" lon="-8.8932820">
        <ele>4.4</ele>
        <time>2020-08-07T09:53:59Z</time>
      </trkpt>
      <trkpt lat="42.5613380" lon="-8.8932820">
        <ele>4.2</ele>
        <time>2020-08-07T09:54:00Z</time>
      </trkpt>
      <trkpt lat="42.5613090" lon="-8.8932890">
        <ele>3.8</ele>
        <time>2020-08-07T09:54:01Z</time>
      </trkpt>
      <trkpt lat="42.5613090" lon="-8.8932890">
        <ele>3.8</ele>
        <time>2020-08-07T09:54:02Z</time>
      </trkpt>
      <trkpt lat="42.5612770" lon="-8.8932940">
        <ele>3.8</ele>
        <time>2020-08-07T09:54:03Z</time>
      </trkpt>
      <trkpt lat="42.5612770" lon="-8.8932940">
        <ele>3.6</ele>
        <time>2020-08-07T09:54:04Z</time>
      </trkpt>
      <trkpt lat="42.5612450" lon="-8.8932940">
        <ele>3.6</ele>
        <time>2020-08-07T09:54:05Z</time>
      </trkpt>
      <trkpt lat="42.5612450" lon="-8.8932940">
        <ele>3.4</ele>
        <time>2020-08-07T09:54:06Z</time>
      </trkpt>
      <trkpt lat="42.5612160" lon="-8.8932890">
        <ele>3.4</ele>
        <time>2020-08-07T09:54:07Z</time>
      </trkpt>
      <trkpt lat="42.5611970" lon="-8.8932830">
        <ele>3.4</ele>
        <time>2020-08-07T09:54:08Z</time>
      </trkpt>
      <trkpt lat="42.5611970" lon="-8.8932830">
        <ele>3.4</ele>
        <time>2020-08-07T09:54:09Z</time>
      </trkpt>
      <trkpt lat="42.5611650" lon="-8.8932760">
        <ele>3.2</ele>
        <time>2020-08-07T09:54:10Z</time>
      </trkpt>
      <trkpt lat="42.5611650" lon="-8.8932760">
        <ele>3.2</ele>
        <time>2020-08-07T09:54:11Z</time>
      </trkpt>
      <trkpt lat="42.5611390" lon="-8.8932580">
        <ele>3.0</ele>
        <time>2020-08-07T09:54:12Z</time>
      </trkpt>
      <trkpt lat="42.5611390" lon="-8.8932580">
        <ele>3.0</ele>
        <time>2020-08-07T09:54:13Z</time>
      </trkpt>
      <trkpt lat="42.5611100" lon="-8.8932450">
        <ele>3.2</ele>
        <time>2020-08-07T09:54:14Z</time>
      </trkpt>
      <trkpt lat="42.5611100" lon="-8.8932450">
        <ele>3.2</ele>
        <time>2020-08-07T09:54:15Z</time>
      </trkpt>
      <trkpt lat="42.5610850" lon="-8.8932350">
        <ele>3.4</ele>
        <time>2020-08-07T09:54:16Z</time>
      </trkpt>
      <trkpt lat="42.5610850" lon="-8.8932350">
        <ele>3.4</ele>
        <time>2020-08-07T09:54:17Z</time>
      </trkpt>
      <trkpt lat="42.5610620" lon="-8.8932240">
        <ele>3.2</ele>
        <time>2020-08-07T09:54:18Z</time>
      </trkpt>
      <trkpt lat="42.5610620" lon="-8.8932240">
        <ele>3.0</ele>
        <time>2020-08-07T09:54:19Z</time>
      </trkpt>
      <trkpt lat="42.5610340" lon="-8.8932170">
        <ele>2.8</ele>
        <time>2020-08-07T09:54:20Z</time>
      </trkpt>
      <trkpt lat="42.5610340" lon="-8.8932170">
        <ele>3.4</ele>
        <time>2020-08-07T09:54:21Z</time>
      </trkpt>
      <trkpt lat="42.5610050" lon="-8.8932150">
        <ele>3.4</ele>
        <time>2020-08-07T09:54:22Z</time>
      </trkpt>
      <trkpt lat="42.5610050" lon="-8.8932150">
        <ele>3.2</ele>
        <time>2020-08-07T09:54:23Z</time>
      </trkpt>
      <trkpt lat="42.5609790" lon="-8.8932180">
        <ele>3.0</ele>
        <time>2020-08-07T09:54:24Z</time>
      </trkpt>
      <trkpt lat="42.5609790" lon="-8.8932180">
        <ele>3.2</ele>
        <time>2020-08-07T09:54:25Z</time>
      </trkpt>
      <trkpt lat="42.5609500" lon="-8.8932260">
        <ele>3.0</ele>
        <time>2020-08-07T09:54:26Z</time>
      </trkpt>
      <trkpt lat="42.5609500" lon="-8.8932260">
        <ele>3.0</ele>
        <time>2020-08-07T09:54:27Z</time>
      </trkpt>
      <trkpt lat="42.5609250" lon="-8.8932420">
        <ele>3.2</ele>
        <time>2020-08-07T09:54:28Z</time>
      </trkpt>
      <trkpt lat="42.5609060" lon="-8.8932490">
        <ele>3.0</ele>
        <time>2020-08-07T09:54:29Z</time>
      </trkpt>
      <trkpt lat="42.5609060" lon="-8.8932490">
        <ele>2.8</ele>
        <time>2020-08-07T09:54:30Z</time>
      </trkpt>
      <trkpt lat="42.5608800" lon="-8.8932620">
        <ele>3.0</ele>
        <time>2020-08-07T09:54:31Z</time>
      </trkpt>
      <trkpt lat="42.5608800" lon="-8.8932620">
        <ele>3.0</ele>
        <time>2020-08-07T09:54:32Z</time>
      </trkpt>
      <trkpt lat="42.5608510" lon="-8.8932750">
        <ele>3.0</ele>
        <time>2020-08-07T09:54:33Z</time>
      </trkpt>
      <trkpt lat="42.5608510" lon="-8.8932750">
        <ele>3.0</ele>
        <time>2020-08-07T09:54:34Z</time>
      </trkpt>
      <trkpt lat="42.5608260" lon="-8.8932890">
        <ele>3.2</ele>
        <time>2020-08-07T09:54:35Z</time>
      </trkpt>
      <trkpt lat="42.5608260" lon="-8.8932890">
        <ele>3.2</ele>
        <time>2020-08-07T09:54:36Z</time>
      </trkpt>
      <trkpt lat="42.5607940" lon="-8.8933000">
        <ele>3.2</ele>
        <time>2020-08-07T09:54:37Z</time>
      </trkpt>
      <trkpt lat="42.5607940" lon="-8.8933000">
        <ele>3.0</ele>
        <time>2020-08-07T09:54:38Z</time>
      </trkpt>
      <trkpt lat="42.5607680" lon="-8.8933100">
        <ele>2.8</ele>
        <time>2020-08-07T09:54:39Z</time>
      </trkpt>
      <trkpt lat="42.5607680" lon="-8.8933100">
        <ele>2.6</ele>
        <time>2020-08-07T09:54:40Z</time>
      </trkpt>
      <trkpt lat="42.5607460" lon="-8.8933200">
        <ele>2.4</ele>
        <time>2020-08-07T09:54:41Z</time>
      </trkpt>
      <trkpt lat="42.5607460" lon="-8.8933200">
        <ele>2.2</ele>
        <time>2020-08-07T09:54:42Z</time>
      </trkpt>
      <trkpt lat="42.5607140" lon="-8.8933220">
        <ele>2.2</ele>
        <time>2020-08-07T09:54:43Z</time>
      </trkpt>
      <trkpt lat="42.5607140" lon="-8.8933220">
        <ele>2.6</ele>
        <time>2020-08-07T09:54:44Z</time>
      </trkpt>
      <trkpt lat="42.5606850" lon="-8.8933250">
        <ele>2.8</ele>
        <time>2020-08-07T09:54:45Z</time>
      </trkpt>
      <trkpt lat="42.5606850" lon="-8.8933250">
        <ele>2.6</ele>
        <time>2020-08-07T09:54:46Z</time>
      </trkpt>
      <trkpt lat="42.5606560" lon="-8.8933300">
        <ele>2.6</ele>
        <time>2020-08-07T09:54:47Z</time>
      </trkpt>
      <trkpt lat="42.5606560" lon="-8.8933300">
        <ele>2.4</ele>
        <time>2020-08-07T09:54:48Z</time>
      </trkpt>
      <trkpt lat="42.5606240" lon="-8.8933350">
        <ele>2.4</ele>
        <time>2020-08-07T09:54:49Z</time>
      </trkpt>
      <trkpt lat="42.5606240" lon="-8.8933350">
        <ele>2.4</ele>
        <time>2020-08-07T09:54:50Z</time>
      </trkpt>
      <trkpt lat="42.5605920" lon="-8.8933380">
        <ele>2.0</ele>
        <time>2020-08-07T09:54:51Z</time>
      </trkpt>
      <trkpt lat="42.5605920" lon="-8.8933380">
        <ele>2.4</ele>
        <time>2020-08-07T09:54:52Z</time>
      </trkpt>
      <trkpt lat="42.5605630" lon="-8.8933420">
        <ele>2.4</ele>
        <time>2020-08-07T09:54:53Z</time>
      </trkpt>
      <trkpt lat="42.5605440" lon="-8.8933450">
        <ele>2.6</ele>
        <time>2020-08-07T09:54:54Z</time>
      </trkpt>
      <trkpt lat="42.5605440" lon="-8.8933450">
        <ele>2.4</ele>
        <time>2020-08-07T09:54:55Z</time>
      </trkpt>
      <trkpt lat="42.5605120" lon="-8.8933490">
        <ele>2.6</ele>
        <time>2020-08-07T09:54:56Z</time>
      </trkpt>
      <trkpt lat="42.5604930" lon="-8.8933510">
        <ele>3.0</ele>
        <time>2020-08-07T09:54:57Z</time>
      </trkpt>
      <trkpt lat="42.5604930" lon="-8.8933510">
        <ele>3.0</ele>
        <time>2020-08-07T09:54:58Z</time>
      </trkpt>
      <trkpt lat="42.5604670" lon="-8.8933560">
        <ele>3.0</ele>
        <time>2020-08-07T09:54:59Z</time>
      </trkpt>
      <trkpt lat="42.5604670" lon="-8.8933560">
        <ele>3.2</ele>
        <time>2020-08-07T09:55:00Z</time>
      </trkpt>
      <trkpt lat="42.5604350" lon="-8.8933670">
        <ele>3.0</ele>
        <time>2020-08-07T09:55:01Z</time>
      </trkpt>
      <trkpt lat="42.5604350" lon="-8.8933670">
        <ele>2.8</ele>
        <time>2020-08-07T09:55:02Z</time>
      </trkpt>
      <trkpt lat="42.5604130" lon="-8.8933830">
        <ele>3.0</ele>
        <time>2020-08-07T09:55:03Z</time>
      </trkpt>
      <trkpt lat="42.5604130" lon="-8.8933830">
        <ele>3.0</ele>
        <time>2020-08-07T09:55:04Z</time>
      </trkpt>
      <trkpt lat="42.5603870" lon="-8.8934000">
        <ele>2.8</ele>
        <time>2020-08-07T09:55:05Z</time>
      </trkpt>
      <trkpt lat="42.5603710" lon="-8.8934140">
        <ele>2.8</ele>
        <time>2020-08-07T09:55:06Z</time>
      </trkpt>
      <trkpt lat="42.5603710" lon="-8.8934140">
        <ele>2.6</ele>
        <time>2020-08-07T09:55:07Z</time>
      </trkpt>
      <trkpt lat="42.5603490" lon="-8.8934340">
        <ele>2.8</ele>
        <time>2020-08-07T09:55:08Z</time>
      </trkpt>
      <trkpt lat="42.5603490" lon="-8.8934340">
        <ele>2.6</ele>
        <time>2020-08-07T09:55:09Z</time>
      </trkpt>
      <trkpt lat="42.5603260" lon="-8.8934580">
        <ele>2.6</ele>
        <time>2020-08-07T09:55:10Z</time>
      </trkpt>
      <trkpt lat="42.5603260" lon="-8.8934580">
        <ele>2.8</ele>
        <time>2020-08-07T09:55:11Z</time>
      </trkpt>
      <trkpt lat="42.5602980" lon="-8.8934800">
        <ele>3.0</ele>
        <time>2020-08-07T09:55:12Z</time>
      </trkpt>
      <trkpt lat="42.5602980" lon="-8.8934800">
        <ele>3.0</ele>
        <time>2020-08-07T09:55:13Z</time>
      </trkpt>
      <trkpt lat="42.5602720" lon="-8.8935030">
        <ele>3.0</ele>
        <time>2020-08-07T09:55:14Z</time>
      </trkpt>
      <trkpt lat="42.5602720" lon="-8.8935030">
        <ele>3.0</ele>
        <time>2020-08-07T09:55:15Z</time>
      </trkpt>
      <trkpt lat="42.5602460" lon="-8.8935220">
        <ele>3.0</ele>
        <time>2020-08-07T09:55:16Z</time>
      </trkpt>
      <trkpt lat="42.5602460" lon="-8.8935220">
        <ele>3.2</ele>
        <time>2020-08-07T09:55:17Z</time>
      </trkpt>
      <trkpt lat="42.5602180" lon="-8.8935340">
        <ele>3.2</ele>
        <time>2020-08-07T09:55:18Z</time>
      </trkpt>
      <trkpt lat="42.5602180" lon="-8.8935340">
        <ele>3.2</ele>
        <time>2020-08-07T09:55:19Z</time>
      </trkpt>
      <trkpt lat="42.5601890" lon="-8.8935470">
        <ele>3.6</ele>
        <time>2020-08-07T09:55:20Z</time>
      </trkpt>
      <trkpt lat="42.5601890" lon="-8.8935470">
        <ele>3.4</ele>
        <time>2020-08-07T09:55:21Z</time>
      </trkpt>
      <trkpt lat="42.5601600" lon="-8.8935540">
        <ele>3.2</ele>
        <time>2020-08-07T09:55:22Z</time>
      </trkpt>
      <trkpt lat="42.5601600" lon="-8.8935540">
        <ele>3.2</ele>
        <time>2020-08-07T09:55:23Z</time>
      </trkpt>
      <trkpt lat="42.5601340" lon="-8.8935580">
        <ele>3.2</ele>
        <time>2020-08-07T09:55:24Z</time>
      </trkpt>
      <trkpt lat="42.5601340" lon="-8.8935580">
        <ele>3.2</ele>
        <time>2020-08-07T09:55:25Z</time>
      </trkpt>
      <trkpt lat="42.5601090" lon="-8.8935610">
        <ele>3.2</ele>
        <time>2020-08-07T09:55:26Z</time>
      </trkpt>
      <trkpt lat="42.5601090" lon="-8.8935610">
        <ele>3.2</ele>
        <time>2020-08-07T09:55:27Z</time>
      </trkpt>
      <trkpt lat="42.5600860" lon="-8.8935580">
        <ele>3.0</ele>
        <time>2020-08-07T09:55:28Z</time>
      </trkpt>
      <trkpt lat="42.5600860" lon="-8.8935580">
        <ele>3.0</ele>
        <time>2020-08-07T09:55:29Z</time>
      </trkpt>
      <trkpt lat="42.5600670" lon="-8.8935540">
        <ele>3.2</ele>
        <time>2020-08-07T09:55:30Z</time>
      </trkpt>
      <trkpt lat="42.5600670" lon="-8.8935540">
        <ele>3.2</ele>
        <time>2020-08-07T09:55:31Z</time>
      </trkpt>
      <trkpt lat="42.5600450" lon="-8.8935540">
        <ele>3.0</ele>
        <time>2020-08-07T09:55:32Z</time>
      </trkpt>
      <trkpt lat="42.5600450" lon="-8.8935540">
        <ele>2.8</ele>
        <time>2020-08-07T09:55:33Z</time>
      </trkpt>
      <trkpt lat="42.5600260" lon="-8.8935500">
        <ele>2.8</ele>
        <time>2020-08-07T09:55:34Z</time>
      </trkpt>
      <trkpt lat="42.5600260" lon="-8.8935500">
        <ele>2.4</ele>
        <time>2020-08-07T09:55:35Z</time>
      </trkpt>
      <trkpt lat="42.5600260" lon="-8.8935500">
        <ele>2.4</ele>
        <time>2020-08-07T09:55:36Z</time>
      </trkpt>
      <trkpt lat="42.5600000" lon="-8.8935380">
        <ele>2.6</ele>
        <time>2020-08-07T09:55:37Z</time>
      </trkpt>
      <trkpt lat="42.5600000" lon="-8.8935380">
        <ele>2.4</ele>
        <time>2020-08-07T09:55:38Z</time>
      </trkpt>
      <trkpt lat="42.5599810" lon="-8.8935300">
        <ele>2.6</ele>
        <time>2020-08-07T09:55:39Z</time>
      </trkpt>
      <trkpt lat="42.5599810" lon="-8.8935300">
        <ele>2.4</ele>
        <time>2020-08-07T09:55:40Z</time>
      </trkpt>
      <trkpt lat="42.5599810" lon="-8.8935300">
        <ele>2.2</ele>
        <time>2020-08-07T09:55:41Z</time>
      </trkpt>
      <trkpt lat="42.5599580" lon="-8.8935270">
        <ele>2.4</ele>
        <time>2020-08-07T09:55:42Z</time>
      </trkpt>
      <trkpt lat="42.5599580" lon="-8.8935270">
        <ele>2.4</ele>
        <time>2020-08-07T09:55:43Z</time>
      </trkpt>
      <trkpt lat="42.5599580" lon="-8.8935270">
        <ele>2.4</ele>
        <time>2020-08-07T09:55:44Z</time>
      </trkpt>
      <trkpt lat="42.5599360" lon="-8.8935170">
        <ele>2.8</ele>
        <time>2020-08-07T09:55:45Z</time>
      </trkpt>
      <trkpt lat="42.5599360" lon="-8.8935170">
        <ele>2.8</ele>
        <time>2020-08-07T09:55:46Z</time>
      </trkpt>
      <trkpt lat="42.5599360" lon="-8.8935170">
        <ele>3.0</ele>
        <time>2020-08-07T09:55:47Z</time>
      </trkpt>
      <trkpt lat="42.5599100" lon="-8.8935050">
        <ele>3.0</ele>
        <time>2020-08-07T09:55:48Z</time>
      </trkpt>
      <trkpt lat="42.5599100" lon="-8.8935050">
        <ele>3.0</ele>
        <time>2020-08-07T09:55:49Z</time>
      </trkpt>
      <trkpt lat="42.5599100" lon="-8.8935050">
        <ele>3.2</ele>
        <time>2020-08-07T09:55:50Z</time>
      </trkpt>
      <trkpt lat="42.5598820" lon="-8.8935120">
        <ele>3.4</ele>
        <time>2020-08-07T09:55:51Z</time>
      </trkpt>
      <trkpt lat="42.5598820" lon="-8.8935120">
        <ele>3.4</ele>
        <time>2020-08-07T09:55:52Z</time>
      </trkpt>
      <trkpt lat="42.5598820" lon="-8.8935120">
        <ele>3.6</ele>
        <time>2020-08-07T09:55:53Z</time>
      </trkpt>
      <trkpt lat="42.5598590" lon="-8.8935300">
        <ele>3.2</ele>
        <time>2020-08-07T09:55:54Z</time>
      </trkpt>
      <trkpt lat="42.5598590" lon="-8.8935300">
        <ele>3.2</ele>
        <time>2020-08-07T09:55:55Z</time>
      </trkpt>
      <trkpt lat="42.5598590" lon="-8.8935300">
        <ele>3.0</ele>
        <time>2020-08-07T09:55:56Z</time>
      </trkpt>
      <trkpt lat="42.5598400" lon="-8.8935500">
        <ele>2.8</ele>
        <time>2020-08-07T09:55:57Z</time>
      </trkpt>
      <trkpt lat="42.5598400" lon="-8.8935500">
        <ele>3.0</ele>
        <time>2020-08-07T09:55:58Z</time>
      </trkpt>
      <trkpt lat="42.5598400" lon="-8.8935500">
        <ele>3.0</ele>
        <time>2020-08-07T09:55:59Z</time>
      </trkpt>
      <trkpt lat="42.5598400" lon="-8.8935500">
        <ele>3.0</ele>
        <time>2020-08-07T09:56:00Z</time>
      </trkpt>
      <trkpt lat="42.5598300" lon="-8.8935830">
        <ele>3.0</ele>
        <time>2020-08-07T09:56:01Z</time>
      </trkpt>
      <trkpt lat="42.5598300" lon="-8.8935830">
        <ele>3.0</ele>
        <time>2020-08-07T09:56:02Z</time>
      </trkpt>
      <trkpt lat="42.5598180" lon="-8.8936060">
        <ele>2.8</ele>
        <time>2020-08-07T09:56:03Z</time>
      </trkpt>
      <trkpt lat="42.5598180" lon="-8.8936060">
        <ele>2.8</ele>
        <time>2020-08-07T09:56:04Z</time>
      </trkpt>
      <trkpt lat="42.5598110" lon="-8.8936300">
        <ele>3.0</ele>
        <time>2020-08-07T09:56:05Z</time>
      </trkpt>
      <trkpt lat="42.5598110" lon="-8.8936300">
        <ele>2.8</ele>
        <time>2020-08-07T09:56:06Z</time>
      </trkpt>
      <trkpt lat="42.5597950" lon="-8.8936570">
        <ele>2.6</ele>
        <time>2020-08-07T09:56:07Z</time>
      </trkpt>
      <trkpt lat="42.5597950" lon="-8.8936570">
        <ele>2.6</ele>
        <time>2020-08-07T09:56:08Z</time>
      </trkpt>
      <trkpt lat="42.5597730" lon="-8.8936830">
        <ele>2.4</ele>
        <time>2020-08-07T09:56:09Z</time>
      </trkpt>
      <trkpt lat="42.5597730" lon="-8.8936830">
        <ele>2.2</ele>
        <time>2020-08-07T09:56:10Z</time>
      </trkpt>
      <trkpt lat="42.5597500" lon="-8.8937080">
        <ele>2.2</ele>
        <time>2020-08-07T09:56:11Z</time>
      </trkpt>
      <trkpt lat="42.5597500" lon="-8.8937080">
        <ele>2.6</ele>
        <time>2020-08-07T09:56:12Z</time>
      </trkpt>
      <trkpt lat="42.5597220" lon="-8.8937280">
        <ele>2.8</ele>
        <time>2020-08-07T09:56:13Z</time>
      </trkpt>
      <trkpt lat="42.5597220" lon="-8.8937280">
        <ele>2.8</ele>
        <time>2020-08-07T09:56:14Z</time>
      </trkpt>
      <trkpt lat="42.5596930" lon="-8.8937430">
        <ele>3.2</ele>
        <time>2020-08-07T09:56:15Z</time>
      </trkpt>
      <trkpt lat="42.5596930" lon="-8.8937430">
        <ele>3.0</ele>
        <time>2020-08-07T09:56:16Z</time>
      </trkpt>
      <trkpt lat="42.5596610" lon="-8.8937550">
        <ele>3.2</ele>
        <time>2020-08-07T09:56:17Z</time>
      </trkpt>
      <trkpt lat="42.5596610" lon="-8.8937550">
        <ele>3.0</ele>
        <time>2020-08-07T09:56:18Z</time>
      </trkpt>
      <trkpt lat="42.5596320" lon="-8.8937620">
        <ele>3.0</ele>
        <time>2020-08-07T09:56:19Z</time>
      </trkpt>
      <trkpt lat="42.5596320" lon="-8.8937620">
        <ele>3.0</ele>
        <time>2020-08-07T09:56:20Z</time>
      </trkpt>
      <trkpt lat="42.5596030" lon="-8.8937680">
        <ele>2.8</ele>
        <time>2020-08-07T09:56:21Z</time>
      </trkpt>
      <trkpt lat="42.5596030" lon="-8.8937680">
        <ele>2.6</ele>
        <time>2020-08-07T09:56:22Z</time>
      </trkpt>
      <trkpt lat="42.5595740" lon="-8.8937800">
        <ele>2.6</ele>
        <time>2020-08-07T09:56:23Z</time>
      </trkpt>
      <trkpt lat="42.5595740" lon="-8.8937800">
        <ele>2.6</ele>
        <time>2020-08-07T09:56:24Z</time>
      </trkpt>
      <trkpt lat="42.5595420" lon="-8.8937910">
        <ele>2.4</ele>
        <time>2020-08-07T09:56:25Z</time>
      </trkpt>
      <trkpt lat="42.5595420" lon="-8.8937910">
        <ele>2.6</ele>
        <time>2020-08-07T09:56:26Z</time>
      </trkpt>
      <trkpt lat="42.5595170" lon="-8.8938030">
        <ele>2.2</ele>
        <time>2020-08-07T09:56:27Z</time>
      </trkpt>
      <trkpt lat="42.5595170" lon="-8.8938030">
        <ele>2.0</ele>
        <time>2020-08-07T09:56:28Z</time>
      </trkpt>
      <trkpt lat="42.5594850" lon="-8.8938150">
        <ele>2.2</ele>
        <time>2020-08-07T09:56:29Z</time>
      </trkpt>
      <trkpt lat="42.5594850" lon="-8.8938150">
        <ele>2.2</ele>
        <time>2020-08-07T09:56:30Z</time>
      </trkpt>
      <trkpt lat="42.5594560" lon="-8.8938250">
        <ele>2.2</ele>
        <time>2020-08-07T09:56:31Z</time>
      </trkpt>
      <trkpt lat="42.5594560" lon="-8.8938250">
        <ele>2.0</ele>
        <time>2020-08-07T09:56:32Z</time>
      </trkpt>
      <trkpt lat="42.5594300" lon="-8.8938370">
        <ele>2.2</ele>
        <time>2020-08-07T09:56:33Z</time>
      </trkpt>
      <trkpt lat="42.5594300" lon="-8.8938370">
        <ele>2.0</ele>
        <time>2020-08-07T09:56:34Z</time>
      </trkpt>
      <trkpt lat="42.5593980" lon="-8.8938510">
        <ele>1.8</ele>
        <time>2020-08-07T09:56:35Z</time>
      </trkpt>
      <trkpt lat="42.5593980" lon="-8.8938510">
        <ele>2.0</ele>
        <time>2020-08-07T09:56:36Z</time>
      </trkpt>
      <trkpt lat="42.5593700" lon="-8.8938650">
        <ele>2.4</ele>
        <time>2020-08-07T09:56:37Z</time>
      </trkpt>
      <trkpt lat="42.5593700" lon="-8.8938650">
        <ele>2.6</ele>
        <time>2020-08-07T09:56:38Z</time>
      </trkpt>
      <trkpt lat="42.5593410" lon="-8.8938800">
        <ele>2.6</ele>
        <time>2020-08-07T09:56:39Z</time>
      </trkpt>
      <trkpt lat="42.5593410" lon="-8.8938800">
        <ele>2.6</ele>
        <time>2020-08-07T09:56:40Z</time>
      </trkpt>
      <trkpt lat="42.5593150" lon="-8.8938970">
        <ele>2.4</ele>
        <time>2020-08-07T09:56:41Z</time>
      </trkpt>
      <trkpt lat="42.5593150" lon="-8.8938970">
        <ele>2.6</ele>
        <time>2020-08-07T09:56:42Z</time>
      </trkpt>
      <trkpt lat="42.5592830" lon="-8.8939110">
        <ele>2.6</ele>
        <time>2020-08-07T09:56:43Z</time>
      </trkpt>
      <trkpt lat="42.5592830" lon="-8.8939110">
        <ele>2.2</ele>
        <time>2020-08-07T09:56:44Z</time>
      </trkpt>
      <trkpt lat="42.5592540" lon="-8.8939310">
        <ele>2.2</ele>
        <time>2020-08-07T09:56:45Z</time>
      </trkpt>
      <trkpt lat="42.5592540" lon="-8.8939310">
        <ele>2.4</ele>
        <time>2020-08-07T09:56:46Z</time>
      </trkpt>
      <trkpt lat="42.5592260" lon="-8.8939500">
        <ele>2.4</ele>
        <time>2020-08-07T09:56:47Z</time>
      </trkpt>
      <trkpt lat="42.5592260" lon="-8.8939500">
        <ele>2.4</ele>
        <time>2020-08-07T09:56:48Z</time>
      </trkpt>
      <trkpt lat="42.5591970" lon="-8.8939660">
        <ele>2.6</ele>
        <time>2020-08-07T09:56:49Z</time>
      </trkpt>
      <trkpt lat="42.5591970" lon="-8.8939660">
        <ele>2.8</ele>
        <time>2020-08-07T09:56:50Z</time>
      </trkpt>
      <trkpt lat="42.5591710" lon="-8.8939860">
        <ele>2.8</ele>
        <time>2020-08-07T09:56:51Z</time>
      </trkpt>
      <trkpt lat="42.5591710" lon="-8.8939860">
        <ele>2.8</ele>
        <time>2020-08-07T09:56:52Z</time>
      </trkpt>
      <trkpt lat="42.5591390" lon="-8.8940050">
        <ele>3.0</ele>
        <time>2020-08-07T09:56:53Z</time>
      </trkpt>
      <trkpt lat="42.5591390" lon="-8.8940050">
        <ele>2.8</ele>
        <time>2020-08-07T09:56:54Z</time>
      </trkpt>
      <trkpt lat="42.5591170" lon="-8.8940180">
        <ele>2.8</ele>
        <time>2020-08-07T09:56:55Z</time>
      </trkpt>
      <trkpt lat="42.5591170" lon="-8.8940180">
        <ele>3.0</ele>
        <time>2020-08-07T09:56:56Z</time>
      </trkpt>
      <trkpt lat="42.5590910" lon="-8.8940290">
        <ele>3.0</ele>
        <time>2020-08-07T09:56:57Z</time>
      </trkpt>
      <trkpt lat="42.5590910" lon="-8.8940290">
        <ele>3.2</ele>
        <time>2020-08-07T09:56:58Z</time>
      </trkpt>
      <trkpt lat="42.5590590" lon="-8.8940360">
        <ele>3.2</ele>
        <time>2020-08-07T09:56:59Z</time>
      </trkpt>
      <trkpt lat="42.5590590" lon="-8.8940360">
        <ele>3.0</ele>
        <time>2020-08-07T09:57:00Z</time>
      </trkpt>
      <trkpt lat="42.5590340" lon="-8.8940460">
        <ele>3.0</ele>
        <time>2020-08-07T09:57:01Z</time>
      </trkpt>
      <trkpt lat="42.5590340" lon="-8.8940460">
        <ele>3.0</ele>
        <time>2020-08-07T09:57:02Z</time>
      </trkpt>
      <trkpt lat="42.5590050" lon="-8.8940540">
        <ele>3.2</ele>
        <time>2020-08-07T09:57:03Z</time>
      </trkpt>
      <trkpt lat="42.5590050" lon="-8.8940540">
        <ele>3.0</ele>
        <time>2020-08-07T09:57:04Z</time>
      </trkpt>
      <trkpt lat="42.5589790" lon="-8.8940600">
        <ele>2.8</ele>
        <time>2020-08-07T09:57:05Z</time>
      </trkpt>
      <trkpt lat="42.5589790" lon="-8.8940600">
        <ele>2.8</ele>
        <time>2020-08-07T09:57:06Z</time>
      </trkpt>
      <trkpt lat="42.5589470" lon="-8.8940670">
        <ele>2.6</ele>
        <time>2020-08-07T09:57:07Z</time>
      </trkpt>
      <trkpt lat="42.5589470" lon="-8.8940670">
        <ele>2.6</ele>
        <time>2020-08-07T09:57:08Z</time>
      </trkpt>
      <trkpt lat="42.5589220" lon="-8.8940710">
        <ele>2.6</ele>
        <time>2020-08-07T09:57:09Z</time>
      </trkpt>
      <trkpt lat="42.5589220" lon="-8.8940710">
        <ele>2.6</ele>
        <time>2020-08-07T09:57:10Z</time>
      </trkpt>
      <trkpt lat="42.5588960" lon="-8.8940780">
        <ele>2.6</ele>
        <time>2020-08-07T09:57:11Z</time>
      </trkpt>
      <trkpt lat="42.5588960" lon="-8.8940780">
        <ele>2.6</ele>
        <time>2020-08-07T09:57:12Z</time>
      </trkpt>
      <trkpt lat="42.5588670" lon="-8.8940820">
        <ele>2.4</ele>
        <time>2020-08-07T09:57:13Z</time>
      </trkpt>
      <trkpt lat="42.5588670" lon="-8.8940820">
        <ele>2.4</ele>
        <time>2020-08-07T09:57:14Z</time>
      </trkpt>
      <trkpt lat="42.5588420" lon="-8.8940830">
        <ele>2.0</ele>
        <time>2020-08-07T09:57:15Z</time>
      </trkpt>
      <trkpt lat="42.5588420" lon="-8.8940830">
        <ele>1.8</ele>
        <time>2020-08-07T09:57:16Z</time>
      </trkpt>
      <trkpt lat="42.5588190" lon="-8.8940850">
        <ele>1.8</ele>
        <time>2020-08-07T09:57:17Z</time>
      </trkpt>
      <trkpt lat="42.5588190" lon="-8.8940850">
        <ele>1.8</ele>
        <time>2020-08-07T09:57:18Z</time>
      </trkpt>
      <trkpt lat="42.5587870" lon="-8.8940870">
        <ele>1.8</ele>
        <time>2020-08-07T09:57:19Z</time>
      </trkpt>
      <trkpt lat="42.5587870" lon="-8.8940870">
        <ele>1.8</ele>
        <time>2020-08-07T09:57:20Z</time>
      </trkpt>
      <trkpt lat="42.5587650" lon="-8.8940870">
        <ele>2.0</ele>
        <time>2020-08-07T09:57:21Z</time>
      </trkpt>
      <trkpt lat="42.5587650" lon="-8.8940870">
        <ele>2.2</ele>
        <time>2020-08-07T09:57:22Z</time>
      </trkpt>
      <trkpt lat="42.5587360" lon="-8.8940870">
        <ele>2.0</ele>
        <time>2020-08-07T09:57:23Z</time>
      </trkpt>
      <trkpt lat="42.5587360" lon="-8.8940870">
        <ele>1.4</ele>
        <time>2020-08-07T09:57:24Z</time>
      </trkpt>
      <trkpt lat="42.5587070" lon="-8.8940830">
        <ele>1.4</ele>
        <time>2020-08-07T09:57:25Z</time>
      </trkpt>
      <trkpt lat="42.5587070" lon="-8.8940830">
        <ele>1.2</ele>
        <time>2020-08-07T09:57:26Z</time>
      </trkpt>
      <trkpt lat="42.5586820" lon="-8.8940780">
        <ele>1.6</ele>
        <time>2020-08-07T09:57:27Z</time>
      </trkpt>
      <trkpt lat="42.5586820" lon="-8.8940780">
        <ele>1.6</ele>
        <time>2020-08-07T09:57:28Z</time>
      </trkpt>
      <trkpt lat="42.5586560" lon="-8.8940740">
        <ele>1.8</ele>
        <time>2020-08-07T09:57:29Z</time>
      </trkpt>
      <trkpt lat="42.5586560" lon="-8.8940740">
        <ele>1.6</ele>
        <time>2020-08-07T09:57:30Z</time>
      </trkpt>
      <trkpt lat="42.5586300" lon="-8.8940650">
        <ele>1.4</ele>
        <time>2020-08-07T09:57:31Z</time>
      </trkpt>
      <trkpt lat="42.5586300" lon="-8.8940650">
        <ele>1.2</ele>
        <time>2020-08-07T09:57:32Z</time>
      </trkpt>
      <trkpt lat="42.5586050" lon="-8.8940560">
        <ele>1.2</ele>
        <time>2020-08-07T09:57:33Z</time>
      </trkpt>
      <trkpt lat="42.5586050" lon="-8.8940560">
        <ele>1.2</ele>
        <time>2020-08-07T09:57:34Z</time>
      </trkpt>
      <trkpt lat="42.5585790" lon="-8.8940420">
        <ele>1.4</ele>
        <time>2020-08-07T09:57:35Z</time>
      </trkpt>
      <trkpt lat="42.5585790" lon="-8.8940420">
        <ele>1.4</ele>
        <time>2020-08-07T09:57:36Z</time>
      </trkpt>
      <trkpt lat="42.5585570" lon="-8.8940230">
        <ele>1.6</ele>
        <time>2020-08-07T09:57:37Z</time>
      </trkpt>
      <trkpt lat="42.5585570" lon="-8.8940230">
        <ele>1.8</ele>
        <time>2020-08-07T09:57:38Z</time>
      </trkpt>
      <trkpt lat="42.5585280" lon="-8.8940020">
        <ele>1.8</ele>
        <time>2020-08-07T09:57:39Z</time>
      </trkpt>
      <trkpt lat="42.5585280" lon="-8.8940020">
        <ele>1.8</ele>
        <time>2020-08-07T09:57:40Z</time>
      </trkpt>
      <trkpt lat="42.5585020" lon="-8.8939820">
        <ele>1.8</ele>
        <time>2020-08-07T09:57:41Z</time>
      </trkpt>
      <trkpt lat="42.5585020" lon="-8.8939820">
        <ele>2.0</ele>
        <time>2020-08-07T09:57:42Z</time>
      </trkpt>
      <trkpt lat="42.5584700" lon="-8.8939690">
        <ele>2.0</ele>
        <time>2020-08-07T09:57:43Z</time>
      </trkpt>
      <trkpt lat="42.5584700" lon="-8.8939690">
        <ele>2.0</ele>
        <time>2020-08-07T09:57:44Z</time>
      </trkpt>
      <trkpt lat="42.5584450" lon="-8.8939600">
        <ele>1.8</ele>
        <time>2020-08-07T09:57:45Z</time>
      </trkpt>
      <trkpt lat="42.5584450" lon="-8.8939600">
        <ele>2.0</ele>
        <time>2020-08-07T09:57:46Z</time>
      </trkpt>
      <trkpt lat="42.5584190" lon="-8.8939600">
        <ele>2.2</ele>
        <time>2020-08-07T09:57:47Z</time>
      </trkpt>
      <trkpt lat="42.5584190" lon="-8.8939600">
        <ele>2.2</ele>
        <time>2020-08-07T09:57:48Z</time>
      </trkpt>
      <trkpt lat="42.5583870" lon="-8.8939650">
        <ele>2.2</ele>
        <time>2020-08-07T09:57:49Z</time>
      </trkpt>
      <trkpt lat="42.5583870" lon="-8.8939650">
        <ele>2.2</ele>
        <time>2020-08-07T09:57:50Z</time>
      </trkpt>
      <trkpt lat="42.5583620" lon="-8.8939750">
        <ele>2.4</ele>
        <time>2020-08-07T09:57:51Z</time>
      </trkpt>
      <trkpt lat="42.5583620" lon="-8.8939750">
        <ele>2.6</ele>
        <time>2020-08-07T09:57:52Z</time>
      </trkpt>
      <trkpt lat="42.5583300" lon="-8.8939910">
        <ele>2.6</ele>
        <time>2020-08-07T09:57:53Z</time>
      </trkpt>
      <trkpt lat="42.5583300" lon="-8.8939910">
        <ele>3.2</ele>
        <time>2020-08-07T09:57:54Z</time>
      </trkpt>
      <trkpt lat="42.5583010" lon="-8.8940060">
        <ele>3.2</ele>
        <time>2020-08-07T09:57:55Z</time>
      </trkpt>
      <trkpt lat="42.5583010" lon="-8.8940060">
        <ele>3.4</ele>
        <time>2020-08-07T09:57:56Z</time>
      </trkpt>
      <trkpt lat="42.5582690" lon="-8.8940230">
        <ele>3.2</ele>
        <time>2020-08-07T09:57:57Z</time>
      </trkpt>
      <trkpt lat="42.5582690" lon="-8.8940230">
        <ele>3.0</ele>
        <time>2020-08-07T09:57:58Z</time>
      </trkpt>
      <trkpt lat="42.5582430" lon="-8.8940350">
        <ele>2.8</ele>
        <time>2020-08-07T09:57:59Z</time>
      </trkpt>
      <trkpt lat="42.5582430" lon="-8.8940350">
        <ele>2.6</ele>
        <time>2020-08-07T09:58:00Z</time>
      </trkpt>
      <trkpt lat="42.5582110" lon="-8.8940430">
        <ele>2.4</ele>
        <time>2020-08-07T09:58:01Z</time>
      </trkpt>
      <trkpt lat="42.5582110" lon="-8.8940430">
        <ele>2.2</ele>
        <time>2020-08-07T09:58:02Z</time>
      </trkpt>
      <trkpt lat="42.5581820" lon="-8.8940510">
        <ele>2.0</ele>
        <time>2020-08-07T09:58:03Z</time>
      </trkpt>
      <trkpt lat="42.5581820" lon="-8.8940510">
        <ele>1.8</ele>
        <time>2020-08-07T09:58:04Z</time>
      </trkpt>
      <trkpt lat="42.5581540" lon="-8.8940540">
        <ele>1.8</ele>
        <time>2020-08-07T09:58:05Z</time>
      </trkpt>
      <trkpt lat="42.5581340" lon="-8.8940540">
        <ele>1.8</ele>
        <time>2020-08-07T09:58:06Z</time>
      </trkpt>
      <trkpt lat="42.5581340" lon="-8.8940540">
        <ele>1.8</ele>
        <time>2020-08-07T09:58:07Z</time>
      </trkpt>
      <trkpt lat="42.5581090" lon="-8.8940500">
        <ele>1.8</ele>
        <time>2020-08-07T09:58:08Z</time>
      </trkpt>
      <trkpt lat="42.5581090" lon="-8.8940500">
        <ele>1.6</ele>
        <time>2020-08-07T09:58:09Z</time>
      </trkpt>
      <trkpt lat="42.5580860" lon="-8.8940430">
        <ele>1.0</ele>
        <time>2020-08-07T09:58:10Z</time>
      </trkpt>
      <trkpt lat="42.5580860" lon="-8.8940430">
        <ele>0.8</ele>
        <time>2020-08-07T09:58:11Z</time>
      </trkpt>
      <trkpt lat="42.5580610" lon="-8.8940380">
        <ele>1.2</ele>
        <time>2020-08-07T09:58:12Z</time>
      </trkpt>
      <trkpt lat="42.5580610" lon="-8.8940380">
        <ele>1.0</ele>
        <time>2020-08-07T09:58:13Z</time>
      </trkpt>
      <trkpt lat="42.5580320" lon="-8.8940340">
        <ele>1.4</ele>
        <time>2020-08-07T09:58:14Z</time>
      </trkpt>
      <trkpt lat="42.5580130" lon="-8.8940300">
        <ele>1.2</ele>
        <time>2020-08-07T09:58:15Z</time>
      </trkpt>
      <trkpt lat="42.5580130" lon="-8.8940300">
        <ele>1.4</ele>
        <time>2020-08-07T09:58:16Z</time>
      </trkpt>
      <trkpt lat="42.5579870" lon="-8.8940300">
        <ele>1.6</ele>
        <time>2020-08-07T09:58:17Z</time>
      </trkpt>
      <trkpt lat="42.5579870" lon="-8.8940300">
        <ele>2.2</ele>
        <time>2020-08-07T09:58:18Z</time>
      </trkpt>
      <trkpt lat="42.5579550" lon="-8.8940350">
        <ele>1.8</ele>
        <time>2020-08-07T09:58:19Z</time>
      </trkpt>
      <trkpt lat="42.5579550" lon="-8.8940350">
        <ele>1.6</ele>
        <time>2020-08-07T09:58:20Z</time>
      </trkpt>
      <trkpt lat="42.5579300" lon="-8.8940450">
        <ele>2.0</ele>
        <time>2020-08-07T09:58:21Z</time>
      </trkpt>
      <trkpt lat="42.5579300" lon="-8.8940450">
        <ele>2.2</ele>
        <time>2020-08-07T09:58:22Z</time>
      </trkpt>
      <trkpt lat="42.5579040" lon="-8.8940550">
        <ele>2.2</ele>
        <time>2020-08-07T09:58:23Z</time>
      </trkpt>
      <trkpt lat="42.5579040" lon="-8.8940550">
        <ele>2.0</ele>
        <time>2020-08-07T09:58:24Z</time>
      </trkpt>
      <trkpt lat="42.5578720" lon="-8.8940700">
        <ele>2.2</ele>
        <time>2020-08-07T09:58:25Z</time>
      </trkpt>
      <trkpt lat="42.5578720" lon="-8.8940700">
        <ele>2.0</ele>
        <time>2020-08-07T09:58:26Z</time>
      </trkpt>
      <trkpt lat="42.5578430" lon="-8.8940830">
        <ele>2.0</ele>
        <time>2020-08-07T09:58:27Z</time>
      </trkpt>
      <trkpt lat="42.5578430" lon="-8.8940830">
        <ele>2.0</ele>
        <time>2020-08-07T09:58:28Z</time>
      </trkpt>
      <trkpt lat="42.5578140" lon="-8.8941000">
        <ele>2.0</ele>
        <time>2020-08-07T09:58:29Z</time>
      </trkpt>
      <trkpt lat="42.5578140" lon="-8.8941000">
        <ele>2.0</ele>
        <time>2020-08-07T09:58:30Z</time>
      </trkpt>
      <trkpt lat="42.5577860" lon="-8.8941150">
        <ele>2.0</ele>
        <time>2020-08-07T09:58:31Z</time>
      </trkpt>
      <trkpt lat="42.5577860" lon="-8.8941150">
        <ele>2.0</ele>
        <time>2020-08-07T09:58:32Z</time>
      </trkpt>
      <trkpt lat="42.5577570" lon="-8.8941250">
        <ele>2.2</ele>
        <time>2020-08-07T09:58:33Z</time>
      </trkpt>
      <trkpt lat="42.5577570" lon="-8.8941250">
        <ele>2.2</ele>
        <time>2020-08-07T09:58:34Z</time>
      </trkpt>
      <trkpt lat="42.5577310" lon="-8.8941340">
        <ele>2.8</ele>
        <time>2020-08-07T09:58:35Z</time>
      </trkpt>
      <trkpt lat="42.5577310" lon="-8.8941340">
        <ele>2.8</ele>
        <time>2020-08-07T09:58:36Z</time>
      </trkpt>
      <trkpt lat="42.5577060" lon="-8.8941380">
        <ele>3.0</ele>
        <time>2020-08-07T09:58:37Z</time>
      </trkpt>
      <trkpt lat="42.5577060" lon="-8.8941380">
        <ele>2.8</ele>
        <time>2020-08-07T09:58:38Z</time>
      </trkpt>
      <trkpt lat="42.5576770" lon="-8.8941470">
        <ele>3.0</ele>
        <time>2020-08-07T09:58:39Z</time>
      </trkpt>
      <trkpt lat="42.5576770" lon="-8.8941470">
        <ele>2.8</ele>
        <time>2020-08-07T09:58:40Z</time>
      </trkpt>
      <trkpt lat="42.5576510" lon="-8.8941550">
        <ele>3.0</ele>
        <time>2020-08-07T09:58:41Z</time>
      </trkpt>
      <trkpt lat="42.5576510" lon="-8.8941550">
        <ele>3.0</ele>
        <time>2020-08-07T09:58:42Z</time>
      </trkpt>
      <trkpt lat="42.5576260" lon="-8.8941620">
        <ele>2.8</ele>
        <time>2020-08-07T09:58:43Z</time>
      </trkpt>
      <trkpt lat="42.5576260" lon="-8.8941620">
        <ele>2.6</ele>
        <time>2020-08-07T09:58:44Z</time>
      </trkpt>
      <trkpt lat="42.5575940" lon="-8.8941670">
        <ele>2.2</ele>
        <time>2020-08-07T09:58:45Z</time>
      </trkpt>
      <trkpt lat="42.5575940" lon="-8.8941670">
        <ele>2.0</ele>
        <time>2020-08-07T09:58:46Z</time>
      </trkpt>
      <trkpt lat="42.5575710" lon="-8.8941700">
        <ele>2.0</ele>
        <time>2020-08-07T09:58:47Z</time>
      </trkpt>
      <trkpt lat="42.5575710" lon="-8.8941700">
        <ele>2.4</ele>
        <time>2020-08-07T09:58:48Z</time>
      </trkpt>
      <trkpt lat="42.5575460" lon="-8.8941680">
        <ele>2.6</ele>
        <time>2020-08-07T09:58:49Z</time>
      </trkpt>
      <trkpt lat="42.5575460" lon="-8.8941680">
        <ele>3.0</ele>
        <time>2020-08-07T09:58:50Z</time>
      </trkpt>
      <trkpt lat="42.5575170" lon="-8.8941670">
        <ele>3.2</ele>
        <time>2020-08-07T09:58:51Z</time>
      </trkpt>
      <trkpt lat="42.5574980" lon="-8.8941670">
        <ele>3.4</ele>
        <time>2020-08-07T09:58:52Z</time>
      </trkpt>
      <trkpt lat="42.5574980" lon="-8.8941670">
        <ele>3.4</ele>
        <time>2020-08-07T09:58:53Z</time>
      </trkpt>
      <trkpt lat="42.5574690" lon="-8.8941740">
        <ele>3.6</ele>
        <time>2020-08-07T09:58:54Z</time>
      </trkpt>
      <trkpt lat="42.5574690" lon="-8.8941740">
        <ele>3.4</ele>
        <time>2020-08-07T09:58:55Z</time>
      </trkpt>
      <trkpt lat="42.5574430" lon="-8.8941820">
        <ele>3.6</ele>
        <time>2020-08-07T09:58:56Z</time>
      </trkpt>
      <trkpt lat="42.5574430" lon="-8.8941820">
        <ele>3.6</ele>
        <time>2020-08-07T09:58:57Z</time>
      </trkpt>
      <trkpt lat="42.5574240" lon="-8.8941900">
        <ele>3.6</ele>
        <time>2020-08-07T09:58:58Z</time>
      </trkpt>
      <trkpt lat="42.5574240" lon="-8.8941900">
        <ele>3.8</ele>
        <time>2020-08-07T09:58:59Z</time>
      </trkpt>
      <trkpt lat="42.5573980" lon="-8.8942020">
        <ele>3.8</ele>
        <time>2020-08-07T09:59:00Z</time>
      </trkpt>
      <trkpt lat="42.5573980" lon="-8.8942020">
        <ele>3.8</ele>
        <time>2020-08-07T09:59:01Z</time>
      </trkpt>
      <trkpt lat="42.5573760" lon="-8.8942170">
        <ele>3.4</ele>
        <time>2020-08-07T09:59:02Z</time>
      </trkpt>
      <trkpt lat="42.5573760" lon="-8.8942170">
        <ele>3.6</ele>
        <time>2020-08-07T09:59:03Z</time>
      </trkpt>
      <trkpt lat="42.5573500" lon="-8.8942320">
        <ele>3.8</ele>
        <time>2020-08-07T09:59:04Z</time>
      </trkpt>
      <trkpt lat="42.5573500" lon="-8.8942320">
        <ele>3.8</ele>
        <time>2020-08-07T09:59:05Z</time>
      </trkpt>
      <trkpt lat="42.5573250" lon="-8.8942520">
        <ele>3.6</ele>
        <time>2020-08-07T09:59:06Z</time>
      </trkpt>
      <trkpt lat="42.5573250" lon="-8.8942520">
        <ele>3.4</ele>
        <time>2020-08-07T09:59:07Z</time>
      </trkpt>
      <trkpt lat="42.5572990" lon="-8.8942680">
        <ele>3.0</ele>
        <time>2020-08-07T09:59:08Z</time>
      </trkpt>
      <trkpt lat="42.5572990" lon="-8.8942680">
        <ele>2.6</ele>
        <time>2020-08-07T09:59:09Z</time>
      </trkpt>
      <trkpt lat="42.5572740" lon="-8.8942830">
        <ele>2.4</ele>
        <time>2020-08-07T09:59:10Z</time>
      </trkpt>
      <trkpt lat="42.5572740" lon="-8.8942830">
        <ele>2.4</ele>
        <time>2020-08-07T09:59:11Z</time>
      </trkpt>
      <trkpt lat="42.5572450" lon="-8.8942940">
        <ele>2.6</ele>
        <time>2020-08-07T09:59:12Z</time>
      </trkpt>
      <trkpt lat="42.5572450" lon="-8.8942940">
        <ele>2.6</ele>
        <time>2020-08-07T09:59:13Z</time>
      </trkpt>
      <trkpt lat="42.5572160" lon="-8.8943020">
        <ele>2.8</ele>
        <time>2020-08-07T09:59:14Z</time>
      </trkpt>
      <trkpt lat="42.5572160" lon="-8.8943020">
        <ele>2.8</ele>
        <time>2020-08-07T09:59:15Z</time>
      </trkpt>
      <trkpt lat="42.5571900" lon="-8.8943060">
        <ele>2.8</ele>
        <time>2020-08-07T09:59:16Z</time>
      </trkpt>
      <trkpt lat="42.5571900" lon="-8.8943060">
        <ele>2.8</ele>
        <time>2020-08-07T09:59:17Z</time>
      </trkpt>
      <trkpt lat="42.5571650" lon="-8.8943060">
        <ele>2.2</ele>
        <time>2020-08-07T09:59:18Z</time>
      </trkpt>
      <trkpt lat="42.5571650" lon="-8.8943060">
        <ele>2.0</ele>
        <time>2020-08-07T09:59:19Z</time>
      </trkpt>
      <trkpt lat="42.5571360" lon="-8.8943060">
        <ele>2.0</ele>
        <time>2020-08-07T09:59:20Z</time>
      </trkpt>
      <trkpt lat="42.5571360" lon="-8.8943060">
        <ele>2.0</ele>
        <time>2020-08-07T09:59:21Z</time>
      </trkpt>
      <trkpt lat="42.5571100" lon="-8.8943020">
        <ele>1.6</ele>
        <time>2020-08-07T09:59:22Z</time>
      </trkpt>
      <trkpt lat="42.5571100" lon="-8.8943020">
        <ele>1.6</ele>
        <time>2020-08-07T09:59:23Z</time>
      </trkpt>
      <trkpt lat="42.5570820" lon="-8.8943030">
        <ele>1.8</ele>
        <time>2020-08-07T09:59:24Z</time>
      </trkpt>
      <trkpt lat="42.5570820" lon="-8.8943030">
        <ele>1.6</ele>
        <time>2020-08-07T09:59:25Z</time>
      </trkpt>
      <trkpt lat="42.5570590" lon="-8.8943030">
        <ele>1.6</ele>
        <time>2020-08-07T09:59:26Z</time>
      </trkpt>
      <trkpt lat="42.5570590" lon="-8.8943030">
        <ele>1.2</ele>
        <time>2020-08-07T09:59:27Z</time>
      </trkpt>
      <trkpt lat="42.5570340" lon="-8.8943060">
        <ele>1.4</ele>
        <time>2020-08-07T09:59:28Z</time>
      </trkpt>
      <trkpt lat="42.5570340" lon="-8.8943060">
        <ele>1.4</ele>
        <time>2020-08-07T09:59:29Z</time>
      </trkpt>
      <trkpt lat="42.5570110" lon="-8.8943060">
        <ele>1.2</ele>
        <time>2020-08-07T09:59:30Z</time>
      </trkpt>
      <trkpt lat="42.5570110" lon="-8.8943060">
        <ele>1.2</ele>
        <time>2020-08-07T09:59:31Z</time>
      </trkpt>
      <trkpt lat="42.5569790" lon="-8.8943100">
        <ele>1.0</ele>
        <time>2020-08-07T09:59:32Z</time>
      </trkpt>
      <trkpt lat="42.5569790" lon="-8.8943100">
        <ele>1.0</ele>
        <time>2020-08-07T09:59:33Z</time>
      </trkpt>
      <trkpt lat="42.5569540" lon="-8.8943140">
        <ele>1.0</ele>
        <time>2020-08-07T09:59:34Z</time>
      </trkpt>
      <trkpt lat="42.5569540" lon="-8.8943140">
        <ele>1.2</ele>
        <time>2020-08-07T09:59:35Z</time>
      </trkpt>
      <trkpt lat="42.5569220" lon="-8.8943170">
        <ele>1.0</ele>
        <time>2020-08-07T09:59:36Z</time>
      </trkpt>
      <trkpt lat="42.5569220" lon="-8.8943170">
        <ele>1.0</ele>
        <time>2020-08-07T09:59:37Z</time>
      </trkpt>
      <trkpt lat="42.5568930" lon="-8.8943180">
        <ele>1.0</ele>
        <time>2020-08-07T09:59:38Z</time>
      </trkpt>
      <trkpt lat="42.5568930" lon="-8.8943180">
        <ele>0.8</ele>
        <time>2020-08-07T09:59:39Z</time>
      </trkpt>
      <trkpt lat="42.5568610" lon="-8.8943220">
        <ele>1.0</ele>
        <time>2020-08-07T09:59:40Z</time>
      </trkpt>
      <trkpt lat="42.5568610" lon="-8.8943220">
        <ele>1.2</ele>
        <time>2020-08-07T09:59:41Z</time>
      </trkpt>
      <trkpt lat="42.5568320" lon="-8.8943230">
        <ele>1.0</ele>
        <time>2020-08-07T09:59:42Z</time>
      </trkpt>
      <trkpt lat="42.5568130" lon="-8.8943260">
        <ele>0.6</ele>
        <time>2020-08-07T09:59:43Z</time>
      </trkpt>
      <trkpt lat="42.5568130" lon="-8.8943260">
        <ele>0.6</ele>
        <time>2020-08-07T09:59:44Z</time>
      </trkpt>
      <trkpt lat="42.5567840" lon="-8.8943280">
        <ele>0.6</ele>
        <time>2020-08-07T09:59:45Z</time>
      </trkpt>
      <trkpt lat="42.5567840" lon="-8.8943280">
        <ele>0.6</ele>
        <time>2020-08-07T09:59:46Z</time>
      </trkpt>
      <trkpt lat="42.5567550" lon="-8.8943320">
        <ele>0.6</ele>
        <time>2020-08-07T09:59:47Z</time>
      </trkpt>
      <trkpt lat="42.5567550" lon="-8.8943320">
        <ele>0.6</ele>
        <time>2020-08-07T09:59:48Z</time>
      </trkpt>
      <trkpt lat="42.5567230" lon="-8.8943300">
        <ele>0.4</ele>
        <time>2020-08-07T09:59:49Z</time>
      </trkpt>
      <trkpt lat="42.5567230" lon="-8.8943300">
        <ele>0.6</ele>
        <time>2020-08-07T09:59:50Z</time>
      </trkpt>
      <trkpt lat="42.5567010" lon="-8.8943300">
        <ele>0.4</ele>
        <time>2020-08-07T09:59:51Z</time>
      </trkpt>
      <trkpt lat="42.5566820" lon="-8.8943320">
        <ele>0.4</ele>
        <time>2020-08-07T09:59:52Z</time>
      </trkpt>
      <trkpt lat="42.5566820" lon="-8.8943320">
        <ele>0.4</ele>
        <time>2020-08-07T09:59:53Z</time>
      </trkpt>
      <trkpt lat="42.5566530" lon="-8.8943280">
        <ele>0.4</ele>
        <time>2020-08-07T09:59:54Z</time>
      </trkpt>
      <trkpt lat="42.5566530" lon="-8.8943280">
        <ele>0.2</ele>
        <time>2020-08-07T09:59:55Z</time>
      </trkpt>
      <trkpt lat="42.5566210" lon="-8.8943260">
        <ele>0.0</ele>
        <time>2020-08-07T09:59:56Z</time>
      </trkpt>
      <trkpt lat="42.5566210" lon="-8.8943260">
        <ele>-0.2</ele>
        <time>2020-08-07T09:59:57Z</time>
      </trkpt>
      <trkpt lat="42.5565950" lon="-8.8943230">
        <ele>-0.2</ele>
        <time>2020-08-07T09:59:58Z</time>
      </trkpt>
      <trkpt lat="42.5565950" lon="-8.8943230">
        <ele>-0.4</ele>
        <time>2020-08-07T09:59:59Z</time>
      </trkpt>
      <trkpt lat="42.5565630" lon="-8.8943230">
        <ele>-0.6</ele>
        <time>2020-08-07T10:00:00Z</time>
      </trkpt>
      <trkpt lat="42.5565630" lon="-8.8943230">
        <ele>-0.2</ele>
        <time>2020-08-07T10:00:01Z</time>
      </trkpt>
      <trkpt lat="42.5565340" lon="-8.8943180">
        <ele>-0.2</ele>
        <time>2020-08-07T10:00:02Z</time>
      </trkpt>
      <trkpt lat="42.5565340" lon="-8.8943180">
        <ele>-0.2</ele>
        <time>2020-08-07T10:00:03Z</time>
      </trkpt>
      <trkpt lat="42.5565020" lon="-8.8943120">
        <ele>-0.2</ele>
        <time>2020-08-07T10:00:04Z</time>
      </trkpt>
      <trkpt lat="42.5565020" lon="-8.8943120">
        <ele>-0.4</ele>
        <time>2020-08-07T10:00:05Z</time>
      </trkpt>
      <trkpt lat="42.5564770" lon="-8.8943100">
        <ele>-0.6</ele>
        <time>2020-08-07T10:00:06Z</time>
      </trkpt>
      <trkpt lat="42.5564770" lon="-8.8943100">
        <ele>-0.6</ele>
        <time>2020-08-07T10:00:07Z</time>
      </trkpt>
      <trkpt lat="42.5564510" lon="-8.8943120">
        <ele>-0.6</ele>
        <time>2020-08-07T10:00:08Z</time>
      </trkpt>
      <trkpt lat="42.5564510" lon="-8.8943120">
        <ele>-0.6</ele>
        <time>2020-08-07T10:00:09Z</time>
      </trkpt>
      <trkpt lat="42.5564220" lon="-8.8943140">
        <ele>-1.0</ele>
        <time>2020-08-07T10:00:10Z</time>
      </trkpt>
      <trkpt lat="42.5564220" lon="-8.8943140">
        <ele>-0.6</ele>
        <time>2020-08-07T10:00:11Z</time>
      </trkpt>
      <trkpt lat="42.5563940" lon="-8.8943190">
        <ele>-0.6</ele>
        <time>2020-08-07T10:00:12Z</time>
      </trkpt>
      <trkpt lat="42.5563940" lon="-8.8943190">
        <ele>-0.4</ele>
        <time>2020-08-07T10:00:13Z</time>
      </trkpt>
      <trkpt lat="42.5563620" lon="-8.8943300">
        <ele>-0.2</ele>
        <time>2020-08-07T10:00:14Z</time>
      </trkpt>
      <trkpt lat="42.5563620" lon="-8.8943300">
        <ele>0.0</ele>
        <time>2020-08-07T10:00:15Z</time>
      </trkpt>
      <trkpt lat="42.5563360" lon="-8.8943420">
        <ele>0.0</ele>
        <time>2020-08-07T10:00:16Z</time>
      </trkpt>
      <trkpt lat="42.5563360" lon="-8.8943420">
        <ele>0.0</ele>
        <time>2020-08-07T10:00:17Z</time>
      </trkpt>
      <trkpt lat="42.5563070" lon="-8.8943580">
        <ele>0.0</ele>
        <time>2020-08-07T10:00:18Z</time>
      </trkpt>
      <trkpt lat="42.5563070" lon="-8.8943580">
        <ele>0.0</ele>
        <time>2020-08-07T10:00:19Z</time>
      </trkpt>
      <trkpt lat="42.5562820" lon="-8.8943800">
        <ele>0.0</ele>
        <time>2020-08-07T10:00:20Z</time>
      </trkpt>
      <trkpt lat="42.5562820" lon="-8.8943800">
        <ele>0.2</ele>
        <time>2020-08-07T10:00:21Z</time>
      </trkpt>
      <trkpt lat="42.5562590" lon="-8.8944060">
        <ele>0.2</ele>
        <time>2020-08-07T10:00:22Z</time>
      </trkpt>
      <trkpt lat="42.5562590" lon="-8.8944060">
        <ele>0.0</ele>
        <time>2020-08-07T10:00:23Z</time>
      </trkpt>
      <trkpt lat="42.5562400" lon="-8.8944370">
        <ele>-0.2</ele>
        <time>2020-08-07T10:00:24Z</time>
      </trkpt>
      <trkpt lat="42.5562400" lon="-8.8944370">
        <ele>0.0</ele>
        <time>2020-08-07T10:00:25Z</time>
      </trkpt>
      <trkpt lat="42.5562140" lon="-8.8944680">
        <ele>0.0</ele>
        <time>2020-08-07T10:00:26Z</time>
      </trkpt>
      <trkpt lat="42.5562140" lon="-8.8944680">
        <ele>0.2</ele>
        <time>2020-08-07T10:00:27Z</time>
      </trkpt>
      <trkpt lat="42.5561860" lon="-8.8944950">
        <ele>0.2</ele>
        <time>2020-08-07T10:00:28Z</time>
      </trkpt>
      <trkpt lat="42.5561860" lon="-8.8944950">
        <ele>0.4</ele>
        <time>2020-08-07T10:00:29Z</time>
      </trkpt>
      <trkpt lat="42.5561600" lon="-8.8945170">
        <ele>0.2</ele>
        <time>2020-08-07T10:00:30Z</time>
      </trkpt>
      <trkpt lat="42.5561600" lon="-8.8945170">
        <ele>0.0</ele>
        <time>2020-08-07T10:00:31Z</time>
      </trkpt>
      <trkpt lat="42.5561380" lon="-8.8945400">
        <ele>0.4</ele>
        <time>2020-08-07T10:00:32Z</time>
      </trkpt>
      <trkpt lat="42.5561380" lon="-8.8945400">
        <ele>0.6</ele>
        <time>2020-08-07T10:00:33Z</time>
      </trkpt>
      <trkpt lat="42.5561090" lon="-8.8945580">
        <ele>1.2</ele>
        <time>2020-08-07T10:00:34Z</time>
      </trkpt>
      <trkpt lat="42.5561090" lon="-8.8945580">
        <ele>1.2</ele>
        <time>2020-08-07T10:00:35Z</time>
      </trkpt>
      <trkpt lat="42.5560860" lon="-8.8945700">
        <ele>1.2</ele>
        <time>2020-08-07T10:00:36Z</time>
      </trkpt>
      <trkpt lat="42.5560860" lon="-8.8945700">
        <ele>2.2</ele>
        <time>2020-08-07T10:00:37Z</time>
      </trkpt>
      <trkpt lat="42.5560580" lon="-8.8945820">
        <ele>2.2</ele>
        <time>2020-08-07T10:00:38Z</time>
      </trkpt>
      <trkpt lat="42.5560580" lon="-8.8945820">
        <ele>2.0</ele>
        <time>2020-08-07T10:00:39Z</time>
      </trkpt>
      <trkpt lat="42.5560290" lon="-8.8945940">
        <ele>1.6</ele>
        <time>2020-08-07T10:00:40Z</time>
      </trkpt>
      <trkpt lat="42.5560290" lon="-8.8945940">
        <ele>1.6</ele>
        <time>2020-08-07T10:00:41Z</time>
      </trkpt>
      <trkpt lat="42.5560030" lon="-8.8946020">
        <ele>1.4</ele>
        <time>2020-08-07T10:00:42Z</time>
      </trkpt>
      <trkpt lat="42.5560030" lon="-8.8946020">
        <ele>1.6</ele>
        <time>2020-08-07T10:00:43Z</time>
      </trkpt>
      <trkpt lat="42.5559740" lon="-8.8946060">
        <ele>1.4</ele>
        <time>2020-08-07T10:00:44Z</time>
      </trkpt>
      <trkpt lat="42.5559740" lon="-8.8946060">
        <ele>1.6</ele>
        <time>2020-08-07T10:00:45Z</time>
      </trkpt>
      <trkpt lat="42.5559460" lon="-8.8946140">
        <ele>1.4</ele>
        <time>2020-08-07T10:00:46Z</time>
      </trkpt>
      <trkpt lat="42.5559460" lon="-8.8946140">
        <ele>1.6</ele>
        <time>2020-08-07T10:00:47Z</time>
      </trkpt>
      <trkpt lat="42.5559140" lon="-8.8946250">
        <ele>1.4</ele>
        <time>2020-08-07T10:00:48Z</time>
      </trkpt>
      <trkpt lat="42.5559140" lon="-8.8946250">
        <ele>1.4</ele>
        <time>2020-08-07T10:00:49Z</time>
      </trkpt>
      <trkpt lat="42.5558880" lon="-8.8946350">
        <ele>1.4</ele>
        <time>2020-08-07T10:00:50Z</time>
      </trkpt>
      <trkpt lat="42.5558880" lon="-8.8946350">
        <ele>1.2</ele>
        <time>2020-08-07T10:00:51Z</time>
      </trkpt>
      <trkpt lat="42.5558590" lon="-8.8946490">
        <ele>1.4</ele>
        <time>2020-08-07T10:00:52Z</time>
      </trkpt>
      <trkpt lat="42.5558590" lon="-8.8946490">
        <ele>1.8</ele>
        <time>2020-08-07T10:00:53Z</time>
      </trkpt>
      <trkpt lat="42.5558270" lon="-8.8946620">
        <ele>2.0</ele>
        <time>2020-08-07T10:00:54Z</time>
      </trkpt>
      <trkpt lat="42.5558270" lon="-8.8946620">
        <ele>1.8</ele>
        <time>2020-08-07T10:00:55Z</time>
      </trkpt>
      <trkpt lat="42.5557980" lon="-8.8946710">
        <ele>1.8</ele>
        <time>2020-08-07T10:00:56Z</time>
      </trkpt>
      <trkpt lat="42.5557980" lon="-8.8946710">
        <ele>1.8</ele>
        <time>2020-08-07T10:00:57Z</time>
      </trkpt>
      <trkpt lat="42.5557760" lon="-8.8946910">
        <ele>2.0</ele>
        <time>2020-08-07T10:00:58Z</time>
      </trkpt>
      <trkpt lat="42.5557760" lon="-8.8946910">
        <ele>1.8</ele>
        <time>2020-08-07T10:00:59Z</time>
      </trkpt>
      <trkpt lat="42.5557440" lon="-8.8947090">
        <ele>2.2</ele>
        <time>2020-08-07T10:01:00Z</time>
      </trkpt>
      <trkpt lat="42.5557440" lon="-8.8947090">
        <ele>1.8</ele>
        <time>2020-08-07T10:01:01Z</time>
      </trkpt>
      <trkpt lat="42.5557220" lon="-8.8947250">
        <ele>2.0</ele>
        <time>2020-08-07T10:01:02Z</time>
      </trkpt>
      <trkpt lat="42.5557220" lon="-8.8947250">
        <ele>2.2</ele>
        <time>2020-08-07T10:01:03Z</time>
      </trkpt>
      <trkpt lat="42.5556960" lon="-8.8947400">
        <ele>2.4</ele>
        <time>2020-08-07T10:01:04Z</time>
      </trkpt>
      <trkpt lat="42.5556960" lon="-8.8947400">
        <ele>2.4</ele>
        <time>2020-08-07T10:01:05Z</time>
      </trkpt>
      <trkpt lat="42.5556640" lon="-8.8947510">
        <ele>2.6</ele>
        <time>2020-08-07T10:01:06Z</time>
      </trkpt>
      <trkpt lat="42.5556640" lon="-8.8947510">
        <ele>2.4</ele>
        <time>2020-08-07T10:01:07Z</time>
      </trkpt>
      <trkpt lat="42.5556320" lon="-8.8947620">
        <ele>2.2</ele>
        <time>2020-08-07T10:01:08Z</time>
      </trkpt>
      <trkpt lat="42.5556320" lon="-8.8947620">
        <ele>2.2</ele>
        <time>2020-08-07T10:01:09Z</time>
      </trkpt>
      <trkpt lat="42.5556060" lon="-8.8947700">
        <ele>1.8</ele>
        <time>2020-08-07T10:01:10Z</time>
      </trkpt>
      <trkpt lat="42.5556060" lon="-8.8947700">
        <ele>1.8</ele>
        <time>2020-08-07T10:01:11Z</time>
      </trkpt>
      <trkpt lat="42.5555780" lon="-8.8947700">
        <ele>1.8</ele>
        <time>2020-08-07T10:01:12Z</time>
      </trkpt>
      <trkpt lat="42.5555780" lon="-8.8947700">
        <ele>1.6</ele>
        <time>2020-08-07T10:01:13Z</time>
      </trkpt>
      <trkpt lat="42.5555460" lon="-8.8947740">
        <ele>1.6</ele>
        <time>2020-08-07T10:01:14Z</time>
      </trkpt>
      <trkpt lat="42.5555460" lon="-8.8947740">
        <ele>2.0</ele>
        <time>2020-08-07T10:01:15Z</time>
      </trkpt>
      <trkpt lat="42.5555170" lon="-8.8947780">
        <ele>2.0</ele>
        <time>2020-08-07T10:01:16Z</time>
      </trkpt>
      <trkpt lat="42.5555170" lon="-8.8947780">
        <ele>2.2</ele>
        <time>2020-08-07T10:01:17Z</time>
      </trkpt>
      <trkpt lat="42.5554850" lon="-8.8947870">
        <ele>2.2</ele>
        <time>2020-08-07T10:01:18Z</time>
      </trkpt>
      <trkpt lat="42.5554850" lon="-8.8947870">
        <ele>2.4</ele>
        <time>2020-08-07T10:01:19Z</time>
      </trkpt>
      <trkpt lat="42.5554620" lon="-8.8947980">
        <ele>2.6</ele>
        <time>2020-08-07T10:01:20Z</time>
      </trkpt>
      <trkpt lat="42.5554620" lon="-8.8947980">
        <ele>2.6</ele>
        <time>2020-08-07T10:01:21Z</time>
      </trkpt>
      <trkpt lat="42.5554400" lon="-8.8948070">
        <ele>2.4</ele>
        <time>2020-08-07T10:01:22Z</time>
      </trkpt>
      <trkpt lat="42.5554400" lon="-8.8948070">
        <ele>2.6</ele>
        <time>2020-08-07T10:01:23Z</time>
      </trkpt>
      <trkpt lat="42.5554110" lon="-8.8948180">
        <ele>2.8</ele>
        <time>2020-08-07T10:01:24Z</time>
      </trkpt>
      <trkpt lat="42.5554110" lon="-8.8948180">
        <ele>3.0</ele>
        <time>2020-08-07T10:01:25Z</time>
      </trkpt>
      <trkpt lat="42.5553820" lon="-8.8948290">
        <ele>2.8</ele>
        <time>2020-08-07T10:01:26Z</time>
      </trkpt>
      <trkpt lat="42.5553820" lon="-8.8948290">
        <ele>3.4</ele>
        <time>2020-08-07T10:01:27Z</time>
      </trkpt>
      <trkpt lat="42.5553540" lon="-8.8948380">
        <ele>3.4</ele>
        <time>2020-08-07T10:01:28Z</time>
      </trkpt>
      <trkpt lat="42.5553540" lon="-8.8948380">
        <ele>3.6</ele>
        <time>2020-08-07T10:01:29Z</time>
      </trkpt>
      <trkpt lat="42.5553280" lon="-8.8948470">
        <ele>3.6</ele>
        <time>2020-08-07T10:01:30Z</time>
      </trkpt>
      <trkpt lat="42.5553280" lon="-8.8948470">
        <ele>3.4</ele>
        <time>2020-08-07T10:01:31Z</time>
      </trkpt>
      <trkpt lat="42.5553020" lon="-8.8948520">
        <ele>3.2</ele>
        <time>2020-08-07T10:01:32Z</time>
      </trkpt>
      <trkpt lat="42.5553020" lon="-8.8948520">
        <ele>2.8</ele>
        <time>2020-08-07T10:01:33Z</time>
      </trkpt>
      <trkpt lat="42.5552700" lon="-8.8948580">
        <ele>2.8</ele>
        <time>2020-08-07T10:01:34Z</time>
      </trkpt>
      <trkpt lat="42.5552700" lon="-8.8948580">
        <ele>2.6</ele>
        <time>2020-08-07T10:01:35Z</time>
      </trkpt>
      <trkpt lat="42.5552420" lon="-8.8948620">
        <ele>2.8</ele>
        <time>2020-08-07T10:01:36Z</time>
      </trkpt>
      <trkpt lat="42.5552420" lon="-8.8948620">
        <ele>2.6</ele>
        <time>2020-08-07T10:01:37Z</time>
      </trkpt>
      <trkpt lat="42.5552100" lon="-8.8948680">
        <ele>2.4</ele>
        <time>2020-08-07T10:01:38Z</time>
      </trkpt>
      <trkpt lat="42.5551920" lon="-8.8948740">
        <ele>2.4</ele>
        <time>2020-08-07T10:01:39Z</time>
      </trkpt>
      <trkpt lat="42.5551740" lon="-8.8948800">
        <ele>2.4</ele>
        <time>2020-08-07T10:01:40Z</time>
      </trkpt>
      <trkpt lat="42.5551740" lon="-8.8948800">
        <ele>2.2</ele>
        <time>2020-08-07T10:01:41Z</time>
      </trkpt>
      <trkpt lat="42.5551490" lon="-8.8948970">
        <ele>2.4</ele>
        <time>2020-08-07T10:01:42Z</time>
      </trkpt>
      <trkpt lat="42.5551490" lon="-8.8948970">
        <ele>2.0</ele>
        <time>2020-08-07T10:01:43Z</time>
      </trkpt>
      <trkpt lat="42.5551260" lon="-8.8949140">
        <ele>2.2</ele>
        <time>2020-08-07T10:01:44Z</time>
      </trkpt>
      <trkpt lat="42.5551260" lon="-8.8949140">
        <ele>2.2</ele>
        <time>2020-08-07T10:01:45Z</time>
      </trkpt>
      <trkpt lat="42.5551010" lon="-8.8949400">
        <ele>2.4</ele>
        <time>2020-08-07T10:01:46Z</time>
      </trkpt>
      <trkpt lat="42.5551010" lon="-8.8949400">
        <ele>2.4</ele>
        <time>2020-08-07T10:01:47Z</time>
      </trkpt>
      <trkpt lat="42.5550690" lon="-8.8949620">
        <ele>2.6</ele>
        <time>2020-08-07T10:01:48Z</time>
      </trkpt>
      <trkpt lat="42.5550690" lon="-8.8949620">
        <ele>2.4</ele>
        <time>2020-08-07T10:01:49Z</time>
      </trkpt>
      <trkpt lat="42.5550460" lon="-8.8949830">
        <ele>2.6</ele>
        <time>2020-08-07T10:01:50Z</time>
      </trkpt>
      <trkpt lat="42.5550460" lon="-8.8949830">
        <ele>2.4</ele>
        <time>2020-08-07T10:01:51Z</time>
      </trkpt>
      <trkpt lat="42.5550240" lon="-8.8950080">
        <ele>2.4</ele>
        <time>2020-08-07T10:01:52Z</time>
      </trkpt>
      <trkpt lat="42.5550240" lon="-8.8950080">
        <ele>2.0</ele>
        <time>2020-08-07T10:01:53Z</time>
      </trkpt>
      <trkpt lat="42.5550020" lon="-8.8950300">
        <ele>1.8</ele>
        <time>2020-08-07T10:01:54Z</time>
      </trkpt>
      <trkpt lat="42.5550020" lon="-8.8950300">
        <ele>2.2</ele>
        <time>2020-08-07T10:01:55Z</time>
      </trkpt>
      <trkpt lat="42.5549730" lon="-8.8950460">
        <ele>2.0</ele>
        <time>2020-08-07T10:01:56Z</time>
      </trkpt>
      <trkpt lat="42.5549730" lon="-8.8950460">
        <ele>2.4</ele>
        <time>2020-08-07T10:01:57Z</time>
      </trkpt>
      <trkpt lat="42.5549540" lon="-8.8950580">
        <ele>2.4</ele>
        <time>2020-08-07T10:01:58Z</time>
      </trkpt>
      <trkpt lat="42.5549540" lon="-8.8950580">
        <ele>2.8</ele>
        <time>2020-08-07T10:01:59Z</time>
      </trkpt>
      <trkpt lat="42.5549250" lon="-8.8950660">
        <ele>2.4</ele>
        <time>2020-08-07T10:02:00Z</time>
      </trkpt>
      <trkpt lat="42.5549250" lon="-8.8950660">
        <ele>2.6</ele>
        <time>2020-08-07T10:02:01Z</time>
      </trkpt>
      <trkpt lat="42.5548960" lon="-8.8950720">
        <ele>2.6</ele>
        <time>2020-08-07T10:02:02Z</time>
      </trkpt>
      <trkpt lat="42.5548960" lon="-8.8950720">
        <ele>3.0</ele>
        <time>2020-08-07T10:02:03Z</time>
      </trkpt>
      <trkpt lat="42.5548670" lon="-8.8950800">
        <ele>3.0</ele>
        <time>2020-08-07T10:02:04Z</time>
      </trkpt>
      <trkpt lat="42.5548670" lon="-8.8950800">
        <ele>3.2</ele>
        <time>2020-08-07T10:02:05Z</time>
      </trkpt>
      <trkpt lat="42.5548420" lon="-8.8950900">
        <ele>3.0</ele>
        <time>2020-08-07T10:02:06Z</time>
      </trkpt>
      <trkpt lat="42.5548420" lon="-8.8950900">
        <ele>3.4</ele>
        <time>2020-08-07T10:02:07Z</time>
      </trkpt>
      <trkpt lat="42.5548100" lon="-8.8951020">
        <ele>3.6</ele>
        <time>2020-08-07T10:02:08Z</time>
      </trkpt>
      <trkpt lat="42.5548100" lon="-8.8951020">
        <ele>3.8</ele>
        <time>2020-08-07T10:02:09Z</time>
      </trkpt>
      <trkpt lat="42.5547840" lon="-8.8951100">
        <ele>3.2</ele>
        <time>2020-08-07T10:02:10Z</time>
      </trkpt>
      <trkpt lat="42.5547840" lon="-8.8951100">
        <ele>3.0</ele>
        <time>2020-08-07T10:02:11Z</time>
      </trkpt>
      <trkpt lat="42.5547520" lon="-8.8951200">
        <ele>3.2</ele>
        <time>2020-08-07T10:02:12Z</time>
      </trkpt>
      <trkpt lat="42.5547520" lon="-8.8951200">
        <ele>3.4</ele>
        <time>2020-08-07T10:02:13Z</time>
      </trkpt>
      <trkpt lat="42.5547230" lon="-8.8951300">
        <ele>3.6</ele>
        <time>2020-08-07T10:02:14Z</time>
      </trkpt>
      <trkpt lat="42.5547230" lon="-8.8951300">
        <ele>3.6</ele>
        <time>2020-08-07T10:02:15Z</time>
      </trkpt>
      <trkpt lat="42.5546980" lon="-8.8951330">
        <ele>3.8</ele>
        <time>2020-08-07T10:02:16Z</time>
      </trkpt>
      <trkpt lat="42.5546980" lon="-8.8951330">
        <ele>3.8</ele>
        <time>2020-08-07T10:02:17Z</time>
      </trkpt>
      <trkpt lat="42.5546720" lon="-8.8951350">
        <ele>3.6</ele>
        <time>2020-08-07T10:02:18Z</time>
      </trkpt>
      <trkpt lat="42.5546720" lon="-8.8951350">
        <ele>3.8</ele>
        <time>2020-08-07T10:02:19Z</time>
      </trkpt>
      <trkpt lat="42.5546430" lon="-8.8951350">
        <ele>3.6</ele>
        <time>2020-08-07T10:02:20Z</time>
      </trkpt>
      <trkpt lat="42.5546430" lon="-8.8951350">
        <ele>4.0</ele>
        <time>2020-08-07T10:02:21Z</time>
      </trkpt>
      <trkpt lat="42.5546180" lon="-8.8951430">
        <ele>3.8</ele>
        <time>2020-08-07T10:02:22Z</time>
      </trkpt>
      <trkpt lat="42.5546180" lon="-8.8951430">
        <ele>4.2</ele>
        <time>2020-08-07T10:02:23Z</time>
      </trkpt>
      <trkpt lat="42.5545890" lon="-8.8951520">
        <ele>4.0</ele>
        <time>2020-08-07T10:02:24Z</time>
      </trkpt>
      <trkpt lat="42.5545890" lon="-8.8951520">
        <ele>4.0</ele>
        <time>2020-08-07T10:02:25Z</time>
      </trkpt>
      <trkpt lat="42.5545630" lon="-8.8951600">
        <ele>3.8</ele>
        <time>2020-08-07T10:02:26Z</time>
      </trkpt>
      <trkpt lat="42.5545630" lon="-8.8951600">
        <ele>4.0</ele>
        <time>2020-08-07T10:02:27Z</time>
      </trkpt>
      <trkpt lat="42.5545310" lon="-8.8951700">
        <ele>4.0</ele>
        <time>2020-08-07T10:02:28Z</time>
      </trkpt>
      <trkpt lat="42.5545310" lon="-8.8951700">
        <ele>4.2</ele>
        <time>2020-08-07T10:02:29Z</time>
      </trkpt>
      <trkpt lat="42.5545060" lon="-8.8951770">
        <ele>3.6</ele>
        <time>2020-08-07T10:02:30Z</time>
      </trkpt>
      <trkpt lat="42.5545060" lon="-8.8951770">
        <ele>4.0</ele>
        <time>2020-08-07T10:02:31Z</time>
      </trkpt>
      <trkpt lat="42.5544740" lon="-8.8951820">
        <ele>3.6</ele>
        <time>2020-08-07T10:02:32Z</time>
      </trkpt>
      <trkpt lat="42.5544740" lon="-8.8951820">
        <ele>3.6</ele>
        <time>2020-08-07T10:02:33Z</time>
      </trkpt>
      <trkpt lat="42.5544480" lon="-8.8951860">
        <ele>3.2</ele>
        <time>2020-08-07T10:02:34Z</time>
      </trkpt>
      <trkpt lat="42.5544480" lon="-8.8951860">
        <ele>3.4</ele>
        <time>2020-08-07T10:02:35Z</time>
      </trkpt>
      <trkpt lat="42.5544160" lon="-8.8951930">
        <ele>3.4</ele>
        <time>2020-08-07T10:02:36Z</time>
      </trkpt>
      <trkpt lat="42.5544160" lon="-8.8951930">
        <ele>3.2</ele>
        <time>2020-08-07T10:02:37Z</time>
      </trkpt>
      <trkpt lat="42.5543870" lon="-8.8951990">
        <ele>3.2</ele>
        <time>2020-08-07T10:02:38Z</time>
      </trkpt>
      <trkpt lat="42.5543870" lon="-8.8951990">
        <ele>2.8</ele>
        <time>2020-08-07T10:02:39Z</time>
      </trkpt>
      <trkpt lat="42.5543550" lon="-8.8952030">
        <ele>2.6</ele>
        <time>2020-08-07T10:02:40Z</time>
      </trkpt>
      <trkpt lat="42.5543550" lon="-8.8952030">
        <ele>2.6</ele>
        <time>2020-08-07T10:02:41Z</time>
      </trkpt>
      <trkpt lat="42.5543260" lon="-8.8952050">
        <ele>2.2</ele>
        <time>2020-08-07T10:02:42Z</time>
      </trkpt>
      <trkpt lat="42.5543260" lon="-8.8952050">
        <ele>2.4</ele>
        <time>2020-08-07T10:02:43Z</time>
      </trkpt>
      <trkpt lat="42.5542980" lon="-8.8952080">
        <ele>2.6</ele>
        <time>2020-08-07T10:02:44Z</time>
      </trkpt>
      <trkpt lat="42.5542980" lon="-8.8952080">
        <ele>2.4</ele>
        <time>2020-08-07T10:02:45Z</time>
      </trkpt>
      <trkpt lat="42.5542720" lon="-8.8952130">
        <ele>2.6</ele>
        <time>2020-08-07T10:02:46Z</time>
      </trkpt>
      <trkpt lat="42.5542720" lon="-8.8952130">
        <ele>2.4</ele>
        <time>2020-08-07T10:02:47Z</time>
      </trkpt>
      <trkpt lat="42.5542460" lon="-8.8952200">
        <ele>2.8</ele>
        <time>2020-08-07T10:02:48Z</time>
      </trkpt>
      <trkpt lat="42.5542460" lon="-8.8952200">
        <ele>3.0</ele>
        <time>2020-08-07T10:02:49Z</time>
      </trkpt>
      <trkpt lat="42.5542140" lon="-8.8952300">
        <ele>3.2</ele>
        <time>2020-08-07T10:02:50Z</time>
      </trkpt>
      <trkpt lat="42.5542140" lon="-8.8952300">
        <ele>3.2</ele>
        <time>2020-08-07T10:02:51Z</time>
      </trkpt>
      <trkpt lat="42.5541890" lon="-8.8952380">
        <ele>3.0</ele>
        <time>2020-08-07T10:02:52Z</time>
      </trkpt>
      <trkpt lat="42.5541890" lon="-8.8952380">
        <ele>3.2</ele>
        <time>2020-08-07T10:02:53Z</time>
      </trkpt>
      <trkpt lat="42.5541600" lon="-8.8952450">
        <ele>3.2</ele>
        <time>2020-08-07T10:02:54Z</time>
      </trkpt>
      <trkpt lat="42.5541600" lon="-8.8952450">
        <ele>3.4</ele>
        <time>2020-08-07T10:02:55Z</time>
      </trkpt>
      <trkpt lat="42.5541310" lon="-8.8952500">
        <ele>3.0</ele>
        <time>2020-08-07T10:02:56Z</time>
      </trkpt>
      <trkpt lat="42.5541120" lon="-8.8952550">
        <ele>3.0</ele>
        <time>2020-08-07T10:02:57Z</time>
      </trkpt>
      <trkpt lat="42.5541120" lon="-8.8952550">
        <ele>2.8</ele>
        <time>2020-08-07T10:02:58Z</time>
      </trkpt>
      <trkpt lat="42.5540830" lon="-8.8952700">
        <ele>2.6</ele>
        <time>2020-08-07T10:02:59Z</time>
      </trkpt>
      <trkpt lat="42.5540830" lon="-8.8952700">
        <ele>2.6</ele>
        <time>2020-08-07T10:03:00Z</time>
      </trkpt>
      <trkpt lat="42.5540610" lon="-8.8952860">
        <ele>2.8</ele>
        <time>2020-08-07T10:03:01Z</time>
      </trkpt>
      <trkpt lat="42.5540610" lon="-8.8952860">
        <ele>2.6</ele>
        <time>2020-08-07T10:03:02Z</time>
      </trkpt>
      <trkpt lat="42.5540350" lon="-8.8953040">
        <ele>2.8</ele>
        <time>2020-08-07T10:03:03Z</time>
      </trkpt>
      <trkpt lat="42.5540350" lon="-8.8953040">
        <ele>2.8</ele>
        <time>2020-08-07T10:03:04Z</time>
      </trkpt>
      <trkpt lat="42.5540130" lon="-8.8953150">
        <ele>3.2</ele>
        <time>2020-08-07T10:03:05Z</time>
      </trkpt>
      <trkpt lat="42.5540130" lon="-8.8953150">
        <ele>3.6</ele>
        <time>2020-08-07T10:03:06Z</time>
      </trkpt>
      <trkpt lat="42.5539810" lon="-8.8953300">
        <ele>4.0</ele>
        <time>2020-08-07T10:03:07Z</time>
      </trkpt>
      <trkpt lat="42.5539810" lon="-8.8953300">
        <ele>4.0</ele>
        <time>2020-08-07T10:03:08Z</time>
      </trkpt>
      <trkpt lat="42.5539580" lon="-8.8953420">
        <ele>3.8</ele>
        <time>2020-08-07T10:03:09Z</time>
      </trkpt>
      <trkpt lat="42.5539580" lon="-8.8953420">
        <ele>3.6</ele>
        <time>2020-08-07T10:03:10Z</time>
      </trkpt>
      <trkpt lat="42.5539300" lon="-8.8953500">
        <ele>3.6</ele>
        <time>2020-08-07T10:03:11Z</time>
      </trkpt>
      <trkpt lat="42.5539300" lon="-8.8953500">
        <ele>3.4</ele>
        <time>2020-08-07T10:03:12Z</time>
      </trkpt>
      <trkpt lat="42.5539010" lon="-8.8953600">
        <ele>3.0</ele>
        <time>2020-08-07T10:03:13Z</time>
      </trkpt>
      <trkpt lat="42.5539010" lon="-8.8953600">
        <ele>3.2</ele>
        <time>2020-08-07T10:03:14Z</time>
      </trkpt>
      <trkpt lat="42.5538720" lon="-8.8953630">
        <ele>3.0</ele>
        <time>2020-08-07T10:03:15Z</time>
      </trkpt>
      <trkpt lat="42.5538720" lon="-8.8953630">
        <ele>3.2</ele>
        <time>2020-08-07T10:03:16Z</time>
      </trkpt>
      <trkpt lat="42.5538400" lon="-8.8953600">
        <ele>3.0</ele>
        <time>2020-08-07T10:03:17Z</time>
      </trkpt>
      <trkpt lat="42.5538400" lon="-8.8953600">
        <ele>3.0</ele>
        <time>2020-08-07T10:03:18Z</time>
      </trkpt>
      <trkpt lat="42.5538180" lon="-8.8953600">
        <ele>2.8</ele>
        <time>2020-08-07T10:03:19Z</time>
      </trkpt>
      <trkpt lat="42.5538180" lon="-8.8953600">
        <ele>2.8</ele>
        <time>2020-08-07T10:03:20Z</time>
      </trkpt>
      <trkpt lat="42.5537920" lon="-8.8953600">
        <ele>2.4</ele>
        <time>2020-08-07T10:03:21Z</time>
      </trkpt>
      <trkpt lat="42.5537920" lon="-8.8953600">
        <ele>2.4</ele>
        <time>2020-08-07T10:03:22Z</time>
      </trkpt>
      <trkpt lat="42.5537700" lon="-8.8953630">
        <ele>2.2</ele>
        <time>2020-08-07T10:03:23Z</time>
      </trkpt>
      <trkpt lat="42.5537700" lon="-8.8953630">
        <ele>2.4</ele>
        <time>2020-08-07T10:03:24Z</time>
      </trkpt>
      <trkpt lat="42.5537410" lon="-8.8953660">
        <ele>3.0</ele>
        <time>2020-08-07T10:03:25Z</time>
      </trkpt>
      <trkpt lat="42.5537410" lon="-8.8953660">
        <ele>2.8</ele>
        <time>2020-08-07T10:03:26Z</time>
      </trkpt>
      <trkpt lat="42.5537150" lon="-8.8953710">
        <ele>3.0</ele>
        <time>2020-08-07T10:03:27Z</time>
      </trkpt>
      <trkpt lat="42.5537150" lon="-8.8953710">
        <ele>2.8</ele>
        <time>2020-08-07T10:03:28Z</time>
      </trkpt>
      <trkpt lat="42.5536930" lon="-8.8953780">
        <ele>2.8</ele>
        <time>2020-08-07T10:03:29Z</time>
      </trkpt>
      <trkpt lat="42.5536930" lon="-8.8953780">
        <ele>2.8</ele>
        <time>2020-08-07T10:03:30Z</time>
      </trkpt>
      <trkpt lat="42.5536610" lon="-8.8953850">
        <ele>2.6</ele>
        <time>2020-08-07T10:03:31Z</time>
      </trkpt>
      <trkpt lat="42.5536610" lon="-8.8953850">
        <ele>2.4</ele>
        <time>2020-08-07T10:03:32Z</time>
      </trkpt>
      <trkpt lat="42.5536320" lon="-8.8953890">
        <ele>2.2</ele>
        <time>2020-08-07T10:03:33Z</time>
      </trkpt>
      <trkpt lat="42.5536320" lon="-8.8953890">
        <ele>2.2</ele>
        <time>2020-08-07T10:03:34Z</time>
      </trkpt>
      <trkpt lat="42.5536000" lon="-8.8953900">
        <ele>2.0</ele>
        <time>2020-08-07T10:03:35Z</time>
      </trkpt>
      <trkpt lat="42.5536000" lon="-8.8953900">
        <ele>1.8</ele>
        <time>2020-08-07T10:03:36Z</time>
      </trkpt>
      <trkpt lat="42.5535740" lon="-8.8953890">
        <ele>1.8</ele>
        <time>2020-08-07T10:03:37Z</time>
      </trkpt>
      <trkpt lat="42.5535740" lon="-8.8953890">
        <ele>2.0</ele>
        <time>2020-08-07T10:03:38Z</time>
      </trkpt>
      <trkpt lat="42.5535420" lon="-8.8953820">
        <ele>2.2</ele>
        <time>2020-08-07T10:03:39Z</time>
      </trkpt>
      <trkpt lat="42.5535420" lon="-8.8953820">
        <ele>2.0</ele>
        <time>2020-08-07T10:03:40Z</time>
      </trkpt>
      <trkpt lat="42.5535170" lon="-8.8953750">
        <ele>2.2</ele>
        <time>2020-08-07T10:03:41Z</time>
      </trkpt>
      <trkpt lat="42.5535170" lon="-8.8953750">
        <ele>2.6</ele>
        <time>2020-08-07T10:03:42Z</time>
      </trkpt>
      <trkpt lat="42.5534820" lon="-8.8953740">
        <ele>2.6</ele>
        <time>2020-08-07T10:03:43Z</time>
      </trkpt>
      <trkpt lat="42.5534820" lon="-8.8953740">
        <ele>2.8</ele>
        <time>2020-08-07T10:03:44Z</time>
      </trkpt>
      <trkpt lat="42.5534530" lon="-8.8953800">
        <ele>2.6</ele>
        <time>2020-08-07T10:03:45Z</time>
      </trkpt>
      <trkpt lat="42.5534530" lon="-8.8953800">
        <ele>2.4</ele>
        <time>2020-08-07T10:03:46Z</time>
      </trkpt>
      <trkpt lat="42.5534240" lon="-8.8953860">
        <ele>2.6</ele>
        <time>2020-08-07T10:03:47Z</time>
      </trkpt>
      <trkpt lat="42.5534240" lon="-8.8953860">
        <ele>2.4</ele>
        <time>2020-08-07T10:03:48Z</time>
      </trkpt>
      <trkpt lat="42.5533980" lon="-8.8953960">
        <ele>2.4</ele>
        <time>2020-08-07T10:03:49Z</time>
      </trkpt>
      <trkpt lat="42.5533980" lon="-8.8953960">
        <ele>2.4</ele>
        <time>2020-08-07T10:03:50Z</time>
      </trkpt>
      <trkpt lat="42.5533730" lon="-8.8954100">
        <ele>2.8</ele>
        <time>2020-08-07T10:03:51Z</time>
      </trkpt>
      <trkpt lat="42.5533730" lon="-8.8954100">
        <ele>2.8</ele>
        <time>2020-08-07T10:03:52Z</time>
      </trkpt>
      <trkpt lat="42.5533410" lon="-8.8954250">
        <ele>3.4</ele>
        <time>2020-08-07T10:03:53Z</time>
      </trkpt>
      <trkpt lat="42.5533410" lon="-8.8954250">
        <ele>3.6</ele>
        <time>2020-08-07T10:03:54Z</time>
      </trkpt>
      <trkpt lat="42.5533090" lon="-8.8954420">
        <ele>3.4</ele>
        <time>2020-08-07T10:03:55Z</time>
      </trkpt>
      <trkpt lat="42.5533090" lon="-8.8954420">
        <ele>3.4</ele>
        <time>2020-08-07T10:03:56Z</time>
      </trkpt>
      <trkpt lat="42.5532830" lon="-8.8954620">
        <ele>3.4</ele>
        <time>2020-08-07T10:03:57Z</time>
      </trkpt>
      <trkpt lat="42.5532830" lon="-8.8954620">
        <ele>3.0</ele>
        <time>2020-08-07T10:03:58Z</time>
      </trkpt>
      <trkpt lat="42.5532610" lon="-8.8954750">
        <ele>3.2</ele>
        <time>2020-08-07T10:03:59Z</time>
      </trkpt>
      <trkpt lat="42.5532420" lon="-8.8954820">
        <ele>3.2</ele>
        <time>2020-08-07T10:04:00Z</time>
      </trkpt>
      <trkpt lat="42.5532420" lon="-8.8954820">
        <ele>3.2</ele>
        <time>2020-08-07T10:04:01Z</time>
      </trkpt>
      <trkpt lat="42.5532160" lon="-8.8954920">
        <ele>3.2</ele>
        <time>2020-08-07T10:04:02Z</time>
      </trkpt>
      <trkpt lat="42.5531940" lon="-8.8955000">
        <ele>3.0</ele>
        <time>2020-08-07T10:04:03Z</time>
      </trkpt>
      <trkpt lat="42.5531940" lon="-8.8955000">
        <ele>2.4</ele>
        <time>2020-08-07T10:04:04Z</time>
      </trkpt>
      <trkpt lat="42.5531650" lon="-8.8955070">
        <ele>2.4</ele>
        <time>2020-08-07T10:04:05Z</time>
      </trkpt>
      <trkpt lat="42.5531650" lon="-8.8955070">
        <ele>2.2</ele>
        <time>2020-08-07T10:04:06Z</time>
      </trkpt>
      <trkpt lat="42.5531390" lon="-8.8955070">
        <ele>2.4</ele>
        <time>2020-08-07T10:04:07Z</time>
      </trkpt>
      <trkpt lat="42.5531390" lon="-8.8955070">
        <ele>2.2</ele>
        <time>2020-08-07T10:04:08Z</time>
      </trkpt>
      <trkpt lat="42.5531070" lon="-8.8955090">
        <ele>2.2</ele>
        <time>2020-08-07T10:04:09Z</time>
      </trkpt>
      <trkpt lat="42.5531070" lon="-8.8955090">
        <ele>2.4</ele>
        <time>2020-08-07T10:04:10Z</time>
      </trkpt>
      <trkpt lat="42.5530820" lon="-8.8955050">
        <ele>2.8</ele>
        <time>2020-08-07T10:04:11Z</time>
      </trkpt>
      <trkpt lat="42.5530820" lon="-8.8955050">
        <ele>3.0</ele>
        <time>2020-08-07T10:04:12Z</time>
      </trkpt>
      <trkpt lat="42.5530560" lon="-8.8955050">
        <ele>3.4</ele>
        <time>2020-08-07T10:04:13Z</time>
      </trkpt>
      <trkpt lat="42.5530560" lon="-8.8955050">
        <ele>3.4</ele>
        <time>2020-08-07T10:04:14Z</time>
      </trkpt>
      <trkpt lat="42.5530240" lon="-8.8955100">
        <ele>3.4</ele>
        <time>2020-08-07T10:04:15Z</time>
      </trkpt>
      <trkpt lat="42.5530240" lon="-8.8955100">
        <ele>3.2</ele>
        <time>2020-08-07T10:04:16Z</time>
      </trkpt>
      <trkpt lat="42.5529980" lon="-8.8955180">
        <ele>3.6</ele>
        <time>2020-08-07T10:04:17Z</time>
      </trkpt>
      <trkpt lat="42.5529980" lon="-8.8955180">
        <ele>3.4</ele>
        <time>2020-08-07T10:04:18Z</time>
      </trkpt>
      <trkpt lat="42.5529660" lon="-8.8955210">
        <ele>3.4</ele>
        <time>2020-08-07T10:04:19Z</time>
      </trkpt>
      <trkpt lat="42.5529660" lon="-8.8955210">
        <ele>3.6</ele>
        <time>2020-08-07T10:04:20Z</time>
      </trkpt>
      <trkpt lat="42.5529440" lon="-8.8955320">
        <ele>3.2</ele>
        <time>2020-08-07T10:04:21Z</time>
      </trkpt>
      <trkpt lat="42.5529440" lon="-8.8955320">
        <ele>3.0</ele>
        <time>2020-08-07T10:04:22Z</time>
      </trkpt>
      <trkpt lat="42.5529220" lon="-8.8955380">
        <ele>3.2</ele>
        <time>2020-08-07T10:04:23Z</time>
      </trkpt>
      <trkpt lat="42.5529220" lon="-8.8955380">
        <ele>3.2</ele>
        <time>2020-08-07T10:04:24Z</time>
      </trkpt>
      <trkpt lat="42.5528960" lon="-8.8955420">
        <ele>3.4</ele>
        <time>2020-08-07T10:04:25Z</time>
      </trkpt>
      <trkpt lat="42.5528960" lon="-8.8955420">
        <ele>3.4</ele>
        <time>2020-08-07T10:04:26Z</time>
      </trkpt>
      <trkpt lat="42.5528670" lon="-8.8955500">
        <ele>3.2</ele>
        <time>2020-08-07T10:04:27Z</time>
      </trkpt>
      <trkpt lat="42.5528670" lon="-8.8955500">
        <ele>3.0</ele>
        <time>2020-08-07T10:04:28Z</time>
      </trkpt>
      <trkpt lat="42.5528450" lon="-8.8955600">
        <ele>2.6</ele>
        <time>2020-08-07T10:04:29Z</time>
      </trkpt>
      <trkpt lat="42.5528450" lon="-8.8955600">
        <ele>2.6</ele>
        <time>2020-08-07T10:04:30Z</time>
      </trkpt>
      <trkpt lat="42.5528190" lon="-8.8955670">
        <ele>2.8</ele>
        <time>2020-08-07T10:04:31Z</time>
      </trkpt>
      <trkpt lat="42.5528190" lon="-8.8955670">
        <ele>3.0</ele>
        <time>2020-08-07T10:04:32Z</time>
      </trkpt>
      <trkpt lat="42.5527970" lon="-8.8955780">
        <ele>3.4</ele>
        <time>2020-08-07T10:04:33Z</time>
      </trkpt>
      <trkpt lat="42.5527970" lon="-8.8955780">
        <ele>3.4</ele>
        <time>2020-08-07T10:04:34Z</time>
      </trkpt>
      <trkpt lat="42.5527710" lon="-8.8955920">
        <ele>3.2</ele>
        <time>2020-08-07T10:04:35Z</time>
      </trkpt>
      <trkpt lat="42.5527710" lon="-8.8955920">
        <ele>2.8</ele>
        <time>2020-08-07T10:04:36Z</time>
      </trkpt>
      <trkpt lat="42.5527490" lon="-8.8956070">
        <ele>2.8</ele>
        <time>2020-08-07T10:04:37Z</time>
      </trkpt>
      <trkpt lat="42.5527490" lon="-8.8956070">
        <ele>2.6</ele>
        <time>2020-08-07T10:04:38Z</time>
      </trkpt>
      <trkpt lat="42.5527260" lon="-8.8956170">
        <ele>2.6</ele>
        <time>2020-08-07T10:04:39Z</time>
      </trkpt>
      <trkpt lat="42.5527260" lon="-8.8956170">
        <ele>3.0</ele>
        <time>2020-08-07T10:04:40Z</time>
      </trkpt>
      <trkpt lat="42.5527040" lon="-8.8956280">
        <ele>3.0</ele>
        <time>2020-08-07T10:04:41Z</time>
      </trkpt>
      <trkpt lat="42.5527040" lon="-8.8956280">
        <ele>3.0</ele>
        <time>2020-08-07T10:04:42Z</time>
      </trkpt>
      <trkpt lat="42.5526820" lon="-8.8956340">
        <ele>3.0</ele>
        <time>2020-08-07T10:04:43Z</time>
      </trkpt>
      <trkpt lat="42.5526820" lon="-8.8956340">
        <ele>3.2</ele>
        <time>2020-08-07T10:04:44Z</time>
      </trkpt>
      <trkpt lat="42.5526590" lon="-8.8956420">
        <ele>3.2</ele>
        <time>2020-08-07T10:04:45Z</time>
      </trkpt>
      <trkpt lat="42.5526590" lon="-8.8956420">
        <ele>3.2</ele>
        <time>2020-08-07T10:04:46Z</time>
      </trkpt>
      <trkpt lat="42.5526270" lon="-8.8956470">
        <ele>2.6</ele>
        <time>2020-08-07T10:04:47Z</time>
      </trkpt>
      <trkpt lat="42.5526270" lon="-8.8956470">
        <ele>2.8</ele>
        <time>2020-08-07T10:04:48Z</time>
      </trkpt>
      <trkpt lat="42.5526020" lon="-8.8956480">
        <ele>2.8</ele>
        <time>2020-08-07T10:04:49Z</time>
      </trkpt>
      <trkpt lat="42.5526020" lon="-8.8956480">
        <ele>2.8</ele>
        <time>2020-08-07T10:04:50Z</time>
      </trkpt>
      <trkpt lat="42.5525700" lon="-8.8956520">
        <ele>3.0</ele>
        <time>2020-08-07T10:04:51Z</time>
      </trkpt>
      <trkpt lat="42.5525700" lon="-8.8956520">
        <ele>3.2</ele>
        <time>2020-08-07T10:04:52Z</time>
      </trkpt>
      <trkpt lat="42.5525440" lon="-8.8956520">
        <ele>3.2</ele>
        <time>2020-08-07T10:04:53Z</time>
      </trkpt>
      <trkpt lat="42.5525440" lon="-8.8956520">
        <ele>3.4</ele>
        <time>2020-08-07T10:04:54Z</time>
      </trkpt>
      <trkpt lat="42.5525180" lon="-8.8956500">
        <ele>3.4</ele>
        <time>2020-08-07T10:04:55Z</time>
      </trkpt>
      <trkpt lat="42.5525180" lon="-8.8956500">
        <ele>3.6</ele>
        <time>2020-08-07T10:04:56Z</time>
      </trkpt>
      <trkpt lat="42.5524900" lon="-8.8956450">
        <ele>4.0</ele>
        <time>2020-08-07T10:04:57Z</time>
      </trkpt>
      <trkpt lat="42.5524900" lon="-8.8956450">
        <ele>3.8</ele>
        <time>2020-08-07T10:04:58Z</time>
      </trkpt>
      <trkpt lat="42.5524640" lon="-8.8956380">
        <ele>3.8</ele>
        <time>2020-08-07T10:04:59Z</time>
      </trkpt>
      <trkpt lat="42.5524640" lon="-8.8956380">
        <ele>3.6</ele>
        <time>2020-08-07T10:05:00Z</time>
      </trkpt>
      <trkpt lat="42.5524380" lon="-8.8956340">
        <ele>3.8</ele>
        <time>2020-08-07T10:05:01Z</time>
      </trkpt>
      <trkpt lat="42.5524380" lon="-8.8956340">
        <ele>4.0</ele>
        <time>2020-08-07T10:05:02Z</time>
      </trkpt>
      <trkpt lat="42.5524100" lon="-8.8956270">
        <ele>4.0</ele>
        <time>2020-08-07T10:05:03Z</time>
      </trkpt>
      <trkpt lat="42.5524100" lon="-8.8956270">
        <ele>3.8</ele>
        <time>2020-08-07T10:05:04Z</time>
      </trkpt>
      <trkpt lat="42.5523840" lon="-8.8956280">
        <ele>3.4</ele>
        <time>2020-08-07T10:05:05Z</time>
      </trkpt>
      <trkpt lat="42.5523840" lon="-8.8956280">
        <ele>3.4</ele>
        <time>2020-08-07T10:05:06Z</time>
      </trkpt>
      <trkpt lat="42.5523620" lon="-8.8956340">
        <ele>3.2</ele>
        <time>2020-08-07T10:05:07Z</time>
      </trkpt>
      <trkpt lat="42.5523620" lon="-8.8956340">
        <ele>3.0</ele>
        <time>2020-08-07T10:05:08Z</time>
      </trkpt>
      <trkpt lat="42.5523620" lon="-8.8956340">
        <ele>2.4</ele>
        <time>2020-08-07T10:05:09Z</time>
      </trkpt>
      <trkpt lat="42.5523420" lon="-8.8956450">
        <ele>2.0</ele>
        <time>2020-08-07T10:05:10Z</time>
      </trkpt>
      <trkpt lat="42.5523420" lon="-8.8956450">
        <ele>1.8</ele>
        <time>2020-08-07T10:05:11Z</time>
      </trkpt>
      <trkpt lat="42.5523230" lon="-8.8956570">
        <ele>2.0</ele>
        <time>2020-08-07T10:05:12Z</time>
      </trkpt>
      <trkpt lat="42.5523230" lon="-8.8956570">
        <ele>1.8</ele>
        <time>2020-08-07T10:05:13Z</time>
      </trkpt>
      <trkpt lat="42.5523040" lon="-8.8956670">
        <ele>1.6</ele>
        <time>2020-08-07T10:05:14Z</time>
      </trkpt>
      <trkpt lat="42.5523040" lon="-8.8956670">
        <ele>1.6</ele>
        <time>2020-08-07T10:05:15Z</time>
      </trkpt>
      <trkpt lat="42.5522850" lon="-8.8956810">
        <ele>2.0</ele>
        <time>2020-08-07T10:05:16Z</time>
      </trkpt>
      <trkpt lat="42.5522850" lon="-8.8956810">
        <ele>2.6</ele>
        <time>2020-08-07T10:05:17Z</time>
      </trkpt>
      <trkpt lat="42.5522560" lon="-8.8956850">
        <ele>2.8</ele>
        <time>2020-08-07T10:05:18Z</time>
      </trkpt>
      <trkpt lat="42.5522560" lon="-8.8956850">
        <ele>3.0</ele>
        <time>2020-08-07T10:05:19Z</time>
      </trkpt>
      <trkpt lat="42.5522340" lon="-8.8956940">
        <ele>3.0</ele>
        <time>2020-08-07T10:05:20Z</time>
      </trkpt>
      <trkpt lat="42.5522340" lon="-8.8956940">
        <ele>3.0</ele>
        <time>2020-08-07T10:05:21Z</time>
      </trkpt>
      <trkpt lat="42.5522080" lon="-8.8956980">
        <ele>2.8</ele>
        <time>2020-08-07T10:05:22Z</time>
      </trkpt>
      <trkpt lat="42.5522080" lon="-8.8956980">
        <ele>2.8</ele>
        <time>2020-08-07T10:05:23Z</time>
      </trkpt>
      <trkpt lat="42.5521820" lon="-8.8956940">
        <ele>3.0</ele>
        <time>2020-08-07T10:05:24Z</time>
      </trkpt>
      <trkpt lat="42.5521820" lon="-8.8956940">
        <ele>3.0</ele>
        <time>2020-08-07T10:05:25Z</time>
      </trkpt>
      <trkpt lat="42.5521540" lon="-8.8956900">
        <ele>3.2</ele>
        <time>2020-08-07T10:05:26Z</time>
      </trkpt>
      <trkpt lat="42.5521540" lon="-8.8956900">
        <ele>3.0</ele>
        <time>2020-08-07T10:05:27Z</time>
      </trkpt>
      <trkpt lat="42.5521280" lon="-8.8956830">
        <ele>3.2</ele>
        <time>2020-08-07T10:05:28Z</time>
      </trkpt>
      <trkpt lat="42.5521280" lon="-8.8956830">
        <ele>3.4</ele>
        <time>2020-08-07T10:05:29Z</time>
      </trkpt>
      <trkpt lat="42.5521020" lon="-8.8956780">
        <ele>3.8</ele>
        <time>2020-08-07T10:05:30Z</time>
      </trkpt>
      <trkpt lat="42.5521020" lon="-8.8956780">
        <ele>4.0</ele>
        <time>2020-08-07T10:05:31Z</time>
      </trkpt>
      <trkpt lat="42.5520700" lon="-8.8956770">
        <ele>4.2</ele>
        <time>2020-08-07T10:05:32Z</time>
      </trkpt>
      <trkpt lat="42.5520700" lon="-8.8956770">
        <ele>4.2</ele>
        <time>2020-08-07T10:05:33Z</time>
      </trkpt>
      <trkpt lat="42.5520420" lon="-8.8956810">
        <ele>4.2</ele>
        <time>2020-08-07T10:05:34Z</time>
      </trkpt>
      <trkpt lat="42.5520420" lon="-8.8956810">
        <ele>4.2</ele>
        <time>2020-08-07T10:05:35Z</time>
      </trkpt>
      <trkpt lat="42.5520130" lon="-8.8956870">
        <ele>4.2</ele>
        <time>2020-08-07T10:05:36Z</time>
      </trkpt>
      <trkpt lat="42.5520130" lon="-8.8956870">
        <ele>4.0</ele>
        <time>2020-08-07T10:05:37Z</time>
      </trkpt>
      <trkpt lat="42.5519870" lon="-8.8956980">
        <ele>4.0</ele>
        <time>2020-08-07T10:05:38Z</time>
      </trkpt>
      <trkpt lat="42.5519870" lon="-8.8956980">
        <ele>4.2</ele>
        <time>2020-08-07T10:05:39Z</time>
      </trkpt>
      <trkpt lat="42.5519650" lon="-8.8957060">
        <ele>4.2</ele>
        <time>2020-08-07T10:05:40Z</time>
      </trkpt>
      <trkpt lat="42.5519650" lon="-8.8957060">
        <ele>4.4</ele>
        <time>2020-08-07T10:05:41Z</time>
      </trkpt>
      <trkpt lat="42.5519330" lon="-8.8957080">
        <ele>4.6</ele>
        <time>2020-08-07T10:05:42Z</time>
      </trkpt>
      <trkpt lat="42.5519330" lon="-8.8957080">
        <ele>4.8</ele>
        <time>2020-08-07T10:05:43Z</time>
      </trkpt>
      <trkpt lat="42.5518980" lon="-8.8957100">
        <ele>4.6</ele>
        <time>2020-08-07T10:05:44Z</time>
      </trkpt>
      <trkpt lat="42.5518980" lon="-8.8957100">
        <ele>4.8</ele>
        <time>2020-08-07T10:05:45Z</time>
      </trkpt>
      <trkpt lat="42.5518690" lon="-8.8957080">
        <ele>4.4</ele>
        <time>2020-08-07T10:05:46Z</time>
      </trkpt>
      <trkpt lat="42.5518690" lon="-8.8957080">
        <ele>4.2</ele>
        <time>2020-08-07T10:05:47Z</time>
      </trkpt>
      <trkpt lat="42.5518430" lon="-8.8957060">
        <ele>3.8</ele>
        <time>2020-08-07T10:05:48Z</time>
      </trkpt>
      <trkpt lat="42.5518430" lon="-8.8957060">
        <ele>3.6</ele>
        <time>2020-08-07T10:05:49Z</time>
      </trkpt>
      <trkpt lat="42.5518140" lon="-8.8957060">
        <ele>3.8</ele>
        <time>2020-08-07T10:05:50Z</time>
      </trkpt>
      <trkpt lat="42.5517950" lon="-8.8957030">
        <ele>3.8</ele>
        <time>2020-08-07T10:05:51Z</time>
      </trkpt>
      <trkpt lat="42.5517950" lon="-8.8957030">
        <ele>4.0</ele>
        <time>2020-08-07T10:05:52Z</time>
      </trkpt>
      <trkpt lat="42.5517660" lon="-8.8956980">
        <ele>4.6</ele>
        <time>2020-08-07T10:05:53Z</time>
      </trkpt>
      <trkpt lat="42.5517660" lon="-8.8956980">
        <ele>4.6</ele>
        <time>2020-08-07T10:05:54Z</time>
      </trkpt>
      <trkpt lat="42.5517340" lon="-8.8957010">
        <ele>4.6</ele>
        <time>2020-08-07T10:05:55Z</time>
      </trkpt>
      <trkpt lat="42.5517340" lon="-8.8957010">
        <ele>4.8</ele>
        <time>2020-08-07T10:05:56Z</time>
      </trkpt>
      <trkpt lat="42.5517060" lon="-8.8957030">
        <ele>4.6</ele>
        <time>2020-08-07T10:05:57Z</time>
      </trkpt>
      <trkpt lat="42.5517060" lon="-8.8957030">
        <ele>4.6</ele>
        <time>2020-08-07T10:05:58Z</time>
      </trkpt>
      <trkpt lat="42.5516800" lon="-8.8957100">
        <ele>4.4</ele>
        <time>2020-08-07T10:05:59Z</time>
      </trkpt>
      <trkpt lat="42.5516800" lon="-8.8957100">
        <ele>4.4</ele>
        <time>2020-08-07T10:06:00Z</time>
      </trkpt>
      <trkpt lat="42.5516510" lon="-8.8957190">
        <ele>4.4</ele>
        <time>2020-08-07T10:06:01Z</time>
      </trkpt>
      <trkpt lat="42.5516510" lon="-8.8957190">
        <ele>4.6</ele>
        <time>2020-08-07T10:06:02Z</time>
      </trkpt>
      <trkpt lat="42.5516190" lon="-8.8957280">
        <ele>4.2</ele>
        <time>2020-08-07T10:06:03Z</time>
      </trkpt>
      <trkpt lat="42.5516190" lon="-8.8957280">
        <ele>4.0</ele>
        <time>2020-08-07T10:06:04Z</time>
      </trkpt>
      <trkpt lat="42.5515940" lon="-8.8957300">
        <ele>3.8</ele>
        <time>2020-08-07T10:06:05Z</time>
      </trkpt>
      <trkpt lat="42.5515940" lon="-8.8957300">
        <ele>3.4</ele>
        <time>2020-08-07T10:06:06Z</time>
      </trkpt>
      <trkpt lat="42.5515680" lon="-8.8957390">
        <ele>3.4</ele>
        <time>2020-08-07T10:06:07Z</time>
      </trkpt>
      <trkpt lat="42.5515680" lon="-8.8957390">
        <ele>3.6</ele>
        <time>2020-08-07T10:06:08Z</time>
      </trkpt>
      <trkpt lat="42.5515390" lon="-8.8957480">
        <ele>3.4</ele>
        <time>2020-08-07T10:06:09Z</time>
      </trkpt>
      <trkpt lat="42.5515390" lon="-8.8957480">
        <ele>3.2</ele>
        <time>2020-08-07T10:06:10Z</time>
      </trkpt>
      <trkpt lat="42.5515100" lon="-8.8957530">
        <ele>3.2</ele>
        <time>2020-08-07T10:06:11Z</time>
      </trkpt>
      <trkpt lat="42.5514910" lon="-8.8957550">
        <ele>3.2</ele>
        <time>2020-08-07T10:06:12Z</time>
      </trkpt>
      <trkpt lat="42.5514910" lon="-8.8957550">
        <ele>3.8</ele>
        <time>2020-08-07T10:06:13Z</time>
      </trkpt>
      <trkpt lat="42.5514590" lon="-8.8957590">
        <ele>3.8</ele>
        <time>2020-08-07T10:06:14Z</time>
      </trkpt>
      <trkpt lat="42.5514590" lon="-8.8957590">
        <ele>4.4</ele>
        <time>2020-08-07T10:06:15Z</time>
      </trkpt>
      <trkpt lat="42.5514300" lon="-8.8957630">
        <ele>4.6</ele>
        <time>2020-08-07T10:06:16Z</time>
      </trkpt>
      <trkpt lat="42.5514110" lon="-8.8957660">
        <ele>5.0</ele>
        <time>2020-08-07T10:06:17Z</time>
      </trkpt>
      <trkpt lat="42.5514110" lon="-8.8957660">
        <ele>5.0</ele>
        <time>2020-08-07T10:06:18Z</time>
      </trkpt>
      <trkpt lat="42.5513790" lon="-8.8957680">
        <ele>5.0</ele>
        <time>2020-08-07T10:06:19Z</time>
      </trkpt>
      <trkpt lat="42.5513790" lon="-8.8957680">
        <ele>4.8</ele>
        <time>2020-08-07T10:06:20Z</time>
      </trkpt>
      <trkpt lat="42.5513500" lon="-8.8957730">
        <ele>4.8</ele>
        <time>2020-08-07T10:06:21Z</time>
      </trkpt>
      <trkpt lat="42.5513500" lon="-8.8957730">
        <ele>4.8</ele>
        <time>2020-08-07T10:06:22Z</time>
      </trkpt>
      <trkpt lat="42.5513180" lon="-8.8957770">
        <ele>4.6</ele>
        <time>2020-08-07T10:06:23Z</time>
      </trkpt>
      <trkpt lat="42.5513180" lon="-8.8957770">
        <ele>4.4</ele>
        <time>2020-08-07T10:06:24Z</time>
      </trkpt>
      <trkpt lat="42.5512960" lon="-8.8957780">
        <ele>4.4</ele>
        <time>2020-08-07T10:06:25Z</time>
      </trkpt>
      <trkpt lat="42.5512960" lon="-8.8957780">
        <ele>4.4</ele>
        <time>2020-08-07T10:06:26Z</time>
      </trkpt>
      <trkpt lat="42.5512770" lon="-8.8957750">
        <ele>4.2</ele>
        <time>2020-08-07T10:06:27Z</time>
      </trkpt>
      <trkpt lat="42.5512770" lon="-8.8957750">
        <ele>4.2</ele>
        <time>2020-08-07T10:06:28Z</time>
      </trkpt>
      <trkpt lat="42.5512540" lon="-8.8957800">
        <ele>4.6</ele>
        <time>2020-08-07T10:06:29Z</time>
      </trkpt>
      <trkpt lat="42.5512540" lon="-8.8957800">
        <ele>4.4</ele>
        <time>2020-08-07T10:06:30Z</time>
      </trkpt>
      <trkpt lat="42.5512320" lon="-8.8957830">
        <ele>4.2</ele>
        <time>2020-08-07T10:06:31Z</time>
      </trkpt>
      <trkpt lat="42.5512320" lon="-8.8957830">
        <ele>4.6</ele>
        <time>2020-08-07T10:06:32Z</time>
      </trkpt>
      <trkpt lat="42.5512100" lon="-8.8957860">
        <ele>4.4</ele>
        <time>2020-08-07T10:06:33Z</time>
      </trkpt>
      <trkpt lat="42.5512100" lon="-8.8957860">
        <ele>4.4</ele>
        <time>2020-08-07T10:06:34Z</time>
      </trkpt>
      <trkpt lat="42.5511810" lon="-8.8957950">
        <ele>4.4</ele>
        <time>2020-08-07T10:06:35Z</time>
      </trkpt>
      <trkpt lat="42.5511810" lon="-8.8957950">
        <ele>4.6</ele>
        <time>2020-08-07T10:06:36Z</time>
      </trkpt>
      <trkpt lat="42.5511580" lon="-8.8958060">
        <ele>4.6</ele>
        <time>2020-08-07T10:06:37Z</time>
      </trkpt>
      <trkpt lat="42.5511580" lon="-8.8958060">
        <ele>5.2</ele>
        <time>2020-08-07T10:06:38Z</time>
      </trkpt>
      <trkpt lat="42.5511330" lon="-8.8958180">
        <ele>5.6</ele>
        <time>2020-08-07T10:06:39Z</time>
      </trkpt>
      <trkpt lat="42.5511330" lon="-8.8958180">
        <ele>6.0</ele>
        <time>2020-08-07T10:06:40Z</time>
      </trkpt>
      <trkpt lat="42.5511100" lon="-8.8958330">
        <ele>6.0</ele>
        <time>2020-08-07T10:06:41Z</time>
      </trkpt>
      <trkpt lat="42.5511100" lon="-8.8958330">
        <ele>6.0</ele>
        <time>2020-08-07T10:06:42Z</time>
      </trkpt>
      <trkpt lat="42.5510910" lon="-8.8958550">
        <ele>5.6</ele>
        <time>2020-08-07T10:06:43Z</time>
      </trkpt>
      <trkpt lat="42.5510910" lon="-8.8958550">
        <ele>5.6</ele>
        <time>2020-08-07T10:06:44Z</time>
      </trkpt>
      <trkpt lat="42.5510750" lon="-8.8958770">
        <ele>5.2</ele>
        <time>2020-08-07T10:06:45Z</time>
      </trkpt>
      <trkpt lat="42.5510750" lon="-8.8958770">
        <ele>4.8</ele>
        <time>2020-08-07T10:06:46Z</time>
      </trkpt>
      <trkpt lat="42.5510620" lon="-8.8959030">
        <ele>4.6</ele>
        <time>2020-08-07T10:06:47Z</time>
      </trkpt>
      <trkpt lat="42.5510620" lon="-8.8959030">
        <ele>4.0</ele>
        <time>2020-08-07T10:06:48Z</time>
      </trkpt>
      <trkpt lat="42.5510500" lon="-8.8959280">
        <ele>3.8</ele>
        <time>2020-08-07T10:06:49Z</time>
      </trkpt>
      <trkpt lat="42.5510500" lon="-8.8959280">
        <ele>3.6</ele>
        <time>2020-08-07T10:06:50Z</time>
      </trkpt>
      <trkpt lat="42.5510370" lon="-8.8959600">
        <ele>3.8</ele>
        <time>2020-08-07T10:06:51Z</time>
      </trkpt>
      <trkpt lat="42.5510370" lon="-8.8959600">
        <ele>3.8</ele>
        <time>2020-08-07T10:06:52Z</time>
      </trkpt>
      <trkpt lat="42.5510340" lon="-8.8959850">
        <ele>3.6</ele>
        <time>2020-08-07T10:06:53Z</time>
      </trkpt>
      <trkpt lat="42.5510340" lon="-8.8959850">
        <ele>3.4</ele>
        <time>2020-08-07T10:06:54Z</time>
      </trkpt>
      <trkpt lat="42.5510210" lon="-8.8960220">
        <ele>3.4</ele>
        <time>2020-08-07T10:06:55Z</time>
      </trkpt>
      <trkpt lat="42.5510210" lon="-8.8960220">
        <ele>3.8</ele>
        <time>2020-08-07T10:06:56Z</time>
      </trkpt>
      <trkpt lat="42.5510140" lon="-8.8960550">
        <ele>3.6</ele>
        <time>2020-08-07T10:06:57Z</time>
      </trkpt>
      <trkpt lat="42.5510140" lon="-8.8960550">
        <ele>3.8</ele>
        <time>2020-08-07T10:06:58Z</time>
      </trkpt>
      <trkpt lat="42.5510050" lon="-8.8960910">
        <ele>3.4</ele>
        <time>2020-08-07T10:06:59Z</time>
      </trkpt>
      <trkpt lat="42.5510050" lon="-8.8960910">
        <ele>3.6</ele>
        <time>2020-08-07T10:07:00Z</time>
      </trkpt>
      <trkpt lat="42.5509950" lon="-8.8961290">
        <ele>3.4</ele>
        <time>2020-08-07T10:07:01Z</time>
      </trkpt>
      <trkpt lat="42.5509950" lon="-8.8961290">
        <ele>3.2</ele>
        <time>2020-08-07T10:07:02Z</time>
      </trkpt>
      <trkpt lat="42.5509820" lon="-8.8961650">
        <ele>3.4</ele>
        <time>2020-08-07T10:07:03Z</time>
      </trkpt>
      <trkpt lat="42.5509820" lon="-8.8961650">
        <ele>3.4</ele>
        <time>2020-08-07T10:07:04Z</time>
      </trkpt>
      <trkpt lat="42.5509760" lon="-8.8962020">
        <ele>3.6</ele>
        <time>2020-08-07T10:07:05Z</time>
      </trkpt>
      <trkpt lat="42.5509760" lon="-8.8962020">
        <ele>3.8</ele>
        <time>2020-08-07T10:07:06Z</time>
      </trkpt>
      <trkpt lat="42.5509630" lon="-8.8962380">
        <ele>3.4</ele>
        <time>2020-08-07T10:07:07Z</time>
      </trkpt>
      <trkpt lat="42.5509630" lon="-8.8962380">
        <ele>3.6</ele>
        <time>2020-08-07T10:07:08Z</time>
      </trkpt>
      <trkpt lat="42.5509570" lon="-8.8962740">
        <ele>3.4</ele>
        <time>2020-08-07T10:07:09Z</time>
      </trkpt>
      <trkpt lat="42.5509570" lon="-8.8962740">
        <ele>3.4</ele>
        <time>2020-08-07T10:07:10Z</time>
      </trkpt>
      <trkpt lat="42.5509440" lon="-8.8963140">
        <ele>4.2</ele>
        <time>2020-08-07T10:07:11Z</time>
      </trkpt>
      <trkpt lat="42.5509440" lon="-8.8963140">
        <ele>4.6</ele>
        <time>2020-08-07T10:07:12Z</time>
      </trkpt>
      <trkpt lat="42.5509310" lon="-8.8963540">
        <ele>4.8</ele>
        <time>2020-08-07T10:07:13Z</time>
      </trkpt>
      <trkpt lat="42.5509310" lon="-8.8963540">
        <ele>4.2</ele>
        <time>2020-08-07T10:07:14Z</time>
      </trkpt>
      <trkpt lat="42.5509250" lon="-8.8963880">
        <ele>4.4</ele>
        <time>2020-08-07T10:07:15Z</time>
      </trkpt>
      <trkpt lat="42.5509250" lon="-8.8963880">
        <ele>4.2</ele>
        <time>2020-08-07T10:07:16Z</time>
      </trkpt>
      <trkpt lat="42.5509250" lon="-8.8964270">
        <ele>4.2</ele>
        <time>2020-08-07T10:07:17Z</time>
      </trkpt>
      <trkpt lat="42.5509250" lon="-8.8964270">
        <ele>4.2</ele>
        <time>2020-08-07T10:07:18Z</time>
      </trkpt>
      <trkpt lat="42.5509180" lon="-8.8964630">
        <ele>4.0</ele>
        <time>2020-08-07T10:07:19Z</time>
      </trkpt>
      <trkpt lat="42.5509120" lon="-8.8964860">
        <ele>3.8</ele>
        <time>2020-08-07T10:07:20Z</time>
      </trkpt>
      <trkpt lat="42.5509120" lon="-8.8964860">
        <ele>3.6</ele>
        <time>2020-08-07T10:07:21Z</time>
      </trkpt>
      <trkpt lat="42.5509020" lon="-8.8965260">
        <ele>3.6</ele>
        <time>2020-08-07T10:07:22Z</time>
      </trkpt>
      <trkpt lat="42.5509020" lon="-8.8965260">
        <ele>3.4</ele>
        <time>2020-08-07T10:07:23Z</time>
      </trkpt>
      <trkpt lat="42.5508930" lon="-8.8965600">
        <ele>3.6</ele>
        <time>2020-08-07T10:07:24Z</time>
      </trkpt>
      <trkpt lat="42.5508800" lon="-8.8965780">
        <ele>3.6</ele>
        <time>2020-08-07T10:07:25Z</time>
      </trkpt>
      <trkpt lat="42.5508800" lon="-8.8965780">
        <ele>3.4</ele>
        <time>2020-08-07T10:07:26Z</time>
      </trkpt>
      <trkpt lat="42.5508640" lon="-8.8966130">
        <ele>3.2</ele>
        <time>2020-08-07T10:07:27Z</time>
      </trkpt>
      <trkpt lat="42.5508640" lon="-8.8966130">
        <ele>3.4</ele>
        <time>2020-08-07T10:07:28Z</time>
      </trkpt>
      <trkpt lat="42.5508420" lon="-8.8966450">
        <ele>3.4</ele>
        <time>2020-08-07T10:07:29Z</time>
      </trkpt>
      <trkpt lat="42.5508420" lon="-8.8966450">
        <ele>3.0</ele>
        <time>2020-08-07T10:07:30Z</time>
      </trkpt>
      <trkpt lat="42.5508220" lon="-8.8966770">
        <ele>2.6</ele>
        <time>2020-08-07T10:07:31Z</time>
      </trkpt>
      <trkpt lat="42.5508220" lon="-8.8966770">
        <ele>2.8</ele>
        <time>2020-08-07T10:07:32Z</time>
      </trkpt>
      <trkpt lat="42.5508000" lon="-8.8967040">
        <ele>2.6</ele>
        <time>2020-08-07T10:07:33Z</time>
      </trkpt>
      <trkpt lat="42.5508000" lon="-8.8967040">
        <ele>2.6</ele>
        <time>2020-08-07T10:07:34Z</time>
      </trkpt>
      <trkpt lat="42.5507780" lon="-8.8967310">
        <ele>2.8</ele>
        <time>2020-08-07T10:07:35Z</time>
      </trkpt>
      <trkpt lat="42.5507780" lon="-8.8967310">
        <ele>2.6</ele>
        <time>2020-08-07T10:07:36Z</time>
      </trkpt>
      <trkpt lat="42.5507580" lon="-8.8967550">
        <ele>2.8</ele>
        <time>2020-08-07T10:07:37Z</time>
      </trkpt>
      <trkpt lat="42.5507420" lon="-8.8967690">
        <ele>2.8</ele>
        <time>2020-08-07T10:07:38Z</time>
      </trkpt>
      <trkpt lat="42.5507420" lon="-8.8967690">
        <ele>3.0</ele>
        <time>2020-08-07T10:07:39Z</time>
      </trkpt>
      <trkpt lat="42.5507200" lon="-8.8967950">
        <ele>3.0</ele>
        <time>2020-08-07T10:07:40Z</time>
      </trkpt>
      <trkpt lat="42.5507200" lon="-8.8967950">
        <ele>3.2</ele>
        <time>2020-08-07T10:07:41Z</time>
      </trkpt>
      <trkpt lat="42.5506980" lon="-8.8968200">
        <ele>2.8</ele>
        <time>2020-08-07T10:07:42Z</time>
      </trkpt>
      <trkpt lat="42.5506980" lon="-8.8968200">
        <ele>2.6</ele>
        <time>2020-08-07T10:07:43Z</time>
      </trkpt>
      <trkpt lat="42.5506750" lon="-8.8968430">
        <ele>2.8</ele>
        <time>2020-08-07T10:07:44Z</time>
      </trkpt>
      <trkpt lat="42.5506590" lon="-8.8968560">
        <ele>3.0</ele>
        <time>2020-08-07T10:07:45Z</time>
      </trkpt>
      <trkpt lat="42.5506590" lon="-8.8968560">
        <ele>3.2</ele>
        <time>2020-08-07T10:07:46Z</time>
      </trkpt>
      <trkpt lat="42.5506340" lon="-8.8968800">
        <ele>3.6</ele>
        <time>2020-08-07T10:07:47Z</time>
      </trkpt>
      <trkpt lat="42.5506340" lon="-8.8968800">
        <ele>3.2</ele>
        <time>2020-08-07T10:07:48Z</time>
      </trkpt>
      <trkpt lat="42.5506080" lon="-8.8969030">
        <ele>3.4</ele>
        <time>2020-08-07T10:07:49Z</time>
      </trkpt>
      <trkpt lat="42.5506080" lon="-8.8969030">
        <ele>3.2</ele>
        <time>2020-08-07T10:07:50Z</time>
      </trkpt>
      <trkpt lat="42.5505860" lon="-8.8969270">
        <ele>3.2</ele>
        <time>2020-08-07T10:07:51Z</time>
      </trkpt>
      <trkpt lat="42.5505660" lon="-8.8969400">
        <ele>2.8</ele>
        <time>2020-08-07T10:07:52Z</time>
      </trkpt>
      <trkpt lat="42.5505660" lon="-8.8969400">
        <ele>3.2</ele>
        <time>2020-08-07T10:07:53Z</time>
      </trkpt>
      <trkpt lat="42.5505410" lon="-8.8969650">
        <ele>3.2</ele>
        <time>2020-08-07T10:07:54Z</time>
      </trkpt>
      <trkpt lat="42.5505410" lon="-8.8969650">
        <ele>3.0</ele>
        <time>2020-08-07T10:07:55Z</time>
      </trkpt>
      <trkpt lat="42.5505180" lon="-8.8969920">
        <ele>3.0</ele>
        <time>2020-08-07T10:07:56Z</time>
      </trkpt>
      <trkpt lat="42.5505180" lon="-8.8969920">
        <ele>3.0</ele>
        <time>2020-08-07T10:07:57Z</time>
      </trkpt>
      <trkpt lat="42.5504960" lon="-8.8970200">
        <ele>3.0</ele>
        <time>2020-08-07T10:07:58Z</time>
      </trkpt>
      <trkpt lat="42.5504800" lon="-8.8970340">
        <ele>3.2</ele>
        <time>2020-08-07T10:07:59Z</time>
      </trkpt>
      <trkpt lat="42.5504640" lon="-8.8970470">
        <ele>3.6</ele>
        <time>2020-08-07T10:08:00Z</time>
      </trkpt>
      <trkpt lat="42.5504480" lon="-8.8970600">
        <ele>3.6</ele>
        <time>2020-08-07T10:08:01Z</time>
      </trkpt>
      <trkpt lat="42.5504480" lon="-8.8970600">
        <ele>3.4</ele>
        <time>2020-08-07T10:08:02Z</time>
      </trkpt>
      <trkpt lat="42.5504260" lon="-8.8970850">
        <ele>3.8</ele>
        <time>2020-08-07T10:08:03Z</time>
      </trkpt>
      <trkpt lat="42.5504260" lon="-8.8970850">
        <ele>4.0</ele>
        <time>2020-08-07T10:08:04Z</time>
      </trkpt>
      <trkpt lat="42.5503970" lon="-8.8971060">
        <ele>4.2</ele>
        <time>2020-08-07T10:08:05Z</time>
      </trkpt>
      <trkpt lat="42.5503970" lon="-8.8971060">
        <ele>3.8</ele>
        <time>2020-08-07T10:08:06Z</time>
      </trkpt>
      <trkpt lat="42.5503680" lon="-8.8971270">
        <ele>3.8</ele>
        <time>2020-08-07T10:08:07Z</time>
      </trkpt>
      <trkpt lat="42.5503680" lon="-8.8971270">
        <ele>3.8</ele>
        <time>2020-08-07T10:08:08Z</time>
      </trkpt>
      <trkpt lat="42.5503420" lon="-8.8971460">
        <ele>3.8</ele>
        <time>2020-08-07T10:08:09Z</time>
      </trkpt>
      <trkpt lat="42.5503420" lon="-8.8971460">
        <ele>4.0</ele>
        <time>2020-08-07T10:08:10Z</time>
      </trkpt>
      <trkpt lat="42.5503200" lon="-8.8971620">
        <ele>4.0</ele>
        <time>2020-08-07T10:08:11Z</time>
      </trkpt>
      <trkpt lat="42.5503200" lon="-8.8971620">
        <ele>4.0</ele>
        <time>2020-08-07T10:08:12Z</time>
      </trkpt>
      <trkpt lat="42.5502980" lon="-8.8971720">
        <ele>3.8</ele>
        <time>2020-08-07T10:08:13Z</time>
      </trkpt>
      <trkpt lat="42.5502980" lon="-8.8971720">
        <ele>4.0</ele>
        <time>2020-08-07T10:08:14Z</time>
      </trkpt>
      <trkpt lat="42.5502750" lon="-8.8971820">
        <ele>3.8</ele>
        <time>2020-08-07T10:08:15Z</time>
      </trkpt>
      <trkpt lat="42.5502750" lon="-8.8971820">
        <ele>3.8</ele>
        <time>2020-08-07T10:08:16Z</time>
      </trkpt>
      <trkpt lat="42.5502560" lon="-8.8971860">
        <ele>3.8</ele>
        <time>2020-08-07T10:08:17Z</time>
      </trkpt>
      <trkpt lat="42.5502560" lon="-8.8971860">
        <ele>3.6</ele>
        <time>2020-08-07T10:08:18Z</time>
      </trkpt>
      <trkpt lat="42.5502270" lon="-8.8971900">
        <ele>3.6</ele>
        <time>2020-08-07T10:08:19Z</time>
      </trkpt>
      <trkpt lat="42.5502270" lon="-8.8971900">
        <ele>3.4</ele>
        <time>2020-08-07T10:08:20Z</time>
      </trkpt>
      <trkpt lat="42.5502020" lon="-8.8971970">
        <ele>3.4</ele>
        <time>2020-08-07T10:08:21Z</time>
      </trkpt>
      <trkpt lat="42.5502020" lon="-8.8971970">
        <ele>3.4</ele>
        <time>2020-08-07T10:08:22Z</time>
      </trkpt>
      <trkpt lat="42.5501790" lon="-8.8972060">
        <ele>3.2</ele>
        <time>2020-08-07T10:08:23Z</time>
      </trkpt>
      <trkpt lat="42.5501790" lon="-8.8972060">
        <ele>3.2</ele>
        <time>2020-08-07T10:08:24Z</time>
      </trkpt>
      <trkpt lat="42.5501570" lon="-8.8972200">
        <ele>3.4</ele>
        <time>2020-08-07T10:08:25Z</time>
      </trkpt>
      <trkpt lat="42.5501570" lon="-8.8972200">
        <ele>3.8</ele>
        <time>2020-08-07T10:08:26Z</time>
      </trkpt>
      <trkpt lat="42.5501250" lon="-8.8972280">
        <ele>3.8</ele>
        <time>2020-08-07T10:08:27Z</time>
      </trkpt>
      <trkpt lat="42.5501250" lon="-8.8972280">
        <ele>3.6</ele>
        <time>2020-08-07T10:08:28Z</time>
      </trkpt>
      <trkpt lat="42.5500960" lon="-8.8972370">
        <ele>3.6</ele>
        <time>2020-08-07T10:08:29Z</time>
      </trkpt>
      <trkpt lat="42.5500960" lon="-8.8972370">
        <ele>3.6</ele>
        <time>2020-08-07T10:08:30Z</time>
      </trkpt>
      <trkpt lat="42.5500610" lon="-8.8972430">
        <ele>3.6</ele>
        <time>2020-08-07T10:08:31Z</time>
      </trkpt>
      <trkpt lat="42.5500610" lon="-8.8972430">
        <ele>3.6</ele>
        <time>2020-08-07T10:08:32Z</time>
      </trkpt>
      <trkpt lat="42.5500290" lon="-8.8972500">
        <ele>3.6</ele>
        <time>2020-08-07T10:08:33Z</time>
      </trkpt>
      <trkpt lat="42.5500290" lon="-8.8972500">
        <ele>3.6</ele>
        <time>2020-08-07T10:08:34Z</time>
      </trkpt>
      <trkpt lat="42.5500000" lon="-8.8972480">
        <ele>3.6</ele>
        <time>2020-08-07T10:08:35Z</time>
      </trkpt>
      <trkpt lat="42.5500000" lon="-8.8972480">
        <ele>3.8</ele>
        <time>2020-08-07T10:08:36Z</time>
      </trkpt>
      <trkpt lat="42.5499650" lon="-8.8972460">
        <ele>3.8</ele>
        <time>2020-08-07T10:08:37Z</time>
      </trkpt>
      <trkpt lat="42.5499650" lon="-8.8972460">
        <ele>3.6</ele>
        <time>2020-08-07T10:08:38Z</time>
      </trkpt>
      <trkpt lat="42.5499330" lon="-8.8972480">
        <ele>3.6</ele>
        <time>2020-08-07T10:08:39Z</time>
      </trkpt>
      <trkpt lat="42.5499330" lon="-8.8972480">
        <ele>3.6</ele>
        <time>2020-08-07T10:08:40Z</time>
      </trkpt>
      <trkpt lat="42.5499010" lon="-8.8972480">
        <ele>4.0</ele>
        <time>2020-08-07T10:08:41Z</time>
      </trkpt>
      <trkpt lat="42.5498780" lon="-8.8972480">
        <ele>4.0</ele>
        <time>2020-08-07T10:08:42Z</time>
      </trkpt>
      <trkpt lat="42.5498780" lon="-8.8972480">
        <ele>4.2</ele>
        <time>2020-08-07T10:08:43Z</time>
      </trkpt>
      <trkpt lat="42.5498460" lon="-8.8972380">
        <ele>4.2</ele>
        <time>2020-08-07T10:08:44Z</time>
      </trkpt>
      <trkpt lat="42.5498460" lon="-8.8972380">
        <ele>4.0</ele>
        <time>2020-08-07T10:08:45Z</time>
      </trkpt>
      <trkpt lat="42.5498180" lon="-8.8972330">
        <ele>3.0</ele>
        <time>2020-08-07T10:08:46Z</time>
      </trkpt>
      <trkpt lat="42.5498180" lon="-8.8972330">
        <ele>2.8</ele>
        <time>2020-08-07T10:08:47Z</time>
      </trkpt>
      <trkpt lat="42.5497890" lon="-8.8972320">
        <ele>2.8</ele>
        <time>2020-08-07T10:08:48Z</time>
      </trkpt>
      <trkpt lat="42.5497700" lon="-8.8972330">
        <ele>3.0</ele>
        <time>2020-08-07T10:08:49Z</time>
      </trkpt>
      <trkpt lat="42.5497700" lon="-8.8972330">
        <ele>2.8</ele>
        <time>2020-08-07T10:08:50Z</time>
      </trkpt>
      <trkpt lat="42.5497410" lon="-8.8972400">
        <ele>3.0</ele>
        <time>2020-08-07T10:08:51Z</time>
      </trkpt>
      <trkpt lat="42.5497410" lon="-8.8972400">
        <ele>3.2</ele>
        <time>2020-08-07T10:08:52Z</time>
      </trkpt>
      <trkpt lat="42.5497090" lon="-8.8972520">
        <ele>3.6</ele>
        <time>2020-08-07T10:08:53Z</time>
      </trkpt>
      <trkpt lat="42.5497090" lon="-8.8972520">
        <ele>3.6</ele>
        <time>2020-08-07T10:08:54Z</time>
      </trkpt>
      <trkpt lat="42.5496800" lon="-8.8972660">
        <ele>4.0</ele>
        <time>2020-08-07T10:08:55Z</time>
      </trkpt>
      <trkpt lat="42.5496800" lon="-8.8972660">
        <ele>3.8</ele>
        <time>2020-08-07T10:08:56Z</time>
      </trkpt>
      <trkpt lat="42.5496510" lon="-8.8972860">
        <ele>4.0</ele>
        <time>2020-08-07T10:08:57Z</time>
      </trkpt>
      <trkpt lat="42.5496510" lon="-8.8972860">
        <ele>4.0</ele>
        <time>2020-08-07T10:08:58Z</time>
      </trkpt>
      <trkpt lat="42.5496260" lon="-8.8973020">
        <ele>4.0</ele>
        <time>2020-08-07T10:08:59Z</time>
      </trkpt>
      <trkpt lat="42.5496260" lon="-8.8973020">
        <ele>3.8</ele>
        <time>2020-08-07T10:09:00Z</time>
      </trkpt>
      <trkpt lat="42.5496000" lon="-8.8973150">
        <ele>4.2</ele>
        <time>2020-08-07T10:09:01Z</time>
      </trkpt>
      <trkpt lat="42.5496000" lon="-8.8973150">
        <ele>4.4</ele>
        <time>2020-08-07T10:09:02Z</time>
      </trkpt>
      <trkpt lat="42.5495680" lon="-8.8973250">
        <ele>4.4</ele>
        <time>2020-08-07T10:09:03Z</time>
      </trkpt>
      <trkpt lat="42.5495680" lon="-8.8973250">
        <ele>4.4</ele>
        <time>2020-08-07T10:09:04Z</time>
      </trkpt>
      <trkpt lat="42.5495420" lon="-8.8973280">
        <ele>4.6</ele>
        <time>2020-08-07T10:09:05Z</time>
      </trkpt>
      <trkpt lat="42.5495420" lon="-8.8973280">
        <ele>4.4</ele>
        <time>2020-08-07T10:09:06Z</time>
      </trkpt>
      <trkpt lat="42.5495200" lon="-8.8973280">
        <ele>4.6</ele>
        <time>2020-08-07T10:09:07Z</time>
      </trkpt>
      <trkpt lat="42.5495010" lon="-8.8973330">
        <ele>5.4</ele>
        <time>2020-08-07T10:09:08Z</time>
      </trkpt>
      <trkpt lat="42.5494820" lon="-8.8973330">
        <ele>6.0</ele>
        <time>2020-08-07T10:09:09Z</time>
      </trkpt>
      <trkpt lat="42.5494820" lon="-8.8973330">
        <ele>6.6</ele>
        <time>2020-08-07T10:09:10Z</time>
      </trkpt>
      <trkpt lat="42.5494500" lon="-8.8973370">
        <ele>6.6</ele>
        <time>2020-08-07T10:09:11Z</time>
      </trkpt>
      <trkpt lat="42.5494300" lon="-8.8973400">
        <ele>6.6</ele>
        <time>2020-08-07T10:09:12Z</time>
      </trkpt>
      <trkpt lat="42.5494300" lon="-8.8973400">
        <ele>6.4</ele>
        <time>2020-08-07T10:09:13Z</time>
      </trkpt>
      <trkpt lat="42.5494050" lon="-8.8973510">
        <ele>6.2</ele>
        <time>2020-08-07T10:09:14Z</time>
      </trkpt>
      <trkpt lat="42.5494050" lon="-8.8973510">
        <ele>6.4</ele>
        <time>2020-08-07T10:09:15Z</time>
      </trkpt>
      <trkpt lat="42.5493730" lon="-8.8973640">
        <ele>6.0</ele>
        <time>2020-08-07T10:09:16Z</time>
      </trkpt>
      <trkpt lat="42.5493730" lon="-8.8973640">
        <ele>6.0</ele>
        <time>2020-08-07T10:09:17Z</time>
      </trkpt>
      <trkpt lat="42.5493440" lon="-8.8973730">
        <ele>5.8</ele>
        <time>2020-08-07T10:09:18Z</time>
      </trkpt>
      <trkpt lat="42.5493440" lon="-8.8973730">
        <ele>5.4</ele>
        <time>2020-08-07T10:09:19Z</time>
      </trkpt>
      <trkpt lat="42.5493120" lon="-8.8973840">
        <ele>5.4</ele>
        <time>2020-08-07T10:09:20Z</time>
      </trkpt>
      <trkpt lat="42.5493120" lon="-8.8973840">
        <ele>5.6</ele>
        <time>2020-08-07T10:09:21Z</time>
      </trkpt>
      <trkpt lat="42.5492770" lon="-8.8973900">
        <ele>6.0</ele>
        <time>2020-08-07T10:09:22Z</time>
      </trkpt>
      <trkpt lat="42.5492770" lon="-8.8973900">
        <ele>6.4</ele>
        <time>2020-08-07T10:09:23Z</time>
      </trkpt>
      <trkpt lat="42.5492420" lon="-8.8973950">
        <ele>6.6</ele>
        <time>2020-08-07T10:09:24Z</time>
      </trkpt>
      <trkpt lat="42.5492420" lon="-8.8973950">
        <ele>6.2</ele>
        <time>2020-08-07T10:09:25Z</time>
      </trkpt>
      <trkpt lat="42.5492100" lon="-8.8973980">
        <ele>6.2</ele>
        <time>2020-08-07T10:09:26Z</time>
      </trkpt>
      <trkpt lat="42.5492100" lon="-8.8973980">
        <ele>5.8</ele>
        <time>2020-08-07T10:09:27Z</time>
      </trkpt>
      <trkpt lat="42.5491780" lon="-8.8974040">
        <ele>5.2</ele>
        <time>2020-08-07T10:09:28Z</time>
      </trkpt>
      <trkpt lat="42.5491780" lon="-8.8974040">
        <ele>5.0</ele>
        <time>2020-08-07T10:09:29Z</time>
      </trkpt>
      <trkpt lat="42.5491490" lon="-8.8974090">
        <ele>4.8</ele>
        <time>2020-08-07T10:09:30Z</time>
      </trkpt>
      <trkpt lat="42.5491490" lon="-8.8974090">
        <ele>5.0</ele>
        <time>2020-08-07T10:09:31Z</time>
      </trkpt>
      <trkpt lat="42.5491230" lon="-8.8974140">
        <ele>5.2</ele>
        <time>2020-08-07T10:09:32Z</time>
      </trkpt>
      <trkpt lat="42.5491040" lon="-8.8974170">
        <ele>5.2</ele>
        <time>2020-08-07T10:09:33Z</time>
      </trkpt>
      <trkpt lat="42.5490850" lon="-8.8974200">
        <ele>5.4</ele>
        <time>2020-08-07T10:09:34Z</time>
      </trkpt>
      <trkpt lat="42.5490850" lon="-8.8974200">
        <ele>5.6</ele>
        <time>2020-08-07T10:09:35Z</time>
      </trkpt>
      <trkpt lat="42.5490530" lon="-8.8974260">
        <ele>5.4</ele>
        <time>2020-08-07T10:09:36Z</time>
      </trkpt>
      <trkpt lat="42.5490530" lon="-8.8974260">
        <ele>5.4</ele>
        <time>2020-08-07T10:09:37Z</time>
      </trkpt>
      <trkpt lat="42.5490240" lon="-8.8974290">
        <ele>5.2</ele>
        <time>2020-08-07T10:09:38Z</time>
      </trkpt>
      <trkpt lat="42.5490240" lon="-8.8974290">
        <ele>5.0</ele>
        <time>2020-08-07T10:09:39Z</time>
      </trkpt>
      <trkpt lat="42.5489920" lon="-8.8974350">
        <ele>4.6</ele>
        <time>2020-08-07T10:09:40Z</time>
      </trkpt>
      <trkpt lat="42.5489920" lon="-8.8974350">
        <ele>4.6</ele>
        <time>2020-08-07T10:09:41Z</time>
      </trkpt>
      <trkpt lat="42.5489660" lon="-8.8974380">
        <ele>4.4</ele>
        <time>2020-08-07T10:09:42Z</time>
      </trkpt>
      <trkpt lat="42.5489660" lon="-8.8974380">
        <ele>4.0</ele>
        <time>2020-08-07T10:09:43Z</time>
      </trkpt>
      <trkpt lat="42.5489340" lon="-8.8974380">
        <ele>3.8</ele>
        <time>2020-08-07T10:09:44Z</time>
      </trkpt>
      <trkpt lat="42.5489340" lon="-8.8974380">
        <ele>4.0</ele>
        <time>2020-08-07T10:09:45Z</time>
      </trkpt>
      <trkpt lat="42.5489060" lon="-8.8974380">
        <ele>4.2</ele>
        <time>2020-08-07T10:09:46Z</time>
      </trkpt>
      <trkpt lat="42.5489060" lon="-8.8974380">
        <ele>4.0</ele>
        <time>2020-08-07T10:09:47Z</time>
      </trkpt>
      <trkpt lat="42.5488740" lon="-8.8974420">
        <ele>3.8</ele>
        <time>2020-08-07T10:09:48Z</time>
      </trkpt>
      <trkpt lat="42.5488740" lon="-8.8974420">
        <ele>4.4</ele>
        <time>2020-08-07T10:09:49Z</time>
      </trkpt>
      <trkpt lat="42.5488450" lon="-8.8974490">
        <ele>4.4</ele>
        <time>2020-08-07T10:09:50Z</time>
      </trkpt>
      <trkpt lat="42.5488450" lon="-8.8974490">
        <ele>4.2</ele>
        <time>2020-08-07T10:09:51Z</time>
      </trkpt>
      <trkpt lat="42.5488130" lon="-8.8974570">
        <ele>4.2</ele>
        <time>2020-08-07T10:09:52Z</time>
      </trkpt>
      <trkpt lat="42.5488130" lon="-8.8974570">
        <ele>4.4</ele>
        <time>2020-08-07T10:09:53Z</time>
      </trkpt>
      <trkpt lat="42.5487810" lon="-8.8974650">
        <ele>4.2</ele>
        <time>2020-08-07T10:09:54Z</time>
      </trkpt>
      <trkpt lat="42.5487810" lon="-8.8974650">
        <ele>4.0</ele>
        <time>2020-08-07T10:09:55Z</time>
      </trkpt>
      <trkpt lat="42.5487520" lon="-8.8974750">
        <ele>3.6</ele>
        <time>2020-08-07T10:09:56Z</time>
      </trkpt>
      <trkpt lat="42.5487520" lon="-8.8974750">
        <ele>3.6</ele>
        <time>2020-08-07T10:09:57Z</time>
      </trkpt>
      <trkpt lat="42.5487260" lon="-8.8974840">
        <ele>3.6</ele>
        <time>2020-08-07T10:09:58Z</time>
      </trkpt>
      <trkpt lat="42.5487260" lon="-8.8974840">
        <ele>3.8</ele>
        <time>2020-08-07T10:09:59Z</time>
      </trkpt>
      <trkpt lat="42.5486910" lon="-8.8974890">
        <ele>3.6</ele>
        <time>2020-08-07T10:10:00Z</time>
      </trkpt>
      <trkpt lat="42.5486910" lon="-8.8974890">
        <ele>3.6</ele>
        <time>2020-08-07T10:10:01Z</time>
      </trkpt>
      <trkpt lat="42.5486660" lon="-8.8974940">
        <ele>3.4</ele>
        <time>2020-08-07T10:10:02Z</time>
      </trkpt>
      <trkpt lat="42.5486660" lon="-8.8974940">
        <ele>3.2</ele>
        <time>2020-08-07T10:10:03Z</time>
      </trkpt>
      <trkpt lat="42.5486370" lon="-8.8974960">
        <ele>3.2</ele>
        <time>2020-08-07T10:10:04Z</time>
      </trkpt>
      <trkpt lat="42.5486370" lon="-8.8974960">
        <ele>3.2</ele>
        <time>2020-08-07T10:10:05Z</time>
      </trkpt>
      <trkpt lat="42.5486080" lon="-8.8975000">
        <ele>3.4</ele>
        <time>2020-08-07T10:10:06Z</time>
      </trkpt>
      <trkpt lat="42.5486080" lon="-8.8975000">
        <ele>3.8</ele>
        <time>2020-08-07T10:10:07Z</time>
      </trkpt>
      <trkpt lat="42.5485760" lon="-8.8975020">
        <ele>3.6</ele>
        <time>2020-08-07T10:10:08Z</time>
      </trkpt>
      <trkpt lat="42.5485760" lon="-8.8975020">
        <ele>3.4</ele>
        <time>2020-08-07T10:10:09Z</time>
      </trkpt>
      <trkpt lat="42.5485500" lon="-8.8975050">
        <ele>3.2</ele>
        <time>2020-08-07T10:10:10Z</time>
      </trkpt>
      <trkpt lat="42.5485500" lon="-8.8975050">
        <ele>2.8</ele>
        <time>2020-08-07T10:10:11Z</time>
      </trkpt>
      <trkpt lat="42.5485220" lon="-8.8975090">
        <ele>2.6</ele>
        <time>2020-08-07T10:10:12Z</time>
      </trkpt>
      <trkpt lat="42.5485220" lon="-8.8975090">
        <ele>2.4</ele>
        <time>2020-08-07T10:10:13Z</time>
      </trkpt>
      <trkpt lat="42.5484930" lon="-8.8975150">
        <ele>2.2</ele>
        <time>2020-08-07T10:10:14Z</time>
      </trkpt>
      <trkpt lat="42.5484930" lon="-8.8975150">
        <ele>2.6</ele>
        <time>2020-08-07T10:10:15Z</time>
      </trkpt>
      <trkpt lat="42.5484610" lon="-8.8975230">
        <ele>2.2</ele>
        <time>2020-08-07T10:10:16Z</time>
      </trkpt>
      <trkpt lat="42.5484610" lon="-8.8975230">
        <ele>2.6</ele>
        <time>2020-08-07T10:10:17Z</time>
      </trkpt>
      <trkpt lat="42.5484350" lon="-8.8975260">
        <ele>2.4</ele>
        <time>2020-08-07T10:10:18Z</time>
      </trkpt>
      <trkpt lat="42.5484350" lon="-8.8975260">
        <ele>2.8</ele>
        <time>2020-08-07T10:10:19Z</time>
      </trkpt>
      <trkpt lat="42.5484030" lon="-8.8975380">
        <ele>2.8</ele>
        <time>2020-08-07T10:10:20Z</time>
      </trkpt>
      <trkpt lat="42.5484030" lon="-8.8975380">
        <ele>3.0</ele>
        <time>2020-08-07T10:10:21Z</time>
      </trkpt>
      <trkpt lat="42.5483710" lon="-8.8975430">
        <ele>3.2</ele>
        <time>2020-08-07T10:10:22Z</time>
      </trkpt>
      <trkpt lat="42.5483710" lon="-8.8975430">
        <ele>3.2</ele>
        <time>2020-08-07T10:10:23Z</time>
      </trkpt>
      <trkpt lat="42.5483360" lon="-8.8975500">
        <ele>3.4</ele>
        <time>2020-08-07T10:10:24Z</time>
      </trkpt>
      <trkpt lat="42.5483360" lon="-8.8975500">
        <ele>3.0</ele>
        <time>2020-08-07T10:10:25Z</time>
      </trkpt>
      <trkpt lat="42.5483040" lon="-8.8975510">
        <ele>3.0</ele>
        <time>2020-08-07T10:10:26Z</time>
      </trkpt>
      <trkpt lat="42.5483040" lon="-8.8975510">
        <ele>3.6</ele>
        <time>2020-08-07T10:10:27Z</time>
      </trkpt>
      <trkpt lat="42.5482720" lon="-8.8975600">
        <ele>3.8</ele>
        <time>2020-08-07T10:10:28Z</time>
      </trkpt>
      <trkpt lat="42.5482720" lon="-8.8975600">
        <ele>4.2</ele>
        <time>2020-08-07T10:10:29Z</time>
      </trkpt>
      <trkpt lat="42.5482370" lon="-8.8975710">
        <ele>4.4</ele>
        <time>2020-08-07T10:10:30Z</time>
      </trkpt>
      <trkpt lat="42.5482370" lon="-8.8975710">
        <ele>4.4</ele>
        <time>2020-08-07T10:10:31Z</time>
      </trkpt>
      <trkpt lat="42.5482050" lon="-8.8975830">
        <ele>4.2</ele>
        <time>2020-08-07T10:10:32Z</time>
      </trkpt>
      <trkpt lat="42.5482050" lon="-8.8975830">
        <ele>4.2</ele>
        <time>2020-08-07T10:10:33Z</time>
      </trkpt>
      <trkpt lat="42.5481730" lon="-8.8975940">
        <ele>3.8</ele>
        <time>2020-08-07T10:10:34Z</time>
      </trkpt>
      <trkpt lat="42.5481730" lon="-8.8975940">
        <ele>4.0</ele>
        <time>2020-08-07T10:10:35Z</time>
      </trkpt>
      <trkpt lat="42.5481500" lon="-8.8976030">
        <ele>3.6</ele>
        <time>2020-08-07T10:10:36Z</time>
      </trkpt>
      <trkpt lat="42.5481500" lon="-8.8976030">
        <ele>3.4</ele>
        <time>2020-08-07T10:10:37Z</time>
      </trkpt>
      <trkpt lat="42.5481250" lon="-8.8976150">
        <ele>3.0</ele>
        <time>2020-08-07T10:10:38Z</time>
      </trkpt>
      <trkpt lat="42.5481250" lon="-8.8976150">
        <ele>3.0</ele>
        <time>2020-08-07T10:10:39Z</time>
      </trkpt>
      <trkpt lat="42.5480960" lon="-8.8976230">
        <ele>2.4</ele>
        <time>2020-08-07T10:10:40Z</time>
      </trkpt>
      <trkpt lat="42.5480960" lon="-8.8976230">
        <ele>2.4</ele>
        <time>2020-08-07T10:10:41Z</time>
      </trkpt>
      <trkpt lat="42.5480610" lon="-8.8976290">
        <ele>2.4</ele>
        <time>2020-08-07T10:10:42Z</time>
      </trkpt>
      <trkpt lat="42.5480420" lon="-8.8976320">
        <ele>2.6</ele>
        <time>2020-08-07T10:10:43Z</time>
      </trkpt>
      <trkpt lat="42.5480220" lon="-8.8976340">
        <ele>2.6</ele>
        <time>2020-08-07T10:10:44Z</time>
      </trkpt>
      <trkpt lat="42.5480030" lon="-8.8976370">
        <ele>2.8</ele>
        <time>2020-08-07T10:10:45Z</time>
      </trkpt>
      <trkpt lat="42.5480030" lon="-8.8976370">
        <ele>2.8</ele>
        <time>2020-08-07T10:10:46Z</time>
      </trkpt>
      <trkpt lat="42.5479710" lon="-8.8976420">
        <ele>2.8</ele>
        <time>2020-08-07T10:10:47Z</time>
      </trkpt>
      <trkpt lat="42.5479520" lon="-8.8976450">
        <ele>3.4</ele>
        <time>2020-08-07T10:10:48Z</time>
      </trkpt>
      <trkpt lat="42.5479330" lon="-8.8976480">
        <ele>3.6</ele>
        <time>2020-08-07T10:10:49Z</time>
      </trkpt>
      <trkpt lat="42.5479330" lon="-8.8976480">
        <ele>3.4</ele>
        <time>2020-08-07T10:10:50Z</time>
      </trkpt>
      <trkpt lat="42.5479040" lon="-8.8976550">
        <ele>3.4</ele>
        <time>2020-08-07T10:10:51Z</time>
      </trkpt>
      <trkpt lat="42.5479040" lon="-8.8976550">
        <ele>3.4</ele>
        <time>2020-08-07T10:10:52Z</time>
      </trkpt>
      <trkpt lat="42.5478780" lon="-8.8976620">
        <ele>3.2</ele>
        <time>2020-08-07T10:10:53Z</time>
      </trkpt>
      <trkpt lat="42.5478780" lon="-8.8976620">
        <ele>3.2</ele>
        <time>2020-08-07T10:10:54Z</time>
      </trkpt>
      <trkpt lat="42.5478430" lon="-8.8976630">
        <ele>3.2</ele>
        <time>2020-08-07T10:10:55Z</time>
      </trkpt>
      <trkpt lat="42.5478430" lon="-8.8976630">
        <ele>2.8</ele>
        <time>2020-08-07T10:10:56Z</time>
      </trkpt>
      <trkpt lat="42.5478110" lon="-8.8976720">
        <ele>2.6</ele>
        <time>2020-08-07T10:10:57Z</time>
      </trkpt>
      <trkpt lat="42.5477920" lon="-8.8976740">
        <ele>2.4</ele>
        <time>2020-08-07T10:10:58Z</time>
      </trkpt>
      <trkpt lat="42.5477920" lon="-8.8976740">
        <ele>2.4</ele>
        <time>2020-08-07T10:10:59Z</time>
      </trkpt>
      <trkpt lat="42.5477600" lon="-8.8976820">
        <ele>2.2</ele>
        <time>2020-08-07T10:11:00Z</time>
      </trkpt>
      <trkpt lat="42.5477600" lon="-8.8976820">
        <ele>2.2</ele>
        <time>2020-08-07T10:11:01Z</time>
      </trkpt>
      <trkpt lat="42.5477280" lon="-8.8976880">
        <ele>2.2</ele>
        <time>2020-08-07T10:11:02Z</time>
      </trkpt>
      <trkpt lat="42.5477280" lon="-8.8976880">
        <ele>2.2</ele>
        <time>2020-08-07T10:11:03Z</time>
      </trkpt>
      <trkpt lat="42.5477020" lon="-8.8976980">
        <ele>2.8</ele>
        <time>2020-08-07T10:11:04Z</time>
      </trkpt>
      <trkpt lat="42.5476830" lon="-8.8977020">
        <ele>2.8</ele>
        <time>2020-08-07T10:11:05Z</time>
      </trkpt>
      <trkpt lat="42.5476830" lon="-8.8977020">
        <ele>3.2</ele>
        <time>2020-08-07T10:11:06Z</time>
      </trkpt>
      <trkpt lat="42.5476540" lon="-8.8977120">
        <ele>2.8</ele>
        <time>2020-08-07T10:11:07Z</time>
      </trkpt>
      <trkpt lat="42.5476350" lon="-8.8977180">
        <ele>2.8</ele>
        <time>2020-08-07T10:11:08Z</time>
      </trkpt>
      <trkpt lat="42.5476160" lon="-8.8977200">
        <ele>2.4</ele>
        <time>2020-08-07T10:11:09Z</time>
      </trkpt>
      <trkpt lat="42.5476160" lon="-8.8977200">
        <ele>2.0</ele>
        <time>2020-08-07T10:11:10Z</time>
      </trkpt>
      <trkpt lat="42.5475810" lon="-8.8977270">
        <ele>2.2</ele>
        <time>2020-08-07T10:11:11Z</time>
      </trkpt>
      <trkpt lat="42.5475810" lon="-8.8977270">
        <ele>2.2</ele>
        <time>2020-08-07T10:11:12Z</time>
      </trkpt>
      <trkpt lat="42.5475490" lon="-8.8977280">
        <ele>2.2</ele>
        <time>2020-08-07T10:11:13Z</time>
      </trkpt>
      <trkpt lat="42.5475490" lon="-8.8977280">
        <ele>2.2</ele>
        <time>2020-08-07T10:11:14Z</time>
      </trkpt>
      <trkpt lat="42.5475170" lon="-8.8977340">
        <ele>2.4</ele>
        <time>2020-08-07T10:11:15Z</time>
      </trkpt>
      <trkpt lat="42.5475170" lon="-8.8977340">
        <ele>2.4</ele>
        <time>2020-08-07T10:11:16Z</time>
      </trkpt>
      <trkpt lat="42.5474880" lon="-8.8977450">
        <ele>2.4</ele>
        <time>2020-08-07T10:11:17Z</time>
      </trkpt>
      <trkpt lat="42.5474690" lon="-8.8977500">
        <ele>2.2</ele>
        <time>2020-08-07T10:11:18Z</time>
      </trkpt>
      <trkpt lat="42.5474690" lon="-8.8977500">
        <ele>2.4</ele>
        <time>2020-08-07T10:11:19Z</time>
      </trkpt>
      <trkpt lat="42.5474430" lon="-8.8977600">
        <ele>2.4</ele>
        <time>2020-08-07T10:11:20Z</time>
      </trkpt>
      <trkpt lat="42.5474430" lon="-8.8977600">
        <ele>2.2</ele>
        <time>2020-08-07T10:11:21Z</time>
      </trkpt>
      <trkpt lat="42.5474140" lon="-8.8977680">
        <ele>2.2</ele>
        <time>2020-08-07T10:11:22Z</time>
      </trkpt>
      <trkpt lat="42.5474140" lon="-8.8977680">
        <ele>2.0</ele>
        <time>2020-08-07T10:11:23Z</time>
      </trkpt>
      <trkpt lat="42.5473860" lon="-8.8977770">
        <ele>1.6</ele>
        <time>2020-08-07T10:11:24Z</time>
      </trkpt>
      <trkpt lat="42.5473680" lon="-8.8977820">
        <ele>1.4</ele>
        <time>2020-08-07T10:11:25Z</time>
      </trkpt>
      <trkpt lat="42.5473500" lon="-8.8977870">
        <ele>1.2</ele>
        <time>2020-08-07T10:11:26Z</time>
      </trkpt>
      <trkpt lat="42.5473500" lon="-8.8977870">
        <ele>0.8</ele>
        <time>2020-08-07T10:11:27Z</time>
      </trkpt>
      <trkpt lat="42.5473250" lon="-8.8977920">
        <ele>0.8</ele>
        <time>2020-08-07T10:11:28Z</time>
      </trkpt>
      <trkpt lat="42.5473250" lon="-8.8977920">
        <ele>0.8</ele>
        <time>2020-08-07T10:11:29Z</time>
      </trkpt>
      <trkpt lat="42.5472960" lon="-8.8977920">
        <ele>1.0</ele>
        <time>2020-08-07T10:11:30Z</time>
      </trkpt>
      <trkpt lat="42.5472960" lon="-8.8977920">
        <ele>1.2</ele>
        <time>2020-08-07T10:11:31Z</time>
      </trkpt>
      <trkpt lat="42.5472640" lon="-8.8977920">
        <ele>1.2</ele>
        <time>2020-08-07T10:11:32Z</time>
      </trkpt>
      <trkpt lat="42.5472640" lon="-8.8977920">
        <ele>1.6</ele>
        <time>2020-08-07T10:11:33Z</time>
      </trkpt>
      <trkpt lat="42.5472320" lon="-8.8977940">
        <ele>1.8</ele>
        <time>2020-08-07T10:11:34Z</time>
      </trkpt>
      <trkpt lat="42.5472320" lon="-8.8977940">
        <ele>1.8</ele>
        <time>2020-08-07T10:11:35Z</time>
      </trkpt>
      <trkpt lat="42.5472030" lon="-8.8978060">
        <ele>2.0</ele>
        <time>2020-08-07T10:11:36Z</time>
      </trkpt>
      <trkpt lat="42.5472030" lon="-8.8978060">
        <ele>1.8</ele>
        <time>2020-08-07T10:11:37Z</time>
      </trkpt>
      <trkpt lat="42.5471780" lon="-8.8978140">
        <ele>1.8</ele>
        <time>2020-08-07T10:11:38Z</time>
      </trkpt>
      <trkpt lat="42.5471780" lon="-8.8978140">
        <ele>1.8</ele>
        <time>2020-08-07T10:11:39Z</time>
      </trkpt>
      <trkpt lat="42.5471490" lon="-8.8978220">
        <ele>1.8</ele>
        <time>2020-08-07T10:11:40Z</time>
      </trkpt>
      <trkpt lat="42.5471300" lon="-8.8978270">
        <ele>1.6</ele>
        <time>2020-08-07T10:11:41Z</time>
      </trkpt>
      <trkpt lat="42.5471300" lon="-8.8978270">
        <ele>1.6</ele>
        <time>2020-08-07T10:11:42Z</time>
      </trkpt>
      <trkpt lat="42.5471040" lon="-8.8978380">
        <ele>1.6</ele>
        <time>2020-08-07T10:11:43Z</time>
      </trkpt>
      <trkpt lat="42.5471040" lon="-8.8978380">
        <ele>1.6</ele>
        <time>2020-08-07T10:11:44Z</time>
      </trkpt>
      <trkpt lat="42.5470780" lon="-8.8978460">
        <ele>1.6</ele>
        <time>2020-08-07T10:11:45Z</time>
      </trkpt>
      <trkpt lat="42.5470780" lon="-8.8978460">
        <ele>1.8</ele>
        <time>2020-08-07T10:11:46Z</time>
      </trkpt>
      <trkpt lat="42.5470500" lon="-8.8978550">
        <ele>1.8</ele>
        <time>2020-08-07T10:11:47Z</time>
      </trkpt>
      <trkpt lat="42.5470500" lon="-8.8978550">
        <ele>2.0</ele>
        <time>2020-08-07T10:11:48Z</time>
      </trkpt>
      <trkpt lat="42.5470210" lon="-8.8978590">
        <ele>2.0</ele>
        <time>2020-08-07T10:11:49Z</time>
      </trkpt>
      <trkpt lat="42.5470210" lon="-8.8978590">
        <ele>2.0</ele>
        <time>2020-08-07T10:11:50Z</time>
      </trkpt>
      <trkpt lat="42.5469890" lon="-8.8978630">
        <ele>2.4</ele>
        <time>2020-08-07T10:11:51Z</time>
      </trkpt>
      <trkpt lat="42.5469890" lon="-8.8978630">
        <ele>2.4</ele>
        <time>2020-08-07T10:11:52Z</time>
      </trkpt>
      <trkpt lat="42.5469600" lon="-8.8978770">
        <ele>2.4</ele>
        <time>2020-08-07T10:11:53Z</time>
      </trkpt>
      <trkpt lat="42.5469600" lon="-8.8978770">
        <ele>2.4</ele>
        <time>2020-08-07T10:11:54Z</time>
      </trkpt>
      <trkpt lat="42.5469280" lon="-8.8978860">
        <ele>2.2</ele>
        <time>2020-08-07T10:11:55Z</time>
      </trkpt>
      <trkpt lat="42.5469280" lon="-8.8978860">
        <ele>2.2</ele>
        <time>2020-08-07T10:11:56Z</time>
      </trkpt>
      <trkpt lat="42.5468990" lon="-8.8978950">
        <ele>2.4</ele>
        <time>2020-08-07T10:11:57Z</time>
      </trkpt>
      <trkpt lat="42.5468990" lon="-8.8978950">
        <ele>2.8</ele>
        <time>2020-08-07T10:11:58Z</time>
      </trkpt>
      <trkpt lat="42.5468640" lon="-8.8979020">
        <ele>3.0</ele>
        <time>2020-08-07T10:11:59Z</time>
      </trkpt>
      <trkpt lat="42.5468640" lon="-8.8979020">
        <ele>3.2</ele>
        <time>2020-08-07T10:12:00Z</time>
      </trkpt>
      <trkpt lat="42.5468380" lon="-8.8979080">
        <ele>3.2</ele>
        <time>2020-08-07T10:12:01Z</time>
      </trkpt>
      <trkpt lat="42.5468380" lon="-8.8979080">
        <ele>3.2</ele>
        <time>2020-08-07T10:12:02Z</time>
      </trkpt>
      <trkpt lat="42.5468100" lon="-8.8979130">
        <ele>3.4</ele>
        <time>2020-08-07T10:12:03Z</time>
      </trkpt>
      <trkpt lat="42.5468100" lon="-8.8979130">
        <ele>3.4</ele>
        <time>2020-08-07T10:12:04Z</time>
      </trkpt>
      <trkpt lat="42.5467740" lon="-8.8979170">
        <ele>3.4</ele>
        <time>2020-08-07T10:12:05Z</time>
      </trkpt>
      <trkpt lat="42.5467740" lon="-8.8979170">
        <ele>3.0</ele>
        <time>2020-08-07T10:12:06Z</time>
      </trkpt>
      <trkpt lat="42.5467490" lon="-8.8979200">
        <ele>2.8</ele>
        <time>2020-08-07T10:12:07Z</time>
      </trkpt>
      <trkpt lat="42.5467490" lon="-8.8979200">
        <ele>2.8</ele>
        <time>2020-08-07T10:12:08Z</time>
      </trkpt>
      <trkpt lat="42.5467200" lon="-8.8979260">
        <ele>2.8</ele>
        <time>2020-08-07T10:12:09Z</time>
      </trkpt>
      <trkpt lat="42.5467200" lon="-8.8979260">
        <ele>2.8</ele>
        <time>2020-08-07T10:12:10Z</time>
      </trkpt>
      <trkpt lat="42.5466880" lon="-8.8979330">
        <ele>3.0</ele>
        <time>2020-08-07T10:12:11Z</time>
      </trkpt>
      <trkpt lat="42.5466880" lon="-8.8979330">
        <ele>2.6</ele>
        <time>2020-08-07T10:12:12Z</time>
      </trkpt>
      <trkpt lat="42.5466620" lon="-8.8979420">
        <ele>2.6</ele>
        <time>2020-08-07T10:12:13Z</time>
      </trkpt>
      <trkpt lat="42.5466620" lon="-8.8979420">
        <ele>2.8</ele>
        <time>2020-08-07T10:12:14Z</time>
      </trkpt>
      <trkpt lat="42.5466340" lon="-8.8979480">
        <ele>1.8</ele>
        <time>2020-08-07T10:12:15Z</time>
      </trkpt>
      <trkpt lat="42.5466340" lon="-8.8979480">
        <ele>1.6</ele>
        <time>2020-08-07T10:12:16Z</time>
      </trkpt>
      <trkpt lat="42.5466080" lon="-8.8979520">
        <ele>1.6</ele>
        <time>2020-08-07T10:12:17Z</time>
      </trkpt>
      <trkpt lat="42.5466080" lon="-8.8979520">
        <ele>1.8</ele>
        <time>2020-08-07T10:12:18Z</time>
      </trkpt>
      <trkpt lat="42.5465760" lon="-8.8979600">
        <ele>2.0</ele>
        <time>2020-08-07T10:12:19Z</time>
      </trkpt>
      <trkpt lat="42.5465570" lon="-8.8979660">
        <ele>2.0</ele>
        <time>2020-08-07T10:12:20Z</time>
      </trkpt>
      <trkpt lat="42.5465570" lon="-8.8979660">
        <ele>2.4</ele>
        <time>2020-08-07T10:12:21Z</time>
      </trkpt>
      <trkpt lat="42.5465250" lon="-8.8979770">
        <ele>2.6</ele>
        <time>2020-08-07T10:12:22Z</time>
      </trkpt>
      <trkpt lat="42.5465250" lon="-8.8979770">
        <ele>2.8</ele>
        <time>2020-08-07T10:12:23Z</time>
      </trkpt>
      <trkpt lat="42.5465020" lon="-8.8979780">
        <ele>2.4</ele>
        <time>2020-08-07T10:12:24Z</time>
      </trkpt>
      <trkpt lat="42.5465020" lon="-8.8979780">
        <ele>2.4</ele>
        <time>2020-08-07T10:12:25Z</time>
      </trkpt>
      <trkpt lat="42.5464700" lon="-8.8979860">
        <ele>2.6</ele>
        <time>2020-08-07T10:12:26Z</time>
      </trkpt>
      <trkpt lat="42.5464700" lon="-8.8979860">
        <ele>2.6</ele>
        <time>2020-08-07T10:12:27Z</time>
      </trkpt>
      <trkpt lat="42.5464420" lon="-8.8979990">
        <ele>2.6</ele>
        <time>2020-08-07T10:12:28Z</time>
      </trkpt>
      <trkpt lat="42.5464420" lon="-8.8979990">
        <ele>3.0</ele>
        <time>2020-08-07T10:12:29Z</time>
      </trkpt>
      <trkpt lat="42.5464100" lon="-8.8980060">
        <ele>3.0</ele>
        <time>2020-08-07T10:12:30Z</time>
      </trkpt>
      <trkpt lat="42.5464100" lon="-8.8980060">
        <ele>3.0</ele>
        <time>2020-08-07T10:12:31Z</time>
      </trkpt>
      <trkpt lat="42.5463780" lon="-8.8980130">
        <ele>3.0</ele>
        <time>2020-08-07T10:12:32Z</time>
      </trkpt>
      <trkpt lat="42.5463780" lon="-8.8980130">
        <ele>2.6</ele>
        <time>2020-08-07T10:12:33Z</time>
      </trkpt>
      <trkpt lat="42.5463520" lon="-8.8980200">
        <ele>2.4</ele>
        <time>2020-08-07T10:12:34Z</time>
      </trkpt>
      <trkpt lat="42.5463520" lon="-8.8980200">
        <ele>2.2</ele>
        <time>2020-08-07T10:12:35Z</time>
      </trkpt>
      <trkpt lat="42.5463230" lon="-8.8980250">
        <ele>2.4</ele>
        <time>2020-08-07T10:12:36Z</time>
      </trkpt>
      <trkpt lat="42.5463230" lon="-8.8980250">
        <ele>2.4</ele>
        <time>2020-08-07T10:12:37Z</time>
      </trkpt>
      <trkpt lat="42.5462910" lon="-8.8980310">
        <ele>2.4</ele>
        <time>2020-08-07T10:12:38Z</time>
      </trkpt>
      <trkpt lat="42.5462910" lon="-8.8980310">
        <ele>2.6</ele>
        <time>2020-08-07T10:12:39Z</time>
      </trkpt>
      <trkpt lat="42.5462620" lon="-8.8980440">
        <ele>2.6</ele>
        <time>2020-08-07T10:12:40Z</time>
      </trkpt>
      <trkpt lat="42.5462620" lon="-8.8980440">
        <ele>2.8</ele>
        <time>2020-08-07T10:12:41Z</time>
      </trkpt>
      <trkpt lat="42.5462340" lon="-8.8980550">
        <ele>2.8</ele>
        <time>2020-08-07T10:12:42Z</time>
      </trkpt>
      <trkpt lat="42.5462340" lon="-8.8980550">
        <ele>3.0</ele>
        <time>2020-08-07T10:12:43Z</time>
      </trkpt>
      <trkpt lat="42.5462080" lon="-8.8980690">
        <ele>3.2</ele>
        <time>2020-08-07T10:12:44Z</time>
      </trkpt>
      <trkpt lat="42.5462080" lon="-8.8980690">
        <ele>3.2</ele>
        <time>2020-08-07T10:12:45Z</time>
      </trkpt>
      <trkpt lat="42.5461790" lon="-8.8980850">
        <ele>3.2</ele>
        <time>2020-08-07T10:12:46Z</time>
      </trkpt>
      <trkpt lat="42.5461790" lon="-8.8980850">
        <ele>3.4</ele>
        <time>2020-08-07T10:12:47Z</time>
      </trkpt>
      <trkpt lat="42.5461540" lon="-8.8980980">
        <ele>3.6</ele>
        <time>2020-08-07T10:12:48Z</time>
      </trkpt>
      <trkpt lat="42.5461340" lon="-8.8981040">
        <ele>3.2</ele>
        <time>2020-08-07T10:12:49Z</time>
      </trkpt>
      <trkpt lat="42.5461340" lon="-8.8981040">
        <ele>3.2</ele>
        <time>2020-08-07T10:12:50Z</time>
      </trkpt>
      <trkpt lat="42.5461090" lon="-8.8981150">
        <ele>2.8</ele>
        <time>2020-08-07T10:12:51Z</time>
      </trkpt>
      <trkpt lat="42.5461090" lon="-8.8981150">
        <ele>3.0</ele>
        <time>2020-08-07T10:12:52Z</time>
      </trkpt>
      <trkpt lat="42.5460770" lon="-8.8981240">
        <ele>2.8</ele>
        <time>2020-08-07T10:12:53Z</time>
      </trkpt>
      <trkpt lat="42.5460770" lon="-8.8981240">
        <ele>2.8</ele>
        <time>2020-08-07T10:12:54Z</time>
      </trkpt>
      <trkpt lat="42.5460510" lon="-8.8981260">
        <ele>2.6</ele>
        <time>2020-08-07T10:12:55Z</time>
      </trkpt>
      <trkpt lat="42.5460510" lon="-8.8981260">
        <ele>2.8</ele>
        <time>2020-08-07T10:12:56Z</time>
      </trkpt>
      <trkpt lat="42.5460190" lon="-8.8981340">
        <ele>3.2</ele>
        <time>2020-08-07T10:12:57Z</time>
      </trkpt>
      <trkpt lat="42.5460190" lon="-8.8981340">
        <ele>3.0</ele>
        <time>2020-08-07T10:12:58Z</time>
      </trkpt>
      <trkpt lat="42.5459900" lon="-8.8981400">
        <ele>3.4</ele>
        <time>2020-08-07T10:12:59Z</time>
      </trkpt>
      <trkpt lat="42.5459900" lon="-8.8981400">
        <ele>3.2</ele>
        <time>2020-08-07T10:13:00Z</time>
      </trkpt>
      <trkpt lat="42.5459580" lon="-8.8981450">
        <ele>3.2</ele>
        <time>2020-08-07T10:13:01Z</time>
      </trkpt>
      <trkpt lat="42.5459580" lon="-8.8981450">
        <ele>3.2</ele>
        <time>2020-08-07T10:13:02Z</time>
      </trkpt>
      <trkpt lat="42.5459300" lon="-8.8981500">
        <ele>3.2</ele>
        <time>2020-08-07T10:13:03Z</time>
      </trkpt>
      <trkpt lat="42.5459300" lon="-8.8981500">
        <ele>3.4</ele>
        <time>2020-08-07T10:13:04Z</time>
      </trkpt>
      <trkpt lat="42.5458980" lon="-8.8981580">
        <ele>3.4</ele>
        <time>2020-08-07T10:13:05Z</time>
      </trkpt>
      <trkpt lat="42.5458980" lon="-8.8981580">
        <ele>3.2</ele>
        <time>2020-08-07T10:13:06Z</time>
      </trkpt>
      <trkpt lat="42.5458720" lon="-8.8981620">
        <ele>3.0</ele>
        <time>2020-08-07T10:13:07Z</time>
      </trkpt>
      <trkpt lat="42.5458720" lon="-8.8981620">
        <ele>2.8</ele>
        <time>2020-08-07T10:13:08Z</time>
      </trkpt>
      <trkpt lat="42.5458460" lon="-8.8981650">
        <ele>2.6</ele>
        <time>2020-08-07T10:13:09Z</time>
      </trkpt>
      <trkpt lat="42.5458460" lon="-8.8981650">
        <ele>2.6</ele>
        <time>2020-08-07T10:13:10Z</time>
      </trkpt>
      <trkpt lat="42.5458180" lon="-8.8981700">
        <ele>2.8</ele>
        <time>2020-08-07T10:13:11Z</time>
      </trkpt>
      <trkpt lat="42.5458180" lon="-8.8981700">
        <ele>2.8</ele>
        <time>2020-08-07T10:13:12Z</time>
      </trkpt>
      <trkpt lat="42.5457920" lon="-8.8981710">
        <ele>3.0</ele>
        <time>2020-08-07T10:13:13Z</time>
      </trkpt>
      <trkpt lat="42.5457920" lon="-8.8981710">
        <ele>3.0</ele>
        <time>2020-08-07T10:13:14Z</time>
      </trkpt>
      <trkpt lat="42.5457600" lon="-8.8981780">
        <ele>3.0</ele>
        <time>2020-08-07T10:13:15Z</time>
      </trkpt>
      <trkpt lat="42.5457600" lon="-8.8981780">
        <ele>2.8</ele>
        <time>2020-08-07T10:13:16Z</time>
      </trkpt>
      <trkpt lat="42.5457310" lon="-8.8981900">
        <ele>2.4</ele>
        <time>2020-08-07T10:13:17Z</time>
      </trkpt>
      <trkpt lat="42.5457310" lon="-8.8981900">
        <ele>2.4</ele>
        <time>2020-08-07T10:13:18Z</time>
      </trkpt>
      <trkpt lat="42.5456990" lon="-8.8981980">
        <ele>2.4</ele>
        <time>2020-08-07T10:13:19Z</time>
      </trkpt>
      <trkpt lat="42.5456990" lon="-8.8981980">
        <ele>2.4</ele>
        <time>2020-08-07T10:13:20Z</time>
      </trkpt>
      <trkpt lat="42.5456740" lon="-8.8982030">
        <ele>2.4</ele>
        <time>2020-08-07T10:13:21Z</time>
      </trkpt>
      <trkpt lat="42.5456740" lon="-8.8982030">
        <ele>2.4</ele>
        <time>2020-08-07T10:13:22Z</time>
      </trkpt>
      <trkpt lat="42.5456480" lon="-8.8982090">
        <ele>2.8</ele>
        <time>2020-08-07T10:13:23Z</time>
      </trkpt>
      <trkpt lat="42.5456480" lon="-8.8982090">
        <ele>2.2</ele>
        <time>2020-08-07T10:13:24Z</time>
      </trkpt>
      <trkpt lat="42.5456160" lon="-8.8982100">
        <ele>2.2</ele>
        <time>2020-08-07T10:13:25Z</time>
      </trkpt>
      <trkpt lat="42.5456160" lon="-8.8982100">
        <ele>2.6</ele>
        <time>2020-08-07T10:13:26Z</time>
      </trkpt>
      <trkpt lat="42.5455900" lon="-8.8982150">
        <ele>2.6</ele>
        <time>2020-08-07T10:13:27Z</time>
      </trkpt>
      <trkpt lat="42.5455900" lon="-8.8982150">
        <ele>2.6</ele>
        <time>2020-08-07T10:13:28Z</time>
      </trkpt>
      <trkpt lat="42.5455580" lon="-8.8982150">
        <ele>2.2</ele>
        <time>2020-08-07T10:13:29Z</time>
      </trkpt>
      <trkpt lat="42.5455580" lon="-8.8982150">
        <ele>1.8</ele>
        <time>2020-08-07T10:13:30Z</time>
      </trkpt>
      <trkpt lat="42.5455330" lon="-8.8982140">
        <ele>1.6</ele>
        <time>2020-08-07T10:13:31Z</time>
      </trkpt>
      <trkpt lat="42.5455330" lon="-8.8982140">
        <ele>1.4</ele>
        <time>2020-08-07T10:13:32Z</time>
      </trkpt>
      <trkpt lat="42.5455040" lon="-8.8982100">
        <ele>1.6</ele>
        <time>2020-08-07T10:13:33Z</time>
      </trkpt>
      <trkpt lat="42.5455040" lon="-8.8982100">
        <ele>1.0</ele>
        <time>2020-08-07T10:13:34Z</time>
      </trkpt>
      <trkpt lat="42.5454750" lon="-8.8982150">
        <ele>0.8</ele>
        <time>2020-08-07T10:13:35Z</time>
      </trkpt>
      <trkpt lat="42.5454750" lon="-8.8982150">
        <ele>0.8</ele>
        <time>2020-08-07T10:13:36Z</time>
      </trkpt>
      <trkpt lat="42.5454430" lon="-8.8982260">
        <ele>0.8</ele>
        <time>2020-08-07T10:13:37Z</time>
      </trkpt>
      <trkpt lat="42.5454430" lon="-8.8982260">
        <ele>0.8</ele>
        <time>2020-08-07T10:13:38Z</time>
      </trkpt>
      <trkpt lat="42.5454180" lon="-8.8982420">
        <ele>0.8</ele>
        <time>2020-08-07T10:13:39Z</time>
      </trkpt>
      <trkpt lat="42.5454180" lon="-8.8982420">
        <ele>0.6</ele>
        <time>2020-08-07T10:13:40Z</time>
      </trkpt>
      <trkpt lat="42.5453920" lon="-8.8982630">
        <ele>0.8</ele>
        <time>2020-08-07T10:13:41Z</time>
      </trkpt>
      <trkpt lat="42.5453920" lon="-8.8982630">
        <ele>0.8</ele>
        <time>2020-08-07T10:13:42Z</time>
      </trkpt>
      <trkpt lat="42.5453630" lon="-8.8982850">
        <ele>0.8</ele>
        <time>2020-08-07T10:13:43Z</time>
      </trkpt>
      <trkpt lat="42.5453630" lon="-8.8982850">
        <ele>1.2</ele>
        <time>2020-08-07T10:13:44Z</time>
      </trkpt>
      <trkpt lat="42.5453380" lon="-8.8983090">
        <ele>1.4</ele>
        <time>2020-08-07T10:13:45Z</time>
      </trkpt>
      <trkpt lat="42.5453380" lon="-8.8983090">
        <ele>1.4</ele>
        <time>2020-08-07T10:13:46Z</time>
      </trkpt>
      <trkpt lat="42.5453120" lon="-8.8983290">
        <ele>1.2</ele>
        <time>2020-08-07T10:13:47Z</time>
      </trkpt>
      <trkpt lat="42.5453120" lon="-8.8983290">
        <ele>1.2</ele>
        <time>2020-08-07T10:13:48Z</time>
      </trkpt>
      <trkpt lat="42.5452800" lon="-8.8983480">
        <ele>1.2</ele>
        <time>2020-08-07T10:13:49Z</time>
      </trkpt>
      <trkpt lat="42.5452800" lon="-8.8983480">
        <ele>1.0</ele>
        <time>2020-08-07T10:13:50Z</time>
      </trkpt>
      <trkpt lat="42.5452540" lon="-8.8983620">
        <ele>1.2</ele>
        <time>2020-08-07T10:13:51Z</time>
      </trkpt>
      <trkpt lat="42.5452540" lon="-8.8983620">
        <ele>1.2</ele>
        <time>2020-08-07T10:13:52Z</time>
      </trkpt>
      <trkpt lat="42.5452220" lon="-8.8983700">
        <ele>1.6</ele>
        <time>2020-08-07T10:13:53Z</time>
      </trkpt>
      <trkpt lat="42.5452220" lon="-8.8983700">
        <ele>1.6</ele>
        <time>2020-08-07T10:13:54Z</time>
      </trkpt>
      <trkpt lat="42.5451940" lon="-8.8983820">
        <ele>1.6</ele>
        <time>2020-08-07T10:13:55Z</time>
      </trkpt>
      <trkpt lat="42.5451940" lon="-8.8983820">
        <ele>1.6</ele>
        <time>2020-08-07T10:13:56Z</time>
      </trkpt>
      <trkpt lat="42.5451620" lon="-8.8983830">
        <ele>1.4</ele>
        <time>2020-08-07T10:13:57Z</time>
      </trkpt>
      <trkpt lat="42.5451620" lon="-8.8983830">
        <ele>1.4</ele>
        <time>2020-08-07T10:13:58Z</time>
      </trkpt>
      <trkpt lat="42.5451360" lon="-8.8983850">
        <ele>1.6</ele>
        <time>2020-08-07T10:13:59Z</time>
      </trkpt>
      <trkpt lat="42.5451360" lon="-8.8983850">
        <ele>1.6</ele>
        <time>2020-08-07T10:14:00Z</time>
      </trkpt>
      <trkpt lat="42.5451040" lon="-8.8983880">
        <ele>1.8</ele>
        <time>2020-08-07T10:14:01Z</time>
      </trkpt>
      <trkpt lat="42.5451040" lon="-8.8983880">
        <ele>2.0</ele>
        <time>2020-08-07T10:14:02Z</time>
      </trkpt>
      <trkpt lat="42.5450780" lon="-8.8983980">
        <ele>2.0</ele>
        <time>2020-08-07T10:14:03Z</time>
      </trkpt>
      <trkpt lat="42.5450780" lon="-8.8983980">
        <ele>1.8</ele>
        <time>2020-08-07T10:14:04Z</time>
      </trkpt>
      <trkpt lat="42.5450530" lon="-8.8984100">
        <ele>1.8</ele>
        <time>2020-08-07T10:14:05Z</time>
      </trkpt>
      <trkpt lat="42.5450530" lon="-8.8984100">
        <ele>1.4</ele>
        <time>2020-08-07T10:14:06Z</time>
      </trkpt>
      <trkpt lat="42.5450210" lon="-8.8984230">
        <ele>1.8</ele>
        <time>2020-08-07T10:14:07Z</time>
      </trkpt>
      <trkpt lat="42.5450210" lon="-8.8984230">
        <ele>1.6</ele>
        <time>2020-08-07T10:14:08Z</time>
      </trkpt>
      <trkpt lat="42.5449920" lon="-8.8984370">
        <ele>1.6</ele>
        <time>2020-08-07T10:14:09Z</time>
      </trkpt>
      <trkpt lat="42.5449920" lon="-8.8984370">
        <ele>1.4</ele>
        <time>2020-08-07T10:14:10Z</time>
      </trkpt>
      <trkpt lat="42.5449630" lon="-8.8984480">
        <ele>1.2</ele>
        <time>2020-08-07T10:14:11Z</time>
      </trkpt>
      <trkpt lat="42.5449630" lon="-8.8984480">
        <ele>1.0</ele>
        <time>2020-08-07T10:14:12Z</time>
      </trkpt>
      <trkpt lat="42.5449340" lon="-8.8984630">
        <ele>0.8</ele>
        <time>2020-08-07T10:14:13Z</time>
      </trkpt>
      <trkpt lat="42.5449340" lon="-8.8984630">
        <ele>0.8</ele>
        <time>2020-08-07T10:14:14Z</time>
      </trkpt>
      <trkpt lat="42.5449020" lon="-8.8984740">
        <ele>1.0</ele>
        <time>2020-08-07T10:14:15Z</time>
      </trkpt>
      <trkpt lat="42.5449020" lon="-8.8984740">
        <ele>1.2</ele>
        <time>2020-08-07T10:14:16Z</time>
      </trkpt>
      <trkpt lat="42.5448770" lon="-8.8984780">
        <ele>1.6</ele>
        <time>2020-08-07T10:14:17Z</time>
      </trkpt>
      <trkpt lat="42.5448770" lon="-8.8984780">
        <ele>1.8</ele>
        <time>2020-08-07T10:14:18Z</time>
      </trkpt>
      <trkpt lat="42.5448450" lon="-8.8984850">
        <ele>1.8</ele>
        <time>2020-08-07T10:14:19Z</time>
      </trkpt>
      <trkpt lat="42.5448450" lon="-8.8984850">
        <ele>1.6</ele>
        <time>2020-08-07T10:14:20Z</time>
      </trkpt>
      <trkpt lat="42.5448190" lon="-8.8984850">
        <ele>1.6</ele>
        <time>2020-08-07T10:14:21Z</time>
      </trkpt>
      <trkpt lat="42.5448190" lon="-8.8984850">
        <ele>1.8</ele>
        <time>2020-08-07T10:14:22Z</time>
      </trkpt>
      <trkpt lat="42.5447870" lon="-8.8984920">
        <ele>1.6</ele>
        <time>2020-08-07T10:14:23Z</time>
      </trkpt>
      <trkpt lat="42.5447870" lon="-8.8984920">
        <ele>1.8</ele>
        <time>2020-08-07T10:14:24Z</time>
      </trkpt>
      <trkpt lat="42.5447580" lon="-8.8984970">
        <ele>1.8</ele>
        <time>2020-08-07T10:14:25Z</time>
      </trkpt>
      <trkpt lat="42.5447580" lon="-8.8984970">
        <ele>1.8</ele>
        <time>2020-08-07T10:14:26Z</time>
      </trkpt>
      <trkpt lat="42.5447300" lon="-8.8985030">
        <ele>1.8</ele>
        <time>2020-08-07T10:14:27Z</time>
      </trkpt>
      <trkpt lat="42.5447300" lon="-8.8985030">
        <ele>1.8</ele>
        <time>2020-08-07T10:14:28Z</time>
      </trkpt>
      <trkpt lat="42.5447070" lon="-8.8985100">
        <ele>2.2</ele>
        <time>2020-08-07T10:14:29Z</time>
      </trkpt>
      <trkpt lat="42.5447070" lon="-8.8985100">
        <ele>2.0</ele>
        <time>2020-08-07T10:14:30Z</time>
      </trkpt>
      <trkpt lat="42.5446820" lon="-8.8985140">
        <ele>2.0</ele>
        <time>2020-08-07T10:14:31Z</time>
      </trkpt>
      <trkpt lat="42.5446820" lon="-8.8985140">
        <ele>1.8</ele>
        <time>2020-08-07T10:14:32Z</time>
      </trkpt>
      <trkpt lat="42.5446560" lon="-8.8985140">
        <ele>1.6</ele>
        <time>2020-08-07T10:14:33Z</time>
      </trkpt>
      <trkpt lat="42.5446560" lon="-8.8985140">
        <ele>1.4</ele>
        <time>2020-08-07T10:14:34Z</time>
      </trkpt>
      <trkpt lat="42.5446270" lon="-8.8985190">
        <ele>1.2</ele>
        <time>2020-08-07T10:14:35Z</time>
      </trkpt>
      <trkpt lat="42.5446270" lon="-8.8985190">
        <ele>1.2</ele>
        <time>2020-08-07T10:14:36Z</time>
      </trkpt>
      <trkpt lat="42.5446020" lon="-8.8985260">
        <ele>1.8</ele>
        <time>2020-08-07T10:14:37Z</time>
      </trkpt>
      <trkpt lat="42.5446020" lon="-8.8985260">
        <ele>1.4</ele>
        <time>2020-08-07T10:14:38Z</time>
      </trkpt>
      <trkpt lat="42.5445790" lon="-8.8985270">
        <ele>1.2</ele>
        <time>2020-08-07T10:14:39Z</time>
      </trkpt>
      <trkpt lat="42.5445790" lon="-8.8985270">
        <ele>1.4</ele>
        <time>2020-08-07T10:14:40Z</time>
      </trkpt>
      <trkpt lat="42.5445500" lon="-8.8985280">
        <ele>1.6</ele>
        <time>2020-08-07T10:14:41Z</time>
      </trkpt>
      <trkpt lat="42.5445500" lon="-8.8985280">
        <ele>1.8</ele>
        <time>2020-08-07T10:14:42Z</time>
      </trkpt>
      <trkpt lat="42.5445250" lon="-8.8985280">
        <ele>1.6</ele>
        <time>2020-08-07T10:14:43Z</time>
      </trkpt>
      <trkpt lat="42.5445250" lon="-8.8985280">
        <ele>1.6</ele>
        <time>2020-08-07T10:14:44Z</time>
      </trkpt>
      <trkpt lat="42.5444990" lon="-8.8985230">
        <ele>1.4</ele>
        <time>2020-08-07T10:14:45Z</time>
      </trkpt>
      <trkpt lat="42.5444990" lon="-8.8985230">
        <ele>1.4</ele>
        <time>2020-08-07T10:14:46Z</time>
      </trkpt>
      <trkpt lat="42.5444700" lon="-8.8985190">
        <ele>1.6</ele>
        <time>2020-08-07T10:14:47Z</time>
      </trkpt>
      <trkpt lat="42.5444700" lon="-8.8985190">
        <ele>1.4</ele>
        <time>2020-08-07T10:14:48Z</time>
      </trkpt>
      <trkpt lat="42.5444450" lon="-8.8985140">
        <ele>1.4</ele>
        <time>2020-08-07T10:14:49Z</time>
      </trkpt>
      <trkpt lat="42.5444450" lon="-8.8985140">
        <ele>1.6</ele>
        <time>2020-08-07T10:14:50Z</time>
      </trkpt>
      <trkpt lat="42.5444220" lon="-8.8985140">
        <ele>1.4</ele>
        <time>2020-08-07T10:14:51Z</time>
      </trkpt>
      <trkpt lat="42.5444220" lon="-8.8985140">
        <ele>1.6</ele>
        <time>2020-08-07T10:14:52Z</time>
      </trkpt>
      <trkpt lat="42.5443970" lon="-8.8985170">
        <ele>1.8</ele>
        <time>2020-08-07T10:14:53Z</time>
      </trkpt>
      <trkpt lat="42.5443970" lon="-8.8985170">
        <ele>1.8</ele>
        <time>2020-08-07T10:14:54Z</time>
      </trkpt>
      <trkpt lat="42.5443710" lon="-8.8985180">
        <ele>2.2</ele>
        <time>2020-08-07T10:14:55Z</time>
      </trkpt>
      <trkpt lat="42.5443710" lon="-8.8985180">
        <ele>2.4</ele>
        <time>2020-08-07T10:14:56Z</time>
      </trkpt>
      <trkpt lat="42.5443490" lon="-8.8985260">
        <ele>2.6</ele>
        <time>2020-08-07T10:14:57Z</time>
      </trkpt>
      <trkpt lat="42.5443490" lon="-8.8985260">
        <ele>2.4</ele>
        <time>2020-08-07T10:14:58Z</time>
      </trkpt>
      <trkpt lat="42.5443200" lon="-8.8985330">
        <ele>3.0</ele>
        <time>2020-08-07T10:14:59Z</time>
      </trkpt>
      <trkpt lat="42.5443200" lon="-8.8985330">
        <ele>3.6</ele>
        <time>2020-08-07T10:15:00Z</time>
      </trkpt>
      <trkpt lat="42.5442980" lon="-8.8985410">
        <ele>3.6</ele>
        <time>2020-08-07T10:15:01Z</time>
      </trkpt>
      <trkpt lat="42.5442980" lon="-8.8985410">
        <ele>3.8</ele>
        <time>2020-08-07T10:15:02Z</time>
      </trkpt>
      <trkpt lat="42.5442660" lon="-8.8985530">
        <ele>4.0</ele>
        <time>2020-08-07T10:15:03Z</time>
      </trkpt>
      <trkpt lat="42.5442660" lon="-8.8985530">
        <ele>3.8</ele>
        <time>2020-08-07T10:15:04Z</time>
      </trkpt>
      <trkpt lat="42.5442460" lon="-8.8985590">
        <ele>3.6</ele>
        <time>2020-08-07T10:15:05Z</time>
      </trkpt>
      <trkpt lat="42.5442460" lon="-8.8985590">
        <ele>3.6</ele>
        <time>2020-08-07T10:15:06Z</time>
      </trkpt>
      <trkpt lat="42.5442210" lon="-8.8985660">
        <ele>3.4</ele>
        <time>2020-08-07T10:15:07Z</time>
      </trkpt>
      <trkpt lat="42.5442210" lon="-8.8985660">
        <ele>3.0</ele>
        <time>2020-08-07T10:15:08Z</time>
      </trkpt>
      <trkpt lat="42.5441920" lon="-8.8985700">
        <ele>3.0</ele>
        <time>2020-08-07T10:15:09Z</time>
      </trkpt>
      <trkpt lat="42.5441920" lon="-8.8985700">
        <ele>3.0</ele>
        <time>2020-08-07T10:15:10Z</time>
      </trkpt>
      <trkpt lat="42.5441700" lon="-8.8985750">
        <ele>3.0</ele>
        <time>2020-08-07T10:15:11Z</time>
      </trkpt>
      <trkpt lat="42.5441700" lon="-8.8985750">
        <ele>3.0</ele>
        <time>2020-08-07T10:15:12Z</time>
      </trkpt>
      <trkpt lat="42.5441470" lon="-8.8985770">
        <ele>2.6</ele>
        <time>2020-08-07T10:15:13Z</time>
      </trkpt>
      <trkpt lat="42.5441470" lon="-8.8985770">
        <ele>2.8</ele>
        <time>2020-08-07T10:15:14Z</time>
      </trkpt>
      <trkpt lat="42.5441280" lon="-8.8985780">
        <ele>2.6</ele>
        <time>2020-08-07T10:15:15Z</time>
      </trkpt>
      <trkpt lat="42.5441280" lon="-8.8985780">
        <ele>2.6</ele>
        <time>2020-08-07T10:15:16Z</time>
      </trkpt>
      <trkpt lat="42.5441060" lon="-8.8985780">
        <ele>2.6</ele>
        <time>2020-08-07T10:15:17Z</time>
      </trkpt>
      <trkpt lat="42.5430020" lon="-8.8997720">
        <ele>-0.8</ele>
        <time>2020-08-07T13:43:52Z</time>
      </trkpt>
      <trkpt lat="42.5430060" lon="-8.8997740">
        <ele>-0.8</ele>
        <time>2020-08-07T13:43:53Z</time>
      </trkpt>
      <trkpt lat="42.5430100" lon="-8.8997760">
        <ele>-0.8</ele>
        <time>2020-08-07T13:43:55Z</time>
      </trkpt>
      <trkpt lat="42.5430140" lon="-8.8997780">
        <ele>-0.8</ele>
        <time>2020-08-07T13:43:56Z</time>
      </trkpt>
      <trkpt lat="42.5430180" lon="-8.8997810">
        <ele>-0.8</ele>
        <time>2020-08-07T13:43:57Z</time>
      </trkpt>
      <trkpt lat="42.5430220" lon="-8.8997830">
        <ele>-0.8</ele>
        <time>2020-08-07T13:43:58Z</time>
      </trkpt>
      <trkpt lat="42.5430260" lon="-8.8997850">
        <ele>-0.8</ele>
        <time>2020-08-07T13:43:59Z</time>
      </trkpt>
      <trkpt lat="42.5430300" lon="-8.8997870">
        <ele>-0.8</ele>
        <time>2020-08-07T13:44:00Z</time>
      </trkpt>
      <trkpt lat="42.5430300" lon="-8.8997870">
        <ele>-0.8</ele>
        <time>2020-08-07T13:44:01Z</time>
      </trkpt>
      <trkpt lat="42.5430300" lon="-8.8997870">
        <ele>-1.0</ele>
        <time>2020-08-07T13:44:02Z</time>
      </trkpt>
      <trkpt lat="42.5430300" lon="-8.8997870">
        <ele>-0.6</ele>
        <time>2020-08-07T13:44:03Z</time>
      </trkpt>
      <trkpt lat="42.5430500" lon="-8.8998170">
        <ele>-0.4</ele>
        <time>2020-08-07T13:44:04Z</time>
      </trkpt>
      <trkpt lat="42.5430500" lon="-8.8998170">
        <ele>-0.4</ele>
        <time>2020-08-07T13:44:05Z</time>
      </trkpt>
      <trkpt lat="42.5430500" lon="-8.8998170">
        <ele>-0.6</ele>
        <time>2020-08-07T13:44:06Z</time>
      </trkpt>
      <trkpt lat="42.5430660" lon="-8.8998420">
        <ele>-0.6</ele>
        <time>2020-08-07T13:44:07Z</time>
      </trkpt>
      <trkpt lat="42.5430660" lon="-8.8998420">
        <ele>-0.6</ele>
        <time>2020-08-07T13:44:08Z</time>
      </trkpt>
      <trkpt lat="42.5430660" lon="-8.8998420">
        <ele>-0.6</ele>
        <time>2020-08-07T13:44:09Z</time>
      </trkpt>
      <trkpt lat="42.5430820" lon="-8.8998680">
        <ele>-0.8</ele>
        <time>2020-08-07T13:44:10Z</time>
      </trkpt>
      <trkpt lat="42.5430820" lon="-8.8998680">
        <ele>-1.0</ele>
        <time>2020-08-07T13:44:11Z</time>
      </trkpt>
      <trkpt lat="42.5430980" lon="-8.8998810">
        <ele>-0.8</ele>
        <time>2020-08-07T13:44:12Z</time>
      </trkpt>
      <trkpt lat="42.5430980" lon="-8.8998810">
        <ele>-0.4</ele>
        <time>2020-08-07T13:44:13Z</time>
      </trkpt>
      <trkpt lat="42.5431100" lon="-8.8998980">
        <ele>-0.4</ele>
        <time>2020-08-07T13:44:14Z</time>
      </trkpt>
      <trkpt lat="42.5431100" lon="-8.8998980">
        <ele>-0.2</ele>
        <time>2020-08-07T13:44:15Z</time>
      </trkpt>
      <trkpt lat="42.5431100" lon="-8.8998980">
        <ele>-0.2</ele>
        <time>2020-08-07T13:44:16Z</time>
      </trkpt>
      <trkpt lat="42.5431260" lon="-8.8999220">
        <ele>-0.2</ele>
        <time>2020-08-07T13:44:17Z</time>
      </trkpt>
      <trkpt lat="42.5431260" lon="-8.8999220">
        <ele>-0.2</ele>
        <time>2020-08-07T13:44:18Z</time>
      </trkpt>
      <trkpt lat="42.5431260" lon="-8.8999220">
        <ele>-0.2</ele>
        <time>2020-08-07T13:44:19Z</time>
      </trkpt>
      <trkpt lat="42.5431460" lon="-8.8999480">
        <ele>0.2</ele>
        <time>2020-08-07T13:44:20Z</time>
      </trkpt>
      <trkpt lat="42.5431460" lon="-8.8999480">
        <ele>0.4</ele>
        <time>2020-08-07T13:44:21Z</time>
      </trkpt>
      <trkpt lat="42.5431460" lon="-8.8999480">
        <ele>0.2</ele>
        <time>2020-08-07T13:44:22Z</time>
      </trkpt>
      <trkpt lat="42.5431580" lon="-8.8999780">
        <ele>0.2</ele>
        <time>2020-08-07T13:44:23Z</time>
      </trkpt>
      <trkpt lat="42.5431580" lon="-8.8999780">
        <ele>0.0</ele>
        <time>2020-08-07T13:44:24Z</time>
      </trkpt>
      <trkpt lat="42.5431710" lon="-8.8999980">
        <ele>-0.4</ele>
        <time>2020-08-07T13:44:25Z</time>
      </trkpt>
      <trkpt lat="42.5431710" lon="-8.8999980">
        <ele>-0.4</ele>
        <time>2020-08-07T13:44:26Z</time>
      </trkpt>
      <trkpt lat="42.5431710" lon="-8.8999980">
        <ele>-0.2</ele>
        <time>2020-08-07T13:44:27Z</time>
      </trkpt>
      <trkpt lat="42.5431740" lon="-8.9000260">
        <ele>-0.2</ele>
        <time>2020-08-07T13:44:28Z</time>
      </trkpt>
      <trkpt lat="42.5431740" lon="-8.9000260">
        <ele>-0.4</ele>
        <time>2020-08-07T13:44:29Z</time>
      </trkpt>
      <trkpt lat="42.5431740" lon="-8.9000500">
        <ele>-0.8</ele>
        <time>2020-08-07T13:44:30Z</time>
      </trkpt>
      <trkpt lat="42.5431740" lon="-8.9000500">
        <ele>-0.8</ele>
        <time>2020-08-07T13:44:31Z</time>
      </trkpt>
      <trkpt lat="42.5431740" lon="-8.9000500">
        <ele>-1.0</ele>
        <time>2020-08-07T13:44:32Z</time>
      </trkpt>
      <trkpt lat="42.5431780" lon="-8.9000830">
        <ele>-1.0</ele>
        <time>2020-08-07T13:44:33Z</time>
      </trkpt>
      <trkpt lat="42.5431780" lon="-8.9000830">
        <ele>-1.4</ele>
        <time>2020-08-07T13:44:34Z</time>
      </trkpt>
      <trkpt lat="42.5431780" lon="-8.9000830">
        <ele>-1.6</ele>
        <time>2020-08-07T13:44:35Z</time>
      </trkpt>
      <trkpt lat="42.5431780" lon="-8.9001120">
        <ele>-1.6</ele>
        <time>2020-08-07T13:44:36Z</time>
      </trkpt>
      <trkpt lat="42.5431780" lon="-8.9001120">
        <ele>-1.8</ele>
        <time>2020-08-07T13:44:37Z</time>
      </trkpt>
      <trkpt lat="42.5431780" lon="-8.9001120">
        <ele>-2.0</ele>
        <time>2020-08-07T13:44:38Z</time>
      </trkpt>
      <trkpt lat="42.5431740" lon="-8.9001420">
        <ele>-2.2</ele>
        <time>2020-08-07T13:44:39Z</time>
      </trkpt>
      <trkpt lat="42.5431740" lon="-8.9001420">
        <ele>-2.4</ele>
        <time>2020-08-07T13:44:40Z</time>
      </trkpt>
      <trkpt lat="42.5431710" lon="-8.9001660">
        <ele>-2.6</ele>
        <time>2020-08-07T13:44:41Z</time>
      </trkpt>
      <trkpt lat="42.5431710" lon="-8.9001660">
        <ele>-2.6</ele>
        <time>2020-08-07T13:44:42Z</time>
      </trkpt>
      <trkpt lat="42.5431710" lon="-8.9001660">
        <ele>-2.8</ele>
        <time>2020-08-07T13:44:43Z</time>
      </trkpt>
      <trkpt lat="42.5431650" lon="-8.9001950">
        <ele>-3.0</ele>
        <time>2020-08-07T13:44:44Z</time>
      </trkpt>
      <trkpt lat="42.5431650" lon="-8.9001950">
        <ele>-3.0</ele>
        <time>2020-08-07T13:44:45Z</time>
      </trkpt>
      <trkpt lat="42.5431650" lon="-8.9001950">
        <ele>-2.8</ele>
        <time>2020-08-07T13:44:46Z</time>
      </trkpt>
      <trkpt lat="42.5431520" lon="-8.9002240">
        <ele>-2.6</ele>
        <time>2020-08-07T13:44:47Z</time>
      </trkpt>
      <trkpt lat="42.5431520" lon="-8.9002240">
        <ele>-2.6</ele>
        <time>2020-08-07T13:44:48Z</time>
      </trkpt>
      <trkpt lat="42.5431520" lon="-8.9002240">
        <ele>-2.6</ele>
        <time>2020-08-07T13:44:49Z</time>
      </trkpt>
      <trkpt lat="42.5431390" lon="-8.9002580">
        <ele>-2.6</ele>
        <time>2020-08-07T13:44:50Z</time>
      </trkpt>
      <trkpt lat="42.5431390" lon="-8.9002580">
        <ele>-2.8</ele>
        <time>2020-08-07T13:44:51Z</time>
      </trkpt>
      <trkpt lat="42.5431330" lon="-8.9002820">
        <ele>-2.6</ele>
        <time>2020-08-07T13:44:52Z</time>
      </trkpt>
      <trkpt lat="42.5431330" lon="-8.9002820">
        <ele>-2.4</ele>
        <time>2020-08-07T13:44:53Z</time>
      </trkpt>
      <trkpt lat="42.5431260" lon="-8.9003050">
        <ele>-2.4</ele>
        <time>2020-08-07T13:44:54Z</time>
      </trkpt>
      <trkpt lat="42.5431260" lon="-8.9003050">
        <ele>-2.4</ele>
        <time>2020-08-07T13:44:55Z</time>
      </trkpt>
      <trkpt lat="42.5431170" lon="-8.9003260">
        <ele>-2.4</ele>
        <time>2020-08-07T13:44:56Z</time>
      </trkpt>
      <trkpt lat="42.5431170" lon="-8.9003260">
        <ele>-2.2</ele>
        <time>2020-08-07T13:44:57Z</time>
      </trkpt>
      <trkpt lat="42.5431170" lon="-8.9003260">
        <ele>-2.4</ele>
        <time>2020-08-07T13:44:58Z</time>
      </trkpt>
      <trkpt lat="42.5431070" lon="-8.9003600">
        <ele>-2.8</ele>
        <time>2020-08-07T13:44:59Z</time>
      </trkpt>
      <trkpt lat="42.5431070" lon="-8.9003600">
        <ele>-3.0</ele>
        <time>2020-08-07T13:45:00Z</time>
      </trkpt>
      <trkpt lat="42.5430940" lon="-8.9003890">
        <ele>-3.0</ele>
        <time>2020-08-07T13:45:01Z</time>
      </trkpt>
      <trkpt lat="42.5430940" lon="-8.9003890">
        <ele>-3.0</ele>
        <time>2020-08-07T13:45:02Z</time>
      </trkpt>
      <trkpt lat="42.5430940" lon="-8.9003890">
        <ele>-3.0</ele>
        <time>2020-08-07T13:45:03Z</time>
      </trkpt>
      <trkpt lat="42.5430820" lon="-8.9004200">
        <ele>-3.0</ele>
        <time>2020-08-07T13:45:04Z</time>
      </trkpt>
      <trkpt lat="42.5430820" lon="-8.9004200">
        <ele>-2.8</ele>
        <time>2020-08-07T13:45:05Z</time>
      </trkpt>
      <trkpt lat="42.5430750" lon="-8.9004450">
        <ele>-2.8</ele>
        <time>2020-08-07T13:45:06Z</time>
      </trkpt>
      <trkpt lat="42.5430750" lon="-8.9004450">
        <ele>-2.4</ele>
        <time>2020-08-07T13:45:07Z</time>
      </trkpt>
      <trkpt lat="42.5430750" lon="-8.9004450">
        <ele>-2.4</ele>
        <time>2020-08-07T13:45:08Z</time>
      </trkpt>
      <trkpt lat="42.5430660" lon="-8.9004770">
        <ele>-2.0</ele>
        <time>2020-08-07T13:45:09Z</time>
      </trkpt>
      <trkpt lat="42.5430660" lon="-8.9004770">
        <ele>-1.8</ele>
        <time>2020-08-07T13:45:10Z</time>
      </trkpt>
      <trkpt lat="42.5430530" lon="-8.9004970">
        <ele>-1.4</ele>
        <time>2020-08-07T13:45:11Z</time>
      </trkpt>
      <trkpt lat="42.5430530" lon="-8.9004970">
        <ele>-1.2</ele>
        <time>2020-08-07T13:45:12Z</time>
      </trkpt>
      <trkpt lat="42.5430530" lon="-8.9004970">
        <ele>-1.2</ele>
        <time>2020-08-07T13:45:13Z</time>
      </trkpt>
      <trkpt lat="42.5430400" lon="-8.9005270">
        <ele>-1.2</ele>
        <time>2020-08-07T13:45:14Z</time>
      </trkpt>
      <trkpt lat="42.5430400" lon="-8.9005270">
        <ele>-1.2</ele>
        <time>2020-08-07T13:45:15Z</time>
      </trkpt>
      <trkpt lat="42.5430400" lon="-8.9005270">
        <ele>-1.0</ele>
        <time>2020-08-07T13:45:16Z</time>
      </trkpt>
      <trkpt lat="42.5430300" lon="-8.9005580">
        <ele>-1.0</ele>
        <time>2020-08-07T13:45:17Z</time>
      </trkpt>
      <trkpt lat="42.5430300" lon="-8.9005580">
        <ele>-0.8</ele>
        <time>2020-08-07T13:45:18Z</time>
      </trkpt>
      <trkpt lat="42.5430180" lon="-8.9005870">
        <ele>-0.8</ele>
        <time>2020-08-07T13:45:19Z</time>
      </trkpt>
      <trkpt lat="42.5430180" lon="-8.9005870">
        <ele>-1.0</ele>
        <time>2020-08-07T13:45:20Z</time>
      </trkpt>
      <trkpt lat="42.5430180" lon="-8.9005870">
        <ele>-1.0</ele>
        <time>2020-08-07T13:45:21Z</time>
      </trkpt>
      <trkpt lat="42.5430080" lon="-8.9006220">
        <ele>-0.6</ele>
        <time>2020-08-07T13:45:22Z</time>
      </trkpt>
      <trkpt lat="42.5430080" lon="-8.9006220">
        <ele>-0.4</ele>
        <time>2020-08-07T13:45:23Z</time>
      </trkpt>
      <trkpt lat="42.5429950" lon="-8.9006430">
        <ele>-0.4</ele>
        <time>2020-08-07T13:45:24Z</time>
      </trkpt>
      <trkpt lat="42.5429950" lon="-8.9006430">
        <ele>-0.4</ele>
        <time>2020-08-07T13:45:25Z</time>
      </trkpt>
      <trkpt lat="42.5429950" lon="-8.9006430">
        <ele>-0.4</ele>
        <time>2020-08-07T13:45:26Z</time>
      </trkpt>
      <trkpt lat="42.5429860" lon="-8.9006750">
        <ele>-0.2</ele>
        <time>2020-08-07T13:45:27Z</time>
      </trkpt>
      <trkpt lat="42.5429860" lon="-8.9006750">
        <ele>-0.2</ele>
        <time>2020-08-07T13:45:28Z</time>
      </trkpt>
      <trkpt lat="42.5429730" lon="-8.9006970">
        <ele>-0.2</ele>
        <time>2020-08-07T13:45:29Z</time>
      </trkpt>
      <trkpt lat="42.5429730" lon="-8.9006970">
        <ele>0.0</ele>
        <time>2020-08-07T13:45:30Z</time>
      </trkpt>
      <trkpt lat="42.5429730" lon="-8.9006970">
        <ele>0.2</ele>
        <time>2020-08-07T13:45:31Z</time>
      </trkpt>
      <trkpt lat="42.5429570" lon="-8.9007300">
        <ele>0.0</ele>
        <time>2020-08-07T13:45:32Z</time>
      </trkpt>
      <trkpt lat="42.5429570" lon="-8.9007300">
        <ele>-0.4</ele>
        <time>2020-08-07T13:45:33Z</time>
      </trkpt>
      <trkpt lat="42.5429570" lon="-8.9007300">
        <ele>-0.8</ele>
        <time>2020-08-07T13:45:34Z</time>
      </trkpt>
      <trkpt lat="42.5429470" lon="-8.9007620">
        <ele>-0.6</ele>
        <time>2020-08-07T13:45:35Z</time>
      </trkpt>
      <trkpt lat="42.5429470" lon="-8.9007620">
        <ele>-0.6</ele>
        <time>2020-08-07T13:45:36Z</time>
      </trkpt>
      <trkpt lat="42.5429380" lon="-8.9007830">
        <ele>-0.6</ele>
        <time>2020-08-07T13:45:37Z</time>
      </trkpt>
      <trkpt lat="42.5429380" lon="-8.9007830">
        <ele>-0.6</ele>
        <time>2020-08-07T13:45:38Z</time>
      </trkpt>
      <trkpt lat="42.5429380" lon="-8.9007830">
        <ele>0.0</ele>
        <time>2020-08-07T13:45:39Z</time>
      </trkpt>
      <trkpt lat="42.5429180" lon="-8.9008020">
        <ele>0.0</ele>
        <time>2020-08-07T13:45:40Z</time>
      </trkpt>
      <trkpt lat="42.5429180" lon="-8.9008020">
        <ele>0.0</ele>
        <time>2020-08-07T13:45:41Z</time>
      </trkpt>
      <trkpt lat="42.5429180" lon="-8.9008020">
        <ele>0.0</ele>
        <time>2020-08-07T13:45:42Z</time>
      </trkpt>
      <trkpt lat="42.5428990" lon="-8.9008100">
        <ele>0.0</ele>
        <time>2020-08-07T13:45:43Z</time>
      </trkpt>
      <trkpt lat="42.5428990" lon="-8.9008100">
        <ele>0.4</ele>
        <time>2020-08-07T13:45:44Z</time>
      </trkpt>
      <trkpt lat="42.5428990" lon="-8.9008100">
        <ele>0.4</ele>
        <time>2020-08-07T13:45:45Z</time>
      </trkpt>
      <trkpt lat="42.5428770" lon="-8.9008150">
        <ele>0.8</ele>
        <time>2020-08-07T13:45:46Z</time>
      </trkpt>
      <trkpt lat="42.5428770" lon="-8.9008150">
        <ele>0.6</ele>
        <time>2020-08-07T13:45:47Z</time>
      </trkpt>
      <trkpt lat="42.5428770" lon="-8.9008150">
        <ele>0.6</ele>
        <time>2020-08-07T13:45:48Z</time>
      </trkpt>
      <trkpt lat="42.5428540" lon="-8.9008080">
        <ele>0.6</ele>
        <time>2020-08-07T13:45:49Z</time>
      </trkpt>
      <trkpt lat="42.5428540" lon="-8.9008080">
        <ele>0.8</ele>
        <time>2020-08-07T13:45:50Z</time>
      </trkpt>
      <trkpt lat="42.5428540" lon="-8.9008080">
        <ele>0.6</ele>
        <time>2020-08-07T13:45:51Z</time>
      </trkpt>
      <trkpt lat="42.5428350" lon="-8.9007930">
        <ele>0.6</ele>
        <time>2020-08-07T13:45:52Z</time>
      </trkpt>
      <trkpt lat="42.5428350" lon="-8.9007930">
        <ele>0.4</ele>
        <time>2020-08-07T13:45:53Z</time>
      </trkpt>
      <trkpt lat="42.5428130" lon="-8.9007800">
        <ele>0.6</ele>
        <time>2020-08-07T13:45:54Z</time>
      </trkpt>
      <trkpt lat="42.5428130" lon="-8.9007800">
        <ele>0.4</ele>
        <time>2020-08-07T13:45:55Z</time>
      </trkpt>
      <trkpt lat="42.5427940" lon="-8.9007680">
        <ele>0.4</ele>
        <time>2020-08-07T13:45:56Z</time>
      </trkpt>
      <trkpt lat="42.5427940" lon="-8.9007680">
        <ele>0.4</ele>
        <time>2020-08-07T13:45:57Z</time>
      </trkpt>
      <trkpt lat="42.5427940" lon="-8.9007680">
        <ele>0.8</ele>
        <time>2020-08-07T13:45:58Z</time>
      </trkpt>
      <trkpt lat="42.5427710" lon="-8.9007570">
        <ele>0.8</ele>
        <time>2020-08-07T13:45:59Z</time>
      </trkpt>
      <trkpt lat="42.5427710" lon="-8.9007570">
        <ele>1.2</ele>
        <time>2020-08-07T13:46:00Z</time>
      </trkpt>
      <trkpt lat="42.5427490" lon="-8.9007480">
        <ele>1.2</ele>
        <time>2020-08-07T13:46:01Z</time>
      </trkpt>
      <trkpt lat="42.5427490" lon="-8.9007480">
        <ele>1.0</ele>
        <time>2020-08-07T13:46:02Z</time>
      </trkpt>
      <trkpt lat="42.5427300" lon="-8.9007370">
        <ele>1.2</ele>
        <time>2020-08-07T13:46:03Z</time>
      </trkpt>
      <trkpt lat="42.5427300" lon="-8.9007370">
        <ele>1.2</ele>
        <time>2020-08-07T13:46:04Z</time>
      </trkpt>
      <trkpt lat="42.5427040" lon="-8.9007260">
        <ele>1.4</ele>
        <time>2020-08-07T13:46:05Z</time>
      </trkpt>
      <trkpt lat="42.5427040" lon="-8.9007260">
        <ele>1.2</ele>
        <time>2020-08-07T13:46:06Z</time>
      </trkpt>
      <trkpt lat="42.5427040" lon="-8.9007260">
        <ele>1.2</ele>
        <time>2020-08-07T13:46:07Z</time>
      </trkpt>
      <trkpt lat="42.5426750" lon="-8.9007180">
        <ele>1.2</ele>
        <time>2020-08-07T13:46:08Z</time>
      </trkpt>
      <trkpt lat="42.5426750" lon="-8.9007180">
        <ele>0.8</ele>
        <time>2020-08-07T13:46:09Z</time>
      </trkpt>
      <trkpt lat="42.5426560" lon="-8.9007120">
        <ele>0.8</ele>
        <time>2020-08-07T13:46:10Z</time>
      </trkpt>
      <trkpt lat="42.5426560" lon="-8.9007120">
        <ele>1.0</ele>
        <time>2020-08-07T13:46:11Z</time>
      </trkpt>
      <trkpt lat="42.5426340" lon="-8.9007120">
        <ele>1.2</ele>
        <time>2020-08-07T13:46:12Z</time>
      </trkpt>
      <trkpt lat="42.5426340" lon="-8.9007120">
        <ele>1.4</ele>
        <time>2020-08-07T13:46:13Z</time>
      </trkpt>
      <trkpt lat="42.5426110" lon="-8.9007150">
        <ele>1.2</ele>
        <time>2020-08-07T13:46:14Z</time>
      </trkpt>
      <trkpt lat="42.5426110" lon="-8.9007150">
        <ele>1.0</ele>
        <time>2020-08-07T13:46:15Z</time>
      </trkpt>
      <trkpt lat="42.5425920" lon="-8.9007230">
        <ele>0.8</ele>
        <time>2020-08-07T13:46:16Z</time>
      </trkpt>
      <trkpt lat="42.5425920" lon="-8.9007230">
        <ele>0.8</ele>
        <time>2020-08-07T13:46:17Z</time>
      </trkpt>
      <trkpt lat="42.5425920" lon="-8.9007230">
        <ele>0.6</ele>
        <time>2020-08-07T13:46:18Z</time>
      </trkpt>
      <trkpt lat="42.5425630" lon="-8.9007380">
        <ele>0.4</ele>
        <time>2020-08-07T13:46:19Z</time>
      </trkpt>
      <trkpt lat="42.5425630" lon="-8.9007380">
        <ele>0.0</ele>
        <time>2020-08-07T13:46:20Z</time>
      </trkpt>
      <trkpt lat="42.5425630" lon="-8.9007380">
        <ele>-0.2</ele>
        <time>2020-08-07T13:46:21Z</time>
      </trkpt>
      <trkpt lat="42.5425410" lon="-8.9007530">
        <ele>-0.2</ele>
        <time>2020-08-07T13:46:22Z</time>
      </trkpt>
      <trkpt lat="42.5425410" lon="-8.9007530">
        <ele>-0.2</ele>
        <time>2020-08-07T13:46:23Z</time>
      </trkpt>
      <trkpt lat="42.5425410" lon="-8.9007530">
        <ele>0.0</ele>
        <time>2020-08-07T13:46:24Z</time>
      </trkpt>
      <trkpt lat="42.5425180" lon="-8.9007730">
        <ele>-0.2</ele>
        <time>2020-08-07T13:46:25Z</time>
      </trkpt>
      <trkpt lat="42.5425180" lon="-8.9007730">
        <ele>-0.2</ele>
        <time>2020-08-07T13:46:26Z</time>
      </trkpt>
      <trkpt lat="42.5425020" lon="-8.9007860">
        <ele>-0.4</ele>
        <time>2020-08-07T13:46:27Z</time>
      </trkpt>
      <trkpt lat="42.5425020" lon="-8.9007860">
        <ele>0.0</ele>
        <time>2020-08-07T13:46:28Z</time>
      </trkpt>
      <trkpt lat="42.5425020" lon="-8.9007860">
        <ele>-0.2</ele>
        <time>2020-08-07T13:46:29Z</time>
      </trkpt>
      <trkpt lat="42.5424900" lon="-8.9008050">
        <ele>-0.4</ele>
        <time>2020-08-07T13:46:30Z</time>
      </trkpt>
      <trkpt lat="42.5424900" lon="-8.9008050">
        <ele>-0.8</ele>
        <time>2020-08-07T13:46:31Z</time>
      </trkpt>
      <trkpt lat="42.5424740" lon="-8.9008170">
        <ele>-0.8</ele>
        <time>2020-08-07T13:46:32Z</time>
      </trkpt>
      <trkpt lat="42.5424740" lon="-8.9008170">
        <ele>-1.0</ele>
        <time>2020-08-07T13:46:33Z</time>
      </trkpt>
      <trkpt lat="42.5424580" lon="-8.9008310">
        <ele>-0.6</ele>
        <time>2020-08-07T13:46:34Z</time>
      </trkpt>
      <trkpt lat="42.5424580" lon="-8.9008310">
        <ele>-0.4</ele>
        <time>2020-08-07T13:46:35Z</time>
      </trkpt>
      <trkpt lat="42.5424580" lon="-8.9008310">
        <ele>-0.4</ele>
        <time>2020-08-07T13:46:36Z</time>
      </trkpt>
      <trkpt lat="42.5424380" lon="-8.9008530">
        <ele>-0.2</ele>
        <time>2020-08-07T13:46:37Z</time>
      </trkpt>
      <trkpt lat="42.5424380" lon="-8.9008530">
        <ele>0.0</ele>
        <time>2020-08-07T13:46:38Z</time>
      </trkpt>
      <trkpt lat="42.5424380" lon="-8.9008530">
        <ele>-0.2</ele>
        <time>2020-08-07T13:46:39Z</time>
      </trkpt>
      <trkpt lat="42.5424190" lon="-8.9008710">
        <ele>0.0</ele>
        <time>2020-08-07T13:46:40Z</time>
      </trkpt>
      <trkpt lat="42.5424190" lon="-8.9008710">
        <ele>0.2</ele>
        <time>2020-08-07T13:46:41Z</time>
      </trkpt>
      <trkpt lat="42.5424190" lon="-8.9008710">
        <ele>0.2</ele>
        <time>2020-08-07T13:46:42Z</time>
      </trkpt>
      <trkpt lat="42.5424000" lon="-8.9008860">
        <ele>0.0</ele>
        <time>2020-08-07T13:46:43Z</time>
      </trkpt>
      <trkpt lat="42.5424000" lon="-8.9008860">
        <ele>-0.2</ele>
        <time>2020-08-07T13:46:44Z</time>
      </trkpt>
      <trkpt lat="42.5424000" lon="-8.9008860">
        <ele>0.0</ele>
        <time>2020-08-07T13:46:45Z</time>
      </trkpt>
      <trkpt lat="42.5423780" lon="-8.9009090">
        <ele>0.2</ele>
        <time>2020-08-07T13:46:46Z</time>
      </trkpt>
      <trkpt lat="42.5423780" lon="-8.9009090">
        <ele>0.4</ele>
        <time>2020-08-07T13:46:47Z</time>
      </trkpt>
      <trkpt lat="42.5423780" lon="-8.9009090">
        <ele>0.6</ele>
        <time>2020-08-07T13:46:48Z</time>
      </trkpt>
      <trkpt lat="42.5423580" lon="-8.9009290">
        <ele>1.0</ele>
        <time>2020-08-07T13:46:49Z</time>
      </trkpt>
      <trkpt lat="42.5423580" lon="-8.9009290">
        <ele>1.0</ele>
        <time>2020-08-07T13:46:50Z</time>
      </trkpt>
      <trkpt lat="42.5423420" lon="-8.9009440">
        <ele>1.0</ele>
        <time>2020-08-07T13:46:51Z</time>
      </trkpt>
      <trkpt lat="42.5423420" lon="-8.9009440">
        <ele>1.0</ele>
        <time>2020-08-07T13:46:52Z</time>
      </trkpt>
      <trkpt lat="42.5423420" lon="-8.9009440">
        <ele>0.8</ele>
        <time>2020-08-07T13:46:53Z</time>
      </trkpt>
      <trkpt lat="42.5423230" lon="-8.9009740">
        <ele>0.4</ele>
        <time>2020-08-07T13:46:54Z</time>
      </trkpt>
      <trkpt lat="42.5423230" lon="-8.9009740">
        <ele>0.6</ele>
        <time>2020-08-07T13:46:55Z</time>
      </trkpt>
      <trkpt lat="42.5423040" lon="-8.9009950">
        <ele>0.4</ele>
        <time>2020-08-07T13:46:56Z</time>
      </trkpt>
      <trkpt lat="42.5423040" lon="-8.9009950">
        <ele>0.6</ele>
        <time>2020-08-07T13:46:57Z</time>
      </trkpt>
      <trkpt lat="42.5423040" lon="-8.9009950">
        <ele>0.2</ele>
        <time>2020-08-07T13:46:58Z</time>
      </trkpt>
      <trkpt lat="42.5422910" lon="-8.9010220">
        <ele>0.2</ele>
        <time>2020-08-07T13:46:59Z</time>
      </trkpt>
      <trkpt lat="42.5422910" lon="-8.9010220">
        <ele>-0.2</ele>
        <time>2020-08-07T13:47:00Z</time>
      </trkpt>
      <trkpt lat="42.5422780" lon="-8.9010400">
        <ele>-0.2</ele>
        <time>2020-08-07T13:47:01Z</time>
      </trkpt>
      <trkpt lat="42.5422780" lon="-8.9010400">
        <ele>-0.2</ele>
        <time>2020-08-07T13:47:02Z</time>
      </trkpt>
      <trkpt lat="42.5422590" lon="-8.9010580">
        <ele>0.0</ele>
        <time>2020-08-07T13:47:03Z</time>
      </trkpt>
      <trkpt lat="42.5422590" lon="-8.9010580">
        <ele>-0.2</ele>
        <time>2020-08-07T13:47:04Z</time>
      </trkpt>
      <trkpt lat="42.5422400" lon="-8.9010710">
        <ele>-0.4</ele>
        <time>2020-08-07T13:47:05Z</time>
      </trkpt>
      <trkpt lat="42.5422400" lon="-8.9010710">
        <ele>-0.4</ele>
        <time>2020-08-07T13:47:06Z</time>
      </trkpt>
      <trkpt lat="42.5422240" lon="-8.9010870">
        <ele>-0.4</ele>
        <time>2020-08-07T13:47:07Z</time>
      </trkpt>
      <trkpt lat="42.5422240" lon="-8.9010870">
        <ele>-0.6</ele>
        <time>2020-08-07T13:47:08Z</time>
      </trkpt>
      <trkpt lat="42.5422050" lon="-8.9011000">
        <ele>-0.6</ele>
        <time>2020-08-07T13:47:09Z</time>
      </trkpt>
      <trkpt lat="42.5422050" lon="-8.9011000">
        <ele>-0.6</ele>
        <time>2020-08-07T13:47:10Z</time>
      </trkpt>
      <trkpt lat="42.5421860" lon="-8.9011120">
        <ele>-0.2</ele>
        <time>2020-08-07T13:47:11Z</time>
      </trkpt>
      <trkpt lat="42.5421860" lon="-8.9011120">
        <ele>-0.2</ele>
        <time>2020-08-07T13:47:12Z</time>
      </trkpt>
      <trkpt lat="42.5421860" lon="-8.9011120">
        <ele>-0.2</ele>
        <time>2020-08-07T13:47:13Z</time>
      </trkpt>
      <trkpt lat="42.5421600" lon="-8.9011340">
        <ele>0.2</ele>
        <time>2020-08-07T13:47:14Z</time>
      </trkpt>
      <trkpt lat="42.5421600" lon="-8.9011340">
        <ele>0.2</ele>
        <time>2020-08-07T13:47:15Z</time>
      </trkpt>
      <trkpt lat="42.5421440" lon="-8.9011500">
        <ele>0.2</ele>
        <time>2020-08-07T13:47:16Z</time>
      </trkpt>
      <trkpt lat="42.5421440" lon="-8.9011500">
        <ele>0.2</ele>
        <time>2020-08-07T13:47:17Z</time>
      </trkpt>
      <trkpt lat="42.5421250" lon="-8.9011720">
        <ele>0.0</ele>
        <time>2020-08-07T13:47:18Z</time>
      </trkpt>
      <trkpt lat="42.5421250" lon="-8.9011720">
        <ele>-0.2</ele>
        <time>2020-08-07T13:47:19Z</time>
      </trkpt>
      <trkpt lat="42.5421120" lon="-8.9011940">
        <ele>-0.2</ele>
        <time>2020-08-07T13:47:20Z</time>
      </trkpt>
      <trkpt lat="42.5421120" lon="-8.9011940">
        <ele>-0.2</ele>
        <time>2020-08-07T13:47:21Z</time>
      </trkpt>
      <trkpt lat="42.5420990" lon="-8.9012140">
        <ele>0.0</ele>
        <time>2020-08-07T13:47:22Z</time>
      </trkpt>
      <trkpt lat="42.5420990" lon="-8.9012140">
        <ele>-0.2</ele>
        <time>2020-08-07T13:47:23Z</time>
      </trkpt>
      <trkpt lat="42.5420800" lon="-8.9012340">
        <ele>-0.4</ele>
        <time>2020-08-07T13:47:24Z</time>
      </trkpt>
      <trkpt lat="42.5420800" lon="-8.9012340">
        <ele>-0.8</ele>
        <time>2020-08-07T13:47:25Z</time>
      </trkpt>
      <trkpt lat="42.5420610" lon="-8.9012570">
        <ele>-1.0</ele>
        <time>2020-08-07T13:47:26Z</time>
      </trkpt>
      <trkpt lat="42.5420610" lon="-8.9012570">
        <ele>-1.0</ele>
        <time>2020-08-07T13:47:27Z</time>
      </trkpt>
      <trkpt lat="42.5420420" lon="-8.9012810">
        <ele>-0.8</ele>
        <time>2020-08-07T13:47:28Z</time>
      </trkpt>
      <trkpt lat="42.5420420" lon="-8.9012810">
        <ele>-0.8</ele>
        <time>2020-08-07T13:47:29Z</time>
      </trkpt>
      <trkpt lat="42.5420160" lon="-8.9012980">
        <ele>-0.6</ele>
        <time>2020-08-07T13:47:30Z</time>
      </trkpt>
      <trkpt lat="42.5420160" lon="-8.9012980">
        <ele>-0.6</ele>
        <time>2020-08-07T13:47:31Z</time>
      </trkpt>
      <trkpt lat="42.5419970" lon="-8.9013190">
        <ele>-0.8</ele>
        <time>2020-08-07T13:47:32Z</time>
      </trkpt>
      <trkpt lat="42.5419970" lon="-8.9013190">
        <ele>-1.0</ele>
        <time>2020-08-07T13:47:33Z</time>
      </trkpt>
      <trkpt lat="42.5419810" lon="-8.9013460">
        <ele>-1.0</ele>
        <time>2020-08-07T13:47:34Z</time>
      </trkpt>
      <trkpt lat="42.5419810" lon="-8.9013460">
        <ele>-1.4</ele>
        <time>2020-08-07T13:47:35Z</time>
      </trkpt>
      <trkpt lat="42.5419620" lon="-8.9013700">
        <ele>-1.8</ele>
        <time>2020-08-07T13:47:36Z</time>
      </trkpt>
      <trkpt lat="42.5419620" lon="-8.9013700">
        <ele>-1.8</ele>
        <time>2020-08-07T13:47:37Z</time>
      </trkpt>
      <trkpt lat="42.5419420" lon="-8.9013950">
        <ele>-1.8</ele>
        <time>2020-08-07T13:47:38Z</time>
      </trkpt>
      <trkpt lat="42.5419420" lon="-8.9013950">
        <ele>-1.6</ele>
        <time>2020-08-07T13:47:39Z</time>
      </trkpt>
      <trkpt lat="42.5419300" lon="-8.9014150">
        <ele>-1.4</ele>
        <time>2020-08-07T13:47:40Z</time>
      </trkpt>
      <trkpt lat="42.5419300" lon="-8.9014150">
        <ele>-1.6</ele>
        <time>2020-08-07T13:47:41Z</time>
      </trkpt>
      <trkpt lat="42.5419300" lon="-8.9014150">
        <ele>-1.8</ele>
        <time>2020-08-07T13:47:42Z</time>
      </trkpt>
      <trkpt lat="42.5419170" lon="-8.9014480">
        <ele>-1.8</ele>
        <time>2020-08-07T13:47:43Z</time>
      </trkpt>
      <trkpt lat="42.5419170" lon="-8.9014480">
        <ele>-1.2</ele>
        <time>2020-08-07T13:47:44Z</time>
      </trkpt>
      <trkpt lat="42.5419040" lon="-8.9014780">
        <ele>-1.0</ele>
        <time>2020-08-07T13:47:45Z</time>
      </trkpt>
      <trkpt lat="42.5419040" lon="-8.9014780">
        <ele>-1.0</ele>
        <time>2020-08-07T13:47:46Z</time>
      </trkpt>
      <trkpt lat="42.5418940" lon="-8.9015030">
        <ele>-0.8</ele>
        <time>2020-08-07T13:47:47Z</time>
      </trkpt>
      <trkpt lat="42.5418940" lon="-8.9015030">
        <ele>-0.8</ele>
        <time>2020-08-07T13:47:48Z</time>
      </trkpt>
      <trkpt lat="42.5418820" lon="-8.9015260">
        <ele>-0.8</ele>
        <time>2020-08-07T13:47:49Z</time>
      </trkpt>
      <trkpt lat="42.5418820" lon="-8.9015260">
        <ele>-0.6</ele>
        <time>2020-08-07T13:47:50Z</time>
      </trkpt>
      <trkpt lat="42.5418590" lon="-8.9015420">
        <ele>-0.6</ele>
        <time>2020-08-07T13:47:51Z</time>
      </trkpt>
      <trkpt lat="42.5418590" lon="-8.9015420">
        <ele>-0.6</ele>
        <time>2020-08-07T13:47:52Z</time>
      </trkpt>
      <trkpt lat="42.5418430" lon="-8.9015600">
        <ele>-0.8</ele>
        <time>2020-08-07T13:47:53Z</time>
      </trkpt>
      <trkpt lat="42.5418430" lon="-8.9015600">
        <ele>-0.8</ele>
        <time>2020-08-07T13:47:54Z</time>
      </trkpt>
      <trkpt lat="42.5418270" lon="-8.9015780">
        <ele>-1.0</ele>
        <time>2020-08-07T13:47:55Z</time>
      </trkpt>
      <trkpt lat="42.5418270" lon="-8.9015780">
        <ele>-1.6</ele>
        <time>2020-08-07T13:47:56Z</time>
      </trkpt>
      <trkpt lat="42.5418080" lon="-8.9016000">
        <ele>-2.0</ele>
        <time>2020-08-07T13:47:57Z</time>
      </trkpt>
      <trkpt lat="42.5418080" lon="-8.9016000">
        <ele>-1.8</ele>
        <time>2020-08-07T13:47:58Z</time>
      </trkpt>
      <trkpt lat="42.5418080" lon="-8.9016000">
        <ele>-1.6</ele>
        <time>2020-08-07T13:47:59Z</time>
      </trkpt>
      <trkpt lat="42.5417890" lon="-8.9016260">
        <ele>-1.2</ele>
        <time>2020-08-07T13:48:00Z</time>
      </trkpt>
      <trkpt lat="42.5417890" lon="-8.9016260">
        <ele>-1.2</ele>
        <time>2020-08-07T13:48:01Z</time>
      </trkpt>
      <trkpt lat="42.5417890" lon="-8.9016260">
        <ele>-1.0</ele>
        <time>2020-08-07T13:48:02Z</time>
      </trkpt>
      <trkpt lat="42.5417760" lon="-8.9016460">
        <ele>-0.8</ele>
        <time>2020-08-07T13:48:03Z</time>
      </trkpt>
      <trkpt lat="42.5417760" lon="-8.9016460">
        <ele>-0.8</ele>
        <time>2020-08-07T13:48:04Z</time>
      </trkpt>
      <trkpt lat="42.5417630" lon="-8.9016640">
        <ele>-0.8</ele>
        <time>2020-08-07T13:48:05Z</time>
      </trkpt>
      <trkpt lat="42.5417630" lon="-8.9016640">
        <ele>-0.8</ele>
        <time>2020-08-07T13:48:06Z</time>
      </trkpt>
      <trkpt lat="42.5417630" lon="-8.9016640">
        <ele>-1.2</ele>
        <time>2020-08-07T13:48:07Z</time>
      </trkpt>
      <trkpt lat="42.5417500" lon="-8.9016820">
        <ele>-1.2</ele>
        <time>2020-08-07T13:48:08Z</time>
      </trkpt>
      <trkpt lat="42.5417500" lon="-8.9016820">
        <ele>-1.2</ele>
        <time>2020-08-07T13:48:09Z</time>
      </trkpt>
      <trkpt lat="42.5417500" lon="-8.9016820">
        <ele>-1.4</ele>
        <time>2020-08-07T13:48:10Z</time>
      </trkpt>
      <trkpt lat="42.5417500" lon="-8.9016820">
        <ele>-1.2</ele>
        <time>2020-08-07T13:48:11Z</time>
      </trkpt>
      <trkpt lat="42.5417410" lon="-8.9017110">
        <ele>-1.2</ele>
        <time>2020-08-07T13:48:12Z</time>
      </trkpt>
      <trkpt lat="42.5417410" lon="-8.9017110">
        <ele>-1.4</ele>
        <time>2020-08-07T13:48:13Z</time>
      </trkpt>
      <trkpt lat="42.5417410" lon="-8.9017110">
        <ele>-1.4</ele>
        <time>2020-08-07T13:48:14Z</time>
      </trkpt>
      <trkpt lat="42.5417250" lon="-8.9017350">
        <ele>-1.4</ele>
        <time>2020-08-07T13:48:15Z</time>
      </trkpt>
      <trkpt lat="42.5417250" lon="-8.9017350">
        <ele>-1.4</ele>
        <time>2020-08-07T13:48:16Z</time>
      </trkpt>
      <trkpt lat="42.5417250" lon="-8.9017350">
        <ele>-1.4</ele>
        <time>2020-08-07T13:48:17Z</time>
      </trkpt>
      <trkpt lat="42.5417090" lon="-8.9017560">
        <ele>-1.4</ele>
        <time>2020-08-07T13:48:18Z</time>
      </trkpt>
      <trkpt lat="42.5417090" lon="-8.9017560">
        <ele>-1.4</ele>
        <time>2020-08-07T13:48:19Z</time>
      </trkpt>
      <trkpt lat="42.5416960" lon="-8.9017780">
        <ele>-1.2</ele>
        <time>2020-08-07T13:48:20Z</time>
      </trkpt>
      <trkpt lat="42.5416960" lon="-8.9017780">
        <ele>-1.4</ele>
        <time>2020-08-07T13:48:21Z</time>
      </trkpt>
      <trkpt lat="42.5416800" lon="-8.9018000">
        <ele>-1.4</ele>
        <time>2020-08-07T13:48:22Z</time>
      </trkpt>
      <trkpt lat="42.5416800" lon="-8.9018000">
        <ele>-1.4</ele>
        <time>2020-08-07T13:48:23Z</time>
      </trkpt>
      <trkpt lat="42.5416800" lon="-8.9018000">
        <ele>-1.2</ele>
        <time>2020-08-07T13:48:24Z</time>
      </trkpt>
      <trkpt lat="42.5416640" lon="-8.9018290">
        <ele>-1.2</ele>
        <time>2020-08-07T13:48:25Z</time>
      </trkpt>
      <trkpt lat="42.5416640" lon="-8.9018290">
        <ele>-1.0</ele>
        <time>2020-08-07T13:48:26Z</time>
      </trkpt>
      <trkpt lat="42.5416480" lon="-8.9018420">
        <ele>-0.8</ele>
        <time>2020-08-07T13:48:27Z</time>
      </trkpt>
      <trkpt lat="42.5416480" lon="-8.9018420">
        <ele>-1.2</ele>
        <time>2020-08-07T13:48:28Z</time>
      </trkpt>
      <trkpt lat="42.5416290" lon="-8.9018540">
        <ele>-1.4</ele>
        <time>2020-08-07T13:48:29Z</time>
      </trkpt>
      <trkpt lat="42.5416290" lon="-8.9018540">
        <ele>-1.2</ele>
        <time>2020-08-07T13:48:30Z</time>
      </trkpt>
      <trkpt lat="42.5416060" lon="-8.9018610">
        <ele>-1.4</ele>
        <time>2020-08-07T13:48:31Z</time>
      </trkpt>
      <trkpt lat="42.5416060" lon="-8.9018610">
        <ele>-1.4</ele>
        <time>2020-08-07T13:48:32Z</time>
      </trkpt>
      <trkpt lat="42.5415870" lon="-8.9018650">
        <ele>-1.4</ele>
        <time>2020-08-07T13:48:33Z</time>
      </trkpt>
      <trkpt lat="42.5415870" lon="-8.9018650">
        <ele>-1.4</ele>
        <time>2020-08-07T13:48:34Z</time>
      </trkpt>
      <trkpt lat="42.5415650" lon="-8.9018700">
        <ele>-1.6</ele>
        <time>2020-08-07T13:48:35Z</time>
      </trkpt>
      <trkpt lat="42.5415650" lon="-8.9018700">
        <ele>-1.6</ele>
        <time>2020-08-07T13:48:36Z</time>
      </trkpt>
      <trkpt lat="42.5415420" lon="-8.9018770">
        <ele>-1.8</ele>
        <time>2020-08-07T13:48:37Z</time>
      </trkpt>
      <trkpt lat="42.5415420" lon="-8.9018770">
        <ele>-1.8</ele>
        <time>2020-08-07T13:48:38Z</time>
      </trkpt>
      <trkpt lat="42.5415230" lon="-8.9018850">
        <ele>-1.6</ele>
        <time>2020-08-07T13:48:39Z</time>
      </trkpt>
      <trkpt lat="42.5415230" lon="-8.9018850">
        <ele>-1.6</ele>
        <time>2020-08-07T13:48:40Z</time>
      </trkpt>
      <trkpt lat="42.5415010" lon="-8.9018940">
        <ele>-1.6</ele>
        <time>2020-08-07T13:48:41Z</time>
      </trkpt>
      <trkpt lat="42.5415010" lon="-8.9018940">
        <ele>-1.6</ele>
        <time>2020-08-07T13:48:42Z</time>
      </trkpt>
      <trkpt lat="42.5414820" lon="-8.9019030">
        <ele>-1.4</ele>
        <time>2020-08-07T13:48:43Z</time>
      </trkpt>
      <trkpt lat="42.5414820" lon="-8.9019030">
        <ele>-1.6</ele>
        <time>2020-08-07T13:48:44Z</time>
      </trkpt>
      <trkpt lat="42.5414820" lon="-8.9019030">
        <ele>-1.4</ele>
        <time>2020-08-07T13:48:45Z</time>
      </trkpt>
      <trkpt lat="42.5414530" lon="-8.9019070">
        <ele>-1.4</ele>
        <time>2020-08-07T13:48:46Z</time>
      </trkpt>
      <trkpt lat="42.5414530" lon="-8.9019070">
        <ele>-1.4</ele>
        <time>2020-08-07T13:48:47Z</time>
      </trkpt>
      <trkpt lat="42.5414530" lon="-8.9019070">
        <ele>-1.4</ele>
        <time>2020-08-07T13:48:48Z</time>
      </trkpt>
      <trkpt lat="42.5414270" lon="-8.9019140">
        <ele>-1.8</ele>
        <time>2020-08-07T13:48:49Z</time>
      </trkpt>
      <trkpt lat="42.5414270" lon="-8.9019140">
        <ele>-1.8</ele>
        <time>2020-08-07T13:48:50Z</time>
      </trkpt>
      <trkpt lat="42.5414270" lon="-8.9019140">
        <ele>-2.0</ele>
        <time>2020-08-07T13:48:51Z</time>
      </trkpt>
      <trkpt lat="42.5414050" lon="-8.9019250">
        <ele>-2.0</ele>
        <time>2020-08-07T13:48:52Z</time>
      </trkpt>
      <trkpt lat="42.5414050" lon="-8.9019250">
        <ele>-2.4</ele>
        <time>2020-08-07T13:48:53Z</time>
      </trkpt>
      <trkpt lat="42.5413860" lon="-8.9019340">
        <ele>-2.4</ele>
        <time>2020-08-07T13:48:54Z</time>
      </trkpt>
      <trkpt lat="42.5413860" lon="-8.9019340">
        <ele>-2.2</ele>
        <time>2020-08-07T13:48:55Z</time>
      </trkpt>
      <trkpt lat="42.5413700" lon="-8.9019450">
        <ele>-2.0</ele>
        <time>2020-08-07T13:48:56Z</time>
      </trkpt>
      <trkpt lat="42.5413700" lon="-8.9019450">
        <ele>-1.8</ele>
        <time>2020-08-07T13:48:57Z</time>
      </trkpt>
      <trkpt lat="42.5413540" lon="-8.9019600">
        <ele>-1.6</ele>
        <time>2020-08-07T13:48:58Z</time>
      </trkpt>
      <trkpt lat="42.5413540" lon="-8.9019600">
        <ele>-2.0</ele>
        <time>2020-08-07T13:48:59Z</time>
      </trkpt>
      <trkpt lat="42.5413540" lon="-8.9019600">
        <ele>-2.0</ele>
        <time>2020-08-07T13:49:00Z</time>
      </trkpt>
      <trkpt lat="42.5413310" lon="-8.9019770">
        <ele>-1.8</ele>
        <time>2020-08-07T13:49:01Z</time>
      </trkpt>
      <trkpt lat="42.5413310" lon="-8.9019770">
        <ele>-1.6</ele>
        <time>2020-08-07T13:49:02Z</time>
      </trkpt>
      <trkpt lat="42.5413120" lon="-8.9019820">
        <ele>-2.0</ele>
        <time>2020-08-07T13:49:03Z</time>
      </trkpt>
      <trkpt lat="42.5413120" lon="-8.9019820">
        <ele>-2.2</ele>
        <time>2020-08-07T13:49:04Z</time>
      </trkpt>
      <trkpt lat="42.5412930" lon="-8.9019900">
        <ele>-2.4</ele>
        <time>2020-08-07T13:49:05Z</time>
      </trkpt>
      <trkpt lat="42.5412930" lon="-8.9019900">
        <ele>-2.0</ele>
        <time>2020-08-07T13:49:06Z</time>
      </trkpt>
      <trkpt lat="42.5412700" lon="-8.9020030">
        <ele>-2.2</ele>
        <time>2020-08-07T13:49:07Z</time>
      </trkpt>
      <trkpt lat="42.5412700" lon="-8.9020030">
        <ele>-2.2</ele>
        <time>2020-08-07T13:49:08Z</time>
      </trkpt>
      <trkpt lat="42.5412480" lon="-8.9020170">
        <ele>-2.0</ele>
        <time>2020-08-07T13:49:09Z</time>
      </trkpt>
      <trkpt lat="42.5412480" lon="-8.9020170">
        <ele>-2.0</ele>
        <time>2020-08-07T13:49:10Z</time>
      </trkpt>
      <trkpt lat="42.5412260" lon="-8.9020320">
        <ele>-2.0</ele>
        <time>2020-08-07T13:49:11Z</time>
      </trkpt>
      <trkpt lat="42.5412260" lon="-8.9020320">
        <ele>-1.8</ele>
        <time>2020-08-07T13:49:12Z</time>
      </trkpt>
      <trkpt lat="42.5412100" lon="-8.9020520">
        <ele>-1.4</ele>
        <time>2020-08-07T13:49:13Z</time>
      </trkpt>
      <trkpt lat="42.5412100" lon="-8.9020520">
        <ele>-1.2</ele>
        <time>2020-08-07T13:49:14Z</time>
      </trkpt>
      <trkpt lat="42.5411940" lon="-8.9020720">
        <ele>-1.2</ele>
        <time>2020-08-07T13:49:15Z</time>
      </trkpt>
      <trkpt lat="42.5411940" lon="-8.9020720">
        <ele>-1.2</ele>
        <time>2020-08-07T13:49:16Z</time>
      </trkpt>
      <trkpt lat="42.5411810" lon="-8.9020920">
        <ele>-1.4</ele>
        <time>2020-08-07T13:49:17Z</time>
      </trkpt>
      <trkpt lat="42.5411810" lon="-8.9020920">
        <ele>-1.6</ele>
        <time>2020-08-07T13:49:18Z</time>
      </trkpt>
      <trkpt lat="42.5411650" lon="-8.9021120">
        <ele>-1.4</ele>
        <time>2020-08-07T13:49:19Z</time>
      </trkpt>
      <trkpt lat="42.5411650" lon="-8.9021120">
        <ele>-1.2</ele>
        <time>2020-08-07T13:49:20Z</time>
      </trkpt>
      <trkpt lat="42.5411490" lon="-8.9021280">
        <ele>-1.0</ele>
        <time>2020-08-07T13:49:21Z</time>
      </trkpt>
      <trkpt lat="42.5411490" lon="-8.9021280">
        <ele>-1.0</ele>
        <time>2020-08-07T13:49:22Z</time>
      </trkpt>
      <trkpt lat="42.5411490" lon="-8.9021280">
        <ele>-1.0</ele>
        <time>2020-08-07T13:49:23Z</time>
      </trkpt>
      <trkpt lat="42.5411330" lon="-8.9021460">
        <ele>-1.2</ele>
        <time>2020-08-07T13:49:24Z</time>
      </trkpt>
      <trkpt lat="42.5411330" lon="-8.9021460">
        <ele>-1.0</ele>
        <time>2020-08-07T13:49:25Z</time>
      </trkpt>
      <trkpt lat="42.5411330" lon="-8.9021460">
        <ele>-1.0</ele>
        <time>2020-08-07T13:49:26Z</time>
      </trkpt>
      <trkpt lat="42.5411140" lon="-8.9021660">
        <ele>-0.8</ele>
        <time>2020-08-07T13:49:27Z</time>
      </trkpt>
      <trkpt lat="42.5411140" lon="-8.9021660">
        <ele>-0.4</ele>
        <time>2020-08-07T13:49:28Z</time>
      </trkpt>
      <trkpt lat="42.5411140" lon="-8.9021660">
        <ele>0.0</ele>
        <time>2020-08-07T13:49:29Z</time>
      </trkpt>
      <trkpt lat="42.5411140" lon="-8.9021660">
        <ele>0.0</ele>
        <time>2020-08-07T13:49:30Z</time>
      </trkpt>
      <trkpt lat="42.5411010" lon="-8.9021950">
        <ele>0.0</ele>
        <time>2020-08-07T13:49:31Z</time>
      </trkpt>
      <trkpt lat="42.5411010" lon="-8.9021950">
        <ele>0.2</ele>
        <time>2020-08-07T13:49:32Z</time>
      </trkpt>
      <trkpt lat="42.5411010" lon="-8.9021950">
        <ele>0.4</ele>
        <time>2020-08-07T13:49:33Z</time>
      </trkpt>
      <trkpt lat="42.5410820" lon="-8.9022200">
        <ele>0.4</ele>
        <time>2020-08-07T13:49:34Z</time>
      </trkpt>
      <trkpt lat="42.5410820" lon="-8.9022200">
        <ele>0.6</ele>
        <time>2020-08-07T13:49:35Z</time>
      </trkpt>
      <trkpt lat="42.5410820" lon="-8.9022200">
        <ele>0.6</ele>
        <time>2020-08-07T13:49:36Z</time>
      </trkpt>
      <trkpt lat="42.5410720" lon="-8.9022440">
        <ele>0.6</ele>
        <time>2020-08-07T13:49:37Z</time>
      </trkpt>
      <trkpt lat="42.5410720" lon="-8.9022440">
        <ele>0.6</ele>
        <time>2020-08-07T13:49:38Z</time>
      </trkpt>
      <trkpt lat="42.5410720" lon="-8.9022440">
        <ele>0.6</ele>
        <time>2020-08-07T13:49:39Z</time>
      </trkpt>
      <trkpt lat="42.5410720" lon="-8.9022440">
        <ele>0.6</ele>
        <time>2020-08-07T13:49:40Z</time>
      </trkpt>
      <trkpt lat="42.5410720" lon="-8.9022440">
        <ele>0.6</ele>
        <time>2020-08-07T13:49:41Z</time>
      </trkpt>
      <trkpt lat="42.5410720" lon="-8.9022440">
        <ele>0.6</ele>
        <time>2020-08-07T13:49:42Z</time>
      </trkpt>
      <trkpt lat="42.5410660" lon="-8.9022700">
        <ele>0.6</ele>
        <time>2020-08-07T13:49:43Z</time>
      </trkpt>
      <trkpt lat="42.5410660" lon="-8.9022700">
        <ele>0.4</ele>
        <time>2020-08-07T13:49:44Z</time>
      </trkpt>
      <trkpt lat="42.5410660" lon="-8.9022700">
        <ele>0.4</ele>
        <time>2020-08-07T13:49:45Z</time>
      </trkpt>
      <trkpt lat="42.5410660" lon="-8.9022700">
        <ele>0.6</ele>
        <time>2020-08-07T13:49:46Z</time>
      </trkpt>
      <trkpt lat="42.5410660" lon="-8.9022700">
        <ele>0.6</ele>
        <time>2020-08-07T13:49:47Z</time>
      </trkpt>
      <trkpt lat="42.5410660" lon="-8.9022700">
        <ele>0.8</ele>
        <time>2020-08-07T13:49:48Z</time>
      </trkpt>
      <trkpt lat="42.5410660" lon="-8.9022700">
        <ele>1.0</ele>
        <time>2020-08-07T13:49:49Z</time>
      </trkpt>
      <trkpt lat="42.5410660" lon="-8.9022700">
        <ele>0.8</ele>
        <time>2020-08-07T13:49:50Z</time>
      </trkpt>
      <trkpt lat="42.5410660" lon="-8.9022700">
        <ele>0.8</ele>
        <time>2020-08-07T13:49:51Z</time>
      </trkpt>
      <trkpt lat="42.5410620" lon="-8.9022970">
        <ele>0.8</ele>
        <time>2020-08-07T13:49:52Z</time>
      </trkpt>
      <trkpt lat="42.5410620" lon="-8.9022970">
        <ele>1.0</ele>
        <time>2020-08-07T13:49:53Z</time>
      </trkpt>
      <trkpt lat="42.5410620" lon="-8.9022970">
        <ele>1.0</ele>
        <time>2020-08-07T13:49:54Z</time>
      </trkpt>
      <trkpt lat="42.5410620" lon="-8.9022970">
        <ele>0.8</ele>
        <time>2020-08-07T13:49:55Z</time>
      </trkpt>
      <trkpt lat="42.5410620" lon="-8.9022970">
        <ele>0.8</ele>
        <time>2020-08-07T13:49:56Z</time>
      </trkpt>
      <trkpt lat="42.5410620" lon="-8.9022970">
        <ele>0.8</ele>
        <time>2020-08-07T13:49:57Z</time>
      </trkpt>
      <trkpt lat="42.5410620" lon="-8.9022970">
        <ele>0.6</ele>
        <time>2020-08-07T13:49:58Z</time>
      </trkpt>
      <trkpt lat="42.5410620" lon="-8.9022970">
        <ele>0.6</ele>
        <time>2020-08-07T13:49:59Z</time>
      </trkpt>
      <trkpt lat="42.5410620" lon="-8.9022970">
        <ele>0.6</ele>
        <time>2020-08-07T13:50:00Z</time>
      </trkpt>
      <trkpt lat="42.5410620" lon="-8.9022970">
        <ele>0.6</ele>
        <time>2020-08-07T13:50:01Z</time>
      </trkpt>
      <trkpt lat="42.5410620" lon="-8.9022970">
        <ele>0.6</ele>
        <time>2020-08-07T13:50:02Z</time>
      </trkpt>
      <trkpt lat="42.5410620" lon="-8.9022970">
        <ele>0.6</ele>
        <time>2020-08-07T13:50:03Z</time>
      </trkpt>
      <trkpt lat="42.5410620" lon="-8.9022970">
        <ele>0.6</ele>
        <time>2020-08-07T13:50:04Z</time>
      </trkpt>
      <trkpt lat="42.5410620" lon="-8.9022970">
        <ele>0.6</ele>
        <time>2020-08-07T13:50:05Z</time>
      </trkpt>
      <trkpt lat="42.5410620" lon="-8.9022970">
        <ele>0.6</ele>
        <time>2020-08-07T13:50:06Z</time>
      </trkpt>
      <trkpt lat="42.5410620" lon="-8.9022970">
        <ele>0.6</ele>
        <time>2020-08-07T13:50:07Z</time>
      </trkpt>
      <trkpt lat="42.5410620" lon="-8.9022970">
        <ele>0.6</ele>
        <time>2020-08-07T13:50:08Z</time>
      </trkpt>
      <trkpt lat="42.5410620" lon="-8.9022970">
        <ele>0.6</ele>
        <time>2020-08-07T13:50:09Z</time>
      </trkpt>
      <trkpt lat="42.5410620" lon="-8.9022970">
        <ele>0.6</ele>
        <time>2020-08-07T13:50:10Z</time>
      </trkpt>
      <trkpt lat="42.5410620" lon="-8.9022970">
        <ele>0.6</ele>
        <time>2020-08-07T13:50:11Z</time>
      </trkpt>
      <trkpt lat="42.5410620" lon="-8.9022970">
        <ele>0.6</ele>
        <time>2020-08-07T13:50:12Z</time>
      </trkpt>
      <trkpt lat="42.5410620" lon="-8.9022970">
        <ele>0.6</ele>
        <time>2020-08-07T13:50:13Z</time>
      </trkpt>
      <trkpt lat="42.5410620" lon="-8.9022970">
        <ele>0.6</ele>
        <time>2020-08-07T13:50:14Z</time>
      </trkpt>
      <trkpt lat="42.5410620" lon="-8.9022970">
        <ele>0.6</ele>
        <time>2020-08-07T13:50:15Z</time>
      </trkpt>
      <trkpt lat="42.5410620" lon="-8.9022970">
        <ele>0.6</ele>
        <time>2020-08-07T13:50:16Z</time>
      </trkpt>
      <trkpt lat="42.5410620" lon="-8.9022970">
        <ele>0.6</ele>
        <time>2020-08-07T13:50:17Z</time>
      </trkpt>
      <trkpt lat="42.5410620" lon="-8.9022970">
        <ele>0.6</ele>
        <time>2020-08-07T13:50:18Z</time>
      </trkpt>
      <trkpt lat="42.5410620" lon="-8.9022970">
        <ele>0.6</ele>
        <time>2020-08-07T13:50:19Z</time>
      </trkpt>
      <trkpt lat="42.5410720" lon="-8.9023260">
        <ele>0.6</ele>
        <time>2020-08-07T13:50:20Z</time>
      </trkpt>
      <trkpt lat="42.5410720" lon="-8.9023260">
        <ele>0.6</ele>
        <time>2020-08-07T13:50:21Z</time>
      </trkpt>
      <trkpt lat="42.5410910" lon="-8.9023550">
        <ele>0.4</ele>
        <time>2020-08-07T13:50:22Z</time>
      </trkpt>
      <trkpt lat="42.5410910" lon="-8.9023550">
        <ele>0.6</ele>
        <time>2020-08-07T13:50:23Z</time>
      </trkpt>
      <trkpt lat="42.5411140" lon="-8.9023860">
        <ele>0.8</ele>
        <time>2020-08-07T13:50:24Z</time>
      </trkpt>
      <trkpt lat="42.5411140" lon="-8.9023860">
        <ele>0.6</ele>
        <time>2020-08-07T13:50:25Z</time>
      </trkpt>
      <trkpt lat="42.5411390" lon="-8.9024200">
        <ele>0.8</ele>
        <time>2020-08-07T13:50:26Z</time>
      </trkpt>
      <trkpt lat="42.5411390" lon="-8.9024200">
        <ele>0.4</ele>
        <time>2020-08-07T13:50:27Z</time>
      </trkpt>
      <trkpt lat="42.5411620" lon="-8.9024580">
        <ele>0.2</ele>
        <time>2020-08-07T13:50:28Z</time>
      </trkpt>
      <trkpt lat="42.5411620" lon="-8.9024580">
        <ele>0.4</ele>
        <time>2020-08-07T13:50:29Z</time>
      </trkpt>
      <trkpt lat="42.5411810" lon="-8.9024820">
        <ele>0.0</ele>
        <time>2020-08-07T13:50:30Z</time>
      </trkpt>
      <trkpt lat="42.5411810" lon="-8.9024820">
        <ele>0.4</ele>
        <time>2020-08-07T13:50:31Z</time>
      </trkpt>
      <trkpt lat="42.5411940" lon="-8.9025030">
        <ele>0.4</ele>
        <time>2020-08-07T13:50:32Z</time>
      </trkpt>
      <trkpt lat="42.5411940" lon="-8.9025030">
        <ele>0.8</ele>
        <time>2020-08-07T13:50:33Z</time>
      </trkpt>
      <trkpt lat="42.5412100" lon="-8.9025270">
        <ele>0.8</ele>
        <time>2020-08-07T13:50:34Z</time>
      </trkpt>
      <trkpt lat="42.5412100" lon="-8.9025270">
        <ele>0.8</ele>
        <time>2020-08-07T13:50:35Z</time>
      </trkpt>
      <trkpt lat="42.5412220" lon="-8.9025470">
        <ele>0.8</ele>
        <time>2020-08-07T13:50:36Z</time>
      </trkpt>
      <trkpt lat="42.5412220" lon="-8.9025470">
        <ele>0.6</ele>
        <time>2020-08-07T13:50:37Z</time>
      </trkpt>
      <trkpt lat="42.5412320" lon="-8.9025690">
        <ele>0.8</ele>
        <time>2020-08-07T13:50:38Z</time>
      </trkpt>
      <trkpt lat="42.5412320" lon="-8.9025690">
        <ele>0.4</ele>
        <time>2020-08-07T13:50:39Z</time>
      </trkpt>
      <trkpt lat="42.5412480" lon="-8.9025870">
        <ele>0.0</ele>
        <time>2020-08-07T13:50:40Z</time>
      </trkpt>
      <trkpt lat="42.5412480" lon="-8.9025870">
        <ele>0.2</ele>
        <time>2020-08-07T13:50:41Z</time>
      </trkpt>
      <trkpt lat="42.5412610" lon="-8.9026070">
        <ele>0.4</ele>
        <time>2020-08-07T13:50:42Z</time>
      </trkpt>
      <trkpt lat="42.5412610" lon="-8.9026070">
        <ele>0.2</ele>
        <time>2020-08-07T13:50:43Z</time>
      </trkpt>
      <trkpt lat="42.5412610" lon="-8.9026070">
        <ele>0.2</ele>
        <time>2020-08-07T13:50:44Z</time>
      </trkpt>
      <trkpt lat="42.5412740" lon="-8.9026340">
        <ele>0.2</ele>
        <time>2020-08-07T13:50:45Z</time>
      </trkpt>
      <trkpt lat="42.5412740" lon="-8.9026340">
        <ele>0.4</ele>
        <time>2020-08-07T13:50:46Z</time>
      </trkpt>
      <trkpt lat="42.5412860" lon="-8.9026540">
        <ele>0.6</ele>
        <time>2020-08-07T13:50:47Z</time>
      </trkpt>
      <trkpt lat="42.5412860" lon="-8.9026540">
        <ele>0.8</ele>
        <time>2020-08-07T13:50:48Z</time>
      </trkpt>
      <trkpt lat="42.5412930" lon="-8.9026780">
        <ele>0.8</ele>
        <time>2020-08-07T13:50:49Z</time>
      </trkpt>
      <trkpt lat="42.5412930" lon="-8.9026780">
        <ele>0.6</ele>
        <time>2020-08-07T13:50:50Z</time>
      </trkpt>
      <trkpt lat="42.5413060" lon="-8.9026980">
        <ele>0.4</ele>
        <time>2020-08-07T13:50:51Z</time>
      </trkpt>
      <trkpt lat="42.5413060" lon="-8.9026980">
        <ele>0.4</ele>
        <time>2020-08-07T13:50:52Z</time>
      </trkpt>
      <trkpt lat="42.5413060" lon="-8.9026980">
        <ele>0.6</ele>
        <time>2020-08-07T13:50:53Z</time>
      </trkpt>
      <trkpt lat="42.5413220" lon="-8.9027270">
        <ele>0.4</ele>
        <time>2020-08-07T13:50:54Z</time>
      </trkpt>
      <trkpt lat="42.5413220" lon="-8.9027270">
        <ele>0.4</ele>
        <time>2020-08-07T13:50:55Z</time>
      </trkpt>
      <trkpt lat="42.5413220" lon="-8.9027270">
        <ele>0.4</ele>
        <time>2020-08-07T13:50:56Z</time>
      </trkpt>
      <trkpt lat="42.5413380" lon="-8.9027570">
        <ele>0.4</ele>
        <time>2020-08-07T13:50:57Z</time>
      </trkpt>
      <trkpt lat="42.5413380" lon="-8.9027570">
        <ele>0.4</ele>
        <time>2020-08-07T13:50:58Z</time>
      </trkpt>
      <trkpt lat="42.5413380" lon="-8.9027570">
        <ele>0.6</ele>
        <time>2020-08-07T13:50:59Z</time>
      </trkpt>
      <trkpt lat="42.5413470" lon="-8.9027950">
        <ele>1.0</ele>
        <time>2020-08-07T13:51:00Z</time>
      </trkpt>
      <trkpt lat="42.5413470" lon="-8.9027950">
        <ele>1.0</ele>
        <time>2020-08-07T13:51:01Z</time>
      </trkpt>
      <trkpt lat="42.5413470" lon="-8.9027950">
        <ele>1.2</ele>
        <time>2020-08-07T13:51:02Z</time>
      </trkpt>
      <trkpt lat="42.5413630" lon="-8.9028300">
        <ele>1.4</ele>
        <time>2020-08-07T13:51:03Z</time>
      </trkpt>
      <trkpt lat="42.5413630" lon="-8.9028300">
        <ele>1.2</ele>
        <time>2020-08-07T13:51:04Z</time>
      </trkpt>
      <trkpt lat="42.5413630" lon="-8.9028300">
        <ele>0.8</ele>
        <time>2020-08-07T13:51:05Z</time>
      </trkpt>
      <trkpt lat="42.5413820" lon="-8.9028580">
        <ele>0.6</ele>
        <time>2020-08-07T13:51:06Z</time>
      </trkpt>
      <trkpt lat="42.5413820" lon="-8.9028580">
        <ele>0.4</ele>
        <time>2020-08-07T13:51:07Z</time>
      </trkpt>
      <trkpt lat="42.5413820" lon="-8.9028580">
        <ele>0.4</ele>
        <time>2020-08-07T13:51:08Z</time>
      </trkpt>
      <trkpt lat="42.5413980" lon="-8.9028860">
        <ele>0.4</ele>
        <time>2020-08-07T13:51:09Z</time>
      </trkpt>
      <trkpt lat="42.5413980" lon="-8.9028860">
        <ele>0.6</ele>
        <time>2020-08-07T13:51:10Z</time>
      </trkpt>
      <trkpt lat="42.5414080" lon="-8.9029080">
        <ele>0.8</ele>
        <time>2020-08-07T13:51:11Z</time>
      </trkpt>
      <trkpt lat="42.5414080" lon="-8.9029080">
        <ele>0.8</ele>
        <time>2020-08-07T13:51:12Z</time>
      </trkpt>
      <trkpt lat="42.5414210" lon="-8.9029280">
        <ele>0.8</ele>
        <time>2020-08-07T13:51:13Z</time>
      </trkpt>
      <trkpt lat="42.5414210" lon="-8.9029280">
        <ele>1.0</ele>
        <time>2020-08-07T13:51:14Z</time>
      </trkpt>
      <trkpt lat="42.5414300" lon="-8.9029500">
        <ele>1.0</ele>
        <time>2020-08-07T13:51:15Z</time>
      </trkpt>
      <trkpt lat="42.5414300" lon="-8.9029500">
        <ele>0.6</ele>
        <time>2020-08-07T13:51:16Z</time>
      </trkpt>
      <trkpt lat="42.5414430" lon="-8.9029710">
        <ele>0.6</ele>
        <time>2020-08-07T13:51:17Z</time>
      </trkpt>
      <trkpt lat="42.5414430" lon="-8.9029710">
        <ele>1.0</ele>
        <time>2020-08-07T13:51:18Z</time>
      </trkpt>
      <trkpt lat="42.5414430" lon="-8.9029710">
        <ele>1.2</ele>
        <time>2020-08-07T13:51:19Z</time>
      </trkpt>
      <trkpt lat="42.5414590" lon="-8.9030040">
        <ele>1.0</ele>
        <time>2020-08-07T13:51:20Z</time>
      </trkpt>
      <trkpt lat="42.5414590" lon="-8.9030040">
        <ele>1.0</ele>
        <time>2020-08-07T13:51:21Z</time>
      </trkpt>
      <trkpt lat="42.5414690" lon="-8.9030310">
        <ele>1.0</ele>
        <time>2020-08-07T13:51:22Z</time>
      </trkpt>
      <trkpt lat="42.5414690" lon="-8.9030310">
        <ele>1.2</ele>
        <time>2020-08-07T13:51:23Z</time>
      </trkpt>
      <trkpt lat="42.5414820" lon="-8.9030550">
        <ele>1.2</ele>
        <time>2020-08-07T13:51:24Z</time>
      </trkpt>
      <trkpt lat="42.5414820" lon="-8.9030550">
        <ele>1.2</ele>
        <time>2020-08-07T13:51:25Z</time>
      </trkpt>
      <trkpt lat="42.5414980" lon="-8.9030760">
        <ele>1.2</ele>
        <time>2020-08-07T13:51:26Z</time>
      </trkpt>
      <trkpt lat="42.5414980" lon="-8.9030760">
        <ele>1.0</ele>
        <time>2020-08-07T13:51:27Z</time>
      </trkpt>
      <trkpt lat="42.5415070" lon="-8.9030980">
        <ele>0.8</ele>
        <time>2020-08-07T13:51:28Z</time>
      </trkpt>
      <trkpt lat="42.5415070" lon="-8.9030980">
        <ele>0.8</ele>
        <time>2020-08-07T13:51:29Z</time>
      </trkpt>
      <trkpt lat="42.5415200" lon="-8.9031220">
        <ele>1.0</ele>
        <time>2020-08-07T13:51:30Z</time>
      </trkpt>
      <trkpt lat="42.5415200" lon="-8.9031220">
        <ele>1.0</ele>
        <time>2020-08-07T13:51:31Z</time>
      </trkpt>
      <trkpt lat="42.5415200" lon="-8.9031220">
        <ele>0.6</ele>
        <time>2020-08-07T13:51:32Z</time>
      </trkpt>
      <trkpt lat="42.5415390" lon="-8.9031500">
        <ele>0.6</ele>
        <time>2020-08-07T13:51:33Z</time>
      </trkpt>
      <trkpt lat="42.5415390" lon="-8.9031500">
        <ele>0.6</ele>
        <time>2020-08-07T13:51:34Z</time>
      </trkpt>
      <trkpt lat="42.5415390" lon="-8.9031500">
        <ele>0.6</ele>
        <time>2020-08-07T13:51:35Z</time>
      </trkpt>
      <trkpt lat="42.5415580" lon="-8.9031800">
        <ele>0.4</ele>
        <time>2020-08-07T13:51:36Z</time>
      </trkpt>
      <trkpt lat="42.5415580" lon="-8.9031800">
        <ele>0.4</ele>
        <time>2020-08-07T13:51:37Z</time>
      </trkpt>
      <trkpt lat="42.5415580" lon="-8.9031800">
        <ele>0.0</ele>
        <time>2020-08-07T13:51:38Z</time>
      </trkpt>
      <trkpt lat="42.5415780" lon="-8.9032100">
        <ele>0.0</ele>
        <time>2020-08-07T13:51:39Z</time>
      </trkpt>
      <trkpt lat="42.5415780" lon="-8.9032100">
        <ele>0.0</ele>
        <time>2020-08-07T13:51:40Z</time>
      </trkpt>
      <trkpt lat="42.5415870" lon="-8.9032320">
        <ele>0.0</ele>
        <time>2020-08-07T13:51:41Z</time>
      </trkpt>
      <trkpt lat="42.5415870" lon="-8.9032320">
        <ele>-0.2</ele>
        <time>2020-08-07T13:51:42Z</time>
      </trkpt>
      <trkpt lat="42.5416030" lon="-8.9032540">
        <ele>0.2</ele>
        <time>2020-08-07T13:51:43Z</time>
      </trkpt>
      <trkpt lat="42.5416030" lon="-8.9032540">
        <ele>0.2</ele>
        <time>2020-08-07T13:51:44Z</time>
      </trkpt>
      <trkpt lat="42.5416160" lon="-8.9032740">
        <ele>0.4</ele>
        <time>2020-08-07T13:51:45Z</time>
      </trkpt>
      <trkpt lat="42.5416160" lon="-8.9032740">
        <ele>0.4</ele>
        <time>2020-08-07T13:51:46Z</time>
      </trkpt>
      <trkpt lat="42.5416290" lon="-8.9032940">
        <ele>0.2</ele>
        <time>2020-08-07T13:51:47Z</time>
      </trkpt>
      <trkpt lat="42.5416290" lon="-8.9032940">
        <ele>0.0</ele>
        <time>2020-08-07T13:51:48Z</time>
      </trkpt>
      <trkpt lat="42.5416450" lon="-8.9033140">
        <ele>-0.6</ele>
        <time>2020-08-07T13:51:49Z</time>
      </trkpt>
      <trkpt lat="42.5416450" lon="-8.9033140">
        <ele>-0.6</ele>
        <time>2020-08-07T13:51:50Z</time>
      </trkpt>
      <trkpt lat="42.5416580" lon="-8.9033370">
        <ele>-0.8</ele>
        <time>2020-08-07T13:51:51Z</time>
      </trkpt>
      <trkpt lat="42.5416580" lon="-8.9033370">
        <ele>-0.6</ele>
        <time>2020-08-07T13:51:52Z</time>
      </trkpt>
      <trkpt lat="42.5416580" lon="-8.9033370">
        <ele>-0.6</ele>
        <time>2020-08-07T13:51:53Z</time>
      </trkpt>
      <trkpt lat="42.5416700" lon="-8.9033630">
        <ele>-0.4</ele>
        <time>2020-08-07T13:51:54Z</time>
      </trkpt>
      <trkpt lat="42.5416700" lon="-8.9033630">
        <ele>-0.4</ele>
        <time>2020-08-07T13:51:55Z</time>
      </trkpt>
      <trkpt lat="42.5416830" lon="-8.9033850">
        <ele>-0.4</ele>
        <time>2020-08-07T13:51:56Z</time>
      </trkpt>
      <trkpt lat="42.5416830" lon="-8.9033850">
        <ele>-0.6</ele>
        <time>2020-08-07T13:51:57Z</time>
      </trkpt>
      <trkpt lat="42.5416960" lon="-8.9034050">
        <ele>-0.6</ele>
        <time>2020-08-07T13:51:58Z</time>
      </trkpt>
      <trkpt lat="42.5416960" lon="-8.9034050">
        <ele>-0.6</ele>
        <time>2020-08-07T13:51:59Z</time>
      </trkpt>
      <trkpt lat="42.5416960" lon="-8.9034050">
        <ele>-0.4</ele>
        <time>2020-08-07T13:52:00Z</time>
      </trkpt>
      <trkpt lat="42.5417060" lon="-8.9034340">
        <ele>-0.4</ele>
        <time>2020-08-07T13:52:01Z</time>
      </trkpt>
      <trkpt lat="42.5417060" lon="-8.9034340">
        <ele>-0.6</ele>
        <time>2020-08-07T13:52:02Z</time>
      </trkpt>
      <trkpt lat="42.5417060" lon="-8.9034340">
        <ele>-0.4</ele>
        <time>2020-08-07T13:52:03Z</time>
      </trkpt>
      <trkpt lat="42.5417090" lon="-8.9034660">
        <ele>-0.2</ele>
        <time>2020-08-07T13:52:04Z</time>
      </trkpt>
      <trkpt lat="42.5417090" lon="-8.9034660">
        <ele>-0.2</ele>
        <time>2020-08-07T13:52:05Z</time>
      </trkpt>
      <trkpt lat="42.5417090" lon="-8.9034660">
        <ele>-0.4</ele>
        <time>2020-08-07T13:52:06Z</time>
      </trkpt>
      <trkpt lat="42.5417250" lon="-8.9034930">
        <ele>-0.6</ele>
        <time>2020-08-07T13:52:07Z</time>
      </trkpt>
      <trkpt lat="42.5417250" lon="-8.9034930">
        <ele>-0.6</ele>
        <time>2020-08-07T13:52:08Z</time>
      </trkpt>
      <trkpt lat="42.5417280" lon="-8.9035170">
        <ele>-0.2</ele>
        <time>2020-08-07T13:52:09Z</time>
      </trkpt>
      <trkpt lat="42.5417280" lon="-8.9035170">
        <ele>-0.2</ele>
        <time>2020-08-07T13:52:10Z</time>
      </trkpt>
      <trkpt lat="42.5417280" lon="-8.9035170">
        <ele>0.2</ele>
        <time>2020-08-07T13:52:11Z</time>
      </trkpt>
      <trkpt lat="42.5417410" lon="-8.9035460">
        <ele>0.2</ele>
        <time>2020-08-07T13:52:12Z</time>
      </trkpt>
      <trkpt lat="42.5417410" lon="-8.9035460">
        <ele>-0.2</ele>
        <time>2020-08-07T13:52:13Z</time>
      </trkpt>
      <trkpt lat="42.5417410" lon="-8.9035460">
        <ele>0.0</ele>
        <time>2020-08-07T13:52:14Z</time>
      </trkpt>
      <trkpt lat="42.5417570" lon="-8.9035730">
        <ele>0.0</ele>
        <time>2020-08-07T13:52:15Z</time>
      </trkpt>
      <trkpt lat="42.5417570" lon="-8.9035730">
        <ele>0.2</ele>
        <time>2020-08-07T13:52:16Z</time>
      </trkpt>
      <trkpt lat="42.5417630" lon="-8.9035970">
        <ele>-0.6</ele>
        <time>2020-08-07T13:52:17Z</time>
      </trkpt>
      <trkpt lat="42.5417630" lon="-8.9035970">
        <ele>-0.8</ele>
        <time>2020-08-07T13:52:18Z</time>
      </trkpt>
      <trkpt lat="42.5417630" lon="-8.9035970">
        <ele>-0.6</ele>
        <time>2020-08-07T13:52:19Z</time>
      </trkpt>
      <trkpt lat="42.5417790" lon="-8.9036260">
        <ele>-0.6</ele>
        <time>2020-08-07T13:52:20Z</time>
      </trkpt>
      <trkpt lat="42.5417790" lon="-8.9036260">
        <ele>-0.2</ele>
        <time>2020-08-07T13:52:21Z</time>
      </trkpt>
      <trkpt lat="42.5417790" lon="-8.9036260">
        <ele>0.0</ele>
        <time>2020-08-07T13:52:22Z</time>
      </trkpt>
      <trkpt lat="42.5417950" lon="-8.9036510">
        <ele>0.0</ele>
        <time>2020-08-07T13:52:23Z</time>
      </trkpt>
      <trkpt lat="42.5417950" lon="-8.9036510">
        <ele>0.0</ele>
        <time>2020-08-07T13:52:24Z</time>
      </trkpt>
      <trkpt lat="42.5417950" lon="-8.9036510">
        <ele>0.0</ele>
        <time>2020-08-07T13:52:25Z</time>
      </trkpt>
      <trkpt lat="42.5418080" lon="-8.9036820">
        <ele>-0.2</ele>
        <time>2020-08-07T13:52:26Z</time>
      </trkpt>
      <trkpt lat="42.5418080" lon="-8.9036820">
        <ele>0.0</ele>
        <time>2020-08-07T13:52:27Z</time>
      </trkpt>
      <trkpt lat="42.5418180" lon="-8.9037040">
        <ele>0.0</ele>
        <time>2020-08-07T13:52:28Z</time>
      </trkpt>
      <trkpt lat="42.5418180" lon="-8.9037040">
        <ele>-0.4</ele>
        <time>2020-08-07T13:52:29Z</time>
      </trkpt>
      <trkpt lat="42.5418180" lon="-8.9037040">
        <ele>-0.2</ele>
        <time>2020-08-07T13:52:30Z</time>
      </trkpt>
      <trkpt lat="42.5418370" lon="-8.9037370">
        <ele>0.0</ele>
        <time>2020-08-07T13:52:31Z</time>
      </trkpt>
      <trkpt lat="42.5418370" lon="-8.9037370">
        <ele>0.2</ele>
        <time>2020-08-07T13:52:32Z</time>
      </trkpt>
      <trkpt lat="42.5418430" lon="-8.9037690">
        <ele>0.0</ele>
        <time>2020-08-07T13:52:33Z</time>
      </trkpt>
      <trkpt lat="42.5418430" lon="-8.9037690">
        <ele>0.0</ele>
        <time>2020-08-07T13:52:34Z</time>
      </trkpt>
      <trkpt lat="42.5418560" lon="-8.9037950">
        <ele>0.0</ele>
        <time>2020-08-07T13:52:35Z</time>
      </trkpt>
      <trkpt lat="42.5418560" lon="-8.9037950">
        <ele>0.2</ele>
        <time>2020-08-07T13:52:36Z</time>
      </trkpt>
      <trkpt lat="42.5418690" lon="-8.9038200">
        <ele>0.0</ele>
        <time>2020-08-07T13:52:37Z</time>
      </trkpt>
      <trkpt lat="42.5418690" lon="-8.9038200">
        <ele>0.0</ele>
        <time>2020-08-07T13:52:38Z</time>
      </trkpt>
      <trkpt lat="42.5418820" lon="-8.9038450">
        <ele>0.2</ele>
        <time>2020-08-07T13:52:39Z</time>
      </trkpt>
      <trkpt lat="42.5418820" lon="-8.9038450">
        <ele>0.0</ele>
        <time>2020-08-07T13:52:40Z</time>
      </trkpt>
      <trkpt lat="42.5419010" lon="-8.9038700">
        <ele>0.4</ele>
        <time>2020-08-07T13:52:41Z</time>
      </trkpt>
      <trkpt lat="42.5419010" lon="-8.9038700">
        <ele>0.4</ele>
        <time>2020-08-07T13:52:42Z</time>
      </trkpt>
      <trkpt lat="42.5419230" lon="-8.9038890">
        <ele>0.2</ele>
        <time>2020-08-07T13:52:43Z</time>
      </trkpt>
      <trkpt lat="42.5419230" lon="-8.9038890">
        <ele>0.2</ele>
        <time>2020-08-07T13:52:44Z</time>
      </trkpt>
      <trkpt lat="42.5419420" lon="-8.9039050">
        <ele>0.2</ele>
        <time>2020-08-07T13:52:45Z</time>
      </trkpt>
      <trkpt lat="42.5419420" lon="-8.9039050">
        <ele>0.0</ele>
        <time>2020-08-07T13:52:46Z</time>
      </trkpt>
      <trkpt lat="42.5419620" lon="-8.9039180">
        <ele>0.2</ele>
        <time>2020-08-07T13:52:47Z</time>
      </trkpt>
      <trkpt lat="42.5419620" lon="-8.9039180">
        <ele>0.0</ele>
        <time>2020-08-07T13:52:48Z</time>
      </trkpt>
      <trkpt lat="42.5419870" lon="-8.9039360">
        <ele>-0.2</ele>
        <time>2020-08-07T13:52:49Z</time>
      </trkpt>
      <trkpt lat="42.5419870" lon="-8.9039360">
        <ele>-0.2</ele>
        <time>2020-08-07T13:52:50Z</time>
      </trkpt>
      <trkpt lat="42.5420060" lon="-8.9039540">
        <ele>-0.2</ele>
        <time>2020-08-07T13:52:51Z</time>
      </trkpt>
      <trkpt lat="42.5420060" lon="-8.9039540">
        <ele>-0.4</ele>
        <time>2020-08-07T13:52:52Z</time>
      </trkpt>
      <trkpt lat="42.5420260" lon="-8.9039740">
        <ele>-0.6</ele>
        <time>2020-08-07T13:52:53Z</time>
      </trkpt>
      <trkpt lat="42.5420260" lon="-8.9039740">
        <ele>0.0</ele>
        <time>2020-08-07T13:52:54Z</time>
      </trkpt>
      <trkpt lat="42.5420420" lon="-8.9039940">
        <ele>0.4</ele>
        <time>2020-08-07T13:52:55Z</time>
      </trkpt>
      <trkpt lat="42.5420420" lon="-8.9039940">
        <ele>0.8</ele>
        <time>2020-08-07T13:52:56Z</time>
      </trkpt>
      <trkpt lat="42.5420610" lon="-8.9040140">
        <ele>0.8</ele>
        <time>2020-08-07T13:52:57Z</time>
      </trkpt>
      <trkpt lat="42.5420610" lon="-8.9040140">
        <ele>1.0</ele>
        <time>2020-08-07T13:52:58Z</time>
      </trkpt>
      <trkpt lat="42.5420800" lon="-8.9040380">
        <ele>1.0</ele>
        <time>2020-08-07T13:52:59Z</time>
      </trkpt>
      <trkpt lat="42.5420800" lon="-8.9040380">
        <ele>1.2</ele>
        <time>2020-08-07T13:53:00Z</time>
      </trkpt>
      <trkpt lat="42.5420930" lon="-8.9040630">
        <ele>1.6</ele>
        <time>2020-08-07T13:53:01Z</time>
      </trkpt>
      <trkpt lat="42.5420930" lon="-8.9040630">
        <ele>1.8</ele>
        <time>2020-08-07T13:53:02Z</time>
      </trkpt>
      <trkpt lat="42.5421060" lon="-8.9040850">
        <ele>1.6</ele>
        <time>2020-08-07T13:53:03Z</time>
      </trkpt>
      <trkpt lat="42.5421060" lon="-8.9040850">
        <ele>1.4</ele>
        <time>2020-08-07T13:53:04Z</time>
      </trkpt>
      <trkpt lat="42.5421220" lon="-8.9041070">
        <ele>1.2</ele>
        <time>2020-08-07T13:53:05Z</time>
      </trkpt>
      <trkpt lat="42.5421220" lon="-8.9041070">
        <ele>1.0</ele>
        <time>2020-08-07T13:53:06Z</time>
      </trkpt>
      <trkpt lat="42.5421410" lon="-8.9041300">
        <ele>0.8</ele>
        <time>2020-08-07T13:53:07Z</time>
      </trkpt>
      <trkpt lat="42.5421410" lon="-8.9041300">
        <ele>0.6</ele>
        <time>2020-08-07T13:53:08Z</time>
      </trkpt>
      <trkpt lat="42.5421540" lon="-8.9041540">
        <ele>0.8</ele>
        <time>2020-08-07T13:53:09Z</time>
      </trkpt>
      <trkpt lat="42.5421540" lon="-8.9041540">
        <ele>0.6</ele>
        <time>2020-08-07T13:53:10Z</time>
      </trkpt>
      <trkpt lat="42.5421660" lon="-8.9041790">
        <ele>0.4</ele>
        <time>2020-08-07T13:53:11Z</time>
      </trkpt>
      <trkpt lat="42.5421660" lon="-8.9041790">
        <ele>0.6</ele>
        <time>2020-08-07T13:53:12Z</time>
      </trkpt>
      <trkpt lat="42.5421790" lon="-8.9042000">
        <ele>0.4</ele>
        <time>2020-08-07T13:53:13Z</time>
      </trkpt>
      <trkpt lat="42.5421790" lon="-8.9042000">
        <ele>0.4</ele>
        <time>2020-08-07T13:53:14Z</time>
      </trkpt>
      <trkpt lat="42.5421920" lon="-8.9042260">
        <ele>0.4</ele>
        <time>2020-08-07T13:53:15Z</time>
      </trkpt>
      <trkpt lat="42.5421920" lon="-8.9042260">
        <ele>0.4</ele>
        <time>2020-08-07T13:53:16Z</time>
      </trkpt>
      <trkpt lat="42.5422050" lon="-8.9042520">
        <ele>0.2</ele>
        <time>2020-08-07T13:53:17Z</time>
      </trkpt>
      <trkpt lat="42.5422050" lon="-8.9042520">
        <ele>0.0</ele>
        <time>2020-08-07T13:53:18Z</time>
      </trkpt>
      <trkpt lat="42.5422140" lon="-8.9042770">
        <ele>-0.2</ele>
        <time>2020-08-07T13:53:19Z</time>
      </trkpt>
      <trkpt lat="42.5422140" lon="-8.9042770">
        <ele>-0.6</ele>
        <time>2020-08-07T13:53:20Z</time>
      </trkpt>
      <trkpt lat="42.5422270" lon="-8.9042970">
        <ele>-0.6</ele>
        <time>2020-08-07T13:53:21Z</time>
      </trkpt>
      <trkpt lat="42.5422270" lon="-8.9042970">
        <ele>-0.4</ele>
        <time>2020-08-07T13:53:22Z</time>
      </trkpt>
      <trkpt lat="42.5422400" lon="-8.9043200">
        <ele>-0.4</ele>
        <time>2020-08-07T13:53:23Z</time>
      </trkpt>
      <trkpt lat="42.5422400" lon="-8.9043200">
        <ele>-0.4</ele>
        <time>2020-08-07T13:53:24Z</time>
      </trkpt>
      <trkpt lat="42.5422530" lon="-8.9043420">
        <ele>-0.6</ele>
        <time>2020-08-07T13:53:25Z</time>
      </trkpt>
      <trkpt lat="42.5422530" lon="-8.9043420">
        <ele>-0.8</ele>
        <time>2020-08-07T13:53:26Z</time>
      </trkpt>
      <trkpt lat="42.5422660" lon="-8.9043690">
        <ele>-1.0</ele>
        <time>2020-08-07T13:53:27Z</time>
      </trkpt>
      <trkpt lat="42.5422660" lon="-8.9043690">
        <ele>-1.2</ele>
        <time>2020-08-07T13:53:28Z</time>
      </trkpt>
      <trkpt lat="42.5422780" lon="-8.9043860">
        <ele>-1.2</ele>
        <time>2020-08-07T13:53:29Z</time>
      </trkpt>
      <trkpt lat="42.5422780" lon="-8.9043860">
        <ele>-1.4</ele>
        <time>2020-08-07T13:53:30Z</time>
      </trkpt>
      <trkpt lat="42.5422910" lon="-8.9044060">
        <ele>-1.2</ele>
        <time>2020-08-07T13:53:31Z</time>
      </trkpt>
      <trkpt lat="42.5422910" lon="-8.9044060">
        <ele>-1.0</ele>
        <time>2020-08-07T13:53:32Z</time>
      </trkpt>
      <trkpt lat="42.5423010" lon="-8.9044310">
        <ele>-1.0</ele>
        <time>2020-08-07T13:53:33Z</time>
      </trkpt>
      <trkpt lat="42.5423010" lon="-8.9044310">
        <ele>-0.8</ele>
        <time>2020-08-07T13:53:34Z</time>
      </trkpt>
      <trkpt lat="42.5423140" lon="-8.9044540">
        <ele>-0.8</ele>
        <time>2020-08-07T13:53:35Z</time>
      </trkpt>
      <trkpt lat="42.5423140" lon="-8.9044540">
        <ele>-0.8</ele>
        <time>2020-08-07T13:53:36Z</time>
      </trkpt>
      <trkpt lat="42.5423230" lon="-8.9044750">
        <ele>-0.8</ele>
        <time>2020-08-07T13:53:37Z</time>
      </trkpt>
      <trkpt lat="42.5423230" lon="-8.9044750">
        <ele>-1.0</ele>
        <time>2020-08-07T13:53:38Z</time>
      </trkpt>
      <trkpt lat="42.5423360" lon="-8.9045020">
        <ele>-0.6</ele>
        <time>2020-08-07T13:53:39Z</time>
      </trkpt>
      <trkpt lat="42.5423360" lon="-8.9045020">
        <ele>-1.0</ele>
        <time>2020-08-07T13:53:40Z</time>
      </trkpt>
      <trkpt lat="42.5423460" lon="-8.9045230">
        <ele>-1.0</ele>
        <time>2020-08-07T13:53:41Z</time>
      </trkpt>
      <trkpt lat="42.5423460" lon="-8.9045230">
        <ele>-1.0</ele>
        <time>2020-08-07T13:53:42Z</time>
      </trkpt>
      <trkpt lat="42.5423580" lon="-8.9045500">
        <ele>-1.0</ele>
        <time>2020-08-07T13:53:43Z</time>
      </trkpt>
      <trkpt lat="42.5423580" lon="-8.9045500">
        <ele>-1.0</ele>
        <time>2020-08-07T13:53:44Z</time>
      </trkpt>
      <trkpt lat="42.5423740" lon="-8.9045740">
        <ele>-1.0</ele>
        <time>2020-08-07T13:53:45Z</time>
      </trkpt>
      <trkpt lat="42.5423740" lon="-8.9045740">
        <ele>-1.2</ele>
        <time>2020-08-07T13:53:46Z</time>
      </trkpt>
      <trkpt lat="42.5423900" lon="-8.9046000">
        <ele>-1.2</ele>
        <time>2020-08-07T13:53:47Z</time>
      </trkpt>
      <trkpt lat="42.5423900" lon="-8.9046000">
        <ele>-1.2</ele>
        <time>2020-08-07T13:53:48Z</time>
      </trkpt>
      <trkpt lat="42.5424030" lon="-8.9046250">
        <ele>-1.2</ele>
        <time>2020-08-07T13:53:49Z</time>
      </trkpt>
      <trkpt lat="42.5424030" lon="-8.9046250">
        <ele>-1.2</ele>
        <time>2020-08-07T13:53:50Z</time>
      </trkpt>
      <trkpt lat="42.5424160" lon="-8.9046500">
        <ele>-1.2</ele>
        <time>2020-08-07T13:53:51Z</time>
      </trkpt>
      <trkpt lat="42.5424160" lon="-8.9046500">
        <ele>-1.0</ele>
        <time>2020-08-07T13:53:52Z</time>
      </trkpt>
      <trkpt lat="42.5424320" lon="-8.9046740">
        <ele>-1.0</ele>
        <time>2020-08-07T13:53:53Z</time>
      </trkpt>
      <trkpt lat="42.5424320" lon="-8.9046740">
        <ele>-0.6</ele>
        <time>2020-08-07T13:53:54Z</time>
      </trkpt>
      <trkpt lat="42.5424420" lon="-8.9047000">
        <ele>-0.6</ele>
        <time>2020-08-07T13:53:55Z</time>
      </trkpt>
      <trkpt lat="42.5424420" lon="-8.9047000">
        <ele>-0.6</ele>
        <time>2020-08-07T13:53:56Z</time>
      </trkpt>
      <trkpt lat="42.5424610" lon="-8.9047230">
        <ele>-0.8</ele>
        <time>2020-08-07T13:53:57Z</time>
      </trkpt>
      <trkpt lat="42.5424610" lon="-8.9047230">
        <ele>-0.8</ele>
        <time>2020-08-07T13:53:58Z</time>
      </trkpt>
      <trkpt lat="42.5424770" lon="-8.9047450">
        <ele>-0.8</ele>
        <time>2020-08-07T13:53:59Z</time>
      </trkpt>
      <trkpt lat="42.5424770" lon="-8.9047450">
        <ele>-0.8</ele>
        <time>2020-08-07T13:54:00Z</time>
      </trkpt>
      <trkpt lat="42.5424900" lon="-8.9047680">
        <ele>-0.4</ele>
        <time>2020-08-07T13:54:01Z</time>
      </trkpt>
      <trkpt lat="42.5424900" lon="-8.9047680">
        <ele>-0.2</ele>
        <time>2020-08-07T13:54:02Z</time>
      </trkpt>
      <trkpt lat="42.5424990" lon="-8.9047940">
        <ele>-0.2</ele>
        <time>2020-08-07T13:54:03Z</time>
      </trkpt>
      <trkpt lat="42.5424990" lon="-8.9047940">
        <ele>0.0</ele>
        <time>2020-08-07T13:54:04Z</time>
      </trkpt>
      <trkpt lat="42.5425150" lon="-8.9048180">
        <ele>0.0</ele>
        <time>2020-08-07T13:54:05Z</time>
      </trkpt>
      <trkpt lat="42.5425150" lon="-8.9048180">
        <ele>0.0</ele>
        <time>2020-08-07T13:54:06Z</time>
      </trkpt>
      <trkpt lat="42.5425250" lon="-8.9048430">
        <ele>0.2</ele>
        <time>2020-08-07T13:54:07Z</time>
      </trkpt>
      <trkpt lat="42.5425250" lon="-8.9048430">
        <ele>0.4</ele>
        <time>2020-08-07T13:54:08Z</time>
      </trkpt>
      <trkpt lat="42.5425380" lon="-8.9048700">
        <ele>0.2</ele>
        <time>2020-08-07T13:54:09Z</time>
      </trkpt>
      <trkpt lat="42.5425380" lon="-8.9048700">
        <ele>0.0</ele>
        <time>2020-08-07T13:54:10Z</time>
      </trkpt>
      <trkpt lat="42.5425570" lon="-8.9048970">
        <ele>0.0</ele>
        <time>2020-08-07T13:54:11Z</time>
      </trkpt>
      <trkpt lat="42.5425570" lon="-8.9048970">
        <ele>-0.2</ele>
        <time>2020-08-07T13:54:12Z</time>
      </trkpt>
      <trkpt lat="42.5425700" lon="-8.9049170">
        <ele>-0.2</ele>
        <time>2020-08-07T13:54:13Z</time>
      </trkpt>
      <trkpt lat="42.5425700" lon="-8.9049170">
        <ele>-0.2</ele>
        <time>2020-08-07T13:54:14Z</time>
      </trkpt>
      <trkpt lat="42.5425790" lon="-8.9049400">
        <ele>0.0</ele>
        <time>2020-08-07T13:54:15Z</time>
      </trkpt>
      <trkpt lat="42.5425790" lon="-8.9049400">
        <ele>0.2</ele>
        <time>2020-08-07T13:54:16Z</time>
      </trkpt>
      <trkpt lat="42.5425950" lon="-8.9049620">
        <ele>0.0</ele>
        <time>2020-08-07T13:54:17Z</time>
      </trkpt>
      <trkpt lat="42.5425950" lon="-8.9049620">
        <ele>-0.2</ele>
        <time>2020-08-07T13:54:18Z</time>
      </trkpt>
      <trkpt lat="42.5426050" lon="-8.9049860">
        <ele>0.2</ele>
        <time>2020-08-07T13:54:19Z</time>
      </trkpt>
      <trkpt lat="42.5426050" lon="-8.9049860">
        <ele>0.4</ele>
        <time>2020-08-07T13:54:20Z</time>
      </trkpt>
      <trkpt lat="42.5426210" lon="-8.9050080">
        <ele>0.2</ele>
        <time>2020-08-07T13:54:21Z</time>
      </trkpt>
      <trkpt lat="42.5426210" lon="-8.9050080">
        <ele>0.2</ele>
        <time>2020-08-07T13:54:22Z</time>
      </trkpt>
      <trkpt lat="42.5426340" lon="-8.9050330">
        <ele>0.2</ele>
        <time>2020-08-07T13:54:23Z</time>
      </trkpt>
      <trkpt lat="42.5426340" lon="-8.9050330">
        <ele>0.0</ele>
        <time>2020-08-07T13:54:24Z</time>
      </trkpt>
      <trkpt lat="42.5426500" lon="-8.9050570">
        <ele>0.0</ele>
        <time>2020-08-07T13:54:25Z</time>
      </trkpt>
      <trkpt lat="42.5426500" lon="-8.9050570">
        <ele>0.2</ele>
        <time>2020-08-07T13:54:26Z</time>
      </trkpt>
      <trkpt lat="42.5426590" lon="-8.9050820">
        <ele>0.2</ele>
        <time>2020-08-07T13:54:27Z</time>
      </trkpt>
      <trkpt lat="42.5426590" lon="-8.9050820">
        <ele>0.2</ele>
        <time>2020-08-07T13:54:28Z</time>
      </trkpt>
      <trkpt lat="42.5426750" lon="-8.9051050">
        <ele>0.2</ele>
        <time>2020-08-07T13:54:29Z</time>
      </trkpt>
      <trkpt lat="42.5426750" lon="-8.9051050">
        <ele>0.0</ele>
        <time>2020-08-07T13:54:30Z</time>
      </trkpt>
      <trkpt lat="42.5426910" lon="-8.9051290">
        <ele>0.0</ele>
        <time>2020-08-07T13:54:31Z</time>
      </trkpt>
      <trkpt lat="42.5426910" lon="-8.9051290">
        <ele>0.0</ele>
        <time>2020-08-07T13:54:32Z</time>
      </trkpt>
      <trkpt lat="42.5427040" lon="-8.9051510">
        <ele>0.2</ele>
        <time>2020-08-07T13:54:33Z</time>
      </trkpt>
      <trkpt lat="42.5427040" lon="-8.9051510">
        <ele>0.2</ele>
        <time>2020-08-07T13:54:34Z</time>
      </trkpt>
      <trkpt lat="42.5427200" lon="-8.9051780">
        <ele>0.2</ele>
        <time>2020-08-07T13:54:35Z</time>
      </trkpt>
      <trkpt lat="42.5427200" lon="-8.9051780">
        <ele>0.6</ele>
        <time>2020-08-07T13:54:36Z</time>
      </trkpt>
      <trkpt lat="42.5427330" lon="-8.9052030">
        <ele>0.6</ele>
        <time>2020-08-07T13:54:37Z</time>
      </trkpt>
      <trkpt lat="42.5427330" lon="-8.9052030">
        <ele>1.0</ele>
        <time>2020-08-07T13:54:38Z</time>
      </trkpt>
      <trkpt lat="42.5427520" lon="-8.9052250">
        <ele>0.6</ele>
        <time>2020-08-07T13:54:39Z</time>
      </trkpt>
      <trkpt lat="42.5427520" lon="-8.9052250">
        <ele>0.6</ele>
        <time>2020-08-07T13:54:40Z</time>
      </trkpt>
      <trkpt lat="42.5427680" lon="-8.9052500">
        <ele>0.6</ele>
        <time>2020-08-07T13:54:41Z</time>
      </trkpt>
      <trkpt lat="42.5427680" lon="-8.9052500">
        <ele>0.6</ele>
        <time>2020-08-07T13:54:42Z</time>
      </trkpt>
      <trkpt lat="42.5427810" lon="-8.9052740">
        <ele>1.0</ele>
        <time>2020-08-07T13:54:43Z</time>
      </trkpt>
      <trkpt lat="42.5427810" lon="-8.9052740">
        <ele>1.2</ele>
        <time>2020-08-07T13:54:44Z</time>
      </trkpt>
      <trkpt lat="42.5427970" lon="-8.9052940">
        <ele>1.4</ele>
        <time>2020-08-07T13:54:45Z</time>
      </trkpt>
      <trkpt lat="42.5427970" lon="-8.9052940">
        <ele>1.2</ele>
        <time>2020-08-07T13:54:46Z</time>
      </trkpt>
      <trkpt lat="42.5428100" lon="-8.9053180">
        <ele>1.0</ele>
        <time>2020-08-07T13:54:47Z</time>
      </trkpt>
      <trkpt lat="42.5428100" lon="-8.9053180">
        <ele>1.0</ele>
        <time>2020-08-07T13:54:48Z</time>
      </trkpt>
      <trkpt lat="42.5428220" lon="-8.9053400">
        <ele>1.2</ele>
        <time>2020-08-07T13:54:49Z</time>
      </trkpt>
      <trkpt lat="42.5428220" lon="-8.9053400">
        <ele>1.2</ele>
        <time>2020-08-07T13:54:50Z</time>
      </trkpt>
      <trkpt lat="42.5428380" lon="-8.9053650">
        <ele>1.2</ele>
        <time>2020-08-07T13:54:51Z</time>
      </trkpt>
      <trkpt lat="42.5428380" lon="-8.9053650">
        <ele>1.2</ele>
        <time>2020-08-07T13:54:52Z</time>
      </trkpt>
      <trkpt lat="42.5428540" lon="-8.9053920">
        <ele>1.4</ele>
        <time>2020-08-07T13:54:53Z</time>
      </trkpt>
      <trkpt lat="42.5428540" lon="-8.9053920">
        <ele>1.6</ele>
        <time>2020-08-07T13:54:54Z</time>
      </trkpt>
      <trkpt lat="42.5428670" lon="-8.9054200">
        <ele>1.4</ele>
        <time>2020-08-07T13:54:55Z</time>
      </trkpt>
      <trkpt lat="42.5428670" lon="-8.9054200">
        <ele>1.2</ele>
        <time>2020-08-07T13:54:56Z</time>
      </trkpt>
      <trkpt lat="42.5428800" lon="-8.9054470">
        <ele>1.2</ele>
        <time>2020-08-07T13:54:57Z</time>
      </trkpt>
      <trkpt lat="42.5428800" lon="-8.9054470">
        <ele>1.2</ele>
        <time>2020-08-07T13:54:58Z</time>
      </trkpt>
      <trkpt lat="42.5428960" lon="-8.9054700">
        <ele>1.2</ele>
        <time>2020-08-07T13:54:59Z</time>
      </trkpt>
      <trkpt lat="42.5428960" lon="-8.9054700">
        <ele>1.0</ele>
        <time>2020-08-07T13:55:00Z</time>
      </trkpt>
      <trkpt lat="42.5429120" lon="-8.9054940">
        <ele>0.8</ele>
        <time>2020-08-07T13:55:01Z</time>
      </trkpt>
      <trkpt lat="42.5429120" lon="-8.9054940">
        <ele>1.0</ele>
        <time>2020-08-07T13:55:02Z</time>
      </trkpt>
      <trkpt lat="42.5429280" lon="-8.9055220">
        <ele>0.8</ele>
        <time>2020-08-07T13:55:03Z</time>
      </trkpt>
      <trkpt lat="42.5429280" lon="-8.9055220">
        <ele>0.8</ele>
        <time>2020-08-07T13:55:04Z</time>
      </trkpt>
      <trkpt lat="42.5429380" lon="-8.9055460">
        <ele>1.0</ele>
        <time>2020-08-07T13:55:05Z</time>
      </trkpt>
      <trkpt lat="42.5429380" lon="-8.9055460">
        <ele>1.2</ele>
        <time>2020-08-07T13:55:06Z</time>
      </trkpt>
      <trkpt lat="42.5429500" lon="-8.9055700">
        <ele>1.2</ele>
        <time>2020-08-07T13:55:07Z</time>
      </trkpt>
      <trkpt lat="42.5429500" lon="-8.9055700">
        <ele>1.2</ele>
        <time>2020-08-07T13:55:08Z</time>
      </trkpt>
      <trkpt lat="42.5429500" lon="-8.9055700">
        <ele>1.2</ele>
        <time>2020-08-07T13:55:09Z</time>
      </trkpt>
      <trkpt lat="42.5429660" lon="-8.9055990">
        <ele>1.2</ele>
        <time>2020-08-07T13:55:10Z</time>
      </trkpt>
      <trkpt lat="42.5429660" lon="-8.9055990">
        <ele>1.2</ele>
        <time>2020-08-07T13:55:11Z</time>
      </trkpt>
      <trkpt lat="42.5429660" lon="-8.9055990">
        <ele>1.0</ele>
        <time>2020-08-07T13:55:12Z</time>
      </trkpt>
      <trkpt lat="42.5429860" lon="-8.9056230">
        <ele>1.0</ele>
        <time>2020-08-07T13:55:13Z</time>
      </trkpt>
      <trkpt lat="42.5429860" lon="-8.9056230">
        <ele>1.0</ele>
        <time>2020-08-07T13:55:14Z</time>
      </trkpt>
      <trkpt lat="42.5429860" lon="-8.9056230">
        <ele>1.0</ele>
        <time>2020-08-07T13:55:15Z</time>
      </trkpt>
      <trkpt lat="42.5429980" lon="-8.9056460">
        <ele>1.0</ele>
        <time>2020-08-07T13:55:16Z</time>
      </trkpt>
      <trkpt lat="42.5429980" lon="-8.9056460">
        <ele>0.8</ele>
        <time>2020-08-07T13:55:17Z</time>
      </trkpt>
      <trkpt lat="42.5430110" lon="-8.9056660">
        <ele>0.6</ele>
        <time>2020-08-07T13:55:18Z</time>
      </trkpt>
      <trkpt lat="42.5430110" lon="-8.9056660">
        <ele>0.6</ele>
        <time>2020-08-07T13:55:19Z</time>
      </trkpt>
      <trkpt lat="42.5430180" lon="-8.9056900">
        <ele>0.8</ele>
        <time>2020-08-07T13:55:20Z</time>
      </trkpt>
      <trkpt lat="42.5430180" lon="-8.9056900">
        <ele>0.8</ele>
        <time>2020-08-07T13:55:21Z</time>
      </trkpt>
      <trkpt lat="42.5430210" lon="-8.9057150">
        <ele>1.0</ele>
        <time>2020-08-07T13:55:22Z</time>
      </trkpt>
      <trkpt lat="42.5430210" lon="-8.9057150">
        <ele>1.2</ele>
        <time>2020-08-07T13:55:23Z</time>
      </trkpt>
      <trkpt lat="42.5430270" lon="-8.9057420">
        <ele>1.6</ele>
        <time>2020-08-07T13:55:24Z</time>
      </trkpt>
      <trkpt lat="42.5430270" lon="-8.9057420">
        <ele>1.2</ele>
        <time>2020-08-07T13:55:25Z</time>
      </trkpt>
      <trkpt lat="42.5430300" lon="-8.9057710">
        <ele>1.2</ele>
        <time>2020-08-07T13:55:26Z</time>
      </trkpt>
      <trkpt lat="42.5430300" lon="-8.9057710">
        <ele>1.2</ele>
        <time>2020-08-07T13:55:27Z</time>
      </trkpt>
      <trkpt lat="42.5430370" lon="-8.9057970">
        <ele>1.0</ele>
        <time>2020-08-07T13:55:28Z</time>
      </trkpt>
      <trkpt lat="42.5430370" lon="-8.9057970">
        <ele>1.0</ele>
        <time>2020-08-07T13:55:29Z</time>
      </trkpt>
      <trkpt lat="42.5430460" lon="-8.9058200">
        <ele>1.2</ele>
        <time>2020-08-07T13:55:30Z</time>
      </trkpt>
      <trkpt lat="42.5430460" lon="-8.9058200">
        <ele>1.6</ele>
        <time>2020-08-07T13:55:31Z</time>
      </trkpt>
      <trkpt lat="42.5430530" lon="-8.9058440">
        <ele>1.8</ele>
        <time>2020-08-07T13:55:32Z</time>
      </trkpt>
      <trkpt lat="42.5430530" lon="-8.9058440">
        <ele>1.8</ele>
        <time>2020-08-07T13:55:33Z</time>
      </trkpt>
      <trkpt lat="42.5430660" lon="-8.9058650">
        <ele>1.8</ele>
        <time>2020-08-07T13:55:34Z</time>
      </trkpt>
      <trkpt lat="42.5430660" lon="-8.9058650">
        <ele>1.8</ele>
        <time>2020-08-07T13:55:35Z</time>
      </trkpt>
      <trkpt lat="42.5430750" lon="-8.9058860">
        <ele>1.8</ele>
        <time>2020-08-07T13:55:36Z</time>
      </trkpt>
      <trkpt lat="42.5430750" lon="-8.9058860">
        <ele>1.8</ele>
        <time>2020-08-07T13:55:37Z</time>
      </trkpt>
      <trkpt lat="42.5430820" lon="-8.9059110">
        <ele>1.6</ele>
        <time>2020-08-07T13:55:38Z</time>
      </trkpt>
      <trkpt lat="42.5430820" lon="-8.9059110">
        <ele>1.6</ele>
        <time>2020-08-07T13:55:39Z</time>
      </trkpt>
      <trkpt lat="42.5430940" lon="-8.9059380">
        <ele>1.4</ele>
        <time>2020-08-07T13:55:40Z</time>
      </trkpt>
      <trkpt lat="42.5430940" lon="-8.9059380">
        <ele>1.4</ele>
        <time>2020-08-07T13:55:41Z</time>
      </trkpt>
      <trkpt lat="42.5431070" lon="-8.9059630">
        <ele>1.6</ele>
        <time>2020-08-07T13:55:42Z</time>
      </trkpt>
      <trkpt lat="42.5431070" lon="-8.9059630">
        <ele>1.4</ele>
        <time>2020-08-07T13:55:43Z</time>
      </trkpt>
      <trkpt lat="42.5431170" lon="-8.9059940">
        <ele>1.2</ele>
        <time>2020-08-07T13:55:44Z</time>
      </trkpt>
      <trkpt lat="42.5431170" lon="-8.9059940">
        <ele>1.2</ele>
        <time>2020-08-07T13:55:45Z</time>
      </trkpt>
      <trkpt lat="42.5431260" lon="-8.9060180">
        <ele>1.2</ele>
        <time>2020-08-07T13:55:46Z</time>
      </trkpt>
      <trkpt lat="42.5431260" lon="-8.9060180">
        <ele>1.0</ele>
        <time>2020-08-07T13:55:47Z</time>
      </trkpt>
      <trkpt lat="42.5431360" lon="-8.9060400">
        <ele>0.8</ele>
        <time>2020-08-07T13:55:48Z</time>
      </trkpt>
      <trkpt lat="42.5431360" lon="-8.9060400">
        <ele>0.6</ele>
        <time>2020-08-07T13:55:49Z</time>
      </trkpt>
      <trkpt lat="42.5431520" lon="-8.9060600">
        <ele>0.8</ele>
        <time>2020-08-07T13:55:50Z</time>
      </trkpt>
      <trkpt lat="42.5431520" lon="-8.9060600">
        <ele>0.8</ele>
        <time>2020-08-07T13:55:51Z</time>
      </trkpt>
      <trkpt lat="42.5431680" lon="-8.9060830">
        <ele>0.8</ele>
        <time>2020-08-07T13:55:52Z</time>
      </trkpt>
      <trkpt lat="42.5431680" lon="-8.9060830">
        <ele>0.8</ele>
        <time>2020-08-07T13:55:53Z</time>
      </trkpt>
      <trkpt lat="42.5431780" lon="-8.9061070">
        <ele>1.0</ele>
        <time>2020-08-07T13:55:54Z</time>
      </trkpt>
      <trkpt lat="42.5431780" lon="-8.9061070">
        <ele>1.0</ele>
        <time>2020-08-07T13:55:55Z</time>
      </trkpt>
      <trkpt lat="42.5431900" lon="-8.9061340">
        <ele>1.0</ele>
        <time>2020-08-07T13:55:56Z</time>
      </trkpt>
      <trkpt lat="42.5431900" lon="-8.9061340">
        <ele>1.0</ele>
        <time>2020-08-07T13:55:57Z</time>
      </trkpt>
      <trkpt lat="42.5432000" lon="-8.9061570">
        <ele>1.0</ele>
        <time>2020-08-07T13:55:58Z</time>
      </trkpt>
      <trkpt lat="42.5432000" lon="-8.9061570">
        <ele>0.8</ele>
        <time>2020-08-07T13:55:59Z</time>
      </trkpt>
      <trkpt lat="42.5432100" lon="-8.9061800">
        <ele>0.6</ele>
        <time>2020-08-07T13:56:00Z</time>
      </trkpt>
      <trkpt lat="42.5432100" lon="-8.9061800">
        <ele>0.6</ele>
        <time>2020-08-07T13:56:01Z</time>
      </trkpt>
      <trkpt lat="42.5432160" lon="-8.9062050">
        <ele>0.4</ele>
        <time>2020-08-07T13:56:02Z</time>
      </trkpt>
      <trkpt lat="42.5432160" lon="-8.9062050">
        <ele>0.2</ele>
        <time>2020-08-07T13:56:03Z</time>
      </trkpt>
      <trkpt lat="42.5432190" lon="-8.9062300">
        <ele>0.2</ele>
        <time>2020-08-07T13:56:04Z</time>
      </trkpt>
      <trkpt lat="42.5432190" lon="-8.9062300">
        <ele>0.2</ele>
        <time>2020-08-07T13:56:05Z</time>
      </trkpt>
      <trkpt lat="42.5432190" lon="-8.9062300">
        <ele>0.0</ele>
        <time>2020-08-07T13:56:06Z</time>
      </trkpt>
      <trkpt lat="42.5432260" lon="-8.9062590">
        <ele>0.2</ele>
        <time>2020-08-07T13:56:07Z</time>
      </trkpt>
      <trkpt lat="42.5432260" lon="-8.9062590">
        <ele>0.4</ele>
        <time>2020-08-07T13:56:08Z</time>
      </trkpt>
      <trkpt lat="42.5432260" lon="-8.9062590">
        <ele>0.8</ele>
        <time>2020-08-07T13:56:09Z</time>
      </trkpt>
      <trkpt lat="42.5432290" lon="-8.9062900">
        <ele>0.6</ele>
        <time>2020-08-07T13:56:10Z</time>
      </trkpt>
      <trkpt lat="42.5432290" lon="-8.9062900">
        <ele>0.8</ele>
        <time>2020-08-07T13:56:11Z</time>
      </trkpt>
      <trkpt lat="42.5432290" lon="-8.9062900">
        <ele>0.8</ele>
        <time>2020-08-07T13:56:12Z</time>
      </trkpt>
      <trkpt lat="42.5432350" lon="-8.9063260">
        <ele>0.8</ele>
        <time>2020-08-07T13:56:13Z</time>
      </trkpt>
      <trkpt lat="42.5432350" lon="-8.9063260">
        <ele>0.8</ele>
        <time>2020-08-07T13:56:14Z</time>
      </trkpt>
      <trkpt lat="42.5432450" lon="-8.9063460">
        <ele>1.0</ele>
        <time>2020-08-07T13:56:15Z</time>
      </trkpt>
      <trkpt lat="42.5432450" lon="-8.9063460">
        <ele>1.0</ele>
        <time>2020-08-07T13:56:16Z</time>
      </trkpt>
      <trkpt lat="42.5432510" lon="-8.9063700">
        <ele>0.8</ele>
        <time>2020-08-07T13:56:17Z</time>
      </trkpt>
      <trkpt lat="42.5432510" lon="-8.9063700">
        <ele>0.8</ele>
        <time>2020-08-07T13:56:18Z</time>
      </trkpt>
      <trkpt lat="42.5432540" lon="-8.9063980">
        <ele>0.8</ele>
        <time>2020-08-07T13:56:19Z</time>
      </trkpt>
      <trkpt lat="42.5432540" lon="-8.9063980">
        <ele>1.0</ele>
        <time>2020-08-07T13:56:20Z</time>
      </trkpt>
      <trkpt lat="42.5432640" lon="-8.9064220">
        <ele>0.8</ele>
        <time>2020-08-07T13:56:21Z</time>
      </trkpt>
      <trkpt lat="42.5432640" lon="-8.9064220">
        <ele>1.0</ele>
        <time>2020-08-07T13:56:22Z</time>
      </trkpt>
      <trkpt lat="42.5432700" lon="-8.9064450">
        <ele>1.0</ele>
        <time>2020-08-07T13:56:23Z</time>
      </trkpt>
      <trkpt lat="42.5432700" lon="-8.9064450">
        <ele>1.0</ele>
        <time>2020-08-07T13:56:24Z</time>
      </trkpt>
      <trkpt lat="42.5432700" lon="-8.9064450">
        <ele>1.4</ele>
        <time>2020-08-07T13:56:25Z</time>
      </trkpt>
      <trkpt lat="42.5432770" lon="-8.9064850">
        <ele>1.0</ele>
        <time>2020-08-07T13:56:26Z</time>
      </trkpt>
      <trkpt lat="42.5432770" lon="-8.9064850">
        <ele>1.0</ele>
        <time>2020-08-07T13:56:27Z</time>
      </trkpt>
      <trkpt lat="42.5432860" lon="-8.9065110">
        <ele>0.6</ele>
        <time>2020-08-07T13:56:28Z</time>
      </trkpt>
      <trkpt lat="42.5432860" lon="-8.9065110">
        <ele>0.4</ele>
        <time>2020-08-07T13:56:29Z</time>
      </trkpt>
      <trkpt lat="42.5432860" lon="-8.9065110">
        <ele>0.2</ele>
        <time>2020-08-07T13:56:30Z</time>
      </trkpt>
      <trkpt lat="42.5432960" lon="-8.9065510">
        <ele>0.2</ele>
        <time>2020-08-07T13:56:31Z</time>
      </trkpt>
      <trkpt lat="42.5432960" lon="-8.9065510">
        <ele>0.0</ele>
        <time>2020-08-07T13:56:32Z</time>
      </trkpt>
      <trkpt lat="42.5433090" lon="-8.9065750">
        <ele>0.0</ele>
        <time>2020-08-07T13:56:33Z</time>
      </trkpt>
      <trkpt lat="42.5433090" lon="-8.9065750">
        <ele>0.0</ele>
        <time>2020-08-07T13:56:34Z</time>
      </trkpt>
      <trkpt lat="42.5433180" lon="-8.9065970">
        <ele>-0.2</ele>
        <time>2020-08-07T13:56:35Z</time>
      </trkpt>
      <trkpt lat="42.5433180" lon="-8.9065970">
        <ele>0.0</ele>
        <time>2020-08-07T13:56:36Z</time>
      </trkpt>
      <trkpt lat="42.5433280" lon="-8.9066220">
        <ele>0.0</ele>
        <time>2020-08-07T13:56:37Z</time>
      </trkpt>
      <trkpt lat="42.5433280" lon="-8.9066220">
        <ele>0.0</ele>
        <time>2020-08-07T13:56:38Z</time>
      </trkpt>
      <trkpt lat="42.5433380" lon="-8.9066450">
        <ele>0.0</ele>
        <time>2020-08-07T13:56:39Z</time>
      </trkpt>
      <trkpt lat="42.5433380" lon="-8.9066450">
        <ele>-0.2</ele>
        <time>2020-08-07T13:56:40Z</time>
      </trkpt>
      <trkpt lat="42.5433380" lon="-8.9066450">
        <ele>-0.2</ele>
        <time>2020-08-07T13:56:41Z</time>
      </trkpt>
      <trkpt lat="42.5433500" lon="-8.9066750">
        <ele>-0.2</ele>
        <time>2020-08-07T13:56:42Z</time>
      </trkpt>
      <trkpt lat="42.5433500" lon="-8.9066750">
        <ele>0.0</ele>
        <time>2020-08-07T13:56:43Z</time>
      </trkpt>
      <trkpt lat="42.5433500" lon="-8.9066750">
        <ele>-0.2</ele>
        <time>2020-08-07T13:56:44Z</time>
      </trkpt>
      <trkpt lat="42.5433630" lon="-8.9067070">
        <ele>-0.2</ele>
        <time>2020-08-07T13:56:45Z</time>
      </trkpt>
      <trkpt lat="42.5433630" lon="-8.9067070">
        <ele>-0.2</ele>
        <time>2020-08-07T13:56:46Z</time>
      </trkpt>
      <trkpt lat="42.5433630" lon="-8.9067070">
        <ele>-0.4</ele>
        <time>2020-08-07T13:56:47Z</time>
      </trkpt>
      <trkpt lat="42.5433730" lon="-8.9067420">
        <ele>-0.2</ele>
        <time>2020-08-07T13:56:48Z</time>
      </trkpt>
      <trkpt lat="42.5433730" lon="-8.9067420">
        <ele>-0.2</ele>
        <time>2020-08-07T13:56:49Z</time>
      </trkpt>
      <trkpt lat="42.5433730" lon="-8.9067420">
        <ele>-0.4</ele>
        <time>2020-08-07T13:56:50Z</time>
      </trkpt>
      <trkpt lat="42.5433760" lon="-8.9067700">
        <ele>-0.4</ele>
        <time>2020-08-07T13:56:51Z</time>
      </trkpt>
      <trkpt lat="42.5433760" lon="-8.9067700">
        <ele>-0.4</ele>
        <time>2020-08-07T13:56:52Z</time>
      </trkpt>
      <trkpt lat="42.5433860" lon="-8.9067950">
        <ele>-0.6</ele>
        <time>2020-08-07T13:56:53Z</time>
      </trkpt>
      <trkpt lat="42.5433860" lon="-8.9067950">
        <ele>-0.6</ele>
        <time>2020-08-07T13:56:54Z</time>
      </trkpt>
      <trkpt lat="42.5433860" lon="-8.9067950">
        <ele>-0.6</ele>
        <time>2020-08-07T13:56:55Z</time>
      </trkpt>
      <trkpt lat="42.5433920" lon="-8.9068300">
        <ele>-0.8</ele>
        <time>2020-08-07T13:56:56Z</time>
      </trkpt>
      <trkpt lat="42.5433920" lon="-8.9068300">
        <ele>-0.6</ele>
        <time>2020-08-07T13:56:57Z</time>
      </trkpt>
      <trkpt lat="42.5433980" lon="-8.9068540">
        <ele>-0.6</ele>
        <time>2020-08-07T13:56:58Z</time>
      </trkpt>
      <trkpt lat="42.5433980" lon="-8.9068540">
        <ele>-0.4</ele>
        <time>2020-08-07T13:56:59Z</time>
      </trkpt>
      <trkpt lat="42.5434080" lon="-8.9068740">
        <ele>-0.4</ele>
        <time>2020-08-07T13:57:00Z</time>
      </trkpt>
      <trkpt lat="42.5434080" lon="-8.9068740">
        <ele>-0.2</ele>
        <time>2020-08-07T13:57:01Z</time>
      </trkpt>
      <trkpt lat="42.5434110" lon="-8.9068980">
        <ele>-0.2</ele>
        <time>2020-08-07T13:57:02Z</time>
      </trkpt>
      <trkpt lat="42.5434110" lon="-8.9068980">
        <ele>0.0</ele>
        <time>2020-08-07T13:57:03Z</time>
      </trkpt>
      <trkpt lat="42.5434110" lon="-8.9068980">
        <ele>0.0</ele>
        <time>2020-08-07T13:57:04Z</time>
      </trkpt>
      <trkpt lat="42.5434140" lon="-8.9069300">
        <ele>0.2</ele>
        <time>2020-08-07T13:57:05Z</time>
      </trkpt>
      <trkpt lat="42.5434140" lon="-8.9069300">
        <ele>0.4</ele>
        <time>2020-08-07T13:57:06Z</time>
      </trkpt>
      <trkpt lat="42.5434140" lon="-8.9069300">
        <ele>0.6</ele>
        <time>2020-08-07T13:57:07Z</time>
      </trkpt>
      <trkpt lat="42.5434180" lon="-8.9069590">
        <ele>0.6</ele>
        <time>2020-08-07T13:57:08Z</time>
      </trkpt>
      <trkpt lat="42.5434180" lon="-8.9069590">
        <ele>0.8</ele>
        <time>2020-08-07T13:57:09Z</time>
      </trkpt>
      <trkpt lat="42.5434180" lon="-8.9069590">
        <ele>0.6</ele>
        <time>2020-08-07T13:57:10Z</time>
      </trkpt>
      <trkpt lat="42.5434270" lon="-8.9069900">
        <ele>0.8</ele>
        <time>2020-08-07T13:57:11Z</time>
      </trkpt>
      <trkpt lat="42.5434270" lon="-8.9069900">
        <ele>0.8</ele>
        <time>2020-08-07T13:57:12Z</time>
      </trkpt>
      <trkpt lat="42.5434270" lon="-8.9070170">
        <ele>0.8</ele>
        <time>2020-08-07T13:57:13Z</time>
      </trkpt>
      <trkpt lat="42.5434270" lon="-8.9070170">
        <ele>1.0</ele>
        <time>2020-08-07T13:57:14Z</time>
      </trkpt>
      <trkpt lat="42.5434370" lon="-8.9070400">
        <ele>1.0</ele>
        <time>2020-08-07T13:57:15Z</time>
      </trkpt>
      <trkpt lat="42.5434370" lon="-8.9070400">
        <ele>0.8</ele>
        <time>2020-08-07T13:57:16Z</time>
      </trkpt>
      <trkpt lat="42.5434460" lon="-8.9070620">
        <ele>0.6</ele>
        <time>2020-08-07T13:57:17Z</time>
      </trkpt>
      <trkpt lat="42.5434460" lon="-8.9070620">
        <ele>0.4</ele>
        <time>2020-08-07T13:57:18Z</time>
      </trkpt>
      <trkpt lat="42.5434530" lon="-8.9070860">
        <ele>0.4</ele>
        <time>2020-08-07T13:57:19Z</time>
      </trkpt>
      <trkpt lat="42.5434530" lon="-8.9070860">
        <ele>0.4</ele>
        <time>2020-08-07T13:57:20Z</time>
      </trkpt>
      <trkpt lat="42.5434530" lon="-8.9070860">
        <ele>0.6</ele>
        <time>2020-08-07T13:57:21Z</time>
      </trkpt>
      <trkpt lat="42.5434560" lon="-8.9071220">
        <ele>0.8</ele>
        <time>2020-08-07T13:57:22Z</time>
      </trkpt>
      <trkpt lat="42.5434560" lon="-8.9071220">
        <ele>0.8</ele>
        <time>2020-08-07T13:57:23Z</time>
      </trkpt>
      <trkpt lat="42.5434560" lon="-8.9071220">
        <ele>0.8</ele>
        <time>2020-08-07T13:57:24Z</time>
      </trkpt>
      <trkpt lat="42.5434690" lon="-8.9071570">
        <ele>0.8</ele>
        <time>2020-08-07T13:57:25Z</time>
      </trkpt>
      <trkpt lat="42.5434690" lon="-8.9071570">
        <ele>0.6</ele>
        <time>2020-08-07T13:57:26Z</time>
      </trkpt>
      <trkpt lat="42.5434690" lon="-8.9071570">
        <ele>0.6</ele>
        <time>2020-08-07T13:57:27Z</time>
      </trkpt>
      <trkpt lat="42.5434780" lon="-8.9071930">
        <ele>0.2</ele>
        <time>2020-08-07T13:57:28Z</time>
      </trkpt>
      <trkpt lat="42.5434780" lon="-8.9071930">
        <ele>-0.2</ele>
        <time>2020-08-07T13:57:29Z</time>
      </trkpt>
      <trkpt lat="42.5434910" lon="-8.9072140">
        <ele>0.0</ele>
        <time>2020-08-07T13:57:30Z</time>
      </trkpt>
      <trkpt lat="42.5434910" lon="-8.9072140">
        <ele>0.0</ele>
        <time>2020-08-07T13:57:31Z</time>
      </trkpt>
      <trkpt lat="42.5434980" lon="-8.9072420">
        <ele>0.2</ele>
        <time>2020-08-07T13:57:32Z</time>
      </trkpt>
      <trkpt lat="42.5434980" lon="-8.9072420">
        <ele>0.6</ele>
        <time>2020-08-07T13:57:33Z</time>
      </trkpt>
      <trkpt lat="42.5435070" lon="-8.9072710">
        <ele>0.6</ele>
        <time>2020-08-07T13:57:34Z</time>
      </trkpt>
      <trkpt lat="42.5435070" lon="-8.9072710">
        <ele>0.8</ele>
        <time>2020-08-07T13:57:35Z</time>
      </trkpt>
      <trkpt lat="42.5435170" lon="-8.9073000">
        <ele>0.8</ele>
        <time>2020-08-07T13:57:36Z</time>
      </trkpt>
      <trkpt lat="42.5435170" lon="-8.9073000">
        <ele>0.4</ele>
        <time>2020-08-07T13:57:37Z</time>
      </trkpt>
      <trkpt lat="42.5435300" lon="-8.9073250">
        <ele>0.6</ele>
        <time>2020-08-07T13:57:38Z</time>
      </trkpt>
      <trkpt lat="42.5435300" lon="-8.9073250">
        <ele>0.2</ele>
        <time>2020-08-07T13:57:39Z</time>
      </trkpt>
      <trkpt lat="42.5435300" lon="-8.9073250">
        <ele>0.4</ele>
        <time>2020-08-07T13:57:40Z</time>
      </trkpt>
      <trkpt lat="42.5435460" lon="-8.9073560">
        <ele>0.6</ele>
        <time>2020-08-07T13:57:41Z</time>
      </trkpt>
      <trkpt lat="42.5435460" lon="-8.9073560">
        <ele>0.2</ele>
        <time>2020-08-07T13:57:42Z</time>
      </trkpt>
      <trkpt lat="42.5435550" lon="-8.9073820">
        <ele>0.2</ele>
        <time>2020-08-07T13:57:43Z</time>
      </trkpt>
      <trkpt lat="42.5435550" lon="-8.9073820">
        <ele>0.0</ele>
        <time>2020-08-07T13:57:44Z</time>
      </trkpt>
      <trkpt lat="42.5435650" lon="-8.9074030">
        <ele>0.4</ele>
        <time>2020-08-07T13:57:45Z</time>
      </trkpt>
      <trkpt lat="42.5435650" lon="-8.9074030">
        <ele>0.6</ele>
        <time>2020-08-07T13:57:46Z</time>
      </trkpt>
      <trkpt lat="42.5435650" lon="-8.9074030">
        <ele>1.0</ele>
        <time>2020-08-07T13:57:47Z</time>
      </trkpt>
      <trkpt lat="42.5435740" lon="-8.9074300">
        <ele>1.2</ele>
        <time>2020-08-07T13:57:48Z</time>
      </trkpt>
      <trkpt lat="42.5435740" lon="-8.9074300">
        <ele>1.2</ele>
        <time>2020-08-07T13:57:49Z</time>
      </trkpt>
      <trkpt lat="42.5435740" lon="-8.9074300">
        <ele>1.6</ele>
        <time>2020-08-07T13:57:50Z</time>
      </trkpt>
      <trkpt lat="42.5435870" lon="-8.9074500">
        <ele>1.6</ele>
        <time>2020-08-07T13:57:51Z</time>
      </trkpt>
      <trkpt lat="42.5435870" lon="-8.9074500">
        <ele>1.6</ele>
        <time>2020-08-07T13:57:52Z</time>
      </trkpt>
      <trkpt lat="42.5435870" lon="-8.9074500">
        <ele>1.2</ele>
        <time>2020-08-07T13:57:53Z</time>
      </trkpt>
      <trkpt lat="42.5436060" lon="-8.9074780">
        <ele>0.8</ele>
        <time>2020-08-07T13:57:54Z</time>
      </trkpt>
      <trkpt lat="42.5436060" lon="-8.9074780">
        <ele>0.6</ele>
        <time>2020-08-07T13:57:55Z</time>
      </trkpt>
      <trkpt lat="42.5436060" lon="-8.9074780">
        <ele>0.2</ele>
        <time>2020-08-07T13:57:56Z</time>
      </trkpt>
      <trkpt lat="42.5436160" lon="-8.9075070">
        <ele>0.2</ele>
        <time>2020-08-07T13:57:57Z</time>
      </trkpt>
      <trkpt lat="42.5436160" lon="-8.9075070">
        <ele>0.0</ele>
        <time>2020-08-07T13:57:58Z</time>
      </trkpt>
      <trkpt lat="42.5436290" lon="-8.9075280">
        <ele>0.2</ele>
        <time>2020-08-07T13:57:59Z</time>
      </trkpt>
      <trkpt lat="42.5436290" lon="-8.9075280">
        <ele>0.0</ele>
        <time>2020-08-07T13:58:00Z</time>
      </trkpt>
      <trkpt lat="42.5436350" lon="-8.9075520">
        <ele>0.0</ele>
        <time>2020-08-07T13:58:01Z</time>
      </trkpt>
      <trkpt lat="42.5436350" lon="-8.9075520">
        <ele>-0.2</ele>
        <time>2020-08-07T13:58:02Z</time>
      </trkpt>
      <trkpt lat="42.5436350" lon="-8.9075520">
        <ele>-0.4</ele>
        <time>2020-08-07T13:58:03Z</time>
      </trkpt>
      <trkpt lat="42.5436480" lon="-8.9075830">
        <ele>-0.4</ele>
        <time>2020-08-07T13:58:04Z</time>
      </trkpt>
      <trkpt lat="42.5436480" lon="-8.9075830">
        <ele>-0.2</ele>
        <time>2020-08-07T13:58:05Z</time>
      </trkpt>
      <trkpt lat="42.5436540" lon="-8.9076070">
        <ele>-0.2</ele>
        <time>2020-08-07T13:58:06Z</time>
      </trkpt>
      <trkpt lat="42.5436540" lon="-8.9076070">
        <ele>-0.2</ele>
        <time>2020-08-07T13:58:07Z</time>
      </trkpt>
      <trkpt lat="42.5436670" lon="-8.9076250">
        <ele>-0.2</ele>
        <time>2020-08-07T13:58:08Z</time>
      </trkpt>
      <trkpt lat="42.5436670" lon="-8.9076250">
        <ele>0.0</ele>
        <time>2020-08-07T13:58:09Z</time>
      </trkpt>
      <trkpt lat="42.5436740" lon="-8.9076480">
        <ele>0.0</ele>
        <time>2020-08-07T13:58:10Z</time>
      </trkpt>
      <trkpt lat="42.5436740" lon="-8.9076480">
        <ele>-0.2</ele>
        <time>2020-08-07T13:58:11Z</time>
      </trkpt>
      <trkpt lat="42.5436860" lon="-8.9076700">
        <ele>-0.4</ele>
        <time>2020-08-07T13:58:12Z</time>
      </trkpt>
      <trkpt lat="42.5436860" lon="-8.9076700">
        <ele>-0.8</ele>
        <time>2020-08-07T13:58:13Z</time>
      </trkpt>
      <trkpt lat="42.5436960" lon="-8.9076930">
        <ele>-0.6</ele>
        <time>2020-08-07T13:58:14Z</time>
      </trkpt>
      <trkpt lat="42.5436960" lon="-8.9076930">
        <ele>-0.4</ele>
        <time>2020-08-07T13:58:15Z</time>
      </trkpt>
      <trkpt lat="42.5437020" lon="-8.9077170">
        <ele>-0.2</ele>
        <time>2020-08-07T13:58:16Z</time>
      </trkpt>
      <trkpt lat="42.5437020" lon="-8.9077170">
        <ele>-0.6</ele>
        <time>2020-08-07T13:58:17Z</time>
      </trkpt>
      <trkpt lat="42.5437120" lon="-8.9077400">
        <ele>-0.8</ele>
        <time>2020-08-07T13:58:18Z</time>
      </trkpt>
      <trkpt lat="42.5437120" lon="-8.9077400">
        <ele>-0.8</ele>
        <time>2020-08-07T13:58:19Z</time>
      </trkpt>
      <trkpt lat="42.5437280" lon="-8.9077620">
        <ele>-0.6</ele>
        <time>2020-08-07T13:58:20Z</time>
      </trkpt>
      <trkpt lat="42.5437280" lon="-8.9077620">
        <ele>-0.4</ele>
        <time>2020-08-07T13:58:21Z</time>
      </trkpt>
      <trkpt lat="42.5437410" lon="-8.9077860">
        <ele>-0.4</ele>
        <time>2020-08-07T13:58:22Z</time>
      </trkpt>
      <trkpt lat="42.5437410" lon="-8.9077860">
        <ele>-0.4</ele>
        <time>2020-08-07T13:58:23Z</time>
      </trkpt>
      <trkpt lat="42.5437500" lon="-8.9078080">
        <ele>-0.4</ele>
        <time>2020-08-07T13:58:24Z</time>
      </trkpt>
      <trkpt lat="42.5437500" lon="-8.9078080">
        <ele>-0.4</ele>
        <time>2020-08-07T13:58:25Z</time>
      </trkpt>
      <trkpt lat="42.5437660" lon="-8.9078310">
        <ele>-0.2</ele>
        <time>2020-08-07T13:58:26Z</time>
      </trkpt>
      <trkpt lat="42.5437660" lon="-8.9078310">
        <ele>0.0</ele>
        <time>2020-08-07T13:58:27Z</time>
      </trkpt>
      <trkpt lat="42.5437760" lon="-8.9078550">
        <ele>-0.2</ele>
        <time>2020-08-07T13:58:28Z</time>
      </trkpt>
      <trkpt lat="42.5437760" lon="-8.9078550">
        <ele>0.2</ele>
        <time>2020-08-07T13:58:29Z</time>
      </trkpt>
      <trkpt lat="42.5437860" lon="-8.9078800">
        <ele>0.4</ele>
        <time>2020-08-07T13:58:30Z</time>
      </trkpt>
      <trkpt lat="42.5437860" lon="-8.9078800">
        <ele>0.4</ele>
        <time>2020-08-07T13:58:31Z</time>
      </trkpt>
      <trkpt lat="42.5438020" lon="-8.9079060">
        <ele>0.2</ele>
        <time>2020-08-07T13:58:32Z</time>
      </trkpt>
      <trkpt lat="42.5438020" lon="-8.9079060">
        <ele>0.0</ele>
        <time>2020-08-07T13:58:33Z</time>
      </trkpt>
      <trkpt lat="42.5438110" lon="-8.9079290">
        <ele>0.0</ele>
        <time>2020-08-07T13:58:34Z</time>
      </trkpt>
      <trkpt lat="42.5438110" lon="-8.9079290">
        <ele>0.2</ele>
        <time>2020-08-07T13:58:35Z</time>
      </trkpt>
      <trkpt lat="42.5438270" lon="-8.9079510">
        <ele>0.0</ele>
        <time>2020-08-07T13:58:36Z</time>
      </trkpt>
      <trkpt lat="42.5438270" lon="-8.9079510">
        <ele>-0.2</ele>
        <time>2020-08-07T13:58:37Z</time>
      </trkpt>
      <trkpt lat="42.5438400" lon="-8.9079770">
        <ele>0.2</ele>
        <time>2020-08-07T13:58:38Z</time>
      </trkpt>
      <trkpt lat="42.5438400" lon="-8.9079770">
        <ele>0.6</ele>
        <time>2020-08-07T13:58:39Z</time>
      </trkpt>
      <trkpt lat="42.5438500" lon="-8.9080000">
        <ele>0.6</ele>
        <time>2020-08-07T13:58:40Z</time>
      </trkpt>
      <trkpt lat="42.5438500" lon="-8.9080000">
        <ele>0.6</ele>
        <time>2020-08-07T13:58:41Z</time>
      </trkpt>
      <trkpt lat="42.5438620" lon="-8.9080250">
        <ele>0.6</ele>
        <time>2020-08-07T13:58:42Z</time>
      </trkpt>
      <trkpt lat="42.5438620" lon="-8.9080250">
        <ele>0.4</ele>
        <time>2020-08-07T13:58:43Z</time>
      </trkpt>
      <trkpt lat="42.5438690" lon="-8.9080500">
        <ele>0.2</ele>
        <time>2020-08-07T13:58:44Z</time>
      </trkpt>
      <trkpt lat="42.5438690" lon="-8.9080500">
        <ele>0.0</ele>
        <time>2020-08-07T13:58:45Z</time>
      </trkpt>
      <trkpt lat="42.5438850" lon="-8.9080750">
        <ele>0.0</ele>
        <time>2020-08-07T13:58:46Z</time>
      </trkpt>
      <trkpt lat="42.5438850" lon="-8.9080750">
        <ele>0.0</ele>
        <time>2020-08-07T13:58:47Z</time>
      </trkpt>
      <trkpt lat="42.5438940" lon="-8.9081030">
        <ele>0.2</ele>
        <time>2020-08-07T13:58:48Z</time>
      </trkpt>
      <trkpt lat="42.5438940" lon="-8.9081030">
        <ele>0.2</ele>
        <time>2020-08-07T13:58:49Z</time>
      </trkpt>
      <trkpt lat="42.5439070" lon="-8.9081270">
        <ele>0.2</ele>
        <time>2020-08-07T13:58:50Z</time>
      </trkpt>
      <trkpt lat="42.5439070" lon="-8.9081270">
        <ele>0.0</ele>
        <time>2020-08-07T13:58:51Z</time>
      </trkpt>
      <trkpt lat="42.5439140" lon="-8.9081540">
        <ele>0.6</ele>
        <time>2020-08-07T13:58:52Z</time>
      </trkpt>
      <trkpt lat="42.5439140" lon="-8.9081540">
        <ele>0.6</ele>
        <time>2020-08-07T13:58:53Z</time>
      </trkpt>
      <trkpt lat="42.5439260" lon="-8.9081780">
        <ele>0.8</ele>
        <time>2020-08-07T13:58:54Z</time>
      </trkpt>
      <trkpt lat="42.5439260" lon="-8.9081780">
        <ele>0.8</ele>
        <time>2020-08-07T13:58:55Z</time>
      </trkpt>
      <trkpt lat="42.5439390" lon="-8.9082030">
        <ele>0.8</ele>
        <time>2020-08-07T13:58:56Z</time>
      </trkpt>
      <trkpt lat="42.5439390" lon="-8.9082030">
        <ele>0.6</ele>
        <time>2020-08-07T13:58:57Z</time>
      </trkpt>
      <trkpt lat="42.5439490" lon="-8.9082270">
        <ele>0.6</ele>
        <time>2020-08-07T13:58:58Z</time>
      </trkpt>
      <trkpt lat="42.5439490" lon="-8.9082270">
        <ele>0.4</ele>
        <time>2020-08-07T13:58:59Z</time>
      </trkpt>
      <trkpt lat="42.5439620" lon="-8.9082500">
        <ele>0.4</ele>
        <time>2020-08-07T13:59:00Z</time>
      </trkpt>
      <trkpt lat="42.5439620" lon="-8.9082500">
        <ele>0.6</ele>
        <time>2020-08-07T13:59:01Z</time>
      </trkpt>
      <trkpt lat="42.5439710" lon="-8.9082740">
        <ele>0.8</ele>
        <time>2020-08-07T13:59:02Z</time>
      </trkpt>
      <trkpt lat="42.5439710" lon="-8.9082740">
        <ele>1.0</ele>
        <time>2020-08-07T13:59:03Z</time>
      </trkpt>
      <trkpt lat="42.5439840" lon="-8.9083030">
        <ele>0.8</ele>
        <time>2020-08-07T13:59:04Z</time>
      </trkpt>
      <trkpt lat="42.5439840" lon="-8.9083030">
        <ele>0.8</ele>
        <time>2020-08-07T13:59:05Z</time>
      </trkpt>
      <trkpt lat="42.5439840" lon="-8.9083030">
        <ele>0.8</ele>
        <time>2020-08-07T13:59:06Z</time>
      </trkpt>
      <trkpt lat="42.5440000" lon="-8.9083320">
        <ele>0.8</ele>
        <time>2020-08-07T13:59:07Z</time>
      </trkpt>
      <trkpt lat="42.5440000" lon="-8.9083320">
        <ele>0.6</ele>
        <time>2020-08-07T13:59:08Z</time>
      </trkpt>
      <trkpt lat="42.5440130" lon="-8.9083540">
        <ele>0.6</ele>
        <time>2020-08-07T13:59:09Z</time>
      </trkpt>
      <trkpt lat="42.5440130" lon="-8.9083540">
        <ele>0.4</ele>
        <time>2020-08-07T13:59:10Z</time>
      </trkpt>
      <trkpt lat="42.5440260" lon="-8.9083790">
        <ele>1.2</ele>
        <time>2020-08-07T13:59:11Z</time>
      </trkpt>
      <trkpt lat="42.5440260" lon="-8.9083790">
        <ele>1.0</ele>
        <time>2020-08-07T13:59:12Z</time>
      </trkpt>
      <trkpt lat="42.5440380" lon="-8.9083990">
        <ele>2.0</ele>
        <time>2020-08-07T13:59:13Z</time>
      </trkpt>
      <trkpt lat="42.5440380" lon="-8.9083990">
        <ele>2.4</ele>
        <time>2020-08-07T13:59:14Z</time>
      </trkpt>
      <trkpt lat="42.5440480" lon="-8.9084220">
        <ele>2.6</ele>
        <time>2020-08-07T13:59:15Z</time>
      </trkpt>
      <trkpt lat="42.5440480" lon="-8.9084220">
        <ele>2.2</ele>
        <time>2020-08-07T13:59:16Z</time>
      </trkpt>
      <trkpt lat="42.5440640" lon="-8.9084430">
        <ele>2.4</ele>
        <time>2020-08-07T13:59:17Z</time>
      </trkpt>
      <trkpt lat="42.5440640" lon="-8.9084430">
        <ele>2.6</ele>
        <time>2020-08-07T13:59:18Z</time>
      </trkpt>
      <trkpt lat="42.5440740" lon="-8.9084700">
        <ele>2.4</ele>
        <time>2020-08-07T13:59:19Z</time>
      </trkpt>
      <trkpt lat="42.5440740" lon="-8.9084700">
        <ele>2.6</ele>
        <time>2020-08-07T13:59:20Z</time>
      </trkpt>
      <trkpt lat="42.5440860" lon="-8.9084980">
        <ele>2.6</ele>
        <time>2020-08-07T13:59:21Z</time>
      </trkpt>
      <trkpt lat="42.5440860" lon="-8.9084980">
        <ele>2.6</ele>
        <time>2020-08-07T13:59:22Z</time>
      </trkpt>
      <trkpt lat="42.5440990" lon="-8.9085260">
        <ele>2.4</ele>
        <time>2020-08-07T13:59:23Z</time>
      </trkpt>
      <trkpt lat="42.5440990" lon="-8.9085260">
        <ele>2.6</ele>
        <time>2020-08-07T13:59:24Z</time>
      </trkpt>
      <trkpt lat="42.5441120" lon="-8.9085550">
        <ele>2.6</ele>
        <time>2020-08-07T13:59:25Z</time>
      </trkpt>
      <trkpt lat="42.5441120" lon="-8.9085550">
        <ele>2.6</ele>
        <time>2020-08-07T13:59:26Z</time>
      </trkpt>
      <trkpt lat="42.5441250" lon="-8.9085820">
        <ele>2.6</ele>
        <time>2020-08-07T13:59:27Z</time>
      </trkpt>
      <trkpt lat="42.5441250" lon="-8.9085820">
        <ele>2.6</ele>
        <time>2020-08-07T13:59:28Z</time>
      </trkpt>
      <trkpt lat="42.5441310" lon="-8.9086050">
        <ele>2.6</ele>
        <time>2020-08-07T13:59:29Z</time>
      </trkpt>
      <trkpt lat="42.5441310" lon="-8.9086050">
        <ele>2.4</ele>
        <time>2020-08-07T13:59:30Z</time>
      </trkpt>
      <trkpt lat="42.5441410" lon="-8.9086290">
        <ele>2.2</ele>
        <time>2020-08-07T13:59:31Z</time>
      </trkpt>
      <trkpt lat="42.5441410" lon="-8.9086290">
        <ele>2.2</ele>
        <time>2020-08-07T13:59:32Z</time>
      </trkpt>
      <trkpt lat="42.5441470" lon="-8.9086550">
        <ele>2.0</ele>
        <time>2020-08-07T13:59:33Z</time>
      </trkpt>
      <trkpt lat="42.5441470" lon="-8.9086550">
        <ele>2.0</ele>
        <time>2020-08-07T13:59:34Z</time>
      </trkpt>
      <trkpt lat="42.5441540" lon="-8.9086800">
        <ele>2.0</ele>
        <time>2020-08-07T13:59:35Z</time>
      </trkpt>
      <trkpt lat="42.5441540" lon="-8.9086800">
        <ele>1.8</ele>
        <time>2020-08-07T13:59:36Z</time>
      </trkpt>
      <trkpt lat="42.5441660" lon="-8.9087100">
        <ele>1.4</ele>
        <time>2020-08-07T13:59:37Z</time>
      </trkpt>
      <trkpt lat="42.5441660" lon="-8.9087100">
        <ele>1.4</ele>
        <time>2020-08-07T13:59:38Z</time>
      </trkpt>
      <trkpt lat="42.5441700" lon="-8.9087380">
        <ele>1.4</ele>
        <time>2020-08-07T13:59:39Z</time>
      </trkpt>
      <trkpt lat="42.5441700" lon="-8.9087380">
        <ele>1.0</ele>
        <time>2020-08-07T13:59:40Z</time>
      </trkpt>
      <trkpt lat="42.5441820" lon="-8.9087630">
        <ele>1.0</ele>
        <time>2020-08-07T13:59:41Z</time>
      </trkpt>
      <trkpt lat="42.5441820" lon="-8.9087630">
        <ele>0.6</ele>
        <time>2020-08-07T13:59:42Z</time>
      </trkpt>
      <trkpt lat="42.5441920" lon="-8.9087900">
        <ele>0.6</ele>
        <time>2020-08-07T13:59:43Z</time>
      </trkpt>
      <trkpt lat="42.5441920" lon="-8.9087900">
        <ele>0.6</ele>
        <time>2020-08-07T13:59:44Z</time>
      </trkpt>
      <trkpt lat="42.5442050" lon="-8.9088150">
        <ele>0.8</ele>
        <time>2020-08-07T13:59:45Z</time>
      </trkpt>
      <trkpt lat="42.5442050" lon="-8.9088150">
        <ele>0.6</ele>
        <time>2020-08-07T13:59:46Z</time>
      </trkpt>
      <trkpt lat="42.5442180" lon="-8.9088380">
        <ele>1.0</ele>
        <time>2020-08-07T13:59:47Z</time>
      </trkpt>
      <trkpt lat="42.5442180" lon="-8.9088380">
        <ele>1.0</ele>
        <time>2020-08-07T13:59:48Z</time>
      </trkpt>
      <trkpt lat="42.5442180" lon="-8.9088380">
        <ele>1.0</ele>
        <time>2020-08-07T13:59:49Z</time>
      </trkpt>
      <trkpt lat="42.5442270" lon="-8.9088720">
        <ele>0.8</ele>
        <time>2020-08-07T13:59:50Z</time>
      </trkpt>
      <trkpt lat="42.5442270" lon="-8.9088720">
        <ele>1.0</ele>
        <time>2020-08-07T13:59:51Z</time>
      </trkpt>
      <trkpt lat="42.5442370" lon="-8.9088980">
        <ele>0.8</ele>
        <time>2020-08-07T13:59:52Z</time>
      </trkpt>
      <trkpt lat="42.5442370" lon="-8.9088980">
        <ele>0.2</ele>
        <time>2020-08-07T13:59:53Z</time>
      </trkpt>
      <trkpt lat="42.5442460" lon="-8.9089270">
        <ele>-0.2</ele>
        <time>2020-08-07T13:59:54Z</time>
      </trkpt>
      <trkpt lat="42.5442460" lon="-8.9089270">
        <ele>-0.2</ele>
        <time>2020-08-07T13:59:55Z</time>
      </trkpt>
      <trkpt lat="42.5442590" lon="-8.9089540">
        <ele>-0.2</ele>
        <time>2020-08-07T13:59:56Z</time>
      </trkpt>
      <trkpt lat="42.5442590" lon="-8.9089540">
        <ele>0.0</ele>
        <time>2020-08-07T13:59:57Z</time>
      </trkpt>
      <trkpt lat="42.5442660" lon="-8.9089800">
        <ele>0.2</ele>
        <time>2020-08-07T13:59:58Z</time>
      </trkpt>
      <trkpt lat="42.5442660" lon="-8.9089800">
        <ele>0.4</ele>
        <time>2020-08-07T13:59:59Z</time>
      </trkpt>
      <trkpt lat="42.5442720" lon="-8.9090080">
        <ele>0.4</ele>
        <time>2020-08-07T14:00:00Z</time>
      </trkpt>
      <trkpt lat="42.5442720" lon="-8.9090080">
        <ele>0.6</ele>
        <time>2020-08-07T14:00:01Z</time>
      </trkpt>
      <trkpt lat="42.5442850" lon="-8.9090340">
        <ele>0.4</ele>
        <time>2020-08-07T14:00:02Z</time>
      </trkpt>
      <trkpt lat="42.5442850" lon="-8.9090340">
        <ele>0.2</ele>
        <time>2020-08-07T14:00:03Z</time>
      </trkpt>
      <trkpt lat="42.5442910" lon="-8.9090590">
        <ele>0.4</ele>
        <time>2020-08-07T14:00:04Z</time>
      </trkpt>
      <trkpt lat="42.5442910" lon="-8.9090590">
        <ele>0.2</ele>
        <time>2020-08-07T14:00:05Z</time>
      </trkpt>
      <trkpt lat="42.5443010" lon="-8.9090860">
        <ele>0.2</ele>
        <time>2020-08-07T14:00:06Z</time>
      </trkpt>
      <trkpt lat="42.5443010" lon="-8.9090860">
        <ele>0.4</ele>
        <time>2020-08-07T14:00:07Z</time>
      </trkpt>
      <trkpt lat="42.5443100" lon="-8.9091120">
        <ele>0.6</ele>
        <time>2020-08-07T14:00:08Z</time>
      </trkpt>
      <trkpt lat="42.5443100" lon="-8.9091120">
        <ele>0.6</ele>
        <time>2020-08-07T14:00:09Z</time>
      </trkpt>
      <trkpt lat="42.5443200" lon="-8.9091350">
        <ele>0.8</ele>
        <time>2020-08-07T14:00:10Z</time>
      </trkpt>
      <trkpt lat="42.5443200" lon="-8.9091350">
        <ele>0.8</ele>
        <time>2020-08-07T14:00:11Z</time>
      </trkpt>
      <trkpt lat="42.5443200" lon="-8.9091350">
        <ele>0.4</ele>
        <time>2020-08-07T14:00:12Z</time>
      </trkpt>
      <trkpt lat="42.5443360" lon="-8.9091680">
        <ele>0.2</ele>
        <time>2020-08-07T14:00:13Z</time>
      </trkpt>
      <trkpt lat="42.5443360" lon="-8.9091680">
        <ele>0.0</ele>
        <time>2020-08-07T14:00:14Z</time>
      </trkpt>
      <trkpt lat="42.5443420" lon="-8.9091920">
        <ele>0.2</ele>
        <time>2020-08-07T14:00:15Z</time>
      </trkpt>
      <trkpt lat="42.5443420" lon="-8.9091920">
        <ele>0.0</ele>
        <time>2020-08-07T14:00:16Z</time>
      </trkpt>
      <trkpt lat="42.5443420" lon="-8.9091920">
        <ele>-0.4</ele>
        <time>2020-08-07T14:00:17Z</time>
      </trkpt>
      <trkpt lat="42.5443580" lon="-8.9092230">
        <ele>-0.2</ele>
        <time>2020-08-07T14:00:18Z</time>
      </trkpt>
      <trkpt lat="42.5443580" lon="-8.9092230">
        <ele>-0.2</ele>
        <time>2020-08-07T14:00:19Z</time>
      </trkpt>
      <trkpt lat="42.5443680" lon="-8.9092480">
        <ele>-0.2</ele>
        <time>2020-08-07T14:00:20Z</time>
      </trkpt>
      <trkpt lat="42.5443680" lon="-8.9092480">
        <ele>0.0</ele>
        <time>2020-08-07T14:00:21Z</time>
      </trkpt>
      <trkpt lat="42.5443810" lon="-8.9092710">
        <ele>-0.2</ele>
        <time>2020-08-07T14:00:22Z</time>
      </trkpt>
      <trkpt lat="42.5443810" lon="-8.9092710">
        <ele>-0.2</ele>
        <time>2020-08-07T14:00:23Z</time>
      </trkpt>
      <trkpt lat="42.5443870" lon="-8.9092970">
        <ele>-0.4</ele>
        <time>2020-08-07T14:00:24Z</time>
      </trkpt>
      <trkpt lat="42.5443870" lon="-8.9092970">
        <ele>-0.4</ele>
        <time>2020-08-07T14:00:25Z</time>
      </trkpt>
      <trkpt lat="42.5443970" lon="-8.9093290">
        <ele>-0.4</ele>
        <time>2020-08-07T14:00:26Z</time>
      </trkpt>
      <trkpt lat="42.5443970" lon="-8.9093290">
        <ele>-0.4</ele>
        <time>2020-08-07T14:00:27Z</time>
      </trkpt>
      <trkpt lat="42.5444000" lon="-8.9093620">
        <ele>0.0</ele>
        <time>2020-08-07T14:00:28Z</time>
      </trkpt>
      <trkpt lat="42.5444000" lon="-8.9093620">
        <ele>-0.2</ele>
        <time>2020-08-07T14:00:29Z</time>
      </trkpt>
      <trkpt lat="42.5444030" lon="-8.9093890">
        <ele>-0.4</ele>
        <time>2020-08-07T14:00:30Z</time>
      </trkpt>
      <trkpt lat="42.5444030" lon="-8.9093890">
        <ele>-0.4</ele>
        <time>2020-08-07T14:00:31Z</time>
      </trkpt>
      <trkpt lat="42.5444030" lon="-8.9093890">
        <ele>-0.2</ele>
        <time>2020-08-07T14:00:32Z</time>
      </trkpt>
      <trkpt lat="42.5444060" lon="-8.9094220">
        <ele>0.0</ele>
        <time>2020-08-07T14:00:33Z</time>
      </trkpt>
      <trkpt lat="42.5444060" lon="-8.9094220">
        <ele>0.0</ele>
        <time>2020-08-07T14:00:34Z</time>
      </trkpt>
      <trkpt lat="42.5444160" lon="-8.9094450">
        <ele>0.0</ele>
        <time>2020-08-07T14:00:35Z</time>
      </trkpt>
      <trkpt lat="42.5444160" lon="-8.9094450">
        <ele>0.2</ele>
        <time>2020-08-07T14:00:36Z</time>
      </trkpt>
      <trkpt lat="42.5444160" lon="-8.9094450">
        <ele>0.6</ele>
        <time>2020-08-07T14:00:37Z</time>
      </trkpt>
      <trkpt lat="42.5444160" lon="-8.9094780">
        <ele>1.0</ele>
        <time>2020-08-07T14:00:38Z</time>
      </trkpt>
      <trkpt lat="42.5444160" lon="-8.9094780">
        <ele>1.0</ele>
        <time>2020-08-07T14:00:39Z</time>
      </trkpt>
      <trkpt lat="42.5444160" lon="-8.9094780">
        <ele>1.4</ele>
        <time>2020-08-07T14:00:40Z</time>
      </trkpt>
      <trkpt lat="42.5444260" lon="-8.9095110">
        <ele>1.2</ele>
        <time>2020-08-07T14:00:41Z</time>
      </trkpt>
      <trkpt lat="42.5444260" lon="-8.9095110">
        <ele>1.2</ele>
        <time>2020-08-07T14:00:42Z</time>
      </trkpt>
      <trkpt lat="42.5444320" lon="-8.9095360">
        <ele>0.8</ele>
        <time>2020-08-07T14:00:43Z</time>
      </trkpt>
      <trkpt lat="42.5444320" lon="-8.9095360">
        <ele>0.8</ele>
        <time>2020-08-07T14:00:44Z</time>
      </trkpt>
      <trkpt lat="42.5444380" lon="-8.9095600">
        <ele>1.0</ele>
        <time>2020-08-07T14:00:45Z</time>
      </trkpt>
      <trkpt lat="42.5444380" lon="-8.9095600">
        <ele>0.6</ele>
        <time>2020-08-07T14:00:46Z</time>
      </trkpt>
      <trkpt lat="42.5444480" lon="-8.9095830">
        <ele>0.8</ele>
        <time>2020-08-07T14:00:47Z</time>
      </trkpt>
      <trkpt lat="42.5444480" lon="-8.9095830">
        <ele>0.6</ele>
        <time>2020-08-07T14:00:48Z</time>
      </trkpt>
      <trkpt lat="42.5444580" lon="-8.9096100">
        <ele>0.8</ele>
        <time>2020-08-07T14:00:49Z</time>
      </trkpt>
      <trkpt lat="42.5444580" lon="-8.9096100">
        <ele>0.8</ele>
        <time>2020-08-07T14:00:50Z</time>
      </trkpt>
      <trkpt lat="42.5444640" lon="-8.9096400">
        <ele>1.0</ele>
        <time>2020-08-07T14:00:51Z</time>
      </trkpt>
      <trkpt lat="42.5444640" lon="-8.9096400">
        <ele>0.8</ele>
        <time>2020-08-07T14:00:52Z</time>
      </trkpt>
      <trkpt lat="42.5444770" lon="-8.9096670">
        <ele>1.0</ele>
        <time>2020-08-07T14:00:53Z</time>
      </trkpt>
      <trkpt lat="42.5444770" lon="-8.9096670">
        <ele>1.0</ele>
        <time>2020-08-07T14:00:54Z</time>
      </trkpt>
      <trkpt lat="42.5444860" lon="-8.9096920">
        <ele>1.0</ele>
        <time>2020-08-07T14:00:55Z</time>
      </trkpt>
      <trkpt lat="42.5444860" lon="-8.9096920">
        <ele>1.2</ele>
        <time>2020-08-07T14:00:56Z</time>
      </trkpt>
      <trkpt lat="42.5444990" lon="-8.9097210">
        <ele>1.0</ele>
        <time>2020-08-07T14:00:57Z</time>
      </trkpt>
      <trkpt lat="42.5444990" lon="-8.9097210">
        <ele>1.0</ele>
        <time>2020-08-07T14:00:58Z</time>
      </trkpt>
      <trkpt lat="42.5445150" lon="-8.9097480">
        <ele>1.0</ele>
        <time>2020-08-07T14:00:59Z</time>
      </trkpt>
      <trkpt lat="42.5445150" lon="-8.9097480">
        <ele>1.0</ele>
        <time>2020-08-07T14:01:00Z</time>
      </trkpt>
      <trkpt lat="42.5445280" lon="-8.9097780">
        <ele>0.6</ele>
        <time>2020-08-07T14:01:01Z</time>
      </trkpt>
      <trkpt lat="42.5445280" lon="-8.9097780">
        <ele>0.6</ele>
        <time>2020-08-07T14:01:02Z</time>
      </trkpt>
      <trkpt lat="42.5445440" lon="-8.9098100">
        <ele>0.4</ele>
        <time>2020-08-07T14:01:03Z</time>
      </trkpt>
      <trkpt lat="42.5445440" lon="-8.9098100">
        <ele>0.0</ele>
        <time>2020-08-07T14:01:04Z</time>
      </trkpt>
      <trkpt lat="42.5445500" lon="-8.9098430">
        <ele>0.2</ele>
        <time>2020-08-07T14:01:05Z</time>
      </trkpt>
      <trkpt lat="42.5445630" lon="-8.9098660">
        <ele>0.2</ele>
        <time>2020-08-07T14:01:06Z</time>
      </trkpt>
      <trkpt lat="42.5445630" lon="-8.9098660">
        <ele>0.2</ele>
        <time>2020-08-07T14:01:07Z</time>
      </trkpt>
      <trkpt lat="42.5445790" lon="-8.9098970">
        <ele>0.4</ele>
        <time>2020-08-07T14:01:08Z</time>
      </trkpt>
      <trkpt lat="42.5445790" lon="-8.9098970">
        <ele>0.4</ele>
        <time>2020-08-07T14:01:09Z</time>
      </trkpt>
      <trkpt lat="42.5445950" lon="-8.9099330">
        <ele>0.4</ele>
        <time>2020-08-07T14:01:10Z</time>
      </trkpt>
      <trkpt lat="42.5445950" lon="-8.9099330">
        <ele>0.4</ele>
        <time>2020-08-07T14:01:11Z</time>
      </trkpt>
      <trkpt lat="42.5446140" lon="-8.9099700">
        <ele>0.2</ele>
        <time>2020-08-07T14:01:12Z</time>
      </trkpt>
      <trkpt lat="42.5446140" lon="-8.9099700">
        <ele>0.2</ele>
        <time>2020-08-07T14:01:13Z</time>
      </trkpt>
      <trkpt lat="42.5446240" lon="-8.9100060">
        <ele>0.4</ele>
        <time>2020-08-07T14:01:14Z</time>
      </trkpt>
      <trkpt lat="42.5446370" lon="-8.9100240">
        <ele>0.4</ele>
        <time>2020-08-07T14:01:15Z</time>
      </trkpt>
      <trkpt lat="42.5446370" lon="-8.9100240">
        <ele>0.4</ele>
        <time>2020-08-07T14:01:16Z</time>
      </trkpt>
      <trkpt lat="42.5446560" lon="-8.9100540">
        <ele>0.2</ele>
        <time>2020-08-07T14:01:17Z</time>
      </trkpt>
      <trkpt lat="42.5446560" lon="-8.9100540">
        <ele>0.2</ele>
        <time>2020-08-07T14:01:18Z</time>
      </trkpt>
      <trkpt lat="42.5446690" lon="-8.9100850">
        <ele>0.4</ele>
        <time>2020-08-07T14:01:19Z</time>
      </trkpt>
      <trkpt lat="42.5446690" lon="-8.9100850">
        <ele>0.6</ele>
        <time>2020-08-07T14:01:20Z</time>
      </trkpt>
      <trkpt lat="42.5446880" lon="-8.9101150">
        <ele>0.6</ele>
        <time>2020-08-07T14:01:21Z</time>
      </trkpt>
      <trkpt lat="42.5446880" lon="-8.9101150">
        <ele>0.8</ele>
        <time>2020-08-07T14:01:22Z</time>
      </trkpt>
      <trkpt lat="42.5447040" lon="-8.9101490">
        <ele>0.8</ele>
        <time>2020-08-07T14:01:23Z</time>
      </trkpt>
      <trkpt lat="42.5447040" lon="-8.9101490">
        <ele>0.8</ele>
        <time>2020-08-07T14:01:24Z</time>
      </trkpt>
      <trkpt lat="42.5447200" lon="-8.9101800">
        <ele>0.8</ele>
        <time>2020-08-07T14:01:25Z</time>
      </trkpt>
      <trkpt lat="42.5447200" lon="-8.9101800">
        <ele>0.6</ele>
        <time>2020-08-07T14:01:26Z</time>
      </trkpt>
      <trkpt lat="42.5447300" lon="-8.9102090">
        <ele>1.0</ele>
        <time>2020-08-07T14:01:27Z</time>
      </trkpt>
      <trkpt lat="42.5447300" lon="-8.9102090">
        <ele>1.2</ele>
        <time>2020-08-07T14:01:28Z</time>
      </trkpt>
      <trkpt lat="42.5447420" lon="-8.9102430">
        <ele>1.4</ele>
        <time>2020-08-07T14:01:29Z</time>
      </trkpt>
      <trkpt lat="42.5447420" lon="-8.9102430">
        <ele>1.4</ele>
        <time>2020-08-07T14:01:30Z</time>
      </trkpt>
      <trkpt lat="42.5447580" lon="-8.9102740">
        <ele>1.2</ele>
        <time>2020-08-07T14:01:31Z</time>
      </trkpt>
      <trkpt lat="42.5447580" lon="-8.9102740">
        <ele>1.0</ele>
        <time>2020-08-07T14:01:32Z</time>
      </trkpt>
      <trkpt lat="42.5447740" lon="-8.9103050">
        <ele>1.2</ele>
        <time>2020-08-07T14:01:33Z</time>
      </trkpt>
      <trkpt lat="42.5447740" lon="-8.9103050">
        <ele>1.4</ele>
        <time>2020-08-07T14:01:34Z</time>
      </trkpt>
      <trkpt lat="42.5447810" lon="-8.9103340">
        <ele>1.4</ele>
        <time>2020-08-07T14:01:35Z</time>
      </trkpt>
      <trkpt lat="42.5447810" lon="-8.9103340">
        <ele>1.4</ele>
        <time>2020-08-07T14:01:36Z</time>
      </trkpt>
      <trkpt lat="42.5447970" lon="-8.9103600">
        <ele>1.2</ele>
        <time>2020-08-07T14:01:37Z</time>
      </trkpt>
      <trkpt lat="42.5447970" lon="-8.9103600">
        <ele>1.0</ele>
        <time>2020-08-07T14:01:38Z</time>
      </trkpt>
      <trkpt lat="42.5448060" lon="-8.9103870">
        <ele>1.0</ele>
        <time>2020-08-07T14:01:39Z</time>
      </trkpt>
      <trkpt lat="42.5448060" lon="-8.9103870">
        <ele>1.2</ele>
        <time>2020-08-07T14:01:40Z</time>
      </trkpt>
      <trkpt lat="42.5448190" lon="-8.9104120">
        <ele>1.0</ele>
        <time>2020-08-07T14:01:41Z</time>
      </trkpt>
      <trkpt lat="42.5448190" lon="-8.9104120">
        <ele>1.0</ele>
        <time>2020-08-07T14:01:42Z</time>
      </trkpt>
      <trkpt lat="42.5448190" lon="-8.9104120">
        <ele>0.8</ele>
        <time>2020-08-07T14:01:43Z</time>
      </trkpt>
      <trkpt lat="42.5448260" lon="-8.9104420">
        <ele>0.8</ele>
        <time>2020-08-07T14:01:44Z</time>
      </trkpt>
      <trkpt lat="42.5448260" lon="-8.9104420">
        <ele>0.4</ele>
        <time>2020-08-07T14:01:45Z</time>
      </trkpt>
      <trkpt lat="42.5448420" lon="-8.9104580">
        <ele>0.4</ele>
        <time>2020-08-07T14:01:46Z</time>
      </trkpt>
      <trkpt lat="42.5448420" lon="-8.9104580">
        <ele>0.0</ele>
        <time>2020-08-07T14:01:47Z</time>
      </trkpt>
      <trkpt lat="42.5448420" lon="-8.9104580">
        <ele>0.0</ele>
        <time>2020-08-07T14:01:48Z</time>
      </trkpt>
      <trkpt lat="42.5448610" lon="-8.9104820">
        <ele>0.0</ele>
        <time>2020-08-07T14:01:49Z</time>
      </trkpt>
      <trkpt lat="42.5448610" lon="-8.9104820">
        <ele>-0.2</ele>
        <time>2020-08-07T14:01:50Z</time>
      </trkpt>
      <trkpt lat="42.5448670" lon="-8.9105060">
        <ele>0.2</ele>
        <time>2020-08-07T14:01:51Z</time>
      </trkpt>
      <trkpt lat="42.5448670" lon="-8.9105060">
        <ele>-0.2</ele>
        <time>2020-08-07T14:01:52Z</time>
      </trkpt>
      <trkpt lat="42.5448740" lon="-8.9105300">
        <ele>0.0</ele>
        <time>2020-08-07T14:01:53Z</time>
      </trkpt>
      <trkpt lat="42.5448740" lon="-8.9105300">
        <ele>-0.4</ele>
        <time>2020-08-07T14:01:54Z</time>
      </trkpt>
      <trkpt lat="42.5448740" lon="-8.9105300">
        <ele>-0.4</ele>
        <time>2020-08-07T14:01:55Z</time>
      </trkpt>
      <trkpt lat="42.5448800" lon="-8.9105580">
        <ele>-0.6</ele>
        <time>2020-08-07T14:01:56Z</time>
      </trkpt>
      <trkpt lat="42.5448800" lon="-8.9105580">
        <ele>-0.6</ele>
        <time>2020-08-07T14:01:57Z</time>
      </trkpt>
      <trkpt lat="42.5448860" lon="-8.9105820">
        <ele>-0.6</ele>
        <time>2020-08-07T14:01:58Z</time>
      </trkpt>
      <trkpt lat="42.5448860" lon="-8.9105820">
        <ele>-0.8</ele>
        <time>2020-08-07T14:01:59Z</time>
      </trkpt>
      <trkpt lat="42.5448960" lon="-8.9106060">
        <ele>-0.8</ele>
        <time>2020-08-07T14:02:00Z</time>
      </trkpt>
      <trkpt lat="42.5448960" lon="-8.9106060">
        <ele>-0.6</ele>
        <time>2020-08-07T14:02:01Z</time>
      </trkpt>
      <trkpt lat="42.5449060" lon="-8.9106280">
        <ele>-0.4</ele>
        <time>2020-08-07T14:02:02Z</time>
      </trkpt>
      <trkpt lat="42.5449060" lon="-8.9106280">
        <ele>-0.6</ele>
        <time>2020-08-07T14:02:03Z</time>
      </trkpt>
      <trkpt lat="42.5449150" lon="-8.9106580">
        <ele>-0.2</ele>
        <time>2020-08-07T14:02:04Z</time>
      </trkpt>
      <trkpt lat="42.5449150" lon="-8.9106580">
        <ele>-0.4</ele>
        <time>2020-08-07T14:02:05Z</time>
      </trkpt>
      <trkpt lat="42.5449250" lon="-8.9106850">
        <ele>-0.4</ele>
        <time>2020-08-07T14:02:06Z</time>
      </trkpt>
      <trkpt lat="42.5449250" lon="-8.9106850">
        <ele>-0.4</ele>
        <time>2020-08-07T14:02:07Z</time>
      </trkpt>
      <trkpt lat="42.5449380" lon="-8.9107130">
        <ele>-0.4</ele>
        <time>2020-08-07T14:02:08Z</time>
      </trkpt>
      <trkpt lat="42.5449380" lon="-8.9107130">
        <ele>-0.4</ele>
        <time>2020-08-07T14:02:09Z</time>
      </trkpt>
      <trkpt lat="42.5449470" lon="-8.9107400">
        <ele>-0.2</ele>
        <time>2020-08-07T14:02:10Z</time>
      </trkpt>
      <trkpt lat="42.5449470" lon="-8.9107400">
        <ele>-0.4</ele>
        <time>2020-08-07T14:02:11Z</time>
      </trkpt>
      <trkpt lat="42.5449600" lon="-8.9107660">
        <ele>-0.4</ele>
        <time>2020-08-07T14:02:12Z</time>
      </trkpt>
      <trkpt lat="42.5449600" lon="-8.9107660">
        <ele>-0.4</ele>
        <time>2020-08-07T14:02:13Z</time>
      </trkpt>
      <trkpt lat="42.5449730" lon="-8.9107910">
        <ele>-0.6</ele>
        <time>2020-08-07T14:02:14Z</time>
      </trkpt>
      <trkpt lat="42.5449730" lon="-8.9107910">
        <ele>-0.4</ele>
        <time>2020-08-07T14:02:15Z</time>
      </trkpt>
      <trkpt lat="42.5449860" lon="-8.9108160">
        <ele>-0.4</ele>
        <time>2020-08-07T14:02:16Z</time>
      </trkpt>
      <trkpt lat="42.5449860" lon="-8.9108160">
        <ele>-0.4</ele>
        <time>2020-08-07T14:02:17Z</time>
      </trkpt>
      <trkpt lat="42.5449950" lon="-8.9108400">
        <ele>-0.6</ele>
        <time>2020-08-07T14:02:18Z</time>
      </trkpt>
      <trkpt lat="42.5449950" lon="-8.9108400">
        <ele>-0.6</ele>
        <time>2020-08-07T14:02:19Z</time>
      </trkpt>
      <trkpt lat="42.5449950" lon="-8.9108400">
        <ele>-0.4</ele>
        <time>2020-08-07T14:02:20Z</time>
      </trkpt>
      <trkpt lat="42.5450020" lon="-8.9108710">
        <ele>-0.2</ele>
        <time>2020-08-07T14:02:21Z</time>
      </trkpt>
      <trkpt lat="42.5450020" lon="-8.9108710">
        <ele>0.0</ele>
        <time>2020-08-07T14:02:22Z</time>
      </trkpt>
      <trkpt lat="42.5450020" lon="-8.9108960">
        <ele>0.4</ele>
        <time>2020-08-07T14:02:23Z</time>
      </trkpt>
      <trkpt lat="42.5450020" lon="-8.9108960">
        <ele>0.4</ele>
        <time>2020-08-07T14:02:24Z</time>
      </trkpt>
      <trkpt lat="42.5450020" lon="-8.9108960">
        <ele>0.4</ele>
        <time>2020-08-07T14:02:25Z</time>
      </trkpt>
      <trkpt lat="42.5450020" lon="-8.9109340">
        <ele>0.4</ele>
        <time>2020-08-07T14:02:26Z</time>
      </trkpt>
      <trkpt lat="42.5450020" lon="-8.9109340">
        <ele>0.4</ele>
        <time>2020-08-07T14:02:27Z</time>
      </trkpt>
      <trkpt lat="42.5450020" lon="-8.9109340">
        <ele>0.6</ele>
        <time>2020-08-07T14:02:28Z</time>
      </trkpt>
      <trkpt lat="42.5450050" lon="-8.9109690">
        <ele>0.6</ele>
        <time>2020-08-07T14:02:29Z</time>
      </trkpt>
      <trkpt lat="42.5450050" lon="-8.9109690">
        <ele>1.0</ele>
        <time>2020-08-07T14:02:30Z</time>
      </trkpt>
      <trkpt lat="42.5450050" lon="-8.9109970">
        <ele>1.2</ele>
        <time>2020-08-07T14:02:31Z</time>
      </trkpt>
      <trkpt lat="42.5450050" lon="-8.9109970">
        <ele>1.4</ele>
        <time>2020-08-07T14:02:32Z</time>
      </trkpt>
      <trkpt lat="42.5450050" lon="-8.9110230">
        <ele>1.4</ele>
        <time>2020-08-07T14:02:33Z</time>
      </trkpt>
      <trkpt lat="42.5450050" lon="-8.9110230">
        <ele>1.4</ele>
        <time>2020-08-07T14:02:34Z</time>
      </trkpt>
      <trkpt lat="42.5450110" lon="-8.9110520">
        <ele>1.6</ele>
        <time>2020-08-07T14:02:35Z</time>
      </trkpt>
      <trkpt lat="42.5450110" lon="-8.9110520">
        <ele>1.4</ele>
        <time>2020-08-07T14:02:36Z</time>
      </trkpt>
      <trkpt lat="42.5450180" lon="-8.9110830">
        <ele>1.0</ele>
        <time>2020-08-07T14:02:37Z</time>
      </trkpt>
      <trkpt lat="42.5450180" lon="-8.9110830">
        <ele>0.8</ele>
        <time>2020-08-07T14:02:38Z</time>
      </trkpt>
      <trkpt lat="42.5450240" lon="-8.9111140">
        <ele>0.4</ele>
        <time>2020-08-07T14:02:39Z</time>
      </trkpt>
      <trkpt lat="42.5450240" lon="-8.9111140">
        <ele>0.0</ele>
        <time>2020-08-07T14:02:40Z</time>
      </trkpt>
      <trkpt lat="42.5450370" lon="-8.9111460">
        <ele>0.0</ele>
        <time>2020-08-07T14:02:41Z</time>
      </trkpt>
      <trkpt lat="42.5450370" lon="-8.9111460">
        <ele>0.0</ele>
        <time>2020-08-07T14:02:42Z</time>
      </trkpt>
      <trkpt lat="42.5450430" lon="-8.9111740">
        <ele>0.0</ele>
        <time>2020-08-07T14:02:43Z</time>
      </trkpt>
      <trkpt lat="42.5450430" lon="-8.9111740">
        <ele>-0.2</ele>
        <time>2020-08-07T14:02:44Z</time>
      </trkpt>
      <trkpt lat="42.5450530" lon="-8.9112020">
        <ele>-0.4</ele>
        <time>2020-08-07T14:02:45Z</time>
      </trkpt>
      <trkpt lat="42.5450530" lon="-8.9112020">
        <ele>-0.6</ele>
        <time>2020-08-07T14:02:46Z</time>
      </trkpt>
      <trkpt lat="42.5450560" lon="-8.9112320">
        <ele>-0.4</ele>
        <time>2020-08-07T14:02:47Z</time>
      </trkpt>
      <trkpt lat="42.5450560" lon="-8.9112320">
        <ele>-0.6</ele>
        <time>2020-08-07T14:02:48Z</time>
      </trkpt>
      <trkpt lat="42.5450620" lon="-8.9112620">
        <ele>-0.4</ele>
        <time>2020-08-07T14:02:49Z</time>
      </trkpt>
      <trkpt lat="42.5450620" lon="-8.9112620">
        <ele>-0.2</ele>
        <time>2020-08-07T14:02:50Z</time>
      </trkpt>
      <trkpt lat="42.5450660" lon="-8.9112930">
        <ele>0.0</ele>
        <time>2020-08-07T14:02:51Z</time>
      </trkpt>
      <trkpt lat="42.5450660" lon="-8.9112930">
        <ele>0.0</ele>
        <time>2020-08-07T14:02:52Z</time>
      </trkpt>
      <trkpt lat="42.5450660" lon="-8.9113260">
        <ele>-0.2</ele>
        <time>2020-08-07T14:02:53Z</time>
      </trkpt>
      <trkpt lat="42.5450660" lon="-8.9113260">
        <ele>0.0</ele>
        <time>2020-08-07T14:02:54Z</time>
      </trkpt>
      <trkpt lat="42.5450720" lon="-8.9113600">
        <ele>0.0</ele>
        <time>2020-08-07T14:02:55Z</time>
      </trkpt>
      <trkpt lat="42.5450720" lon="-8.9113600">
        <ele>0.0</ele>
        <time>2020-08-07T14:02:56Z</time>
      </trkpt>
      <trkpt lat="42.5450720" lon="-8.9113900">
        <ele>-0.2</ele>
        <time>2020-08-07T14:02:57Z</time>
      </trkpt>
      <trkpt lat="42.5450720" lon="-8.9113900">
        <ele>-0.2</ele>
        <time>2020-08-07T14:02:58Z</time>
      </trkpt>
      <trkpt lat="42.5450750" lon="-8.9114200">
        <ele>-0.4</ele>
        <time>2020-08-07T14:02:59Z</time>
      </trkpt>
      <trkpt lat="42.5450750" lon="-8.9114200">
        <ele>-0.6</ele>
        <time>2020-08-07T14:03:00Z</time>
      </trkpt>
      <trkpt lat="42.5450750" lon="-8.9114200">
        <ele>-0.4</ele>
        <time>2020-08-07T14:03:01Z</time>
      </trkpt>
      <trkpt lat="42.5450850" lon="-8.9114510">
        <ele>-0.4</ele>
        <time>2020-08-07T14:03:02Z</time>
      </trkpt>
      <trkpt lat="42.5450850" lon="-8.9114510">
        <ele>0.0</ele>
        <time>2020-08-07T14:03:03Z</time>
      </trkpt>
      <trkpt lat="42.5450850" lon="-8.9114510">
        <ele>0.4</ele>
        <time>2020-08-07T14:03:04Z</time>
      </trkpt>
      <trkpt lat="42.5450940" lon="-8.9114850">
        <ele>0.6</ele>
        <time>2020-08-07T14:03:05Z</time>
      </trkpt>
      <trkpt lat="42.5450940" lon="-8.9114850">
        <ele>0.8</ele>
        <time>2020-08-07T14:03:06Z</time>
      </trkpt>
      <trkpt lat="42.5450940" lon="-8.9114850">
        <ele>0.6</ele>
        <time>2020-08-07T14:03:07Z</time>
      </trkpt>
      <trkpt lat="42.5450940" lon="-8.9115100">
        <ele>0.8</ele>
        <time>2020-08-07T14:03:08Z</time>
      </trkpt>
      <trkpt lat="42.5450940" lon="-8.9115100">
        <ele>1.0</ele>
        <time>2020-08-07T14:03:09Z</time>
      </trkpt>
      <trkpt lat="42.5450940" lon="-8.9115100">
        <ele>0.8</ele>
        <time>2020-08-07T14:03:10Z</time>
      </trkpt>
      <trkpt lat="42.5450940" lon="-8.9115400">
        <ele>1.0</ele>
        <time>2020-08-07T14:03:11Z</time>
      </trkpt>
      <trkpt lat="42.5450940" lon="-8.9115400">
        <ele>1.0</ele>
        <time>2020-08-07T14:03:12Z</time>
      </trkpt>
      <trkpt lat="42.5450940" lon="-8.9115400">
        <ele>0.4</ele>
        <time>2020-08-07T14:03:13Z</time>
      </trkpt>
      <trkpt lat="42.5450940" lon="-8.9115750">
        <ele>0.2</ele>
        <time>2020-08-07T14:03:14Z</time>
      </trkpt>
      <trkpt lat="42.5450940" lon="-8.9115750">
        <ele>0.0</ele>
        <time>2020-08-07T14:03:15Z</time>
      </trkpt>
      <trkpt lat="42.5450910" lon="-8.9116020">
        <ele>0.2</ele>
        <time>2020-08-07T14:03:16Z</time>
      </trkpt>
      <trkpt lat="42.5450910" lon="-8.9116020">
        <ele>0.4</ele>
        <time>2020-08-07T14:03:17Z</time>
      </trkpt>
      <trkpt lat="42.5450850" lon="-8.9116270">
        <ele>0.4</ele>
        <time>2020-08-07T14:03:18Z</time>
      </trkpt>
      <trkpt lat="42.5450850" lon="-8.9116270">
        <ele>0.0</ele>
        <time>2020-08-07T14:03:19Z</time>
      </trkpt>
      <trkpt lat="42.5450850" lon="-8.9116270">
        <ele>-0.2</ele>
        <time>2020-08-07T14:03:20Z</time>
      </trkpt>
      <trkpt lat="42.5450820" lon="-8.9116620">
        <ele>-0.2</ele>
        <time>2020-08-07T14:03:21Z</time>
      </trkpt>
      <trkpt lat="42.5450820" lon="-8.9116620">
        <ele>-0.2</ele>
        <time>2020-08-07T14:03:22Z</time>
      </trkpt>
      <trkpt lat="42.5450820" lon="-8.9116620">
        <ele>0.0</ele>
        <time>2020-08-07T14:03:23Z</time>
      </trkpt>
      <trkpt lat="42.5450780" lon="-8.9116950">
        <ele>0.0</ele>
        <time>2020-08-07T14:03:24Z</time>
      </trkpt>
      <trkpt lat="42.5450780" lon="-8.9116950">
        <ele>-0.2</ele>
        <time>2020-08-07T14:03:25Z</time>
      </trkpt>
      <trkpt lat="42.5450780" lon="-8.9116950">
        <ele>0.0</ele>
        <time>2020-08-07T14:03:26Z</time>
      </trkpt>
      <trkpt lat="42.5450780" lon="-8.9117300">
        <ele>0.2</ele>
        <time>2020-08-07T14:03:27Z</time>
      </trkpt>
      <trkpt lat="42.5450780" lon="-8.9117300">
        <ele>0.0</ele>
        <time>2020-08-07T14:03:28Z</time>
      </trkpt>
      <trkpt lat="42.5450780" lon="-8.9117540">
        <ele>0.2</ele>
        <time>2020-08-07T14:03:29Z</time>
      </trkpt>
      <trkpt lat="42.5450780" lon="-8.9117540">
        <ele>0.4</ele>
        <time>2020-08-07T14:03:30Z</time>
      </trkpt>
      <trkpt lat="42.5450780" lon="-8.9117540">
        <ele>0.6</ele>
        <time>2020-08-07T14:03:31Z</time>
      </trkpt>
      <trkpt lat="42.5450720" lon="-8.9117880">
        <ele>0.6</ele>
        <time>2020-08-07T14:03:32Z</time>
      </trkpt>
      <trkpt lat="42.5450720" lon="-8.9117880">
        <ele>0.8</ele>
        <time>2020-08-07T14:03:33Z</time>
      </trkpt>
      <trkpt lat="42.5450660" lon="-8.9118140">
        <ele>0.8</ele>
        <time>2020-08-07T14:03:34Z</time>
      </trkpt>
      <trkpt lat="42.5450660" lon="-8.9118140">
        <ele>0.8</ele>
        <time>2020-08-07T14:03:35Z</time>
      </trkpt>
      <trkpt lat="42.5450720" lon="-8.9118370">
        <ele>1.0</ele>
        <time>2020-08-07T14:03:36Z</time>
      </trkpt>
      <trkpt lat="42.5450720" lon="-8.9118370">
        <ele>0.6</ele>
        <time>2020-08-07T14:03:37Z</time>
      </trkpt>
      <trkpt lat="42.5450720" lon="-8.9118370">
        <ele>0.4</ele>
        <time>2020-08-07T14:03:38Z</time>
      </trkpt>
      <trkpt lat="42.5450750" lon="-8.9118700">
        <ele>0.2</ele>
        <time>2020-08-07T14:03:39Z</time>
      </trkpt>
      <trkpt lat="42.5450750" lon="-8.9118700">
        <ele>0.0</ele>
        <time>2020-08-07T14:03:40Z</time>
      </trkpt>
      <trkpt lat="42.5450780" lon="-8.9118940">
        <ele>0.2</ele>
        <time>2020-08-07T14:03:41Z</time>
      </trkpt>
      <trkpt lat="42.5450780" lon="-8.9118940">
        <ele>0.4</ele>
        <time>2020-08-07T14:03:42Z</time>
      </trkpt>
      <trkpt lat="42.5450820" lon="-8.9119190">
        <ele>0.4</ele>
        <time>2020-08-07T14:03:43Z</time>
      </trkpt>
      <trkpt lat="42.5450820" lon="-8.9119190">
        <ele>0.6</ele>
        <time>2020-08-07T14:03:44Z</time>
      </trkpt>
      <trkpt lat="42.5450780" lon="-8.9119430">
        <ele>0.4</ele>
        <time>2020-08-07T14:03:45Z</time>
      </trkpt>
      <trkpt lat="42.5450780" lon="-8.9119430">
        <ele>0.4</ele>
        <time>2020-08-07T14:03:46Z</time>
      </trkpt>
      <trkpt lat="42.5450780" lon="-8.9119430">
        <ele>0.4</ele>
        <time>2020-08-07T14:03:47Z</time>
      </trkpt>
      <trkpt lat="42.5450850" lon="-8.9119800">
        <ele>0.0</ele>
        <time>2020-08-07T14:03:48Z</time>
      </trkpt>
      <trkpt lat="42.5450850" lon="-8.9119800">
        <ele>0.0</ele>
        <time>2020-08-07T14:03:49Z</time>
      </trkpt>
      <trkpt lat="42.5450820" lon="-8.9120060">
        <ele>0.0</ele>
        <time>2020-08-07T14:03:50Z</time>
      </trkpt>
      <trkpt lat="42.5450820" lon="-8.9120060">
        <ele>0.2</ele>
        <time>2020-08-07T14:03:51Z</time>
      </trkpt>
      <trkpt lat="42.5450780" lon="-8.9120330">
        <ele>0.6</ele>
        <time>2020-08-07T14:03:52Z</time>
      </trkpt>
      <trkpt lat="42.5450780" lon="-8.9120330">
        <ele>0.6</ele>
        <time>2020-08-07T14:03:53Z</time>
      </trkpt>
      <trkpt lat="42.5450780" lon="-8.9120330">
        <ele>0.6</ele>
        <time>2020-08-07T14:03:54Z</time>
      </trkpt>
      <trkpt lat="42.5450750" lon="-8.9120660">
        <ele>0.8</ele>
        <time>2020-08-07T14:03:55Z</time>
      </trkpt>
      <trkpt lat="42.5450750" lon="-8.9120660">
        <ele>0.8</ele>
        <time>2020-08-07T14:03:56Z</time>
      </trkpt>
      <trkpt lat="42.5450750" lon="-8.9120660">
        <ele>1.0</ele>
        <time>2020-08-07T14:03:57Z</time>
      </trkpt>
      <trkpt lat="42.5450750" lon="-8.9121020">
        <ele>1.0</ele>
        <time>2020-08-07T14:03:58Z</time>
      </trkpt>
      <trkpt lat="42.5450750" lon="-8.9121020">
        <ele>1.2</ele>
        <time>2020-08-07T14:03:59Z</time>
      </trkpt>
      <trkpt lat="42.5450750" lon="-8.9121020">
        <ele>1.2</ele>
        <time>2020-08-07T14:04:00Z</time>
      </trkpt>
      <trkpt lat="42.5450780" lon="-8.9121380">
        <ele>1.0</ele>
        <time>2020-08-07T14:04:01Z</time>
      </trkpt>
      <trkpt lat="42.5450780" lon="-8.9121380">
        <ele>0.8</ele>
        <time>2020-08-07T14:04:02Z</time>
      </trkpt>
      <trkpt lat="42.5450780" lon="-8.9121640">
        <ele>0.8</ele>
        <time>2020-08-07T14:04:03Z</time>
      </trkpt>
      <trkpt lat="42.5450780" lon="-8.9121640">
        <ele>0.4</ele>
        <time>2020-08-07T14:04:04Z</time>
      </trkpt>
      <trkpt lat="42.5450780" lon="-8.9121900">
        <ele>0.6</ele>
        <time>2020-08-07T14:04:05Z</time>
      </trkpt>
      <trkpt lat="42.5450780" lon="-8.9121900">
        <ele>0.6</ele>
        <time>2020-08-07T14:04:06Z</time>
      </trkpt>
      <trkpt lat="42.5450820" lon="-8.9122160">
        <ele>0.6</ele>
        <time>2020-08-07T14:04:07Z</time>
      </trkpt>
      <trkpt lat="42.5450820" lon="-8.9122160">
        <ele>0.4</ele>
        <time>2020-08-07T14:04:08Z</time>
      </trkpt>
      <trkpt lat="42.5450850" lon="-8.9122400">
        <ele>0.2</ele>
        <time>2020-08-07T14:04:09Z</time>
      </trkpt>
      <trkpt lat="42.5450850" lon="-8.9122400">
        <ele>0.2</ele>
        <time>2020-08-07T14:04:10Z</time>
      </trkpt>
      <trkpt lat="42.5450850" lon="-8.9122400">
        <ele>0.2</ele>
        <time>2020-08-07T14:04:11Z</time>
      </trkpt>
      <trkpt lat="42.5450940" lon="-8.9122740">
        <ele>0.0</ele>
        <time>2020-08-07T14:04:12Z</time>
      </trkpt>
      <trkpt lat="42.5450940" lon="-8.9122740">
        <ele>0.4</ele>
        <time>2020-08-07T14:04:13Z</time>
      </trkpt>
      <trkpt lat="42.5450940" lon="-8.9122740">
        <ele>0.0</ele>
        <time>2020-08-07T14:04:14Z</time>
      </trkpt>
      <trkpt lat="42.5451040" lon="-8.9123090">
        <ele>0.0</ele>
        <time>2020-08-07T14:04:15Z</time>
      </trkpt>
      <trkpt lat="42.5451040" lon="-8.9123090">
        <ele>-0.2</ele>
        <time>2020-08-07T14:04:16Z</time>
      </trkpt>
      <trkpt lat="42.5451170" lon="-8.9123300">
        <ele>-0.8</ele>
        <time>2020-08-07T14:04:17Z</time>
      </trkpt>
      <trkpt lat="42.5451170" lon="-8.9123300">
        <ele>-1.0</ele>
        <time>2020-08-07T14:04:18Z</time>
      </trkpt>
      <trkpt lat="42.5451170" lon="-8.9123300">
        <ele>-1.0</ele>
        <time>2020-08-07T14:04:19Z</time>
      </trkpt>
      <trkpt lat="42.5451200" lon="-8.9123670">
        <ele>-1.0</ele>
        <time>2020-08-07T14:04:20Z</time>
      </trkpt>
      <trkpt lat="42.5451200" lon="-8.9123670">
        <ele>-1.2</ele>
        <time>2020-08-07T14:04:21Z</time>
      </trkpt>
      <trkpt lat="42.5451200" lon="-8.9123920">
        <ele>-1.4</ele>
        <time>2020-08-07T14:04:22Z</time>
      </trkpt>
      <trkpt lat="42.5451200" lon="-8.9123920">
        <ele>-1.2</ele>
        <time>2020-08-07T14:04:23Z</time>
      </trkpt>
      <trkpt lat="42.5451230" lon="-8.9124170">
        <ele>-1.2</ele>
        <time>2020-08-07T14:04:24Z</time>
      </trkpt>
      <trkpt lat="42.5451230" lon="-8.9124170">
        <ele>-1.2</ele>
        <time>2020-08-07T14:04:25Z</time>
      </trkpt>
      <trkpt lat="42.5451230" lon="-8.9124170">
        <ele>-1.0</ele>
        <time>2020-08-07T14:04:26Z</time>
      </trkpt>
      <trkpt lat="42.5451330" lon="-8.9124480">
        <ele>-1.2</ele>
        <time>2020-08-07T14:04:27Z</time>
      </trkpt>
      <trkpt lat="42.5451330" lon="-8.9124480">
        <ele>-1.2</ele>
        <time>2020-08-07T14:04:28Z</time>
      </trkpt>
      <trkpt lat="42.5451360" lon="-8.9124740">
        <ele>-1.2</ele>
        <time>2020-08-07T14:04:29Z</time>
      </trkpt>
      <trkpt lat="42.5451360" lon="-8.9124740">
        <ele>-0.6</ele>
        <time>2020-08-07T14:04:30Z</time>
      </trkpt>
      <trkpt lat="42.5451420" lon="-8.9125030">
        <ele>-0.6</ele>
        <time>2020-08-07T14:04:31Z</time>
      </trkpt>
      <trkpt lat="42.5451420" lon="-8.9125030">
        <ele>-0.8</ele>
        <time>2020-08-07T14:04:32Z</time>
      </trkpt>
      <trkpt lat="42.5451520" lon="-8.9125250">
        <ele>-0.6</ele>
        <time>2020-08-07T14:04:33Z</time>
      </trkpt>
      <trkpt lat="42.5451520" lon="-8.9125250">
        <ele>0.2</ele>
        <time>2020-08-07T14:04:34Z</time>
      </trkpt>
      <trkpt lat="42.5451580" lon="-8.9125480">
        <ele>0.8</ele>
        <time>2020-08-07T14:04:35Z</time>
      </trkpt>
      <trkpt lat="42.5451580" lon="-8.9125480">
        <ele>1.0</ele>
        <time>2020-08-07T14:04:36Z</time>
      </trkpt>
      <trkpt lat="42.5451620" lon="-8.9125730">
        <ele>1.2</ele>
        <time>2020-08-07T14:04:37Z</time>
      </trkpt>
      <trkpt lat="42.5451620" lon="-8.9125730">
        <ele>1.0</ele>
        <time>2020-08-07T14:04:38Z</time>
      </trkpt>
      <trkpt lat="42.5451710" lon="-8.9125970">
        <ele>0.6</ele>
        <time>2020-08-07T14:04:39Z</time>
      </trkpt>
      <trkpt lat="42.5451710" lon="-8.9125970">
        <ele>0.8</ele>
        <time>2020-08-07T14:04:40Z</time>
      </trkpt>
      <trkpt lat="42.5451710" lon="-8.9125970">
        <ele>1.0</ele>
        <time>2020-08-07T14:04:41Z</time>
      </trkpt>
      <trkpt lat="42.5451780" lon="-8.9126330">
        <ele>1.2</ele>
        <time>2020-08-07T14:04:42Z</time>
      </trkpt>
      <trkpt lat="42.5451780" lon="-8.9126330">
        <ele>1.6</ele>
        <time>2020-08-07T14:04:43Z</time>
      </trkpt>
      <trkpt lat="42.5451840" lon="-8.9126620">
        <ele>1.8</ele>
        <time>2020-08-07T14:04:44Z</time>
      </trkpt>
      <trkpt lat="42.5451840" lon="-8.9126620">
        <ele>1.6</ele>
        <time>2020-08-07T14:04:45Z</time>
      </trkpt>
      <trkpt lat="42.5451970" lon="-8.9126860">
        <ele>1.8</ele>
        <time>2020-08-07T14:04:46Z</time>
      </trkpt>
      <trkpt lat="42.5451970" lon="-8.9126860">
        <ele>1.8</ele>
        <time>2020-08-07T14:04:47Z</time>
      </trkpt>
      <trkpt lat="42.5452030" lon="-8.9127120">
        <ele>1.8</ele>
        <time>2020-08-07T14:04:48Z</time>
      </trkpt>
      <trkpt lat="42.5452030" lon="-8.9127120">
        <ele>1.8</ele>
        <time>2020-08-07T14:04:49Z</time>
      </trkpt>
      <trkpt lat="42.5452030" lon="-8.9127120">
        <ele>1.6</ele>
        <time>2020-08-07T14:04:50Z</time>
      </trkpt>
      <trkpt lat="42.5452130" lon="-8.9127430">
        <ele>1.2</ele>
        <time>2020-08-07T14:04:51Z</time>
      </trkpt>
      <trkpt lat="42.5452130" lon="-8.9127430">
        <ele>1.4</ele>
        <time>2020-08-07T14:04:52Z</time>
      </trkpt>
      <trkpt lat="42.5452160" lon="-8.9127700">
        <ele>1.4</ele>
        <time>2020-08-07T14:04:53Z</time>
      </trkpt>
      <trkpt lat="42.5452160" lon="-8.9127700">
        <ele>1.6</ele>
        <time>2020-08-07T14:04:54Z</time>
      </trkpt>
      <trkpt lat="42.5452160" lon="-8.9127700">
        <ele>1.2</ele>
        <time>2020-08-07T14:04:55Z</time>
      </trkpt>
      <trkpt lat="42.5452220" lon="-8.9128040">
        <ele>1.2</ele>
        <time>2020-08-07T14:04:56Z</time>
      </trkpt>
      <trkpt lat="42.5452220" lon="-8.9128040">
        <ele>1.2</ele>
        <time>2020-08-07T14:04:57Z</time>
      </trkpt>
      <trkpt lat="42.5452220" lon="-8.9128040">
        <ele>1.2</ele>
        <time>2020-08-07T14:04:58Z</time>
      </trkpt>
      <trkpt lat="42.5452190" lon="-8.9128400">
        <ele>1.2</ele>
        <time>2020-08-07T14:04:59Z</time>
      </trkpt>
      <trkpt lat="42.5452190" lon="-8.9128400">
        <ele>1.2</ele>
        <time>2020-08-07T14:05:00Z</time>
      </trkpt>
      <trkpt lat="42.5452190" lon="-8.9128650">
        <ele>1.0</ele>
        <time>2020-08-07T14:05:01Z</time>
      </trkpt>
      <trkpt lat="42.5452190" lon="-8.9128650">
        <ele>1.2</ele>
        <time>2020-08-07T14:05:02Z</time>
      </trkpt>
      <trkpt lat="42.5452160" lon="-8.9128910">
        <ele>0.8</ele>
        <time>2020-08-07T14:05:03Z</time>
      </trkpt>
      <trkpt lat="42.5452160" lon="-8.9128910">
        <ele>0.6</ele>
        <time>2020-08-07T14:05:04Z</time>
      </trkpt>
      <trkpt lat="42.5452130" lon="-8.9129180">
        <ele>0.4</ele>
        <time>2020-08-07T14:05:05Z</time>
      </trkpt>
      <trkpt lat="42.5452130" lon="-8.9129180">
        <ele>0.6</ele>
        <time>2020-08-07T14:05:06Z</time>
      </trkpt>
      <trkpt lat="42.5452060" lon="-8.9129450">
        <ele>0.4</ele>
        <time>2020-08-07T14:05:07Z</time>
      </trkpt>
      <trkpt lat="42.5452060" lon="-8.9129450">
        <ele>0.6</ele>
        <time>2020-08-07T14:05:08Z</time>
      </trkpt>
      <trkpt lat="42.5452000" lon="-8.9129740">
        <ele>0.8</ele>
        <time>2020-08-07T14:05:09Z</time>
      </trkpt>
      <trkpt lat="42.5452000" lon="-8.9129740">
        <ele>0.6</ele>
        <time>2020-08-07T14:05:10Z</time>
      </trkpt>
      <trkpt lat="42.5451970" lon="-8.9129980">
        <ele>0.4</ele>
        <time>2020-08-07T14:05:11Z</time>
      </trkpt>
      <trkpt lat="42.5451970" lon="-8.9129980">
        <ele>0.4</ele>
        <time>2020-08-07T14:05:12Z</time>
      </trkpt>
      <trkpt lat="42.5451970" lon="-8.9130250">
        <ele>0.4</ele>
        <time>2020-08-07T14:05:13Z</time>
      </trkpt>
      <trkpt lat="42.5451970" lon="-8.9130250">
        <ele>0.6</ele>
        <time>2020-08-07T14:05:14Z</time>
      </trkpt>
      <trkpt lat="42.5451940" lon="-8.9130500">
        <ele>0.4</ele>
        <time>2020-08-07T14:05:15Z</time>
      </trkpt>
      <trkpt lat="42.5451940" lon="-8.9130500">
        <ele>0.4</ele>
        <time>2020-08-07T14:05:16Z</time>
      </trkpt>
      <trkpt lat="42.5451900" lon="-8.9130780">
        <ele>0.4</ele>
        <time>2020-08-07T14:05:17Z</time>
      </trkpt>
      <trkpt lat="42.5451900" lon="-8.9130780">
        <ele>0.4</ele>
        <time>2020-08-07T14:05:18Z</time>
      </trkpt>
      <trkpt lat="42.5451940" lon="-8.9131030">
        <ele>0.2</ele>
        <time>2020-08-07T14:05:19Z</time>
      </trkpt>
      <trkpt lat="42.5451940" lon="-8.9131030">
        <ele>0.4</ele>
        <time>2020-08-07T14:05:20Z</time>
      </trkpt>
      <trkpt lat="42.5451900" lon="-8.9131320">
        <ele>0.4</ele>
        <time>2020-08-07T14:05:21Z</time>
      </trkpt>
      <trkpt lat="42.5451900" lon="-8.9131320">
        <ele>0.4</ele>
        <time>2020-08-07T14:05:22Z</time>
      </trkpt>
      <trkpt lat="42.5451900" lon="-8.9131580">
        <ele>0.4</ele>
        <time>2020-08-07T14:05:23Z</time>
      </trkpt>
      <trkpt lat="42.5451900" lon="-8.9131580">
        <ele>0.4</ele>
        <time>2020-08-07T14:05:24Z</time>
      </trkpt>
      <trkpt lat="42.5451840" lon="-8.9131830">
        <ele>0.4</ele>
        <time>2020-08-07T14:05:25Z</time>
      </trkpt>
      <trkpt lat="42.5451840" lon="-8.9131830">
        <ele>0.4</ele>
        <time>2020-08-07T14:05:26Z</time>
      </trkpt>
      <trkpt lat="42.5451840" lon="-8.9131830">
        <ele>0.4</ele>
        <time>2020-08-07T14:05:27Z</time>
      </trkpt>
      <trkpt lat="42.5451780" lon="-8.9132180">
        <ele>0.6</ele>
        <time>2020-08-07T14:05:28Z</time>
      </trkpt>
      <trkpt lat="42.5451780" lon="-8.9132180">
        <ele>0.4</ele>
        <time>2020-08-07T14:05:29Z</time>
      </trkpt>
      <trkpt lat="42.5451710" lon="-8.9132460">
        <ele>0.4</ele>
        <time>2020-08-07T14:05:30Z</time>
      </trkpt>
      <trkpt lat="42.5451710" lon="-8.9132460">
        <ele>0.4</ele>
        <time>2020-08-07T14:05:31Z</time>
      </trkpt>
      <trkpt lat="42.5451710" lon="-8.9132780">
        <ele>0.4</ele>
        <time>2020-08-07T14:05:32Z</time>
      </trkpt>
      <trkpt lat="42.5451710" lon="-8.9132780">
        <ele>0.6</ele>
        <time>2020-08-07T14:05:33Z</time>
      </trkpt>
      <trkpt lat="42.5451710" lon="-8.9133080">
        <ele>0.6</ele>
        <time>2020-08-07T14:05:34Z</time>
      </trkpt>
      <trkpt lat="42.5451710" lon="-8.9133080">
        <ele>0.6</ele>
        <time>2020-08-07T14:05:35Z</time>
      </trkpt>
      <trkpt lat="42.5451710" lon="-8.9133370">
        <ele>0.8</ele>
        <time>2020-08-07T14:05:36Z</time>
      </trkpt>
      <trkpt lat="42.5451710" lon="-8.9133370">
        <ele>0.6</ele>
        <time>2020-08-07T14:05:37Z</time>
      </trkpt>
      <trkpt lat="42.5451740" lon="-8.9133660">
        <ele>0.6</ele>
        <time>2020-08-07T14:05:38Z</time>
      </trkpt>
      <trkpt lat="42.5451740" lon="-8.9133660">
        <ele>0.2</ele>
        <time>2020-08-07T14:05:39Z</time>
      </trkpt>
      <trkpt lat="42.5451740" lon="-8.9133660">
        <ele>-0.2</ele>
        <time>2020-08-07T14:05:40Z</time>
      </trkpt>
      <trkpt lat="42.5451780" lon="-8.9134060">
        <ele>-0.2</ele>
        <time>2020-08-07T14:05:41Z</time>
      </trkpt>
      <trkpt lat="42.5451780" lon="-8.9134060">
        <ele>-0.2</ele>
        <time>2020-08-07T14:05:42Z</time>
      </trkpt>
      <trkpt lat="42.5451780" lon="-8.9134060">
        <ele>-0.2</ele>
        <time>2020-08-07T14:05:43Z</time>
      </trkpt>
      <trkpt lat="42.5451740" lon="-8.9134380">
        <ele>-0.2</ele>
        <time>2020-08-07T14:05:44Z</time>
      </trkpt>
      <trkpt lat="42.5451620" lon="-8.9134230">
        <ele>2.4</ele>
        <time>2020-08-07T14:27:30Z</time>
      </trkpt>
      <trkpt lat="42.5451510" lon="-8.9134080">
        <ele>2.6</ele>
        <time>2020-08-07T14:27:31Z</time>
      </trkpt>
      <trkpt lat="42.5451390" lon="-8.9133930">
        <ele>2.8</ele>
        <time>2020-08-07T14:27:32Z</time>
      </trkpt>
      <trkpt lat="42.5451390" lon="-8.9133930">
        <ele>2.8</ele>
        <time>2020-08-07T14:27:33Z</time>
      </trkpt>
      <trkpt lat="42.5451390" lon="-8.9133930">
        <ele>3.0</ele>
        <time>2020-08-07T14:27:34Z</time>
      </trkpt>
      <trkpt lat="42.5451390" lon="-8.9133930">
        <ele>3.0</ele>
        <time>2020-08-07T14:27:35Z</time>
      </trkpt>
      <trkpt lat="42.5451260" lon="-8.9133730">
        <ele>2.4</ele>
        <time>2020-08-07T14:27:36Z</time>
      </trkpt>
      <trkpt lat="42.5451260" lon="-8.9133730">
        <ele>2.4</ele>
        <time>2020-08-07T14:27:37Z</time>
      </trkpt>
      <trkpt lat="42.5451260" lon="-8.9133730">
        <ele>2.2</ele>
        <time>2020-08-07T14:27:38Z</time>
      </trkpt>
      <trkpt lat="42.5451260" lon="-8.9133730">
        <ele>2.0</ele>
        <time>2020-08-07T14:27:39Z</time>
      </trkpt>
      <trkpt lat="42.5451260" lon="-8.9133730">
        <ele>1.6</ele>
        <time>2020-08-07T14:27:40Z</time>
      </trkpt>
      <trkpt lat="42.5451040" lon="-8.9133570">
        <ele>1.4</ele>
        <time>2020-08-07T14:27:41Z</time>
      </trkpt>
      <trkpt lat="42.5451040" lon="-8.9133570">
        <ele>1.4</ele>
        <time>2020-08-07T14:27:42Z</time>
      </trkpt>
      <trkpt lat="42.5451040" lon="-8.9133570">
        <ele>1.4</ele>
        <time>2020-08-07T14:27:43Z</time>
      </trkpt>
      <trkpt lat="42.5450850" lon="-8.9133370">
        <ele>1.6</ele>
        <time>2020-08-07T14:27:44Z</time>
      </trkpt>
      <trkpt lat="42.5450850" lon="-8.9133370">
        <ele>1.6</ele>
        <time>2020-08-07T14:27:45Z</time>
      </trkpt>
      <trkpt lat="42.5450660" lon="-8.9133350">
        <ele>1.8</ele>
        <time>2020-08-07T14:27:46Z</time>
      </trkpt>
      <trkpt lat="42.5450660" lon="-8.9133350">
        <ele>1.6</ele>
        <time>2020-08-07T14:27:47Z</time>
      </trkpt>
      <trkpt lat="42.5450660" lon="-8.9133350">
        <ele>1.4</ele>
        <time>2020-08-07T14:27:48Z</time>
      </trkpt>
      <trkpt lat="42.5450400" lon="-8.9133180">
        <ele>1.4</ele>
        <time>2020-08-07T14:27:49Z</time>
      </trkpt>
      <trkpt lat="42.5450400" lon="-8.9133180">
        <ele>1.2</ele>
        <time>2020-08-07T14:27:50Z</time>
      </trkpt>
      <trkpt lat="42.5450240" lon="-8.9133030">
        <ele>1.0</ele>
        <time>2020-08-07T14:27:51Z</time>
      </trkpt>
      <trkpt lat="42.5450240" lon="-8.9133030">
        <ele>0.8</ele>
        <time>2020-08-07T14:27:52Z</time>
      </trkpt>
      <trkpt lat="42.5450050" lon="-8.9132820">
        <ele>0.6</ele>
        <time>2020-08-07T14:27:53Z</time>
      </trkpt>
      <trkpt lat="42.5450050" lon="-8.9132820">
        <ele>0.6</ele>
        <time>2020-08-07T14:27:54Z</time>
      </trkpt>
      <trkpt lat="42.5449920" lon="-8.9132580">
        <ele>0.4</ele>
        <time>2020-08-07T14:27:55Z</time>
      </trkpt>
      <trkpt lat="42.5449920" lon="-8.9132580">
        <ele>0.2</ele>
        <time>2020-08-07T14:27:56Z</time>
      </trkpt>
      <trkpt lat="42.5449760" lon="-8.9132340">
        <ele>0.0</ele>
        <time>2020-08-07T14:27:57Z</time>
      </trkpt>
      <trkpt lat="42.5449760" lon="-8.9132340">
        <ele>0.0</ele>
        <time>2020-08-07T14:27:58Z</time>
      </trkpt>
      <trkpt lat="42.5449600" lon="-8.9132140">
        <ele>0.4</ele>
        <time>2020-08-07T14:27:59Z</time>
      </trkpt>
      <trkpt lat="42.5449600" lon="-8.9132140">
        <ele>0.6</ele>
        <time>2020-08-07T14:28:00Z</time>
      </trkpt>
      <trkpt lat="42.5449470" lon="-8.9131900">
        <ele>0.6</ele>
        <time>2020-08-07T14:28:01Z</time>
      </trkpt>
      <trkpt lat="42.5449470" lon="-8.9131900">
        <ele>0.6</ele>
        <time>2020-08-07T14:28:02Z</time>
      </trkpt>
      <trkpt lat="42.5449340" lon="-8.9131680">
        <ele>0.6</ele>
        <time>2020-08-07T14:28:03Z</time>
      </trkpt>
      <trkpt lat="42.5449340" lon="-8.9131680">
        <ele>0.4</ele>
        <time>2020-08-07T14:28:04Z</time>
      </trkpt>
      <trkpt lat="42.5449220" lon="-8.9131470">
        <ele>0.0</ele>
        <time>2020-08-07T14:28:05Z</time>
      </trkpt>
      <trkpt lat="42.5449220" lon="-8.9131470">
        <ele>0.0</ele>
        <time>2020-08-07T14:28:06Z</time>
      </trkpt>
      <trkpt lat="42.5449060" lon="-8.9131280">
        <ele>0.2</ele>
        <time>2020-08-07T14:28:07Z</time>
      </trkpt>
      <trkpt lat="42.5449060" lon="-8.9131280">
        <ele>0.2</ele>
        <time>2020-08-07T14:28:08Z</time>
      </trkpt>
      <trkpt lat="42.5449060" lon="-8.9131280">
        <ele>-0.2</ele>
        <time>2020-08-07T14:28:09Z</time>
      </trkpt>
      <trkpt lat="42.5448960" lon="-8.9131050">
        <ele>0.0</ele>
        <time>2020-08-07T14:28:10Z</time>
      </trkpt>
      <trkpt lat="42.5448960" lon="-8.9131050">
        <ele>0.0</ele>
        <time>2020-08-07T14:28:11Z</time>
      </trkpt>
      <trkpt lat="42.5448800" lon="-8.9130940">
        <ele>0.2</ele>
        <time>2020-08-07T14:28:12Z</time>
      </trkpt>
      <trkpt lat="42.5448800" lon="-8.9130940">
        <ele>0.2</ele>
        <time>2020-08-07T14:28:13Z</time>
      </trkpt>
      <trkpt lat="42.5448800" lon="-8.9130940">
        <ele>0.2</ele>
        <time>2020-08-07T14:28:14Z</time>
      </trkpt>
      <trkpt lat="42.5448580" lon="-8.9130800">
        <ele>0.6</ele>
        <time>2020-08-07T14:28:15Z</time>
      </trkpt>
      <trkpt lat="42.5448580" lon="-8.9130800">
        <ele>1.0</ele>
        <time>2020-08-07T14:28:16Z</time>
      </trkpt>
      <trkpt lat="42.5448380" lon="-8.9130830">
        <ele>1.4</ele>
        <time>2020-08-07T14:28:17Z</time>
      </trkpt>
      <trkpt lat="42.5448380" lon="-8.9130830">
        <ele>1.8</ele>
        <time>2020-08-07T14:28:18Z</time>
      </trkpt>
      <trkpt lat="42.5448380" lon="-8.9130830">
        <ele>1.8</ele>
        <time>2020-08-07T14:28:19Z</time>
      </trkpt>
      <trkpt lat="42.5448160" lon="-8.9131030">
        <ele>2.4</ele>
        <time>2020-08-07T14:28:20Z</time>
      </trkpt>
      <trkpt lat="42.5448160" lon="-8.9131030">
        <ele>2.6</ele>
        <time>2020-08-07T14:28:21Z</time>
      </trkpt>
      <trkpt lat="42.5448030" lon="-8.9131230">
        <ele>2.6</ele>
        <time>2020-08-07T14:28:22Z</time>
      </trkpt>
      <trkpt lat="42.5448030" lon="-8.9131230">
        <ele>2.6</ele>
        <time>2020-08-07T14:28:23Z</time>
      </trkpt>
      <trkpt lat="42.5448030" lon="-8.9131230">
        <ele>2.8</ele>
        <time>2020-08-07T14:28:24Z</time>
      </trkpt>
      <trkpt lat="42.5447970" lon="-8.9131540">
        <ele>2.6</ele>
        <time>2020-08-07T14:28:25Z</time>
      </trkpt>
      <trkpt lat="42.5447970" lon="-8.9131540">
        <ele>2.4</ele>
        <time>2020-08-07T14:28:26Z</time>
      </trkpt>
      <trkpt lat="42.5447970" lon="-8.9131540">
        <ele>2.2</ele>
        <time>2020-08-07T14:28:27Z</time>
      </trkpt>
      <trkpt lat="42.5447970" lon="-8.9131880">
        <ele>2.4</ele>
        <time>2020-08-07T14:28:28Z</time>
      </trkpt>
      <trkpt lat="42.5447970" lon="-8.9131880">
        <ele>2.4</ele>
        <time>2020-08-07T14:28:29Z</time>
      </trkpt>
      <trkpt lat="42.5447970" lon="-8.9132140">
        <ele>2.0</ele>
        <time>2020-08-07T14:28:30Z</time>
      </trkpt>
      <trkpt lat="42.5447970" lon="-8.9132140">
        <ele>1.8</ele>
        <time>2020-08-07T14:28:31Z</time>
      </trkpt>
      <trkpt lat="42.5447970" lon="-8.9132140">
        <ele>2.0</ele>
        <time>2020-08-07T14:28:32Z</time>
      </trkpt>
      <trkpt lat="42.5447970" lon="-8.9132470">
        <ele>2.0</ele>
        <time>2020-08-07T14:28:33Z</time>
      </trkpt>
      <trkpt lat="42.5447970" lon="-8.9132470">
        <ele>2.4</ele>
        <time>2020-08-07T14:28:34Z</time>
      </trkpt>
      <trkpt lat="42.5447970" lon="-8.9132470">
        <ele>2.6</ele>
        <time>2020-08-07T14:28:35Z</time>
      </trkpt>
      <trkpt lat="42.5448060" lon="-8.9132740">
        <ele>2.6</ele>
        <time>2020-08-07T14:28:36Z</time>
      </trkpt>
      <trkpt lat="42.5448060" lon="-8.9132740">
        <ele>2.6</ele>
        <time>2020-08-07T14:28:37Z</time>
      </trkpt>
      <trkpt lat="42.5448060" lon="-8.9132740">
        <ele>2.6</ele>
        <time>2020-08-07T14:28:38Z</time>
      </trkpt>
      <trkpt lat="42.5448060" lon="-8.9132740">
        <ele>2.4</ele>
        <time>2020-08-07T14:28:39Z</time>
      </trkpt>
      <trkpt lat="42.5448060" lon="-8.9132740">
        <ele>2.6</ele>
        <time>2020-08-07T14:28:40Z</time>
      </trkpt>
      <trkpt lat="42.5448060" lon="-8.9132740">
        <ele>2.6</ele>
        <time>2020-08-07T14:28:41Z</time>
      </trkpt>
      <trkpt lat="42.5448190" lon="-8.9132920">
        <ele>2.4</ele>
        <time>2020-08-07T14:28:42Z</time>
      </trkpt>
      <trkpt lat="42.5448190" lon="-8.9132920">
        <ele>2.2</ele>
        <time>2020-08-07T14:28:43Z</time>
      </trkpt>
      <trkpt lat="42.5448190" lon="-8.9132920">
        <ele>2.2</ele>
        <time>2020-08-07T14:28:44Z</time>
      </trkpt>
      <trkpt lat="42.5448420" lon="-8.9132730">
        <ele>2.4</ele>
        <time>2020-08-07T14:28:45Z</time>
      </trkpt>
      <trkpt lat="42.5448420" lon="-8.9132730">
        <ele>2.6</ele>
        <time>2020-08-07T14:28:46Z</time>
      </trkpt>
      <trkpt lat="42.5448580" lon="-8.9132580">
        <ele>2.2</ele>
        <time>2020-08-07T14:28:47Z</time>
      </trkpt>
      <trkpt lat="42.5448580" lon="-8.9132580">
        <ele>2.2</ele>
        <time>2020-08-07T14:28:48Z</time>
      </trkpt>
      <trkpt lat="42.5448800" lon="-8.9132460">
        <ele>2.4</ele>
        <time>2020-08-07T14:28:49Z</time>
      </trkpt>
      <trkpt lat="42.5448800" lon="-8.9132460">
        <ele>2.2</ele>
        <time>2020-08-07T14:28:50Z</time>
      </trkpt>
      <trkpt lat="42.5448990" lon="-8.9132340">
        <ele>2.2</ele>
        <time>2020-08-07T14:28:51Z</time>
      </trkpt>
      <trkpt lat="42.5448990" lon="-8.9132340">
        <ele>2.4</ele>
        <time>2020-08-07T14:28:52Z</time>
      </trkpt>
      <trkpt lat="42.5449250" lon="-8.9132340">
        <ele>2.4</ele>
        <time>2020-08-07T14:28:53Z</time>
      </trkpt>
      <trkpt lat="42.5449250" lon="-8.9132340">
        <ele>2.2</ele>
        <time>2020-08-07T14:28:54Z</time>
      </trkpt>
      <trkpt lat="42.5449470" lon="-8.9132320">
        <ele>2.0</ele>
        <time>2020-08-07T14:28:55Z</time>
      </trkpt>
      <trkpt lat="42.5449470" lon="-8.9132320">
        <ele>2.0</ele>
        <time>2020-08-07T14:28:56Z</time>
      </trkpt>
      <trkpt lat="42.5449730" lon="-8.9132370">
        <ele>2.2</ele>
        <time>2020-08-07T14:28:57Z</time>
      </trkpt>
      <trkpt lat="42.5449730" lon="-8.9132370">
        <ele>2.2</ele>
        <time>2020-08-07T14:28:58Z</time>
      </trkpt>
      <trkpt lat="42.5449950" lon="-8.9132430">
        <ele>2.0</ele>
        <time>2020-08-07T14:28:59Z</time>
      </trkpt>
      <trkpt lat="42.5449950" lon="-8.9132430">
        <ele>1.8</ele>
        <time>2020-08-07T14:29:00Z</time>
      </trkpt>
      <trkpt lat="42.5450180" lon="-8.9132520">
        <ele>1.8</ele>
        <time>2020-08-07T14:29:01Z</time>
      </trkpt>
      <trkpt lat="42.5450180" lon="-8.9132520">
        <ele>1.8</ele>
        <time>2020-08-07T14:29:02Z</time>
      </trkpt>
      <trkpt lat="42.5450400" lon="-8.9132590">
        <ele>1.6</ele>
        <time>2020-08-07T14:29:03Z</time>
      </trkpt>
      <trkpt lat="42.5450400" lon="-8.9132590">
        <ele>1.4</ele>
        <time>2020-08-07T14:29:04Z</time>
      </trkpt>
      <trkpt lat="42.5450590" lon="-8.9132770">
        <ele>1.0</ele>
        <time>2020-08-07T14:29:05Z</time>
      </trkpt>
      <trkpt lat="42.5450590" lon="-8.9132770">
        <ele>1.0</ele>
        <time>2020-08-07T14:29:06Z</time>
      </trkpt>
      <trkpt lat="42.5450750" lon="-8.9132940">
        <ele>0.8</ele>
        <time>2020-08-07T14:29:07Z</time>
      </trkpt>
      <trkpt lat="42.5450750" lon="-8.9132940">
        <ele>0.8</ele>
        <time>2020-08-07T14:29:08Z</time>
      </trkpt>
      <trkpt lat="42.5450910" lon="-8.9133190">
        <ele>0.8</ele>
        <time>2020-08-07T14:29:09Z</time>
      </trkpt>
      <trkpt lat="42.5450910" lon="-8.9133190">
        <ele>1.0</ele>
        <time>2020-08-07T14:29:10Z</time>
      </trkpt>
      <trkpt lat="42.5451040" lon="-8.9133460">
        <ele>1.0</ele>
        <time>2020-08-07T14:29:11Z</time>
      </trkpt>
      <trkpt lat="42.5451040" lon="-8.9133460">
        <ele>0.8</ele>
        <time>2020-08-07T14:29:12Z</time>
      </trkpt>
      <trkpt lat="42.5451200" lon="-8.9133660">
        <ele>1.2</ele>
        <time>2020-08-07T14:29:13Z</time>
      </trkpt>
      <trkpt lat="42.5451200" lon="-8.9133660">
        <ele>1.2</ele>
        <time>2020-08-07T14:29:14Z</time>
      </trkpt>
      <trkpt lat="42.5451420" lon="-8.9133820">
        <ele>0.8</ele>
        <time>2020-08-07T14:29:15Z</time>
      </trkpt>
      <trkpt lat="42.5451420" lon="-8.9133820">
        <ele>0.4</ele>
        <time>2020-08-07T14:29:16Z</time>
      </trkpt>
      <trkpt lat="42.5451580" lon="-8.9133950">
        <ele>0.8</ele>
        <time>2020-08-07T14:29:17Z</time>
      </trkpt>
      <trkpt lat="42.5451580" lon="-8.9133950">
        <ele>0.8</ele>
        <time>2020-08-07T14:29:18Z</time>
      </trkpt>
      <trkpt lat="42.5451780" lon="-8.9134120">
        <ele>0.4</ele>
        <time>2020-08-07T14:29:19Z</time>
      </trkpt>
      <trkpt lat="42.5451780" lon="-8.9134160">
        <ele>0.4</ele>
        <time>2020-08-07T14:35:42Z</time>
      </trkpt>
      <trkpt lat="42.5451780" lon="-8.9134200">
        <ele>4.4</ele>
        <time>2020-08-07T14:35:43Z</time>
      </trkpt>
      <trkpt lat="42.5451780" lon="-8.9134240">
        <ele>4.2</ele>
        <time>2020-08-07T14:35:44Z</time>
      </trkpt>
      <trkpt lat="42.5451780" lon="-8.9134270">
        <ele>4.2</ele>
        <time>2020-08-07T14:35:45Z</time>
      </trkpt>
      <trkpt lat="42.5451780" lon="-8.9134310">
        <ele>4.0</ele>
        <time>2020-08-07T14:35:46Z</time>
      </trkpt>
      <trkpt lat="42.5451780" lon="-8.9134350">
        <ele>4.0</ele>
        <time>2020-08-07T14:35:47Z</time>
      </trkpt>
      <trkpt lat="42.5451780" lon="-8.9134390">
        <ele>4.0</ele>
        <time>2020-08-07T14:35:48Z</time>
      </trkpt>
      <trkpt lat="42.5451780" lon="-8.9134430">
        <ele>4.0</ele>
        <time>2020-08-07T14:35:49Z</time>
      </trkpt>
      <trkpt lat="42.5451780" lon="-8.9134470">
        <ele>3.8</ele>
        <time>2020-08-07T14:35:50Z</time>
      </trkpt>
      <trkpt lat="42.5451780" lon="-8.9134510">
        <ele>3.8</ele>
        <time>2020-08-07T14:35:51Z</time>
      </trkpt>
      <trkpt lat="42.5451780" lon="-8.9134540">
        <ele>3.8</ele>
        <time>2020-08-07T14:35:52Z</time>
      </trkpt>
      <trkpt lat="42.5451780" lon="-8.9134580">
        <ele>3.8</ele>
        <time>2020-08-07T14:35:53Z</time>
      </trkpt>
      <trkpt lat="42.5451780" lon="-8.9134620">
        <ele>3.8</ele>
        <time>2020-08-07T14:35:54Z</time>
      </trkpt>
      <trkpt lat="42.5451780" lon="-8.9134660">
        <ele>3.6</ele>
        <time>2020-08-07T14:35:55Z</time>
      </trkpt>
      <trkpt lat="42.5451780" lon="-8.9134660">
        <ele>3.6</ele>
        <time>2020-08-07T14:35:56Z</time>
      </trkpt>
      <trkpt lat="42.5451740" lon="-8.9134260">
        <ele>3.8</ele>
        <time>2020-08-07T14:35:57Z</time>
      </trkpt>
      <trkpt lat="42.5451740" lon="-8.9134260">
        <ele>3.8</ele>
        <time>2020-08-07T14:35:58Z</time>
      </trkpt>
      <trkpt lat="42.5451710" lon="-8.9133920">
        <ele>3.6</ele>
        <time>2020-08-07T14:35:59Z</time>
      </trkpt>
      <trkpt lat="42.5451710" lon="-8.9133920">
        <ele>3.6</ele>
        <time>2020-08-07T14:36:00Z</time>
      </trkpt>
      <trkpt lat="42.5451740" lon="-8.9133480">
        <ele>3.8</ele>
        <time>2020-08-07T14:36:01Z</time>
      </trkpt>
      <trkpt lat="42.5451740" lon="-8.9133230">
        <ele>3.4</ele>
        <time>2020-08-07T14:36:02Z</time>
      </trkpt>
      <trkpt lat="42.5451740" lon="-8.9133230">
        <ele>3.6</ele>
        <time>2020-08-07T14:36:03Z</time>
      </trkpt>
      <trkpt lat="42.5451710" lon="-8.9132740">
        <ele>3.4</ele>
        <time>2020-08-07T14:36:04Z</time>
      </trkpt>
      <trkpt lat="42.5451710" lon="-8.9132740">
        <ele>3.4</ele>
        <time>2020-08-07T14:36:05Z</time>
      </trkpt>
      <trkpt lat="42.5451650" lon="-8.9132420">
        <ele>3.0</ele>
        <time>2020-08-07T14:36:06Z</time>
      </trkpt>
      <trkpt lat="42.5451650" lon="-8.9132420">
        <ele>2.8</ele>
        <time>2020-08-07T14:36:07Z</time>
      </trkpt>
      <trkpt lat="42.5451580" lon="-8.9132120">
        <ele>2.6</ele>
        <time>2020-08-07T14:36:08Z</time>
      </trkpt>
      <trkpt lat="42.5451580" lon="-8.9132120">
        <ele>2.0</ele>
        <time>2020-08-07T14:36:09Z</time>
      </trkpt>
      <trkpt lat="42.5451460" lon="-8.9131820">
        <ele>1.8</ele>
        <time>2020-08-07T14:36:10Z</time>
      </trkpt>
      <trkpt lat="42.5451460" lon="-8.9131820">
        <ele>1.6</ele>
        <time>2020-08-07T14:36:11Z</time>
      </trkpt>
      <trkpt lat="42.5451330" lon="-8.9131580">
        <ele>1.6</ele>
        <time>2020-08-07T14:36:12Z</time>
      </trkpt>
      <trkpt lat="42.5451330" lon="-8.9131580">
        <ele>1.4</ele>
        <time>2020-08-07T14:36:13Z</time>
      </trkpt>
      <trkpt lat="42.5451170" lon="-8.9131420">
        <ele>1.2</ele>
        <time>2020-08-07T14:36:14Z</time>
      </trkpt>
      <trkpt lat="42.5451170" lon="-8.9131420">
        <ele>1.6</ele>
        <time>2020-08-07T14:36:15Z</time>
      </trkpt>
      <trkpt lat="42.5450980" lon="-8.9131280">
        <ele>1.6</ele>
        <time>2020-08-07T14:36:16Z</time>
      </trkpt>
      <trkpt lat="42.5450980" lon="-8.9131280">
        <ele>1.6</ele>
        <time>2020-08-07T14:36:17Z</time>
      </trkpt>
      <trkpt lat="42.5450780" lon="-8.9131180">
        <ele>1.6</ele>
        <time>2020-08-07T14:36:18Z</time>
      </trkpt>
      <trkpt lat="42.5450780" lon="-8.9131180">
        <ele>1.4</ele>
        <time>2020-08-07T14:36:19Z</time>
      </trkpt>
      <trkpt lat="42.5450590" lon="-8.9131120">
        <ele>1.4</ele>
        <time>2020-08-07T14:36:20Z</time>
      </trkpt>
      <trkpt lat="42.5450590" lon="-8.9131120">
        <ele>1.2</ele>
        <time>2020-08-07T14:36:21Z</time>
      </trkpt>
      <trkpt lat="42.5450400" lon="-8.9131050">
        <ele>1.4</ele>
        <time>2020-08-07T14:36:22Z</time>
      </trkpt>
      <trkpt lat="42.5450400" lon="-8.9131050">
        <ele>1.6</ele>
        <time>2020-08-07T14:36:23Z</time>
      </trkpt>
      <trkpt lat="42.5450400" lon="-8.9131050">
        <ele>1.6</ele>
        <time>2020-08-07T14:36:24Z</time>
      </trkpt>
      <trkpt lat="42.5450140" lon="-8.9131030">
        <ele>1.4</ele>
        <time>2020-08-07T14:36:25Z</time>
      </trkpt>
      <trkpt lat="42.5450140" lon="-8.9131030">
        <ele>1.4</ele>
        <time>2020-08-07T14:36:26Z</time>
      </trkpt>
      <trkpt lat="42.5450140" lon="-8.9131030">
        <ele>1.2</ele>
        <time>2020-08-07T14:36:27Z</time>
      </trkpt>
      <trkpt lat="42.5449860" lon="-8.9131000">
        <ele>1.4</ele>
        <time>2020-08-07T14:36:28Z</time>
      </trkpt>
      <trkpt lat="42.5449860" lon="-8.9131000">
        <ele>1.4</ele>
        <time>2020-08-07T14:36:29Z</time>
      </trkpt>
      <trkpt lat="42.5449660" lon="-8.9130980">
        <ele>1.4</ele>
        <time>2020-08-07T14:36:30Z</time>
      </trkpt>
      <trkpt lat="42.5449660" lon="-8.9130980">
        <ele>1.4</ele>
        <time>2020-08-07T14:36:31Z</time>
      </trkpt>
      <trkpt lat="42.5449440" lon="-8.9130940">
        <ele>1.4</ele>
        <time>2020-08-07T14:36:32Z</time>
      </trkpt>
      <trkpt lat="42.5449440" lon="-8.9130940">
        <ele>1.0</ele>
        <time>2020-08-07T14:36:33Z</time>
      </trkpt>
      <trkpt lat="42.5449440" lon="-8.9130940">
        <ele>1.0</ele>
        <time>2020-08-07T14:36:34Z</time>
      </trkpt>
      <trkpt lat="42.5449180" lon="-8.9130800">
        <ele>0.6</ele>
        <time>2020-08-07T14:36:35Z</time>
      </trkpt>
      <trkpt lat="42.5449180" lon="-8.9130800">
        <ele>0.8</ele>
        <time>2020-08-07T14:36:36Z</time>
      </trkpt>
      <trkpt lat="42.5448960" lon="-8.9130740">
        <ele>1.6</ele>
        <time>2020-08-07T14:36:37Z</time>
      </trkpt>
      <trkpt lat="42.5448960" lon="-8.9130740">
        <ele>2.2</ele>
        <time>2020-08-07T14:36:38Z</time>
      </trkpt>
      <trkpt lat="42.5448640" lon="-8.9130630">
        <ele>2.2</ele>
        <time>2020-08-07T14:36:39Z</time>
      </trkpt>
      <trkpt lat="42.5448640" lon="-8.9130630">
        <ele>2.2</ele>
        <time>2020-08-07T14:36:40Z</time>
      </trkpt>
      <trkpt lat="42.5448420" lon="-8.9130500">
        <ele>2.4</ele>
        <time>2020-08-07T14:36:41Z</time>
      </trkpt>
      <trkpt lat="42.5448420" lon="-8.9130500">
        <ele>2.2</ele>
        <time>2020-08-07T14:36:42Z</time>
      </trkpt>
      <trkpt lat="42.5448220" lon="-8.9130350">
        <ele>2.4</ele>
        <time>2020-08-07T14:36:43Z</time>
      </trkpt>
      <trkpt lat="42.5448220" lon="-8.9130350">
        <ele>2.4</ele>
        <time>2020-08-07T14:36:44Z</time>
      </trkpt>
      <trkpt lat="42.5448000" lon="-8.9130230">
        <ele>2.6</ele>
        <time>2020-08-07T14:36:45Z</time>
      </trkpt>
      <trkpt lat="42.5448000" lon="-8.9130230">
        <ele>2.6</ele>
        <time>2020-08-07T14:36:46Z</time>
      </trkpt>
      <trkpt lat="42.5447780" lon="-8.9130100">
        <ele>3.0</ele>
        <time>2020-08-07T14:36:47Z</time>
      </trkpt>
      <trkpt lat="42.5447780" lon="-8.9130100">
        <ele>3.0</ele>
        <time>2020-08-07T14:36:48Z</time>
      </trkpt>
      <trkpt lat="42.5447580" lon="-8.9129940">
        <ele>3.0</ele>
        <time>2020-08-07T14:36:49Z</time>
      </trkpt>
      <trkpt lat="42.5447580" lon="-8.9129940">
        <ele>3.2</ele>
        <time>2020-08-07T14:36:50Z</time>
      </trkpt>
      <trkpt lat="42.5447360" lon="-8.9129760">
        <ele>3.2</ele>
        <time>2020-08-07T14:36:51Z</time>
      </trkpt>
      <trkpt lat="42.5447360" lon="-8.9129760">
        <ele>3.2</ele>
        <time>2020-08-07T14:36:52Z</time>
      </trkpt>
      <trkpt lat="42.5447140" lon="-8.9129550">
        <ele>3.0</ele>
        <time>2020-08-07T14:36:53Z</time>
      </trkpt>
      <trkpt lat="42.5447140" lon="-8.9129550">
        <ele>3.2</ele>
        <time>2020-08-07T14:36:54Z</time>
      </trkpt>
      <trkpt lat="42.5446940" lon="-8.9129350">
        <ele>3.0</ele>
        <time>2020-08-07T14:36:55Z</time>
      </trkpt>
      <trkpt lat="42.5446940" lon="-8.9129350">
        <ele>3.0</ele>
        <time>2020-08-07T14:36:56Z</time>
      </trkpt>
      <trkpt lat="42.5446690" lon="-8.9129180">
        <ele>3.4</ele>
        <time>2020-08-07T14:36:57Z</time>
      </trkpt>
      <trkpt lat="42.5446690" lon="-8.9129180">
        <ele>3.4</ele>
        <time>2020-08-07T14:36:58Z</time>
      </trkpt>
      <trkpt lat="42.5446560" lon="-8.9128970">
        <ele>3.2</ele>
        <time>2020-08-07T14:36:59Z</time>
      </trkpt>
      <trkpt lat="42.5446560" lon="-8.9128970">
        <ele>2.8</ele>
        <time>2020-08-07T14:37:00Z</time>
      </trkpt>
      <trkpt lat="42.5446370" lon="-8.9128710">
        <ele>2.2</ele>
        <time>2020-08-07T14:37:01Z</time>
      </trkpt>
      <trkpt lat="42.5446370" lon="-8.9128710">
        <ele>2.2</ele>
        <time>2020-08-07T14:37:02Z</time>
      </trkpt>
      <trkpt lat="42.5446180" lon="-8.9128550">
        <ele>2.4</ele>
        <time>2020-08-07T14:37:03Z</time>
      </trkpt>
      <trkpt lat="42.5446180" lon="-8.9128550">
        <ele>2.2</ele>
        <time>2020-08-07T14:37:04Z</time>
      </trkpt>
      <trkpt lat="42.5445950" lon="-8.9128300">
        <ele>1.8</ele>
        <time>2020-08-07T14:37:05Z</time>
      </trkpt>
      <trkpt lat="42.5445950" lon="-8.9128300">
        <ele>1.4</ele>
        <time>2020-08-07T14:37:06Z</time>
      </trkpt>
      <trkpt lat="42.5445790" lon="-8.9128040">
        <ele>1.0</ele>
        <time>2020-08-07T14:37:07Z</time>
      </trkpt>
      <trkpt lat="42.5445790" lon="-8.9128040">
        <ele>0.8</ele>
        <time>2020-08-07T14:37:08Z</time>
      </trkpt>
      <trkpt lat="42.5445660" lon="-8.9127800">
        <ele>0.8</ele>
        <time>2020-08-07T14:37:09Z</time>
      </trkpt>
      <trkpt lat="42.5445660" lon="-8.9127800">
        <ele>0.6</ele>
        <time>2020-08-07T14:37:10Z</time>
      </trkpt>
      <trkpt lat="42.5445500" lon="-8.9127520">
        <ele>0.8</ele>
        <time>2020-08-07T14:37:11Z</time>
      </trkpt>
      <trkpt lat="42.5445500" lon="-8.9127520">
        <ele>0.6</ele>
        <time>2020-08-07T14:37:12Z</time>
      </trkpt>
      <trkpt lat="42.5445310" lon="-8.9127260">
        <ele>0.4</ele>
        <time>2020-08-07T14:37:13Z</time>
      </trkpt>
      <trkpt lat="42.5445310" lon="-8.9127260">
        <ele>0.4</ele>
        <time>2020-08-07T14:37:14Z</time>
      </trkpt>
      <trkpt lat="42.5445090" lon="-8.9127020">
        <ele>0.8</ele>
        <time>2020-08-07T14:37:15Z</time>
      </trkpt>
      <trkpt lat="42.5445090" lon="-8.9127020">
        <ele>1.0</ele>
        <time>2020-08-07T14:37:16Z</time>
      </trkpt>
      <trkpt lat="42.5444900" lon="-8.9126860">
        <ele>0.8</ele>
        <time>2020-08-07T14:37:17Z</time>
      </trkpt>
      <trkpt lat="42.5444900" lon="-8.9126860">
        <ele>0.4</ele>
        <time>2020-08-07T14:37:18Z</time>
      </trkpt>
      <trkpt lat="42.5444640" lon="-8.9126830">
        <ele>0.4</ele>
        <time>2020-08-07T14:37:19Z</time>
      </trkpt>
      <trkpt lat="42.5444640" lon="-8.9126830">
        <ele>0.4</ele>
        <time>2020-08-07T14:37:20Z</time>
      </trkpt>
      <trkpt lat="42.5444420" lon="-8.9126860">
        <ele>0.4</ele>
        <time>2020-08-07T14:37:21Z</time>
      </trkpt>
      <trkpt lat="42.5444420" lon="-8.9126860">
        <ele>0.2</ele>
        <time>2020-08-07T14:37:22Z</time>
      </trkpt>
      <trkpt lat="42.5444220" lon="-8.9126930">
        <ele>0.2</ele>
        <time>2020-08-07T14:37:23Z</time>
      </trkpt>
      <trkpt lat="42.5444220" lon="-8.9126930">
        <ele>0.2</ele>
        <time>2020-08-07T14:37:24Z</time>
      </trkpt>
      <trkpt lat="42.5444030" lon="-8.9127080">
        <ele>0.2</ele>
        <time>2020-08-07T14:37:25Z</time>
      </trkpt>
      <trkpt lat="42.5444030" lon="-8.9127080">
        <ele>0.4</ele>
        <time>2020-08-07T14:37:26Z</time>
      </trkpt>
      <trkpt lat="42.5443810" lon="-8.9127200">
        <ele>0.0</ele>
        <time>2020-08-07T14:37:27Z</time>
      </trkpt>
      <trkpt lat="42.5443810" lon="-8.9127200">
        <ele>0.2</ele>
        <time>2020-08-07T14:37:28Z</time>
      </trkpt>
      <trkpt lat="42.5443620" lon="-8.9127300">
        <ele>0.8</ele>
        <time>2020-08-07T14:37:29Z</time>
      </trkpt>
      <trkpt lat="42.5443620" lon="-8.9127300">
        <ele>1.0</ele>
        <time>2020-08-07T14:37:30Z</time>
      </trkpt>
      <trkpt lat="42.5443420" lon="-8.9127430">
        <ele>1.2</ele>
        <time>2020-08-07T14:37:31Z</time>
      </trkpt>
      <trkpt lat="42.5443420" lon="-8.9127430">
        <ele>1.2</ele>
        <time>2020-08-07T14:37:32Z</time>
      </trkpt>
      <trkpt lat="42.5443230" lon="-8.9127520">
        <ele>1.6</ele>
        <time>2020-08-07T14:37:33Z</time>
      </trkpt>
      <trkpt lat="42.5443230" lon="-8.9127520">
        <ele>2.0</ele>
        <time>2020-08-07T14:37:34Z</time>
      </trkpt>
      <trkpt lat="42.5443010" lon="-8.9127600">
        <ele>2.2</ele>
        <time>2020-08-07T14:37:35Z</time>
      </trkpt>
      <trkpt lat="42.5443010" lon="-8.9127600">
        <ele>2.4</ele>
        <time>2020-08-07T14:37:36Z</time>
      </trkpt>
      <trkpt lat="42.5442850" lon="-8.9127730">
        <ele>2.8</ele>
        <time>2020-08-07T14:37:37Z</time>
      </trkpt>
      <trkpt lat="42.5442850" lon="-8.9127730">
        <ele>2.8</ele>
        <time>2020-08-07T14:37:38Z</time>
      </trkpt>
      <trkpt lat="42.5442690" lon="-8.9127840">
        <ele>2.8</ele>
        <time>2020-08-07T14:37:39Z</time>
      </trkpt>
      <trkpt lat="42.5442690" lon="-8.9127840">
        <ele>2.4</ele>
        <time>2020-08-07T14:37:40Z</time>
      </trkpt>
      <trkpt lat="42.5442500" lon="-8.9127970">
        <ele>2.2</ele>
        <time>2020-08-07T14:37:41Z</time>
      </trkpt>
      <trkpt lat="42.5442500" lon="-8.9127970">
        <ele>2.2</ele>
        <time>2020-08-07T14:37:42Z</time>
      </trkpt>
      <trkpt lat="42.5442500" lon="-8.9127970">
        <ele>2.0</ele>
        <time>2020-08-07T14:37:43Z</time>
      </trkpt>
      <trkpt lat="42.5442270" lon="-8.9128110">
        <ele>1.8</ele>
        <time>2020-08-07T14:37:44Z</time>
      </trkpt>
      <trkpt lat="42.5442270" lon="-8.9128110">
        <ele>1.8</ele>
        <time>2020-08-07T14:37:45Z</time>
      </trkpt>
      <trkpt lat="42.5442270" lon="-8.9128110">
        <ele>1.6</ele>
        <time>2020-08-07T14:37:46Z</time>
      </trkpt>
      <trkpt lat="42.5442080" lon="-8.9128150">
        <ele>1.8</ele>
        <time>2020-08-07T14:37:47Z</time>
      </trkpt>
      <trkpt lat="42.5442080" lon="-8.9128150">
        <ele>1.6</ele>
        <time>2020-08-07T14:37:48Z</time>
      </trkpt>
      <trkpt lat="42.5441890" lon="-8.9128100">
        <ele>2.0</ele>
        <time>2020-08-07T14:37:49Z</time>
      </trkpt>
      <trkpt lat="42.5441890" lon="-8.9128100">
        <ele>2.0</ele>
        <time>2020-08-07T14:37:50Z</time>
      </trkpt>
      <trkpt lat="42.5441660" lon="-8.9127970">
        <ele>2.4</ele>
        <time>2020-08-07T14:37:51Z</time>
      </trkpt>
      <trkpt lat="42.5441660" lon="-8.9127970">
        <ele>2.4</ele>
        <time>2020-08-07T14:37:52Z</time>
      </trkpt>
      <trkpt lat="42.5441500" lon="-8.9127800">
        <ele>2.2</ele>
        <time>2020-08-07T14:37:53Z</time>
      </trkpt>
      <trkpt lat="42.5441500" lon="-8.9127800">
        <ele>2.0</ele>
        <time>2020-08-07T14:37:54Z</time>
      </trkpt>
      <trkpt lat="42.5441380" lon="-8.9127600">
        <ele>1.8</ele>
        <time>2020-08-07T14:37:55Z</time>
      </trkpt>
      <trkpt lat="42.5441380" lon="-8.9127600">
        <ele>1.8</ele>
        <time>2020-08-07T14:37:56Z</time>
      </trkpt>
      <trkpt lat="42.5441220" lon="-8.9127430">
        <ele>1.4</ele>
        <time>2020-08-07T14:37:57Z</time>
      </trkpt>
      <trkpt lat="42.5441220" lon="-8.9127430">
        <ele>1.2</ele>
        <time>2020-08-07T14:37:58Z</time>
      </trkpt>
      <trkpt lat="42.5441020" lon="-8.9127280">
        <ele>1.0</ele>
        <time>2020-08-07T14:37:59Z</time>
      </trkpt>
      <trkpt lat="42.5441020" lon="-8.9127280">
        <ele>0.8</ele>
        <time>2020-08-07T14:38:00Z</time>
      </trkpt>
      <trkpt lat="42.5440800" lon="-8.9127150">
        <ele>1.2</ele>
        <time>2020-08-07T14:38:01Z</time>
      </trkpt>
      <trkpt lat="42.5440800" lon="-8.9127150">
        <ele>1.4</ele>
        <time>2020-08-07T14:38:02Z</time>
      </trkpt>
      <trkpt lat="42.5440540" lon="-8.9127030">
        <ele>1.8</ele>
        <time>2020-08-07T14:38:03Z</time>
      </trkpt>
      <trkpt lat="42.5440540" lon="-8.9127030">
        <ele>2.0</ele>
        <time>2020-08-07T14:38:04Z</time>
      </trkpt>
      <trkpt lat="42.5440380" lon="-8.9126880">
        <ele>1.8</ele>
        <time>2020-08-07T14:38:05Z</time>
      </trkpt>
      <trkpt lat="42.5440380" lon="-8.9126880">
        <ele>1.8</ele>
        <time>2020-08-07T14:38:06Z</time>
      </trkpt>
      <trkpt lat="42.5440220" lon="-8.9126660">
        <ele>1.6</ele>
        <time>2020-08-07T14:38:07Z</time>
      </trkpt>
      <trkpt lat="42.5440220" lon="-8.9126660">
        <ele>1.4</ele>
        <time>2020-08-07T14:38:08Z</time>
      </trkpt>
      <trkpt lat="42.5440000" lon="-8.9126460">
        <ele>1.4</ele>
        <time>2020-08-07T14:38:09Z</time>
      </trkpt>
      <trkpt lat="42.5440000" lon="-8.9126460">
        <ele>1.4</ele>
        <time>2020-08-07T14:38:10Z</time>
      </trkpt>
      <trkpt lat="42.5439840" lon="-8.9126130">
        <ele>1.4</ele>
        <time>2020-08-07T14:38:11Z</time>
      </trkpt>
      <trkpt lat="42.5439840" lon="-8.9126130">
        <ele>1.2</ele>
        <time>2020-08-07T14:38:12Z</time>
      </trkpt>
      <trkpt lat="42.5439680" lon="-8.9125820">
        <ele>1.2</ele>
        <time>2020-08-07T14:38:13Z</time>
      </trkpt>
      <trkpt lat="42.5439680" lon="-8.9125820">
        <ele>0.8</ele>
        <time>2020-08-07T14:38:14Z</time>
      </trkpt>
      <trkpt lat="42.5439490" lon="-8.9125540">
        <ele>0.8</ele>
        <time>2020-08-07T14:38:15Z</time>
      </trkpt>
      <trkpt lat="42.5439490" lon="-8.9125540">
        <ele>0.8</ele>
        <time>2020-08-07T14:38:16Z</time>
      </trkpt>
      <trkpt lat="42.5439300" lon="-8.9125270">
        <ele>1.0</ele>
        <time>2020-08-07T14:38:17Z</time>
      </trkpt>
      <trkpt lat="42.5439300" lon="-8.9125270">
        <ele>1.2</ele>
        <time>2020-08-07T14:38:18Z</time>
      </trkpt>
      <trkpt lat="42.5439200" lon="-8.9124940">
        <ele>1.2</ele>
        <time>2020-08-07T14:38:19Z</time>
      </trkpt>
      <trkpt lat="42.5439200" lon="-8.9124940">
        <ele>1.2</ele>
        <time>2020-08-07T14:38:20Z</time>
      </trkpt>
      <trkpt lat="42.5439040" lon="-8.9124570">
        <ele>1.0</ele>
        <time>2020-08-07T14:38:21Z</time>
      </trkpt>
      <trkpt lat="42.5439040" lon="-8.9124570">
        <ele>1.2</ele>
        <time>2020-08-07T14:38:22Z</time>
      </trkpt>
      <trkpt lat="42.5438880" lon="-8.9124250">
        <ele>1.2</ele>
        <time>2020-08-07T14:38:23Z</time>
      </trkpt>
      <trkpt lat="42.5438880" lon="-8.9124250">
        <ele>1.2</ele>
        <time>2020-08-07T14:38:24Z</time>
      </trkpt>
      <trkpt lat="42.5438720" lon="-8.9124000">
        <ele>1.0</ele>
        <time>2020-08-07T14:38:25Z</time>
      </trkpt>
      <trkpt lat="42.5438720" lon="-8.9124000">
        <ele>0.6</ele>
        <time>2020-08-07T14:38:26Z</time>
      </trkpt>
      <trkpt lat="42.5438500" lon="-8.9123700">
        <ele>0.6</ele>
        <time>2020-08-07T14:38:27Z</time>
      </trkpt>
      <trkpt lat="42.5438500" lon="-8.9123700">
        <ele>0.8</ele>
        <time>2020-08-07T14:38:28Z</time>
      </trkpt>
      <trkpt lat="42.5438300" lon="-8.9123430">
        <ele>1.0</ele>
        <time>2020-08-07T14:38:29Z</time>
      </trkpt>
      <trkpt lat="42.5438300" lon="-8.9123430">
        <ele>1.2</ele>
        <time>2020-08-07T14:38:30Z</time>
      </trkpt>
      <trkpt lat="42.5438140" lon="-8.9123140">
        <ele>1.0</ele>
        <time>2020-08-07T14:38:31Z</time>
      </trkpt>
      <trkpt lat="42.5438140" lon="-8.9123140">
        <ele>1.0</ele>
        <time>2020-08-07T14:38:32Z</time>
      </trkpt>
      <trkpt lat="42.5438020" lon="-8.9122800">
        <ele>1.0</ele>
        <time>2020-08-07T14:38:33Z</time>
      </trkpt>
      <trkpt lat="42.5438020" lon="-8.9122800">
        <ele>1.2</ele>
        <time>2020-08-07T14:38:34Z</time>
      </trkpt>
      <trkpt lat="42.5437860" lon="-8.9122450">
        <ele>1.2</ele>
        <time>2020-08-07T14:38:35Z</time>
      </trkpt>
      <trkpt lat="42.5437860" lon="-8.9122450">
        <ele>1.0</ele>
        <time>2020-08-07T14:38:36Z</time>
      </trkpt>
      <trkpt lat="42.5437760" lon="-8.9122030">
        <ele>1.4</ele>
        <time>2020-08-07T14:38:37Z</time>
      </trkpt>
      <trkpt lat="42.5437760" lon="-8.9122030">
        <ele>1.6</ele>
        <time>2020-08-07T14:38:38Z</time>
      </trkpt>
      <trkpt lat="42.5437660" lon="-8.9121640">
        <ele>1.8</ele>
        <time>2020-08-07T14:38:39Z</time>
      </trkpt>
      <trkpt lat="42.5437660" lon="-8.9121640">
        <ele>1.8</ele>
        <time>2020-08-07T14:38:40Z</time>
      </trkpt>
      <trkpt lat="42.5437540" lon="-8.9121220">
        <ele>2.2</ele>
        <time>2020-08-07T14:38:41Z</time>
      </trkpt>
      <trkpt lat="42.5437540" lon="-8.9121220">
        <ele>2.0</ele>
        <time>2020-08-07T14:38:42Z</time>
      </trkpt>
      <trkpt lat="42.5437440" lon="-8.9120820">
        <ele>2.4</ele>
        <time>2020-08-07T14:38:43Z</time>
      </trkpt>
      <trkpt lat="42.5437440" lon="-8.9120820">
        <ele>2.2</ele>
        <time>2020-08-07T14:38:44Z</time>
      </trkpt>
      <trkpt lat="42.5437310" lon="-8.9120450">
        <ele>2.2</ele>
        <time>2020-08-07T14:38:45Z</time>
      </trkpt>
      <trkpt lat="42.5437310" lon="-8.9120450">
        <ele>2.4</ele>
        <time>2020-08-07T14:38:46Z</time>
      </trkpt>
      <trkpt lat="42.5437220" lon="-8.9120080">
        <ele>2.2</ele>
        <time>2020-08-07T14:38:47Z</time>
      </trkpt>
      <trkpt lat="42.5437220" lon="-8.9120080">
        <ele>2.2</ele>
        <time>2020-08-07T14:38:48Z</time>
      </trkpt>
      <trkpt lat="42.5437090" lon="-8.9119730">
        <ele>2.2</ele>
        <time>2020-08-07T14:38:49Z</time>
      </trkpt>
      <trkpt lat="42.5437090" lon="-8.9119730">
        <ele>2.4</ele>
        <time>2020-08-07T14:38:50Z</time>
      </trkpt>
      <trkpt lat="42.5437020" lon="-8.9119350">
        <ele>2.6</ele>
        <time>2020-08-07T14:38:51Z</time>
      </trkpt>
      <trkpt lat="42.5437020" lon="-8.9119350">
        <ele>2.6</ele>
        <time>2020-08-07T14:38:52Z</time>
      </trkpt>
      <trkpt lat="42.5436930" lon="-8.9118970">
        <ele>2.8</ele>
        <time>2020-08-07T14:38:53Z</time>
      </trkpt>
      <trkpt lat="42.5436930" lon="-8.9118970">
        <ele>2.8</ele>
        <time>2020-08-07T14:38:54Z</time>
      </trkpt>
      <trkpt lat="42.5436860" lon="-8.9118570">
        <ele>2.8</ele>
        <time>2020-08-07T14:38:55Z</time>
      </trkpt>
      <trkpt lat="42.5436860" lon="-8.9118570">
        <ele>2.8</ele>
        <time>2020-08-07T14:38:56Z</time>
      </trkpt>
      <trkpt lat="42.5436770" lon="-8.9118140">
        <ele>2.8</ele>
        <time>2020-08-07T14:38:57Z</time>
      </trkpt>
      <trkpt lat="42.5436770" lon="-8.9118140">
        <ele>3.0</ele>
        <time>2020-08-07T14:38:58Z</time>
      </trkpt>
      <trkpt lat="42.5436670" lon="-8.9117780">
        <ele>3.0</ele>
        <time>2020-08-07T14:38:59Z</time>
      </trkpt>
      <trkpt lat="42.5436670" lon="-8.9117780">
        <ele>3.0</ele>
        <time>2020-08-07T14:39:00Z</time>
      </trkpt>
      <trkpt lat="42.5436510" lon="-8.9117400">
        <ele>2.8</ele>
        <time>2020-08-07T14:39:01Z</time>
      </trkpt>
      <trkpt lat="42.5436510" lon="-8.9117400">
        <ele>2.8</ele>
        <time>2020-08-07T14:39:02Z</time>
      </trkpt>
      <trkpt lat="42.5436480" lon="-8.9116970">
        <ele>2.4</ele>
        <time>2020-08-07T14:39:03Z</time>
      </trkpt>
      <trkpt lat="42.5436480" lon="-8.9116970">
        <ele>2.4</ele>
        <time>2020-08-07T14:39:04Z</time>
      </trkpt>
      <trkpt lat="42.5436420" lon="-8.9116620">
        <ele>2.6</ele>
        <time>2020-08-07T14:39:05Z</time>
      </trkpt>
      <trkpt lat="42.5436420" lon="-8.9116360">
        <ele>3.0</ele>
        <time>2020-08-07T14:39:06Z</time>
      </trkpt>
      <trkpt lat="42.5436420" lon="-8.9116360">
        <ele>3.0</ele>
        <time>2020-08-07T14:39:07Z</time>
      </trkpt>
      <trkpt lat="42.5436320" lon="-8.9115910">
        <ele>3.0</ele>
        <time>2020-08-07T14:39:08Z</time>
      </trkpt>
      <trkpt lat="42.5436320" lon="-8.9115910">
        <ele>3.0</ele>
        <time>2020-08-07T14:39:09Z</time>
      </trkpt>
      <trkpt lat="42.5436260" lon="-8.9115460">
        <ele>2.8</ele>
        <time>2020-08-07T14:39:10Z</time>
      </trkpt>
      <trkpt lat="42.5436260" lon="-8.9115460">
        <ele>2.8</ele>
        <time>2020-08-07T14:39:11Z</time>
      </trkpt>
      <trkpt lat="42.5436160" lon="-8.9115020">
        <ele>3.0</ele>
        <time>2020-08-07T14:39:12Z</time>
      </trkpt>
      <trkpt lat="42.5436160" lon="-8.9115020">
        <ele>3.0</ele>
        <time>2020-08-07T14:39:13Z</time>
      </trkpt>
      <trkpt lat="42.5436100" lon="-8.9114570">
        <ele>3.2</ele>
        <time>2020-08-07T14:39:14Z</time>
      </trkpt>
      <trkpt lat="42.5436100" lon="-8.9114570">
        <ele>3.4</ele>
        <time>2020-08-07T14:39:15Z</time>
      </trkpt>
      <trkpt lat="42.5436030" lon="-8.9114170">
        <ele>3.4</ele>
        <time>2020-08-07T14:39:16Z</time>
      </trkpt>
      <trkpt lat="42.5436030" lon="-8.9114170">
        <ele>3.6</ele>
        <time>2020-08-07T14:39:17Z</time>
      </trkpt>
      <trkpt lat="42.5435900" lon="-8.9113770">
        <ele>3.8</ele>
        <time>2020-08-07T14:39:18Z</time>
      </trkpt>
      <trkpt lat="42.5435840" lon="-8.9113530">
        <ele>3.8</ele>
        <time>2020-08-07T14:39:19Z</time>
      </trkpt>
      <trkpt lat="42.5435840" lon="-8.9113530">
        <ele>3.2</ele>
        <time>2020-08-07T14:39:20Z</time>
      </trkpt>
      <trkpt lat="42.5435840" lon="-8.9113170">
        <ele>2.8</ele>
        <time>2020-08-07T14:39:21Z</time>
      </trkpt>
      <trkpt lat="42.5435840" lon="-8.9113170">
        <ele>2.8</ele>
        <time>2020-08-07T14:39:22Z</time>
      </trkpt>
      <trkpt lat="42.5435710" lon="-8.9112900">
        <ele>2.8</ele>
        <time>2020-08-07T14:39:23Z</time>
      </trkpt>
      <trkpt lat="42.5435710" lon="-8.9112900">
        <ele>2.8</ele>
        <time>2020-08-07T14:39:24Z</time>
      </trkpt>
      <trkpt lat="42.5435620" lon="-8.9112660">
        <ele>2.2</ele>
        <time>2020-08-07T14:39:25Z</time>
      </trkpt>
      <trkpt lat="42.5435620" lon="-8.9112660">
        <ele>2.0</ele>
        <time>2020-08-07T14:39:26Z</time>
      </trkpt>
      <trkpt lat="42.5435490" lon="-8.9112430">
        <ele>2.0</ele>
        <time>2020-08-07T14:39:27Z</time>
      </trkpt>
      <trkpt lat="42.5435490" lon="-8.9112430">
        <ele>1.6</ele>
        <time>2020-08-07T14:39:28Z</time>
      </trkpt>
      <trkpt lat="42.5435420" lon="-8.9112190">
        <ele>1.2</ele>
        <time>2020-08-07T14:39:29Z</time>
      </trkpt>
      <trkpt lat="42.5435420" lon="-8.9112190">
        <ele>0.8</ele>
        <time>2020-08-07T14:39:30Z</time>
      </trkpt>
      <trkpt lat="42.5435260" lon="-8.9111950">
        <ele>0.8</ele>
        <time>2020-08-07T14:39:31Z</time>
      </trkpt>
      <trkpt lat="42.5435260" lon="-8.9111950">
        <ele>0.8</ele>
        <time>2020-08-07T14:39:32Z</time>
      </trkpt>
      <trkpt lat="42.5435070" lon="-8.9111740">
        <ele>0.6</ele>
        <time>2020-08-07T14:39:33Z</time>
      </trkpt>
      <trkpt lat="42.5435070" lon="-8.9111740">
        <ele>0.6</ele>
        <time>2020-08-07T14:39:34Z</time>
      </trkpt>
      <trkpt lat="42.5434940" lon="-8.9111410">
        <ele>1.0</ele>
        <time>2020-08-07T14:39:35Z</time>
      </trkpt>
      <trkpt lat="42.5434940" lon="-8.9111410">
        <ele>1.2</ele>
        <time>2020-08-07T14:39:36Z</time>
      </trkpt>
      <trkpt lat="42.5434850" lon="-8.9111070">
        <ele>1.6</ele>
        <time>2020-08-07T14:39:37Z</time>
      </trkpt>
      <trkpt lat="42.5434850" lon="-8.9111070">
        <ele>2.0</ele>
        <time>2020-08-07T14:39:38Z</time>
      </trkpt>
      <trkpt lat="42.5434750" lon="-8.9110740">
        <ele>2.2</ele>
        <time>2020-08-07T14:39:39Z</time>
      </trkpt>
      <trkpt lat="42.5434750" lon="-8.9110740">
        <ele>2.2</ele>
        <time>2020-08-07T14:39:40Z</time>
      </trkpt>
      <trkpt lat="42.5434660" lon="-8.9110420">
        <ele>2.6</ele>
        <time>2020-08-07T14:39:41Z</time>
      </trkpt>
      <trkpt lat="42.5434660" lon="-8.9110420">
        <ele>2.8</ele>
        <time>2020-08-07T14:39:42Z</time>
      </trkpt>
      <trkpt lat="42.5434530" lon="-8.9110120">
        <ele>2.8</ele>
        <time>2020-08-07T14:39:43Z</time>
      </trkpt>
      <trkpt lat="42.5434530" lon="-8.9110120">
        <ele>2.6</ele>
        <time>2020-08-07T14:39:44Z</time>
      </trkpt>
      <trkpt lat="42.5434430" lon="-8.9109820">
        <ele>2.8</ele>
        <time>2020-08-07T14:39:45Z</time>
      </trkpt>
      <trkpt lat="42.5434430" lon="-8.9109820">
        <ele>3.0</ele>
        <time>2020-08-07T14:39:46Z</time>
      </trkpt>
      <trkpt lat="42.5434270" lon="-8.9109470">
        <ele>2.4</ele>
        <time>2020-08-07T14:39:47Z</time>
      </trkpt>
      <trkpt lat="42.5434270" lon="-8.9109470">
        <ele>2.2</ele>
        <time>2020-08-07T14:39:48Z</time>
      </trkpt>
      <trkpt lat="42.5434180" lon="-8.9109150">
        <ele>2.2</ele>
        <time>2020-08-07T14:39:49Z</time>
      </trkpt>
      <trkpt lat="42.5434180" lon="-8.9109150">
        <ele>2.2</ele>
        <time>2020-08-07T14:39:50Z</time>
      </trkpt>
      <trkpt lat="42.5434050" lon="-8.9108860">
        <ele>2.0</ele>
        <time>2020-08-07T14:39:51Z</time>
      </trkpt>
      <trkpt lat="42.5434050" lon="-8.9108860">
        <ele>2.2</ele>
        <time>2020-08-07T14:39:52Z</time>
      </trkpt>
      <trkpt lat="42.5433790" lon="-8.9108620">
        <ele>2.4</ele>
        <time>2020-08-07T14:39:53Z</time>
      </trkpt>
      <trkpt lat="42.5433790" lon="-8.9108620">
        <ele>2.8</ele>
        <time>2020-08-07T14:39:54Z</time>
      </trkpt>
      <trkpt lat="42.5433630" lon="-8.9108360">
        <ele>2.8</ele>
        <time>2020-08-07T14:39:55Z</time>
      </trkpt>
      <trkpt lat="42.5433630" lon="-8.9108360">
        <ele>2.8</ele>
        <time>2020-08-07T14:39:56Z</time>
      </trkpt>
      <trkpt lat="42.5433470" lon="-8.9108060">
        <ele>2.8</ele>
        <time>2020-08-07T14:39:57Z</time>
      </trkpt>
      <trkpt lat="42.5433470" lon="-8.9108060">
        <ele>2.6</ele>
        <time>2020-08-07T14:39:58Z</time>
      </trkpt>
      <trkpt lat="42.5433310" lon="-8.9107780">
        <ele>2.4</ele>
        <time>2020-08-07T14:39:59Z</time>
      </trkpt>
      <trkpt lat="42.5433310" lon="-8.9107780">
        <ele>2.2</ele>
        <time>2020-08-07T14:40:00Z</time>
      </trkpt>
      <trkpt lat="42.5433150" lon="-8.9107460">
        <ele>2.2</ele>
        <time>2020-08-07T14:40:01Z</time>
      </trkpt>
      <trkpt lat="42.5433150" lon="-8.9107460">
        <ele>2.4</ele>
        <time>2020-08-07T14:40:02Z</time>
      </trkpt>
      <trkpt lat="42.5432960" lon="-8.9107130">
        <ele>2.6</ele>
        <time>2020-08-07T14:40:03Z</time>
      </trkpt>
      <trkpt lat="42.5432960" lon="-8.9107130">
        <ele>3.0</ele>
        <time>2020-08-07T14:40:04Z</time>
      </trkpt>
      <trkpt lat="42.5432770" lon="-8.9106820">
        <ele>3.6</ele>
        <time>2020-08-07T14:40:05Z</time>
      </trkpt>
      <trkpt lat="42.5432770" lon="-8.9106820">
        <ele>3.6</ele>
        <time>2020-08-07T14:40:06Z</time>
      </trkpt>
      <trkpt lat="42.5432580" lon="-8.9106530">
        <ele>3.4</ele>
        <time>2020-08-07T14:40:07Z</time>
      </trkpt>
      <trkpt lat="42.5432580" lon="-8.9106530">
        <ele>3.4</ele>
        <time>2020-08-07T14:40:08Z</time>
      </trkpt>
      <trkpt lat="42.5432450" lon="-8.9106220">
        <ele>3.2</ele>
        <time>2020-08-07T14:40:09Z</time>
      </trkpt>
      <trkpt lat="42.5432450" lon="-8.9106220">
        <ele>3.2</ele>
        <time>2020-08-07T14:40:10Z</time>
      </trkpt>
      <trkpt lat="42.5432260" lon="-8.9105920">
        <ele>3.2</ele>
        <time>2020-08-07T14:40:11Z</time>
      </trkpt>
      <trkpt lat="42.5432260" lon="-8.9105920">
        <ele>3.4</ele>
        <time>2020-08-07T14:40:12Z</time>
      </trkpt>
      <trkpt lat="42.5432000" lon="-8.9105630">
        <ele>3.6</ele>
        <time>2020-08-07T14:40:13Z</time>
      </trkpt>
      <trkpt lat="42.5432000" lon="-8.9105630">
        <ele>3.4</ele>
        <time>2020-08-07T14:40:14Z</time>
      </trkpt>
      <trkpt lat="42.5431810" lon="-8.9105320">
        <ele>3.4</ele>
        <time>2020-08-07T14:40:15Z</time>
      </trkpt>
      <trkpt lat="42.5431810" lon="-8.9105320">
        <ele>3.4</ele>
        <time>2020-08-07T14:40:16Z</time>
      </trkpt>
      <trkpt lat="42.5431680" lon="-8.9104980">
        <ele>3.6</ele>
        <time>2020-08-07T14:40:17Z</time>
      </trkpt>
      <trkpt lat="42.5431680" lon="-8.9104980">
        <ele>3.4</ele>
        <time>2020-08-07T14:40:18Z</time>
      </trkpt>
      <trkpt lat="42.5431520" lon="-8.9104630">
        <ele>3.4</ele>
        <time>2020-08-07T14:40:19Z</time>
      </trkpt>
      <trkpt lat="42.5431520" lon="-8.9104630">
        <ele>3.8</ele>
        <time>2020-08-07T14:40:20Z</time>
      </trkpt>
      <trkpt lat="42.5431360" lon="-8.9104340">
        <ele>4.0</ele>
        <time>2020-08-07T14:40:21Z</time>
      </trkpt>
      <trkpt lat="42.5431360" lon="-8.9104340">
        <ele>4.4</ele>
        <time>2020-08-07T14:40:22Z</time>
      </trkpt>
      <trkpt lat="42.5431140" lon="-8.9104100">
        <ele>5.0</ele>
        <time>2020-08-07T14:40:23Z</time>
      </trkpt>
      <trkpt lat="42.5431140" lon="-8.9104100">
        <ele>5.2</ele>
        <time>2020-08-07T14:40:24Z</time>
      </trkpt>
      <trkpt lat="42.5430910" lon="-8.9103820">
        <ele>5.4</ele>
        <time>2020-08-07T14:40:25Z</time>
      </trkpt>
      <trkpt lat="42.5430910" lon="-8.9103820">
        <ele>5.4</ele>
        <time>2020-08-07T14:40:26Z</time>
      </trkpt>
      <trkpt lat="42.5430750" lon="-8.9103470">
        <ele>5.4</ele>
        <time>2020-08-07T14:40:27Z</time>
      </trkpt>
      <trkpt lat="42.5430750" lon="-8.9103470">
        <ele>5.2</ele>
        <time>2020-08-07T14:40:28Z</time>
      </trkpt>
      <trkpt lat="42.5430590" lon="-8.9103100">
        <ele>5.2</ele>
        <time>2020-08-07T14:40:29Z</time>
      </trkpt>
      <trkpt lat="42.5430590" lon="-8.9103100">
        <ele>5.0</ele>
        <time>2020-08-07T14:40:30Z</time>
      </trkpt>
      <trkpt lat="42.5430460" lon="-8.9102700">
        <ele>4.8</ele>
        <time>2020-08-07T14:40:31Z</time>
      </trkpt>
      <trkpt lat="42.5430460" lon="-8.9102700">
        <ele>4.8</ele>
        <time>2020-08-07T14:40:32Z</time>
      </trkpt>
      <trkpt lat="42.5430270" lon="-8.9102380">
        <ele>5.4</ele>
        <time>2020-08-07T14:40:33Z</time>
      </trkpt>
      <trkpt lat="42.5430270" lon="-8.9102380">
        <ele>5.8</ele>
        <time>2020-08-07T14:40:34Z</time>
      </trkpt>
      <trkpt lat="42.5430110" lon="-8.9102030">
        <ele>5.6</ele>
        <time>2020-08-07T14:40:35Z</time>
      </trkpt>
      <trkpt lat="42.5430110" lon="-8.9102030">
        <ele>5.6</ele>
        <time>2020-08-07T14:40:36Z</time>
      </trkpt>
      <trkpt lat="42.5429950" lon="-8.9101700">
        <ele>5.4</ele>
        <time>2020-08-07T14:40:37Z</time>
      </trkpt>
      <trkpt lat="42.5429950" lon="-8.9101700">
        <ele>5.8</ele>
        <time>2020-08-07T14:40:38Z</time>
      </trkpt>
      <trkpt lat="42.5429790" lon="-8.9101310">
        <ele>5.6</ele>
        <time>2020-08-07T14:40:39Z</time>
      </trkpt>
      <trkpt lat="42.5429790" lon="-8.9101310">
        <ele>5.2</ele>
        <time>2020-08-07T14:40:40Z</time>
      </trkpt>
      <trkpt lat="42.5429660" lon="-8.9100900">
        <ele>5.2</ele>
        <time>2020-08-07T14:40:41Z</time>
      </trkpt>
      <trkpt lat="42.5429660" lon="-8.9100900">
        <ele>5.0</ele>
        <time>2020-08-07T14:40:42Z</time>
      </trkpt>
      <trkpt lat="42.5429540" lon="-8.9100490">
        <ele>5.0</ele>
        <time>2020-08-07T14:40:43Z</time>
      </trkpt>
      <trkpt lat="42.5429540" lon="-8.9100490">
        <ele>4.6</ele>
        <time>2020-08-07T14:40:44Z</time>
      </trkpt>
      <trkpt lat="42.5429380" lon="-8.9100110">
        <ele>4.8</ele>
        <time>2020-08-07T14:40:45Z</time>
      </trkpt>
      <trkpt lat="42.5429380" lon="-8.9100110">
        <ele>5.0</ele>
        <time>2020-08-07T14:40:46Z</time>
      </trkpt>
      <trkpt lat="42.5429280" lon="-8.9099800">
        <ele>5.0</ele>
        <time>2020-08-07T14:40:47Z</time>
      </trkpt>
      <trkpt lat="42.5429280" lon="-8.9099800">
        <ele>5.0</ele>
        <time>2020-08-07T14:40:48Z</time>
      </trkpt>
      <trkpt lat="42.5429120" lon="-8.9099480">
        <ele>5.0</ele>
        <time>2020-08-07T14:40:49Z</time>
      </trkpt>
      <trkpt lat="42.5429120" lon="-8.9099480">
        <ele>5.0</ele>
        <time>2020-08-07T14:40:50Z</time>
      </trkpt>
      <trkpt lat="42.5428990" lon="-8.9099170">
        <ele>5.0</ele>
        <time>2020-08-07T14:40:51Z</time>
      </trkpt>
      <trkpt lat="42.5428990" lon="-8.9099170">
        <ele>4.8</ele>
        <time>2020-08-07T14:40:52Z</time>
      </trkpt>
      <trkpt lat="42.5428860" lon="-8.9098830">
        <ele>4.8</ele>
        <time>2020-08-07T14:40:53Z</time>
      </trkpt>
      <trkpt lat="42.5428860" lon="-8.9098830">
        <ele>4.8</ele>
        <time>2020-08-07T14:40:54Z</time>
      </trkpt>
      <trkpt lat="42.5428740" lon="-8.9098480">
        <ele>4.6</ele>
        <time>2020-08-07T14:40:55Z</time>
      </trkpt>
      <trkpt lat="42.5428740" lon="-8.9098480">
        <ele>4.6</ele>
        <time>2020-08-07T14:40:56Z</time>
      </trkpt>
      <trkpt lat="42.5428580" lon="-8.9098130">
        <ele>4.4</ele>
        <time>2020-08-07T14:40:57Z</time>
      </trkpt>
      <trkpt lat="42.5428580" lon="-8.9098130">
        <ele>4.2</ele>
        <time>2020-08-07T14:40:58Z</time>
      </trkpt>
      <trkpt lat="42.5428380" lon="-8.9097770">
        <ele>4.0</ele>
        <time>2020-08-07T14:40:59Z</time>
      </trkpt>
      <trkpt lat="42.5428380" lon="-8.9097770">
        <ele>3.8</ele>
        <time>2020-08-07T14:41:00Z</time>
      </trkpt>
      <trkpt lat="42.5428220" lon="-8.9097460">
        <ele>3.6</ele>
        <time>2020-08-07T14:41:01Z</time>
      </trkpt>
      <trkpt lat="42.5428220" lon="-8.9097460">
        <ele>3.2</ele>
        <time>2020-08-07T14:41:02Z</time>
      </trkpt>
      <trkpt lat="42.5427970" lon="-8.9097140">
        <ele>3.2</ele>
        <time>2020-08-07T14:41:03Z</time>
      </trkpt>
      <trkpt lat="42.5427970" lon="-8.9097140">
        <ele>3.0</ele>
        <time>2020-08-07T14:41:04Z</time>
      </trkpt>
      <trkpt lat="42.5427740" lon="-8.9096850">
        <ele>2.8</ele>
        <time>2020-08-07T14:41:05Z</time>
      </trkpt>
      <trkpt lat="42.5427740" lon="-8.9096850">
        <ele>2.8</ele>
        <time>2020-08-07T14:41:06Z</time>
      </trkpt>
      <trkpt lat="42.5427550" lon="-8.9096570">
        <ele>3.0</ele>
        <time>2020-08-07T14:41:07Z</time>
      </trkpt>
      <trkpt lat="42.5427550" lon="-8.9096570">
        <ele>2.8</ele>
        <time>2020-08-07T14:41:08Z</time>
      </trkpt>
      <trkpt lat="42.5427360" lon="-8.9096270">
        <ele>2.8</ele>
        <time>2020-08-07T14:41:09Z</time>
      </trkpt>
      <trkpt lat="42.5427360" lon="-8.9096270">
        <ele>3.0</ele>
        <time>2020-08-07T14:41:10Z</time>
      </trkpt>
      <trkpt lat="42.5427140" lon="-8.9095980">
        <ele>2.8</ele>
        <time>2020-08-07T14:41:11Z</time>
      </trkpt>
      <trkpt lat="42.5427010" lon="-8.9095800">
        <ele>2.4</ele>
        <time>2020-08-07T14:41:12Z</time>
      </trkpt>
      <trkpt lat="42.5427010" lon="-8.9095800">
        <ele>2.4</ele>
        <time>2020-08-07T14:41:13Z</time>
      </trkpt>
      <trkpt lat="42.5426880" lon="-8.9095490">
        <ele>2.4</ele>
        <time>2020-08-07T14:41:14Z</time>
      </trkpt>
      <trkpt lat="42.5426880" lon="-8.9095490">
        <ele>2.8</ele>
        <time>2020-08-07T14:41:15Z</time>
      </trkpt>
      <trkpt lat="42.5426690" lon="-8.9095230">
        <ele>2.4</ele>
        <time>2020-08-07T14:41:16Z</time>
      </trkpt>
      <trkpt lat="42.5426530" lon="-8.9095110">
        <ele>2.6</ele>
        <time>2020-08-07T14:41:17Z</time>
      </trkpt>
      <trkpt lat="42.5426530" lon="-8.9095110">
        <ele>2.8</ele>
        <time>2020-08-07T14:41:18Z</time>
      </trkpt>
      <trkpt lat="42.5426300" lon="-8.9094860">
        <ele>2.6</ele>
        <time>2020-08-07T14:41:19Z</time>
      </trkpt>
      <trkpt lat="42.5426300" lon="-8.9094860">
        <ele>2.2</ele>
        <time>2020-08-07T14:41:20Z</time>
      </trkpt>
      <trkpt lat="42.5426110" lon="-8.9094630">
        <ele>2.2</ele>
        <time>2020-08-07T14:41:21Z</time>
      </trkpt>
      <trkpt lat="42.5426110" lon="-8.9094630">
        <ele>2.2</ele>
        <time>2020-08-07T14:41:22Z</time>
      </trkpt>
      <trkpt lat="42.5425890" lon="-8.9094400">
        <ele>2.6</ele>
        <time>2020-08-07T14:41:23Z</time>
      </trkpt>
      <trkpt lat="42.5425890" lon="-8.9094400">
        <ele>2.4</ele>
        <time>2020-08-07T14:41:24Z</time>
      </trkpt>
      <trkpt lat="42.5425700" lon="-8.9094160">
        <ele>2.2</ele>
        <time>2020-08-07T14:41:25Z</time>
      </trkpt>
      <trkpt lat="42.5425700" lon="-8.9094160">
        <ele>2.6</ele>
        <time>2020-08-07T14:41:26Z</time>
      </trkpt>
      <trkpt lat="42.5425540" lon="-8.9093970">
        <ele>2.6</ele>
        <time>2020-08-07T14:41:27Z</time>
      </trkpt>
      <trkpt lat="42.5425540" lon="-8.9093970">
        <ele>2.8</ele>
        <time>2020-08-07T14:41:28Z</time>
      </trkpt>
      <trkpt lat="42.5425310" lon="-8.9093820">
        <ele>3.0</ele>
        <time>2020-08-07T14:41:29Z</time>
      </trkpt>
      <trkpt lat="42.5425310" lon="-8.9093820">
        <ele>3.2</ele>
        <time>2020-08-07T14:41:30Z</time>
      </trkpt>
      <trkpt lat="42.5425060" lon="-8.9093600">
        <ele>3.2</ele>
        <time>2020-08-07T14:41:31Z</time>
      </trkpt>
      <trkpt lat="42.5425060" lon="-8.9093600">
        <ele>3.4</ele>
        <time>2020-08-07T14:41:32Z</time>
      </trkpt>
      <trkpt lat="42.5424930" lon="-8.9093370">
        <ele>3.4</ele>
        <time>2020-08-07T14:41:33Z</time>
      </trkpt>
      <trkpt lat="42.5424930" lon="-8.9093370">
        <ele>3.6</ele>
        <time>2020-08-07T14:41:34Z</time>
      </trkpt>
      <trkpt lat="42.5424740" lon="-8.9093140">
        <ele>3.6</ele>
        <time>2020-08-07T14:41:35Z</time>
      </trkpt>
      <trkpt lat="42.5424740" lon="-8.9093140">
        <ele>3.4</ele>
        <time>2020-08-07T14:41:36Z</time>
      </trkpt>
      <trkpt lat="42.5424540" lon="-8.9092840">
        <ele>3.4</ele>
        <time>2020-08-07T14:41:37Z</time>
      </trkpt>
      <trkpt lat="42.5424540" lon="-8.9092840">
        <ele>3.2</ele>
        <time>2020-08-07T14:41:38Z</time>
      </trkpt>
      <trkpt lat="42.5424380" lon="-8.9092520">
        <ele>3.0</ele>
        <time>2020-08-07T14:41:39Z</time>
      </trkpt>
      <trkpt lat="42.5424380" lon="-8.9092520">
        <ele>3.0</ele>
        <time>2020-08-07T14:41:40Z</time>
      </trkpt>
      <trkpt lat="42.5424190" lon="-8.9092200">
        <ele>3.0</ele>
        <time>2020-08-07T14:41:41Z</time>
      </trkpt>
      <trkpt lat="42.5424190" lon="-8.9092200">
        <ele>3.2</ele>
        <time>2020-08-07T14:41:42Z</time>
      </trkpt>
      <trkpt lat="42.5424000" lon="-8.9091970">
        <ele>3.2</ele>
        <time>2020-08-07T14:41:43Z</time>
      </trkpt>
      <trkpt lat="42.5424000" lon="-8.9091970">
        <ele>3.2</ele>
        <time>2020-08-07T14:41:44Z</time>
      </trkpt>
      <trkpt lat="42.5423840" lon="-8.9091660">
        <ele>2.8</ele>
        <time>2020-08-07T14:41:45Z</time>
      </trkpt>
      <trkpt lat="42.5423840" lon="-8.9091660">
        <ele>2.8</ele>
        <time>2020-08-07T14:41:46Z</time>
      </trkpt>
      <trkpt lat="42.5423650" lon="-8.9091280">
        <ele>2.6</ele>
        <time>2020-08-07T14:41:47Z</time>
      </trkpt>
      <trkpt lat="42.5423650" lon="-8.9091280">
        <ele>2.8</ele>
        <time>2020-08-07T14:41:48Z</time>
      </trkpt>
      <trkpt lat="42.5423520" lon="-8.9090950">
        <ele>2.6</ele>
        <time>2020-08-07T14:41:49Z</time>
      </trkpt>
      <trkpt lat="42.5423520" lon="-8.9090950">
        <ele>2.6</ele>
        <time>2020-08-07T14:41:50Z</time>
      </trkpt>
      <trkpt lat="42.5423330" lon="-8.9090660">
        <ele>2.4</ele>
        <time>2020-08-07T14:41:51Z</time>
      </trkpt>
      <trkpt lat="42.5423330" lon="-8.9090660">
        <ele>2.4</ele>
        <time>2020-08-07T14:41:52Z</time>
      </trkpt>
      <trkpt lat="42.5423100" lon="-8.9090380">
        <ele>2.4</ele>
        <time>2020-08-07T14:41:53Z</time>
      </trkpt>
      <trkpt lat="42.5423100" lon="-8.9090380">
        <ele>2.6</ele>
        <time>2020-08-07T14:41:54Z</time>
      </trkpt>
      <trkpt lat="42.5422910" lon="-8.9090120">
        <ele>2.4</ele>
        <time>2020-08-07T14:41:55Z</time>
      </trkpt>
      <trkpt lat="42.5422910" lon="-8.9090120">
        <ele>2.4</ele>
        <time>2020-08-07T14:41:56Z</time>
      </trkpt>
      <trkpt lat="42.5422660" lon="-8.9089900">
        <ele>2.8</ele>
        <time>2020-08-07T14:41:57Z</time>
      </trkpt>
      <trkpt lat="42.5422660" lon="-8.9089900">
        <ele>3.2</ele>
        <time>2020-08-07T14:41:58Z</time>
      </trkpt>
      <trkpt lat="42.5422530" lon="-8.9089720">
        <ele>3.2</ele>
        <time>2020-08-07T14:41:59Z</time>
      </trkpt>
      <trkpt lat="42.5422530" lon="-8.9089720">
        <ele>3.6</ele>
        <time>2020-08-07T14:42:00Z</time>
      </trkpt>
      <trkpt lat="42.5422340" lon="-8.9089520">
        <ele>3.4</ele>
        <time>2020-08-07T14:42:01Z</time>
      </trkpt>
      <trkpt lat="42.5422340" lon="-8.9089520">
        <ele>3.4</ele>
        <time>2020-08-07T14:42:02Z</time>
      </trkpt>
      <trkpt lat="42.5422140" lon="-8.9089300">
        <ele>3.4</ele>
        <time>2020-08-07T14:42:03Z</time>
      </trkpt>
      <trkpt lat="42.5422140" lon="-8.9089300">
        <ele>3.0</ele>
        <time>2020-08-07T14:42:04Z</time>
      </trkpt>
      <trkpt lat="42.5421980" lon="-8.9089080">
        <ele>2.8</ele>
        <time>2020-08-07T14:42:05Z</time>
      </trkpt>
      <trkpt lat="42.5421980" lon="-8.9089080">
        <ele>3.2</ele>
        <time>2020-08-07T14:42:06Z</time>
      </trkpt>
      <trkpt lat="42.5421860" lon="-8.9088830">
        <ele>3.0</ele>
        <time>2020-08-07T14:42:07Z</time>
      </trkpt>
      <trkpt lat="42.5421860" lon="-8.9088830">
        <ele>2.8</ele>
        <time>2020-08-07T14:42:08Z</time>
      </trkpt>
      <trkpt lat="42.5421730" lon="-8.9088560">
        <ele>2.6</ele>
        <time>2020-08-07T14:42:09Z</time>
      </trkpt>
      <trkpt lat="42.5421730" lon="-8.9088560">
        <ele>2.4</ele>
        <time>2020-08-07T14:42:10Z</time>
      </trkpt>
      <trkpt lat="42.5421570" lon="-8.9088340">
        <ele>2.4</ele>
        <time>2020-08-07T14:42:11Z</time>
      </trkpt>
      <trkpt lat="42.5421570" lon="-8.9088340">
        <ele>2.4</ele>
        <time>2020-08-07T14:42:12Z</time>
      </trkpt>
      <trkpt lat="42.5421440" lon="-8.9088100">
        <ele>2.4</ele>
        <time>2020-08-07T14:42:13Z</time>
      </trkpt>
      <trkpt lat="42.5421440" lon="-8.9088100">
        <ele>2.8</ele>
        <time>2020-08-07T14:42:14Z</time>
      </trkpt>
      <trkpt lat="42.5421280" lon="-8.9087850">
        <ele>3.0</ele>
        <time>2020-08-07T14:42:15Z</time>
      </trkpt>
      <trkpt lat="42.5421280" lon="-8.9087850">
        <ele>3.0</ele>
        <time>2020-08-07T14:42:16Z</time>
      </trkpt>
      <trkpt lat="42.5421120" lon="-8.9087560">
        <ele>3.0</ele>
        <time>2020-08-07T14:42:17Z</time>
      </trkpt>
      <trkpt lat="42.5421120" lon="-8.9087560">
        <ele>3.2</ele>
        <time>2020-08-07T14:42:18Z</time>
      </trkpt>
      <trkpt lat="42.5420960" lon="-8.9087300">
        <ele>3.0</ele>
        <time>2020-08-07T14:42:19Z</time>
      </trkpt>
      <trkpt lat="42.5420960" lon="-8.9087300">
        <ele>2.8</ele>
        <time>2020-08-07T14:42:20Z</time>
      </trkpt>
      <trkpt lat="42.5420800" lon="-8.9086980">
        <ele>2.8</ele>
        <time>2020-08-07T14:42:21Z</time>
      </trkpt>
      <trkpt lat="42.5420800" lon="-8.9086980">
        <ele>2.8</ele>
        <time>2020-08-07T14:42:22Z</time>
      </trkpt>
      <trkpt lat="42.5420640" lon="-8.9086710">
        <ele>3.0</ele>
        <time>2020-08-07T14:42:23Z</time>
      </trkpt>
      <trkpt lat="42.5420640" lon="-8.9086710">
        <ele>3.4</ele>
        <time>2020-08-07T14:42:24Z</time>
      </trkpt>
      <trkpt lat="42.5420420" lon="-8.9086400">
        <ele>3.8</ele>
        <time>2020-08-07T14:42:25Z</time>
      </trkpt>
      <trkpt lat="42.5420420" lon="-8.9086400">
        <ele>4.0</ele>
        <time>2020-08-07T14:42:26Z</time>
      </trkpt>
      <trkpt lat="42.5420220" lon="-8.9086170">
        <ele>3.8</ele>
        <time>2020-08-07T14:42:27Z</time>
      </trkpt>
      <trkpt lat="42.5420220" lon="-8.9086170">
        <ele>4.0</ele>
        <time>2020-08-07T14:42:28Z</time>
      </trkpt>
      <trkpt lat="42.5420030" lon="-8.9085890">
        <ele>3.8</ele>
        <time>2020-08-07T14:42:29Z</time>
      </trkpt>
      <trkpt lat="42.5420030" lon="-8.9085890">
        <ele>4.2</ele>
        <time>2020-08-07T14:42:30Z</time>
      </trkpt>
      <trkpt lat="42.5419870" lon="-8.9085620">
        <ele>4.4</ele>
        <time>2020-08-07T14:42:31Z</time>
      </trkpt>
      <trkpt lat="42.5419870" lon="-8.9085620">
        <ele>4.2</ele>
        <time>2020-08-07T14:42:32Z</time>
      </trkpt>
      <trkpt lat="42.5419740" lon="-8.9085330">
        <ele>4.2</ele>
        <time>2020-08-07T14:42:33Z</time>
      </trkpt>
      <trkpt lat="42.5419740" lon="-8.9085330">
        <ele>4.0</ele>
        <time>2020-08-07T14:42:34Z</time>
      </trkpt>
      <trkpt lat="42.5419580" lon="-8.9085060">
        <ele>4.0</ele>
        <time>2020-08-07T14:42:35Z</time>
      </trkpt>
      <trkpt lat="42.5419580" lon="-8.9085060">
        <ele>3.8</ele>
        <time>2020-08-07T14:42:36Z</time>
      </trkpt>
      <trkpt lat="42.5419390" lon="-8.9084780">
        <ele>4.2</ele>
        <time>2020-08-07T14:42:37Z</time>
      </trkpt>
      <trkpt lat="42.5419390" lon="-8.9084780">
        <ele>4.4</ele>
        <time>2020-08-07T14:42:38Z</time>
      </trkpt>
      <trkpt lat="42.5419300" lon="-8.9084500">
        <ele>4.0</ele>
        <time>2020-08-07T14:42:39Z</time>
      </trkpt>
      <trkpt lat="42.5419300" lon="-8.9084500">
        <ele>4.0</ele>
        <time>2020-08-07T14:42:40Z</time>
      </trkpt>
      <trkpt lat="42.5419200" lon="-8.9084150">
        <ele>4.2</ele>
        <time>2020-08-07T14:42:41Z</time>
      </trkpt>
      <trkpt lat="42.5419200" lon="-8.9084150">
        <ele>4.8</ele>
        <time>2020-08-07T14:42:42Z</time>
      </trkpt>
      <trkpt lat="42.5419070" lon="-8.9083830">
        <ele>4.8</ele>
        <time>2020-08-07T14:42:43Z</time>
      </trkpt>
      <trkpt lat="42.5419070" lon="-8.9083830">
        <ele>4.6</ele>
        <time>2020-08-07T14:42:44Z</time>
      </trkpt>
      <trkpt lat="42.5419010" lon="-8.9083480">
        <ele>4.6</ele>
        <time>2020-08-07T14:42:45Z</time>
      </trkpt>
      <trkpt lat="42.5419010" lon="-8.9083480">
        <ele>4.4</ele>
        <time>2020-08-07T14:42:46Z</time>
      </trkpt>
      <trkpt lat="42.5418940" lon="-8.9083100">
        <ele>4.2</ele>
        <time>2020-08-07T14:42:47Z</time>
      </trkpt>
      <trkpt lat="42.5418940" lon="-8.9083100">
        <ele>4.0</ele>
        <time>2020-08-07T14:42:48Z</time>
      </trkpt>
      <trkpt lat="42.5418750" lon="-8.9082800">
        <ele>4.0</ele>
        <time>2020-08-07T14:42:49Z</time>
      </trkpt>
      <trkpt lat="42.5418750" lon="-8.9082800">
        <ele>4.4</ele>
        <time>2020-08-07T14:42:50Z</time>
      </trkpt>
      <trkpt lat="42.5418560" lon="-8.9082580">
        <ele>4.4</ele>
        <time>2020-08-07T14:42:51Z</time>
      </trkpt>
      <trkpt lat="42.5418560" lon="-8.9082580">
        <ele>4.4</ele>
        <time>2020-08-07T14:42:52Z</time>
      </trkpt>
      <trkpt lat="42.5418400" lon="-8.9082340">
        <ele>4.2</ele>
        <time>2020-08-07T14:42:53Z</time>
      </trkpt>
      <trkpt lat="42.5418400" lon="-8.9082340">
        <ele>4.2</ele>
        <time>2020-08-07T14:42:54Z</time>
      </trkpt>
      <trkpt lat="42.5418210" lon="-8.9082080">
        <ele>4.0</ele>
        <time>2020-08-07T14:42:55Z</time>
      </trkpt>
      <trkpt lat="42.5418210" lon="-8.9082080">
        <ele>4.2</ele>
        <time>2020-08-07T14:42:56Z</time>
      </trkpt>
      <trkpt lat="42.5418020" lon="-8.9081850">
        <ele>4.2</ele>
        <time>2020-08-07T14:42:57Z</time>
      </trkpt>
      <trkpt lat="42.5418020" lon="-8.9081850">
        <ele>4.2</ele>
        <time>2020-08-07T14:42:58Z</time>
      </trkpt>
      <trkpt lat="42.5417860" lon="-8.9081550">
        <ele>4.2</ele>
        <time>2020-08-07T14:42:59Z</time>
      </trkpt>
      <trkpt lat="42.5417860" lon="-8.9081550">
        <ele>3.6</ele>
        <time>2020-08-07T14:43:00Z</time>
      </trkpt>
      <trkpt lat="42.5417700" lon="-8.9081230">
        <ele>4.0</ele>
        <time>2020-08-07T14:43:01Z</time>
      </trkpt>
      <trkpt lat="42.5417700" lon="-8.9081230">
        <ele>3.8</ele>
        <time>2020-08-07T14:43:02Z</time>
      </trkpt>
      <trkpt lat="42.5417630" lon="-8.9080900">
        <ele>3.6</ele>
        <time>2020-08-07T14:43:03Z</time>
      </trkpt>
      <trkpt lat="42.5417630" lon="-8.9080900">
        <ele>3.8</ele>
        <time>2020-08-07T14:43:04Z</time>
      </trkpt>
      <trkpt lat="42.5417470" lon="-8.9080580">
        <ele>3.6</ele>
        <time>2020-08-07T14:43:05Z</time>
      </trkpt>
      <trkpt lat="42.5417470" lon="-8.9080580">
        <ele>3.8</ele>
        <time>2020-08-07T14:43:06Z</time>
      </trkpt>
      <trkpt lat="42.5417310" lon="-8.9080300">
        <ele>4.0</ele>
        <time>2020-08-07T14:43:07Z</time>
      </trkpt>
      <trkpt lat="42.5417310" lon="-8.9080300">
        <ele>4.8</ele>
        <time>2020-08-07T14:43:08Z</time>
      </trkpt>
      <trkpt lat="42.5417220" lon="-8.9080020">
        <ele>4.8</ele>
        <time>2020-08-07T14:43:09Z</time>
      </trkpt>
      <trkpt lat="42.5417220" lon="-8.9080020">
        <ele>5.0</ele>
        <time>2020-08-07T14:43:10Z</time>
      </trkpt>
      <trkpt lat="42.5417060" lon="-8.9079700">
        <ele>5.0</ele>
        <time>2020-08-07T14:43:11Z</time>
      </trkpt>
      <trkpt lat="42.5417060" lon="-8.9079700">
        <ele>5.2</ele>
        <time>2020-08-07T14:43:12Z</time>
      </trkpt>
      <trkpt lat="42.5416960" lon="-8.9079350">
        <ele>4.8</ele>
        <time>2020-08-07T14:43:13Z</time>
      </trkpt>
      <trkpt lat="42.5416960" lon="-8.9079350">
        <ele>4.2</ele>
        <time>2020-08-07T14:43:14Z</time>
      </trkpt>
      <trkpt lat="42.5416830" lon="-8.9079050">
        <ele>3.8</ele>
        <time>2020-08-07T14:43:15Z</time>
      </trkpt>
      <trkpt lat="42.5416830" lon="-8.9079050">
        <ele>4.0</ele>
        <time>2020-08-07T14:43:16Z</time>
      </trkpt>
      <trkpt lat="42.5416670" lon="-8.9078750">
        <ele>3.8</ele>
        <time>2020-08-07T14:43:17Z</time>
      </trkpt>
      <trkpt lat="42.5416670" lon="-8.9078750">
        <ele>3.8</ele>
        <time>2020-08-07T14:43:18Z</time>
      </trkpt>
      <trkpt lat="42.5416580" lon="-8.9078400">
        <ele>3.6</ele>
        <time>2020-08-07T14:43:19Z</time>
      </trkpt>
      <trkpt lat="42.5416580" lon="-8.9078400">
        <ele>3.4</ele>
        <time>2020-08-07T14:43:20Z</time>
      </trkpt>
      <trkpt lat="42.5416450" lon="-8.9078060">
        <ele>3.0</ele>
        <time>2020-08-07T14:43:21Z</time>
      </trkpt>
      <trkpt lat="42.5416450" lon="-8.9078060">
        <ele>2.8</ele>
        <time>2020-08-07T14:43:22Z</time>
      </trkpt>
      <trkpt lat="42.5416290" lon="-8.9077730">
        <ele>2.8</ele>
        <time>2020-08-07T14:43:23Z</time>
      </trkpt>
      <trkpt lat="42.5416290" lon="-8.9077730">
        <ele>3.4</ele>
        <time>2020-08-07T14:43:24Z</time>
      </trkpt>
      <trkpt lat="42.5416190" lon="-8.9077370">
        <ele>3.0</ele>
        <time>2020-08-07T14:43:25Z</time>
      </trkpt>
      <trkpt lat="42.5416190" lon="-8.9077370">
        <ele>3.4</ele>
        <time>2020-08-07T14:43:26Z</time>
      </trkpt>
      <trkpt lat="42.5416030" lon="-8.9077100">
        <ele>3.4</ele>
        <time>2020-08-07T14:43:27Z</time>
      </trkpt>
      <trkpt lat="42.5416030" lon="-8.9077100">
        <ele>3.4</ele>
        <time>2020-08-07T14:43:28Z</time>
      </trkpt>
      <trkpt lat="42.5415870" lon="-8.9076860">
        <ele>3.8</ele>
        <time>2020-08-07T14:43:29Z</time>
      </trkpt>
      <trkpt lat="42.5415870" lon="-8.9076860">
        <ele>4.2</ele>
        <time>2020-08-07T14:43:30Z</time>
      </trkpt>
      <trkpt lat="42.5415680" lon="-8.9076660">
        <ele>4.6</ele>
        <time>2020-08-07T14:43:31Z</time>
      </trkpt>
      <trkpt lat="42.5415680" lon="-8.9076660">
        <ele>4.4</ele>
        <time>2020-08-07T14:43:32Z</time>
      </trkpt>
      <trkpt lat="42.5415520" lon="-8.9076370">
        <ele>4.4</ele>
        <time>2020-08-07T14:43:33Z</time>
      </trkpt>
      <trkpt lat="42.5415520" lon="-8.9076370">
        <ele>4.0</ele>
        <time>2020-08-07T14:43:34Z</time>
      </trkpt>
      <trkpt lat="42.5415460" lon="-8.9076050">
        <ele>3.8</ele>
        <time>2020-08-07T14:43:35Z</time>
      </trkpt>
      <trkpt lat="42.5415460" lon="-8.9076050">
        <ele>3.8</ele>
        <time>2020-08-07T14:43:36Z</time>
      </trkpt>
      <trkpt lat="42.5415390" lon="-8.9075780">
        <ele>3.8</ele>
        <time>2020-08-07T14:43:37Z</time>
      </trkpt>
      <trkpt lat="42.5415390" lon="-8.9075780">
        <ele>4.0</ele>
        <time>2020-08-07T14:43:38Z</time>
      </trkpt>
      <trkpt lat="42.5415300" lon="-8.9075540">
        <ele>4.0</ele>
        <time>2020-08-07T14:43:39Z</time>
      </trkpt>
      <trkpt lat="42.5415300" lon="-8.9075540">
        <ele>4.0</ele>
        <time>2020-08-07T14:43:40Z</time>
      </trkpt>
      <trkpt lat="42.5415260" lon="-8.9075220">
        <ele>4.0</ele>
        <time>2020-08-07T14:43:41Z</time>
      </trkpt>
      <trkpt lat="42.5415260" lon="-8.9075220">
        <ele>3.8</ele>
        <time>2020-08-07T14:43:42Z</time>
      </trkpt>
      <trkpt lat="42.5415230" lon="-8.9074940">
        <ele>3.4</ele>
        <time>2020-08-07T14:43:43Z</time>
      </trkpt>
      <trkpt lat="42.5415230" lon="-8.9074940">
        <ele>3.8</ele>
        <time>2020-08-07T14:43:44Z</time>
      </trkpt>
      <trkpt lat="42.5415170" lon="-8.9074610">
        <ele>3.8</ele>
        <time>2020-08-07T14:43:45Z</time>
      </trkpt>
      <trkpt lat="42.5415170" lon="-8.9074610">
        <ele>3.6</ele>
        <time>2020-08-07T14:43:46Z</time>
      </trkpt>
      <trkpt lat="42.5415040" lon="-8.9074300">
        <ele>3.4</ele>
        <time>2020-08-07T14:43:47Z</time>
      </trkpt>
      <trkpt lat="42.5415040" lon="-8.9074300">
        <ele>3.4</ele>
        <time>2020-08-07T14:43:48Z</time>
      </trkpt>
      <trkpt lat="42.5414880" lon="-8.9074000">
        <ele>3.4</ele>
        <time>2020-08-07T14:43:49Z</time>
      </trkpt>
      <trkpt lat="42.5414880" lon="-8.9074000">
        <ele>3.8</ele>
        <time>2020-08-07T14:43:50Z</time>
      </trkpt>
      <trkpt lat="42.5414720" lon="-8.9073700">
        <ele>3.8</ele>
        <time>2020-08-07T14:43:51Z</time>
      </trkpt>
      <trkpt lat="42.5414720" lon="-8.9073700">
        <ele>4.0</ele>
        <time>2020-08-07T14:43:52Z</time>
      </trkpt>
      <trkpt lat="42.5414620" lon="-8.9073430">
        <ele>4.2</ele>
        <time>2020-08-07T14:43:53Z</time>
      </trkpt>
      <trkpt lat="42.5414620" lon="-8.9073430">
        <ele>3.8</ele>
        <time>2020-08-07T14:43:54Z</time>
      </trkpt>
      <trkpt lat="42.5414460" lon="-8.9073100">
        <ele>4.0</ele>
        <time>2020-08-07T14:43:55Z</time>
      </trkpt>
      <trkpt lat="42.5414460" lon="-8.9073100">
        <ele>4.0</ele>
        <time>2020-08-07T14:43:56Z</time>
      </trkpt>
      <trkpt lat="42.5414370" lon="-8.9072780">
        <ele>3.8</ele>
        <time>2020-08-07T14:43:57Z</time>
      </trkpt>
      <trkpt lat="42.5414370" lon="-8.9072780">
        <ele>3.6</ele>
        <time>2020-08-07T14:43:58Z</time>
      </trkpt>
      <trkpt lat="42.5414270" lon="-8.9072400">
        <ele>3.8</ele>
        <time>2020-08-07T14:43:59Z</time>
      </trkpt>
      <trkpt lat="42.5414270" lon="-8.9072400">
        <ele>3.4</ele>
        <time>2020-08-07T14:44:00Z</time>
      </trkpt>
      <trkpt lat="42.5414180" lon="-8.9072060">
        <ele>3.8</ele>
        <time>2020-08-07T14:44:01Z</time>
      </trkpt>
      <trkpt lat="42.5414180" lon="-8.9072060">
        <ele>3.8</ele>
        <time>2020-08-07T14:44:02Z</time>
      </trkpt>
      <trkpt lat="42.5414080" lon="-8.9071730">
        <ele>3.4</ele>
        <time>2020-08-07T14:44:03Z</time>
      </trkpt>
      <trkpt lat="42.5414080" lon="-8.9071730">
        <ele>3.8</ele>
        <time>2020-08-07T14:44:04Z</time>
      </trkpt>
      <trkpt lat="42.5414020" lon="-8.9071390">
        <ele>3.8</ele>
        <time>2020-08-07T14:44:05Z</time>
      </trkpt>
      <trkpt lat="42.5414020" lon="-8.9071390">
        <ele>3.8</ele>
        <time>2020-08-07T14:44:06Z</time>
      </trkpt>
      <trkpt lat="42.5413860" lon="-8.9071020">
        <ele>4.0</ele>
        <time>2020-08-07T14:44:07Z</time>
      </trkpt>
      <trkpt lat="42.5413860" lon="-8.9071020">
        <ele>3.6</ele>
        <time>2020-08-07T14:44:08Z</time>
      </trkpt>
      <trkpt lat="42.5413700" lon="-8.9070630">
        <ele>3.4</ele>
        <time>2020-08-07T14:44:09Z</time>
      </trkpt>
      <trkpt lat="42.5413700" lon="-8.9070630">
        <ele>3.8</ele>
        <time>2020-08-07T14:44:10Z</time>
      </trkpt>
      <trkpt lat="42.5413600" lon="-8.9070230">
        <ele>3.6</ele>
        <time>2020-08-07T14:44:11Z</time>
      </trkpt>
      <trkpt lat="42.5413600" lon="-8.9070230">
        <ele>3.4</ele>
        <time>2020-08-07T14:44:12Z</time>
      </trkpt>
      <trkpt lat="42.5413440" lon="-8.9069830">
        <ele>3.6</ele>
        <time>2020-08-07T14:44:13Z</time>
      </trkpt>
      <trkpt lat="42.5413380" lon="-8.9069580">
        <ele>4.0</ele>
        <time>2020-08-07T14:44:14Z</time>
      </trkpt>
      <trkpt lat="42.5413380" lon="-8.9069580">
        <ele>3.8</ele>
        <time>2020-08-07T14:44:15Z</time>
      </trkpt>
      <trkpt lat="42.5413250" lon="-8.9069220">
        <ele>4.0</ele>
        <time>2020-08-07T14:44:16Z</time>
      </trkpt>
      <trkpt lat="42.5413250" lon="-8.9069220">
        <ele>4.0</ele>
        <time>2020-08-07T14:44:17Z</time>
      </trkpt>
      <trkpt lat="42.5413120" lon="-8.9068770">
        <ele>3.8</ele>
        <time>2020-08-07T14:44:18Z</time>
      </trkpt>
      <trkpt lat="42.5413060" lon="-8.9068540">
        <ele>3.6</ele>
        <time>2020-08-07T14:44:19Z</time>
      </trkpt>
      <trkpt lat="42.5413060" lon="-8.9068540">
        <ele>3.6</ele>
        <time>2020-08-07T14:44:20Z</time>
      </trkpt>
      <trkpt lat="42.5412930" lon="-8.9068140">
        <ele>3.8</ele>
        <time>2020-08-07T14:44:21Z</time>
      </trkpt>
      <trkpt lat="42.5412930" lon="-8.9068140">
        <ele>3.2</ele>
        <time>2020-08-07T14:44:22Z</time>
      </trkpt>
      <trkpt lat="42.5412830" lon="-8.9067740">
        <ele>3.0</ele>
        <time>2020-08-07T14:44:23Z</time>
      </trkpt>
      <trkpt lat="42.5412830" lon="-8.9067740">
        <ele>3.2</ele>
        <time>2020-08-07T14:44:24Z</time>
      </trkpt>
      <trkpt lat="42.5412700" lon="-8.9067400">
        <ele>3.6</ele>
        <time>2020-08-07T14:44:25Z</time>
      </trkpt>
      <trkpt lat="42.5412700" lon="-8.9067400">
        <ele>3.6</ele>
        <time>2020-08-07T14:44:26Z</time>
      </trkpt>
      <trkpt lat="42.5412610" lon="-8.9067050">
        <ele>3.6</ele>
        <time>2020-08-07T14:44:27Z</time>
      </trkpt>
      <trkpt lat="42.5412610" lon="-8.9067050">
        <ele>4.0</ele>
        <time>2020-08-07T14:44:28Z</time>
      </trkpt>
      <trkpt lat="42.5412480" lon="-8.9066650">
        <ele>4.0</ele>
        <time>2020-08-07T14:44:29Z</time>
      </trkpt>
      <trkpt lat="42.5412480" lon="-8.9066650">
        <ele>4.2</ele>
        <time>2020-08-07T14:44:30Z</time>
      </trkpt>
      <trkpt lat="42.5412380" lon="-8.9066310">
        <ele>4.4</ele>
        <time>2020-08-07T14:44:31Z</time>
      </trkpt>
      <trkpt lat="42.5412380" lon="-8.9066310">
        <ele>4.2</ele>
        <time>2020-08-07T14:44:32Z</time>
      </trkpt>
      <trkpt lat="42.5412220" lon="-8.9065940">
        <ele>4.0</ele>
        <time>2020-08-07T14:44:33Z</time>
      </trkpt>
      <trkpt lat="42.5412220" lon="-8.9065940">
        <ele>4.2</ele>
        <time>2020-08-07T14:44:34Z</time>
      </trkpt>
      <trkpt lat="42.5412060" lon="-8.9065580">
        <ele>4.4</ele>
        <time>2020-08-07T14:44:35Z</time>
      </trkpt>
      <trkpt lat="42.5412060" lon="-8.9065580">
        <ele>4.4</ele>
        <time>2020-08-07T14:44:36Z</time>
      </trkpt>
      <trkpt lat="42.5411900" lon="-8.9065200">
        <ele>4.4</ele>
        <time>2020-08-07T14:44:37Z</time>
      </trkpt>
      <trkpt lat="42.5411900" lon="-8.9065200">
        <ele>4.6</ele>
        <time>2020-08-07T14:44:38Z</time>
      </trkpt>
      <trkpt lat="42.5411740" lon="-8.9064850">
        <ele>4.4</ele>
        <time>2020-08-07T14:44:39Z</time>
      </trkpt>
      <trkpt lat="42.5411740" lon="-8.9064850">
        <ele>4.4</ele>
        <time>2020-08-07T14:44:40Z</time>
      </trkpt>
      <trkpt lat="42.5411620" lon="-8.9064450">
        <ele>3.8</ele>
        <time>2020-08-07T14:44:41Z</time>
      </trkpt>
      <trkpt lat="42.5411620" lon="-8.9064450">
        <ele>4.2</ele>
        <time>2020-08-07T14:44:42Z</time>
      </trkpt>
      <trkpt lat="42.5411490" lon="-8.9064100">
        <ele>4.2</ele>
        <time>2020-08-07T14:44:43Z</time>
      </trkpt>
      <trkpt lat="42.5411490" lon="-8.9064100">
        <ele>4.4</ele>
        <time>2020-08-07T14:44:44Z</time>
      </trkpt>
      <trkpt lat="42.5411330" lon="-8.9063770">
        <ele>4.4</ele>
        <time>2020-08-07T14:44:45Z</time>
      </trkpt>
      <trkpt lat="42.5411330" lon="-8.9063770">
        <ele>4.2</ele>
        <time>2020-08-07T14:44:46Z</time>
      </trkpt>
      <trkpt lat="42.5411200" lon="-8.9063460">
        <ele>4.0</ele>
        <time>2020-08-07T14:44:47Z</time>
      </trkpt>
      <trkpt lat="42.5411200" lon="-8.9063460">
        <ele>4.0</ele>
        <time>2020-08-07T14:44:48Z</time>
      </trkpt>
      <trkpt lat="42.5411040" lon="-8.9063170">
        <ele>4.0</ele>
        <time>2020-08-07T14:44:49Z</time>
      </trkpt>
      <trkpt lat="42.5411040" lon="-8.9063170">
        <ele>4.4</ele>
        <time>2020-08-07T14:44:50Z</time>
      </trkpt>
      <trkpt lat="42.5410910" lon="-8.9062860">
        <ele>4.6</ele>
        <time>2020-08-07T14:44:51Z</time>
      </trkpt>
      <trkpt lat="42.5410910" lon="-8.9062860">
        <ele>4.6</ele>
        <time>2020-08-07T14:44:52Z</time>
      </trkpt>
      <trkpt lat="42.5410750" lon="-8.9062520">
        <ele>4.8</ele>
        <time>2020-08-07T14:44:53Z</time>
      </trkpt>
      <trkpt lat="42.5410750" lon="-8.9062520">
        <ele>4.8</ele>
        <time>2020-08-07T14:44:54Z</time>
      </trkpt>
      <trkpt lat="42.5410660" lon="-8.9062140">
        <ele>4.8</ele>
        <time>2020-08-07T14:44:55Z</time>
      </trkpt>
      <trkpt lat="42.5410660" lon="-8.9062140">
        <ele>4.4</ele>
        <time>2020-08-07T14:44:56Z</time>
      </trkpt>
      <trkpt lat="42.5410620" lon="-8.9061800">
        <ele>4.2</ele>
        <time>2020-08-07T14:44:57Z</time>
      </trkpt>
      <trkpt lat="42.5410620" lon="-8.9061800">
        <ele>4.0</ele>
        <time>2020-08-07T14:44:58Z</time>
      </trkpt>
      <trkpt lat="42.5410530" lon="-8.9061480">
        <ele>4.2</ele>
        <time>2020-08-07T14:44:59Z</time>
      </trkpt>
      <trkpt lat="42.5410530" lon="-8.9061480">
        <ele>4.2</ele>
        <time>2020-08-07T14:45:00Z</time>
      </trkpt>
      <trkpt lat="42.5410460" lon="-8.9061140">
        <ele>4.6</ele>
        <time>2020-08-07T14:45:01Z</time>
      </trkpt>
      <trkpt lat="42.5410460" lon="-8.9061140">
        <ele>4.6</ele>
        <time>2020-08-07T14:45:02Z</time>
      </trkpt>
      <trkpt lat="42.5410460" lon="-8.9060800">
        <ele>4.6</ele>
        <time>2020-08-07T14:45:03Z</time>
      </trkpt>
      <trkpt lat="42.5410460" lon="-8.9060800">
        <ele>4.6</ele>
        <time>2020-08-07T14:45:04Z</time>
      </trkpt>
      <trkpt lat="42.5410460" lon="-8.9060550">
        <ele>4.8</ele>
        <time>2020-08-07T14:45:05Z</time>
      </trkpt>
      <trkpt lat="42.5410460" lon="-8.9060550">
        <ele>4.4</ele>
        <time>2020-08-07T14:45:06Z</time>
      </trkpt>
      <trkpt lat="42.5410460" lon="-8.9060180">
        <ele>4.0</ele>
        <time>2020-08-07T14:45:07Z</time>
      </trkpt>
      <trkpt lat="42.5410460" lon="-8.9060180">
        <ele>3.8</ele>
        <time>2020-08-07T14:45:08Z</time>
      </trkpt>
      <trkpt lat="42.5410500" lon="-8.9059850">
        <ele>4.0</ele>
        <time>2020-08-07T14:45:09Z</time>
      </trkpt>
      <trkpt lat="42.5410500" lon="-8.9059850">
        <ele>4.0</ele>
        <time>2020-08-07T14:45:10Z</time>
      </trkpt>
      <trkpt lat="42.5410430" lon="-8.9059510">
        <ele>4.2</ele>
        <time>2020-08-07T14:45:11Z</time>
      </trkpt>
      <trkpt lat="42.5410430" lon="-8.9059510">
        <ele>4.4</ele>
        <time>2020-08-07T14:45:12Z</time>
      </trkpt>
      <trkpt lat="42.5410430" lon="-8.9059150">
        <ele>4.4</ele>
        <time>2020-08-07T14:45:13Z</time>
      </trkpt>
      <trkpt lat="42.5410430" lon="-8.9059150">
        <ele>4.2</ele>
        <time>2020-08-07T14:45:14Z</time>
      </trkpt>
      <trkpt lat="42.5410400" lon="-8.9058800">
        <ele>4.6</ele>
        <time>2020-08-07T14:45:15Z</time>
      </trkpt>
      <trkpt lat="42.5410400" lon="-8.9058800">
        <ele>4.8</ele>
        <time>2020-08-07T14:45:16Z</time>
      </trkpt>
      <trkpt lat="42.5410430" lon="-8.9058420">
        <ele>5.0</ele>
        <time>2020-08-07T14:45:17Z</time>
      </trkpt>
      <trkpt lat="42.5410430" lon="-8.9058420">
        <ele>4.6</ele>
        <time>2020-08-07T14:45:18Z</time>
      </trkpt>
      <trkpt lat="42.5410430" lon="-8.9058020">
        <ele>4.6</ele>
        <time>2020-08-07T14:45:19Z</time>
      </trkpt>
      <trkpt lat="42.5410430" lon="-8.9058020">
        <ele>5.0</ele>
        <time>2020-08-07T14:45:20Z</time>
      </trkpt>
      <trkpt lat="42.5410400" lon="-8.9057640">
        <ele>5.2</ele>
        <time>2020-08-07T14:45:21Z</time>
      </trkpt>
      <trkpt lat="42.5410400" lon="-8.9057640">
        <ele>5.6</ele>
        <time>2020-08-07T14:45:22Z</time>
      </trkpt>
      <trkpt lat="42.5410400" lon="-8.9057230">
        <ele>5.4</ele>
        <time>2020-08-07T14:45:23Z</time>
      </trkpt>
      <trkpt lat="42.5410400" lon="-8.9057230">
        <ele>5.6</ele>
        <time>2020-08-07T14:45:24Z</time>
      </trkpt>
      <trkpt lat="42.5410340" lon="-8.9056830">
        <ele>5.4</ele>
        <time>2020-08-07T14:45:25Z</time>
      </trkpt>
      <trkpt lat="42.5410340" lon="-8.9056830">
        <ele>5.2</ele>
        <time>2020-08-07T14:45:26Z</time>
      </trkpt>
      <trkpt lat="42.5410270" lon="-8.9056430">
        <ele>5.2</ele>
        <time>2020-08-07T14:45:27Z</time>
      </trkpt>
      <trkpt lat="42.5410270" lon="-8.9056430">
        <ele>5.2</ele>
        <time>2020-08-07T14:45:28Z</time>
      </trkpt>
      <trkpt lat="42.5410210" lon="-8.9056080">
        <ele>5.4</ele>
        <time>2020-08-07T14:45:29Z</time>
      </trkpt>
      <trkpt lat="42.5410210" lon="-8.9056080">
        <ele>5.6</ele>
        <time>2020-08-07T14:45:30Z</time>
      </trkpt>
      <trkpt lat="42.5410050" lon="-8.9055790">
        <ele>5.4</ele>
        <time>2020-08-07T14:45:31Z</time>
      </trkpt>
      <trkpt lat="42.5409920" lon="-8.9055620">
        <ele>5.6</ele>
        <time>2020-08-07T14:45:32Z</time>
      </trkpt>
      <trkpt lat="42.5409920" lon="-8.9055620">
        <ele>5.6</ele>
        <time>2020-08-07T14:45:33Z</time>
      </trkpt>
      <trkpt lat="42.5409760" lon="-8.9055340">
        <ele>5.8</ele>
        <time>2020-08-07T14:45:34Z</time>
      </trkpt>
      <trkpt lat="42.5409760" lon="-8.9055340">
        <ele>5.6</ele>
        <time>2020-08-07T14:45:35Z</time>
      </trkpt>
      <trkpt lat="42.5409600" lon="-8.9055020">
        <ele>5.4</ele>
        <time>2020-08-07T14:45:36Z</time>
      </trkpt>
      <trkpt lat="42.5409600" lon="-8.9055020">
        <ele>5.2</ele>
        <time>2020-08-07T14:45:37Z</time>
      </trkpt>
      <trkpt lat="42.5409440" lon="-8.9054720">
        <ele>5.0</ele>
        <time>2020-08-07T14:45:38Z</time>
      </trkpt>
      <trkpt lat="42.5409440" lon="-8.9054720">
        <ele>5.2</ele>
        <time>2020-08-07T14:45:39Z</time>
      </trkpt>
      <trkpt lat="42.5409280" lon="-8.9054420">
        <ele>5.2</ele>
        <time>2020-08-07T14:45:40Z</time>
      </trkpt>
      <trkpt lat="42.5409150" lon="-8.9054230">
        <ele>5.2</ele>
        <time>2020-08-07T14:45:41Z</time>
      </trkpt>
      <trkpt lat="42.5409150" lon="-8.9054230">
        <ele>5.4</ele>
        <time>2020-08-07T14:45:42Z</time>
      </trkpt>
      <trkpt lat="42.5408960" lon="-8.9053970">
        <ele>5.2</ele>
        <time>2020-08-07T14:45:43Z</time>
      </trkpt>
      <trkpt lat="42.5408960" lon="-8.9053970">
        <ele>5.0</ele>
        <time>2020-08-07T14:45:44Z</time>
      </trkpt>
      <trkpt lat="42.5408770" lon="-8.9053720">
        <ele>5.0</ele>
        <time>2020-08-07T14:45:45Z</time>
      </trkpt>
      <trkpt lat="42.5408770" lon="-8.9053720">
        <ele>5.4</ele>
        <time>2020-08-07T14:45:46Z</time>
      </trkpt>
      <trkpt lat="42.5408510" lon="-8.9053520">
        <ele>5.4</ele>
        <time>2020-08-07T14:45:47Z</time>
      </trkpt>
      <trkpt lat="42.5408510" lon="-8.9053520">
        <ele>5.4</ele>
        <time>2020-08-07T14:45:48Z</time>
      </trkpt>
      <trkpt lat="42.5408290" lon="-8.9053320">
        <ele>5.6</ele>
        <time>2020-08-07T14:45:49Z</time>
      </trkpt>
      <trkpt lat="42.5408290" lon="-8.9053320">
        <ele>5.4</ele>
        <time>2020-08-07T14:45:50Z</time>
      </trkpt>
      <trkpt lat="42.5408100" lon="-8.9053090">
        <ele>5.6</ele>
        <time>2020-08-07T14:45:51Z</time>
      </trkpt>
      <trkpt lat="42.5408100" lon="-8.9053090">
        <ele>5.4</ele>
        <time>2020-08-07T14:45:52Z</time>
      </trkpt>
      <trkpt lat="42.5407940" lon="-8.9052830">
        <ele>5.4</ele>
        <time>2020-08-07T14:45:53Z</time>
      </trkpt>
      <trkpt lat="42.5407940" lon="-8.9052830">
        <ele>5.2</ele>
        <time>2020-08-07T14:45:54Z</time>
      </trkpt>
      <trkpt lat="42.5407740" lon="-8.9052560">
        <ele>4.8</ele>
        <time>2020-08-07T14:45:55Z</time>
      </trkpt>
      <trkpt lat="42.5407740" lon="-8.9052560">
        <ele>4.4</ele>
        <time>2020-08-07T14:45:56Z</time>
      </trkpt>
      <trkpt lat="42.5407620" lon="-8.9052300">
        <ele>4.2</ele>
        <time>2020-08-07T14:45:57Z</time>
      </trkpt>
      <trkpt lat="42.5407620" lon="-8.9052300">
        <ele>4.0</ele>
        <time>2020-08-07T14:45:58Z</time>
      </trkpt>
      <trkpt lat="42.5407460" lon="-8.9052030">
        <ele>4.0</ele>
        <time>2020-08-07T14:45:59Z</time>
      </trkpt>
      <trkpt lat="42.5407460" lon="-8.9052030">
        <ele>4.2</ele>
        <time>2020-08-07T14:46:00Z</time>
      </trkpt>
      <trkpt lat="42.5407300" lon="-8.9051840">
        <ele>4.2</ele>
        <time>2020-08-07T14:46:01Z</time>
      </trkpt>
      <trkpt lat="42.5407300" lon="-8.9051840">
        <ele>4.0</ele>
        <time>2020-08-07T14:46:02Z</time>
      </trkpt>
      <trkpt lat="42.5407140" lon="-8.9051600">
        <ele>3.4</ele>
        <time>2020-08-07T14:46:03Z</time>
      </trkpt>
      <trkpt lat="42.5407140" lon="-8.9051600">
        <ele>3.2</ele>
        <time>2020-08-07T14:46:04Z</time>
      </trkpt>
      <trkpt lat="42.5406980" lon="-8.9051350">
        <ele>2.8</ele>
        <time>2020-08-07T14:46:05Z</time>
      </trkpt>
      <trkpt lat="42.5406980" lon="-8.9051350">
        <ele>2.8</ele>
        <time>2020-08-07T14:46:06Z</time>
      </trkpt>
      <trkpt lat="42.5406780" lon="-8.9051170">
        <ele>2.8</ele>
        <time>2020-08-07T14:46:07Z</time>
      </trkpt>
      <trkpt lat="42.5406780" lon="-8.9051170">
        <ele>2.6</ele>
        <time>2020-08-07T14:46:08Z</time>
      </trkpt>
      <trkpt lat="42.5406660" lon="-8.9050930">
        <ele>2.8</ele>
        <time>2020-08-07T14:46:09Z</time>
      </trkpt>
      <trkpt lat="42.5406660" lon="-8.9050930">
        <ele>3.0</ele>
        <time>2020-08-07T14:46:10Z</time>
      </trkpt>
      <trkpt lat="42.5406460" lon="-8.9050750">
        <ele>3.0</ele>
        <time>2020-08-07T14:46:11Z</time>
      </trkpt>
      <trkpt lat="42.5406460" lon="-8.9050750">
        <ele>3.4</ele>
        <time>2020-08-07T14:46:12Z</time>
      </trkpt>
      <trkpt lat="42.5406270" lon="-8.9050620">
        <ele>3.2</ele>
        <time>2020-08-07T14:46:13Z</time>
      </trkpt>
      <trkpt lat="42.5406270" lon="-8.9050620">
        <ele>3.2</ele>
        <time>2020-08-07T14:46:14Z</time>
      </trkpt>
      <trkpt lat="42.5406270" lon="-8.9050620">
        <ele>3.2</ele>
        <time>2020-08-07T14:46:15Z</time>
      </trkpt>
      <trkpt lat="42.5406110" lon="-8.9050400">
        <ele>3.0</ele>
        <time>2020-08-07T14:46:16Z</time>
      </trkpt>
      <trkpt lat="42.5406110" lon="-8.9050400">
        <ele>3.2</ele>
        <time>2020-08-07T14:46:17Z</time>
      </trkpt>
      <trkpt lat="42.5406110" lon="-8.9050400">
        <ele>3.4</ele>
        <time>2020-08-07T14:46:18Z</time>
      </trkpt>
      <trkpt lat="42.5405890" lon="-8.9050260">
        <ele>3.2</ele>
        <time>2020-08-07T14:46:19Z</time>
      </trkpt>
      <trkpt lat="42.5405890" lon="-8.9050260">
        <ele>3.0</ele>
        <time>2020-08-07T14:46:20Z</time>
      </trkpt>
      <trkpt lat="42.5405700" lon="-8.9050100">
        <ele>2.8</ele>
        <time>2020-08-07T14:46:21Z</time>
      </trkpt>
      <trkpt lat="42.5405700" lon="-8.9050100">
        <ele>2.8</ele>
        <time>2020-08-07T14:46:22Z</time>
      </trkpt>
      <trkpt lat="42.5405540" lon="-8.9049930">
        <ele>3.4</ele>
        <time>2020-08-07T14:46:23Z</time>
      </trkpt>
      <trkpt lat="42.5405540" lon="-8.9049930">
        <ele>3.8</ele>
        <time>2020-08-07T14:46:24Z</time>
      </trkpt>
      <trkpt lat="42.5405380" lon="-8.9049720">
        <ele>3.8</ele>
        <time>2020-08-07T14:46:25Z</time>
      </trkpt>
      <trkpt lat="42.5405380" lon="-8.9049720">
        <ele>3.6</ele>
        <time>2020-08-07T14:46:26Z</time>
      </trkpt>
      <trkpt lat="42.5405340" lon="-8.9049430">
        <ele>3.0</ele>
        <time>2020-08-07T14:46:27Z</time>
      </trkpt>
      <trkpt lat="42.5405340" lon="-8.9049430">
        <ele>2.8</ele>
        <time>2020-08-07T14:46:28Z</time>
      </trkpt>
      <trkpt lat="42.5405250" lon="-8.9049200">
        <ele>3.0</ele>
        <time>2020-08-07T14:46:29Z</time>
      </trkpt>
      <trkpt lat="42.5405250" lon="-8.9049200">
        <ele>3.2</ele>
        <time>2020-08-07T14:46:30Z</time>
      </trkpt>
      <trkpt lat="42.5405150" lon="-8.9048880">
        <ele>3.0</ele>
        <time>2020-08-07T14:46:31Z</time>
      </trkpt>
      <trkpt lat="42.5405150" lon="-8.9048880">
        <ele>3.0</ele>
        <time>2020-08-07T14:46:32Z</time>
      </trkpt>
      <trkpt lat="42.5405090" lon="-8.9048620">
        <ele>3.2</ele>
        <time>2020-08-07T14:46:33Z</time>
      </trkpt>
      <trkpt lat="42.5405090" lon="-8.9048620">
        <ele>3.2</ele>
        <time>2020-08-07T14:46:34Z</time>
      </trkpt>
      <trkpt lat="42.5405090" lon="-8.9048300">
        <ele>3.2</ele>
        <time>2020-08-07T14:46:35Z</time>
      </trkpt>
      <trkpt lat="42.5405090" lon="-8.9048300">
        <ele>3.0</ele>
        <time>2020-08-07T14:46:36Z</time>
      </trkpt>
      <trkpt lat="42.5405150" lon="-8.9048010">
        <ele>3.0</ele>
        <time>2020-08-07T14:46:37Z</time>
      </trkpt>
      <trkpt lat="42.5405150" lon="-8.9048010">
        <ele>2.8</ele>
        <time>2020-08-07T14:46:38Z</time>
      </trkpt>
      <trkpt lat="42.5405180" lon="-8.9047740">
        <ele>2.8</ele>
        <time>2020-08-07T14:46:39Z</time>
      </trkpt>
      <trkpt lat="42.5405180" lon="-8.9047740">
        <ele>2.8</ele>
        <time>2020-08-07T14:46:40Z</time>
      </trkpt>
      <trkpt lat="42.5405250" lon="-8.9047470">
        <ele>2.6</ele>
        <time>2020-08-07T14:46:41Z</time>
      </trkpt>
      <trkpt lat="42.5405250" lon="-8.9047470">
        <ele>2.6</ele>
        <time>2020-08-07T14:46:42Z</time>
      </trkpt>
      <trkpt lat="42.5405310" lon="-8.9047220">
        <ele>2.8</ele>
        <time>2020-08-07T14:46:43Z</time>
      </trkpt>
      <trkpt lat="42.5405310" lon="-8.9047220">
        <ele>3.0</ele>
        <time>2020-08-07T14:46:44Z</time>
      </trkpt>
      <trkpt lat="42.5405310" lon="-8.9047220">
        <ele>3.2</ele>
        <time>2020-08-07T14:46:45Z</time>
      </trkpt>
      <trkpt lat="42.5405310" lon="-8.9046870">
        <ele>3.6</ele>
        <time>2020-08-07T14:46:46Z</time>
      </trkpt>
      <trkpt lat="42.5405310" lon="-8.9046870">
        <ele>3.4</ele>
        <time>2020-08-07T14:46:47Z</time>
      </trkpt>
      <trkpt lat="42.5405380" lon="-8.9046580">
        <ele>3.6</ele>
        <time>2020-08-07T14:46:48Z</time>
      </trkpt>
      <trkpt lat="42.5405380" lon="-8.9046580">
        <ele>4.0</ele>
        <time>2020-08-07T14:46:49Z</time>
      </trkpt>
      <trkpt lat="42.5405470" lon="-8.9046320">
        <ele>4.0</ele>
        <time>2020-08-07T14:46:50Z</time>
      </trkpt>
      <trkpt lat="42.5405470" lon="-8.9046320">
        <ele>4.2</ele>
        <time>2020-08-07T14:46:51Z</time>
      </trkpt>
      <trkpt lat="42.5405500" lon="-8.9046070">
        <ele>4.6</ele>
        <time>2020-08-07T14:46:52Z</time>
      </trkpt>
      <trkpt lat="42.5405500" lon="-8.9046070">
        <ele>4.8</ele>
        <time>2020-08-07T14:46:53Z</time>
      </trkpt>
      <trkpt lat="42.5405630" lon="-8.9045800">
        <ele>4.6</ele>
        <time>2020-08-07T14:46:54Z</time>
      </trkpt>
      <trkpt lat="42.5405630" lon="-8.9045800">
        <ele>4.4</ele>
        <time>2020-08-07T14:46:55Z</time>
      </trkpt>
      <trkpt lat="42.5405700" lon="-8.9045550">
        <ele>4.6</ele>
        <time>2020-08-07T14:46:56Z</time>
      </trkpt>
      <trkpt lat="42.5405700" lon="-8.9045550">
        <ele>4.6</ele>
        <time>2020-08-07T14:46:57Z</time>
      </trkpt>
      <trkpt lat="42.5405730" lon="-8.9045290">
        <ele>4.4</ele>
        <time>2020-08-07T14:46:58Z</time>
      </trkpt>
      <trkpt lat="42.5405730" lon="-8.9045290">
        <ele>4.4</ele>
        <time>2020-08-07T14:46:59Z</time>
      </trkpt>
      <trkpt lat="42.5405860" lon="-8.9045000">
        <ele>4.8</ele>
        <time>2020-08-07T14:47:00Z</time>
      </trkpt>
      <trkpt lat="42.5405860" lon="-8.9045000">
        <ele>5.0</ele>
        <time>2020-08-07T14:47:01Z</time>
      </trkpt>
      <trkpt lat="42.5405950" lon="-8.9044700">
        <ele>5.0</ele>
        <time>2020-08-07T14:47:02Z</time>
      </trkpt>
      <trkpt lat="42.5405950" lon="-8.9044700">
        <ele>4.8</ele>
        <time>2020-08-07T14:47:03Z</time>
      </trkpt>
      <trkpt lat="42.5406050" lon="-8.9044450">
        <ele>4.8</ele>
        <time>2020-08-07T14:47:04Z</time>
      </trkpt>
      <trkpt lat="42.5406050" lon="-8.9044450">
        <ele>4.8</ele>
        <time>2020-08-07T14:47:05Z</time>
      </trkpt>
      <trkpt lat="42.5406140" lon="-8.9044170">
        <ele>4.8</ele>
        <time>2020-08-07T14:47:06Z</time>
      </trkpt>
      <trkpt lat="42.5406140" lon="-8.9044170">
        <ele>5.0</ele>
        <time>2020-08-07T14:47:07Z</time>
      </trkpt>
      <trkpt lat="42.5406240" lon="-8.9043890">
        <ele>5.0</ele>
        <time>2020-08-07T14:47:08Z</time>
      </trkpt>
      <trkpt lat="42.5406240" lon="-8.9043890">
        <ele>4.8</ele>
        <time>2020-08-07T14:47:09Z</time>
      </trkpt>
      <trkpt lat="42.5406240" lon="-8.9043600">
        <ele>5.0</ele>
        <time>2020-08-07T14:47:10Z</time>
      </trkpt>
      <trkpt lat="42.5406240" lon="-8.9043600">
        <ele>5.0</ele>
        <time>2020-08-07T14:47:11Z</time>
      </trkpt>
      <trkpt lat="42.5406240" lon="-8.9043310">
        <ele>5.0</ele>
        <time>2020-08-07T14:47:12Z</time>
      </trkpt>
      <trkpt lat="42.5406240" lon="-8.9043310">
        <ele>4.8</ele>
        <time>2020-08-07T14:47:13Z</time>
      </trkpt>
      <trkpt lat="42.5406240" lon="-8.9043030">
        <ele>4.6</ele>
        <time>2020-08-07T14:47:14Z</time>
      </trkpt>
      <trkpt lat="42.5406240" lon="-8.9043030">
        <ele>4.6</ele>
        <time>2020-08-07T14:47:15Z</time>
      </trkpt>
      <trkpt lat="42.5406180" lon="-8.9042780">
        <ele>4.6</ele>
        <time>2020-08-07T14:47:16Z</time>
      </trkpt>
      <trkpt lat="42.5406180" lon="-8.9042780">
        <ele>4.8</ele>
        <time>2020-08-07T14:47:17Z</time>
      </trkpt>
      <trkpt lat="42.5406140" lon="-8.9042530">
        <ele>5.0</ele>
        <time>2020-08-07T14:47:18Z</time>
      </trkpt>
      <trkpt lat="42.5406140" lon="-8.9042530">
        <ele>5.2</ele>
        <time>2020-08-07T14:47:19Z</time>
      </trkpt>
      <trkpt lat="42.5406050" lon="-8.9042260">
        <ele>5.0</ele>
        <time>2020-08-07T14:47:20Z</time>
      </trkpt>
      <trkpt lat="42.5406050" lon="-8.9042260">
        <ele>4.6</ele>
        <time>2020-08-07T14:47:21Z</time>
      </trkpt>
      <trkpt lat="42.5405950" lon="-8.9042020">
        <ele>4.4</ele>
        <time>2020-08-07T14:47:22Z</time>
      </trkpt>
      <trkpt lat="42.5405950" lon="-8.9042020">
        <ele>4.6</ele>
        <time>2020-08-07T14:47:23Z</time>
      </trkpt>
      <trkpt lat="42.5405950" lon="-8.9042020">
        <ele>4.6</ele>
        <time>2020-08-07T14:47:24Z</time>
      </trkpt>
      <trkpt lat="42.5405790" lon="-8.9041680">
        <ele>4.4</ele>
        <time>2020-08-07T14:47:25Z</time>
      </trkpt>
      <trkpt lat="42.5405790" lon="-8.9041680">
        <ele>3.8</ele>
        <time>2020-08-07T14:47:26Z</time>
      </trkpt>
      <trkpt lat="42.5405700" lon="-8.9041460">
        <ele>3.8</ele>
        <time>2020-08-07T14:47:27Z</time>
      </trkpt>
      <trkpt lat="42.5405700" lon="-8.9041460">
        <ele>3.6</ele>
        <time>2020-08-07T14:47:28Z</time>
      </trkpt>
      <trkpt lat="42.5405540" lon="-8.9041210">
        <ele>3.6</ele>
        <time>2020-08-07T14:47:29Z</time>
      </trkpt>
      <trkpt lat="42.5405540" lon="-8.9041210">
        <ele>3.8</ele>
        <time>2020-08-07T14:47:30Z</time>
      </trkpt>
      <trkpt lat="42.5405340" lon="-8.9040980">
        <ele>4.0</ele>
        <time>2020-08-07T14:47:31Z</time>
      </trkpt>
      <trkpt lat="42.5405340" lon="-8.9040980">
        <ele>4.2</ele>
        <time>2020-08-07T14:47:32Z</time>
      </trkpt>
      <trkpt lat="42.5405120" lon="-8.9040820">
        <ele>4.2</ele>
        <time>2020-08-07T14:47:33Z</time>
      </trkpt>
      <trkpt lat="42.5405120" lon="-8.9040820">
        <ele>4.2</ele>
        <time>2020-08-07T14:47:34Z</time>
      </trkpt>
      <trkpt lat="42.5404930" lon="-8.9040670">
        <ele>4.2</ele>
        <time>2020-08-07T14:47:35Z</time>
      </trkpt>
      <trkpt lat="42.5404930" lon="-8.9040670">
        <ele>4.0</ele>
        <time>2020-08-07T14:47:36Z</time>
      </trkpt>
      <trkpt lat="42.5404700" lon="-8.9040540">
        <ele>4.2</ele>
        <time>2020-08-07T14:47:37Z</time>
      </trkpt>
      <trkpt lat="42.5404700" lon="-8.9040540">
        <ele>4.0</ele>
        <time>2020-08-07T14:47:38Z</time>
      </trkpt>
      <trkpt lat="42.5404480" lon="-8.9040380">
        <ele>4.0</ele>
        <time>2020-08-07T14:47:39Z</time>
      </trkpt>
      <trkpt lat="42.5404480" lon="-8.9040380">
        <ele>4.0</ele>
        <time>2020-08-07T14:47:40Z</time>
      </trkpt>
      <trkpt lat="42.5404260" lon="-8.9040220">
        <ele>3.8</ele>
        <time>2020-08-07T14:47:41Z</time>
      </trkpt>
      <trkpt lat="42.5404260" lon="-8.9040220">
        <ele>3.6</ele>
        <time>2020-08-07T14:47:42Z</time>
      </trkpt>
      <trkpt lat="42.5404060" lon="-8.9040020">
        <ele>3.4</ele>
        <time>2020-08-07T14:47:43Z</time>
      </trkpt>
      <trkpt lat="42.5404060" lon="-8.9040020">
        <ele>3.4</ele>
        <time>2020-08-07T14:47:44Z</time>
      </trkpt>
      <trkpt lat="42.5403870" lon="-8.9039850">
        <ele>3.0</ele>
        <time>2020-08-07T14:47:45Z</time>
      </trkpt>
      <trkpt lat="42.5403870" lon="-8.9039850">
        <ele>2.4</ele>
        <time>2020-08-07T14:47:46Z</time>
      </trkpt>
      <trkpt lat="42.5403650" lon="-8.9039670">
        <ele>2.6</ele>
        <time>2020-08-07T14:47:47Z</time>
      </trkpt>
      <trkpt lat="42.5403650" lon="-8.9039670">
        <ele>2.4</ele>
        <time>2020-08-07T14:47:48Z</time>
      </trkpt>
      <trkpt lat="42.5403390" lon="-8.9039540">
        <ele>2.4</ele>
        <time>2020-08-07T14:47:49Z</time>
      </trkpt>
      <trkpt lat="42.5403390" lon="-8.9039540">
        <ele>2.6</ele>
        <time>2020-08-07T14:47:50Z</time>
      </trkpt>
      <trkpt lat="42.5403200" lon="-8.9039380">
        <ele>2.6</ele>
        <time>2020-08-07T14:47:51Z</time>
      </trkpt>
      <trkpt lat="42.5403200" lon="-8.9039380">
        <ele>2.0</ele>
        <time>2020-08-07T14:47:52Z</time>
      </trkpt>
      <trkpt lat="42.5402980" lon="-8.9039250">
        <ele>2.6</ele>
        <time>2020-08-07T14:47:53Z</time>
      </trkpt>
      <trkpt lat="42.5402980" lon="-8.9039250">
        <ele>2.6</ele>
        <time>2020-08-07T14:47:54Z</time>
      </trkpt>
      <trkpt lat="42.5402720" lon="-8.9039150">
        <ele>2.6</ele>
        <time>2020-08-07T14:47:55Z</time>
      </trkpt>
      <trkpt lat="42.5402720" lon="-8.9039150">
        <ele>2.8</ele>
        <time>2020-08-07T14:47:56Z</time>
      </trkpt>
      <trkpt lat="42.5402530" lon="-8.9039020">
        <ele>3.2</ele>
        <time>2020-08-07T14:47:57Z</time>
      </trkpt>
      <trkpt lat="42.5402530" lon="-8.9039020">
        <ele>3.4</ele>
        <time>2020-08-07T14:47:58Z</time>
      </trkpt>
      <trkpt lat="42.5402300" lon="-8.9038890">
        <ele>3.6</ele>
        <time>2020-08-07T14:47:59Z</time>
      </trkpt>
      <trkpt lat="42.5402300" lon="-8.9038890">
        <ele>3.6</ele>
        <time>2020-08-07T14:48:00Z</time>
      </trkpt>
      <trkpt lat="42.5402080" lon="-8.9038760">
        <ele>3.6</ele>
        <time>2020-08-07T14:48:01Z</time>
      </trkpt>
      <trkpt lat="42.5402080" lon="-8.9038760">
        <ele>3.4</ele>
        <time>2020-08-07T14:48:02Z</time>
      </trkpt>
      <trkpt lat="42.5401890" lon="-8.9038630">
        <ele>3.6</ele>
        <time>2020-08-07T14:48:03Z</time>
      </trkpt>
      <trkpt lat="42.5401890" lon="-8.9038630">
        <ele>3.6</ele>
        <time>2020-08-07T14:48:04Z</time>
      </trkpt>
      <trkpt lat="42.5401700" lon="-8.9038460">
        <ele>3.8</ele>
        <time>2020-08-07T14:48:05Z</time>
      </trkpt>
      <trkpt lat="42.5401700" lon="-8.9038460">
        <ele>3.6</ele>
        <time>2020-08-07T14:48:06Z</time>
      </trkpt>
      <trkpt lat="42.5401500" lon="-8.9038310">
        <ele>3.8</ele>
        <time>2020-08-07T14:48:07Z</time>
      </trkpt>
      <trkpt lat="42.5401500" lon="-8.9038310">
        <ele>3.8</ele>
        <time>2020-08-07T14:48:08Z</time>
      </trkpt>
      <trkpt lat="42.5401280" lon="-8.9038220">
        <ele>3.6</ele>
        <time>2020-08-07T14:48:09Z</time>
      </trkpt>
      <trkpt lat="42.5401280" lon="-8.9038220">
        <ele>3.6</ele>
        <time>2020-08-07T14:48:10Z</time>
      </trkpt>
      <trkpt lat="42.5401280" lon="-8.9038220">
        <ele>3.6</ele>
        <time>2020-08-07T14:48:11Z</time>
      </trkpt>
      <trkpt lat="42.5400990" lon="-8.9038110">
        <ele>3.6</ele>
        <time>2020-08-07T14:48:12Z</time>
      </trkpt>
      <trkpt lat="42.5400990" lon="-8.9038110">
        <ele>3.8</ele>
        <time>2020-08-07T14:48:13Z</time>
      </trkpt>
      <trkpt lat="42.5400990" lon="-8.9038110">
        <ele>4.0</ele>
        <time>2020-08-07T14:48:14Z</time>
      </trkpt>
      <trkpt lat="42.5400740" lon="-8.9037940">
        <ele>3.8</ele>
        <time>2020-08-07T14:48:15Z</time>
      </trkpt>
      <trkpt lat="42.5400740" lon="-8.9037940">
        <ele>3.8</ele>
        <time>2020-08-07T14:48:16Z</time>
      </trkpt>
      <trkpt lat="42.5400540" lon="-8.9037750">
        <ele>3.8</ele>
        <time>2020-08-07T14:48:17Z</time>
      </trkpt>
      <trkpt lat="42.5400540" lon="-8.9037750">
        <ele>3.8</ele>
        <time>2020-08-07T14:48:18Z</time>
      </trkpt>
      <trkpt lat="42.5400350" lon="-8.9037600">
        <ele>3.4</ele>
        <time>2020-08-07T14:48:19Z</time>
      </trkpt>
      <trkpt lat="42.5400350" lon="-8.9037600">
        <ele>3.4</ele>
        <time>2020-08-07T14:48:20Z</time>
      </trkpt>
      <trkpt lat="42.5400160" lon="-8.9037420">
        <ele>3.2</ele>
        <time>2020-08-07T14:48:21Z</time>
      </trkpt>
      <trkpt lat="42.5400160" lon="-8.9037420">
        <ele>3.2</ele>
        <time>2020-08-07T14:48:22Z</time>
      </trkpt>
      <trkpt lat="42.5400000" lon="-8.9037260">
        <ele>3.0</ele>
        <time>2020-08-07T14:48:23Z</time>
      </trkpt>
      <trkpt lat="42.5400000" lon="-8.9037260">
        <ele>2.8</ele>
        <time>2020-08-07T14:48:24Z</time>
      </trkpt>
      <trkpt lat="42.5399810" lon="-8.9037180">
        <ele>2.8</ele>
        <time>2020-08-07T14:48:25Z</time>
      </trkpt>
      <trkpt lat="42.5399810" lon="-8.9037180">
        <ele>2.8</ele>
        <time>2020-08-07T14:48:26Z</time>
      </trkpt>
      <trkpt lat="42.5399550" lon="-8.9037090">
        <ele>2.8</ele>
        <time>2020-08-07T14:48:27Z</time>
      </trkpt>
      <trkpt lat="42.5399550" lon="-8.9037090">
        <ele>2.6</ele>
        <time>2020-08-07T14:48:28Z</time>
      </trkpt>
      <trkpt lat="42.5399360" lon="-8.9037000">
        <ele>2.6</ele>
        <time>2020-08-07T14:48:29Z</time>
      </trkpt>
      <trkpt lat="42.5399360" lon="-8.9037000">
        <ele>2.8</ele>
        <time>2020-08-07T14:48:30Z</time>
      </trkpt>
      <trkpt lat="42.5399140" lon="-8.9036910">
        <ele>2.6</ele>
        <time>2020-08-07T14:48:31Z</time>
      </trkpt>
      <trkpt lat="42.5399140" lon="-8.9036910">
        <ele>2.8</ele>
        <time>2020-08-07T14:48:32Z</time>
      </trkpt>
      <trkpt lat="42.5398880" lon="-8.9036820">
        <ele>2.8</ele>
        <time>2020-08-07T14:48:33Z</time>
      </trkpt>
      <trkpt lat="42.5398880" lon="-8.9036820">
        <ele>2.8</ele>
        <time>2020-08-07T14:48:34Z</time>
      </trkpt>
      <trkpt lat="42.5398620" lon="-8.9036710">
        <ele>3.2</ele>
        <time>2020-08-07T14:48:35Z</time>
      </trkpt>
      <trkpt lat="42.5398620" lon="-8.9036710">
        <ele>3.2</ele>
        <time>2020-08-07T14:48:36Z</time>
      </trkpt>
      <trkpt lat="42.5398370" lon="-8.9036640">
        <ele>3.8</ele>
        <time>2020-08-07T14:48:37Z</time>
      </trkpt>
      <trkpt lat="42.5398370" lon="-8.9036640">
        <ele>3.6</ele>
        <time>2020-08-07T14:48:38Z</time>
      </trkpt>
      <trkpt lat="42.5398140" lon="-8.9036480">
        <ele>3.6</ele>
        <time>2020-08-07T14:48:39Z</time>
      </trkpt>
      <trkpt lat="42.5398140" lon="-8.9036480">
        <ele>3.0</ele>
        <time>2020-08-07T14:48:40Z</time>
      </trkpt>
      <trkpt lat="42.5397920" lon="-8.9036330">
        <ele>3.2</ele>
        <time>2020-08-07T14:48:41Z</time>
      </trkpt>
      <trkpt lat="42.5397920" lon="-8.9036330">
        <ele>3.4</ele>
        <time>2020-08-07T14:48:42Z</time>
      </trkpt>
      <trkpt lat="42.5397730" lon="-8.9036200">
        <ele>3.6</ele>
        <time>2020-08-07T14:48:43Z</time>
      </trkpt>
      <trkpt lat="42.5397730" lon="-8.9036200">
        <ele>3.8</ele>
        <time>2020-08-07T14:48:44Z</time>
      </trkpt>
      <trkpt lat="42.5397500" lon="-8.9036050">
        <ele>3.8</ele>
        <time>2020-08-07T14:48:45Z</time>
      </trkpt>
      <trkpt lat="42.5397500" lon="-8.9036050">
        <ele>4.0</ele>
        <time>2020-08-07T14:48:46Z</time>
      </trkpt>
      <trkpt lat="42.5397310" lon="-8.9035900">
        <ele>3.6</ele>
        <time>2020-08-07T14:48:47Z</time>
      </trkpt>
      <trkpt lat="42.5397310" lon="-8.9035900">
        <ele>3.8</ele>
        <time>2020-08-07T14:48:48Z</time>
      </trkpt>
      <trkpt lat="42.5397060" lon="-8.9035700">
        <ele>3.8</ele>
        <time>2020-08-07T14:48:49Z</time>
      </trkpt>
      <trkpt lat="42.5397060" lon="-8.9035700">
        <ele>3.6</ele>
        <time>2020-08-07T14:48:50Z</time>
      </trkpt>
      <trkpt lat="42.5396900" lon="-8.9035460">
        <ele>3.6</ele>
        <time>2020-08-07T14:48:51Z</time>
      </trkpt>
      <trkpt lat="42.5396900" lon="-8.9035460">
        <ele>3.6</ele>
        <time>2020-08-07T14:48:52Z</time>
      </trkpt>
      <trkpt lat="42.5396700" lon="-8.9035280">
        <ele>3.6</ele>
        <time>2020-08-07T14:48:53Z</time>
      </trkpt>
      <trkpt lat="42.5396700" lon="-8.9035280">
        <ele>3.6</ele>
        <time>2020-08-07T14:48:54Z</time>
      </trkpt>
      <trkpt lat="42.5396450" lon="-8.9035130">
        <ele>4.0</ele>
        <time>2020-08-07T14:48:55Z</time>
      </trkpt>
      <trkpt lat="42.5396450" lon="-8.9035130">
        <ele>4.0</ele>
        <time>2020-08-07T14:48:56Z</time>
      </trkpt>
      <trkpt lat="42.5396220" lon="-8.9034980">
        <ele>3.8</ele>
        <time>2020-08-07T14:48:57Z</time>
      </trkpt>
      <trkpt lat="42.5396220" lon="-8.9034980">
        <ele>3.4</ele>
        <time>2020-08-07T14:48:58Z</time>
      </trkpt>
      <trkpt lat="42.5396000" lon="-8.9034880">
        <ele>3.2</ele>
        <time>2020-08-07T14:48:59Z</time>
      </trkpt>
      <trkpt lat="42.5396000" lon="-8.9034880">
        <ele>3.0</ele>
        <time>2020-08-07T14:49:00Z</time>
      </trkpt>
      <trkpt lat="42.5396000" lon="-8.9034880">
        <ele>3.2</ele>
        <time>2020-08-07T14:49:01Z</time>
      </trkpt>
      <trkpt lat="42.5395740" lon="-8.9034730">
        <ele>3.4</ele>
        <time>2020-08-07T14:49:02Z</time>
      </trkpt>
      <trkpt lat="42.5395740" lon="-8.9034730">
        <ele>3.0</ele>
        <time>2020-08-07T14:49:03Z</time>
      </trkpt>
      <trkpt lat="42.5395580" lon="-8.9034590">
        <ele>3.0</ele>
        <time>2020-08-07T14:49:04Z</time>
      </trkpt>
      <trkpt lat="42.5395580" lon="-8.9034590">
        <ele>3.2</ele>
        <time>2020-08-07T14:49:05Z</time>
      </trkpt>
      <trkpt lat="42.5395390" lon="-8.9034430">
        <ele>3.4</ele>
        <time>2020-08-07T14:49:06Z</time>
      </trkpt>
      <trkpt lat="42.5395390" lon="-8.9034430">
        <ele>3.4</ele>
        <time>2020-08-07T14:49:07Z</time>
      </trkpt>
      <trkpt lat="42.5395200" lon="-8.9034280">
        <ele>3.6</ele>
        <time>2020-08-07T14:49:08Z</time>
      </trkpt>
      <trkpt lat="42.5395200" lon="-8.9034280">
        <ele>3.8</ele>
        <time>2020-08-07T14:49:09Z</time>
      </trkpt>
      <trkpt lat="42.5394940" lon="-8.9034140">
        <ele>3.8</ele>
        <time>2020-08-07T14:49:10Z</time>
      </trkpt>
      <trkpt lat="42.5394940" lon="-8.9034140">
        <ele>3.8</ele>
        <time>2020-08-07T14:49:11Z</time>
      </trkpt>
      <trkpt lat="42.5394750" lon="-8.9033970">
        <ele>3.8</ele>
        <time>2020-08-07T14:49:12Z</time>
      </trkpt>
      <trkpt lat="42.5394750" lon="-8.9033970">
        <ele>4.2</ele>
        <time>2020-08-07T14:49:13Z</time>
      </trkpt>
      <trkpt lat="42.5394530" lon="-8.9033820">
        <ele>4.4</ele>
        <time>2020-08-07T14:49:14Z</time>
      </trkpt>
      <trkpt lat="42.5394530" lon="-8.9033820">
        <ele>4.6</ele>
        <time>2020-08-07T14:49:15Z</time>
      </trkpt>
      <trkpt lat="42.5394270" lon="-8.9033700">
        <ele>4.8</ele>
        <time>2020-08-07T14:49:16Z</time>
      </trkpt>
      <trkpt lat="42.5394270" lon="-8.9033700">
        <ele>4.8</ele>
        <time>2020-08-07T14:49:17Z</time>
      </trkpt>
      <trkpt lat="42.5394050" lon="-8.9033600">
        <ele>4.6</ele>
        <time>2020-08-07T14:49:18Z</time>
      </trkpt>
      <trkpt lat="42.5394050" lon="-8.9033600">
        <ele>4.6</ele>
        <time>2020-08-07T14:49:19Z</time>
      </trkpt>
      <trkpt lat="42.5393820" lon="-8.9033520">
        <ele>4.8</ele>
        <time>2020-08-07T14:49:20Z</time>
      </trkpt>
      <trkpt lat="42.5393820" lon="-8.9033520">
        <ele>5.2</ele>
        <time>2020-08-07T14:49:21Z</time>
      </trkpt>
      <trkpt lat="42.5393600" lon="-8.9033370">
        <ele>5.4</ele>
        <time>2020-08-07T14:49:22Z</time>
      </trkpt>
      <trkpt lat="42.5393600" lon="-8.9033370">
        <ele>5.6</ele>
        <time>2020-08-07T14:49:23Z</time>
      </trkpt>
      <trkpt lat="42.5393380" lon="-8.9033270">
        <ele>5.6</ele>
        <time>2020-08-07T14:49:24Z</time>
      </trkpt>
      <trkpt lat="42.5393380" lon="-8.9033270">
        <ele>5.4</ele>
        <time>2020-08-07T14:49:25Z</time>
      </trkpt>
      <trkpt lat="42.5393150" lon="-8.9033100">
        <ele>5.4</ele>
        <time>2020-08-07T14:49:26Z</time>
      </trkpt>
      <trkpt lat="42.5393150" lon="-8.9033100">
        <ele>5.4</ele>
        <time>2020-08-07T14:49:27Z</time>
      </trkpt>
      <trkpt lat="42.5392860" lon="-8.9032940">
        <ele>5.6</ele>
        <time>2020-08-07T14:49:28Z</time>
      </trkpt>
      <trkpt lat="42.5392860" lon="-8.9032940">
        <ele>5.4</ele>
        <time>2020-08-07T14:49:29Z</time>
      </trkpt>
      <trkpt lat="42.5392640" lon="-8.9032720">
        <ele>5.4</ele>
        <time>2020-08-07T14:49:30Z</time>
      </trkpt>
      <trkpt lat="42.5392640" lon="-8.9032720">
        <ele>5.2</ele>
        <time>2020-08-07T14:49:31Z</time>
      </trkpt>
      <trkpt lat="42.5392450" lon="-8.9032470">
        <ele>5.0</ele>
        <time>2020-08-07T14:49:32Z</time>
      </trkpt>
      <trkpt lat="42.5392450" lon="-8.9032470">
        <ele>4.8</ele>
        <time>2020-08-07T14:49:33Z</time>
      </trkpt>
      <trkpt lat="42.5392260" lon="-8.9032270">
        <ele>5.0</ele>
        <time>2020-08-07T14:49:34Z</time>
      </trkpt>
      <trkpt lat="42.5392260" lon="-8.9032270">
        <ele>4.8</ele>
        <time>2020-08-07T14:49:35Z</time>
      </trkpt>
      <trkpt lat="42.5392060" lon="-8.9032090">
        <ele>4.4</ele>
        <time>2020-08-07T14:49:36Z</time>
      </trkpt>
      <trkpt lat="42.5392060" lon="-8.9032090">
        <ele>4.2</ele>
        <time>2020-08-07T14:49:37Z</time>
      </trkpt>
      <trkpt lat="42.5391870" lon="-8.9031940">
        <ele>4.0</ele>
        <time>2020-08-07T14:49:38Z</time>
      </trkpt>
      <trkpt lat="42.5391870" lon="-8.9031940">
        <ele>4.0</ele>
        <time>2020-08-07T14:49:39Z</time>
      </trkpt>
      <trkpt lat="42.5391680" lon="-8.9031860">
        <ele>3.8</ele>
        <time>2020-08-07T14:49:40Z</time>
      </trkpt>
      <trkpt lat="42.5391680" lon="-8.9031860">
        <ele>3.6</ele>
        <time>2020-08-07T14:49:41Z</time>
      </trkpt>
      <trkpt lat="42.5391460" lon="-8.9031740">
        <ele>3.6</ele>
        <time>2020-08-07T14:49:42Z</time>
      </trkpt>
      <trkpt lat="42.5391460" lon="-8.9031740">
        <ele>3.8</ele>
        <time>2020-08-07T14:49:43Z</time>
      </trkpt>
      <trkpt lat="42.5391230" lon="-8.9031600">
        <ele>3.4</ele>
        <time>2020-08-07T14:49:44Z</time>
      </trkpt>
      <trkpt lat="42.5391230" lon="-8.9031600">
        <ele>3.2</ele>
        <time>2020-08-07T14:49:45Z</time>
      </trkpt>
      <trkpt lat="42.5391040" lon="-8.9031430">
        <ele>2.8</ele>
        <time>2020-08-07T14:49:46Z</time>
      </trkpt>
      <trkpt lat="42.5391040" lon="-8.9031430">
        <ele>2.6</ele>
        <time>2020-08-07T14:49:47Z</time>
      </trkpt>
      <trkpt lat="42.5390780" lon="-8.9031230">
        <ele>2.6</ele>
        <time>2020-08-07T14:49:48Z</time>
      </trkpt>
      <trkpt lat="42.5390780" lon="-8.9031230">
        <ele>2.6</ele>
        <time>2020-08-07T14:49:49Z</time>
      </trkpt>
      <trkpt lat="42.5390590" lon="-8.9030980">
        <ele>2.8</ele>
        <time>2020-08-07T14:49:50Z</time>
      </trkpt>
      <trkpt lat="42.5390590" lon="-8.9030980">
        <ele>3.2</ele>
        <time>2020-08-07T14:49:51Z</time>
      </trkpt>
      <trkpt lat="42.5390400" lon="-8.9030710">
        <ele>3.8</ele>
        <time>2020-08-07T14:49:52Z</time>
      </trkpt>
      <trkpt lat="42.5390400" lon="-8.9030710">
        <ele>3.8</ele>
        <time>2020-08-07T14:49:53Z</time>
      </trkpt>
      <trkpt lat="42.5390240" lon="-8.9030450">
        <ele>3.8</ele>
        <time>2020-08-07T14:49:54Z</time>
      </trkpt>
      <trkpt lat="42.5390240" lon="-8.9030450">
        <ele>3.8</ele>
        <time>2020-08-07T14:49:55Z</time>
      </trkpt>
      <trkpt lat="42.5390080" lon="-8.9030150">
        <ele>3.4</ele>
        <time>2020-08-07T14:49:56Z</time>
      </trkpt>
      <trkpt lat="42.5390080" lon="-8.9030150">
        <ele>3.2</ele>
        <time>2020-08-07T14:49:57Z</time>
      </trkpt>
      <trkpt lat="42.5389950" lon="-8.9029890">
        <ele>3.4</ele>
        <time>2020-08-07T14:49:58Z</time>
      </trkpt>
      <trkpt lat="42.5389950" lon="-8.9029890">
        <ele>3.6</ele>
        <time>2020-08-07T14:49:59Z</time>
      </trkpt>
      <trkpt lat="42.5389820" lon="-8.9029580">
        <ele>3.8</ele>
        <time>2020-08-07T14:50:00Z</time>
      </trkpt>
      <trkpt lat="42.5389820" lon="-8.9029580">
        <ele>3.4</ele>
        <time>2020-08-07T14:50:01Z</time>
      </trkpt>
      <trkpt lat="42.5389700" lon="-8.9029230">
        <ele>3.6</ele>
        <time>2020-08-07T14:50:02Z</time>
      </trkpt>
      <trkpt lat="42.5389700" lon="-8.9029230">
        <ele>3.2</ele>
        <time>2020-08-07T14:50:03Z</time>
      </trkpt>
      <trkpt lat="42.5389600" lon="-8.9028860">
        <ele>3.2</ele>
        <time>2020-08-07T14:50:04Z</time>
      </trkpt>
      <trkpt lat="42.5389600" lon="-8.9028860">
        <ele>2.8</ele>
        <time>2020-08-07T14:50:05Z</time>
      </trkpt>
      <trkpt lat="42.5389570" lon="-8.9028500">
        <ele>2.6</ele>
        <time>2020-08-07T14:50:06Z</time>
      </trkpt>
      <trkpt lat="42.5389570" lon="-8.9028500">
        <ele>3.0</ele>
        <time>2020-08-07T14:50:07Z</time>
      </trkpt>
      <trkpt lat="42.5389500" lon="-8.9028130">
        <ele>3.2</ele>
        <time>2020-08-07T14:50:08Z</time>
      </trkpt>
      <trkpt lat="42.5389500" lon="-8.9028130">
        <ele>3.6</ele>
        <time>2020-08-07T14:50:09Z</time>
      </trkpt>
      <trkpt lat="42.5389570" lon="-8.9027820">
        <ele>3.8</ele>
        <time>2020-08-07T14:50:10Z</time>
      </trkpt>
      <trkpt lat="42.5389570" lon="-8.9027820">
        <ele>3.8</ele>
        <time>2020-08-07T14:50:11Z</time>
      </trkpt>
      <trkpt lat="42.5389630" lon="-8.9027460">
        <ele>4.0</ele>
        <time>2020-08-07T14:50:12Z</time>
      </trkpt>
      <trkpt lat="42.5389630" lon="-8.9027460">
        <ele>4.0</ele>
        <time>2020-08-07T14:50:13Z</time>
      </trkpt>
      <trkpt lat="42.5389630" lon="-8.9027190">
        <ele>4.4</ele>
        <time>2020-08-07T14:50:14Z</time>
      </trkpt>
      <trkpt lat="42.5389630" lon="-8.9027190">
        <ele>4.4</ele>
        <time>2020-08-07T14:50:15Z</time>
      </trkpt>
      <trkpt lat="42.5389700" lon="-8.9026900">
        <ele>4.2</ele>
        <time>2020-08-07T14:50:16Z</time>
      </trkpt>
      <trkpt lat="42.5389700" lon="-8.9026900">
        <ele>4.2</ele>
        <time>2020-08-07T14:50:17Z</time>
      </trkpt>
      <trkpt lat="42.5389790" lon="-8.9026600">
        <ele>3.6</ele>
        <time>2020-08-07T14:50:18Z</time>
      </trkpt>
      <trkpt lat="42.5389790" lon="-8.9026600">
        <ele>3.2</ele>
        <time>2020-08-07T14:50:19Z</time>
      </trkpt>
      <trkpt lat="42.5389860" lon="-8.9026270">
        <ele>3.6</ele>
        <time>2020-08-07T14:50:20Z</time>
      </trkpt>
      <trkpt lat="42.5389860" lon="-8.9026270">
        <ele>3.8</ele>
        <time>2020-08-07T14:50:21Z</time>
      </trkpt>
      <trkpt lat="42.5389890" lon="-8.9025940">
        <ele>4.0</ele>
        <time>2020-08-07T14:50:22Z</time>
      </trkpt>
      <trkpt lat="42.5389890" lon="-8.9025940">
        <ele>4.2</ele>
        <time>2020-08-07T14:50:23Z</time>
      </trkpt>
      <trkpt lat="42.5389950" lon="-8.9025580">
        <ele>4.2</ele>
        <time>2020-08-07T14:50:24Z</time>
      </trkpt>
      <trkpt lat="42.5389950" lon="-8.9025580">
        <ele>4.4</ele>
        <time>2020-08-07T14:50:25Z</time>
      </trkpt>
      <trkpt lat="42.5390050" lon="-8.9025230">
        <ele>4.4</ele>
        <time>2020-08-07T14:50:26Z</time>
      </trkpt>
      <trkpt lat="42.5390050" lon="-8.9025230">
        <ele>4.8</ele>
        <time>2020-08-07T14:50:27Z</time>
      </trkpt>
      <trkpt lat="42.5390080" lon="-8.9024960">
        <ele>4.8</ele>
        <time>2020-08-07T14:50:28Z</time>
      </trkpt>
      <trkpt lat="42.5390080" lon="-8.9024960">
        <ele>5.0</ele>
        <time>2020-08-07T14:50:29Z</time>
      </trkpt>
      <trkpt lat="42.5390180" lon="-8.9024650">
        <ele>5.2</ele>
        <time>2020-08-07T14:50:30Z</time>
      </trkpt>
      <trkpt lat="42.5390180" lon="-8.9024650">
        <ele>5.0</ele>
        <time>2020-08-07T14:50:31Z</time>
      </trkpt>
      <trkpt lat="42.5390270" lon="-8.9024310">
        <ele>4.8</ele>
        <time>2020-08-07T14:50:32Z</time>
      </trkpt>
      <trkpt lat="42.5390270" lon="-8.9024310">
        <ele>4.6</ele>
        <time>2020-08-07T14:50:33Z</time>
      </trkpt>
      <trkpt lat="42.5390400" lon="-8.9023980">
        <ele>4.6</ele>
        <time>2020-08-07T14:50:34Z</time>
      </trkpt>
      <trkpt lat="42.5390400" lon="-8.9023980">
        <ele>4.6</ele>
        <time>2020-08-07T14:50:35Z</time>
      </trkpt>
      <trkpt lat="42.5390430" lon="-8.9023650">
        <ele>4.6</ele>
        <time>2020-08-07T14:50:36Z</time>
      </trkpt>
      <trkpt lat="42.5390430" lon="-8.9023650">
        <ele>4.8</ele>
        <time>2020-08-07T14:50:37Z</time>
      </trkpt>
      <trkpt lat="42.5390560" lon="-8.9023300">
        <ele>4.8</ele>
        <time>2020-08-07T14:50:38Z</time>
      </trkpt>
      <trkpt lat="42.5390560" lon="-8.9023300">
        <ele>4.8</ele>
        <time>2020-08-07T14:50:39Z</time>
      </trkpt>
      <trkpt lat="42.5390620" lon="-8.9023020">
        <ele>5.0</ele>
        <time>2020-08-07T14:50:40Z</time>
      </trkpt>
      <trkpt lat="42.5390620" lon="-8.9023020">
        <ele>5.2</ele>
        <time>2020-08-07T14:50:41Z</time>
      </trkpt>
      <trkpt lat="42.5390690" lon="-8.9022730">
        <ele>5.4</ele>
        <time>2020-08-07T14:50:42Z</time>
      </trkpt>
      <trkpt lat="42.5390690" lon="-8.9022730">
        <ele>5.4</ele>
        <time>2020-08-07T14:50:43Z</time>
      </trkpt>
      <trkpt lat="42.5390820" lon="-8.9022440">
        <ele>5.4</ele>
        <time>2020-08-07T14:50:44Z</time>
      </trkpt>
      <trkpt lat="42.5390820" lon="-8.9022440">
        <ele>5.6</ele>
        <time>2020-08-07T14:50:45Z</time>
      </trkpt>
      <trkpt lat="42.5390880" lon="-8.9022100">
        <ele>5.4</ele>
        <time>2020-08-07T14:50:46Z</time>
      </trkpt>
      <trkpt lat="42.5390880" lon="-8.9022100">
        <ele>5.4</ele>
        <time>2020-08-07T14:50:47Z</time>
      </trkpt>
      <trkpt lat="42.5390980" lon="-8.9021800">
        <ele>5.4</ele>
        <time>2020-08-07T14:50:48Z</time>
      </trkpt>
      <trkpt lat="42.5390980" lon="-8.9021800">
        <ele>5.6</ele>
        <time>2020-08-07T14:50:49Z</time>
      </trkpt>
      <trkpt lat="42.5391040" lon="-8.9021530">
        <ele>5.8</ele>
        <time>2020-08-07T14:50:50Z</time>
      </trkpt>
      <trkpt lat="42.5391040" lon="-8.9021530">
        <ele>5.8</ele>
        <time>2020-08-07T14:50:51Z</time>
      </trkpt>
      <trkpt lat="42.5391170" lon="-8.9021280">
        <ele>5.8</ele>
        <time>2020-08-07T14:50:52Z</time>
      </trkpt>
      <trkpt lat="42.5391170" lon="-8.9021280">
        <ele>6.0</ele>
        <time>2020-08-07T14:50:53Z</time>
      </trkpt>
      <trkpt lat="42.5391230" lon="-8.9021020">
        <ele>5.8</ele>
        <time>2020-08-07T14:50:54Z</time>
      </trkpt>
      <trkpt lat="42.5391230" lon="-8.9021020">
        <ele>6.0</ele>
        <time>2020-08-07T14:50:55Z</time>
      </trkpt>
      <trkpt lat="42.5391360" lon="-8.9020780">
        <ele>6.6</ele>
        <time>2020-08-07T14:50:56Z</time>
      </trkpt>
      <trkpt lat="42.5391360" lon="-8.9020780">
        <ele>6.6</ele>
        <time>2020-08-07T14:50:57Z</time>
      </trkpt>
      <trkpt lat="42.5391460" lon="-8.9020570">
        <ele>7.0</ele>
        <time>2020-08-07T14:50:58Z</time>
      </trkpt>
      <trkpt lat="42.5391460" lon="-8.9020570">
        <ele>7.2</ele>
        <time>2020-08-07T14:50:59Z</time>
      </trkpt>
      <trkpt lat="42.5391620" lon="-8.9020340">
        <ele>7.4</ele>
        <time>2020-08-07T14:51:00Z</time>
      </trkpt>
      <trkpt lat="42.5391620" lon="-8.9020340">
        <ele>7.2</ele>
        <time>2020-08-07T14:51:01Z</time>
      </trkpt>
      <trkpt lat="42.5391780" lon="-8.9020070">
        <ele>7.2</ele>
        <time>2020-08-07T14:51:02Z</time>
      </trkpt>
      <trkpt lat="42.5391780" lon="-8.9020070">
        <ele>7.2</ele>
        <time>2020-08-07T14:51:03Z</time>
      </trkpt>
      <trkpt lat="42.5391970" lon="-8.9019780">
        <ele>7.2</ele>
        <time>2020-08-07T14:51:04Z</time>
      </trkpt>
      <trkpt lat="42.5391970" lon="-8.9019780">
        <ele>7.0</ele>
        <time>2020-08-07T14:51:05Z</time>
      </trkpt>
      <trkpt lat="42.5392130" lon="-8.9019480">
        <ele>7.0</ele>
        <time>2020-08-07T14:51:06Z</time>
      </trkpt>
      <trkpt lat="42.5392130" lon="-8.9019480">
        <ele>6.8</ele>
        <time>2020-08-07T14:51:07Z</time>
      </trkpt>
      <trkpt lat="42.5392290" lon="-8.9019170">
        <ele>6.6</ele>
        <time>2020-08-07T14:51:08Z</time>
      </trkpt>
      <trkpt lat="42.5392290" lon="-8.9019170">
        <ele>6.4</ele>
        <time>2020-08-07T14:51:09Z</time>
      </trkpt>
      <trkpt lat="42.5392450" lon="-8.9018880">
        <ele>6.2</ele>
        <time>2020-08-07T14:51:10Z</time>
      </trkpt>
      <trkpt lat="42.5392450" lon="-8.9018880">
        <ele>6.2</ele>
        <time>2020-08-07T14:51:11Z</time>
      </trkpt>
      <trkpt lat="42.5392610" lon="-8.9018580">
        <ele>6.0</ele>
        <time>2020-08-07T14:51:12Z</time>
      </trkpt>
      <trkpt lat="42.5392610" lon="-8.9018580">
        <ele>6.0</ele>
        <time>2020-08-07T14:51:13Z</time>
      </trkpt>
      <trkpt lat="42.5392740" lon="-8.9018230">
        <ele>6.2</ele>
        <time>2020-08-07T14:51:14Z</time>
      </trkpt>
      <trkpt lat="42.5392740" lon="-8.9018230">
        <ele>6.2</ele>
        <time>2020-08-07T14:51:15Z</time>
      </trkpt>
      <trkpt lat="42.5392860" lon="-8.9017890">
        <ele>6.2</ele>
        <time>2020-08-07T14:51:16Z</time>
      </trkpt>
      <trkpt lat="42.5392860" lon="-8.9017890">
        <ele>6.2</ele>
        <time>2020-08-07T14:51:17Z</time>
      </trkpt>
      <trkpt lat="42.5392960" lon="-8.9017550">
        <ele>6.0</ele>
        <time>2020-08-07T14:51:18Z</time>
      </trkpt>
      <trkpt lat="42.5392960" lon="-8.9017550">
        <ele>6.2</ele>
        <time>2020-08-07T14:51:19Z</time>
      </trkpt>
      <trkpt lat="42.5393060" lon="-8.9017200">
        <ele>6.0</ele>
        <time>2020-08-07T14:51:20Z</time>
      </trkpt>
      <trkpt lat="42.5393060" lon="-8.9017200">
        <ele>5.4</ele>
        <time>2020-08-07T14:51:21Z</time>
      </trkpt>
      <trkpt lat="42.5393150" lon="-8.9016900">
        <ele>5.4</ele>
        <time>2020-08-07T14:51:22Z</time>
      </trkpt>
      <trkpt lat="42.5393150" lon="-8.9016900">
        <ele>5.4</ele>
        <time>2020-08-07T14:51:23Z</time>
      </trkpt>
      <trkpt lat="42.5393280" lon="-8.9016580">
        <ele>5.4</ele>
        <time>2020-08-07T14:51:24Z</time>
      </trkpt>
      <trkpt lat="42.5393280" lon="-8.9016580">
        <ele>5.4</ele>
        <time>2020-08-07T14:51:25Z</time>
      </trkpt>
      <trkpt lat="42.5393410" lon="-8.9016300">
        <ele>5.2</ele>
        <time>2020-08-07T14:51:26Z</time>
      </trkpt>
      <trkpt lat="42.5393410" lon="-8.9016300">
        <ele>5.4</ele>
        <time>2020-08-07T14:51:27Z</time>
      </trkpt>
      <trkpt lat="42.5393540" lon="-8.9015980">
        <ele>5.6</ele>
        <time>2020-08-07T14:51:28Z</time>
      </trkpt>
      <trkpt lat="42.5393540" lon="-8.9015980">
        <ele>5.6</ele>
        <time>2020-08-07T14:51:29Z</time>
      </trkpt>
      <trkpt lat="42.5393660" lon="-8.9015650">
        <ele>6.0</ele>
        <time>2020-08-07T14:51:30Z</time>
      </trkpt>
      <trkpt lat="42.5393660" lon="-8.9015650">
        <ele>6.0</ele>
        <time>2020-08-07T14:51:31Z</time>
      </trkpt>
      <trkpt lat="42.5393760" lon="-8.9015370">
        <ele>6.2</ele>
        <time>2020-08-07T14:51:32Z</time>
      </trkpt>
      <trkpt lat="42.5393760" lon="-8.9015370">
        <ele>6.6</ele>
        <time>2020-08-07T14:51:33Z</time>
      </trkpt>
      <trkpt lat="42.5393820" lon="-8.9015050">
        <ele>6.8</ele>
        <time>2020-08-07T14:51:34Z</time>
      </trkpt>
      <trkpt lat="42.5393820" lon="-8.9015050">
        <ele>7.0</ele>
        <time>2020-08-07T14:51:35Z</time>
      </trkpt>
      <trkpt lat="42.5393920" lon="-8.9014750">
        <ele>6.8</ele>
        <time>2020-08-07T14:51:36Z</time>
      </trkpt>
      <trkpt lat="42.5393920" lon="-8.9014750">
        <ele>7.0</ele>
        <time>2020-08-07T14:51:37Z</time>
      </trkpt>
      <trkpt lat="42.5394050" lon="-8.9014430">
        <ele>6.8</ele>
        <time>2020-08-07T14:51:38Z</time>
      </trkpt>
      <trkpt lat="42.5394050" lon="-8.9014430">
        <ele>6.8</ele>
        <time>2020-08-07T14:51:39Z</time>
      </trkpt>
      <trkpt lat="42.5394180" lon="-8.9014120">
        <ele>7.4</ele>
        <time>2020-08-07T14:51:40Z</time>
      </trkpt>
      <trkpt lat="42.5394180" lon="-8.9014120">
        <ele>7.4</ele>
        <time>2020-08-07T14:51:41Z</time>
      </trkpt>
      <trkpt lat="42.5394270" lon="-8.9013830">
        <ele>7.4</ele>
        <time>2020-08-07T14:51:42Z</time>
      </trkpt>
      <trkpt lat="42.5394270" lon="-8.9013830">
        <ele>7.2</ele>
        <time>2020-08-07T14:51:43Z</time>
      </trkpt>
      <trkpt lat="42.5394430" lon="-8.9013540">
        <ele>7.2</ele>
        <time>2020-08-07T14:51:44Z</time>
      </trkpt>
      <trkpt lat="42.5394430" lon="-8.9013540">
        <ele>7.2</ele>
        <time>2020-08-07T14:51:45Z</time>
      </trkpt>
      <trkpt lat="42.5394560" lon="-8.9013220">
        <ele>7.2</ele>
        <time>2020-08-07T14:51:46Z</time>
      </trkpt>
      <trkpt lat="42.5394560" lon="-8.9013220">
        <ele>7.2</ele>
        <time>2020-08-07T14:51:47Z</time>
      </trkpt>
      <trkpt lat="42.5394620" lon="-8.9012920">
        <ele>7.4</ele>
        <time>2020-08-07T14:51:48Z</time>
      </trkpt>
      <trkpt lat="42.5394620" lon="-8.9012920">
        <ele>7.6</ele>
        <time>2020-08-07T14:51:49Z</time>
      </trkpt>
      <trkpt lat="42.5394720" lon="-8.9012540">
        <ele>7.2</ele>
        <time>2020-08-07T14:51:50Z</time>
      </trkpt>
      <trkpt lat="42.5394720" lon="-8.9012540">
        <ele>7.2</ele>
        <time>2020-08-07T14:51:51Z</time>
      </trkpt>
      <trkpt lat="42.5394820" lon="-8.9012170">
        <ele>6.8</ele>
        <time>2020-08-07T14:51:52Z</time>
      </trkpt>
      <trkpt lat="42.5394820" lon="-8.9012170">
        <ele>6.6</ele>
        <time>2020-08-07T14:51:53Z</time>
      </trkpt>
      <trkpt lat="42.5394940" lon="-8.9011830">
        <ele>6.8</ele>
        <time>2020-08-07T14:51:54Z</time>
      </trkpt>
      <trkpt lat="42.5394940" lon="-8.9011830">
        <ele>6.8</ele>
        <time>2020-08-07T14:51:55Z</time>
      </trkpt>
      <trkpt lat="42.5395040" lon="-8.9011500">
        <ele>6.4</ele>
        <time>2020-08-07T14:51:56Z</time>
      </trkpt>
      <trkpt lat="42.5395040" lon="-8.9011500">
        <ele>6.6</ele>
        <time>2020-08-07T14:51:57Z</time>
      </trkpt>
      <trkpt lat="42.5395200" lon="-8.9011160">
        <ele>6.4</ele>
        <time>2020-08-07T14:51:58Z</time>
      </trkpt>
      <trkpt lat="42.5395200" lon="-8.9011160">
        <ele>6.6</ele>
        <time>2020-08-07T14:51:59Z</time>
      </trkpt>
      <trkpt lat="42.5395330" lon="-8.9010870">
        <ele>6.8</ele>
        <time>2020-08-07T14:52:00Z</time>
      </trkpt>
      <trkpt lat="42.5395330" lon="-8.9010870">
        <ele>7.0</ele>
        <time>2020-08-07T14:52:01Z</time>
      </trkpt>
      <trkpt lat="42.5395420" lon="-8.9010560">
        <ele>6.8</ele>
        <time>2020-08-07T14:52:02Z</time>
      </trkpt>
      <trkpt lat="42.5395550" lon="-8.9010360">
        <ele>7.0</ele>
        <time>2020-08-07T14:52:03Z</time>
      </trkpt>
      <trkpt lat="42.5395550" lon="-8.9010360">
        <ele>7.0</ele>
        <time>2020-08-07T14:52:04Z</time>
      </trkpt>
      <trkpt lat="42.5395710" lon="-8.9010100">
        <ele>6.8</ele>
        <time>2020-08-07T14:52:05Z</time>
      </trkpt>
      <trkpt lat="42.5395710" lon="-8.9010100">
        <ele>6.8</ele>
        <time>2020-08-07T14:52:06Z</time>
      </trkpt>
      <trkpt lat="42.5395840" lon="-8.9009780">
        <ele>6.4</ele>
        <time>2020-08-07T14:52:07Z</time>
      </trkpt>
      <trkpt lat="42.5395840" lon="-8.9009780">
        <ele>6.2</ele>
        <time>2020-08-07T14:52:08Z</time>
      </trkpt>
      <trkpt lat="42.5396030" lon="-8.9009460">
        <ele>6.2</ele>
        <time>2020-08-07T14:52:09Z</time>
      </trkpt>
      <trkpt lat="42.5396030" lon="-8.9009460">
        <ele>6.4</ele>
        <time>2020-08-07T14:52:10Z</time>
      </trkpt>
      <trkpt lat="42.5396220" lon="-8.9009140">
        <ele>6.0</ele>
        <time>2020-08-07T14:52:11Z</time>
      </trkpt>
      <trkpt lat="42.5396220" lon="-8.9009140">
        <ele>6.0</ele>
        <time>2020-08-07T14:52:12Z</time>
      </trkpt>
      <trkpt lat="42.5396380" lon="-8.9008820">
        <ele>5.8</ele>
        <time>2020-08-07T14:52:13Z</time>
      </trkpt>
      <trkpt lat="42.5396380" lon="-8.9008820">
        <ele>5.4</ele>
        <time>2020-08-07T14:52:14Z</time>
      </trkpt>
      <trkpt lat="42.5396510" lon="-8.9008460">
        <ele>5.2</ele>
        <time>2020-08-07T14:52:15Z</time>
      </trkpt>
      <trkpt lat="42.5396510" lon="-8.9008460">
        <ele>5.6</ele>
        <time>2020-08-07T14:52:16Z</time>
      </trkpt>
      <trkpt lat="42.5396580" lon="-8.9008150">
        <ele>5.8</ele>
        <time>2020-08-07T14:52:17Z</time>
      </trkpt>
      <trkpt lat="42.5396580" lon="-8.9008150">
        <ele>5.8</ele>
        <time>2020-08-07T14:52:18Z</time>
      </trkpt>
      <trkpt lat="42.5396740" lon="-8.9007800">
        <ele>5.8</ele>
        <time>2020-08-07T14:52:19Z</time>
      </trkpt>
      <trkpt lat="42.5396740" lon="-8.9007800">
        <ele>5.6</ele>
        <time>2020-08-07T14:52:20Z</time>
      </trkpt>
      <trkpt lat="42.5396830" lon="-8.9007460">
        <ele>5.4</ele>
        <time>2020-08-07T14:52:21Z</time>
      </trkpt>
      <trkpt lat="42.5396830" lon="-8.9007460">
        <ele>5.2</ele>
        <time>2020-08-07T14:52:22Z</time>
      </trkpt>
      <trkpt lat="42.5396960" lon="-8.9007150">
        <ele>5.4</ele>
        <time>2020-08-07T14:52:23Z</time>
      </trkpt>
      <trkpt lat="42.5396960" lon="-8.9007150">
        <ele>5.4</ele>
        <time>2020-08-07T14:52:24Z</time>
      </trkpt>
      <trkpt lat="42.5397120" lon="-8.9006860">
        <ele>5.2</ele>
        <time>2020-08-07T14:52:25Z</time>
      </trkpt>
      <trkpt lat="42.5397120" lon="-8.9006860">
        <ele>5.0</ele>
        <time>2020-08-07T14:52:26Z</time>
      </trkpt>
      <trkpt lat="42.5397220" lon="-8.9006580">
        <ele>5.2</ele>
        <time>2020-08-07T14:52:27Z</time>
      </trkpt>
      <trkpt lat="42.5397220" lon="-8.9006580">
        <ele>5.4</ele>
        <time>2020-08-07T14:52:28Z</time>
      </trkpt>
      <trkpt lat="42.5397410" lon="-8.9006280">
        <ele>5.2</ele>
        <time>2020-08-07T14:52:29Z</time>
      </trkpt>
      <trkpt lat="42.5397410" lon="-8.9006280">
        <ele>4.8</ele>
        <time>2020-08-07T14:52:30Z</time>
      </trkpt>
      <trkpt lat="42.5397570" lon="-8.9006010">
        <ele>4.8</ele>
        <time>2020-08-07T14:52:31Z</time>
      </trkpt>
      <trkpt lat="42.5397570" lon="-8.9006010">
        <ele>5.0</ele>
        <time>2020-08-07T14:52:32Z</time>
      </trkpt>
      <trkpt lat="42.5397730" lon="-8.9005740">
        <ele>5.2</ele>
        <time>2020-08-07T14:52:33Z</time>
      </trkpt>
      <trkpt lat="42.5397730" lon="-8.9005740">
        <ele>5.6</ele>
        <time>2020-08-07T14:52:34Z</time>
      </trkpt>
      <trkpt lat="42.5397890" lon="-8.9005480">
        <ele>5.8</ele>
        <time>2020-08-07T14:52:35Z</time>
      </trkpt>
      <trkpt lat="42.5397890" lon="-8.9005480">
        <ele>5.8</ele>
        <time>2020-08-07T14:52:36Z</time>
      </trkpt>
      <trkpt lat="42.5398020" lon="-8.9005270">
        <ele>5.6</ele>
        <time>2020-08-07T14:52:37Z</time>
      </trkpt>
      <trkpt lat="42.5398020" lon="-8.9005270">
        <ele>5.4</ele>
        <time>2020-08-07T14:52:38Z</time>
      </trkpt>
      <trkpt lat="42.5398180" lon="-8.9005000">
        <ele>5.4</ele>
        <time>2020-08-07T14:52:39Z</time>
      </trkpt>
      <trkpt lat="42.5398180" lon="-8.9005000">
        <ele>5.6</ele>
        <time>2020-08-07T14:52:40Z</time>
      </trkpt>
      <trkpt lat="42.5398340" lon="-8.9004770">
        <ele>5.8</ele>
        <time>2020-08-07T14:52:41Z</time>
      </trkpt>
      <trkpt lat="42.5398340" lon="-8.9004770">
        <ele>5.6</ele>
        <time>2020-08-07T14:52:42Z</time>
      </trkpt>
      <trkpt lat="42.5398530" lon="-8.9004600">
        <ele>5.6</ele>
        <time>2020-08-07T14:52:43Z</time>
      </trkpt>
      <trkpt lat="42.5398530" lon="-8.9004600">
        <ele>5.4</ele>
        <time>2020-08-07T14:52:44Z</time>
      </trkpt>
      <trkpt lat="42.5398690" lon="-8.9004420">
        <ele>5.4</ele>
        <time>2020-08-07T14:52:45Z</time>
      </trkpt>
      <trkpt lat="42.5398690" lon="-8.9004420">
        <ele>5.6</ele>
        <time>2020-08-07T14:52:46Z</time>
      </trkpt>
      <trkpt lat="42.5398880" lon="-8.9004290">
        <ele>5.2</ele>
        <time>2020-08-07T14:52:47Z</time>
      </trkpt>
      <trkpt lat="42.5398880" lon="-8.9004290">
        <ele>5.2</ele>
        <time>2020-08-07T14:52:48Z</time>
      </trkpt>
      <trkpt lat="42.5399100" lon="-8.9004120">
        <ele>5.4</ele>
        <time>2020-08-07T14:52:49Z</time>
      </trkpt>
      <trkpt lat="42.5399100" lon="-8.9004120">
        <ele>5.2</ele>
        <time>2020-08-07T14:52:50Z</time>
      </trkpt>
      <trkpt lat="42.5399300" lon="-8.9003950">
        <ele>4.6</ele>
        <time>2020-08-07T14:52:51Z</time>
      </trkpt>
      <trkpt lat="42.5399300" lon="-8.9003950">
        <ele>4.6</ele>
        <time>2020-08-07T14:52:52Z</time>
      </trkpt>
      <trkpt lat="42.5399520" lon="-8.9003850">
        <ele>4.4</ele>
        <time>2020-08-07T14:52:53Z</time>
      </trkpt>
      <trkpt lat="42.5399520" lon="-8.9003850">
        <ele>4.4</ele>
        <time>2020-08-07T14:52:54Z</time>
      </trkpt>
      <trkpt lat="42.5399740" lon="-8.9003710">
        <ele>4.0</ele>
        <time>2020-08-07T14:52:55Z</time>
      </trkpt>
      <trkpt lat="42.5399740" lon="-8.9003710">
        <ele>4.0</ele>
        <time>2020-08-07T14:52:56Z</time>
      </trkpt>
      <trkpt lat="42.5399940" lon="-8.9003630">
        <ele>4.0</ele>
        <time>2020-08-07T14:52:57Z</time>
      </trkpt>
      <trkpt lat="42.5399940" lon="-8.9003630">
        <ele>4.2</ele>
        <time>2020-08-07T14:52:58Z</time>
      </trkpt>
      <trkpt lat="42.5400130" lon="-8.9003540">
        <ele>4.0</ele>
        <time>2020-08-07T14:52:59Z</time>
      </trkpt>
      <trkpt lat="42.5400130" lon="-8.9003540">
        <ele>4.4</ele>
        <time>2020-08-07T14:53:00Z</time>
      </trkpt>
      <trkpt lat="42.5400350" lon="-8.9003450">
        <ele>4.4</ele>
        <time>2020-08-07T14:53:01Z</time>
      </trkpt>
      <trkpt lat="42.5400350" lon="-8.9003450">
        <ele>4.2</ele>
        <time>2020-08-07T14:53:02Z</time>
      </trkpt>
      <trkpt lat="42.5400580" lon="-8.9003350">
        <ele>4.2</ele>
        <time>2020-08-07T14:53:03Z</time>
      </trkpt>
      <trkpt lat="42.5400580" lon="-8.9003350">
        <ele>4.2</ele>
        <time>2020-08-07T14:53:04Z</time>
      </trkpt>
      <trkpt lat="42.5400770" lon="-8.9003290">
        <ele>4.0</ele>
        <time>2020-08-07T14:53:05Z</time>
      </trkpt>
      <trkpt lat="42.5400770" lon="-8.9003290">
        <ele>3.6</ele>
        <time>2020-08-07T14:53:06Z</time>
      </trkpt>
      <trkpt lat="42.5400990" lon="-8.9003200">
        <ele>3.8</ele>
        <time>2020-08-07T14:53:07Z</time>
      </trkpt>
      <trkpt lat="42.5400990" lon="-8.9003200">
        <ele>4.2</ele>
        <time>2020-08-07T14:53:08Z</time>
      </trkpt>
      <trkpt lat="42.5400990" lon="-8.9003200">
        <ele>4.8</ele>
        <time>2020-08-07T14:53:09Z</time>
      </trkpt>
      <trkpt lat="42.5401220" lon="-8.9003100">
        <ele>5.0</ele>
        <time>2020-08-07T14:53:10Z</time>
      </trkpt>
      <trkpt lat="42.5401220" lon="-8.9003100">
        <ele>5.0</ele>
        <time>2020-08-07T14:53:11Z</time>
      </trkpt>
      <trkpt lat="42.5401410" lon="-8.9003020">
        <ele>5.0</ele>
        <time>2020-08-07T14:53:12Z</time>
      </trkpt>
      <trkpt lat="42.5401410" lon="-8.9003020">
        <ele>5.4</ele>
        <time>2020-08-07T14:53:13Z</time>
      </trkpt>
      <trkpt lat="42.5401410" lon="-8.9003020">
        <ele>5.6</ele>
        <time>2020-08-07T14:53:14Z</time>
      </trkpt>
      <trkpt lat="42.5401660" lon="-8.9003000">
        <ele>5.8</ele>
        <time>2020-08-07T14:53:15Z</time>
      </trkpt>
      <trkpt lat="42.5401660" lon="-8.9003000">
        <ele>6.2</ele>
        <time>2020-08-07T14:53:16Z</time>
      </trkpt>
      <trkpt lat="42.5401860" lon="-8.9002980">
        <ele>6.2</ele>
        <time>2020-08-07T14:53:17Z</time>
      </trkpt>
      <trkpt lat="42.5401860" lon="-8.9002980">
        <ele>6.2</ele>
        <time>2020-08-07T14:53:18Z</time>
      </trkpt>
      <trkpt lat="42.5401860" lon="-8.9002980">
        <ele>5.8</ele>
        <time>2020-08-07T14:53:19Z</time>
      </trkpt>
      <trkpt lat="42.5402140" lon="-8.9003000">
        <ele>5.6</ele>
        <time>2020-08-07T14:53:20Z</time>
      </trkpt>
      <trkpt lat="42.5402140" lon="-8.9003000">
        <ele>5.6</ele>
        <time>2020-08-07T14:53:21Z</time>
      </trkpt>
      <trkpt lat="42.5402140" lon="-8.9003000">
        <ele>5.6</ele>
        <time>2020-08-07T14:53:22Z</time>
      </trkpt>
      <trkpt lat="42.5402400" lon="-8.9003030">
        <ele>4.6</ele>
        <time>2020-08-07T14:53:23Z</time>
      </trkpt>
      <trkpt lat="42.5402400" lon="-8.9003030">
        <ele>4.8</ele>
        <time>2020-08-07T14:53:24Z</time>
      </trkpt>
      <trkpt lat="42.5402400" lon="-8.9003030">
        <ele>4.4</ele>
        <time>2020-08-07T14:53:25Z</time>
      </trkpt>
      <trkpt lat="42.5402690" lon="-8.9003110">
        <ele>4.0</ele>
        <time>2020-08-07T14:53:26Z</time>
      </trkpt>
      <trkpt lat="42.5402690" lon="-8.9003110">
        <ele>3.8</ele>
        <time>2020-08-07T14:53:27Z</time>
      </trkpt>
      <trkpt lat="42.5402690" lon="-8.9003110">
        <ele>3.6</ele>
        <time>2020-08-07T14:53:28Z</time>
      </trkpt>
      <trkpt lat="42.5402560" lon="-8.9002740">
        <ele>5.4</ele>
        <time>2020-08-07T14:55:45Z</time>
      </trkpt>
      <trkpt lat="42.5402560" lon="-8.9002740">
        <ele>5.4</ele>
        <time>2020-08-07T14:55:46Z</time>
      </trkpt>
      <trkpt lat="42.5402340" lon="-8.9002690">
        <ele>5.4</ele>
        <time>2020-08-07T14:55:49Z</time>
      </trkpt>
      <trkpt lat="42.5402180" lon="-8.9002570">
        <ele>5.4</ele>
        <time>2020-08-07T14:55:51Z</time>
      </trkpt>
      <trkpt lat="42.5402020" lon="-8.9002370">
        <ele>5.4</ele>
        <time>2020-08-07T14:55:53Z</time>
      </trkpt>
      <trkpt lat="42.5402020" lon="-8.9002370">
        <ele>5.2</ele>
        <time>2020-08-07T14:55:54Z</time>
      </trkpt>
      <trkpt lat="42.5401920" lon="-8.9002110">
        <ele>5.0</ele>
        <time>2020-08-07T14:55:55Z</time>
      </trkpt>
      <trkpt lat="42.5401920" lon="-8.9002110">
        <ele>5.0</ele>
        <time>2020-08-07T14:55:56Z</time>
      </trkpt>
      <trkpt lat="42.5401890" lon="-8.9001840">
        <ele>5.4</ele>
        <time>2020-08-07T14:55:57Z</time>
      </trkpt>
      <trkpt lat="42.5401890" lon="-8.9001840">
        <ele>5.0</ele>
        <time>2020-08-07T14:55:58Z</time>
      </trkpt>
      <trkpt lat="42.5401920" lon="-8.9001580">
        <ele>4.6</ele>
        <time>2020-08-07T14:55:59Z</time>
      </trkpt>
      <trkpt lat="42.5401920" lon="-8.9001580">
        <ele>4.4</ele>
        <time>2020-08-07T14:56:00Z</time>
      </trkpt>
      <trkpt lat="42.5401980" lon="-8.9001280">
        <ele>4.4</ele>
        <time>2020-08-07T14:56:01Z</time>
      </trkpt>
      <trkpt lat="42.5401980" lon="-8.9001280">
        <ele>4.4</ele>
        <time>2020-08-07T14:56:02Z</time>
      </trkpt>
      <trkpt lat="42.5401980" lon="-8.9001280">
        <ele>4.8</ele>
        <time>2020-08-07T14:56:03Z</time>
      </trkpt>
      <trkpt lat="42.5402080" lon="-8.9000950">
        <ele>4.8</ele>
        <time>2020-08-07T14:56:04Z</time>
      </trkpt>
      <trkpt lat="42.5402080" lon="-8.9000950">
        <ele>4.6</ele>
        <time>2020-08-07T14:56:05Z</time>
      </trkpt>
      <trkpt lat="42.5402180" lon="-8.9000680">
        <ele>4.2</ele>
        <time>2020-08-07T14:56:06Z</time>
      </trkpt>
      <trkpt lat="42.5402180" lon="-8.9000680">
        <ele>3.4</ele>
        <time>2020-08-07T14:56:07Z</time>
      </trkpt>
      <trkpt lat="42.5402340" lon="-8.9000460">
        <ele>2.8</ele>
        <time>2020-08-07T14:56:08Z</time>
      </trkpt>
      <trkpt lat="42.5402460" lon="-8.9000260">
        <ele>2.0</ele>
        <time>2020-08-07T14:56:09Z</time>
      </trkpt>
      <trkpt lat="42.5402460" lon="-8.9000260">
        <ele>1.4</ele>
        <time>2020-08-07T14:56:10Z</time>
      </trkpt>
      <trkpt lat="42.5402590" lon="-8.8999970">
        <ele>1.2</ele>
        <time>2020-08-07T14:56:11Z</time>
      </trkpt>
      <trkpt lat="42.5402590" lon="-8.8999970">
        <ele>1.2</ele>
        <time>2020-08-07T14:56:12Z</time>
      </trkpt>
      <trkpt lat="42.5402720" lon="-8.8999790">
        <ele>1.4</ele>
        <time>2020-08-07T14:56:13Z</time>
      </trkpt>
      <trkpt lat="42.5402720" lon="-8.8999790">
        <ele>1.4</ele>
        <time>2020-08-07T14:56:14Z</time>
      </trkpt>
      <trkpt lat="42.5402880" lon="-8.8999590">
        <ele>1.6</ele>
        <time>2020-08-07T14:56:15Z</time>
      </trkpt>
      <trkpt lat="42.5402880" lon="-8.8999590">
        <ele>2.0</ele>
        <time>2020-08-07T14:56:16Z</time>
      </trkpt>
      <trkpt lat="42.5402880" lon="-8.8999590">
        <ele>2.4</ele>
        <time>2020-08-07T14:56:17Z</time>
      </trkpt>
      <trkpt lat="42.5403070" lon="-8.8999270">
        <ele>3.0</ele>
        <time>2020-08-07T14:56:18Z</time>
      </trkpt>
      <trkpt lat="42.5403070" lon="-8.8999270">
        <ele>2.6</ele>
        <time>2020-08-07T14:56:19Z</time>
      </trkpt>
      <trkpt lat="42.5403200" lon="-8.8999060">
        <ele>2.6</ele>
        <time>2020-08-07T14:56:20Z</time>
      </trkpt>
      <trkpt lat="42.5403200" lon="-8.8999060">
        <ele>3.2</ele>
        <time>2020-08-07T14:56:21Z</time>
      </trkpt>
      <trkpt lat="42.5403390" lon="-8.8998830">
        <ele>3.2</ele>
        <time>2020-08-07T14:56:22Z</time>
      </trkpt>
      <trkpt lat="42.5403390" lon="-8.8998830">
        <ele>3.2</ele>
        <time>2020-08-07T14:56:23Z</time>
      </trkpt>
      <trkpt lat="42.5403580" lon="-8.8998620">
        <ele>3.0</ele>
        <time>2020-08-07T14:56:24Z</time>
      </trkpt>
      <trkpt lat="42.5403580" lon="-8.8998620">
        <ele>2.8</ele>
        <time>2020-08-07T14:56:25Z</time>
      </trkpt>
      <trkpt lat="42.5403740" lon="-8.8998420">
        <ele>2.6</ele>
        <time>2020-08-07T14:56:26Z</time>
      </trkpt>
      <trkpt lat="42.5403740" lon="-8.8998420">
        <ele>2.6</ele>
        <time>2020-08-07T14:56:27Z</time>
      </trkpt>
      <trkpt lat="42.5403970" lon="-8.8998220">
        <ele>2.4</ele>
        <time>2020-08-07T14:56:28Z</time>
      </trkpt>
      <trkpt lat="42.5403970" lon="-8.8998220">
        <ele>2.6</ele>
        <time>2020-08-07T14:56:29Z</time>
      </trkpt>
      <trkpt lat="42.5404160" lon="-8.8998030">
        <ele>2.6</ele>
        <time>2020-08-07T14:56:30Z</time>
      </trkpt>
      <trkpt lat="42.5404160" lon="-8.8998030">
        <ele>2.6</ele>
        <time>2020-08-07T14:56:31Z</time>
      </trkpt>
      <trkpt lat="42.5404320" lon="-8.8997870">
        <ele>2.6</ele>
        <time>2020-08-07T14:56:32Z</time>
      </trkpt>
      <trkpt lat="42.5404320" lon="-8.8997870">
        <ele>3.0</ele>
        <time>2020-08-07T14:56:33Z</time>
      </trkpt>
      <trkpt lat="42.5404510" lon="-8.8997650">
        <ele>3.0</ele>
        <time>2020-08-07T14:56:34Z</time>
      </trkpt>
      <trkpt lat="42.5404510" lon="-8.8997650">
        <ele>3.0</ele>
        <time>2020-08-07T14:56:35Z</time>
      </trkpt>
      <trkpt lat="42.5404700" lon="-8.8997430">
        <ele>3.0</ele>
        <time>2020-08-07T14:56:36Z</time>
      </trkpt>
      <trkpt lat="42.5404700" lon="-8.8997430">
        <ele>2.8</ele>
        <time>2020-08-07T14:56:37Z</time>
      </trkpt>
      <trkpt lat="42.5404900" lon="-8.8997220">
        <ele>3.0</ele>
        <time>2020-08-07T14:56:38Z</time>
      </trkpt>
      <trkpt lat="42.5404900" lon="-8.8997220">
        <ele>3.2</ele>
        <time>2020-08-07T14:56:39Z</time>
      </trkpt>
      <trkpt lat="42.5405060" lon="-8.8997000">
        <ele>3.2</ele>
        <time>2020-08-07T14:56:40Z</time>
      </trkpt>
      <trkpt lat="42.5405060" lon="-8.8997000">
        <ele>3.2</ele>
        <time>2020-08-07T14:56:41Z</time>
      </trkpt>
      <trkpt lat="42.5405250" lon="-8.8996760">
        <ele>3.4</ele>
        <time>2020-08-07T14:56:42Z</time>
      </trkpt>
      <trkpt lat="42.5405250" lon="-8.8996760">
        <ele>3.4</ele>
        <time>2020-08-07T14:56:43Z</time>
      </trkpt>
      <trkpt lat="42.5405380" lon="-8.8996490">
        <ele>3.6</ele>
        <time>2020-08-07T14:56:44Z</time>
      </trkpt>
      <trkpt lat="42.5405380" lon="-8.8996490">
        <ele>3.6</ele>
        <time>2020-08-07T14:56:45Z</time>
      </trkpt>
      <trkpt lat="42.5405540" lon="-8.8996220">
        <ele>3.6</ele>
        <time>2020-08-07T14:56:46Z</time>
      </trkpt>
      <trkpt lat="42.5405540" lon="-8.8996220">
        <ele>4.0</ele>
        <time>2020-08-07T14:56:47Z</time>
      </trkpt>
      <trkpt lat="42.5405630" lon="-8.8995940">
        <ele>4.4</ele>
        <time>2020-08-07T14:56:48Z</time>
      </trkpt>
      <trkpt lat="42.5405630" lon="-8.8995940">
        <ele>4.6</ele>
        <time>2020-08-07T14:56:49Z</time>
      </trkpt>
      <trkpt lat="42.5405730" lon="-8.8995630">
        <ele>4.4</ele>
        <time>2020-08-07T14:56:50Z</time>
      </trkpt>
      <trkpt lat="42.5405730" lon="-8.8995630">
        <ele>4.4</ele>
        <time>2020-08-07T14:56:51Z</time>
      </trkpt>
      <trkpt lat="42.5405790" lon="-8.8995340">
        <ele>4.4</ele>
        <time>2020-08-07T14:56:52Z</time>
      </trkpt>
      <trkpt lat="42.5405790" lon="-8.8995340">
        <ele>4.2</ele>
        <time>2020-08-07T14:56:53Z</time>
      </trkpt>
      <trkpt lat="42.5405890" lon="-8.8995060">
        <ele>4.2</ele>
        <time>2020-08-07T14:56:54Z</time>
      </trkpt>
      <trkpt lat="42.5405890" lon="-8.8995060">
        <ele>4.2</ele>
        <time>2020-08-07T14:56:55Z</time>
      </trkpt>
      <trkpt lat="42.5405980" lon="-8.8994770">
        <ele>4.2</ele>
        <time>2020-08-07T14:56:56Z</time>
      </trkpt>
      <trkpt lat="42.5405980" lon="-8.8994770">
        <ele>4.0</ele>
        <time>2020-08-07T14:56:57Z</time>
      </trkpt>
      <trkpt lat="42.5406080" lon="-8.8994480">
        <ele>4.4</ele>
        <time>2020-08-07T14:56:58Z</time>
      </trkpt>
      <trkpt lat="42.5406080" lon="-8.8994480">
        <ele>4.0</ele>
        <time>2020-08-07T14:56:59Z</time>
      </trkpt>
      <trkpt lat="42.5406140" lon="-8.8994150">
        <ele>3.6</ele>
        <time>2020-08-07T14:57:00Z</time>
      </trkpt>
      <trkpt lat="42.5406140" lon="-8.8994150">
        <ele>3.8</ele>
        <time>2020-08-07T14:57:01Z</time>
      </trkpt>
      <trkpt lat="42.5406270" lon="-8.8993860">
        <ele>4.0</ele>
        <time>2020-08-07T14:57:02Z</time>
      </trkpt>
      <trkpt lat="42.5406270" lon="-8.8993860">
        <ele>4.0</ele>
        <time>2020-08-07T14:57:03Z</time>
      </trkpt>
      <trkpt lat="42.5406340" lon="-8.8993480">
        <ele>4.0</ele>
        <time>2020-08-07T14:57:04Z</time>
      </trkpt>
      <trkpt lat="42.5406340" lon="-8.8993480">
        <ele>4.0</ele>
        <time>2020-08-07T14:57:05Z</time>
      </trkpt>
      <trkpt lat="42.5406460" lon="-8.8993170">
        <ele>3.6</ele>
        <time>2020-08-07T14:57:06Z</time>
      </trkpt>
      <trkpt lat="42.5406460" lon="-8.8993170">
        <ele>3.4</ele>
        <time>2020-08-07T14:57:07Z</time>
      </trkpt>
      <trkpt lat="42.5406620" lon="-8.8992830">
        <ele>3.2</ele>
        <time>2020-08-07T14:57:08Z</time>
      </trkpt>
      <trkpt lat="42.5406620" lon="-8.8992830">
        <ele>3.0</ele>
        <time>2020-08-07T14:57:09Z</time>
      </trkpt>
      <trkpt lat="42.5406720" lon="-8.8992500">
        <ele>3.2</ele>
        <time>2020-08-07T14:57:10Z</time>
      </trkpt>
      <trkpt lat="42.5406720" lon="-8.8992500">
        <ele>3.4</ele>
        <time>2020-08-07T14:57:11Z</time>
      </trkpt>
      <trkpt lat="42.5406850" lon="-8.8992180">
        <ele>3.2</ele>
        <time>2020-08-07T14:57:12Z</time>
      </trkpt>
      <trkpt lat="42.5406850" lon="-8.8992180">
        <ele>3.4</ele>
        <time>2020-08-07T14:57:13Z</time>
      </trkpt>
      <trkpt lat="42.5406940" lon="-8.8991900">
        <ele>3.4</ele>
        <time>2020-08-07T14:57:14Z</time>
      </trkpt>
      <trkpt lat="42.5406940" lon="-8.8991900">
        <ele>3.4</ele>
        <time>2020-08-07T14:57:15Z</time>
      </trkpt>
      <trkpt lat="42.5407100" lon="-8.8991580">
        <ele>3.4</ele>
        <time>2020-08-07T14:57:16Z</time>
      </trkpt>
      <trkpt lat="42.5407100" lon="-8.8991580">
        <ele>3.6</ele>
        <time>2020-08-07T14:57:17Z</time>
      </trkpt>
      <trkpt lat="42.5407230" lon="-8.8991300">
        <ele>3.6</ele>
        <time>2020-08-07T14:57:18Z</time>
      </trkpt>
      <trkpt lat="42.5407230" lon="-8.8991300">
        <ele>3.6</ele>
        <time>2020-08-07T14:57:19Z</time>
      </trkpt>
      <trkpt lat="42.5407360" lon="-8.8990980">
        <ele>4.0</ele>
        <time>2020-08-07T14:57:20Z</time>
      </trkpt>
      <trkpt lat="42.5407360" lon="-8.8990980">
        <ele>3.8</ele>
        <time>2020-08-07T14:57:21Z</time>
      </trkpt>
      <trkpt lat="42.5407520" lon="-8.8990700">
        <ele>3.8</ele>
        <time>2020-08-07T14:57:22Z</time>
      </trkpt>
      <trkpt lat="42.5407520" lon="-8.8990700">
        <ele>4.2</ele>
        <time>2020-08-07T14:57:23Z</time>
      </trkpt>
      <trkpt lat="42.5407680" lon="-8.8990400">
        <ele>4.6</ele>
        <time>2020-08-07T14:57:24Z</time>
      </trkpt>
      <trkpt lat="42.5407680" lon="-8.8990400">
        <ele>4.4</ele>
        <time>2020-08-07T14:57:25Z</time>
      </trkpt>
      <trkpt lat="42.5407870" lon="-8.8990050">
        <ele>4.2</ele>
        <time>2020-08-07T14:57:26Z</time>
      </trkpt>
      <trkpt lat="42.5407870" lon="-8.8990050">
        <ele>4.2</ele>
        <time>2020-08-07T14:57:27Z</time>
      </trkpt>
      <trkpt lat="42.5407970" lon="-8.8989750">
        <ele>4.8</ele>
        <time>2020-08-07T14:57:28Z</time>
      </trkpt>
      <trkpt lat="42.5407970" lon="-8.8989750">
        <ele>5.0</ele>
        <time>2020-08-07T14:57:29Z</time>
      </trkpt>
      <trkpt lat="42.5408130" lon="-8.8989420">
        <ele>5.2</ele>
        <time>2020-08-07T14:57:30Z</time>
      </trkpt>
      <trkpt lat="42.5408130" lon="-8.8989420">
        <ele>5.4</ele>
        <time>2020-08-07T14:57:31Z</time>
      </trkpt>
      <trkpt lat="42.5408290" lon="-8.8989100">
        <ele>5.6</ele>
        <time>2020-08-07T14:57:32Z</time>
      </trkpt>
      <trkpt lat="42.5408290" lon="-8.8989100">
        <ele>5.6</ele>
        <time>2020-08-07T14:57:33Z</time>
      </trkpt>
      <trkpt lat="42.5408450" lon="-8.8988840">
        <ele>5.8</ele>
        <time>2020-08-07T14:57:34Z</time>
      </trkpt>
      <trkpt lat="42.5408450" lon="-8.8988840">
        <ele>6.0</ele>
        <time>2020-08-07T14:57:35Z</time>
      </trkpt>
      <trkpt lat="42.5408640" lon="-8.8988580">
        <ele>5.8</ele>
        <time>2020-08-07T14:57:36Z</time>
      </trkpt>
      <trkpt lat="42.5408640" lon="-8.8988580">
        <ele>5.6</ele>
        <time>2020-08-07T14:57:37Z</time>
      </trkpt>
      <trkpt lat="42.5408770" lon="-8.8988300">
        <ele>5.8</ele>
        <time>2020-08-07T14:57:38Z</time>
      </trkpt>
      <trkpt lat="42.5408770" lon="-8.8988300">
        <ele>5.8</ele>
        <time>2020-08-07T14:57:39Z</time>
      </trkpt>
      <trkpt lat="42.5408960" lon="-8.8988020">
        <ele>5.6</ele>
        <time>2020-08-07T14:57:40Z</time>
      </trkpt>
      <trkpt lat="42.5408960" lon="-8.8988020">
        <ele>5.6</ele>
        <time>2020-08-07T14:57:41Z</time>
      </trkpt>
      <trkpt lat="42.5409120" lon="-8.8987770">
        <ele>5.6</ele>
        <time>2020-08-07T14:57:42Z</time>
      </trkpt>
      <trkpt lat="42.5409120" lon="-8.8987770">
        <ele>5.4</ele>
        <time>2020-08-07T14:57:43Z</time>
      </trkpt>
      <trkpt lat="42.5409310" lon="-8.8987530">
        <ele>5.8</ele>
        <time>2020-08-07T14:57:44Z</time>
      </trkpt>
      <trkpt lat="42.5409310" lon="-8.8987530">
        <ele>6.2</ele>
        <time>2020-08-07T14:57:45Z</time>
      </trkpt>
      <trkpt lat="42.5409470" lon="-8.8987310">
        <ele>6.4</ele>
        <time>2020-08-07T14:57:46Z</time>
      </trkpt>
      <trkpt lat="42.5409470" lon="-8.8987310">
        <ele>6.4</ele>
        <time>2020-08-07T14:57:47Z</time>
      </trkpt>
      <trkpt lat="42.5409660" lon="-8.8987060">
        <ele>6.8</ele>
        <time>2020-08-07T14:57:48Z</time>
      </trkpt>
      <trkpt lat="42.5409660" lon="-8.8987060">
        <ele>6.8</ele>
        <time>2020-08-07T14:57:49Z</time>
      </trkpt>
      <trkpt lat="42.5409890" lon="-8.8986770">
        <ele>6.8</ele>
        <time>2020-08-07T14:57:50Z</time>
      </trkpt>
      <trkpt lat="42.5409890" lon="-8.8986770">
        <ele>6.8</ele>
        <time>2020-08-07T14:57:51Z</time>
      </trkpt>
      <trkpt lat="42.5410050" lon="-8.8986500">
        <ele>7.0</ele>
        <time>2020-08-07T14:57:52Z</time>
      </trkpt>
      <trkpt lat="42.5410050" lon="-8.8986500">
        <ele>7.0</ele>
        <time>2020-08-07T14:57:53Z</time>
      </trkpt>
      <trkpt lat="42.5410210" lon="-8.8986150">
        <ele>7.0</ele>
        <time>2020-08-07T14:57:54Z</time>
      </trkpt>
      <trkpt lat="42.5410210" lon="-8.8986150">
        <ele>7.0</ele>
        <time>2020-08-07T14:57:55Z</time>
      </trkpt>
      <trkpt lat="42.5410270" lon="-8.8985750">
        <ele>7.0</ele>
        <time>2020-08-07T14:57:56Z</time>
      </trkpt>
      <trkpt lat="42.5410270" lon="-8.8985750">
        <ele>6.6</ele>
        <time>2020-08-07T14:57:57Z</time>
      </trkpt>
      <trkpt lat="42.5410300" lon="-8.8985370">
        <ele>6.6</ele>
        <time>2020-08-07T14:57:58Z</time>
      </trkpt>
      <trkpt lat="42.5410300" lon="-8.8985370">
        <ele>6.2</ele>
        <time>2020-08-07T14:57:59Z</time>
      </trkpt>
      <trkpt lat="42.5410240" lon="-8.8985030">
        <ele>6.2</ele>
        <time>2020-08-07T14:58:00Z</time>
      </trkpt>
      <trkpt lat="42.5410240" lon="-8.8985030">
        <ele>6.6</ele>
        <time>2020-08-07T14:58:01Z</time>
      </trkpt>
      <trkpt lat="42.5410110" lon="-8.8984740">
        <ele>6.8</ele>
        <time>2020-08-07T14:58:02Z</time>
      </trkpt>
      <trkpt lat="42.5410110" lon="-8.8984740">
        <ele>7.0</ele>
        <time>2020-08-07T14:58:03Z</time>
      </trkpt>
      <trkpt lat="42.5410020" lon="-8.8984430">
        <ele>7.2</ele>
        <time>2020-08-07T14:58:04Z</time>
      </trkpt>
      <trkpt lat="42.5410020" lon="-8.8984430">
        <ele>7.2</ele>
        <time>2020-08-07T14:58:05Z</time>
      </trkpt>
      <trkpt lat="42.5409890" lon="-8.8984080">
        <ele>7.2</ele>
        <time>2020-08-07T14:58:06Z</time>
      </trkpt>
      <trkpt lat="42.5409890" lon="-8.8984080">
        <ele>7.2</ele>
        <time>2020-08-07T14:58:07Z</time>
      </trkpt>
      <trkpt lat="42.5409700" lon="-8.8983740">
        <ele>7.0</ele>
        <time>2020-08-07T14:58:08Z</time>
      </trkpt>
      <trkpt lat="42.5409700" lon="-8.8983740">
        <ele>7.0</ele>
        <time>2020-08-07T14:58:09Z</time>
      </trkpt>
      <trkpt lat="42.5409600" lon="-8.8983400">
        <ele>7.0</ele>
        <time>2020-08-07T14:58:10Z</time>
      </trkpt>
      <trkpt lat="42.5409600" lon="-8.8983400">
        <ele>7.0</ele>
        <time>2020-08-07T14:58:11Z</time>
      </trkpt>
      <trkpt lat="42.5409470" lon="-8.8983070">
        <ele>6.6</ele>
        <time>2020-08-07T14:58:12Z</time>
      </trkpt>
      <trkpt lat="42.5409470" lon="-8.8983070">
        <ele>6.8</ele>
        <time>2020-08-07T14:58:13Z</time>
      </trkpt>
      <trkpt lat="42.5409310" lon="-8.8982740">
        <ele>7.0</ele>
        <time>2020-08-07T14:58:14Z</time>
      </trkpt>
      <trkpt lat="42.5409310" lon="-8.8982740">
        <ele>6.8</ele>
        <time>2020-08-07T14:58:15Z</time>
      </trkpt>
      <trkpt lat="42.5409280" lon="-8.8982360">
        <ele>7.0</ele>
        <time>2020-08-07T14:58:16Z</time>
      </trkpt>
      <trkpt lat="42.5409280" lon="-8.8982360">
        <ele>6.6</ele>
        <time>2020-08-07T14:58:17Z</time>
      </trkpt>
      <trkpt lat="42.5409250" lon="-8.8981950">
        <ele>6.2</ele>
        <time>2020-08-07T14:58:18Z</time>
      </trkpt>
      <trkpt lat="42.5409250" lon="-8.8981950">
        <ele>6.0</ele>
        <time>2020-08-07T14:58:19Z</time>
      </trkpt>
      <trkpt lat="42.5409280" lon="-8.8981620">
        <ele>5.6</ele>
        <time>2020-08-07T14:58:20Z</time>
      </trkpt>
      <trkpt lat="42.5409280" lon="-8.8981620">
        <ele>5.4</ele>
        <time>2020-08-07T14:58:21Z</time>
      </trkpt>
      <trkpt lat="42.5409340" lon="-8.8981250">
        <ele>5.2</ele>
        <time>2020-08-07T14:58:22Z</time>
      </trkpt>
      <trkpt lat="42.5409340" lon="-8.8981250">
        <ele>5.0</ele>
        <time>2020-08-07T14:58:23Z</time>
      </trkpt>
      <trkpt lat="42.5409440" lon="-8.8980970">
        <ele>5.0</ele>
        <time>2020-08-07T14:58:24Z</time>
      </trkpt>
      <trkpt lat="42.5409440" lon="-8.8980970">
        <ele>5.0</ele>
        <time>2020-08-07T14:58:25Z</time>
      </trkpt>
      <trkpt lat="42.5409540" lon="-8.8980750">
        <ele>5.0</ele>
        <time>2020-08-07T14:58:26Z</time>
      </trkpt>
      <trkpt lat="42.5409540" lon="-8.8980750">
        <ele>5.2</ele>
        <time>2020-08-07T14:58:27Z</time>
      </trkpt>
      <trkpt lat="42.5409700" lon="-8.8980570">
        <ele>4.8</ele>
        <time>2020-08-07T14:58:28Z</time>
      </trkpt>
      <trkpt lat="42.5409700" lon="-8.8980570">
        <ele>4.8</ele>
        <time>2020-08-07T14:58:29Z</time>
      </trkpt>
      <trkpt lat="42.5409860" lon="-8.8980400">
        <ele>5.0</ele>
        <time>2020-08-07T14:58:30Z</time>
      </trkpt>
      <trkpt lat="42.5409860" lon="-8.8980400">
        <ele>4.8</ele>
        <time>2020-08-07T14:58:31Z</time>
      </trkpt>
      <trkpt lat="42.5409860" lon="-8.8980400">
        <ele>5.0</ele>
        <time>2020-08-07T14:58:32Z</time>
      </trkpt>
      <trkpt lat="42.5410020" lon="-8.8980250">
        <ele>5.0</ele>
        <time>2020-08-07T14:58:33Z</time>
      </trkpt>
      <trkpt lat="42.5410020" lon="-8.8980250">
        <ele>5.0</ele>
        <time>2020-08-07T14:58:34Z</time>
      </trkpt>
      <trkpt lat="42.5410210" lon="-8.8980220">
        <ele>5.0</ele>
        <time>2020-08-07T14:58:35Z</time>
      </trkpt>
      <trkpt lat="42.5410210" lon="-8.8980220">
        <ele>5.4</ele>
        <time>2020-08-07T14:58:36Z</time>
      </trkpt>
      <trkpt lat="42.5410210" lon="-8.8980220">
        <ele>5.4</ele>
        <time>2020-08-07T14:58:37Z</time>
      </trkpt>
      <trkpt lat="42.5410430" lon="-8.8980220">
        <ele>5.2</ele>
        <time>2020-08-07T14:58:38Z</time>
      </trkpt>
      <trkpt lat="42.5410430" lon="-8.8980220">
        <ele>5.2</ele>
        <time>2020-08-07T14:58:39Z</time>
      </trkpt>
      <trkpt lat="42.5410620" lon="-8.8980200">
        <ele>5.0</ele>
        <time>2020-08-07T14:58:40Z</time>
      </trkpt>
      <trkpt lat="42.5410620" lon="-8.8980200">
        <ele>5.2</ele>
        <time>2020-08-07T14:58:41Z</time>
      </trkpt>
      <trkpt lat="42.5410620" lon="-8.8980200">
        <ele>5.0</ele>
        <time>2020-08-07T14:58:42Z</time>
      </trkpt>
      <trkpt lat="42.5410880" lon="-8.8980240">
        <ele>4.8</ele>
        <time>2020-08-07T14:58:43Z</time>
      </trkpt>
      <trkpt lat="42.5410880" lon="-8.8980240">
        <ele>4.8</ele>
        <time>2020-08-07T14:58:44Z</time>
      </trkpt>
      <trkpt lat="42.5410880" lon="-8.8980240">
        <ele>4.6</ele>
        <time>2020-08-07T14:58:45Z</time>
      </trkpt>
      <trkpt lat="42.5411100" lon="-8.8980380">
        <ele>4.4</ele>
        <time>2020-08-07T14:58:46Z</time>
      </trkpt>
      <trkpt lat="42.5411100" lon="-8.8980380">
        <ele>4.2</ele>
        <time>2020-08-07T14:58:47Z</time>
      </trkpt>
      <trkpt lat="42.5411260" lon="-8.8980500">
        <ele>4.0</ele>
        <time>2020-08-07T14:58:48Z</time>
      </trkpt>
      <trkpt lat="42.5411260" lon="-8.8980500">
        <ele>4.0</ele>
        <time>2020-08-07T14:58:49Z</time>
      </trkpt>
      <trkpt lat="42.5411420" lon="-8.8980620">
        <ele>3.8</ele>
        <time>2020-08-07T14:58:50Z</time>
      </trkpt>
      <trkpt lat="42.5411420" lon="-8.8980620">
        <ele>3.8</ele>
        <time>2020-08-07T14:58:51Z</time>
      </trkpt>
      <trkpt lat="42.5411420" lon="-8.8980620">
        <ele>3.8</ele>
        <time>2020-08-07T14:58:52Z</time>
      </trkpt>
      <trkpt lat="42.5411650" lon="-8.8980780">
        <ele>3.6</ele>
        <time>2020-08-07T14:58:53Z</time>
      </trkpt>
      <trkpt lat="42.5411650" lon="-8.8980780">
        <ele>3.6</ele>
        <time>2020-08-07T14:58:54Z</time>
      </trkpt>
      <trkpt lat="42.5411810" lon="-8.8980910">
        <ele>3.6</ele>
        <time>2020-08-07T14:58:55Z</time>
      </trkpt>
      <trkpt lat="42.5411810" lon="-8.8980910">
        <ele>3.4</ele>
        <time>2020-08-07T14:58:56Z</time>
      </trkpt>
      <trkpt lat="42.5411810" lon="-8.8980910">
        <ele>3.2</ele>
        <time>2020-08-07T14:58:57Z</time>
      </trkpt>
      <trkpt lat="42.5412000" lon="-8.8981110">
        <ele>3.2</ele>
        <time>2020-08-07T14:58:58Z</time>
      </trkpt>
      <trkpt lat="42.5412000" lon="-8.8981110">
        <ele>3.2</ele>
        <time>2020-08-07T14:58:59Z</time>
      </trkpt>
      <trkpt lat="42.5412190" lon="-8.8981180">
        <ele>3.2</ele>
        <time>2020-08-07T14:59:00Z</time>
      </trkpt>
      <trkpt lat="42.5412190" lon="-8.8981180">
        <ele>3.0</ele>
        <time>2020-08-07T14:59:01Z</time>
      </trkpt>
      <trkpt lat="42.5412380" lon="-8.8981220">
        <ele>3.2</ele>
        <time>2020-08-07T14:59:02Z</time>
      </trkpt>
      <trkpt lat="42.5412380" lon="-8.8981220">
        <ele>3.4</ele>
        <time>2020-08-07T14:59:03Z</time>
      </trkpt>
      <trkpt lat="42.5412380" lon="-8.8981220">
        <ele>3.8</ele>
        <time>2020-08-07T14:59:04Z</time>
      </trkpt>
      <trkpt lat="42.5412610" lon="-8.8981170">
        <ele>4.2</ele>
        <time>2020-08-07T14:59:05Z</time>
      </trkpt>
      <trkpt lat="42.5412610" lon="-8.8981170">
        <ele>4.2</ele>
        <time>2020-08-07T14:59:06Z</time>
      </trkpt>
      <trkpt lat="42.5412800" lon="-8.8981060">
        <ele>4.2</ele>
        <time>2020-08-07T14:59:07Z</time>
      </trkpt>
      <trkpt lat="42.5412800" lon="-8.8981060">
        <ele>4.0</ele>
        <time>2020-08-07T14:59:08Z</time>
      </trkpt>
      <trkpt lat="42.5412800" lon="-8.8981060">
        <ele>3.6</ele>
        <time>2020-08-07T14:59:09Z</time>
      </trkpt>
      <trkpt lat="42.5413020" lon="-8.8980840">
        <ele>3.8</ele>
        <time>2020-08-07T14:59:10Z</time>
      </trkpt>
      <trkpt lat="42.5413020" lon="-8.8980840">
        <ele>3.8</ele>
        <time>2020-08-07T14:59:11Z</time>
      </trkpt>
      <trkpt lat="42.5413020" lon="-8.8980840">
        <ele>4.2</ele>
        <time>2020-08-07T14:59:12Z</time>
      </trkpt>
      <trkpt lat="42.5413220" lon="-8.8980640">
        <ele>4.4</ele>
        <time>2020-08-07T14:59:13Z</time>
      </trkpt>
      <trkpt lat="42.5413220" lon="-8.8980640">
        <ele>4.6</ele>
        <time>2020-08-07T14:59:14Z</time>
      </trkpt>
      <trkpt lat="42.5413220" lon="-8.8980640">
        <ele>4.6</ele>
        <time>2020-08-07T14:59:15Z</time>
      </trkpt>
      <trkpt lat="42.5413410" lon="-8.8980440">
        <ele>4.8</ele>
        <time>2020-08-07T14:59:16Z</time>
      </trkpt>
      <trkpt lat="42.5413410" lon="-8.8980440">
        <ele>4.6</ele>
        <time>2020-08-07T14:59:17Z</time>
      </trkpt>
      <trkpt lat="42.5413600" lon="-8.8980370">
        <ele>4.6</ele>
        <time>2020-08-07T14:59:18Z</time>
      </trkpt>
      <trkpt lat="42.5413600" lon="-8.8980370">
        <ele>4.6</ele>
        <time>2020-08-07T14:59:19Z</time>
      </trkpt>
      <trkpt lat="42.5413600" lon="-8.8980370">
        <ele>4.6</ele>
        <time>2020-08-07T14:59:20Z</time>
      </trkpt>
      <trkpt lat="42.5413820" lon="-8.8980350">
        <ele>5.0</ele>
        <time>2020-08-07T14:59:21Z</time>
      </trkpt>
      <trkpt lat="42.5413820" lon="-8.8980350">
        <ele>4.6</ele>
        <time>2020-08-07T14:59:22Z</time>
      </trkpt>
      <trkpt lat="42.5413820" lon="-8.8980350">
        <ele>4.4</ele>
        <time>2020-08-07T14:59:23Z</time>
      </trkpt>
      <trkpt lat="42.5414050" lon="-8.8980400">
        <ele>4.4</ele>
        <time>2020-08-07T14:59:24Z</time>
      </trkpt>
      <trkpt lat="42.5414050" lon="-8.8980400">
        <ele>4.4</ele>
        <time>2020-08-07T14:59:25Z</time>
      </trkpt>
      <trkpt lat="42.5414050" lon="-8.8980400">
        <ele>4.6</ele>
        <time>2020-08-07T14:59:26Z</time>
      </trkpt>
      <trkpt lat="42.5414270" lon="-8.8980450">
        <ele>4.6</ele>
        <time>2020-08-07T14:59:27Z</time>
      </trkpt>
      <trkpt lat="42.5414270" lon="-8.8980450">
        <ele>4.6</ele>
        <time>2020-08-07T14:59:28Z</time>
      </trkpt>
      <trkpt lat="42.5414460" lon="-8.8980450">
        <ele>4.6</ele>
        <time>2020-08-07T14:59:29Z</time>
      </trkpt>
      <trkpt lat="42.5414460" lon="-8.8980450">
        <ele>4.4</ele>
        <time>2020-08-07T14:59:30Z</time>
      </trkpt>
      <trkpt lat="42.5414660" lon="-8.8980490">
        <ele>4.2</ele>
        <time>2020-08-07T14:59:31Z</time>
      </trkpt>
      <trkpt lat="42.5414660" lon="-8.8980490">
        <ele>4.4</ele>
        <time>2020-08-07T14:59:32Z</time>
      </trkpt>
      <trkpt lat="42.5414850" lon="-8.8980550">
        <ele>4.4</ele>
        <time>2020-08-07T14:59:33Z</time>
      </trkpt>
      <trkpt lat="42.5414850" lon="-8.8980550">
        <ele>4.2</ele>
        <time>2020-08-07T14:59:34Z</time>
      </trkpt>
      <trkpt lat="42.5414850" lon="-8.8980550">
        <ele>4.6</ele>
        <time>2020-08-07T14:59:35Z</time>
      </trkpt>
      <trkpt lat="42.5415070" lon="-8.8980660">
        <ele>4.4</ele>
        <time>2020-08-07T14:59:36Z</time>
      </trkpt>
      <trkpt lat="42.5415070" lon="-8.8980660">
        <ele>4.4</ele>
        <time>2020-08-07T14:59:37Z</time>
      </trkpt>
      <trkpt lat="42.5415260" lon="-8.8980730">
        <ele>4.2</ele>
        <time>2020-08-07T14:59:38Z</time>
      </trkpt>
      <trkpt lat="42.5415260" lon="-8.8980730">
        <ele>4.4</ele>
        <time>2020-08-07T14:59:39Z</time>
      </trkpt>
      <trkpt lat="42.5415460" lon="-8.8980780">
        <ele>4.6</ele>
        <time>2020-08-07T14:59:40Z</time>
      </trkpt>
      <trkpt lat="42.5415460" lon="-8.8980780">
        <ele>4.8</ele>
        <time>2020-08-07T14:59:41Z</time>
      </trkpt>
      <trkpt lat="42.5415650" lon="-8.8980690">
        <ele>4.4</ele>
        <time>2020-08-07T14:59:42Z</time>
      </trkpt>
      <trkpt lat="42.5415650" lon="-8.8980690">
        <ele>4.8</ele>
        <time>2020-08-07T14:59:43Z</time>
      </trkpt>
      <trkpt lat="42.5415840" lon="-8.8980530">
        <ele>4.8</ele>
        <time>2020-08-07T14:59:44Z</time>
      </trkpt>
      <trkpt lat="42.5415840" lon="-8.8980530">
        <ele>4.6</ele>
        <time>2020-08-07T14:59:45Z</time>
      </trkpt>
      <trkpt lat="42.5415840" lon="-8.8980530">
        <ele>4.6</ele>
        <time>2020-08-07T14:59:46Z</time>
      </trkpt>
      <trkpt lat="42.5415970" lon="-8.8980350">
        <ele>4.8</ele>
        <time>2020-08-07T14:59:47Z</time>
      </trkpt>
      <trkpt lat="42.5415970" lon="-8.8980350">
        <ele>4.8</ele>
        <time>2020-08-07T14:59:48Z</time>
      </trkpt>
      <trkpt lat="42.5415970" lon="-8.8980350">
        <ele>4.8</ele>
        <time>2020-08-07T14:59:49Z</time>
      </trkpt>
      <trkpt lat="42.5415970" lon="-8.8980350">
        <ele>4.8</ele>
        <time>2020-08-07T14:59:50Z</time>
      </trkpt>
      <trkpt lat="42.5415970" lon="-8.8980020">
        <ele>4.8</ele>
        <time>2020-08-07T14:59:51Z</time>
      </trkpt>
      <trkpt lat="42.5415970" lon="-8.8980020">
        <ele>4.2</ele>
        <time>2020-08-07T14:59:52Z</time>
      </trkpt>
      <trkpt lat="42.5415970" lon="-8.8980020">
        <ele>4.4</ele>
        <time>2020-08-07T14:59:53Z</time>
      </trkpt>
      <trkpt lat="42.5415810" lon="-8.8979700">
        <ele>4.4</ele>
        <time>2020-08-07T14:59:54Z</time>
      </trkpt>
      <trkpt lat="42.5415810" lon="-8.8979700">
        <ele>4.6</ele>
        <time>2020-08-07T14:59:55Z</time>
      </trkpt>
      <trkpt lat="42.5415650" lon="-8.8979530">
        <ele>4.4</ele>
        <time>2020-08-07T14:59:56Z</time>
      </trkpt>
      <trkpt lat="42.5415650" lon="-8.8979530">
        <ele>4.4</ele>
        <time>2020-08-07T14:59:57Z</time>
      </trkpt>
      <trkpt lat="42.5415490" lon="-8.8979400">
        <ele>4.6</ele>
        <time>2020-08-07T14:59:58Z</time>
      </trkpt>
      <trkpt lat="42.5415490" lon="-8.8979400">
        <ele>4.4</ele>
        <time>2020-08-07T14:59:59Z</time>
      </trkpt>
      <trkpt lat="42.5415260" lon="-8.8979350">
        <ele>4.6</ele>
        <time>2020-08-07T15:00:00Z</time>
      </trkpt>
      <trkpt lat="42.5415260" lon="-8.8979350">
        <ele>4.6</ele>
        <time>2020-08-07T15:00:01Z</time>
      </trkpt>
      <trkpt lat="42.5415040" lon="-8.8979300">
        <ele>4.6</ele>
        <time>2020-08-07T15:00:02Z</time>
      </trkpt>
      <trkpt lat="42.5415040" lon="-8.8979300">
        <ele>5.0</ele>
        <time>2020-08-07T15:00:03Z</time>
      </trkpt>
      <trkpt lat="42.5414850" lon="-8.8979300">
        <ele>5.0</ele>
        <time>2020-08-07T15:00:04Z</time>
      </trkpt>
      <trkpt lat="42.5414850" lon="-8.8979300">
        <ele>5.0</ele>
        <time>2020-08-07T15:00:05Z</time>
      </trkpt>
      <trkpt lat="42.5414620" lon="-8.8979380">
        <ele>4.8</ele>
        <time>2020-08-07T15:00:06Z</time>
      </trkpt>
      <trkpt lat="42.5414620" lon="-8.8979380">
        <ele>4.8</ele>
        <time>2020-08-07T15:00:07Z</time>
      </trkpt>
      <trkpt lat="42.5414460" lon="-8.8979530">
        <ele>4.8</ele>
        <time>2020-08-07T15:00:08Z</time>
      </trkpt>
      <trkpt lat="42.5414460" lon="-8.8979530">
        <ele>5.2</ele>
        <time>2020-08-07T15:00:09Z</time>
      </trkpt>
      <trkpt lat="42.5414300" lon="-8.8979680">
        <ele>5.2</ele>
        <time>2020-08-07T15:00:10Z</time>
      </trkpt>
      <trkpt lat="42.5414300" lon="-8.8979680">
        <ele>5.0</ele>
        <time>2020-08-07T15:00:11Z</time>
      </trkpt>
      <trkpt lat="42.5414300" lon="-8.8979680">
        <ele>5.0</ele>
        <time>2020-08-07T15:00:12Z</time>
      </trkpt>
      <trkpt lat="42.5414110" lon="-8.8979970">
        <ele>4.8</ele>
        <time>2020-08-07T15:00:13Z</time>
      </trkpt>
      <trkpt lat="42.5414110" lon="-8.8979970">
        <ele>4.8</ele>
        <time>2020-08-07T15:00:14Z</time>
      </trkpt>
      <trkpt lat="42.5414110" lon="-8.8979970">
        <ele>5.0</ele>
        <time>2020-08-07T15:00:15Z</time>
      </trkpt>
      <trkpt lat="42.5413920" lon="-8.8980250">
        <ele>4.8</ele>
        <time>2020-08-07T15:00:16Z</time>
      </trkpt>
      <trkpt lat="42.5413920" lon="-8.8980250">
        <ele>4.6</ele>
        <time>2020-08-07T15:00:17Z</time>
      </trkpt>
      <trkpt lat="42.5413920" lon="-8.8980250">
        <ele>4.8</ele>
        <time>2020-08-07T15:00:18Z</time>
      </trkpt>
      <trkpt lat="42.5413790" lon="-8.8980510">
        <ele>5.2</ele>
        <time>2020-08-07T15:00:19Z</time>
      </trkpt>
      <trkpt lat="42.5413790" lon="-8.8980510">
        <ele>5.0</ele>
        <time>2020-08-07T15:00:20Z</time>
      </trkpt>
      <trkpt lat="42.5413660" lon="-8.8980770">
        <ele>5.2</ele>
        <time>2020-08-07T15:00:21Z</time>
      </trkpt>
      <trkpt lat="42.5413660" lon="-8.8980770">
        <ele>5.0</ele>
        <time>2020-08-07T15:00:22Z</time>
      </trkpt>
      <trkpt lat="42.5413540" lon="-8.8980980">
        <ele>5.2</ele>
        <time>2020-08-07T15:00:23Z</time>
      </trkpt>
      <trkpt lat="42.5413540" lon="-8.8980980">
        <ele>5.2</ele>
        <time>2020-08-07T15:00:24Z</time>
      </trkpt>
      <trkpt lat="42.5413410" lon="-8.8981220">
        <ele>5.6</ele>
        <time>2020-08-07T15:00:25Z</time>
      </trkpt>
      <trkpt lat="42.5413410" lon="-8.8981220">
        <ele>5.4</ele>
        <time>2020-08-07T15:00:26Z</time>
      </trkpt>
      <trkpt lat="42.5413280" lon="-8.8981460">
        <ele>5.6</ele>
        <time>2020-08-07T15:00:27Z</time>
      </trkpt>
      <trkpt lat="42.5413280" lon="-8.8981460">
        <ele>5.6</ele>
        <time>2020-08-07T15:00:28Z</time>
      </trkpt>
      <trkpt lat="42.5413280" lon="-8.8981460">
        <ele>5.4</ele>
        <time>2020-08-07T15:00:29Z</time>
      </trkpt>
      <trkpt lat="42.5413180" lon="-8.8981780">
        <ele>5.2</ele>
        <time>2020-08-07T15:00:30Z</time>
      </trkpt>
      <trkpt lat="42.5413180" lon="-8.8981780">
        <ele>5.0</ele>
        <time>2020-08-07T15:00:31Z</time>
      </trkpt>
      <trkpt lat="42.5413090" lon="-8.8982000">
        <ele>5.2</ele>
        <time>2020-08-07T15:00:32Z</time>
      </trkpt>
      <trkpt lat="42.5413090" lon="-8.8982000">
        <ele>5.4</ele>
        <time>2020-08-07T15:00:33Z</time>
      </trkpt>
      <trkpt lat="42.5413090" lon="-8.8982000">
        <ele>5.4</ele>
        <time>2020-08-07T15:00:34Z</time>
      </trkpt>
      <trkpt lat="42.5412930" lon="-8.8982220">
        <ele>5.4</ele>
        <time>2020-08-07T15:00:35Z</time>
      </trkpt>
      <trkpt lat="42.5412930" lon="-8.8982220">
        <ele>5.2</ele>
        <time>2020-08-07T15:00:36Z</time>
      </trkpt>
      <trkpt lat="42.5412930" lon="-8.8982220">
        <ele>4.6</ele>
        <time>2020-08-07T15:00:37Z</time>
      </trkpt>
      <trkpt lat="42.5412830" lon="-8.8982490">
        <ele>4.4</ele>
        <time>2020-08-07T15:00:38Z</time>
      </trkpt>
      <trkpt lat="42.5412830" lon="-8.8982490">
        <ele>4.2</ele>
        <time>2020-08-07T15:00:39Z</time>
      </trkpt>
      <trkpt lat="42.5412830" lon="-8.8982490">
        <ele>4.2</ele>
        <time>2020-08-07T15:00:40Z</time>
      </trkpt>
      <trkpt lat="42.5412800" lon="-8.8982740">
        <ele>4.2</ele>
        <time>2020-08-07T15:00:41Z</time>
      </trkpt>
      <trkpt lat="42.5412800" lon="-8.8982740">
        <ele>4.4</ele>
        <time>2020-08-07T15:00:42Z</time>
      </trkpt>
      <trkpt lat="42.5412800" lon="-8.8982740">
        <ele>4.6</ele>
        <time>2020-08-07T15:00:43Z</time>
      </trkpt>
      <trkpt lat="42.5412800" lon="-8.8983030">
        <ele>4.6</ele>
        <time>2020-08-07T15:00:44Z</time>
      </trkpt>
      <trkpt lat="42.5412800" lon="-8.8983030">
        <ele>4.6</ele>
        <time>2020-08-07T15:00:45Z</time>
      </trkpt>
      <trkpt lat="42.5412800" lon="-8.8983030">
        <ele>4.8</ele>
        <time>2020-08-07T15:00:46Z</time>
      </trkpt>
      <trkpt lat="42.5412800" lon="-8.8983030">
        <ele>4.8</ele>
        <time>2020-08-07T15:00:47Z</time>
      </trkpt>
      <trkpt lat="42.5412800" lon="-8.8983030">
        <ele>5.0</ele>
        <time>2020-08-07T15:00:48Z</time>
      </trkpt>
      <trkpt lat="42.5412830" lon="-8.8983300">
        <ele>5.2</ele>
        <time>2020-08-07T15:00:49Z</time>
      </trkpt>
      <trkpt lat="42.5412830" lon="-8.8983300">
        <ele>5.4</ele>
        <time>2020-08-07T15:00:50Z</time>
      </trkpt>
      <trkpt lat="42.5412830" lon="-8.8983300">
        <ele>5.4</ele>
        <time>2020-08-07T15:00:51Z</time>
      </trkpt>
      <trkpt lat="42.5412830" lon="-8.8983300">
        <ele>5.4</ele>
        <time>2020-08-07T15:00:52Z</time>
      </trkpt>
      <trkpt lat="42.5412830" lon="-8.8983300">
        <ele>5.4</ele>
        <time>2020-08-07T15:00:53Z</time>
      </trkpt>
      <trkpt lat="42.5412830" lon="-8.8983300">
        <ele>5.4</ele>
        <time>2020-08-07T15:00:54Z</time>
      </trkpt>
      <trkpt lat="42.5412830" lon="-8.8983300">
        <ele>5.2</ele>
        <time>2020-08-07T15:00:55Z</time>
      </trkpt>
      <trkpt lat="42.5412830" lon="-8.8983300">
        <ele>5.2</ele>
        <time>2020-08-07T15:00:56Z</time>
      </trkpt>
      <trkpt lat="42.5412830" lon="-8.8983300">
        <ele>5.2</ele>
        <time>2020-08-07T15:00:57Z</time>
      </trkpt>
      <trkpt lat="42.5412830" lon="-8.8983300">
        <ele>5.2</ele>
        <time>2020-08-07T15:00:58Z</time>
      </trkpt>
      <trkpt lat="42.5412830" lon="-8.8983300">
        <ele>5.2</ele>
        <time>2020-08-07T15:00:59Z</time>
      </trkpt>
      <trkpt lat="42.5412830" lon="-8.8983300">
        <ele>5.2</ele>
        <time>2020-08-07T15:01:00Z</time>
      </trkpt>
      <trkpt lat="42.5412830" lon="-8.8983300">
        <ele>5.0</ele>
        <time>2020-08-07T15:01:01Z</time>
      </trkpt>
      <trkpt lat="42.5412830" lon="-8.8983300">
        <ele>4.8</ele>
        <time>2020-08-07T15:01:02Z</time>
      </trkpt>
      <trkpt lat="42.5412830" lon="-8.8983300">
        <ele>4.8</ele>
        <time>2020-08-07T15:01:03Z</time>
      </trkpt>
      <trkpt lat="42.5412830" lon="-8.8983300">
        <ele>4.6</ele>
        <time>2020-08-07T15:01:04Z</time>
      </trkpt>
      <trkpt lat="42.5412900" lon="-8.8983020">
        <ele>4.6</ele>
        <time>2020-08-07T15:01:05Z</time>
      </trkpt>
      <trkpt lat="42.5412900" lon="-8.8983020">
        <ele>4.4</ele>
        <time>2020-08-07T15:01:06Z</time>
      </trkpt>
      <trkpt lat="42.5412900" lon="-8.8983020">
        <ele>4.6</ele>
        <time>2020-08-07T15:01:07Z</time>
      </trkpt>
      <trkpt lat="42.5412990" lon="-8.8982800">
        <ele>4.4</ele>
        <time>2020-08-07T15:01:08Z</time>
      </trkpt>
      <trkpt lat="42.5412990" lon="-8.8982800">
        <ele>4.4</ele>
        <time>2020-08-07T15:01:09Z</time>
      </trkpt>
      <trkpt lat="42.5412990" lon="-8.8982800">
        <ele>4.6</ele>
        <time>2020-08-07T15:01:10Z</time>
      </trkpt>
      <trkpt lat="42.5412990" lon="-8.8982800">
        <ele>4.8</ele>
        <time>2020-08-07T15:01:11Z</time>
      </trkpt>
      <trkpt lat="42.5413090" lon="-8.8982560">
        <ele>4.8</ele>
        <time>2020-08-07T15:01:12Z</time>
      </trkpt>
      <trkpt lat="42.5413090" lon="-8.8982560">
        <ele>4.8</ele>
        <time>2020-08-07T15:01:13Z</time>
      </trkpt>
      <trkpt lat="42.5413090" lon="-8.8982560">
        <ele>5.2</ele>
        <time>2020-08-07T15:01:14Z</time>
      </trkpt>
      <trkpt lat="42.5413250" lon="-8.8982450">
        <ele>5.4</ele>
        <time>2020-08-07T15:01:15Z</time>
      </trkpt>
      <trkpt lat="42.5413250" lon="-8.8982450">
        <ele>5.4</ele>
        <time>2020-08-07T15:01:16Z</time>
      </trkpt>
      <trkpt lat="42.5413250" lon="-8.8982450">
        <ele>5.6</ele>
        <time>2020-08-07T15:01:17Z</time>
      </trkpt>
      <trkpt lat="42.5413280" lon="-8.8982160">
        <ele>6.8</ele>
        <time>2020-08-07T15:01:18Z</time>
      </trkpt>
      <trkpt lat="42.5413280" lon="-8.8982160">
        <ele>7.2</ele>
        <time>2020-08-07T15:01:19Z</time>
      </trkpt>
      <trkpt lat="42.5413380" lon="-8.8981910">
        <ele>6.6</ele>
        <time>2020-08-07T15:01:20Z</time>
      </trkpt>
      <trkpt lat="42.5413380" lon="-8.8981910">
        <ele>6.6</ele>
        <time>2020-08-07T15:01:21Z</time>
      </trkpt>
      <trkpt lat="42.5413500" lon="-8.8981740">
        <ele>6.2</ele>
        <time>2020-08-07T15:01:22Z</time>
      </trkpt>
      <trkpt lat="42.5413500" lon="-8.8981740">
        <ele>5.8</ele>
        <time>2020-08-07T15:01:23Z</time>
      </trkpt>
      <trkpt lat="42.5413700" lon="-8.8981620">
        <ele>6.0</ele>
        <time>2020-08-07T15:01:24Z</time>
      </trkpt>
      <trkpt lat="42.5413700" lon="-8.8981620">
        <ele>5.6</ele>
        <time>2020-08-07T15:01:25Z</time>
      </trkpt>
      <trkpt lat="42.5413890" lon="-8.8981580">
        <ele>5.2</ele>
        <time>2020-08-07T15:01:26Z</time>
      </trkpt>
      <trkpt lat="42.5413890" lon="-8.8981580">
        <ele>5.6</ele>
        <time>2020-08-07T15:01:27Z</time>
      </trkpt>
      <trkpt lat="42.5413890" lon="-8.8981580">
        <ele>5.6</ele>
        <time>2020-08-07T15:01:28Z</time>
      </trkpt>
      <trkpt lat="42.5414110" lon="-8.8981700">
        <ele>5.4</ele>
        <time>2020-08-07T15:01:29Z</time>
      </trkpt>
      <trkpt lat="42.5414110" lon="-8.8981700">
        <ele>5.4</ele>
        <time>2020-08-07T15:01:30Z</time>
      </trkpt>
      <trkpt lat="42.5414110" lon="-8.8981700">
        <ele>5.2</ele>
        <time>2020-08-07T15:01:31Z</time>
      </trkpt>
      <trkpt lat="42.5414240" lon="-8.8981890">
        <ele>5.2</ele>
        <time>2020-08-07T15:01:32Z</time>
      </trkpt>
      <trkpt lat="42.5414240" lon="-8.8981890">
        <ele>5.2</ele>
        <time>2020-08-07T15:01:33Z</time>
      </trkpt>
      <trkpt lat="42.5414240" lon="-8.8981890">
        <ele>4.8</ele>
        <time>2020-08-07T15:01:34Z</time>
      </trkpt>
      <trkpt lat="42.5414240" lon="-8.8981890">
        <ele>4.8</ele>
        <time>2020-08-07T15:01:35Z</time>
      </trkpt>
      <trkpt lat="42.5414240" lon="-8.8981890">
        <ele>4.8</ele>
        <time>2020-08-07T15:01:36Z</time>
      </trkpt>
      <trkpt lat="42.5414240" lon="-8.8981890">
        <ele>4.8</ele>
        <time>2020-08-07T15:01:37Z</time>
      </trkpt>
      <trkpt lat="42.5414240" lon="-8.8981890">
        <ele>4.8</ele>
        <time>2020-08-07T15:01:38Z</time>
      </trkpt>
      <trkpt lat="42.5414240" lon="-8.8981890">
        <ele>4.8</ele>
        <time>2020-08-07T15:01:39Z</time>
      </trkpt>
      <trkpt lat="42.5414240" lon="-8.8981890">
        <ele>4.8</ele>
        <time>2020-08-07T15:01:40Z</time>
      </trkpt>
      <trkpt lat="42.5414240" lon="-8.8981890">
        <ele>4.8</ele>
        <time>2020-08-07T15:01:41Z</time>
      </trkpt>
      <trkpt lat="42.5414240" lon="-8.8981890">
        <ele>4.6</ele>
        <time>2020-08-07T15:01:42Z</time>
      </trkpt>
      <trkpt lat="42.5414240" lon="-8.8981890">
        <ele>4.6</ele>
        <time>2020-08-07T15:01:43Z</time>
      </trkpt>
      <trkpt lat="42.5414240" lon="-8.8981890">
        <ele>4.4</ele>
        <time>2020-08-07T15:01:44Z</time>
      </trkpt>
      <trkpt lat="42.5414240" lon="-8.8981890">
        <ele>4.2</ele>
        <time>2020-08-07T15:01:45Z</time>
      </trkpt>
      <trkpt lat="42.5414080" lon="-8.8981760">
        <ele>4.2</ele>
        <time>2020-08-07T15:01:46Z</time>
      </trkpt>
      <trkpt lat="42.5414080" lon="-8.8981760">
        <ele>4.2</ele>
        <time>2020-08-07T15:01:47Z</time>
      </trkpt>
      <trkpt lat="42.5414080" lon="-8.8981760">
        <ele>4.4</ele>
        <time>2020-08-07T15:01:48Z</time>
      </trkpt>
      <trkpt lat="42.5414080" lon="-8.8981760">
        <ele>4.4</ele>
        <time>2020-08-07T15:01:49Z</time>
      </trkpt>
      <trkpt lat="42.5414080" lon="-8.8981760">
        <ele>4.8</ele>
        <time>2020-08-07T15:01:50Z</time>
      </trkpt>
      <trkpt lat="42.5413920" lon="-8.8981540">
        <ele>5.4</ele>
        <time>2020-08-07T15:01:51Z</time>
      </trkpt>
      <trkpt lat="42.5413920" lon="-8.8981540">
        <ele>5.4</ele>
        <time>2020-08-07T15:01:52Z</time>
      </trkpt>
      <trkpt lat="42.5413920" lon="-8.8981540">
        <ele>5.6</ele>
        <time>2020-08-07T15:01:53Z</time>
      </trkpt>
      <trkpt lat="42.5413920" lon="-8.8981540">
        <ele>5.4</ele>
        <time>2020-08-07T15:01:54Z</time>
      </trkpt>
      <trkpt lat="42.5413920" lon="-8.8981540">
        <ele>5.4</ele>
        <time>2020-08-07T15:01:55Z</time>
      </trkpt>
      <trkpt lat="42.5413920" lon="-8.8981540">
        <ele>5.2</ele>
        <time>2020-08-07T15:01:56Z</time>
      </trkpt>
      <trkpt lat="42.5413820" lon="-8.8981290">
        <ele>5.2</ele>
        <time>2020-08-07T15:01:57Z</time>
      </trkpt>
      <trkpt lat="42.5413820" lon="-8.8981290">
        <ele>4.8</ele>
        <time>2020-08-07T15:01:58Z</time>
      </trkpt>
      <trkpt lat="42.5413820" lon="-8.8981290">
        <ele>4.8</ele>
        <time>2020-08-07T15:01:59Z</time>
      </trkpt>
      <trkpt lat="42.5413820" lon="-8.8981290">
        <ele>5.0</ele>
        <time>2020-08-07T15:02:00Z</time>
      </trkpt>
      <trkpt lat="42.5413820" lon="-8.8981290">
        <ele>4.8</ele>
        <time>2020-08-07T15:02:01Z</time>
      </trkpt>
      <trkpt lat="42.5413820" lon="-8.8980980">
        <ele>5.0</ele>
        <time>2020-08-07T15:02:02Z</time>
      </trkpt>
      <trkpt lat="42.5413820" lon="-8.8980980">
        <ele>5.0</ele>
        <time>2020-08-07T15:02:03Z</time>
      </trkpt>
      <trkpt lat="42.5413820" lon="-8.8980980">
        <ele>4.8</ele>
        <time>2020-08-07T15:02:04Z</time>
      </trkpt>
      <trkpt lat="42.5413700" lon="-8.8980650">
        <ele>4.6</ele>
        <time>2020-08-07T15:02:05Z</time>
      </trkpt>
      <trkpt lat="42.5413700" lon="-8.8980650">
        <ele>4.6</ele>
        <time>2020-08-07T15:02:06Z</time>
      </trkpt>
      <trkpt lat="42.5413540" lon="-8.8980440">
        <ele>4.6</ele>
        <time>2020-08-07T15:02:07Z</time>
      </trkpt>
      <trkpt lat="42.5413540" lon="-8.8980440">
        <ele>4.8</ele>
        <time>2020-08-07T15:02:08Z</time>
      </trkpt>
      <trkpt lat="42.5413410" lon="-8.8980220">
        <ele>4.6</ele>
        <time>2020-08-07T15:02:09Z</time>
      </trkpt>
      <trkpt lat="42.5413410" lon="-8.8980220">
        <ele>4.2</ele>
        <time>2020-08-07T15:02:10Z</time>
      </trkpt>
      <trkpt lat="42.5413180" lon="-8.8980080">
        <ele>4.0</ele>
        <time>2020-08-07T15:02:11Z</time>
      </trkpt>
      <trkpt lat="42.5413180" lon="-8.8980080">
        <ele>4.4</ele>
        <time>2020-08-07T15:02:12Z</time>
      </trkpt>
      <trkpt lat="42.5412990" lon="-8.8980000">
        <ele>4.6</ele>
        <time>2020-08-07T15:02:13Z</time>
      </trkpt>
      <trkpt lat="42.5412990" lon="-8.8980000">
        <ele>4.8</ele>
        <time>2020-08-07T15:02:14Z</time>
      </trkpt>
      <trkpt lat="42.5412740" lon="-8.8979990">
        <ele>5.2</ele>
        <time>2020-08-07T15:02:15Z</time>
      </trkpt>
      <trkpt lat="42.5412740" lon="-8.8979990">
        <ele>5.4</ele>
        <time>2020-08-07T15:02:16Z</time>
      </trkpt>
      <trkpt lat="42.5412510" lon="-8.8980000">
        <ele>5.6</ele>
        <time>2020-08-07T15:02:17Z</time>
      </trkpt>
      <trkpt lat="42.5412510" lon="-8.8980000">
        <ele>5.4</ele>
        <time>2020-08-07T15:02:18Z</time>
      </trkpt>
      <trkpt lat="42.5412290" lon="-8.8980050">
        <ele>5.4</ele>
        <time>2020-08-07T15:02:19Z</time>
      </trkpt>
      <trkpt lat="42.5412290" lon="-8.8980050">
        <ele>5.0</ele>
        <time>2020-08-07T15:02:20Z</time>
      </trkpt>
      <trkpt lat="42.5412100" lon="-8.8980130">
        <ele>5.0</ele>
        <time>2020-08-07T15:02:21Z</time>
      </trkpt>
      <trkpt lat="42.5412100" lon="-8.8980130">
        <ele>4.8</ele>
        <time>2020-08-07T15:02:22Z</time>
      </trkpt>
      <trkpt lat="42.5411900" lon="-8.8980200">
        <ele>5.0</ele>
        <time>2020-08-07T15:02:23Z</time>
      </trkpt>
      <trkpt lat="42.5411900" lon="-8.8980200">
        <ele>5.0</ele>
        <time>2020-08-07T15:02:24Z</time>
      </trkpt>
      <trkpt lat="42.5411680" lon="-8.8980300">
        <ele>5.0</ele>
        <time>2020-08-07T15:02:25Z</time>
      </trkpt>
      <trkpt lat="42.5411680" lon="-8.8980300">
        <ele>5.0</ele>
        <time>2020-08-07T15:02:26Z</time>
      </trkpt>
      <trkpt lat="42.5411680" lon="-8.8980300">
        <ele>5.2</ele>
        <time>2020-08-07T15:02:27Z</time>
      </trkpt>
      <trkpt lat="42.5411460" lon="-8.8980460">
        <ele>5.0</ele>
        <time>2020-08-07T15:02:28Z</time>
      </trkpt>
      <trkpt lat="42.5411460" lon="-8.8980460">
        <ele>5.0</ele>
        <time>2020-08-07T15:02:29Z</time>
      </trkpt>
      <trkpt lat="42.5411260" lon="-8.8980530">
        <ele>5.0</ele>
        <time>2020-08-07T15:02:30Z</time>
      </trkpt>
      <trkpt lat="42.5411260" lon="-8.8980530">
        <ele>5.0</ele>
        <time>2020-08-07T15:02:31Z</time>
      </trkpt>
      <trkpt lat="42.5411070" lon="-8.8980570">
        <ele>5.2</ele>
        <time>2020-08-07T15:02:32Z</time>
      </trkpt>
      <trkpt lat="42.5411070" lon="-8.8980570">
        <ele>5.2</ele>
        <time>2020-08-07T15:02:33Z</time>
      </trkpt>
      <trkpt lat="42.5411070" lon="-8.8980570">
        <ele>5.6</ele>
        <time>2020-08-07T15:02:34Z</time>
      </trkpt>
      <trkpt lat="42.5410750" lon="-8.8980660">
        <ele>5.8</ele>
        <time>2020-08-07T15:02:35Z</time>
      </trkpt>
      <trkpt lat="42.5410750" lon="-8.8980660">
        <ele>5.8</ele>
        <time>2020-08-07T15:02:36Z</time>
      </trkpt>
      <trkpt lat="42.5410560" lon="-8.8980730">
        <ele>5.8</ele>
        <time>2020-08-07T15:02:37Z</time>
      </trkpt>
      <trkpt lat="42.5410560" lon="-8.8980730">
        <ele>5.6</ele>
        <time>2020-08-07T15:02:38Z</time>
      </trkpt>
      <trkpt lat="42.5410340" lon="-8.8980860">
        <ele>5.6</ele>
        <time>2020-08-07T15:02:39Z</time>
      </trkpt>
      <trkpt lat="42.5410340" lon="-8.8980860">
        <ele>5.6</ele>
        <time>2020-08-07T15:02:40Z</time>
      </trkpt>
      <trkpt lat="42.5410110" lon="-8.8981020">
        <ele>5.6</ele>
        <time>2020-08-07T15:02:41Z</time>
      </trkpt>
      <trkpt lat="42.5410110" lon="-8.8981020">
        <ele>5.4</ele>
        <time>2020-08-07T15:02:42Z</time>
      </trkpt>
      <trkpt lat="42.5409920" lon="-8.8981200">
        <ele>5.6</ele>
        <time>2020-08-07T15:02:43Z</time>
      </trkpt>
      <trkpt lat="42.5409920" lon="-8.8981200">
        <ele>5.6</ele>
        <time>2020-08-07T15:02:44Z</time>
      </trkpt>
      <trkpt lat="42.5409730" lon="-8.8981370">
        <ele>6.0</ele>
        <time>2020-08-07T15:02:45Z</time>
      </trkpt>
      <trkpt lat="42.5409730" lon="-8.8981370">
        <ele>5.8</ele>
        <time>2020-08-07T15:02:46Z</time>
      </trkpt>
      <trkpt lat="42.5409600" lon="-8.8981630">
        <ele>5.8</ele>
        <time>2020-08-07T15:02:47Z</time>
      </trkpt>
      <trkpt lat="42.5409600" lon="-8.8981630">
        <ele>5.8</ele>
        <time>2020-08-07T15:02:48Z</time>
      </trkpt>
      <trkpt lat="42.5409600" lon="-8.8981630">
        <ele>5.6</ele>
        <time>2020-08-07T15:02:49Z</time>
      </trkpt>
      <trkpt lat="42.5409500" lon="-8.8981910">
        <ele>5.6</ele>
        <time>2020-08-07T15:02:50Z</time>
      </trkpt>
      <trkpt lat="42.5409500" lon="-8.8981910">
        <ele>5.4</ele>
        <time>2020-08-07T15:02:51Z</time>
      </trkpt>
      <trkpt lat="42.5409500" lon="-8.8981910">
        <ele>5.2</ele>
        <time>2020-08-07T15:02:52Z</time>
      </trkpt>
      <trkpt lat="42.5409470" lon="-8.8982260">
        <ele>5.2</ele>
        <time>2020-08-07T15:02:53Z</time>
      </trkpt>
      <trkpt lat="42.5409470" lon="-8.8982260">
        <ele>5.2</ele>
        <time>2020-08-07T15:02:54Z</time>
      </trkpt>
      <trkpt lat="42.5409500" lon="-8.8982510">
        <ele>5.2</ele>
        <time>2020-08-07T15:02:55Z</time>
      </trkpt>
      <trkpt lat="42.5409500" lon="-8.8982510">
        <ele>4.8</ele>
        <time>2020-08-07T15:02:56Z</time>
      </trkpt>
      <trkpt lat="42.5409600" lon="-8.8982740">
        <ele>5.2</ele>
        <time>2020-08-07T15:02:57Z</time>
      </trkpt>
      <trkpt lat="42.5409600" lon="-8.8982740">
        <ele>5.2</ele>
        <time>2020-08-07T15:02:58Z</time>
      </trkpt>
      <trkpt lat="42.5409600" lon="-8.8982740">
        <ele>5.0</ele>
        <time>2020-08-07T15:02:59Z</time>
      </trkpt>
      <trkpt lat="42.5409700" lon="-8.8983020">
        <ele>5.2</ele>
        <time>2020-08-07T15:03:00Z</time>
      </trkpt>
      <trkpt lat="42.5409700" lon="-8.8983020">
        <ele>5.2</ele>
        <time>2020-08-07T15:03:01Z</time>
      </trkpt>
      <trkpt lat="42.5409700" lon="-8.8983020">
        <ele>5.6</ele>
        <time>2020-08-07T15:03:02Z</time>
      </trkpt>
      <trkpt lat="42.5409890" lon="-8.8983290">
        <ele>5.2</ele>
        <time>2020-08-07T15:03:03Z</time>
      </trkpt>
      <trkpt lat="42.5409890" lon="-8.8983290">
        <ele>5.2</ele>
        <time>2020-08-07T15:03:04Z</time>
      </trkpt>
      <trkpt lat="42.5410050" lon="-8.8983480">
        <ele>5.0</ele>
        <time>2020-08-07T15:03:05Z</time>
      </trkpt>
      <trkpt lat="42.5410050" lon="-8.8983480">
        <ele>5.0</ele>
        <time>2020-08-07T15:03:06Z</time>
      </trkpt>
      <trkpt lat="42.5410140" lon="-8.8983690">
        <ele>4.6</ele>
        <time>2020-08-07T15:03:07Z</time>
      </trkpt>
      <trkpt lat="42.5410140" lon="-8.8983690">
        <ele>4.6</ele>
        <time>2020-08-07T15:03:08Z</time>
      </trkpt>
      <trkpt lat="42.5410140" lon="-8.8983690">
        <ele>4.2</ele>
        <time>2020-08-07T15:03:09Z</time>
      </trkpt>
      <trkpt lat="42.5410300" lon="-8.8983940">
        <ele>4.2</ele>
        <time>2020-08-07T15:03:10Z</time>
      </trkpt>
      <trkpt lat="42.5410300" lon="-8.8983940">
        <ele>4.0</ele>
        <time>2020-08-07T15:03:11Z</time>
      </trkpt>
      <trkpt lat="42.5410430" lon="-8.8984140">
        <ele>4.0</ele>
        <time>2020-08-07T15:03:12Z</time>
      </trkpt>
      <trkpt lat="42.5410430" lon="-8.8984140">
        <ele>4.0</ele>
        <time>2020-08-07T15:03:13Z</time>
      </trkpt>
      <trkpt lat="42.5410430" lon="-8.8984140">
        <ele>4.0</ele>
        <time>2020-08-07T15:03:14Z</time>
      </trkpt>
      <trkpt lat="42.5410620" lon="-8.8984470">
        <ele>4.0</ele>
        <time>2020-08-07T15:03:15Z</time>
      </trkpt>
      <trkpt lat="42.5410620" lon="-8.8984470">
        <ele>4.6</ele>
        <time>2020-08-07T15:03:16Z</time>
      </trkpt>
      <trkpt lat="42.5410690" lon="-8.8984740">
        <ele>4.6</ele>
        <time>2020-08-07T15:03:17Z</time>
      </trkpt>
      <trkpt lat="42.5410690" lon="-8.8984740">
        <ele>4.8</ele>
        <time>2020-08-07T15:03:18Z</time>
      </trkpt>
      <trkpt lat="42.5410820" lon="-8.8984980">
        <ele>4.8</ele>
        <time>2020-08-07T15:03:19Z</time>
      </trkpt>
      <trkpt lat="42.5410820" lon="-8.8984980">
        <ele>4.8</ele>
        <time>2020-08-07T15:03:20Z</time>
      </trkpt>
      <trkpt lat="42.5410910" lon="-8.8985220">
        <ele>4.6</ele>
        <time>2020-08-07T15:03:21Z</time>
      </trkpt>
      <trkpt lat="42.5410910" lon="-8.8985220">
        <ele>4.8</ele>
        <time>2020-08-07T15:03:22Z</time>
      </trkpt>
      <trkpt lat="42.5410910" lon="-8.8985220">
        <ele>5.0</ele>
        <time>2020-08-07T15:03:23Z</time>
      </trkpt>
      <trkpt lat="42.5411040" lon="-8.8985520">
        <ele>5.2</ele>
        <time>2020-08-07T15:03:24Z</time>
      </trkpt>
      <trkpt lat="42.5411040" lon="-8.8985520">
        <ele>5.2</ele>
        <time>2020-08-07T15:03:25Z</time>
      </trkpt>
      <trkpt lat="42.5411140" lon="-8.8985780">
        <ele>4.8</ele>
        <time>2020-08-07T15:03:26Z</time>
      </trkpt>
      <trkpt lat="42.5411140" lon="-8.8985780">
        <ele>5.2</ele>
        <time>2020-08-07T15:03:27Z</time>
      </trkpt>
      <trkpt lat="42.5411260" lon="-8.8986020">
        <ele>5.0</ele>
        <time>2020-08-07T15:03:28Z</time>
      </trkpt>
      <trkpt lat="42.5411260" lon="-8.8986020">
        <ele>5.2</ele>
        <time>2020-08-07T15:03:29Z</time>
      </trkpt>
      <trkpt lat="42.5411420" lon="-8.8986260">
        <ele>4.8</ele>
        <time>2020-08-07T15:03:30Z</time>
      </trkpt>
      <trkpt lat="42.5411420" lon="-8.8986260">
        <ele>4.6</ele>
        <time>2020-08-07T15:03:31Z</time>
      </trkpt>
      <trkpt lat="42.5411520" lon="-8.8986480">
        <ele>4.4</ele>
        <time>2020-08-07T15:03:32Z</time>
      </trkpt>
      <trkpt lat="42.5411520" lon="-8.8986480">
        <ele>4.2</ele>
        <time>2020-08-07T15:03:33Z</time>
      </trkpt>
      <trkpt lat="42.5411680" lon="-8.8986730">
        <ele>4.2</ele>
        <time>2020-08-07T15:03:34Z</time>
      </trkpt>
      <trkpt lat="42.5411680" lon="-8.8986730">
        <ele>4.2</ele>
        <time>2020-08-07T15:03:35Z</time>
      </trkpt>
      <trkpt lat="42.5411810" lon="-8.8986930">
        <ele>4.0</ele>
        <time>2020-08-07T15:03:36Z</time>
      </trkpt>
      <trkpt lat="42.5411810" lon="-8.8986930">
        <ele>3.6</ele>
        <time>2020-08-07T15:03:37Z</time>
      </trkpt>
      <trkpt lat="42.5411940" lon="-8.8987130">
        <ele>3.6</ele>
        <time>2020-08-07T15:03:38Z</time>
      </trkpt>
      <trkpt lat="42.5411940" lon="-8.8987130">
        <ele>3.6</ele>
        <time>2020-08-07T15:03:39Z</time>
      </trkpt>
      <trkpt lat="42.5412030" lon="-8.8987370">
        <ele>3.4</ele>
        <time>2020-08-07T15:03:40Z</time>
      </trkpt>
      <trkpt lat="42.5412030" lon="-8.8987370">
        <ele>3.4</ele>
        <time>2020-08-07T15:03:41Z</time>
      </trkpt>
      <trkpt lat="42.5412100" lon="-8.8987600">
        <ele>3.2</ele>
        <time>2020-08-07T15:03:42Z</time>
      </trkpt>
      <trkpt lat="42.5412100" lon="-8.8987600">
        <ele>3.4</ele>
        <time>2020-08-07T15:03:43Z</time>
      </trkpt>
      <trkpt lat="42.5412220" lon="-8.8987840">
        <ele>3.8</ele>
        <time>2020-08-07T15:03:44Z</time>
      </trkpt>
      <trkpt lat="42.5412220" lon="-8.8987840">
        <ele>4.0</ele>
        <time>2020-08-07T15:03:45Z</time>
      </trkpt>
      <trkpt lat="42.5412220" lon="-8.8987840">
        <ele>4.2</ele>
        <time>2020-08-07T15:03:46Z</time>
      </trkpt>
      <trkpt lat="42.5412320" lon="-8.8988170">
        <ele>4.6</ele>
        <time>2020-08-07T15:03:47Z</time>
      </trkpt>
      <trkpt lat="42.5412320" lon="-8.8988170">
        <ele>4.4</ele>
        <time>2020-08-07T15:03:48Z</time>
      </trkpt>
      <trkpt lat="42.5412450" lon="-8.8988350">
        <ele>4.2</ele>
        <time>2020-08-07T15:03:49Z</time>
      </trkpt>
      <trkpt lat="42.5412450" lon="-8.8988350">
        <ele>4.0</ele>
        <time>2020-08-07T15:03:50Z</time>
      </trkpt>
      <trkpt lat="42.5412450" lon="-8.8988350">
        <ele>4.0</ele>
        <time>2020-08-07T15:03:51Z</time>
      </trkpt>
      <trkpt lat="42.5412990" lon="-8.8989710">
        <ele>1.4</ele>
        <time>2020-08-07T17:10:00Z</time>
      </trkpt>
      <trkpt lat="42.5412990" lon="-8.8989710">
        <ele>1.4</ele>
        <time>2020-08-07T17:10:05Z</time>
      </trkpt>
      <trkpt lat="42.5412990" lon="-8.8989710">
        <ele>1.4</ele>
        <time>2020-08-07T17:10:06Z</time>
      </trkpt>
      <trkpt lat="42.5412990" lon="-8.8989710">
        <ele>1.4</ele>
        <time>2020-08-07T17:10:07Z</time>
      </trkpt>
      <trkpt lat="42.5412990" lon="-8.8989710">
        <ele>1.4</ele>
        <time>2020-08-07T17:10:08Z</time>
      </trkpt>
      <trkpt lat="42.5412990" lon="-8.8989710">
        <ele>1.4</ele>
        <time>2020-08-07T17:10:09Z</time>
      </trkpt>
      <trkpt lat="42.5412990" lon="-8.8989710">
        <ele>1.4</ele>
        <time>2020-08-07T17:10:10Z</time>
      </trkpt>
      <trkpt lat="42.5412990" lon="-8.8989710">
        <ele>1.4</ele>
        <time>2020-08-07T17:10:11Z</time>
      </trkpt>
      <trkpt lat="42.5412990" lon="-8.8989710">
        <ele>1.4</ele>
        <time>2020-08-07T17:10:12Z</time>
      </trkpt>
      <trkpt lat="42.5412990" lon="-8.8989710">
        <ele>1.4</ele>
        <time>2020-08-07T17:10:13Z</time>
      </trkpt>
      <trkpt lat="42.5412990" lon="-8.8989710">
        <ele>1.4</ele>
        <time>2020-08-07T17:10:14Z</time>
      </trkpt>
      <trkpt lat="42.5412990" lon="-8.8989710">
        <ele>1.4</ele>
        <time>2020-08-07T17:10:15Z</time>
      </trkpt>
      <trkpt lat="42.5412990" lon="-8.8989710">
        <ele>1.4</ele>
        <time>2020-08-07T17:10:16Z</time>
      </trkpt>
      <trkpt lat="42.5412860" lon="-8.8989580">
        <ele>1.2</ele>
        <time>2020-08-07T17:10:17Z</time>
      </trkpt>
      <trkpt lat="42.5412860" lon="-8.8989580">
        <ele>1.2</ele>
        <time>2020-08-07T17:10:18Z</time>
      </trkpt>
      <trkpt lat="42.5412800" lon="-8.8989180">
        <ele>0.8</ele>
        <time>2020-08-07T17:10:19Z</time>
      </trkpt>
      <trkpt lat="42.5412800" lon="-8.8989180">
        <ele>1.0</ele>
        <time>2020-08-07T17:10:20Z</time>
      </trkpt>
      <trkpt lat="42.5412670" lon="-8.8988750">
        <ele>0.6</ele>
        <time>2020-08-07T17:10:21Z</time>
      </trkpt>
      <trkpt lat="42.5412670" lon="-8.8988750">
        <ele>0.4</ele>
        <time>2020-08-07T17:10:22Z</time>
      </trkpt>
      <trkpt lat="42.5412610" lon="-8.8988260">
        <ele>0.2</ele>
        <time>2020-08-07T17:10:23Z</time>
      </trkpt>
      <trkpt lat="42.5412610" lon="-8.8988260">
        <ele>0.4</ele>
        <time>2020-08-07T17:10:24Z</time>
      </trkpt>
      <trkpt lat="42.5412540" lon="-8.8987800">
        <ele>0.2</ele>
        <time>2020-08-07T17:10:25Z</time>
      </trkpt>
      <trkpt lat="42.5412540" lon="-8.8987800">
        <ele>0.2</ele>
        <time>2020-08-07T17:10:26Z</time>
      </trkpt>
      <trkpt lat="42.5412480" lon="-8.8987400">
        <ele>0.4</ele>
        <time>2020-08-07T17:10:27Z</time>
      </trkpt>
      <trkpt lat="42.5412480" lon="-8.8987400">
        <ele>0.6</ele>
        <time>2020-08-07T17:10:28Z</time>
      </trkpt>
      <trkpt lat="42.5412480" lon="-8.8987060">
        <ele>0.8</ele>
        <time>2020-08-07T17:10:29Z</time>
      </trkpt>
      <trkpt lat="42.5412480" lon="-8.8987060">
        <ele>1.0</ele>
        <time>2020-08-07T17:10:30Z</time>
      </trkpt>
      <trkpt lat="42.5412450" lon="-8.8986700">
        <ele>1.0</ele>
        <time>2020-08-07T17:10:31Z</time>
      </trkpt>
      <trkpt lat="42.5412450" lon="-8.8986700">
        <ele>1.0</ele>
        <time>2020-08-07T17:10:32Z</time>
      </trkpt>
      <trkpt lat="42.5412420" lon="-8.8986330">
        <ele>1.0</ele>
        <time>2020-08-07T17:10:33Z</time>
      </trkpt>
      <trkpt lat="42.5412420" lon="-8.8986330">
        <ele>1.0</ele>
        <time>2020-08-07T17:10:34Z</time>
      </trkpt>
      <trkpt lat="42.5412380" lon="-8.8985950">
        <ele>1.6</ele>
        <time>2020-08-07T17:10:35Z</time>
      </trkpt>
      <trkpt lat="42.5412380" lon="-8.8985950">
        <ele>1.4</ele>
        <time>2020-08-07T17:10:36Z</time>
      </trkpt>
      <trkpt lat="42.5412320" lon="-8.8985530">
        <ele>1.6</ele>
        <time>2020-08-07T17:10:37Z</time>
      </trkpt>
      <trkpt lat="42.5412320" lon="-8.8985530">
        <ele>1.4</ele>
        <time>2020-08-07T17:10:38Z</time>
      </trkpt>
      <trkpt lat="42.5412290" lon="-8.8985140">
        <ele>1.6</ele>
        <time>2020-08-07T17:10:39Z</time>
      </trkpt>
      <trkpt lat="42.5412290" lon="-8.8985140">
        <ele>1.6</ele>
        <time>2020-08-07T17:10:40Z</time>
      </trkpt>
      <trkpt lat="42.5412220" lon="-8.8984820">
        <ele>1.4</ele>
        <time>2020-08-07T17:10:41Z</time>
      </trkpt>
      <trkpt lat="42.5412220" lon="-8.8984820">
        <ele>1.4</ele>
        <time>2020-08-07T17:10:42Z</time>
      </trkpt>
      <trkpt lat="42.5412190" lon="-8.8984430">
        <ele>1.4</ele>
        <time>2020-08-07T17:10:43Z</time>
      </trkpt>
      <trkpt lat="42.5412190" lon="-8.8984430">
        <ele>1.6</ele>
        <time>2020-08-07T17:10:44Z</time>
      </trkpt>
      <trkpt lat="42.5412190" lon="-8.8984080">
        <ele>1.8</ele>
        <time>2020-08-07T17:10:45Z</time>
      </trkpt>
      <trkpt lat="42.5412190" lon="-8.8984080">
        <ele>1.8</ele>
        <time>2020-08-07T17:10:46Z</time>
      </trkpt>
      <trkpt lat="42.5412190" lon="-8.8983740">
        <ele>2.0</ele>
        <time>2020-08-07T17:10:47Z</time>
      </trkpt>
      <trkpt lat="42.5412190" lon="-8.8983740">
        <ele>2.2</ele>
        <time>2020-08-07T17:10:48Z</time>
      </trkpt>
      <trkpt lat="42.5412220" lon="-8.8983400">
        <ele>2.2</ele>
        <time>2020-08-07T17:10:49Z</time>
      </trkpt>
      <trkpt lat="42.5412220" lon="-8.8983400">
        <ele>2.0</ele>
        <time>2020-08-07T17:10:50Z</time>
      </trkpt>
      <trkpt lat="42.5412320" lon="-8.8983100">
        <ele>2.0</ele>
        <time>2020-08-07T17:10:51Z</time>
      </trkpt>
      <trkpt lat="42.5412320" lon="-8.8983100">
        <ele>2.0</ele>
        <time>2020-08-07T17:10:52Z</time>
      </trkpt>
      <trkpt lat="42.5412380" lon="-8.8982830">
        <ele>2.0</ele>
        <time>2020-08-07T17:10:53Z</time>
      </trkpt>
      <trkpt lat="42.5412380" lon="-8.8982830">
        <ele>2.0</ele>
        <time>2020-08-07T17:10:54Z</time>
      </trkpt>
      <trkpt lat="42.5412480" lon="-8.8982560">
        <ele>2.2</ele>
        <time>2020-08-07T17:10:55Z</time>
      </trkpt>
      <trkpt lat="42.5412480" lon="-8.8982560">
        <ele>2.2</ele>
        <time>2020-08-07T17:10:56Z</time>
      </trkpt>
      <trkpt lat="42.5412610" lon="-8.8982300">
        <ele>2.0</ele>
        <time>2020-08-07T17:10:57Z</time>
      </trkpt>
      <trkpt lat="42.5412610" lon="-8.8982300">
        <ele>1.8</ele>
        <time>2020-08-07T17:10:58Z</time>
      </trkpt>
      <trkpt lat="42.5412700" lon="-8.8982060">
        <ele>1.6</ele>
        <time>2020-08-07T17:10:59Z</time>
      </trkpt>
      <trkpt lat="42.5412700" lon="-8.8982060">
        <ele>1.6</ele>
        <time>2020-08-07T17:11:00Z</time>
      </trkpt>
      <trkpt lat="42.5412860" lon="-8.8981780">
        <ele>1.8</ele>
        <time>2020-08-07T17:11:01Z</time>
      </trkpt>
      <trkpt lat="42.5412860" lon="-8.8981780">
        <ele>2.0</ele>
        <time>2020-08-07T17:11:02Z</time>
      </trkpt>
      <trkpt lat="42.5413020" lon="-8.8981540">
        <ele>2.0</ele>
        <time>2020-08-07T17:11:03Z</time>
      </trkpt>
      <trkpt lat="42.5413020" lon="-8.8981540">
        <ele>2.2</ele>
        <time>2020-08-07T17:11:04Z</time>
      </trkpt>
      <trkpt lat="42.5413120" lon="-8.8981300">
        <ele>2.0</ele>
        <time>2020-08-07T17:11:05Z</time>
      </trkpt>
      <trkpt lat="42.5413120" lon="-8.8981300">
        <ele>2.0</ele>
        <time>2020-08-07T17:11:06Z</time>
      </trkpt>
      <trkpt lat="42.5413250" lon="-8.8981090">
        <ele>2.2</ele>
        <time>2020-08-07T17:11:07Z</time>
      </trkpt>
      <trkpt lat="42.5413250" lon="-8.8981090">
        <ele>2.2</ele>
        <time>2020-08-07T17:11:08Z</time>
      </trkpt>
      <trkpt lat="42.5413440" lon="-8.8980860">
        <ele>2.0</ele>
        <time>2020-08-07T17:11:09Z</time>
      </trkpt>
      <trkpt lat="42.5413440" lon="-8.8980860">
        <ele>2.2</ele>
        <time>2020-08-07T17:11:10Z</time>
      </trkpt>
      <trkpt lat="42.5413600" lon="-8.8980640">
        <ele>2.2</ele>
        <time>2020-08-07T17:11:11Z</time>
      </trkpt>
      <trkpt lat="42.5413600" lon="-8.8980640">
        <ele>2.0</ele>
        <time>2020-08-07T17:11:12Z</time>
      </trkpt>
      <trkpt lat="42.5413730" lon="-8.8980440">
        <ele>2.0</ele>
        <time>2020-08-07T17:11:13Z</time>
      </trkpt>
      <trkpt lat="42.5413730" lon="-8.8980440">
        <ele>2.0</ele>
        <time>2020-08-07T17:11:14Z</time>
      </trkpt>
      <trkpt lat="42.5413920" lon="-8.8980200">
        <ele>1.8</ele>
        <time>2020-08-07T17:11:15Z</time>
      </trkpt>
      <trkpt lat="42.5413920" lon="-8.8980200">
        <ele>1.6</ele>
        <time>2020-08-07T17:11:16Z</time>
      </trkpt>
      <trkpt lat="42.5414080" lon="-8.8979990">
        <ele>1.8</ele>
        <time>2020-08-07T17:11:17Z</time>
      </trkpt>
      <trkpt lat="42.5414080" lon="-8.8979990">
        <ele>2.0</ele>
        <time>2020-08-07T17:11:18Z</time>
      </trkpt>
      <trkpt lat="42.5414270" lon="-8.8979830">
        <ele>2.2</ele>
        <time>2020-08-07T17:11:19Z</time>
      </trkpt>
      <trkpt lat="42.5414270" lon="-8.8979830">
        <ele>2.2</ele>
        <time>2020-08-07T17:11:20Z</time>
      </trkpt>
      <trkpt lat="42.5414460" lon="-8.8979700">
        <ele>2.2</ele>
        <time>2020-08-07T17:11:21Z</time>
      </trkpt>
      <trkpt lat="42.5414460" lon="-8.8979700">
        <ele>2.6</ele>
        <time>2020-08-07T17:11:22Z</time>
      </trkpt>
      <trkpt lat="42.5414660" lon="-8.8979620">
        <ele>2.6</ele>
        <time>2020-08-07T17:11:23Z</time>
      </trkpt>
      <trkpt lat="42.5414660" lon="-8.8979620">
        <ele>2.8</ele>
        <time>2020-08-07T17:11:24Z</time>
      </trkpt>
      <trkpt lat="42.5414880" lon="-8.8979520">
        <ele>2.6</ele>
        <time>2020-08-07T17:11:25Z</time>
      </trkpt>
      <trkpt lat="42.5414880" lon="-8.8979520">
        <ele>2.6</ele>
        <time>2020-08-07T17:11:26Z</time>
      </trkpt>
      <trkpt lat="42.5415100" lon="-8.8979420">
        <ele>2.6</ele>
        <time>2020-08-07T17:11:27Z</time>
      </trkpt>
      <trkpt lat="42.5415100" lon="-8.8979420">
        <ele>2.6</ele>
        <time>2020-08-07T17:11:28Z</time>
      </trkpt>
      <trkpt lat="42.5415300" lon="-8.8979370">
        <ele>2.6</ele>
        <time>2020-08-07T17:11:29Z</time>
      </trkpt>
      <trkpt lat="42.5415300" lon="-8.8979370">
        <ele>3.0</ele>
        <time>2020-08-07T17:11:30Z</time>
      </trkpt>
      <trkpt lat="42.5415490" lon="-8.8979320">
        <ele>3.2</ele>
        <time>2020-08-07T17:11:31Z</time>
      </trkpt>
      <trkpt lat="42.5415490" lon="-8.8979320">
        <ele>3.2</ele>
        <time>2020-08-07T17:11:32Z</time>
      </trkpt>
      <trkpt lat="42.5415680" lon="-8.8979320">
        <ele>3.2</ele>
        <time>2020-08-07T17:11:33Z</time>
      </trkpt>
      <trkpt lat="42.5415680" lon="-8.8979320">
        <ele>3.2</ele>
        <time>2020-08-07T17:11:34Z</time>
      </trkpt>
      <trkpt lat="42.5415870" lon="-8.8979300">
        <ele>3.2</ele>
        <time>2020-08-07T17:11:35Z</time>
      </trkpt>
      <trkpt lat="42.5415870" lon="-8.8979300">
        <ele>3.2</ele>
        <time>2020-08-07T17:11:36Z</time>
      </trkpt>
      <trkpt lat="42.5416100" lon="-8.8979220">
        <ele>3.4</ele>
        <time>2020-08-07T17:11:37Z</time>
      </trkpt>
      <trkpt lat="42.5416100" lon="-8.8979220">
        <ele>3.8</ele>
        <time>2020-08-07T17:11:38Z</time>
      </trkpt>
      <trkpt lat="42.5416290" lon="-8.8979170">
        <ele>3.8</ele>
        <time>2020-08-07T17:11:39Z</time>
      </trkpt>
      <trkpt lat="42.5416290" lon="-8.8979170">
        <ele>4.0</ele>
        <time>2020-08-07T17:11:40Z</time>
      </trkpt>
      <trkpt lat="42.5416290" lon="-8.8979170">
        <ele>3.8</ele>
        <time>2020-08-07T17:11:41Z</time>
      </trkpt>
      <trkpt lat="42.5416580" lon="-8.8979080">
        <ele>3.8</ele>
        <time>2020-08-07T17:11:42Z</time>
      </trkpt>
      <trkpt lat="42.5416580" lon="-8.8979080">
        <ele>3.8</ele>
        <time>2020-08-07T17:11:43Z</time>
      </trkpt>
      <trkpt lat="42.5416580" lon="-8.8979080">
        <ele>3.8</ele>
        <time>2020-08-07T17:11:44Z</time>
      </trkpt>
      <trkpt lat="42.5416830" lon="-8.8979020">
        <ele>3.8</ele>
        <time>2020-08-07T17:11:45Z</time>
      </trkpt>
      <trkpt lat="42.5416830" lon="-8.8979020">
        <ele>4.2</ele>
        <time>2020-08-07T17:11:46Z</time>
      </trkpt>
      <trkpt lat="42.5417020" lon="-8.8978980">
        <ele>4.0</ele>
        <time>2020-08-07T17:11:47Z</time>
      </trkpt>
      <trkpt lat="42.5417020" lon="-8.8978980">
        <ele>3.8</ele>
        <time>2020-08-07T17:11:48Z</time>
      </trkpt>
      <trkpt lat="42.5417250" lon="-8.8978950">
        <ele>3.4</ele>
        <time>2020-08-07T17:11:49Z</time>
      </trkpt>
      <trkpt lat="42.5417250" lon="-8.8978950">
        <ele>3.6</ele>
        <time>2020-08-07T17:11:50Z</time>
      </trkpt>
      <trkpt lat="42.5417500" lon="-8.8978900">
        <ele>3.6</ele>
        <time>2020-08-07T17:11:51Z</time>
      </trkpt>
      <trkpt lat="42.5417500" lon="-8.8978900">
        <ele>3.6</ele>
        <time>2020-08-07T17:11:52Z</time>
      </trkpt>
      <trkpt lat="42.5417700" lon="-8.8978880">
        <ele>3.4</ele>
        <time>2020-08-07T17:11:53Z</time>
      </trkpt>
      <trkpt lat="42.5417700" lon="-8.8978880">
        <ele>3.4</ele>
        <time>2020-08-07T17:11:54Z</time>
      </trkpt>
      <trkpt lat="42.5417890" lon="-8.8978830">
        <ele>3.4</ele>
        <time>2020-08-07T17:11:55Z</time>
      </trkpt>
      <trkpt lat="42.5417890" lon="-8.8978830">
        <ele>3.2</ele>
        <time>2020-08-07T17:11:56Z</time>
      </trkpt>
      <trkpt lat="42.5418140" lon="-8.8978800">
        <ele>3.2</ele>
        <time>2020-08-07T17:11:57Z</time>
      </trkpt>
      <trkpt lat="42.5418140" lon="-8.8978800">
        <ele>3.0</ele>
        <time>2020-08-07T17:11:58Z</time>
      </trkpt>
      <trkpt lat="42.5418140" lon="-8.8978800">
        <ele>3.0</ele>
        <time>2020-08-07T17:11:59Z</time>
      </trkpt>
      <trkpt lat="42.5418460" lon="-8.8978730">
        <ele>3.0</ele>
        <time>2020-08-07T17:12:00Z</time>
      </trkpt>
      <trkpt lat="42.5418460" lon="-8.8978730">
        <ele>2.8</ele>
        <time>2020-08-07T17:12:01Z</time>
      </trkpt>
      <trkpt lat="42.5418690" lon="-8.8978700">
        <ele>2.8</ele>
        <time>2020-08-07T17:12:02Z</time>
      </trkpt>
      <trkpt lat="42.5418690" lon="-8.8978700">
        <ele>2.6</ele>
        <time>2020-08-07T17:12:03Z</time>
      </trkpt>
      <trkpt lat="42.5418940" lon="-8.8978630">
        <ele>2.4</ele>
        <time>2020-08-07T17:12:04Z</time>
      </trkpt>
      <trkpt lat="42.5418940" lon="-8.8978630">
        <ele>2.2</ele>
        <time>2020-08-07T17:12:05Z</time>
      </trkpt>
      <trkpt lat="42.5419170" lon="-8.8978580">
        <ele>2.4</ele>
        <time>2020-08-07T17:12:06Z</time>
      </trkpt>
      <trkpt lat="42.5419170" lon="-8.8978580">
        <ele>2.4</ele>
        <time>2020-08-07T17:12:07Z</time>
      </trkpt>
      <trkpt lat="42.5419360" lon="-8.8978500">
        <ele>2.4</ele>
        <time>2020-08-07T17:12:08Z</time>
      </trkpt>
      <trkpt lat="42.5419360" lon="-8.8978500">
        <ele>2.6</ele>
        <time>2020-08-07T17:12:09Z</time>
      </trkpt>
      <trkpt lat="42.5419550" lon="-8.8978410">
        <ele>2.4</ele>
        <time>2020-08-07T17:12:10Z</time>
      </trkpt>
      <trkpt lat="42.5419550" lon="-8.8978410">
        <ele>2.2</ele>
        <time>2020-08-07T17:12:11Z</time>
      </trkpt>
      <trkpt lat="42.5419780" lon="-8.8978300">
        <ele>2.2</ele>
        <time>2020-08-07T17:12:12Z</time>
      </trkpt>
      <trkpt lat="42.5419780" lon="-8.8978300">
        <ele>2.2</ele>
        <time>2020-08-07T17:12:13Z</time>
      </trkpt>
      <trkpt lat="42.5419970" lon="-8.8978190">
        <ele>2.4</ele>
        <time>2020-08-07T17:12:14Z</time>
      </trkpt>
      <trkpt lat="42.5419970" lon="-8.8978190">
        <ele>2.6</ele>
        <time>2020-08-07T17:12:15Z</time>
      </trkpt>
      <trkpt lat="42.5420190" lon="-8.8978120">
        <ele>2.6</ele>
        <time>2020-08-07T17:12:16Z</time>
      </trkpt>
      <trkpt lat="42.5420190" lon="-8.8978120">
        <ele>2.6</ele>
        <time>2020-08-07T17:12:17Z</time>
      </trkpt>
      <trkpt lat="42.5420420" lon="-8.8978060">
        <ele>2.8</ele>
        <time>2020-08-07T17:12:18Z</time>
      </trkpt>
      <trkpt lat="42.5420420" lon="-8.8978060">
        <ele>2.8</ele>
        <time>2020-08-07T17:12:19Z</time>
      </trkpt>
      <trkpt lat="42.5420640" lon="-8.8978020">
        <ele>3.0</ele>
        <time>2020-08-07T17:12:20Z</time>
      </trkpt>
      <trkpt lat="42.5420640" lon="-8.8978020">
        <ele>2.6</ele>
        <time>2020-08-07T17:12:21Z</time>
      </trkpt>
      <trkpt lat="42.5420930" lon="-8.8977980">
        <ele>2.2</ele>
        <time>2020-08-07T17:12:22Z</time>
      </trkpt>
      <trkpt lat="42.5420930" lon="-8.8977980">
        <ele>2.2</ele>
        <time>2020-08-07T17:12:23Z</time>
      </trkpt>
      <trkpt lat="42.5421150" lon="-8.8977980">
        <ele>2.4</ele>
        <time>2020-08-07T17:12:24Z</time>
      </trkpt>
      <trkpt lat="42.5421150" lon="-8.8977980">
        <ele>2.4</ele>
        <time>2020-08-07T17:12:25Z</time>
      </trkpt>
      <trkpt lat="42.5421380" lon="-8.8977940">
        <ele>2.2</ele>
        <time>2020-08-07T17:12:26Z</time>
      </trkpt>
      <trkpt lat="42.5421380" lon="-8.8977940">
        <ele>2.2</ele>
        <time>2020-08-07T17:12:27Z</time>
      </trkpt>
      <trkpt lat="42.5421600" lon="-8.8977880">
        <ele>2.2</ele>
        <time>2020-08-07T17:12:28Z</time>
      </trkpt>
      <trkpt lat="42.5421600" lon="-8.8977880">
        <ele>2.2</ele>
        <time>2020-08-07T17:12:29Z</time>
      </trkpt>
      <trkpt lat="42.5421820" lon="-8.8977770">
        <ele>2.0</ele>
        <time>2020-08-07T17:12:30Z</time>
      </trkpt>
      <trkpt lat="42.5421820" lon="-8.8977770">
        <ele>2.4</ele>
        <time>2020-08-07T17:12:31Z</time>
      </trkpt>
      <trkpt lat="42.5422020" lon="-8.8977720">
        <ele>2.6</ele>
        <time>2020-08-07T17:12:32Z</time>
      </trkpt>
      <trkpt lat="42.5422020" lon="-8.8977720">
        <ele>2.6</ele>
        <time>2020-08-07T17:12:33Z</time>
      </trkpt>
      <trkpt lat="42.5422240" lon="-8.8977670">
        <ele>2.6</ele>
        <time>2020-08-07T17:12:34Z</time>
      </trkpt>
      <trkpt lat="42.5422240" lon="-8.8977670">
        <ele>2.8</ele>
        <time>2020-08-07T17:12:35Z</time>
      </trkpt>
      <trkpt lat="42.5422430" lon="-8.8977650">
        <ele>3.0</ele>
        <time>2020-08-07T17:12:36Z</time>
      </trkpt>
      <trkpt lat="42.5422430" lon="-8.8977650">
        <ele>3.2</ele>
        <time>2020-08-07T17:12:37Z</time>
      </trkpt>
      <trkpt lat="42.5422620" lon="-8.8977620">
        <ele>3.6</ele>
        <time>2020-08-07T17:12:38Z</time>
      </trkpt>
      <trkpt lat="42.5422620" lon="-8.8977620">
        <ele>3.6</ele>
        <time>2020-08-07T17:12:39Z</time>
      </trkpt>
      <trkpt lat="42.5422820" lon="-8.8977580">
        <ele>3.8</ele>
        <time>2020-08-07T17:12:40Z</time>
      </trkpt>
      <trkpt lat="42.5422820" lon="-8.8977580">
        <ele>3.6</ele>
        <time>2020-08-07T17:12:41Z</time>
      </trkpt>
      <trkpt lat="42.5423010" lon="-8.8977540">
        <ele>3.6</ele>
        <time>2020-08-07T17:12:42Z</time>
      </trkpt>
      <trkpt lat="42.5423010" lon="-8.8977540">
        <ele>3.6</ele>
        <time>2020-08-07T17:12:43Z</time>
      </trkpt>
      <trkpt lat="42.5423200" lon="-8.8977470">
        <ele>3.4</ele>
        <time>2020-08-07T17:12:44Z</time>
      </trkpt>
      <trkpt lat="42.5423200" lon="-8.8977470">
        <ele>3.8</ele>
        <time>2020-08-07T17:12:45Z</time>
      </trkpt>
      <trkpt lat="42.5423200" lon="-8.8977470">
        <ele>3.8</ele>
        <time>2020-08-07T17:12:46Z</time>
      </trkpt>
      <trkpt lat="42.5423420" lon="-8.8977380">
        <ele>3.8</ele>
        <time>2020-08-07T17:12:47Z</time>
      </trkpt>
      <trkpt lat="42.5423420" lon="-8.8977380">
        <ele>3.6</ele>
        <time>2020-08-07T17:12:48Z</time>
      </trkpt>
      <trkpt lat="42.5423420" lon="-8.8977380">
        <ele>3.6</ele>
        <time>2020-08-07T17:12:49Z</time>
      </trkpt>
      <trkpt lat="42.5423710" lon="-8.8977340">
        <ele>3.6</ele>
        <time>2020-08-07T17:12:50Z</time>
      </trkpt>
      <trkpt lat="42.5423710" lon="-8.8977340">
        <ele>3.6</ele>
        <time>2020-08-07T17:12:51Z</time>
      </trkpt>
      <trkpt lat="42.5423940" lon="-8.8977320">
        <ele>3.6</ele>
        <time>2020-08-07T17:12:52Z</time>
      </trkpt>
      <trkpt lat="42.5423940" lon="-8.8977320">
        <ele>3.4</ele>
        <time>2020-08-07T17:12:53Z</time>
      </trkpt>
      <trkpt lat="42.5424130" lon="-8.8977320">
        <ele>3.6</ele>
        <time>2020-08-07T17:12:54Z</time>
      </trkpt>
      <trkpt lat="42.5424130" lon="-8.8977320">
        <ele>3.6</ele>
        <time>2020-08-07T17:12:55Z</time>
      </trkpt>
      <trkpt lat="42.5424350" lon="-8.8977280">
        <ele>3.4</ele>
        <time>2020-08-07T17:12:56Z</time>
      </trkpt>
      <trkpt lat="42.5424350" lon="-8.8977280">
        <ele>3.6</ele>
        <time>2020-08-07T17:12:57Z</time>
      </trkpt>
      <trkpt lat="42.5424540" lon="-8.8977220">
        <ele>3.4</ele>
        <time>2020-08-07T17:12:58Z</time>
      </trkpt>
      <trkpt lat="42.5424540" lon="-8.8977220">
        <ele>3.4</ele>
        <time>2020-08-07T17:12:59Z</time>
      </trkpt>
      <trkpt lat="42.5424740" lon="-8.8977140">
        <ele>3.2</ele>
        <time>2020-08-07T17:13:00Z</time>
      </trkpt>
      <trkpt lat="42.5424740" lon="-8.8977140">
        <ele>3.4</ele>
        <time>2020-08-07T17:13:01Z</time>
      </trkpt>
      <trkpt lat="42.5424930" lon="-8.8977070">
        <ele>3.6</ele>
        <time>2020-08-07T17:13:02Z</time>
      </trkpt>
      <trkpt lat="42.5424930" lon="-8.8977070">
        <ele>3.8</ele>
        <time>2020-08-07T17:13:03Z</time>
      </trkpt>
      <trkpt lat="42.5425150" lon="-8.8977020">
        <ele>3.8</ele>
        <time>2020-08-07T17:13:04Z</time>
      </trkpt>
      <trkpt lat="42.5425150" lon="-8.8977020">
        <ele>4.0</ele>
        <time>2020-08-07T17:13:05Z</time>
      </trkpt>
      <trkpt lat="42.5425340" lon="-8.8976970">
        <ele>4.2</ele>
        <time>2020-08-07T17:13:06Z</time>
      </trkpt>
      <trkpt lat="42.5425340" lon="-8.8976970">
        <ele>4.2</ele>
        <time>2020-08-07T17:13:07Z</time>
      </trkpt>
      <trkpt lat="42.5425540" lon="-8.8976880">
        <ele>4.0</ele>
        <time>2020-08-07T17:13:08Z</time>
      </trkpt>
      <trkpt lat="42.5425540" lon="-8.8976880">
        <ele>4.0</ele>
        <time>2020-08-07T17:13:09Z</time>
      </trkpt>
      <trkpt lat="42.5425730" lon="-8.8976770">
        <ele>4.0</ele>
        <time>2020-08-07T17:13:10Z</time>
      </trkpt>
      <trkpt lat="42.5425730" lon="-8.8976770">
        <ele>3.8</ele>
        <time>2020-08-07T17:13:11Z</time>
      </trkpt>
      <trkpt lat="42.5425920" lon="-8.8976690">
        <ele>3.8</ele>
        <time>2020-08-07T17:13:12Z</time>
      </trkpt>
      <trkpt lat="42.5425920" lon="-8.8976690">
        <ele>3.8</ele>
        <time>2020-08-07T17:13:13Z</time>
      </trkpt>
      <trkpt lat="42.5426110" lon="-8.8976600">
        <ele>4.0</ele>
        <time>2020-08-07T17:13:14Z</time>
      </trkpt>
      <trkpt lat="42.5426110" lon="-8.8976600">
        <ele>4.2</ele>
        <time>2020-08-07T17:13:15Z</time>
      </trkpt>
      <trkpt lat="42.5426300" lon="-8.8976520">
        <ele>4.2</ele>
        <time>2020-08-07T17:13:16Z</time>
      </trkpt>
      <trkpt lat="42.5426300" lon="-8.8976520">
        <ele>4.2</ele>
        <time>2020-08-07T17:13:17Z</time>
      </trkpt>
      <trkpt lat="42.5426500" lon="-8.8976480">
        <ele>4.0</ele>
        <time>2020-08-07T17:13:18Z</time>
      </trkpt>
      <trkpt lat="42.5426500" lon="-8.8976480">
        <ele>4.0</ele>
        <time>2020-08-07T17:13:19Z</time>
      </trkpt>
      <trkpt lat="42.5426720" lon="-8.8976470">
        <ele>3.8</ele>
        <time>2020-08-07T17:13:20Z</time>
      </trkpt>
      <trkpt lat="42.5426720" lon="-8.8976470">
        <ele>3.8</ele>
        <time>2020-08-07T17:13:21Z</time>
      </trkpt>
      <trkpt lat="42.5426720" lon="-8.8976470">
        <ele>4.2</ele>
        <time>2020-08-07T17:13:22Z</time>
      </trkpt>
      <trkpt lat="42.5427010" lon="-8.8976380">
        <ele>4.2</ele>
        <time>2020-08-07T17:13:23Z</time>
      </trkpt>
      <trkpt lat="42.5427010" lon="-8.8976380">
        <ele>4.0</ele>
        <time>2020-08-07T17:13:24Z</time>
      </trkpt>
      <trkpt lat="42.5427200" lon="-8.8976340">
        <ele>3.8</ele>
        <time>2020-08-07T17:13:25Z</time>
      </trkpt>
      <trkpt lat="42.5427200" lon="-8.8976340">
        <ele>3.8</ele>
        <time>2020-08-07T17:13:26Z</time>
      </trkpt>
      <trkpt lat="42.5427390" lon="-8.8976300">
        <ele>3.8</ele>
        <time>2020-08-07T17:13:27Z</time>
      </trkpt>
      <trkpt lat="42.5427390" lon="-8.8976300">
        <ele>4.0</ele>
        <time>2020-08-07T17:13:28Z</time>
      </trkpt>
      <trkpt lat="42.5427580" lon="-8.8976230">
        <ele>4.0</ele>
        <time>2020-08-07T17:13:29Z</time>
      </trkpt>
      <trkpt lat="42.5427580" lon="-8.8976230">
        <ele>4.2</ele>
        <time>2020-08-07T17:13:30Z</time>
      </trkpt>
      <trkpt lat="42.5427780" lon="-8.8976150">
        <ele>4.2</ele>
        <time>2020-08-07T17:13:31Z</time>
      </trkpt>
      <trkpt lat="42.5427780" lon="-8.8976150">
        <ele>4.2</ele>
        <time>2020-08-07T17:13:32Z</time>
      </trkpt>
      <trkpt lat="42.5428000" lon="-8.8976100">
        <ele>4.4</ele>
        <time>2020-08-07T17:13:33Z</time>
      </trkpt>
      <trkpt lat="42.5428000" lon="-8.8976100">
        <ele>4.2</ele>
        <time>2020-08-07T17:13:34Z</time>
      </trkpt>
      <trkpt lat="42.5428190" lon="-8.8976030">
        <ele>4.4</ele>
        <time>2020-08-07T17:13:35Z</time>
      </trkpt>
      <trkpt lat="42.5428190" lon="-8.8976030">
        <ele>4.2</ele>
        <time>2020-08-07T17:13:36Z</time>
      </trkpt>
      <trkpt lat="42.5428380" lon="-8.8975950">
        <ele>4.2</ele>
        <time>2020-08-07T17:13:37Z</time>
      </trkpt>
      <trkpt lat="42.5428380" lon="-8.8975950">
        <ele>4.0</ele>
        <time>2020-08-07T17:13:38Z</time>
      </trkpt>
      <trkpt lat="42.5428580" lon="-8.8975870">
        <ele>4.4</ele>
        <time>2020-08-07T17:13:39Z</time>
      </trkpt>
      <trkpt lat="42.5428580" lon="-8.8975870">
        <ele>4.4</ele>
        <time>2020-08-07T17:13:40Z</time>
      </trkpt>
      <trkpt lat="42.5428770" lon="-8.8975780">
        <ele>4.4</ele>
        <time>2020-08-07T17:13:41Z</time>
      </trkpt>
      <trkpt lat="42.5428770" lon="-8.8975780">
        <ele>4.2</ele>
        <time>2020-08-07T17:13:42Z</time>
      </trkpt>
      <trkpt lat="42.5428990" lon="-8.8975710">
        <ele>4.2</ele>
        <time>2020-08-07T17:13:43Z</time>
      </trkpt>
      <trkpt lat="42.5428990" lon="-8.8975710">
        <ele>4.4</ele>
        <time>2020-08-07T17:13:44Z</time>
      </trkpt>
      <trkpt lat="42.5429180" lon="-8.8975630">
        <ele>4.2</ele>
        <time>2020-08-07T17:13:45Z</time>
      </trkpt>
      <trkpt lat="42.5429180" lon="-8.8975630">
        <ele>4.4</ele>
        <time>2020-08-07T17:13:46Z</time>
      </trkpt>
      <trkpt lat="42.5429380" lon="-8.8975560">
        <ele>4.2</ele>
        <time>2020-08-07T17:13:47Z</time>
      </trkpt>
      <trkpt lat="42.5429380" lon="-8.8975560">
        <ele>4.0</ele>
        <time>2020-08-07T17:13:48Z</time>
      </trkpt>
      <trkpt lat="42.5429600" lon="-8.8975500">
        <ele>3.8</ele>
        <time>2020-08-07T17:13:49Z</time>
      </trkpt>
      <trkpt lat="42.5429600" lon="-8.8975500">
        <ele>3.8</ele>
        <time>2020-08-07T17:13:50Z</time>
      </trkpt>
      <trkpt lat="42.5429790" lon="-8.8975420">
        <ele>3.8</ele>
        <time>2020-08-07T17:13:51Z</time>
      </trkpt>
      <trkpt lat="42.5429790" lon="-8.8975420">
        <ele>4.0</ele>
        <time>2020-08-07T17:13:52Z</time>
      </trkpt>
      <trkpt lat="42.5429950" lon="-8.8975290">
        <ele>4.0</ele>
        <time>2020-08-07T17:13:53Z</time>
      </trkpt>
      <trkpt lat="42.5429950" lon="-8.8975290">
        <ele>4.0</ele>
        <time>2020-08-07T17:13:54Z</time>
      </trkpt>
      <trkpt lat="42.5430140" lon="-8.8975180">
        <ele>3.8</ele>
        <time>2020-08-07T17:13:55Z</time>
      </trkpt>
      <trkpt lat="42.5430140" lon="-8.8975180">
        <ele>3.8</ele>
        <time>2020-08-07T17:13:56Z</time>
      </trkpt>
      <trkpt lat="42.5430300" lon="-8.8975030">
        <ele>3.8</ele>
        <time>2020-08-07T17:13:57Z</time>
      </trkpt>
      <trkpt lat="42.5430300" lon="-8.8975030">
        <ele>4.0</ele>
        <time>2020-08-07T17:13:58Z</time>
      </trkpt>
      <trkpt lat="42.5430530" lon="-8.8974910">
        <ele>3.8</ele>
        <time>2020-08-07T17:13:59Z</time>
      </trkpt>
      <trkpt lat="42.5430530" lon="-8.8974910">
        <ele>3.8</ele>
        <time>2020-08-07T17:14:00Z</time>
      </trkpt>
      <trkpt lat="42.5430720" lon="-8.8974780">
        <ele>4.0</ele>
        <time>2020-08-07T17:14:01Z</time>
      </trkpt>
      <trkpt lat="42.5430720" lon="-8.8974780">
        <ele>4.2</ele>
        <time>2020-08-07T17:14:02Z</time>
      </trkpt>
      <trkpt lat="42.5430910" lon="-8.8974690">
        <ele>4.0</ele>
        <time>2020-08-07T17:14:03Z</time>
      </trkpt>
      <trkpt lat="42.5430910" lon="-8.8974690">
        <ele>4.0</ele>
        <time>2020-08-07T17:14:04Z</time>
      </trkpt>
      <trkpt lat="42.5431100" lon="-8.8974600">
        <ele>3.8</ele>
        <time>2020-08-07T17:14:05Z</time>
      </trkpt>
      <trkpt lat="42.5431100" lon="-8.8974600">
        <ele>4.0</ele>
        <time>2020-08-07T17:14:06Z</time>
      </trkpt>
      <trkpt lat="42.5431260" lon="-8.8974490">
        <ele>4.0</ele>
        <time>2020-08-07T17:14:07Z</time>
      </trkpt>
      <trkpt lat="42.5431260" lon="-8.8974490">
        <ele>3.8</ele>
        <time>2020-08-07T17:14:08Z</time>
      </trkpt>
      <trkpt lat="42.5431490" lon="-8.8974300">
        <ele>4.2</ele>
        <time>2020-08-07T17:14:09Z</time>
      </trkpt>
      <trkpt lat="42.5431490" lon="-8.8974300">
        <ele>4.4</ele>
        <time>2020-08-07T17:14:10Z</time>
      </trkpt>
      <trkpt lat="42.5431680" lon="-8.8974180">
        <ele>4.2</ele>
        <time>2020-08-07T17:14:11Z</time>
      </trkpt>
      <trkpt lat="42.5431680" lon="-8.8974180">
        <ele>4.6</ele>
        <time>2020-08-07T17:14:12Z</time>
      </trkpt>
      <trkpt lat="42.5431870" lon="-8.8974100">
        <ele>4.6</ele>
        <time>2020-08-07T17:14:13Z</time>
      </trkpt>
      <trkpt lat="42.5431870" lon="-8.8974100">
        <ele>4.6</ele>
        <time>2020-08-07T17:14:14Z</time>
      </trkpt>
      <trkpt lat="42.5432060" lon="-8.8974050">
        <ele>4.8</ele>
        <time>2020-08-07T17:14:15Z</time>
      </trkpt>
      <trkpt lat="42.5432060" lon="-8.8974050">
        <ele>4.6</ele>
        <time>2020-08-07T17:14:16Z</time>
      </trkpt>
      <trkpt lat="42.5432260" lon="-8.8974050">
        <ele>5.0</ele>
        <time>2020-08-07T17:14:17Z</time>
      </trkpt>
      <trkpt lat="42.5432260" lon="-8.8974050">
        <ele>4.8</ele>
        <time>2020-08-07T17:14:18Z</time>
      </trkpt>
      <trkpt lat="42.5432450" lon="-8.8974110">
        <ele>4.8</ele>
        <time>2020-08-07T17:14:19Z</time>
      </trkpt>
      <trkpt lat="42.5432450" lon="-8.8974110">
        <ele>4.6</ele>
        <time>2020-08-07T17:14:20Z</time>
      </trkpt>
      <trkpt lat="42.5432640" lon="-8.8974200">
        <ele>4.4</ele>
        <time>2020-08-07T17:14:21Z</time>
      </trkpt>
      <trkpt lat="42.5432640" lon="-8.8974200">
        <ele>4.4</ele>
        <time>2020-08-07T17:14:22Z</time>
      </trkpt>
      <trkpt lat="42.5432640" lon="-8.8974200">
        <ele>4.4</ele>
        <time>2020-08-07T17:14:23Z</time>
      </trkpt>
      <trkpt lat="42.5432900" lon="-8.8974340">
        <ele>4.2</ele>
        <time>2020-08-07T17:14:24Z</time>
      </trkpt>
      <trkpt lat="42.5432900" lon="-8.8974340">
        <ele>4.0</ele>
        <time>2020-08-07T17:14:25Z</time>
      </trkpt>
      <trkpt lat="42.5433090" lon="-8.8974370">
        <ele>4.0</ele>
        <time>2020-08-07T17:14:26Z</time>
      </trkpt>
      <trkpt lat="42.5433090" lon="-8.8974370">
        <ele>4.0</ele>
        <time>2020-08-07T17:14:27Z</time>
      </trkpt>
      <trkpt lat="42.5433090" lon="-8.8974370">
        <ele>4.4</ele>
        <time>2020-08-07T17:14:28Z</time>
      </trkpt>
      <trkpt lat="42.5433310" lon="-8.8974450">
        <ele>4.4</ele>
        <time>2020-08-07T17:14:29Z</time>
      </trkpt>
      <trkpt lat="42.5433310" lon="-8.8974450">
        <ele>4.4</ele>
        <time>2020-08-07T17:14:30Z</time>
      </trkpt>
      <trkpt lat="42.5433500" lon="-8.8974490">
        <ele>4.4</ele>
        <time>2020-08-07T17:14:31Z</time>
      </trkpt>
      <trkpt lat="42.5433500" lon="-8.8974490">
        <ele>4.4</ele>
        <time>2020-08-07T17:14:32Z</time>
      </trkpt>
      <trkpt lat="42.5433730" lon="-8.8974550">
        <ele>4.4</ele>
        <time>2020-08-07T17:14:33Z</time>
      </trkpt>
      <trkpt lat="42.5433730" lon="-8.8974550">
        <ele>4.4</ele>
        <time>2020-08-07T17:14:34Z</time>
      </trkpt>
      <trkpt lat="42.5433890" lon="-8.8974710">
        <ele>4.0</ele>
        <time>2020-08-07T17:14:35Z</time>
      </trkpt>
      <trkpt lat="42.5433890" lon="-8.8974710">
        <ele>4.2</ele>
        <time>2020-08-07T17:14:36Z</time>
      </trkpt>
      <trkpt lat="42.5434050" lon="-8.8974850">
        <ele>4.2</ele>
        <time>2020-08-07T17:14:37Z</time>
      </trkpt>
      <trkpt lat="42.5434050" lon="-8.8974850">
        <ele>4.4</ele>
        <time>2020-08-07T17:14:38Z</time>
      </trkpt>
      <trkpt lat="42.5434050" lon="-8.8974850">
        <ele>4.4</ele>
        <time>2020-08-07T17:14:39Z</time>
      </trkpt>
      <trkpt lat="42.5434240" lon="-8.8975110">
        <ele>4.6</ele>
        <time>2020-08-07T17:14:40Z</time>
      </trkpt>
      <trkpt lat="42.5434240" lon="-8.8975110">
        <ele>4.8</ele>
        <time>2020-08-07T17:14:41Z</time>
      </trkpt>
      <trkpt lat="42.5434370" lon="-8.8975290">
        <ele>4.8</ele>
        <time>2020-08-07T17:14:42Z</time>
      </trkpt>
      <trkpt lat="42.5434370" lon="-8.8975290">
        <ele>4.8</ele>
        <time>2020-08-07T17:14:43Z</time>
      </trkpt>
      <trkpt lat="42.5434370" lon="-8.8975290">
        <ele>5.0</ele>
        <time>2020-08-07T17:14:44Z</time>
      </trkpt>
      <trkpt lat="42.5434560" lon="-8.8975460">
        <ele>4.8</ele>
        <time>2020-08-07T17:14:45Z</time>
      </trkpt>
      <trkpt lat="42.5434560" lon="-8.8975460">
        <ele>4.8</ele>
        <time>2020-08-07T17:14:46Z</time>
      </trkpt>
      <trkpt lat="42.5434560" lon="-8.8975460">
        <ele>4.8</ele>
        <time>2020-08-07T17:14:47Z</time>
      </trkpt>
      <trkpt lat="42.5434780" lon="-8.8975540">
        <ele>4.6</ele>
        <time>2020-08-07T17:14:48Z</time>
      </trkpt>
      <trkpt lat="42.5434780" lon="-8.8975540">
        <ele>4.4</ele>
        <time>2020-08-07T17:14:49Z</time>
      </trkpt>
      <trkpt lat="42.5434980" lon="-8.8975540">
        <ele>4.4</ele>
        <time>2020-08-07T17:14:50Z</time>
      </trkpt>
      <trkpt lat="42.5434980" lon="-8.8975540">
        <ele>4.2</ele>
        <time>2020-08-07T17:14:51Z</time>
      </trkpt>
      <trkpt lat="42.5434980" lon="-8.8975540">
        <ele>4.2</ele>
        <time>2020-08-07T17:14:52Z</time>
      </trkpt>
      <trkpt lat="42.5435170" lon="-8.8975460">
        <ele>4.0</ele>
        <time>2020-08-07T17:14:53Z</time>
      </trkpt>
      <trkpt lat="42.5435170" lon="-8.8975460">
        <ele>4.0</ele>
        <time>2020-08-07T17:14:54Z</time>
      </trkpt>
      <trkpt lat="42.5435170" lon="-8.8975460">
        <ele>3.8</ele>
        <time>2020-08-07T17:14:55Z</time>
      </trkpt>
      <trkpt lat="42.5435420" lon="-8.8975380">
        <ele>3.6</ele>
        <time>2020-08-07T17:14:56Z</time>
      </trkpt>
      <trkpt lat="42.5435420" lon="-8.8975380">
        <ele>3.6</ele>
        <time>2020-08-07T17:14:57Z</time>
      </trkpt>
      <trkpt lat="42.5435420" lon="-8.8975380">
        <ele>3.6</ele>
        <time>2020-08-07T17:14:58Z</time>
      </trkpt>
      <trkpt lat="42.5435620" lon="-8.8975220">
        <ele>3.8</ele>
        <time>2020-08-07T17:14:59Z</time>
      </trkpt>
      <trkpt lat="42.5435620" lon="-8.8975220">
        <ele>4.2</ele>
        <time>2020-08-07T17:15:00Z</time>
      </trkpt>
      <trkpt lat="42.5435620" lon="-8.8975220">
        <ele>4.6</ele>
        <time>2020-08-07T17:15:01Z</time>
      </trkpt>
      <trkpt lat="42.5435780" lon="-8.8975030">
        <ele>5.0</ele>
        <time>2020-08-07T17:15:02Z</time>
      </trkpt>
      <trkpt lat="42.5435780" lon="-8.8975030">
        <ele>4.8</ele>
        <time>2020-08-07T17:15:03Z</time>
      </trkpt>
      <trkpt lat="42.5435970" lon="-8.8974860">
        <ele>4.8</ele>
        <time>2020-08-07T17:15:04Z</time>
      </trkpt>
      <trkpt lat="42.5435970" lon="-8.8974860">
        <ele>4.6</ele>
        <time>2020-08-07T17:15:05Z</time>
      </trkpt>
      <trkpt lat="42.5436130" lon="-8.8974700">
        <ele>4.6</ele>
        <time>2020-08-07T17:15:06Z</time>
      </trkpt>
      <trkpt lat="42.5436130" lon="-8.8974700">
        <ele>4.6</ele>
        <time>2020-08-07T17:15:07Z</time>
      </trkpt>
      <trkpt lat="42.5436320" lon="-8.8974620">
        <ele>4.4</ele>
        <time>2020-08-07T17:15:08Z</time>
      </trkpt>
      <trkpt lat="42.5436320" lon="-8.8974620">
        <ele>4.2</ele>
        <time>2020-08-07T17:15:09Z</time>
      </trkpt>
      <trkpt lat="42.5436510" lon="-8.8974510">
        <ele>4.4</ele>
        <time>2020-08-07T17:15:10Z</time>
      </trkpt>
      <trkpt lat="42.5436510" lon="-8.8974510">
        <ele>4.4</ele>
        <time>2020-08-07T17:15:11Z</time>
      </trkpt>
      <trkpt lat="42.5436510" lon="-8.8974510">
        <ele>4.4</ele>
        <time>2020-08-07T17:15:12Z</time>
      </trkpt>
      <trkpt lat="42.5436740" lon="-8.8974450">
        <ele>4.6</ele>
        <time>2020-08-07T17:15:13Z</time>
      </trkpt>
      <trkpt lat="42.5436740" lon="-8.8974450">
        <ele>4.6</ele>
        <time>2020-08-07T17:15:14Z</time>
      </trkpt>
      <trkpt lat="42.5436930" lon="-8.8974420">
        <ele>4.4</ele>
        <time>2020-08-07T17:15:15Z</time>
      </trkpt>
      <trkpt lat="42.5436930" lon="-8.8974420">
        <ele>4.4</ele>
        <time>2020-08-07T17:15:16Z</time>
      </trkpt>
      <trkpt lat="42.5437120" lon="-8.8974350">
        <ele>4.0</ele>
        <time>2020-08-07T17:15:17Z</time>
      </trkpt>
      <trkpt lat="42.5437120" lon="-8.8974350">
        <ele>4.0</ele>
        <time>2020-08-07T17:15:18Z</time>
      </trkpt>
      <trkpt lat="42.5437310" lon="-8.8974200">
        <ele>3.6</ele>
        <time>2020-08-07T17:15:19Z</time>
      </trkpt>
      <trkpt lat="42.5437310" lon="-8.8974200">
        <ele>3.4</ele>
        <time>2020-08-07T17:15:20Z</time>
      </trkpt>
      <trkpt lat="42.5437500" lon="-8.8974100">
        <ele>3.4</ele>
        <time>2020-08-07T17:15:21Z</time>
      </trkpt>
      <trkpt lat="42.5437500" lon="-8.8974100">
        <ele>3.2</ele>
        <time>2020-08-07T17:15:22Z</time>
      </trkpt>
      <trkpt lat="42.5437730" lon="-8.8973980">
        <ele>3.2</ele>
        <time>2020-08-07T17:15:23Z</time>
      </trkpt>
      <trkpt lat="42.5437730" lon="-8.8973980">
        <ele>3.2</ele>
        <time>2020-08-07T17:15:24Z</time>
      </trkpt>
      <trkpt lat="42.5437920" lon="-8.8973860">
        <ele>3.2</ele>
        <time>2020-08-07T17:15:25Z</time>
      </trkpt>
      <trkpt lat="42.5437920" lon="-8.8973860">
        <ele>3.4</ele>
        <time>2020-08-07T17:15:26Z</time>
      </trkpt>
      <trkpt lat="42.5438110" lon="-8.8973770">
        <ele>3.4</ele>
        <time>2020-08-07T17:15:27Z</time>
      </trkpt>
      <trkpt lat="42.5438110" lon="-8.8973770">
        <ele>3.4</ele>
        <time>2020-08-07T17:15:28Z</time>
      </trkpt>
      <trkpt lat="42.5438110" lon="-8.8973770">
        <ele>3.4</ele>
        <time>2020-08-07T17:15:29Z</time>
      </trkpt>
      <trkpt lat="42.5438400" lon="-8.8973660">
        <ele>3.6</ele>
        <time>2020-08-07T17:15:30Z</time>
      </trkpt>
      <trkpt lat="42.5438400" lon="-8.8973660">
        <ele>3.6</ele>
        <time>2020-08-07T17:15:31Z</time>
      </trkpt>
      <trkpt lat="42.5438400" lon="-8.8973660">
        <ele>3.8</ele>
        <time>2020-08-07T17:15:32Z</time>
      </trkpt>
      <trkpt lat="42.5438660" lon="-8.8973510">
        <ele>4.0</ele>
        <time>2020-08-07T17:15:33Z</time>
      </trkpt>
      <trkpt lat="42.5438660" lon="-8.8973510">
        <ele>3.8</ele>
        <time>2020-08-07T17:15:34Z</time>
      </trkpt>
      <trkpt lat="42.5438850" lon="-8.8973380">
        <ele>3.8</ele>
        <time>2020-08-07T17:15:35Z</time>
      </trkpt>
      <trkpt lat="42.5438850" lon="-8.8973380">
        <ele>3.6</ele>
        <time>2020-08-07T17:15:36Z</time>
      </trkpt>
      <trkpt lat="42.5439040" lon="-8.8973280">
        <ele>3.8</ele>
        <time>2020-08-07T17:15:37Z</time>
      </trkpt>
      <trkpt lat="42.5439040" lon="-8.8973280">
        <ele>3.4</ele>
        <time>2020-08-07T17:15:38Z</time>
      </trkpt>
      <trkpt lat="42.5439260" lon="-8.8973150">
        <ele>3.6</ele>
        <time>2020-08-07T17:15:39Z</time>
      </trkpt>
      <trkpt lat="42.5439260" lon="-8.8973150">
        <ele>3.8</ele>
        <time>2020-08-07T17:15:40Z</time>
      </trkpt>
      <trkpt lat="42.5439460" lon="-8.8973100">
        <ele>4.0</ele>
        <time>2020-08-07T17:15:41Z</time>
      </trkpt>
      <trkpt lat="42.5439460" lon="-8.8973100">
        <ele>4.0</ele>
        <time>2020-08-07T17:15:42Z</time>
      </trkpt>
      <trkpt lat="42.5439680" lon="-8.8973020">
        <ele>4.2</ele>
        <time>2020-08-07T17:15:43Z</time>
      </trkpt>
      <trkpt lat="42.5439680" lon="-8.8973020">
        <ele>4.2</ele>
        <time>2020-08-07T17:15:44Z</time>
      </trkpt>
      <trkpt lat="42.5439870" lon="-8.8972930">
        <ele>4.2</ele>
        <time>2020-08-07T17:15:45Z</time>
      </trkpt>
      <trkpt lat="42.5439870" lon="-8.8972930">
        <ele>4.2</ele>
        <time>2020-08-07T17:15:46Z</time>
      </trkpt>
      <trkpt lat="42.5440060" lon="-8.8972860">
        <ele>4.6</ele>
        <time>2020-08-07T17:15:47Z</time>
      </trkpt>
      <trkpt lat="42.5440060" lon="-8.8972860">
        <ele>4.8</ele>
        <time>2020-08-07T17:15:48Z</time>
      </trkpt>
      <trkpt lat="42.5440060" lon="-8.8972860">
        <ele>4.8</ele>
        <time>2020-08-07T17:15:49Z</time>
      </trkpt>
      <trkpt lat="42.5440380" lon="-8.8972780">
        <ele>4.8</ele>
        <time>2020-08-07T17:15:50Z</time>
      </trkpt>
      <trkpt lat="42.5440380" lon="-8.8972780">
        <ele>4.8</ele>
        <time>2020-08-07T17:15:51Z</time>
      </trkpt>
      <trkpt lat="42.5440380" lon="-8.8972780">
        <ele>4.6</ele>
        <time>2020-08-07T17:15:52Z</time>
      </trkpt>
      <trkpt lat="42.5440640" lon="-8.8972660">
        <ele>4.6</ele>
        <time>2020-08-07T17:15:53Z</time>
      </trkpt>
      <trkpt lat="42.5440640" lon="-8.8972660">
        <ele>4.6</ele>
        <time>2020-08-07T17:15:54Z</time>
      </trkpt>
      <trkpt lat="42.5440830" lon="-8.8972580">
        <ele>4.6</ele>
        <time>2020-08-07T17:15:55Z</time>
      </trkpt>
      <trkpt lat="42.5440830" lon="-8.8972580">
        <ele>4.8</ele>
        <time>2020-08-07T17:15:56Z</time>
      </trkpt>
      <trkpt lat="42.5441060" lon="-8.8972480">
        <ele>4.4</ele>
        <time>2020-08-07T17:15:57Z</time>
      </trkpt>
      <trkpt lat="42.5441060" lon="-8.8972480">
        <ele>4.2</ele>
        <time>2020-08-07T17:15:58Z</time>
      </trkpt>
      <trkpt lat="42.5441280" lon="-8.8972370">
        <ele>4.2</ele>
        <time>2020-08-07T17:15:59Z</time>
      </trkpt>
      <trkpt lat="42.5441280" lon="-8.8972370">
        <ele>4.4</ele>
        <time>2020-08-07T17:16:00Z</time>
      </trkpt>
      <trkpt lat="42.5441470" lon="-8.8972260">
        <ele>4.6</ele>
        <time>2020-08-07T17:16:01Z</time>
      </trkpt>
      <trkpt lat="42.5441470" lon="-8.8972260">
        <ele>4.4</ele>
        <time>2020-08-07T17:16:02Z</time>
      </trkpt>
      <trkpt lat="42.5441700" lon="-8.8972130">
        <ele>4.0</ele>
        <time>2020-08-07T17:16:03Z</time>
      </trkpt>
      <trkpt lat="42.5441700" lon="-8.8972130">
        <ele>3.8</ele>
        <time>2020-08-07T17:16:04Z</time>
      </trkpt>
      <trkpt lat="42.5441890" lon="-8.8971980">
        <ele>3.6</ele>
        <time>2020-08-07T17:16:05Z</time>
      </trkpt>
      <trkpt lat="42.5441890" lon="-8.8971980">
        <ele>3.6</ele>
        <time>2020-08-07T17:16:06Z</time>
      </trkpt>
      <trkpt lat="42.5442080" lon="-8.8971800">
        <ele>3.4</ele>
        <time>2020-08-07T17:16:07Z</time>
      </trkpt>
      <trkpt lat="42.5442080" lon="-8.8971800">
        <ele>3.4</ele>
        <time>2020-08-07T17:16:08Z</time>
      </trkpt>
      <trkpt lat="42.5442270" lon="-8.8971590">
        <ele>3.6</ele>
        <time>2020-08-07T17:16:09Z</time>
      </trkpt>
      <trkpt lat="42.5442270" lon="-8.8971590">
        <ele>3.6</ele>
        <time>2020-08-07T17:16:10Z</time>
      </trkpt>
      <trkpt lat="42.5442430" lon="-8.8971460">
        <ele>3.6</ele>
        <time>2020-08-07T17:16:11Z</time>
      </trkpt>
      <trkpt lat="42.5442430" lon="-8.8971460">
        <ele>3.8</ele>
        <time>2020-08-07T17:16:12Z</time>
      </trkpt>
      <trkpt lat="42.5442590" lon="-8.8971340">
        <ele>3.8</ele>
        <time>2020-08-07T17:16:13Z</time>
      </trkpt>
      <trkpt lat="42.5442590" lon="-8.8971340">
        <ele>3.8</ele>
        <time>2020-08-07T17:16:14Z</time>
      </trkpt>
      <trkpt lat="42.5442820" lon="-8.8971260">
        <ele>3.8</ele>
        <time>2020-08-07T17:16:15Z</time>
      </trkpt>
      <trkpt lat="42.5442820" lon="-8.8971260">
        <ele>3.6</ele>
        <time>2020-08-07T17:16:16Z</time>
      </trkpt>
      <trkpt lat="42.5443070" lon="-8.8971170">
        <ele>3.6</ele>
        <time>2020-08-07T17:16:17Z</time>
      </trkpt>
      <trkpt lat="42.5443070" lon="-8.8971170">
        <ele>3.4</ele>
        <time>2020-08-07T17:16:18Z</time>
      </trkpt>
      <trkpt lat="42.5443300" lon="-8.8971060">
        <ele>3.6</ele>
        <time>2020-08-07T17:16:19Z</time>
      </trkpt>
      <trkpt lat="42.5443300" lon="-8.8971060">
        <ele>3.6</ele>
        <time>2020-08-07T17:16:20Z</time>
      </trkpt>
      <trkpt lat="42.5443520" lon="-8.8970940">
        <ele>4.0</ele>
        <time>2020-08-07T17:16:21Z</time>
      </trkpt>
      <trkpt lat="42.5443520" lon="-8.8970940">
        <ele>4.2</ele>
        <time>2020-08-07T17:16:22Z</time>
      </trkpt>
      <trkpt lat="42.5443780" lon="-8.8970780">
        <ele>4.0</ele>
        <time>2020-08-07T17:16:23Z</time>
      </trkpt>
      <trkpt lat="42.5443780" lon="-8.8970780">
        <ele>3.8</ele>
        <time>2020-08-07T17:16:24Z</time>
      </trkpt>
      <trkpt lat="42.5443780" lon="-8.8970780">
        <ele>3.8</ele>
        <time>2020-08-07T17:16:25Z</time>
      </trkpt>
      <trkpt lat="42.5444030" lon="-8.8970540">
        <ele>3.6</ele>
        <time>2020-08-07T17:16:26Z</time>
      </trkpt>
      <trkpt lat="42.5444030" lon="-8.8970540">
        <ele>3.0</ele>
        <time>2020-08-07T17:16:27Z</time>
      </trkpt>
      <trkpt lat="42.5444260" lon="-8.8970380">
        <ele>2.8</ele>
        <time>2020-08-07T17:16:28Z</time>
      </trkpt>
      <trkpt lat="42.5444260" lon="-8.8970380">
        <ele>2.6</ele>
        <time>2020-08-07T17:16:29Z</time>
      </trkpt>
      <trkpt lat="42.5444450" lon="-8.8970280">
        <ele>2.6</ele>
        <time>2020-08-07T17:16:30Z</time>
      </trkpt>
      <trkpt lat="42.5444450" lon="-8.8970280">
        <ele>2.6</ele>
        <time>2020-08-07T17:16:31Z</time>
      </trkpt>
      <trkpt lat="42.5444670" lon="-8.8970180">
        <ele>2.6</ele>
        <time>2020-08-07T17:16:32Z</time>
      </trkpt>
      <trkpt lat="42.5444670" lon="-8.8970180">
        <ele>2.6</ele>
        <time>2020-08-07T17:16:33Z</time>
      </trkpt>
      <trkpt lat="42.5444900" lon="-8.8970100">
        <ele>2.6</ele>
        <time>2020-08-07T17:16:34Z</time>
      </trkpt>
      <trkpt lat="42.5444900" lon="-8.8970100">
        <ele>2.4</ele>
        <time>2020-08-07T17:16:35Z</time>
      </trkpt>
      <trkpt lat="42.5445090" lon="-8.8969980">
        <ele>2.2</ele>
        <time>2020-08-07T17:16:36Z</time>
      </trkpt>
      <trkpt lat="42.5445090" lon="-8.8969980">
        <ele>2.2</ele>
        <time>2020-08-07T17:16:37Z</time>
      </trkpt>
      <trkpt lat="42.5445280" lon="-8.8969870">
        <ele>2.0</ele>
        <time>2020-08-07T17:16:38Z</time>
      </trkpt>
      <trkpt lat="42.5445280" lon="-8.8969870">
        <ele>2.0</ele>
        <time>2020-08-07T17:16:39Z</time>
      </trkpt>
      <trkpt lat="42.5445500" lon="-8.8969740">
        <ele>2.0</ele>
        <time>2020-08-07T17:16:40Z</time>
      </trkpt>
      <trkpt lat="42.5445500" lon="-8.8969740">
        <ele>2.0</ele>
        <time>2020-08-07T17:16:41Z</time>
      </trkpt>
      <trkpt lat="42.5445700" lon="-8.8969630">
        <ele>2.0</ele>
        <time>2020-08-07T17:16:42Z</time>
      </trkpt>
      <trkpt lat="42.5445700" lon="-8.8969630">
        <ele>1.8</ele>
        <time>2020-08-07T17:16:43Z</time>
      </trkpt>
      <trkpt lat="42.5445980" lon="-8.8969520">
        <ele>1.8</ele>
        <time>2020-08-07T17:16:44Z</time>
      </trkpt>
      <trkpt lat="42.5445980" lon="-8.8969520">
        <ele>2.4</ele>
        <time>2020-08-07T17:16:45Z</time>
      </trkpt>
      <trkpt lat="42.5446180" lon="-8.8969420">
        <ele>1.8</ele>
        <time>2020-08-07T17:16:46Z</time>
      </trkpt>
      <trkpt lat="42.5446180" lon="-8.8969420">
        <ele>1.8</ele>
        <time>2020-08-07T17:16:47Z</time>
      </trkpt>
      <trkpt lat="42.5446370" lon="-8.8969320">
        <ele>1.6</ele>
        <time>2020-08-07T17:16:48Z</time>
      </trkpt>
      <trkpt lat="42.5446370" lon="-8.8969320">
        <ele>1.2</ele>
        <time>2020-08-07T17:16:49Z</time>
      </trkpt>
      <trkpt lat="42.5446590" lon="-8.8969230">
        <ele>1.6</ele>
        <time>2020-08-07T17:16:50Z</time>
      </trkpt>
      <trkpt lat="42.5446590" lon="-8.8969230">
        <ele>1.8</ele>
        <time>2020-08-07T17:16:51Z</time>
      </trkpt>
      <trkpt lat="42.5446780" lon="-8.8969140">
        <ele>2.0</ele>
        <time>2020-08-07T17:16:52Z</time>
      </trkpt>
      <trkpt lat="42.5446780" lon="-8.8969140">
        <ele>2.0</ele>
        <time>2020-08-07T17:16:53Z</time>
      </trkpt>
      <trkpt lat="42.5446980" lon="-8.8969030">
        <ele>2.2</ele>
        <time>2020-08-07T17:16:54Z</time>
      </trkpt>
      <trkpt lat="42.5446980" lon="-8.8969030">
        <ele>2.2</ele>
        <time>2020-08-07T17:16:55Z</time>
      </trkpt>
      <trkpt lat="42.5447170" lon="-8.8968960">
        <ele>2.4</ele>
        <time>2020-08-07T17:16:56Z</time>
      </trkpt>
      <trkpt lat="42.5447170" lon="-8.8968960">
        <ele>2.4</ele>
        <time>2020-08-07T17:16:57Z</time>
      </trkpt>
      <trkpt lat="42.5447390" lon="-8.8968870">
        <ele>2.2</ele>
        <time>2020-08-07T17:16:58Z</time>
      </trkpt>
      <trkpt lat="42.5447390" lon="-8.8968870">
        <ele>2.4</ele>
        <time>2020-08-07T17:16:59Z</time>
      </trkpt>
      <trkpt lat="42.5447620" lon="-8.8968780">
        <ele>1.8</ele>
        <time>2020-08-07T17:17:00Z</time>
      </trkpt>
      <trkpt lat="42.5447620" lon="-8.8968780">
        <ele>1.8</ele>
        <time>2020-08-07T17:17:01Z</time>
      </trkpt>
      <trkpt lat="42.5447810" lon="-8.8968630">
        <ele>1.6</ele>
        <time>2020-08-07T17:17:02Z</time>
      </trkpt>
      <trkpt lat="42.5447810" lon="-8.8968630">
        <ele>1.6</ele>
        <time>2020-08-07T17:17:03Z</time>
      </trkpt>
      <trkpt lat="42.5448000" lon="-8.8968510">
        <ele>1.4</ele>
        <time>2020-08-07T17:17:04Z</time>
      </trkpt>
      <trkpt lat="42.5448000" lon="-8.8968510">
        <ele>1.6</ele>
        <time>2020-08-07T17:17:05Z</time>
      </trkpt>
      <trkpt lat="42.5448260" lon="-8.8968400">
        <ele>1.6</ele>
        <time>2020-08-07T17:17:06Z</time>
      </trkpt>
      <trkpt lat="42.5448260" lon="-8.8968400">
        <ele>1.4</ele>
        <time>2020-08-07T17:17:07Z</time>
      </trkpt>
      <trkpt lat="42.5448450" lon="-8.8968300">
        <ele>1.6</ele>
        <time>2020-08-07T17:17:08Z</time>
      </trkpt>
      <trkpt lat="42.5448450" lon="-8.8968300">
        <ele>1.6</ele>
        <time>2020-08-07T17:17:09Z</time>
      </trkpt>
      <trkpt lat="42.5448640" lon="-8.8968200">
        <ele>1.6</ele>
        <time>2020-08-07T17:17:10Z</time>
      </trkpt>
      <trkpt lat="42.5448640" lon="-8.8968200">
        <ele>1.8</ele>
        <time>2020-08-07T17:17:11Z</time>
      </trkpt>
      <trkpt lat="42.5448830" lon="-8.8968150">
        <ele>2.2</ele>
        <time>2020-08-07T17:17:12Z</time>
      </trkpt>
      <trkpt lat="42.5448830" lon="-8.8968150">
        <ele>1.8</ele>
        <time>2020-08-07T17:17:13Z</time>
      </trkpt>
      <trkpt lat="42.5449060" lon="-8.8968110">
        <ele>2.2</ele>
        <time>2020-08-07T17:17:14Z</time>
      </trkpt>
      <trkpt lat="42.5449060" lon="-8.8968110">
        <ele>2.2</ele>
        <time>2020-08-07T17:17:15Z</time>
      </trkpt>
      <trkpt lat="42.5449280" lon="-8.8968100">
        <ele>2.0</ele>
        <time>2020-08-07T17:17:16Z</time>
      </trkpt>
      <trkpt lat="42.5449280" lon="-8.8968100">
        <ele>2.0</ele>
        <time>2020-08-07T17:17:17Z</time>
      </trkpt>
      <trkpt lat="42.5449470" lon="-8.8968060">
        <ele>2.2</ele>
        <time>2020-08-07T17:17:18Z</time>
      </trkpt>
      <trkpt lat="42.5449470" lon="-8.8968060">
        <ele>2.6</ele>
        <time>2020-08-07T17:17:19Z</time>
      </trkpt>
      <trkpt lat="42.5449660" lon="-8.8968020">
        <ele>2.6</ele>
        <time>2020-08-07T17:17:20Z</time>
      </trkpt>
      <trkpt lat="42.5449660" lon="-8.8968020">
        <ele>3.0</ele>
        <time>2020-08-07T17:17:21Z</time>
      </trkpt>
      <trkpt lat="42.5449660" lon="-8.8968020">
        <ele>3.0</ele>
        <time>2020-08-07T17:17:22Z</time>
      </trkpt>
      <trkpt lat="42.5449950" lon="-8.8967940">
        <ele>2.8</ele>
        <time>2020-08-07T17:17:23Z</time>
      </trkpt>
      <trkpt lat="42.5449950" lon="-8.8967940">
        <ele>3.0</ele>
        <time>2020-08-07T17:17:24Z</time>
      </trkpt>
      <trkpt lat="42.5449950" lon="-8.8967940">
        <ele>3.0</ele>
        <time>2020-08-07T17:17:25Z</time>
      </trkpt>
      <trkpt lat="42.5450210" lon="-8.8967890">
        <ele>3.2</ele>
        <time>2020-08-07T17:17:26Z</time>
      </trkpt>
      <trkpt lat="42.5450210" lon="-8.8967890">
        <ele>3.0</ele>
        <time>2020-08-07T17:17:27Z</time>
      </trkpt>
      <trkpt lat="42.5450400" lon="-8.8967800">
        <ele>2.6</ele>
        <time>2020-08-07T17:17:28Z</time>
      </trkpt>
      <trkpt lat="42.5450400" lon="-8.8967800">
        <ele>2.8</ele>
        <time>2020-08-07T17:17:29Z</time>
      </trkpt>
      <trkpt lat="42.5450590" lon="-8.8967750">
        <ele>2.8</ele>
        <time>2020-08-07T17:17:30Z</time>
      </trkpt>
      <trkpt lat="42.5450590" lon="-8.8967750">
        <ele>2.8</ele>
        <time>2020-08-07T17:17:31Z</time>
      </trkpt>
      <trkpt lat="42.5450780" lon="-8.8967740">
        <ele>3.0</ele>
        <time>2020-08-07T17:17:32Z</time>
      </trkpt>
      <trkpt lat="42.5450780" lon="-8.8967740">
        <ele>3.0</ele>
        <time>2020-08-07T17:17:33Z</time>
      </trkpt>
      <trkpt lat="42.5450980" lon="-8.8967660">
        <ele>3.0</ele>
        <time>2020-08-07T17:17:34Z</time>
      </trkpt>
      <trkpt lat="42.5450980" lon="-8.8967660">
        <ele>3.0</ele>
        <time>2020-08-07T17:17:35Z</time>
      </trkpt>
      <trkpt lat="42.5450980" lon="-8.8967660">
        <ele>2.8</ele>
        <time>2020-08-07T17:17:36Z</time>
      </trkpt>
      <trkpt lat="42.5451260" lon="-8.8967600">
        <ele>2.8</ele>
        <time>2020-08-07T17:17:37Z</time>
      </trkpt>
      <trkpt lat="42.5451260" lon="-8.8967600">
        <ele>3.0</ele>
        <time>2020-08-07T17:17:38Z</time>
      </trkpt>
      <trkpt lat="42.5451520" lon="-8.8967540">
        <ele>2.8</ele>
        <time>2020-08-07T17:17:39Z</time>
      </trkpt>
      <trkpt lat="42.5451520" lon="-8.8967540">
        <ele>2.8</ele>
        <time>2020-08-07T17:17:40Z</time>
      </trkpt>
      <trkpt lat="42.5451740" lon="-8.8967450">
        <ele>3.0</ele>
        <time>2020-08-07T17:17:41Z</time>
      </trkpt>
      <trkpt lat="42.5451740" lon="-8.8967450">
        <ele>3.4</ele>
        <time>2020-08-07T17:17:42Z</time>
      </trkpt>
      <trkpt lat="42.5452000" lon="-8.8967400">
        <ele>3.4</ele>
        <time>2020-08-07T17:17:43Z</time>
      </trkpt>
      <trkpt lat="42.5452000" lon="-8.8967400">
        <ele>3.2</ele>
        <time>2020-08-07T17:17:44Z</time>
      </trkpt>
      <trkpt lat="42.5452220" lon="-8.8967290">
        <ele>3.0</ele>
        <time>2020-08-07T17:17:45Z</time>
      </trkpt>
      <trkpt lat="42.5452220" lon="-8.8967290">
        <ele>3.2</ele>
        <time>2020-08-07T17:17:46Z</time>
      </trkpt>
      <trkpt lat="42.5452510" lon="-8.8967150">
        <ele>3.0</ele>
        <time>2020-08-07T17:17:47Z</time>
      </trkpt>
      <trkpt lat="42.5452510" lon="-8.8967150">
        <ele>3.0</ele>
        <time>2020-08-07T17:17:48Z</time>
      </trkpt>
      <trkpt lat="42.5452770" lon="-8.8967020">
        <ele>3.2</ele>
        <time>2020-08-07T17:17:49Z</time>
      </trkpt>
      <trkpt lat="42.5452770" lon="-8.8967020">
        <ele>3.2</ele>
        <time>2020-08-07T17:17:50Z</time>
      </trkpt>
      <trkpt lat="42.5453020" lon="-8.8966910">
        <ele>3.4</ele>
        <time>2020-08-07T17:17:51Z</time>
      </trkpt>
      <trkpt lat="42.5453020" lon="-8.8966910">
        <ele>3.6</ele>
        <time>2020-08-07T17:17:52Z</time>
      </trkpt>
      <trkpt lat="42.5453250" lon="-8.8966860">
        <ele>3.8</ele>
        <time>2020-08-07T17:17:53Z</time>
      </trkpt>
      <trkpt lat="42.5453250" lon="-8.8966860">
        <ele>3.8</ele>
        <time>2020-08-07T17:17:54Z</time>
      </trkpt>
      <trkpt lat="42.5453500" lon="-8.8966850">
        <ele>3.6</ele>
        <time>2020-08-07T17:17:55Z</time>
      </trkpt>
      <trkpt lat="42.5453500" lon="-8.8966850">
        <ele>3.6</ele>
        <time>2020-08-07T17:17:56Z</time>
      </trkpt>
      <trkpt lat="42.5453700" lon="-8.8966780">
        <ele>3.4</ele>
        <time>2020-08-07T17:17:57Z</time>
      </trkpt>
      <trkpt lat="42.5453700" lon="-8.8966780">
        <ele>3.2</ele>
        <time>2020-08-07T17:17:58Z</time>
      </trkpt>
      <trkpt lat="42.5453950" lon="-8.8966770">
        <ele>3.4</ele>
        <time>2020-08-07T17:17:59Z</time>
      </trkpt>
      <trkpt lat="42.5453950" lon="-8.8966770">
        <ele>3.4</ele>
        <time>2020-08-07T17:18:00Z</time>
      </trkpt>
      <trkpt lat="42.5454180" lon="-8.8966750">
        <ele>3.6</ele>
        <time>2020-08-07T17:18:01Z</time>
      </trkpt>
      <trkpt lat="42.5454180" lon="-8.8966750">
        <ele>3.8</ele>
        <time>2020-08-07T17:18:02Z</time>
      </trkpt>
      <trkpt lat="42.5454400" lon="-8.8966690">
        <ele>3.6</ele>
        <time>2020-08-07T17:18:03Z</time>
      </trkpt>
      <trkpt lat="42.5454400" lon="-8.8966690">
        <ele>3.6</ele>
        <time>2020-08-07T17:18:04Z</time>
      </trkpt>
      <trkpt lat="42.5454620" lon="-8.8966600">
        <ele>3.8</ele>
        <time>2020-08-07T17:18:05Z</time>
      </trkpt>
      <trkpt lat="42.5454620" lon="-8.8966600">
        <ele>3.8</ele>
        <time>2020-08-07T17:18:06Z</time>
      </trkpt>
      <trkpt lat="42.5454880" lon="-8.8966550">
        <ele>4.0</ele>
        <time>2020-08-07T17:18:07Z</time>
      </trkpt>
      <trkpt lat="42.5454880" lon="-8.8966550">
        <ele>3.8</ele>
        <time>2020-08-07T17:18:08Z</time>
      </trkpt>
      <trkpt lat="42.5455100" lon="-8.8966490">
        <ele>3.8</ele>
        <time>2020-08-07T17:18:09Z</time>
      </trkpt>
      <trkpt lat="42.5455100" lon="-8.8966490">
        <ele>4.0</ele>
        <time>2020-08-07T17:18:10Z</time>
      </trkpt>
      <trkpt lat="42.5455330" lon="-8.8966420">
        <ele>4.0</ele>
        <time>2020-08-07T17:18:11Z</time>
      </trkpt>
      <trkpt lat="42.5455330" lon="-8.8966420">
        <ele>3.8</ele>
        <time>2020-08-07T17:18:12Z</time>
      </trkpt>
      <trkpt lat="42.5455550" lon="-8.8966350">
        <ele>3.8</ele>
        <time>2020-08-07T17:18:13Z</time>
      </trkpt>
      <trkpt lat="42.5455550" lon="-8.8966350">
        <ele>4.0</ele>
        <time>2020-08-07T17:18:14Z</time>
      </trkpt>
      <trkpt lat="42.5455740" lon="-8.8966350">
        <ele>4.2</ele>
        <time>2020-08-07T17:18:15Z</time>
      </trkpt>
      <trkpt lat="42.5455740" lon="-8.8966350">
        <ele>4.4</ele>
        <time>2020-08-07T17:18:16Z</time>
      </trkpt>
      <trkpt lat="42.5456000" lon="-8.8966300">
        <ele>4.4</ele>
        <time>2020-08-07T17:18:17Z</time>
      </trkpt>
      <trkpt lat="42.5456000" lon="-8.8966300">
        <ele>4.2</ele>
        <time>2020-08-07T17:18:18Z</time>
      </trkpt>
      <trkpt lat="42.5456220" lon="-8.8966310">
        <ele>4.4</ele>
        <time>2020-08-07T17:18:19Z</time>
      </trkpt>
      <trkpt lat="42.5456220" lon="-8.8966310">
        <ele>4.4</ele>
        <time>2020-08-07T17:18:20Z</time>
      </trkpt>
      <trkpt lat="42.5456480" lon="-8.8966310">
        <ele>4.4</ele>
        <time>2020-08-07T17:18:21Z</time>
      </trkpt>
      <trkpt lat="42.5456480" lon="-8.8966310">
        <ele>4.4</ele>
        <time>2020-08-07T17:18:22Z</time>
      </trkpt>
      <trkpt lat="42.5456670" lon="-8.8966300">
        <ele>4.4</ele>
        <time>2020-08-07T17:18:23Z</time>
      </trkpt>
      <trkpt lat="42.5456670" lon="-8.8966300">
        <ele>4.4</ele>
        <time>2020-08-07T17:18:24Z</time>
      </trkpt>
      <trkpt lat="42.5456900" lon="-8.8966250">
        <ele>4.4</ele>
        <time>2020-08-07T17:18:25Z</time>
      </trkpt>
      <trkpt lat="42.5456900" lon="-8.8966250">
        <ele>4.4</ele>
        <time>2020-08-07T17:18:26Z</time>
      </trkpt>
      <trkpt lat="42.5457120" lon="-8.8966180">
        <ele>4.4</ele>
        <time>2020-08-07T17:18:27Z</time>
      </trkpt>
      <trkpt lat="42.5457120" lon="-8.8966180">
        <ele>4.6</ele>
        <time>2020-08-07T17:18:28Z</time>
      </trkpt>
      <trkpt lat="42.5457310" lon="-8.8966150">
        <ele>4.4</ele>
        <time>2020-08-07T17:18:29Z</time>
      </trkpt>
      <trkpt lat="42.5457310" lon="-8.8966150">
        <ele>4.2</ele>
        <time>2020-08-07T17:18:30Z</time>
      </trkpt>
      <trkpt lat="42.5457540" lon="-8.8966080">
        <ele>4.2</ele>
        <time>2020-08-07T17:18:31Z</time>
      </trkpt>
      <trkpt lat="42.5457540" lon="-8.8966080">
        <ele>4.0</ele>
        <time>2020-08-07T17:18:32Z</time>
      </trkpt>
      <trkpt lat="42.5457760" lon="-8.8966000">
        <ele>3.6</ele>
        <time>2020-08-07T17:18:33Z</time>
      </trkpt>
      <trkpt lat="42.5457760" lon="-8.8966000">
        <ele>3.8</ele>
        <time>2020-08-07T17:18:34Z</time>
      </trkpt>
      <trkpt lat="42.5457950" lon="-8.8965880">
        <ele>3.8</ele>
        <time>2020-08-07T17:18:35Z</time>
      </trkpt>
      <trkpt lat="42.5457950" lon="-8.8965880">
        <ele>3.6</ele>
        <time>2020-08-07T17:18:36Z</time>
      </trkpt>
      <trkpt lat="42.5458140" lon="-8.8965770">
        <ele>3.6</ele>
        <time>2020-08-07T17:18:37Z</time>
      </trkpt>
      <trkpt lat="42.5458140" lon="-8.8965770">
        <ele>3.8</ele>
        <time>2020-08-07T17:18:38Z</time>
      </trkpt>
      <trkpt lat="42.5458340" lon="-8.8965630">
        <ele>4.0</ele>
        <time>2020-08-07T17:18:39Z</time>
      </trkpt>
      <trkpt lat="42.5458340" lon="-8.8965630">
        <ele>4.0</ele>
        <time>2020-08-07T17:18:40Z</time>
      </trkpt>
      <trkpt lat="42.5458530" lon="-8.8965480">
        <ele>4.0</ele>
        <time>2020-08-07T17:18:41Z</time>
      </trkpt>
      <trkpt lat="42.5458530" lon="-8.8965480">
        <ele>4.2</ele>
        <time>2020-08-07T17:18:42Z</time>
      </trkpt>
      <trkpt lat="42.5458720" lon="-8.8965320">
        <ele>4.2</ele>
        <time>2020-08-07T17:18:43Z</time>
      </trkpt>
      <trkpt lat="42.5458720" lon="-8.8965320">
        <ele>3.8</ele>
        <time>2020-08-07T17:18:44Z</time>
      </trkpt>
      <trkpt lat="42.5458880" lon="-8.8965100">
        <ele>3.6</ele>
        <time>2020-08-07T17:18:45Z</time>
      </trkpt>
      <trkpt lat="42.5458880" lon="-8.8965100">
        <ele>3.4</ele>
        <time>2020-08-07T17:18:46Z</time>
      </trkpt>
      <trkpt lat="42.5459100" lon="-8.8964900">
        <ele>3.4</ele>
        <time>2020-08-07T17:18:47Z</time>
      </trkpt>
      <trkpt lat="42.5459100" lon="-8.8964900">
        <ele>3.4</ele>
        <time>2020-08-07T17:18:48Z</time>
      </trkpt>
      <trkpt lat="42.5459300" lon="-8.8964730">
        <ele>3.2</ele>
        <time>2020-08-07T17:18:49Z</time>
      </trkpt>
      <trkpt lat="42.5459300" lon="-8.8964730">
        <ele>3.0</ele>
        <time>2020-08-07T17:18:50Z</time>
      </trkpt>
      <trkpt lat="42.5459520" lon="-8.8964530">
        <ele>2.8</ele>
        <time>2020-08-07T17:18:51Z</time>
      </trkpt>
      <trkpt lat="42.5459520" lon="-8.8964530">
        <ele>2.8</ele>
        <time>2020-08-07T17:18:52Z</time>
      </trkpt>
      <trkpt lat="42.5459710" lon="-8.8964370">
        <ele>2.8</ele>
        <time>2020-08-07T17:18:53Z</time>
      </trkpt>
      <trkpt lat="42.5459710" lon="-8.8964370">
        <ele>3.0</ele>
        <time>2020-08-07T17:18:54Z</time>
      </trkpt>
      <trkpt lat="42.5459900" lon="-8.8964220">
        <ele>2.8</ele>
        <time>2020-08-07T17:18:55Z</time>
      </trkpt>
      <trkpt lat="42.5459900" lon="-8.8964220">
        <ele>2.8</ele>
        <time>2020-08-07T17:18:56Z</time>
      </trkpt>
      <trkpt lat="42.5460130" lon="-8.8964120">
        <ele>2.8</ele>
        <time>2020-08-07T17:18:57Z</time>
      </trkpt>
      <trkpt lat="42.5460130" lon="-8.8964120">
        <ele>3.0</ele>
        <time>2020-08-07T17:18:58Z</time>
      </trkpt>
      <trkpt lat="42.5460320" lon="-8.8964020">
        <ele>3.0</ele>
        <time>2020-08-07T17:18:59Z</time>
      </trkpt>
      <trkpt lat="42.5460320" lon="-8.8964020">
        <ele>3.0</ele>
        <time>2020-08-07T17:19:00Z</time>
      </trkpt>
      <trkpt lat="42.5460540" lon="-8.8963940">
        <ele>3.4</ele>
        <time>2020-08-07T17:19:01Z</time>
      </trkpt>
      <trkpt lat="42.5460540" lon="-8.8963940">
        <ele>3.2</ele>
        <time>2020-08-07T17:19:02Z</time>
      </trkpt>
      <trkpt lat="42.5460740" lon="-8.8963880">
        <ele>3.6</ele>
        <time>2020-08-07T17:19:03Z</time>
      </trkpt>
      <trkpt lat="42.5460740" lon="-8.8963880">
        <ele>3.4</ele>
        <time>2020-08-07T17:19:04Z</time>
      </trkpt>
      <trkpt lat="42.5460960" lon="-8.8963820">
        <ele>3.4</ele>
        <time>2020-08-07T17:19:05Z</time>
      </trkpt>
      <trkpt lat="42.5460960" lon="-8.8963820">
        <ele>3.6</ele>
        <time>2020-08-07T17:19:06Z</time>
      </trkpt>
      <trkpt lat="42.5461180" lon="-8.8963740">
        <ele>3.4</ele>
        <time>2020-08-07T17:19:07Z</time>
      </trkpt>
      <trkpt lat="42.5461180" lon="-8.8963740">
        <ele>3.6</ele>
        <time>2020-08-07T17:19:08Z</time>
      </trkpt>
      <trkpt lat="42.5461440" lon="-8.8963680">
        <ele>3.4</ele>
        <time>2020-08-07T17:19:09Z</time>
      </trkpt>
      <trkpt lat="42.5461440" lon="-8.8963680">
        <ele>3.4</ele>
        <time>2020-08-07T17:19:10Z</time>
      </trkpt>
      <trkpt lat="42.5461630" lon="-8.8963580">
        <ele>3.6</ele>
        <time>2020-08-07T17:19:11Z</time>
      </trkpt>
      <trkpt lat="42.5461630" lon="-8.8963580">
        <ele>3.6</ele>
        <time>2020-08-07T17:19:12Z</time>
      </trkpt>
      <trkpt lat="42.5461860" lon="-8.8963470">
        <ele>3.6</ele>
        <time>2020-08-07T17:19:13Z</time>
      </trkpt>
      <trkpt lat="42.5461860" lon="-8.8963470">
        <ele>3.6</ele>
        <time>2020-08-07T17:19:14Z</time>
      </trkpt>
      <trkpt lat="42.5462080" lon="-8.8963320">
        <ele>3.4</ele>
        <time>2020-08-07T17:19:15Z</time>
      </trkpt>
      <trkpt lat="42.5462080" lon="-8.8963320">
        <ele>3.0</ele>
        <time>2020-08-07T17:19:16Z</time>
      </trkpt>
      <trkpt lat="42.5462300" lon="-8.8963180">
        <ele>3.0</ele>
        <time>2020-08-07T17:19:17Z</time>
      </trkpt>
      <trkpt lat="42.5462300" lon="-8.8963180">
        <ele>3.2</ele>
        <time>2020-08-07T17:19:18Z</time>
      </trkpt>
      <trkpt lat="42.5462500" lon="-8.8963050">
        <ele>3.4</ele>
        <time>2020-08-07T17:19:19Z</time>
      </trkpt>
      <trkpt lat="42.5462500" lon="-8.8963050">
        <ele>3.4</ele>
        <time>2020-08-07T17:19:20Z</time>
      </trkpt>
      <trkpt lat="42.5462690" lon="-8.8962900">
        <ele>3.0</ele>
        <time>2020-08-07T17:19:21Z</time>
      </trkpt>
      <trkpt lat="42.5462690" lon="-8.8962900">
        <ele>3.0</ele>
        <time>2020-08-07T17:19:22Z</time>
      </trkpt>
      <trkpt lat="42.5462850" lon="-8.8962700">
        <ele>3.0</ele>
        <time>2020-08-07T17:19:23Z</time>
      </trkpt>
      <trkpt lat="42.5462850" lon="-8.8962700">
        <ele>3.0</ele>
        <time>2020-08-07T17:19:24Z</time>
      </trkpt>
      <trkpt lat="42.5463040" lon="-8.8962540">
        <ele>3.0</ele>
        <time>2020-08-07T17:19:25Z</time>
      </trkpt>
      <trkpt lat="42.5463040" lon="-8.8962540">
        <ele>2.6</ele>
        <time>2020-08-07T17:19:26Z</time>
      </trkpt>
      <trkpt lat="42.5463260" lon="-8.8962380">
        <ele>2.4</ele>
        <time>2020-08-07T17:19:27Z</time>
      </trkpt>
      <trkpt lat="42.5463260" lon="-8.8962380">
        <ele>2.6</ele>
        <time>2020-08-07T17:19:28Z</time>
      </trkpt>
      <trkpt lat="42.5463460" lon="-8.8962250">
        <ele>2.8</ele>
        <time>2020-08-07T17:19:29Z</time>
      </trkpt>
      <trkpt lat="42.5463460" lon="-8.8962250">
        <ele>3.0</ele>
        <time>2020-08-07T17:19:30Z</time>
      </trkpt>
      <trkpt lat="42.5463650" lon="-8.8962100">
        <ele>3.0</ele>
        <time>2020-08-07T17:19:31Z</time>
      </trkpt>
      <trkpt lat="42.5463650" lon="-8.8962100">
        <ele>3.2</ele>
        <time>2020-08-07T17:19:32Z</time>
      </trkpt>
      <trkpt lat="42.5463840" lon="-8.8961980">
        <ele>3.4</ele>
        <time>2020-08-07T17:19:33Z</time>
      </trkpt>
      <trkpt lat="42.5463840" lon="-8.8961980">
        <ele>3.6</ele>
        <time>2020-08-07T17:19:34Z</time>
      </trkpt>
      <trkpt lat="42.5464030" lon="-8.8961870">
        <ele>3.6</ele>
        <time>2020-08-07T17:19:35Z</time>
      </trkpt>
      <trkpt lat="42.5464030" lon="-8.8961870">
        <ele>3.6</ele>
        <time>2020-08-07T17:19:36Z</time>
      </trkpt>
      <trkpt lat="42.5464220" lon="-8.8961760">
        <ele>3.6</ele>
        <time>2020-08-07T17:19:37Z</time>
      </trkpt>
      <trkpt lat="42.5464220" lon="-8.8961760">
        <ele>3.6</ele>
        <time>2020-08-07T17:19:38Z</time>
      </trkpt>
      <trkpt lat="42.5464450" lon="-8.8961650">
        <ele>3.6</ele>
        <time>2020-08-07T17:19:39Z</time>
      </trkpt>
      <trkpt lat="42.5464450" lon="-8.8961650">
        <ele>3.8</ele>
        <time>2020-08-07T17:19:40Z</time>
      </trkpt>
      <trkpt lat="42.5464670" lon="-8.8961600">
        <ele>3.6</ele>
        <time>2020-08-07T17:19:41Z</time>
      </trkpt>
      <trkpt lat="42.5464670" lon="-8.8961600">
        <ele>3.4</ele>
        <time>2020-08-07T17:19:42Z</time>
      </trkpt>
      <trkpt lat="42.5464900" lon="-8.8961550">
        <ele>3.6</ele>
        <time>2020-08-07T17:19:43Z</time>
      </trkpt>
      <trkpt lat="42.5464900" lon="-8.8961550">
        <ele>3.4</ele>
        <time>2020-08-07T17:19:44Z</time>
      </trkpt>
      <trkpt lat="42.5465090" lon="-8.8961450">
        <ele>3.4</ele>
        <time>2020-08-07T17:19:45Z</time>
      </trkpt>
      <trkpt lat="42.5465090" lon="-8.8961450">
        <ele>3.4</ele>
        <time>2020-08-07T17:19:46Z</time>
      </trkpt>
      <trkpt lat="42.5465310" lon="-8.8961340">
        <ele>3.4</ele>
        <time>2020-08-07T17:19:47Z</time>
      </trkpt>
      <trkpt lat="42.5465310" lon="-8.8961340">
        <ele>3.0</ele>
        <time>2020-08-07T17:19:48Z</time>
      </trkpt>
      <trkpt lat="42.5465540" lon="-8.8961200">
        <ele>2.8</ele>
        <time>2020-08-07T17:19:49Z</time>
      </trkpt>
      <trkpt lat="42.5465540" lon="-8.8961200">
        <ele>2.6</ele>
        <time>2020-08-07T17:19:50Z</time>
      </trkpt>
      <trkpt lat="42.5465730" lon="-8.8961030">
        <ele>2.6</ele>
        <time>2020-08-07T17:19:51Z</time>
      </trkpt>
      <trkpt lat="42.5465730" lon="-8.8961030">
        <ele>2.8</ele>
        <time>2020-08-07T17:19:52Z</time>
      </trkpt>
      <trkpt lat="42.5465890" lon="-8.8960840">
        <ele>3.0</ele>
        <time>2020-08-07T17:19:53Z</time>
      </trkpt>
      <trkpt lat="42.5465890" lon="-8.8960840">
        <ele>3.0</ele>
        <time>2020-08-07T17:19:54Z</time>
      </trkpt>
      <trkpt lat="42.5466080" lon="-8.8960630">
        <ele>2.8</ele>
        <time>2020-08-07T17:19:55Z</time>
      </trkpt>
      <trkpt lat="42.5466080" lon="-8.8960630">
        <ele>2.4</ele>
        <time>2020-08-07T17:19:56Z</time>
      </trkpt>
      <trkpt lat="42.5466300" lon="-8.8960450">
        <ele>2.2</ele>
        <time>2020-08-07T17:19:57Z</time>
      </trkpt>
      <trkpt lat="42.5466300" lon="-8.8960450">
        <ele>2.2</ele>
        <time>2020-08-07T17:19:58Z</time>
      </trkpt>
      <trkpt lat="42.5466500" lon="-8.8960310">
        <ele>2.2</ele>
        <time>2020-08-07T17:19:59Z</time>
      </trkpt>
      <trkpt lat="42.5466500" lon="-8.8960310">
        <ele>2.2</ele>
        <time>2020-08-07T17:20:00Z</time>
      </trkpt>
      <trkpt lat="42.5466720" lon="-8.8960180">
        <ele>2.0</ele>
        <time>2020-08-07T17:20:01Z</time>
      </trkpt>
      <trkpt lat="42.5466720" lon="-8.8960180">
        <ele>1.8</ele>
        <time>2020-08-07T17:20:02Z</time>
      </trkpt>
      <trkpt lat="42.5466940" lon="-8.8960100">
        <ele>1.6</ele>
        <time>2020-08-07T17:20:03Z</time>
      </trkpt>
      <trkpt lat="42.5466940" lon="-8.8960100">
        <ele>1.6</ele>
        <time>2020-08-07T17:20:04Z</time>
      </trkpt>
      <trkpt lat="42.5467200" lon="-8.8960040">
        <ele>1.8</ele>
        <time>2020-08-07T17:20:05Z</time>
      </trkpt>
      <trkpt lat="42.5467200" lon="-8.8960040">
        <ele>2.0</ele>
        <time>2020-08-07T17:20:06Z</time>
      </trkpt>
      <trkpt lat="42.5467460" lon="-8.8959950">
        <ele>2.2</ele>
        <time>2020-08-07T17:20:07Z</time>
      </trkpt>
      <trkpt lat="42.5467460" lon="-8.8959950">
        <ele>2.2</ele>
        <time>2020-08-07T17:20:08Z</time>
      </trkpt>
      <trkpt lat="42.5467680" lon="-8.8959800">
        <ele>2.4</ele>
        <time>2020-08-07T17:20:09Z</time>
      </trkpt>
      <trkpt lat="42.5467680" lon="-8.8959800">
        <ele>2.4</ele>
        <time>2020-08-07T17:20:10Z</time>
      </trkpt>
      <trkpt lat="42.5467900" lon="-8.8959660">
        <ele>2.4</ele>
        <time>2020-08-07T17:20:11Z</time>
      </trkpt>
      <trkpt lat="42.5467900" lon="-8.8959660">
        <ele>1.8</ele>
        <time>2020-08-07T17:20:12Z</time>
      </trkpt>
      <trkpt lat="42.5468130" lon="-8.8959500">
        <ele>1.6</ele>
        <time>2020-08-07T17:20:13Z</time>
      </trkpt>
      <trkpt lat="42.5468130" lon="-8.8959500">
        <ele>1.6</ele>
        <time>2020-08-07T17:20:14Z</time>
      </trkpt>
      <trkpt lat="42.5468380" lon="-8.8959370">
        <ele>1.6</ele>
        <time>2020-08-07T17:20:15Z</time>
      </trkpt>
      <trkpt lat="42.5468380" lon="-8.8959370">
        <ele>1.8</ele>
        <time>2020-08-07T17:20:16Z</time>
      </trkpt>
      <trkpt lat="42.5468610" lon="-8.8959240">
        <ele>2.2</ele>
        <time>2020-08-07T17:20:17Z</time>
      </trkpt>
      <trkpt lat="42.5468610" lon="-8.8959240">
        <ele>2.6</ele>
        <time>2020-08-07T17:20:18Z</time>
      </trkpt>
      <trkpt lat="42.5468860" lon="-8.8959100">
        <ele>2.6</ele>
        <time>2020-08-07T17:20:19Z</time>
      </trkpt>
      <trkpt lat="42.5468860" lon="-8.8959100">
        <ele>2.8</ele>
        <time>2020-08-07T17:20:20Z</time>
      </trkpt>
      <trkpt lat="42.5469090" lon="-8.8959000">
        <ele>2.8</ele>
        <time>2020-08-07T17:20:21Z</time>
      </trkpt>
      <trkpt lat="42.5469090" lon="-8.8959000">
        <ele>2.8</ele>
        <time>2020-08-07T17:20:22Z</time>
      </trkpt>
      <trkpt lat="42.5469310" lon="-8.8958930">
        <ele>3.0</ele>
        <time>2020-08-07T17:20:23Z</time>
      </trkpt>
      <trkpt lat="42.5469310" lon="-8.8958930">
        <ele>2.4</ele>
        <time>2020-08-07T17:20:24Z</time>
      </trkpt>
      <trkpt lat="42.5469540" lon="-8.8958860">
        <ele>2.6</ele>
        <time>2020-08-07T17:20:25Z</time>
      </trkpt>
      <trkpt lat="42.5469540" lon="-8.8958860">
        <ele>2.6</ele>
        <time>2020-08-07T17:20:26Z</time>
      </trkpt>
      <trkpt lat="42.5469730" lon="-8.8958800">
        <ele>2.8</ele>
        <time>2020-08-07T17:20:27Z</time>
      </trkpt>
      <trkpt lat="42.5469730" lon="-8.8958800">
        <ele>2.8</ele>
        <time>2020-08-07T17:20:28Z</time>
      </trkpt>
      <trkpt lat="42.5469980" lon="-8.8958730">
        <ele>2.6</ele>
        <time>2020-08-07T17:20:29Z</time>
      </trkpt>
      <trkpt lat="42.5469980" lon="-8.8958730">
        <ele>2.8</ele>
        <time>2020-08-07T17:20:30Z</time>
      </trkpt>
      <trkpt lat="42.5470210" lon="-8.8958680">
        <ele>2.8</ele>
        <time>2020-08-07T17:20:31Z</time>
      </trkpt>
      <trkpt lat="42.5470210" lon="-8.8958680">
        <ele>2.2</ele>
        <time>2020-08-07T17:20:32Z</time>
      </trkpt>
      <trkpt lat="42.5470430" lon="-8.8958620">
        <ele>2.4</ele>
        <time>2020-08-07T17:20:33Z</time>
      </trkpt>
      <trkpt lat="42.5470430" lon="-8.8958620">
        <ele>2.6</ele>
        <time>2020-08-07T17:20:34Z</time>
      </trkpt>
      <trkpt lat="42.5470430" lon="-8.8958620">
        <ele>3.0</ele>
        <time>2020-08-07T17:20:35Z</time>
      </trkpt>
      <trkpt lat="42.5470690" lon="-8.8958500">
        <ele>2.8</ele>
        <time>2020-08-07T17:20:36Z</time>
      </trkpt>
      <trkpt lat="42.5470690" lon="-8.8958500">
        <ele>3.0</ele>
        <time>2020-08-07T17:20:37Z</time>
      </trkpt>
      <trkpt lat="42.5470910" lon="-8.8958380">
        <ele>3.0</ele>
        <time>2020-08-07T17:20:38Z</time>
      </trkpt>
      <trkpt lat="42.5470910" lon="-8.8958380">
        <ele>3.4</ele>
        <time>2020-08-07T17:20:39Z</time>
      </trkpt>
      <trkpt lat="42.5471100" lon="-8.8958280">
        <ele>3.4</ele>
        <time>2020-08-07T17:20:40Z</time>
      </trkpt>
      <trkpt lat="42.5471100" lon="-8.8958280">
        <ele>3.6</ele>
        <time>2020-08-07T17:20:41Z</time>
      </trkpt>
      <trkpt lat="42.5471330" lon="-8.8958200">
        <ele>4.0</ele>
        <time>2020-08-07T17:20:42Z</time>
      </trkpt>
      <trkpt lat="42.5471330" lon="-8.8958200">
        <ele>3.8</ele>
        <time>2020-08-07T17:20:43Z</time>
      </trkpt>
      <trkpt lat="42.5471580" lon="-8.8958080">
        <ele>4.0</ele>
        <time>2020-08-07T17:20:44Z</time>
      </trkpt>
      <trkpt lat="42.5471580" lon="-8.8958080">
        <ele>4.0</ele>
        <time>2020-08-07T17:20:45Z</time>
      </trkpt>
      <trkpt lat="42.5471810" lon="-8.8957980">
        <ele>4.0</ele>
        <time>2020-08-07T17:20:46Z</time>
      </trkpt>
      <trkpt lat="42.5471810" lon="-8.8957980">
        <ele>3.8</ele>
        <time>2020-08-07T17:20:47Z</time>
      </trkpt>
      <trkpt lat="42.5472000" lon="-8.8957860">
        <ele>3.8</ele>
        <time>2020-08-07T17:20:48Z</time>
      </trkpt>
      <trkpt lat="42.5472000" lon="-8.8957860">
        <ele>3.6</ele>
        <time>2020-08-07T17:20:49Z</time>
      </trkpt>
      <trkpt lat="42.5472220" lon="-8.8957770">
        <ele>3.8</ele>
        <time>2020-08-07T17:20:50Z</time>
      </trkpt>
      <trkpt lat="42.5472220" lon="-8.8957770">
        <ele>4.0</ele>
        <time>2020-08-07T17:20:51Z</time>
      </trkpt>
      <trkpt lat="42.5472450" lon="-8.8957660">
        <ele>4.0</ele>
        <time>2020-08-07T17:20:52Z</time>
      </trkpt>
      <trkpt lat="42.5472450" lon="-8.8957660">
        <ele>3.8</ele>
        <time>2020-08-07T17:20:53Z</time>
      </trkpt>
      <trkpt lat="42.5472450" lon="-8.8957660">
        <ele>4.0</ele>
        <time>2020-08-07T17:20:54Z</time>
      </trkpt>
      <trkpt lat="42.5472700" lon="-8.8957520">
        <ele>4.0</ele>
        <time>2020-08-07T17:20:55Z</time>
      </trkpt>
      <trkpt lat="42.5472700" lon="-8.8957520">
        <ele>4.2</ele>
        <time>2020-08-07T17:20:56Z</time>
      </trkpt>
      <trkpt lat="42.5472900" lon="-8.8957430">
        <ele>4.2</ele>
        <time>2020-08-07T17:20:57Z</time>
      </trkpt>
      <trkpt lat="42.5472900" lon="-8.8957430">
        <ele>4.4</ele>
        <time>2020-08-07T17:20:58Z</time>
      </trkpt>
      <trkpt lat="42.5472900" lon="-8.8957430">
        <ele>4.6</ele>
        <time>2020-08-07T17:20:59Z</time>
      </trkpt>
      <trkpt lat="42.5473180" lon="-8.8957370">
        <ele>4.4</ele>
        <time>2020-08-07T17:21:00Z</time>
      </trkpt>
      <trkpt lat="42.5473180" lon="-8.8957370">
        <ele>4.4</ele>
        <time>2020-08-07T17:21:01Z</time>
      </trkpt>
      <trkpt lat="42.5473380" lon="-8.8957300">
        <ele>4.2</ele>
        <time>2020-08-07T17:21:02Z</time>
      </trkpt>
      <trkpt lat="42.5473380" lon="-8.8957300">
        <ele>4.0</ele>
        <time>2020-08-07T17:21:03Z</time>
      </trkpt>
      <trkpt lat="42.5473600" lon="-8.8957230">
        <ele>4.0</ele>
        <time>2020-08-07T17:21:04Z</time>
      </trkpt>
      <trkpt lat="42.5473600" lon="-8.8957230">
        <ele>4.4</ele>
        <time>2020-08-07T17:21:05Z</time>
      </trkpt>
      <trkpt lat="42.5473790" lon="-8.8957140">
        <ele>4.6</ele>
        <time>2020-08-07T17:21:06Z</time>
      </trkpt>
      <trkpt lat="42.5473790" lon="-8.8957140">
        <ele>4.8</ele>
        <time>2020-08-07T17:21:07Z</time>
      </trkpt>
      <trkpt lat="42.5473980" lon="-8.8956980">
        <ele>4.6</ele>
        <time>2020-08-07T17:21:08Z</time>
      </trkpt>
      <trkpt lat="42.5473980" lon="-8.8956980">
        <ele>4.6</ele>
        <time>2020-08-07T17:21:09Z</time>
      </trkpt>
      <trkpt lat="42.5474180" lon="-8.8956900">
        <ele>4.6</ele>
        <time>2020-08-07T17:21:10Z</time>
      </trkpt>
      <trkpt lat="42.5474180" lon="-8.8956900">
        <ele>4.8</ele>
        <time>2020-08-07T17:21:11Z</time>
      </trkpt>
      <trkpt lat="42.5474400" lon="-8.8956820">
        <ele>4.8</ele>
        <time>2020-08-07T17:21:12Z</time>
      </trkpt>
      <trkpt lat="42.5474400" lon="-8.8956820">
        <ele>4.8</ele>
        <time>2020-08-07T17:21:13Z</time>
      </trkpt>
      <trkpt lat="42.5474590" lon="-8.8956720">
        <ele>4.8</ele>
        <time>2020-08-07T17:21:14Z</time>
      </trkpt>
      <trkpt lat="42.5474590" lon="-8.8956720">
        <ele>4.6</ele>
        <time>2020-08-07T17:21:15Z</time>
      </trkpt>
      <trkpt lat="42.5474820" lon="-8.8956630">
        <ele>4.6</ele>
        <time>2020-08-07T17:21:16Z</time>
      </trkpt>
      <trkpt lat="42.5474820" lon="-8.8956630">
        <ele>4.4</ele>
        <time>2020-08-07T17:21:17Z</time>
      </trkpt>
      <trkpt lat="42.5475040" lon="-8.8956540">
        <ele>4.4</ele>
        <time>2020-08-07T17:21:18Z</time>
      </trkpt>
      <trkpt lat="42.5475040" lon="-8.8956540">
        <ele>4.4</ele>
        <time>2020-08-07T17:21:19Z</time>
      </trkpt>
      <trkpt lat="42.5475260" lon="-8.8956420">
        <ele>4.4</ele>
        <time>2020-08-07T17:21:20Z</time>
      </trkpt>
      <trkpt lat="42.5475260" lon="-8.8956420">
        <ele>4.2</ele>
        <time>2020-08-07T17:21:21Z</time>
      </trkpt>
      <trkpt lat="42.5475490" lon="-8.8956280">
        <ele>4.0</ele>
        <time>2020-08-07T17:21:22Z</time>
      </trkpt>
      <trkpt lat="42.5475490" lon="-8.8956280">
        <ele>4.0</ele>
        <time>2020-08-07T17:21:23Z</time>
      </trkpt>
      <trkpt lat="42.5475680" lon="-8.8956140">
        <ele>4.0</ele>
        <time>2020-08-07T17:21:24Z</time>
      </trkpt>
      <trkpt lat="42.5475680" lon="-8.8956140">
        <ele>4.2</ele>
        <time>2020-08-07T17:21:25Z</time>
      </trkpt>
      <trkpt lat="42.5475870" lon="-8.8956000">
        <ele>4.2</ele>
        <time>2020-08-07T17:21:26Z</time>
      </trkpt>
      <trkpt lat="42.5475870" lon="-8.8956000">
        <ele>4.2</ele>
        <time>2020-08-07T17:21:27Z</time>
      </trkpt>
      <trkpt lat="42.5476060" lon="-8.8955900">
        <ele>4.2</ele>
        <time>2020-08-07T17:21:28Z</time>
      </trkpt>
      <trkpt lat="42.5476060" lon="-8.8955900">
        <ele>4.0</ele>
        <time>2020-08-07T17:21:29Z</time>
      </trkpt>
      <trkpt lat="42.5476260" lon="-8.8955740">
        <ele>4.2</ele>
        <time>2020-08-07T17:21:30Z</time>
      </trkpt>
      <trkpt lat="42.5476260" lon="-8.8955740">
        <ele>4.4</ele>
        <time>2020-08-07T17:21:31Z</time>
      </trkpt>
      <trkpt lat="42.5476450" lon="-8.8955620">
        <ele>4.2</ele>
        <time>2020-08-07T17:21:32Z</time>
      </trkpt>
      <trkpt lat="42.5476450" lon="-8.8955620">
        <ele>4.0</ele>
        <time>2020-08-07T17:21:33Z</time>
      </trkpt>
      <trkpt lat="42.5476670" lon="-8.8955430">
        <ele>3.8</ele>
        <time>2020-08-07T17:21:34Z</time>
      </trkpt>
      <trkpt lat="42.5476670" lon="-8.8955430">
        <ele>3.8</ele>
        <time>2020-08-07T17:21:35Z</time>
      </trkpt>
      <trkpt lat="42.5476830" lon="-8.8955300">
        <ele>4.0</ele>
        <time>2020-08-07T17:21:36Z</time>
      </trkpt>
      <trkpt lat="42.5476830" lon="-8.8955300">
        <ele>4.2</ele>
        <time>2020-08-07T17:21:37Z</time>
      </trkpt>
      <trkpt lat="42.5476990" lon="-8.8955160">
        <ele>4.4</ele>
        <time>2020-08-07T17:21:38Z</time>
      </trkpt>
      <trkpt lat="42.5476990" lon="-8.8955160">
        <ele>4.6</ele>
        <time>2020-08-07T17:21:39Z</time>
      </trkpt>
      <trkpt lat="42.5477180" lon="-8.8955070">
        <ele>4.4</ele>
        <time>2020-08-07T17:21:40Z</time>
      </trkpt>
      <trkpt lat="42.5477180" lon="-8.8955070">
        <ele>4.6</ele>
        <time>2020-08-07T17:21:41Z</time>
      </trkpt>
      <trkpt lat="42.5477380" lon="-8.8954950">
        <ele>4.2</ele>
        <time>2020-08-07T17:21:42Z</time>
      </trkpt>
      <trkpt lat="42.5477380" lon="-8.8954950">
        <ele>4.2</ele>
        <time>2020-08-07T17:21:43Z</time>
      </trkpt>
      <trkpt lat="42.5477570" lon="-8.8954850">
        <ele>4.0</ele>
        <time>2020-08-07T17:21:44Z</time>
      </trkpt>
      <trkpt lat="42.5477570" lon="-8.8954850">
        <ele>4.0</ele>
        <time>2020-08-07T17:21:45Z</time>
      </trkpt>
      <trkpt lat="42.5477760" lon="-8.8954760">
        <ele>3.8</ele>
        <time>2020-08-07T17:21:46Z</time>
      </trkpt>
      <trkpt lat="42.5477760" lon="-8.8954760">
        <ele>4.2</ele>
        <time>2020-08-07T17:21:47Z</time>
      </trkpt>
      <trkpt lat="42.5477760" lon="-8.8954760">
        <ele>4.2</ele>
        <time>2020-08-07T17:21:48Z</time>
      </trkpt>
      <trkpt lat="42.5478020" lon="-8.8954630">
        <ele>3.8</ele>
        <time>2020-08-07T17:21:49Z</time>
      </trkpt>
      <trkpt lat="42.5478020" lon="-8.8954630">
        <ele>4.0</ele>
        <time>2020-08-07T17:21:50Z</time>
      </trkpt>
      <trkpt lat="42.5478240" lon="-8.8954560">
        <ele>4.2</ele>
        <time>2020-08-07T17:21:51Z</time>
      </trkpt>
      <trkpt lat="42.5478240" lon="-8.8954560">
        <ele>4.4</ele>
        <time>2020-08-07T17:21:52Z</time>
      </trkpt>
      <trkpt lat="42.5478430" lon="-8.8954510">
        <ele>4.4</ele>
        <time>2020-08-07T17:21:53Z</time>
      </trkpt>
      <trkpt lat="42.5478430" lon="-8.8954510">
        <ele>3.8</ele>
        <time>2020-08-07T17:21:54Z</time>
      </trkpt>
      <trkpt lat="42.5478660" lon="-8.8954420">
        <ele>3.6</ele>
        <time>2020-08-07T17:21:55Z</time>
      </trkpt>
      <trkpt lat="42.5478660" lon="-8.8954420">
        <ele>4.0</ele>
        <time>2020-08-07T17:21:56Z</time>
      </trkpt>
      <trkpt lat="42.5478850" lon="-8.8954340">
        <ele>3.8</ele>
        <time>2020-08-07T17:21:57Z</time>
      </trkpt>
      <trkpt lat="42.5478850" lon="-8.8954340">
        <ele>4.0</ele>
        <time>2020-08-07T17:21:58Z</time>
      </trkpt>
      <trkpt lat="42.5479070" lon="-8.8954220">
        <ele>3.6</ele>
        <time>2020-08-07T17:21:59Z</time>
      </trkpt>
      <trkpt lat="42.5479070" lon="-8.8954220">
        <ele>3.8</ele>
        <time>2020-08-07T17:22:00Z</time>
      </trkpt>
      <trkpt lat="42.5479330" lon="-8.8954060">
        <ele>3.8</ele>
        <time>2020-08-07T17:22:01Z</time>
      </trkpt>
      <trkpt lat="42.5479330" lon="-8.8954060">
        <ele>4.0</ele>
        <time>2020-08-07T17:22:02Z</time>
      </trkpt>
      <trkpt lat="42.5479550" lon="-8.8953940">
        <ele>3.6</ele>
        <time>2020-08-07T17:22:03Z</time>
      </trkpt>
      <trkpt lat="42.5479550" lon="-8.8953940">
        <ele>3.6</ele>
        <time>2020-08-07T17:22:04Z</time>
      </trkpt>
      <trkpt lat="42.5479740" lon="-8.8953800">
        <ele>3.8</ele>
        <time>2020-08-07T17:22:05Z</time>
      </trkpt>
      <trkpt lat="42.5479740" lon="-8.8953800">
        <ele>3.6</ele>
        <time>2020-08-07T17:22:06Z</time>
      </trkpt>
      <trkpt lat="42.5480000" lon="-8.8953700">
        <ele>3.8</ele>
        <time>2020-08-07T17:22:07Z</time>
      </trkpt>
      <trkpt lat="42.5480000" lon="-8.8953700">
        <ele>3.4</ele>
        <time>2020-08-07T17:22:08Z</time>
      </trkpt>
      <trkpt lat="42.5480220" lon="-8.8953620">
        <ele>3.6</ele>
        <time>2020-08-07T17:22:09Z</time>
      </trkpt>
      <trkpt lat="42.5480220" lon="-8.8953620">
        <ele>3.6</ele>
        <time>2020-08-07T17:22:10Z</time>
      </trkpt>
      <trkpt lat="42.5480450" lon="-8.8953540">
        <ele>3.6</ele>
        <time>2020-08-07T17:22:11Z</time>
      </trkpt>
      <trkpt lat="42.5480450" lon="-8.8953540">
        <ele>3.8</ele>
        <time>2020-08-07T17:22:12Z</time>
      </trkpt>
      <trkpt lat="42.5480700" lon="-8.8953460">
        <ele>4.2</ele>
        <time>2020-08-07T17:22:13Z</time>
      </trkpt>
      <trkpt lat="42.5480700" lon="-8.8953460">
        <ele>4.2</ele>
        <time>2020-08-07T17:22:14Z</time>
      </trkpt>
      <trkpt lat="42.5480900" lon="-8.8953370">
        <ele>4.0</ele>
        <time>2020-08-07T17:22:15Z</time>
      </trkpt>
      <trkpt lat="42.5480900" lon="-8.8953370">
        <ele>4.0</ele>
        <time>2020-08-07T17:22:16Z</time>
      </trkpt>
      <trkpt lat="42.5481150" lon="-8.8953260">
        <ele>4.0</ele>
        <time>2020-08-07T17:22:17Z</time>
      </trkpt>
      <trkpt lat="42.5481150" lon="-8.8953260">
        <ele>3.8</ele>
        <time>2020-08-07T17:22:18Z</time>
      </trkpt>
      <trkpt lat="42.5481410" lon="-8.8953140">
        <ele>3.6</ele>
        <time>2020-08-07T17:22:19Z</time>
      </trkpt>
      <trkpt lat="42.5481410" lon="-8.8953140">
        <ele>3.6</ele>
        <time>2020-08-07T17:22:20Z</time>
      </trkpt>
      <trkpt lat="42.5481630" lon="-8.8953000">
        <ele>3.4</ele>
        <time>2020-08-07T17:22:21Z</time>
      </trkpt>
      <trkpt lat="42.5481630" lon="-8.8953000">
        <ele>3.4</ele>
        <time>2020-08-07T17:22:22Z</time>
      </trkpt>
      <trkpt lat="42.5481920" lon="-8.8952900">
        <ele>3.2</ele>
        <time>2020-08-07T17:22:23Z</time>
      </trkpt>
      <trkpt lat="42.5481920" lon="-8.8952900">
        <ele>3.4</ele>
        <time>2020-08-07T17:22:24Z</time>
      </trkpt>
      <trkpt lat="42.5482110" lon="-8.8952770">
        <ele>3.2</ele>
        <time>2020-08-07T17:22:25Z</time>
      </trkpt>
      <trkpt lat="42.5482110" lon="-8.8952770">
        <ele>3.0</ele>
        <time>2020-08-07T17:22:26Z</time>
      </trkpt>
      <trkpt lat="42.5482370" lon="-8.8952690">
        <ele>3.0</ele>
        <time>2020-08-07T17:22:27Z</time>
      </trkpt>
      <trkpt lat="42.5482370" lon="-8.8952690">
        <ele>3.0</ele>
        <time>2020-08-07T17:22:28Z</time>
      </trkpt>
      <trkpt lat="42.5482590" lon="-8.8952580">
        <ele>2.4</ele>
        <time>2020-08-07T17:22:29Z</time>
      </trkpt>
      <trkpt lat="42.5482590" lon="-8.8952580">
        <ele>2.6</ele>
        <time>2020-08-07T17:22:30Z</time>
      </trkpt>
      <trkpt lat="42.5482820" lon="-8.8952490">
        <ele>2.8</ele>
        <time>2020-08-07T17:22:31Z</time>
      </trkpt>
      <trkpt lat="42.5482820" lon="-8.8952490">
        <ele>2.8</ele>
        <time>2020-08-07T17:22:32Z</time>
      </trkpt>
      <trkpt lat="42.5483010" lon="-8.8952380">
        <ele>2.8</ele>
        <time>2020-08-07T17:22:33Z</time>
      </trkpt>
      <trkpt lat="42.5483010" lon="-8.8952380">
        <ele>2.8</ele>
        <time>2020-08-07T17:22:34Z</time>
      </trkpt>
      <trkpt lat="42.5483230" lon="-8.8952220">
        <ele>3.2</ele>
        <time>2020-08-07T17:22:35Z</time>
      </trkpt>
      <trkpt lat="42.5483230" lon="-8.8952220">
        <ele>3.0</ele>
        <time>2020-08-07T17:22:36Z</time>
      </trkpt>
      <trkpt lat="42.5483390" lon="-8.8952050">
        <ele>3.4</ele>
        <time>2020-08-07T17:22:37Z</time>
      </trkpt>
      <trkpt lat="42.5483390" lon="-8.8952050">
        <ele>3.6</ele>
        <time>2020-08-07T17:22:38Z</time>
      </trkpt>
      <trkpt lat="42.5483550" lon="-8.8951910">
        <ele>4.2</ele>
        <time>2020-08-07T17:22:39Z</time>
      </trkpt>
      <trkpt lat="42.5483550" lon="-8.8951910">
        <ele>4.2</ele>
        <time>2020-08-07T17:22:40Z</time>
      </trkpt>
      <trkpt lat="42.5483710" lon="-8.8951750">
        <ele>4.0</ele>
        <time>2020-08-07T17:22:41Z</time>
      </trkpt>
      <trkpt lat="42.5483710" lon="-8.8951750">
        <ele>4.0</ele>
        <time>2020-08-07T17:22:42Z</time>
      </trkpt>
      <trkpt lat="42.5483900" lon="-8.8951600">
        <ele>4.0</ele>
        <time>2020-08-07T17:22:43Z</time>
      </trkpt>
      <trkpt lat="42.5483900" lon="-8.8951600">
        <ele>4.2</ele>
        <time>2020-08-07T17:22:44Z</time>
      </trkpt>
      <trkpt lat="42.5483900" lon="-8.8951600">
        <ele>4.2</ele>
        <time>2020-08-07T17:22:45Z</time>
      </trkpt>
      <trkpt lat="42.5484130" lon="-8.8951400">
        <ele>4.0</ele>
        <time>2020-08-07T17:22:46Z</time>
      </trkpt>
      <trkpt lat="42.5484130" lon="-8.8951400">
        <ele>4.0</ele>
        <time>2020-08-07T17:22:47Z</time>
      </trkpt>
      <trkpt lat="42.5484130" lon="-8.8951400">
        <ele>4.0</ele>
        <time>2020-08-07T17:22:48Z</time>
      </trkpt>
      <trkpt lat="42.5484320" lon="-8.8951150">
        <ele>4.2</ele>
        <time>2020-08-07T17:22:49Z</time>
      </trkpt>
      <trkpt lat="42.5484320" lon="-8.8951150">
        <ele>4.6</ele>
        <time>2020-08-07T17:22:50Z</time>
      </trkpt>
      <trkpt lat="42.5484480" lon="-8.8950980">
        <ele>4.4</ele>
        <time>2020-08-07T17:22:51Z</time>
      </trkpt>
      <trkpt lat="42.5484480" lon="-8.8950980">
        <ele>4.6</ele>
        <time>2020-08-07T17:22:52Z</time>
      </trkpt>
      <trkpt lat="42.5484480" lon="-8.8950980">
        <ele>4.6</ele>
        <time>2020-08-07T17:22:53Z</time>
      </trkpt>
      <trkpt lat="42.5484670" lon="-8.8950680">
        <ele>4.6</ele>
        <time>2020-08-07T17:22:54Z</time>
      </trkpt>
      <trkpt lat="42.5484670" lon="-8.8950680">
        <ele>4.4</ele>
        <time>2020-08-07T17:22:55Z</time>
      </trkpt>
      <trkpt lat="42.5484860" lon="-8.8950520">
        <ele>4.2</ele>
        <time>2020-08-07T17:22:56Z</time>
      </trkpt>
      <trkpt lat="42.5484860" lon="-8.8950520">
        <ele>4.2</ele>
        <time>2020-08-07T17:22:57Z</time>
      </trkpt>
      <trkpt lat="42.5485020" lon="-8.8950390">
        <ele>4.2</ele>
        <time>2020-08-07T17:22:58Z</time>
      </trkpt>
      <trkpt lat="42.5485020" lon="-8.8950390">
        <ele>4.0</ele>
        <time>2020-08-07T17:22:59Z</time>
      </trkpt>
      <trkpt lat="42.5485280" lon="-8.8950330">
        <ele>4.0</ele>
        <time>2020-08-07T17:23:00Z</time>
      </trkpt>
      <trkpt lat="42.5485280" lon="-8.8950330">
        <ele>4.0</ele>
        <time>2020-08-07T17:23:01Z</time>
      </trkpt>
      <trkpt lat="42.5485470" lon="-8.8950260">
        <ele>4.0</ele>
        <time>2020-08-07T17:23:02Z</time>
      </trkpt>
      <trkpt lat="42.5485470" lon="-8.8950260">
        <ele>4.0</ele>
        <time>2020-08-07T17:23:03Z</time>
      </trkpt>
      <trkpt lat="42.5485660" lon="-8.8950140">
        <ele>4.0</ele>
        <time>2020-08-07T17:23:04Z</time>
      </trkpt>
      <trkpt lat="42.5485660" lon="-8.8950140">
        <ele>3.6</ele>
        <time>2020-08-07T17:23:05Z</time>
      </trkpt>
      <trkpt lat="42.5485890" lon="-8.8950060">
        <ele>3.6</ele>
        <time>2020-08-07T17:23:06Z</time>
      </trkpt>
      <trkpt lat="42.5485890" lon="-8.8950060">
        <ele>3.8</ele>
        <time>2020-08-07T17:23:07Z</time>
      </trkpt>
      <trkpt lat="42.5486080" lon="-8.8949970">
        <ele>3.8</ele>
        <time>2020-08-07T17:23:08Z</time>
      </trkpt>
      <trkpt lat="42.5486080" lon="-8.8949970">
        <ele>3.8</ele>
        <time>2020-08-07T17:23:09Z</time>
      </trkpt>
      <trkpt lat="42.5486300" lon="-8.8949820">
        <ele>4.0</ele>
        <time>2020-08-07T17:23:10Z</time>
      </trkpt>
      <trkpt lat="42.5486300" lon="-8.8949820">
        <ele>3.8</ele>
        <time>2020-08-07T17:23:11Z</time>
      </trkpt>
      <trkpt lat="42.5486530" lon="-8.8949670">
        <ele>4.0</ele>
        <time>2020-08-07T17:23:12Z</time>
      </trkpt>
      <trkpt lat="42.5486530" lon="-8.8949670">
        <ele>4.4</ele>
        <time>2020-08-07T17:23:13Z</time>
      </trkpt>
      <trkpt lat="42.5486720" lon="-8.8949540">
        <ele>4.2</ele>
        <time>2020-08-07T17:23:14Z</time>
      </trkpt>
      <trkpt lat="42.5486720" lon="-8.8949540">
        <ele>4.0</ele>
        <time>2020-08-07T17:23:15Z</time>
      </trkpt>
      <trkpt lat="42.5486980" lon="-8.8949430">
        <ele>4.0</ele>
        <time>2020-08-07T17:23:16Z</time>
      </trkpt>
      <trkpt lat="42.5486980" lon="-8.8949430">
        <ele>4.0</ele>
        <time>2020-08-07T17:23:17Z</time>
      </trkpt>
      <trkpt lat="42.5487170" lon="-8.8949340">
        <ele>4.0</ele>
        <time>2020-08-07T17:23:18Z</time>
      </trkpt>
      <trkpt lat="42.5487170" lon="-8.8949340">
        <ele>4.2</ele>
        <time>2020-08-07T17:23:19Z</time>
      </trkpt>
      <trkpt lat="42.5487460" lon="-8.8949320">
        <ele>4.0</ele>
        <time>2020-08-07T17:23:20Z</time>
      </trkpt>
      <trkpt lat="42.5487460" lon="-8.8949320">
        <ele>4.2</ele>
        <time>2020-08-07T17:23:21Z</time>
      </trkpt>
      <trkpt lat="42.5487680" lon="-8.8949320">
        <ele>4.2</ele>
        <time>2020-08-07T17:23:22Z</time>
      </trkpt>
      <trkpt lat="42.5487680" lon="-8.8949320">
        <ele>4.2</ele>
        <time>2020-08-07T17:23:23Z</time>
      </trkpt>
      <trkpt lat="42.5487900" lon="-8.8949300">
        <ele>4.2</ele>
        <time>2020-08-07T17:23:24Z</time>
      </trkpt>
      <trkpt lat="42.5487900" lon="-8.8949300">
        <ele>4.0</ele>
        <time>2020-08-07T17:23:25Z</time>
      </trkpt>
      <trkpt lat="42.5488130" lon="-8.8949270">
        <ele>4.0</ele>
        <time>2020-08-07T17:23:26Z</time>
      </trkpt>
      <trkpt lat="42.5488130" lon="-8.8949270">
        <ele>4.0</ele>
        <time>2020-08-07T17:23:27Z</time>
      </trkpt>
      <trkpt lat="42.5488350" lon="-8.8949230">
        <ele>4.0</ele>
        <time>2020-08-07T17:23:28Z</time>
      </trkpt>
      <trkpt lat="42.5488350" lon="-8.8949230">
        <ele>3.6</ele>
        <time>2020-08-07T17:23:29Z</time>
      </trkpt>
      <trkpt lat="42.5488580" lon="-8.8949220">
        <ele>3.8</ele>
        <time>2020-08-07T17:23:30Z</time>
      </trkpt>
      <trkpt lat="42.5488580" lon="-8.8949220">
        <ele>4.0</ele>
        <time>2020-08-07T17:23:31Z</time>
      </trkpt>
      <trkpt lat="42.5488770" lon="-8.8949230">
        <ele>4.6</ele>
        <time>2020-08-07T17:23:32Z</time>
      </trkpt>
      <trkpt lat="42.5488770" lon="-8.8949230">
        <ele>4.6</ele>
        <time>2020-08-07T17:23:33Z</time>
      </trkpt>
      <trkpt lat="42.5488990" lon="-8.8949200">
        <ele>4.6</ele>
        <time>2020-08-07T17:23:34Z</time>
      </trkpt>
      <trkpt lat="42.5488990" lon="-8.8949200">
        <ele>4.4</ele>
        <time>2020-08-07T17:23:35Z</time>
      </trkpt>
      <trkpt lat="42.5489250" lon="-8.8949180">
        <ele>4.2</ele>
        <time>2020-08-07T17:23:36Z</time>
      </trkpt>
      <trkpt lat="42.5489250" lon="-8.8949180">
        <ele>4.0</ele>
        <time>2020-08-07T17:23:37Z</time>
      </trkpt>
      <trkpt lat="42.5489470" lon="-8.8949180">
        <ele>4.0</ele>
        <time>2020-08-07T17:23:38Z</time>
      </trkpt>
      <trkpt lat="42.5489470" lon="-8.8949180">
        <ele>4.2</ele>
        <time>2020-08-07T17:23:39Z</time>
      </trkpt>
      <trkpt lat="42.5489660" lon="-8.8949120">
        <ele>4.0</ele>
        <time>2020-08-07T17:23:40Z</time>
      </trkpt>
      <trkpt lat="42.5489660" lon="-8.8949120">
        <ele>3.8</ele>
        <time>2020-08-07T17:23:41Z</time>
      </trkpt>
      <trkpt lat="42.5489890" lon="-8.8949080">
        <ele>3.6</ele>
        <time>2020-08-07T17:23:42Z</time>
      </trkpt>
      <trkpt lat="42.5489890" lon="-8.8949080">
        <ele>3.6</ele>
        <time>2020-08-07T17:23:43Z</time>
      </trkpt>
      <trkpt lat="42.5490140" lon="-8.8949030">
        <ele>3.8</ele>
        <time>2020-08-07T17:23:44Z</time>
      </trkpt>
      <trkpt lat="42.5490140" lon="-8.8949030">
        <ele>3.8</ele>
        <time>2020-08-07T17:23:45Z</time>
      </trkpt>
      <trkpt lat="42.5490340" lon="-8.8949020">
        <ele>4.0</ele>
        <time>2020-08-07T17:23:46Z</time>
      </trkpt>
      <trkpt lat="42.5490340" lon="-8.8949020">
        <ele>3.8</ele>
        <time>2020-08-07T17:23:47Z</time>
      </trkpt>
      <trkpt lat="42.5490560" lon="-8.8948970">
        <ele>3.6</ele>
        <time>2020-08-07T17:23:48Z</time>
      </trkpt>
      <trkpt lat="42.5490560" lon="-8.8948970">
        <ele>3.8</ele>
        <time>2020-08-07T17:23:49Z</time>
      </trkpt>
      <trkpt lat="42.5490850" lon="-8.8948920">
        <ele>3.4</ele>
        <time>2020-08-07T17:23:50Z</time>
      </trkpt>
      <trkpt lat="42.5490850" lon="-8.8948920">
        <ele>3.4</ele>
        <time>2020-08-07T17:23:51Z</time>
      </trkpt>
      <trkpt lat="42.5491040" lon="-8.8948870">
        <ele>3.4</ele>
        <time>2020-08-07T17:23:52Z</time>
      </trkpt>
      <trkpt lat="42.5491040" lon="-8.8948870">
        <ele>3.0</ele>
        <time>2020-08-07T17:23:53Z</time>
      </trkpt>
      <trkpt lat="42.5491260" lon="-8.8948770">
        <ele>3.0</ele>
        <time>2020-08-07T17:23:54Z</time>
      </trkpt>
      <trkpt lat="42.5491260" lon="-8.8948770">
        <ele>3.4</ele>
        <time>2020-08-07T17:23:55Z</time>
      </trkpt>
      <trkpt lat="42.5491490" lon="-8.8948700">
        <ele>3.4</ele>
        <time>2020-08-07T17:23:56Z</time>
      </trkpt>
      <trkpt lat="42.5491490" lon="-8.8948700">
        <ele>3.4</ele>
        <time>2020-08-07T17:23:57Z</time>
      </trkpt>
      <trkpt lat="42.5491710" lon="-8.8948680">
        <ele>3.4</ele>
        <time>2020-08-07T17:23:58Z</time>
      </trkpt>
      <trkpt lat="42.5491710" lon="-8.8948680">
        <ele>3.4</ele>
        <time>2020-08-07T17:23:59Z</time>
      </trkpt>
      <trkpt lat="42.5491940" lon="-8.8948680">
        <ele>3.8</ele>
        <time>2020-08-07T17:24:00Z</time>
      </trkpt>
      <trkpt lat="42.5491940" lon="-8.8948680">
        <ele>4.0</ele>
        <time>2020-08-07T17:24:01Z</time>
      </trkpt>
      <trkpt lat="42.5492160" lon="-8.8948740">
        <ele>4.2</ele>
        <time>2020-08-07T17:24:02Z</time>
      </trkpt>
      <trkpt lat="42.5492160" lon="-8.8948740">
        <ele>4.0</ele>
        <time>2020-08-07T17:24:03Z</time>
      </trkpt>
      <trkpt lat="42.5492450" lon="-8.8948740">
        <ele>4.2</ele>
        <time>2020-08-07T17:24:04Z</time>
      </trkpt>
      <trkpt lat="42.5492450" lon="-8.8948740">
        <ele>4.0</ele>
        <time>2020-08-07T17:24:05Z</time>
      </trkpt>
      <trkpt lat="42.5492670" lon="-8.8948740">
        <ele>3.6</ele>
        <time>2020-08-07T17:24:06Z</time>
      </trkpt>
      <trkpt lat="42.5492670" lon="-8.8948740">
        <ele>3.4</ele>
        <time>2020-08-07T17:24:07Z</time>
      </trkpt>
      <trkpt lat="42.5492930" lon="-8.8948720">
        <ele>3.2</ele>
        <time>2020-08-07T17:24:08Z</time>
      </trkpt>
      <trkpt lat="42.5492930" lon="-8.8948720">
        <ele>3.6</ele>
        <time>2020-08-07T17:24:09Z</time>
      </trkpt>
      <trkpt lat="42.5493120" lon="-8.8948680">
        <ele>3.6</ele>
        <time>2020-08-07T17:24:10Z</time>
      </trkpt>
      <trkpt lat="42.5493120" lon="-8.8948680">
        <ele>3.6</ele>
        <time>2020-08-07T17:24:11Z</time>
      </trkpt>
      <trkpt lat="42.5493340" lon="-8.8948620">
        <ele>3.8</ele>
        <time>2020-08-07T17:24:12Z</time>
      </trkpt>
      <trkpt lat="42.5493340" lon="-8.8948620">
        <ele>4.0</ele>
        <time>2020-08-07T17:24:13Z</time>
      </trkpt>
      <trkpt lat="42.5493630" lon="-8.8948550">
        <ele>3.4</ele>
        <time>2020-08-07T17:24:14Z</time>
      </trkpt>
      <trkpt lat="42.5493630" lon="-8.8948550">
        <ele>3.4</ele>
        <time>2020-08-07T17:24:15Z</time>
      </trkpt>
      <trkpt lat="42.5493860" lon="-8.8948520">
        <ele>3.4</ele>
        <time>2020-08-07T17:24:16Z</time>
      </trkpt>
      <trkpt lat="42.5493860" lon="-8.8948520">
        <ele>3.6</ele>
        <time>2020-08-07T17:24:17Z</time>
      </trkpt>
      <trkpt lat="42.5494080" lon="-8.8948540">
        <ele>3.6</ele>
        <time>2020-08-07T17:24:18Z</time>
      </trkpt>
      <trkpt lat="42.5494080" lon="-8.8948540">
        <ele>3.8</ele>
        <time>2020-08-07T17:24:19Z</time>
      </trkpt>
      <trkpt lat="42.5494300" lon="-8.8948550">
        <ele>3.8</ele>
        <time>2020-08-07T17:24:20Z</time>
      </trkpt>
      <trkpt lat="42.5494300" lon="-8.8948550">
        <ele>4.0</ele>
        <time>2020-08-07T17:24:21Z</time>
      </trkpt>
      <trkpt lat="42.5494500" lon="-8.8948520">
        <ele>4.0</ele>
        <time>2020-08-07T17:24:22Z</time>
      </trkpt>
      <trkpt lat="42.5494500" lon="-8.8948520">
        <ele>3.6</ele>
        <time>2020-08-07T17:24:23Z</time>
      </trkpt>
      <trkpt lat="42.5494690" lon="-8.8948400">
        <ele>4.0</ele>
        <time>2020-08-07T17:24:24Z</time>
      </trkpt>
      <trkpt lat="42.5494690" lon="-8.8948400">
        <ele>4.0</ele>
        <time>2020-08-07T17:24:25Z</time>
      </trkpt>
      <trkpt lat="42.5494910" lon="-8.8948340">
        <ele>4.0</ele>
        <time>2020-08-07T17:24:26Z</time>
      </trkpt>
      <trkpt lat="42.5494910" lon="-8.8948340">
        <ele>3.8</ele>
        <time>2020-08-07T17:24:27Z</time>
      </trkpt>
      <trkpt lat="42.5495070" lon="-8.8948230">
        <ele>3.6</ele>
        <time>2020-08-07T17:24:28Z</time>
      </trkpt>
      <trkpt lat="42.5495070" lon="-8.8948230">
        <ele>4.2</ele>
        <time>2020-08-07T17:24:29Z</time>
      </trkpt>
      <trkpt lat="42.5495300" lon="-8.8948150">
        <ele>4.0</ele>
        <time>2020-08-07T17:24:30Z</time>
      </trkpt>
      <trkpt lat="42.5495300" lon="-8.8948150">
        <ele>3.6</ele>
        <time>2020-08-07T17:24:31Z</time>
      </trkpt>
      <trkpt lat="42.5495520" lon="-8.8948090">
        <ele>3.8</ele>
        <time>2020-08-07T17:24:32Z</time>
      </trkpt>
      <trkpt lat="42.5495520" lon="-8.8948090">
        <ele>3.4</ele>
        <time>2020-08-07T17:24:33Z</time>
      </trkpt>
      <trkpt lat="42.5495740" lon="-8.8948050">
        <ele>3.6</ele>
        <time>2020-08-07T17:24:34Z</time>
      </trkpt>
      <trkpt lat="42.5495740" lon="-8.8948050">
        <ele>3.4</ele>
        <time>2020-08-07T17:24:35Z</time>
      </trkpt>
      <trkpt lat="42.5496000" lon="-8.8948000">
        <ele>3.6</ele>
        <time>2020-08-07T17:24:36Z</time>
      </trkpt>
      <trkpt lat="42.5496000" lon="-8.8948000">
        <ele>3.6</ele>
        <time>2020-08-07T17:24:37Z</time>
      </trkpt>
      <trkpt lat="42.5496190" lon="-8.8947960">
        <ele>3.2</ele>
        <time>2020-08-07T17:24:38Z</time>
      </trkpt>
      <trkpt lat="42.5496190" lon="-8.8947960">
        <ele>3.8</ele>
        <time>2020-08-07T17:24:39Z</time>
      </trkpt>
      <trkpt lat="42.5496380" lon="-8.8947870">
        <ele>4.0</ele>
        <time>2020-08-07T17:24:40Z</time>
      </trkpt>
      <trkpt lat="42.5496380" lon="-8.8947870">
        <ele>4.4</ele>
        <time>2020-08-07T17:24:41Z</time>
      </trkpt>
      <trkpt lat="42.5496540" lon="-8.8947760">
        <ele>4.2</ele>
        <time>2020-08-07T17:24:42Z</time>
      </trkpt>
      <trkpt lat="42.5496540" lon="-8.8947760">
        <ele>4.2</ele>
        <time>2020-08-07T17:24:43Z</time>
      </trkpt>
      <trkpt lat="42.5496740" lon="-8.8947600">
        <ele>4.2</ele>
        <time>2020-08-07T17:24:44Z</time>
      </trkpt>
      <trkpt lat="42.5496740" lon="-8.8947600">
        <ele>3.8</ele>
        <time>2020-08-07T17:24:45Z</time>
      </trkpt>
      <trkpt lat="42.5497020" lon="-8.8947430">
        <ele>4.0</ele>
        <time>2020-08-07T17:24:46Z</time>
      </trkpt>
      <trkpt lat="42.5497020" lon="-8.8947430">
        <ele>3.8</ele>
        <time>2020-08-07T17:24:47Z</time>
      </trkpt>
      <trkpt lat="42.5497220" lon="-8.8947230">
        <ele>3.8</ele>
        <time>2020-08-07T17:24:48Z</time>
      </trkpt>
      <trkpt lat="42.5497220" lon="-8.8947230">
        <ele>4.0</ele>
        <time>2020-08-07T17:24:49Z</time>
      </trkpt>
      <trkpt lat="42.5497410" lon="-8.8947090">
        <ele>4.2</ele>
        <time>2020-08-07T17:24:50Z</time>
      </trkpt>
      <trkpt lat="42.5497410" lon="-8.8947090">
        <ele>4.4</ele>
        <time>2020-08-07T17:24:51Z</time>
      </trkpt>
      <trkpt lat="42.5497540" lon="-8.8946900">
        <ele>4.2</ele>
        <time>2020-08-07T17:24:52Z</time>
      </trkpt>
      <trkpt lat="42.5497540" lon="-8.8946900">
        <ele>4.4</ele>
        <time>2020-08-07T17:24:53Z</time>
      </trkpt>
      <trkpt lat="42.5497700" lon="-8.8946660">
        <ele>4.6</ele>
        <time>2020-08-07T17:24:54Z</time>
      </trkpt>
      <trkpt lat="42.5497700" lon="-8.8946660">
        <ele>4.6</ele>
        <time>2020-08-07T17:24:55Z</time>
      </trkpt>
      <trkpt lat="42.5497920" lon="-8.8946460">
        <ele>4.4</ele>
        <time>2020-08-07T17:24:56Z</time>
      </trkpt>
      <trkpt lat="42.5497920" lon="-8.8946460">
        <ele>4.0</ele>
        <time>2020-08-07T17:24:57Z</time>
      </trkpt>
      <trkpt lat="42.5498080" lon="-8.8946300">
        <ele>4.0</ele>
        <time>2020-08-07T17:24:58Z</time>
      </trkpt>
      <trkpt lat="42.5498080" lon="-8.8946300">
        <ele>4.0</ele>
        <time>2020-08-07T17:24:59Z</time>
      </trkpt>
      <trkpt lat="42.5498240" lon="-8.8946140">
        <ele>3.8</ele>
        <time>2020-08-07T17:25:00Z</time>
      </trkpt>
      <trkpt lat="42.5498240" lon="-8.8946140">
        <ele>4.0</ele>
        <time>2020-08-07T17:25:01Z</time>
      </trkpt>
      <trkpt lat="42.5498430" lon="-8.8946050">
        <ele>4.0</ele>
        <time>2020-08-07T17:25:02Z</time>
      </trkpt>
      <trkpt lat="42.5498430" lon="-8.8946050">
        <ele>3.8</ele>
        <time>2020-08-07T17:25:03Z</time>
      </trkpt>
      <trkpt lat="42.5498620" lon="-8.8945950">
        <ele>3.8</ele>
        <time>2020-08-07T17:25:04Z</time>
      </trkpt>
      <trkpt lat="42.5498620" lon="-8.8945950">
        <ele>3.6</ele>
        <time>2020-08-07T17:25:05Z</time>
      </trkpt>
      <trkpt lat="42.5498820" lon="-8.8945860">
        <ele>3.8</ele>
        <time>2020-08-07T17:25:06Z</time>
      </trkpt>
      <trkpt lat="42.5498820" lon="-8.8945860">
        <ele>4.0</ele>
        <time>2020-08-07T17:25:07Z</time>
      </trkpt>
      <trkpt lat="42.5498820" lon="-8.8945860">
        <ele>4.0</ele>
        <time>2020-08-07T17:25:08Z</time>
      </trkpt>
      <trkpt lat="42.5499070" lon="-8.8945740">
        <ele>4.0</ele>
        <time>2020-08-07T17:25:09Z</time>
      </trkpt>
      <trkpt lat="42.5499070" lon="-8.8945740">
        <ele>4.2</ele>
        <time>2020-08-07T17:25:10Z</time>
      </trkpt>
      <trkpt lat="42.5499070" lon="-8.8945740">
        <ele>4.2</ele>
        <time>2020-08-07T17:25:11Z</time>
      </trkpt>
      <trkpt lat="42.5499300" lon="-8.8945580">
        <ele>3.8</ele>
        <time>2020-08-07T17:25:12Z</time>
      </trkpt>
      <trkpt lat="42.5499300" lon="-8.8945580">
        <ele>3.6</ele>
        <time>2020-08-07T17:25:13Z</time>
      </trkpt>
      <trkpt lat="42.5499460" lon="-8.8945460">
        <ele>3.6</ele>
        <time>2020-08-07T17:25:14Z</time>
      </trkpt>
      <trkpt lat="42.5499460" lon="-8.8945460">
        <ele>3.8</ele>
        <time>2020-08-07T17:25:15Z</time>
      </trkpt>
      <trkpt lat="42.5499460" lon="-8.8945460">
        <ele>4.0</ele>
        <time>2020-08-07T17:25:16Z</time>
      </trkpt>
      <trkpt lat="42.5499650" lon="-8.8945300">
        <ele>4.2</ele>
        <time>2020-08-07T17:25:17Z</time>
      </trkpt>
      <trkpt lat="42.5499650" lon="-8.8945300">
        <ele>4.0</ele>
        <time>2020-08-07T17:25:18Z</time>
      </trkpt>
      <trkpt lat="42.5499810" lon="-8.8945130">
        <ele>4.0</ele>
        <time>2020-08-07T17:25:19Z</time>
      </trkpt>
      <trkpt lat="42.5499810" lon="-8.8945130">
        <ele>4.0</ele>
        <time>2020-08-07T17:25:20Z</time>
      </trkpt>
      <trkpt lat="42.5500000" lon="-8.8945050">
        <ele>4.0</ele>
        <time>2020-08-07T17:25:21Z</time>
      </trkpt>
      <trkpt lat="42.5500000" lon="-8.8945050">
        <ele>3.8</ele>
        <time>2020-08-07T17:25:22Z</time>
      </trkpt>
      <trkpt lat="42.5500190" lon="-8.8944990">
        <ele>3.6</ele>
        <time>2020-08-07T17:25:23Z</time>
      </trkpt>
      <trkpt lat="42.5500190" lon="-8.8944990">
        <ele>3.4</ele>
        <time>2020-08-07T17:25:24Z</time>
      </trkpt>
      <trkpt lat="42.5500420" lon="-8.8944900">
        <ele>3.2</ele>
        <time>2020-08-07T17:25:25Z</time>
      </trkpt>
      <trkpt lat="42.5500420" lon="-8.8944900">
        <ele>3.0</ele>
        <time>2020-08-07T17:25:26Z</time>
      </trkpt>
      <trkpt lat="42.5500610" lon="-8.8944800">
        <ele>2.8</ele>
        <time>2020-08-07T17:25:27Z</time>
      </trkpt>
      <trkpt lat="42.5500610" lon="-8.8944800">
        <ele>2.8</ele>
        <time>2020-08-07T17:25:28Z</time>
      </trkpt>
      <trkpt lat="42.5500800" lon="-8.8944660">
        <ele>2.6</ele>
        <time>2020-08-07T17:25:29Z</time>
      </trkpt>
      <trkpt lat="42.5500800" lon="-8.8944660">
        <ele>2.0</ele>
        <time>2020-08-07T17:25:30Z</time>
      </trkpt>
      <trkpt lat="42.5501020" lon="-8.8944550">
        <ele>1.6</ele>
        <time>2020-08-07T17:25:31Z</time>
      </trkpt>
      <trkpt lat="42.5501020" lon="-8.8944550">
        <ele>1.4</ele>
        <time>2020-08-07T17:25:32Z</time>
      </trkpt>
      <trkpt lat="42.5501220" lon="-8.8944400">
        <ele>1.8</ele>
        <time>2020-08-07T17:25:33Z</time>
      </trkpt>
      <trkpt lat="42.5501220" lon="-8.8944400">
        <ele>1.4</ele>
        <time>2020-08-07T17:25:34Z</time>
      </trkpt>
      <trkpt lat="42.5501440" lon="-8.8944260">
        <ele>1.4</ele>
        <time>2020-08-07T17:25:35Z</time>
      </trkpt>
      <trkpt lat="42.5501440" lon="-8.8944260">
        <ele>1.4</ele>
        <time>2020-08-07T17:25:36Z</time>
      </trkpt>
      <trkpt lat="42.5501630" lon="-8.8944080">
        <ele>1.0</ele>
        <time>2020-08-07T17:25:37Z</time>
      </trkpt>
      <trkpt lat="42.5501630" lon="-8.8944080">
        <ele>0.8</ele>
        <time>2020-08-07T17:25:38Z</time>
      </trkpt>
      <trkpt lat="42.5501790" lon="-8.8943930">
        <ele>0.8</ele>
        <time>2020-08-07T17:25:39Z</time>
      </trkpt>
      <trkpt lat="42.5501790" lon="-8.8943930">
        <ele>0.6</ele>
        <time>2020-08-07T17:25:40Z</time>
      </trkpt>
      <trkpt lat="42.5501980" lon="-8.8943770">
        <ele>0.6</ele>
        <time>2020-08-07T17:25:41Z</time>
      </trkpt>
      <trkpt lat="42.5501980" lon="-8.8943770">
        <ele>0.6</ele>
        <time>2020-08-07T17:25:42Z</time>
      </trkpt>
      <trkpt lat="42.5502180" lon="-8.8943660">
        <ele>1.0</ele>
        <time>2020-08-07T17:25:43Z</time>
      </trkpt>
      <trkpt lat="42.5502180" lon="-8.8943660">
        <ele>1.2</ele>
        <time>2020-08-07T17:25:44Z</time>
      </trkpt>
      <trkpt lat="42.5502370" lon="-8.8943620">
        <ele>1.4</ele>
        <time>2020-08-07T17:25:45Z</time>
      </trkpt>
      <trkpt lat="42.5502370" lon="-8.8943620">
        <ele>1.2</ele>
        <time>2020-08-07T17:25:46Z</time>
      </trkpt>
      <trkpt lat="42.5502590" lon="-8.8943480">
        <ele>1.4</ele>
        <time>2020-08-07T17:25:47Z</time>
      </trkpt>
      <trkpt lat="42.5502590" lon="-8.8943480">
        <ele>1.4</ele>
        <time>2020-08-07T17:25:48Z</time>
      </trkpt>
      <trkpt lat="42.5502780" lon="-8.8943370">
        <ele>1.4</ele>
        <time>2020-08-07T17:25:49Z</time>
      </trkpt>
      <trkpt lat="42.5502780" lon="-8.8943370">
        <ele>1.6</ele>
        <time>2020-08-07T17:25:50Z</time>
      </trkpt>
      <trkpt lat="42.5502980" lon="-8.8943220">
        <ele>1.8</ele>
        <time>2020-08-07T17:25:51Z</time>
      </trkpt>
      <trkpt lat="42.5502980" lon="-8.8943220">
        <ele>1.8</ele>
        <time>2020-08-07T17:25:52Z</time>
      </trkpt>
      <trkpt lat="42.5503170" lon="-8.8943100">
        <ele>2.0</ele>
        <time>2020-08-07T17:25:53Z</time>
      </trkpt>
      <trkpt lat="42.5503170" lon="-8.8943100">
        <ele>2.0</ele>
        <time>2020-08-07T17:25:54Z</time>
      </trkpt>
      <trkpt lat="42.5503360" lon="-8.8942930">
        <ele>2.0</ele>
        <time>2020-08-07T17:25:55Z</time>
      </trkpt>
      <trkpt lat="42.5503360" lon="-8.8942930">
        <ele>2.2</ele>
        <time>2020-08-07T17:25:56Z</time>
      </trkpt>
      <trkpt lat="42.5503550" lon="-8.8942820">
        <ele>2.4</ele>
        <time>2020-08-07T17:25:57Z</time>
      </trkpt>
      <trkpt lat="42.5503550" lon="-8.8942820">
        <ele>3.0</ele>
        <time>2020-08-07T17:25:58Z</time>
      </trkpt>
      <trkpt lat="42.5503740" lon="-8.8942740">
        <ele>3.6</ele>
        <time>2020-08-07T17:25:59Z</time>
      </trkpt>
      <trkpt lat="42.5503740" lon="-8.8942740">
        <ele>3.8</ele>
        <time>2020-08-07T17:26:00Z</time>
      </trkpt>
      <trkpt lat="42.5503940" lon="-8.8942610">
        <ele>3.8</ele>
        <time>2020-08-07T17:26:01Z</time>
      </trkpt>
      <trkpt lat="42.5503940" lon="-8.8942610">
        <ele>3.8</ele>
        <time>2020-08-07T17:26:02Z</time>
      </trkpt>
      <trkpt lat="42.5504160" lon="-8.8942450">
        <ele>3.8</ele>
        <time>2020-08-07T17:26:03Z</time>
      </trkpt>
      <trkpt lat="42.5504160" lon="-8.8942450">
        <ele>3.6</ele>
        <time>2020-08-07T17:26:04Z</time>
      </trkpt>
      <trkpt lat="42.5504350" lon="-8.8942300">
        <ele>3.6</ele>
        <time>2020-08-07T17:26:05Z</time>
      </trkpt>
      <trkpt lat="42.5504350" lon="-8.8942300">
        <ele>3.4</ele>
        <time>2020-08-07T17:26:06Z</time>
      </trkpt>
      <trkpt lat="42.5504580" lon="-8.8942200">
        <ele>3.4</ele>
        <time>2020-08-07T17:26:07Z</time>
      </trkpt>
      <trkpt lat="42.5504580" lon="-8.8942200">
        <ele>3.4</ele>
        <time>2020-08-07T17:26:08Z</time>
      </trkpt>
      <trkpt lat="42.5504800" lon="-8.8942100">
        <ele>3.6</ele>
        <time>2020-08-07T17:26:09Z</time>
      </trkpt>
      <trkpt lat="42.5504800" lon="-8.8942100">
        <ele>3.4</ele>
        <time>2020-08-07T17:26:10Z</time>
      </trkpt>
      <trkpt lat="42.5505020" lon="-8.8941970">
        <ele>3.4</ele>
        <time>2020-08-07T17:26:11Z</time>
      </trkpt>
      <trkpt lat="42.5505020" lon="-8.8941970">
        <ele>3.6</ele>
        <time>2020-08-07T17:26:12Z</time>
      </trkpt>
      <trkpt lat="42.5505250" lon="-8.8941920">
        <ele>3.4</ele>
        <time>2020-08-07T17:26:13Z</time>
      </trkpt>
      <trkpt lat="42.5505250" lon="-8.8941920">
        <ele>3.4</ele>
        <time>2020-08-07T17:26:14Z</time>
      </trkpt>
      <trkpt lat="42.5505440" lon="-8.8941850">
        <ele>3.2</ele>
        <time>2020-08-07T17:26:15Z</time>
      </trkpt>
      <trkpt lat="42.5505440" lon="-8.8941850">
        <ele>3.4</ele>
        <time>2020-08-07T17:26:16Z</time>
      </trkpt>
      <trkpt lat="42.5505730" lon="-8.8941800">
        <ele>3.0</ele>
        <time>2020-08-07T17:26:17Z</time>
      </trkpt>
      <trkpt lat="42.5505730" lon="-8.8941800">
        <ele>3.2</ele>
        <time>2020-08-07T17:26:18Z</time>
      </trkpt>
      <trkpt lat="42.5505950" lon="-8.8941780">
        <ele>3.2</ele>
        <time>2020-08-07T17:26:19Z</time>
      </trkpt>
      <trkpt lat="42.5505950" lon="-8.8941780">
        <ele>3.4</ele>
        <time>2020-08-07T17:26:20Z</time>
      </trkpt>
      <trkpt lat="42.5506210" lon="-8.8941720">
        <ele>3.4</ele>
        <time>2020-08-07T17:26:21Z</time>
      </trkpt>
      <trkpt lat="42.5506210" lon="-8.8941720">
        <ele>3.6</ele>
        <time>2020-08-07T17:26:22Z</time>
      </trkpt>
      <trkpt lat="42.5506430" lon="-8.8941620">
        <ele>3.4</ele>
        <time>2020-08-07T17:26:23Z</time>
      </trkpt>
      <trkpt lat="42.5506430" lon="-8.8941620">
        <ele>3.2</ele>
        <time>2020-08-07T17:26:24Z</time>
      </trkpt>
      <trkpt lat="42.5506660" lon="-8.8941540">
        <ele>3.4</ele>
        <time>2020-08-07T17:26:25Z</time>
      </trkpt>
      <trkpt lat="42.5506660" lon="-8.8941540">
        <ele>3.4</ele>
        <time>2020-08-07T17:26:26Z</time>
      </trkpt>
      <trkpt lat="42.5506940" lon="-8.8941430">
        <ele>3.0</ele>
        <time>2020-08-07T17:26:27Z</time>
      </trkpt>
      <trkpt lat="42.5506940" lon="-8.8941430">
        <ele>3.2</ele>
        <time>2020-08-07T17:26:28Z</time>
      </trkpt>
      <trkpt lat="42.5507200" lon="-8.8941370">
        <ele>3.0</ele>
        <time>2020-08-07T17:26:29Z</time>
      </trkpt>
      <trkpt lat="42.5507200" lon="-8.8941370">
        <ele>3.0</ele>
        <time>2020-08-07T17:26:30Z</time>
      </trkpt>
      <trkpt lat="42.5507420" lon="-8.8941290">
        <ele>2.8</ele>
        <time>2020-08-07T17:26:31Z</time>
      </trkpt>
      <trkpt lat="42.5507420" lon="-8.8941290">
        <ele>2.8</ele>
        <time>2020-08-07T17:26:32Z</time>
      </trkpt>
      <trkpt lat="42.5507650" lon="-8.8941250">
        <ele>3.2</ele>
        <time>2020-08-07T17:26:33Z</time>
      </trkpt>
      <trkpt lat="42.5507650" lon="-8.8941250">
        <ele>3.6</ele>
        <time>2020-08-07T17:26:34Z</time>
      </trkpt>
      <trkpt lat="42.5507840" lon="-8.8941210">
        <ele>4.0</ele>
        <time>2020-08-07T17:26:35Z</time>
      </trkpt>
      <trkpt lat="42.5507840" lon="-8.8941210">
        <ele>4.2</ele>
        <time>2020-08-07T17:26:36Z</time>
      </trkpt>
      <trkpt lat="42.5508030" lon="-8.8941140">
        <ele>4.6</ele>
        <time>2020-08-07T17:26:37Z</time>
      </trkpt>
      <trkpt lat="42.5508030" lon="-8.8941140">
        <ele>4.8</ele>
        <time>2020-08-07T17:26:38Z</time>
      </trkpt>
      <trkpt lat="42.5508260" lon="-8.8941070">
        <ele>4.8</ele>
        <time>2020-08-07T17:26:39Z</time>
      </trkpt>
      <trkpt lat="42.5508260" lon="-8.8941070">
        <ele>4.8</ele>
        <time>2020-08-07T17:26:40Z</time>
      </trkpt>
      <trkpt lat="42.5508510" lon="-8.8940980">
        <ele>4.6</ele>
        <time>2020-08-07T17:26:41Z</time>
      </trkpt>
      <trkpt lat="42.5508510" lon="-8.8940980">
        <ele>4.6</ele>
        <time>2020-08-07T17:26:42Z</time>
      </trkpt>
      <trkpt lat="42.5508770" lon="-8.8940920">
        <ele>4.2</ele>
        <time>2020-08-07T17:26:43Z</time>
      </trkpt>
      <trkpt lat="42.5508770" lon="-8.8940920">
        <ele>4.4</ele>
        <time>2020-08-07T17:26:44Z</time>
      </trkpt>
      <trkpt lat="42.5508990" lon="-8.8940850">
        <ele>4.2</ele>
        <time>2020-08-07T17:26:45Z</time>
      </trkpt>
      <trkpt lat="42.5508990" lon="-8.8940850">
        <ele>4.0</ele>
        <time>2020-08-07T17:26:46Z</time>
      </trkpt>
      <trkpt lat="42.5509220" lon="-8.8940800">
        <ele>4.0</ele>
        <time>2020-08-07T17:26:47Z</time>
      </trkpt>
      <trkpt lat="42.5509220" lon="-8.8940800">
        <ele>3.8</ele>
        <time>2020-08-07T17:26:48Z</time>
      </trkpt>
      <trkpt lat="42.5509540" lon="-8.8940750">
        <ele>3.8</ele>
        <time>2020-08-07T17:26:49Z</time>
      </trkpt>
      <trkpt lat="42.5509540" lon="-8.8940750">
        <ele>3.6</ele>
        <time>2020-08-07T17:26:50Z</time>
      </trkpt>
      <trkpt lat="42.5509760" lon="-8.8940700">
        <ele>3.8</ele>
        <time>2020-08-07T17:26:51Z</time>
      </trkpt>
      <trkpt lat="42.5509760" lon="-8.8940700">
        <ele>3.8</ele>
        <time>2020-08-07T17:26:52Z</time>
      </trkpt>
      <trkpt lat="42.5510020" lon="-8.8940650">
        <ele>4.0</ele>
        <time>2020-08-07T17:26:53Z</time>
      </trkpt>
      <trkpt lat="42.5510020" lon="-8.8940650">
        <ele>3.8</ele>
        <time>2020-08-07T17:26:54Z</time>
      </trkpt>
      <trkpt lat="42.5510240" lon="-8.8940550">
        <ele>3.8</ele>
        <time>2020-08-07T17:26:55Z</time>
      </trkpt>
      <trkpt lat="42.5510240" lon="-8.8940550">
        <ele>3.8</ele>
        <time>2020-08-07T17:26:56Z</time>
      </trkpt>
      <trkpt lat="42.5510500" lon="-8.8940430">
        <ele>3.4</ele>
        <time>2020-08-07T17:26:57Z</time>
      </trkpt>
      <trkpt lat="42.5510500" lon="-8.8940430">
        <ele>3.4</ele>
        <time>2020-08-07T17:26:58Z</time>
      </trkpt>
      <trkpt lat="42.5510690" lon="-8.8940300">
        <ele>3.2</ele>
        <time>2020-08-07T17:26:59Z</time>
      </trkpt>
      <trkpt lat="42.5510690" lon="-8.8940300">
        <ele>3.2</ele>
        <time>2020-08-07T17:27:00Z</time>
      </trkpt>
      <trkpt lat="42.5510910" lon="-8.8940200">
        <ele>3.4</ele>
        <time>2020-08-07T17:27:01Z</time>
      </trkpt>
      <trkpt lat="42.5510910" lon="-8.8940200">
        <ele>3.2</ele>
        <time>2020-08-07T17:27:02Z</time>
      </trkpt>
      <trkpt lat="42.5511140" lon="-8.8940100">
        <ele>3.8</ele>
        <time>2020-08-07T17:27:03Z</time>
      </trkpt>
      <trkpt lat="42.5511140" lon="-8.8940100">
        <ele>4.2</ele>
        <time>2020-08-07T17:27:04Z</time>
      </trkpt>
      <trkpt lat="42.5511360" lon="-8.8940020">
        <ele>4.4</ele>
        <time>2020-08-07T17:27:05Z</time>
      </trkpt>
      <trkpt lat="42.5511360" lon="-8.8940020">
        <ele>4.4</ele>
        <time>2020-08-07T17:27:06Z</time>
      </trkpt>
      <trkpt lat="42.5511550" lon="-8.8939890">
        <ele>4.2</ele>
        <time>2020-08-07T17:27:07Z</time>
      </trkpt>
      <trkpt lat="42.5511550" lon="-8.8939890">
        <ele>4.6</ele>
        <time>2020-08-07T17:27:08Z</time>
      </trkpt>
      <trkpt lat="42.5511740" lon="-8.8939710">
        <ele>4.6</ele>
        <time>2020-08-07T17:27:09Z</time>
      </trkpt>
      <trkpt lat="42.5511740" lon="-8.8939710">
        <ele>4.8</ele>
        <time>2020-08-07T17:27:10Z</time>
      </trkpt>
      <trkpt lat="42.5511940" lon="-8.8939540">
        <ele>5.0</ele>
        <time>2020-08-07T17:27:11Z</time>
      </trkpt>
      <trkpt lat="42.5511940" lon="-8.8939540">
        <ele>4.8</ele>
        <time>2020-08-07T17:27:12Z</time>
      </trkpt>
      <trkpt lat="42.5512100" lon="-8.8939290">
        <ele>5.4</ele>
        <time>2020-08-07T17:27:13Z</time>
      </trkpt>
      <trkpt lat="42.5512100" lon="-8.8939290">
        <ele>5.6</ele>
        <time>2020-08-07T17:27:14Z</time>
      </trkpt>
      <trkpt lat="42.5512290" lon="-8.8939020">
        <ele>5.6</ele>
        <time>2020-08-07T17:27:15Z</time>
      </trkpt>
      <trkpt lat="42.5512290" lon="-8.8939020">
        <ele>6.0</ele>
        <time>2020-08-07T17:27:16Z</time>
      </trkpt>
      <trkpt lat="42.5512420" lon="-8.8938750">
        <ele>5.8</ele>
        <time>2020-08-07T17:27:17Z</time>
      </trkpt>
      <trkpt lat="42.5512420" lon="-8.8938750">
        <ele>5.6</ele>
        <time>2020-08-07T17:27:18Z</time>
      </trkpt>
      <trkpt lat="42.5512610" lon="-8.8938570">
        <ele>6.0</ele>
        <time>2020-08-07T17:27:19Z</time>
      </trkpt>
      <trkpt lat="42.5512610" lon="-8.8938570">
        <ele>5.8</ele>
        <time>2020-08-07T17:27:20Z</time>
      </trkpt>
      <trkpt lat="42.5512830" lon="-8.8938420">
        <ele>5.8</ele>
        <time>2020-08-07T17:27:21Z</time>
      </trkpt>
      <trkpt lat="42.5512830" lon="-8.8938420">
        <ele>5.6</ele>
        <time>2020-08-07T17:27:22Z</time>
      </trkpt>
      <trkpt lat="42.5513020" lon="-8.8938330">
        <ele>5.4</ele>
        <time>2020-08-07T17:27:23Z</time>
      </trkpt>
      <trkpt lat="42.5513020" lon="-8.8938330">
        <ele>5.4</ele>
        <time>2020-08-07T17:27:24Z</time>
      </trkpt>
      <trkpt lat="42.5513280" lon="-8.8938330">
        <ele>5.6</ele>
        <time>2020-08-07T17:27:25Z</time>
      </trkpt>
      <trkpt lat="42.5513280" lon="-8.8938330">
        <ele>5.2</ele>
        <time>2020-08-07T17:27:26Z</time>
      </trkpt>
      <trkpt lat="42.5513500" lon="-8.8938310">
        <ele>5.4</ele>
        <time>2020-08-07T17:27:27Z</time>
      </trkpt>
      <trkpt lat="42.5513500" lon="-8.8938310">
        <ele>5.2</ele>
        <time>2020-08-07T17:27:28Z</time>
      </trkpt>
      <trkpt lat="42.5513760" lon="-8.8938300">
        <ele>5.2</ele>
        <time>2020-08-07T17:27:29Z</time>
      </trkpt>
      <trkpt lat="42.5513760" lon="-8.8938300">
        <ele>5.2</ele>
        <time>2020-08-07T17:27:30Z</time>
      </trkpt>
      <trkpt lat="42.5513980" lon="-8.8938300">
        <ele>5.0</ele>
        <time>2020-08-07T17:27:31Z</time>
      </trkpt>
      <trkpt lat="42.5513980" lon="-8.8938300">
        <ele>4.8</ele>
        <time>2020-08-07T17:27:32Z</time>
      </trkpt>
      <trkpt lat="42.5514210" lon="-8.8938260">
        <ele>4.6</ele>
        <time>2020-08-07T17:27:33Z</time>
      </trkpt>
      <trkpt lat="42.5514210" lon="-8.8938260">
        <ele>4.4</ele>
        <time>2020-08-07T17:27:34Z</time>
      </trkpt>
      <trkpt lat="42.5514460" lon="-8.8938250">
        <ele>4.4</ele>
        <time>2020-08-07T17:27:35Z</time>
      </trkpt>
      <trkpt lat="42.5514460" lon="-8.8938250">
        <ele>4.4</ele>
        <time>2020-08-07T17:27:36Z</time>
      </trkpt>
      <trkpt lat="42.5514460" lon="-8.8938250">
        <ele>4.2</ele>
        <time>2020-08-07T17:27:37Z</time>
      </trkpt>
      <trkpt lat="42.5514720" lon="-8.8938250">
        <ele>4.6</ele>
        <time>2020-08-07T17:27:38Z</time>
      </trkpt>
      <trkpt lat="42.5514720" lon="-8.8938250">
        <ele>4.6</ele>
        <time>2020-08-07T17:27:39Z</time>
      </trkpt>
      <trkpt lat="42.5514940" lon="-8.8938220">
        <ele>4.6</ele>
        <time>2020-08-07T17:27:40Z</time>
      </trkpt>
      <trkpt lat="42.5514940" lon="-8.8938220">
        <ele>4.6</ele>
        <time>2020-08-07T17:27:41Z</time>
      </trkpt>
      <trkpt lat="42.5515140" lon="-8.8938180">
        <ele>4.4</ele>
        <time>2020-08-07T17:27:42Z</time>
      </trkpt>
      <trkpt lat="42.5515140" lon="-8.8938180">
        <ele>4.6</ele>
        <time>2020-08-07T17:27:43Z</time>
      </trkpt>
      <trkpt lat="42.5515360" lon="-8.8938170">
        <ele>4.6</ele>
        <time>2020-08-07T17:27:44Z</time>
      </trkpt>
      <trkpt lat="42.5515360" lon="-8.8938170">
        <ele>4.4</ele>
        <time>2020-08-07T17:27:45Z</time>
      </trkpt>
      <trkpt lat="42.5515650" lon="-8.8938200">
        <ele>4.4</ele>
        <time>2020-08-07T17:27:46Z</time>
      </trkpt>
      <trkpt lat="42.5515650" lon="-8.8938200">
        <ele>4.4</ele>
        <time>2020-08-07T17:27:47Z</time>
      </trkpt>
      <trkpt lat="42.5515870" lon="-8.8938220">
        <ele>4.4</ele>
        <time>2020-08-07T17:27:48Z</time>
      </trkpt>
      <trkpt lat="42.5515870" lon="-8.8938220">
        <ele>4.8</ele>
        <time>2020-08-07T17:27:49Z</time>
      </trkpt>
      <trkpt lat="42.5516100" lon="-8.8938220">
        <ele>4.4</ele>
        <time>2020-08-07T17:27:50Z</time>
      </trkpt>
      <trkpt lat="42.5516100" lon="-8.8938220">
        <ele>4.8</ele>
        <time>2020-08-07T17:27:51Z</time>
      </trkpt>
      <trkpt lat="42.5516320" lon="-8.8938220">
        <ele>4.8</ele>
        <time>2020-08-07T17:27:52Z</time>
      </trkpt>
      <trkpt lat="42.5516320" lon="-8.8938220">
        <ele>5.0</ele>
        <time>2020-08-07T17:27:53Z</time>
      </trkpt>
      <trkpt lat="42.5516580" lon="-8.8938130">
        <ele>4.6</ele>
        <time>2020-08-07T17:27:54Z</time>
      </trkpt>
      <trkpt lat="42.5516580" lon="-8.8938130">
        <ele>4.6</ele>
        <time>2020-08-07T17:27:55Z</time>
      </trkpt>
      <trkpt lat="42.5516800" lon="-8.8938050">
        <ele>4.6</ele>
        <time>2020-08-07T17:27:56Z</time>
      </trkpt>
      <trkpt lat="42.5516800" lon="-8.8938050">
        <ele>4.0</ele>
        <time>2020-08-07T17:27:57Z</time>
      </trkpt>
      <trkpt lat="42.5517090" lon="-8.8937930">
        <ele>3.8</ele>
        <time>2020-08-07T17:27:58Z</time>
      </trkpt>
      <trkpt lat="42.5517090" lon="-8.8937930">
        <ele>3.4</ele>
        <time>2020-08-07T17:27:59Z</time>
      </trkpt>
      <trkpt lat="42.5517340" lon="-8.8937800">
        <ele>3.2</ele>
        <time>2020-08-07T17:28:00Z</time>
      </trkpt>
      <trkpt lat="42.5517340" lon="-8.8937800">
        <ele>3.0</ele>
        <time>2020-08-07T17:28:01Z</time>
      </trkpt>
      <trkpt lat="42.5517630" lon="-8.8937720">
        <ele>3.0</ele>
        <time>2020-08-07T17:28:02Z</time>
      </trkpt>
      <trkpt lat="42.5517630" lon="-8.8937720">
        <ele>3.2</ele>
        <time>2020-08-07T17:28:03Z</time>
      </trkpt>
      <trkpt lat="42.5517920" lon="-8.8937660">
        <ele>3.2</ele>
        <time>2020-08-07T17:28:04Z</time>
      </trkpt>
      <trkpt lat="42.5517920" lon="-8.8937660">
        <ele>2.8</ele>
        <time>2020-08-07T17:28:05Z</time>
      </trkpt>
      <trkpt lat="42.5518240" lon="-8.8937660">
        <ele>2.8</ele>
        <time>2020-08-07T17:28:06Z</time>
      </trkpt>
      <trkpt lat="42.5518240" lon="-8.8937660">
        <ele>2.8</ele>
        <time>2020-08-07T17:28:07Z</time>
      </trkpt>
      <trkpt lat="42.5518460" lon="-8.8937620">
        <ele>3.0</ele>
        <time>2020-08-07T17:28:08Z</time>
      </trkpt>
      <trkpt lat="42.5518460" lon="-8.8937620">
        <ele>2.8</ele>
        <time>2020-08-07T17:28:09Z</time>
      </trkpt>
      <trkpt lat="42.5518690" lon="-8.8937580">
        <ele>3.0</ele>
        <time>2020-08-07T17:28:10Z</time>
      </trkpt>
      <trkpt lat="42.5518690" lon="-8.8937580">
        <ele>2.6</ele>
        <time>2020-08-07T17:28:11Z</time>
      </trkpt>
      <trkpt lat="42.5518940" lon="-8.8937520">
        <ele>2.8</ele>
        <time>2020-08-07T17:28:12Z</time>
      </trkpt>
      <trkpt lat="42.5518940" lon="-8.8937520">
        <ele>2.8</ele>
        <time>2020-08-07T17:28:13Z</time>
      </trkpt>
      <trkpt lat="42.5519230" lon="-8.8937460">
        <ele>3.2</ele>
        <time>2020-08-07T17:28:14Z</time>
      </trkpt>
      <trkpt lat="42.5519230" lon="-8.8937460">
        <ele>2.8</ele>
        <time>2020-08-07T17:28:15Z</time>
      </trkpt>
      <trkpt lat="42.5519490" lon="-8.8937380">
        <ele>3.0</ele>
        <time>2020-08-07T17:28:16Z</time>
      </trkpt>
      <trkpt lat="42.5519490" lon="-8.8937380">
        <ele>2.6</ele>
        <time>2020-08-07T17:28:17Z</time>
      </trkpt>
      <trkpt lat="42.5519710" lon="-8.8937320">
        <ele>2.4</ele>
        <time>2020-08-07T17:28:18Z</time>
      </trkpt>
      <trkpt lat="42.5519710" lon="-8.8937320">
        <ele>2.6</ele>
        <time>2020-08-07T17:28:19Z</time>
      </trkpt>
      <trkpt lat="42.5519940" lon="-8.8937230">
        <ele>2.6</ele>
        <time>2020-08-07T17:28:20Z</time>
      </trkpt>
      <trkpt lat="42.5519940" lon="-8.8937230">
        <ele>2.8</ele>
        <time>2020-08-07T17:28:21Z</time>
      </trkpt>
      <trkpt lat="42.5520130" lon="-8.8937150">
        <ele>3.0</ele>
        <time>2020-08-07T17:28:22Z</time>
      </trkpt>
      <trkpt lat="42.5520130" lon="-8.8937150">
        <ele>2.8</ele>
        <time>2020-08-07T17:28:23Z</time>
      </trkpt>
      <trkpt lat="42.5520350" lon="-8.8937100">
        <ele>2.6</ele>
        <time>2020-08-07T17:28:24Z</time>
      </trkpt>
      <trkpt lat="42.5520350" lon="-8.8937100">
        <ele>2.6</ele>
        <time>2020-08-07T17:28:25Z</time>
      </trkpt>
      <trkpt lat="42.5520580" lon="-8.8937030">
        <ele>2.4</ele>
        <time>2020-08-07T17:28:26Z</time>
      </trkpt>
      <trkpt lat="42.5520580" lon="-8.8937030">
        <ele>2.4</ele>
        <time>2020-08-07T17:28:27Z</time>
      </trkpt>
      <trkpt lat="42.5520830" lon="-8.8937020">
        <ele>2.0</ele>
        <time>2020-08-07T17:28:28Z</time>
      </trkpt>
      <trkpt lat="42.5520830" lon="-8.8937020">
        <ele>2.4</ele>
        <time>2020-08-07T17:28:29Z</time>
      </trkpt>
      <trkpt lat="42.5521060" lon="-8.8937030">
        <ele>1.8</ele>
        <time>2020-08-07T17:28:30Z</time>
      </trkpt>
      <trkpt lat="42.5521060" lon="-8.8937030">
        <ele>2.2</ele>
        <time>2020-08-07T17:28:31Z</time>
      </trkpt>
      <trkpt lat="42.5521060" lon="-8.8937030">
        <ele>2.2</ele>
        <time>2020-08-07T17:28:32Z</time>
      </trkpt>
      <trkpt lat="42.5521310" lon="-8.8936970">
        <ele>2.0</ele>
        <time>2020-08-07T17:28:33Z</time>
      </trkpt>
      <trkpt lat="42.5521310" lon="-8.8936970">
        <ele>2.0</ele>
        <time>2020-08-07T17:28:34Z</time>
      </trkpt>
      <trkpt lat="42.5521570" lon="-8.8936930">
        <ele>2.0</ele>
        <time>2020-08-07T17:28:35Z</time>
      </trkpt>
      <trkpt lat="42.5521570" lon="-8.8936930">
        <ele>1.6</ele>
        <time>2020-08-07T17:28:36Z</time>
      </trkpt>
      <trkpt lat="42.5521860" lon="-8.8936860">
        <ele>1.6</ele>
        <time>2020-08-07T17:28:37Z</time>
      </trkpt>
      <trkpt lat="42.5521860" lon="-8.8936860">
        <ele>1.4</ele>
        <time>2020-08-07T17:28:38Z</time>
      </trkpt>
      <trkpt lat="42.5522080" lon="-8.8936860">
        <ele>1.6</ele>
        <time>2020-08-07T17:28:39Z</time>
      </trkpt>
      <trkpt lat="42.5522080" lon="-8.8936860">
        <ele>1.4</ele>
        <time>2020-08-07T17:28:40Z</time>
      </trkpt>
      <trkpt lat="42.5522340" lon="-8.8936860">
        <ele>1.6</ele>
        <time>2020-08-07T17:28:41Z</time>
      </trkpt>
      <trkpt lat="42.5522340" lon="-8.8936860">
        <ele>2.2</ele>
        <time>2020-08-07T17:28:42Z</time>
      </trkpt>
      <trkpt lat="42.5522560" lon="-8.8936830">
        <ele>2.4</ele>
        <time>2020-08-07T17:28:43Z</time>
      </trkpt>
      <trkpt lat="42.5522560" lon="-8.8936830">
        <ele>2.6</ele>
        <time>2020-08-07T17:28:44Z</time>
      </trkpt>
      <trkpt lat="42.5522820" lon="-8.8936780">
        <ele>2.6</ele>
        <time>2020-08-07T17:28:45Z</time>
      </trkpt>
      <trkpt lat="42.5522820" lon="-8.8936780">
        <ele>2.6</ele>
        <time>2020-08-07T17:28:46Z</time>
      </trkpt>
      <trkpt lat="42.5523040" lon="-8.8936730">
        <ele>2.8</ele>
        <time>2020-08-07T17:28:47Z</time>
      </trkpt>
      <trkpt lat="42.5523040" lon="-8.8936730">
        <ele>2.8</ele>
        <time>2020-08-07T17:28:48Z</time>
      </trkpt>
      <trkpt lat="42.5523300" lon="-8.8936700">
        <ele>2.8</ele>
        <time>2020-08-07T17:28:49Z</time>
      </trkpt>
      <trkpt lat="42.5523300" lon="-8.8936700">
        <ele>2.8</ele>
        <time>2020-08-07T17:28:50Z</time>
      </trkpt>
      <trkpt lat="42.5523520" lon="-8.8936660">
        <ele>2.8</ele>
        <time>2020-08-07T17:28:51Z</time>
      </trkpt>
      <trkpt lat="42.5523520" lon="-8.8936660">
        <ele>2.8</ele>
        <time>2020-08-07T17:28:52Z</time>
      </trkpt>
      <trkpt lat="42.5523740" lon="-8.8936590">
        <ele>3.0</ele>
        <time>2020-08-07T17:28:53Z</time>
      </trkpt>
      <trkpt lat="42.5523740" lon="-8.8936590">
        <ele>3.2</ele>
        <time>2020-08-07T17:28:54Z</time>
      </trkpt>
      <trkpt lat="42.5523940" lon="-8.8936520">
        <ele>3.4</ele>
        <time>2020-08-07T17:28:55Z</time>
      </trkpt>
      <trkpt lat="42.5523940" lon="-8.8936520">
        <ele>3.8</ele>
        <time>2020-08-07T17:28:56Z</time>
      </trkpt>
      <trkpt lat="42.5523940" lon="-8.8936520">
        <ele>4.2</ele>
        <time>2020-08-07T17:28:57Z</time>
      </trkpt>
      <trkpt lat="42.5524220" lon="-8.8936340">
        <ele>4.4</ele>
        <time>2020-08-07T17:28:58Z</time>
      </trkpt>
      <trkpt lat="42.5524220" lon="-8.8936340">
        <ele>4.6</ele>
        <time>2020-08-07T17:28:59Z</time>
      </trkpt>
      <trkpt lat="42.5524420" lon="-8.8936260">
        <ele>4.4</ele>
        <time>2020-08-07T17:29:00Z</time>
      </trkpt>
      <trkpt lat="42.5524420" lon="-8.8936260">
        <ele>4.4</ele>
        <time>2020-08-07T17:29:01Z</time>
      </trkpt>
      <trkpt lat="42.5524610" lon="-8.8936140">
        <ele>4.2</ele>
        <time>2020-08-07T17:29:02Z</time>
      </trkpt>
      <trkpt lat="42.5524610" lon="-8.8936140">
        <ele>4.2</ele>
        <time>2020-08-07T17:29:03Z</time>
      </trkpt>
      <trkpt lat="42.5524610" lon="-8.8936140">
        <ele>4.2</ele>
        <time>2020-08-07T17:29:04Z</time>
      </trkpt>
      <trkpt lat="42.5524830" lon="-8.8935940">
        <ele>4.4</ele>
        <time>2020-08-07T17:29:05Z</time>
      </trkpt>
      <trkpt lat="42.5524830" lon="-8.8935940">
        <ele>4.4</ele>
        <time>2020-08-07T17:29:06Z</time>
      </trkpt>
      <trkpt lat="42.5524830" lon="-8.8935940">
        <ele>4.4</ele>
        <time>2020-08-07T17:29:07Z</time>
      </trkpt>
      <trkpt lat="42.5525020" lon="-8.8935830">
        <ele>4.6</ele>
        <time>2020-08-07T17:29:08Z</time>
      </trkpt>
      <trkpt lat="42.5525020" lon="-8.8935830">
        <ele>4.8</ele>
        <time>2020-08-07T17:29:09Z</time>
      </trkpt>
      <trkpt lat="42.5525220" lon="-8.8935770">
        <ele>4.8</ele>
        <time>2020-08-07T17:29:10Z</time>
      </trkpt>
      <trkpt lat="42.5525220" lon="-8.8935770">
        <ele>5.0</ele>
        <time>2020-08-07T17:29:11Z</time>
      </trkpt>
      <trkpt lat="42.5525410" lon="-8.8935670">
        <ele>5.4</ele>
        <time>2020-08-07T17:29:12Z</time>
      </trkpt>
      <trkpt lat="42.5525410" lon="-8.8935670">
        <ele>5.0</ele>
        <time>2020-08-07T17:29:13Z</time>
      </trkpt>
      <trkpt lat="42.5525600" lon="-8.8935540">
        <ele>5.2</ele>
        <time>2020-08-07T17:29:14Z</time>
      </trkpt>
      <trkpt lat="42.5525600" lon="-8.8935540">
        <ele>5.0</ele>
        <time>2020-08-07T17:29:15Z</time>
      </trkpt>
      <trkpt lat="42.5525790" lon="-8.8935450">
        <ele>5.0</ele>
        <time>2020-08-07T17:29:16Z</time>
      </trkpt>
      <trkpt lat="42.5525790" lon="-8.8935450">
        <ele>5.2</ele>
        <time>2020-08-07T17:29:17Z</time>
      </trkpt>
      <trkpt lat="42.5526020" lon="-8.8935400">
        <ele>4.8</ele>
        <time>2020-08-07T17:29:18Z</time>
      </trkpt>
      <trkpt lat="42.5526020" lon="-8.8935400">
        <ele>5.0</ele>
        <time>2020-08-07T17:29:19Z</time>
      </trkpt>
      <trkpt lat="42.5526210" lon="-8.8935340">
        <ele>5.4</ele>
        <time>2020-08-07T17:29:20Z</time>
      </trkpt>
      <trkpt lat="42.5526210" lon="-8.8935340">
        <ele>6.0</ele>
        <time>2020-08-07T17:29:21Z</time>
      </trkpt>
      <trkpt lat="42.5526430" lon="-8.8935270">
        <ele>5.4</ele>
        <time>2020-08-07T17:29:22Z</time>
      </trkpt>
      <trkpt lat="42.5526430" lon="-8.8935270">
        <ele>5.8</ele>
        <time>2020-08-07T17:29:23Z</time>
      </trkpt>
      <trkpt lat="42.5526620" lon="-8.8935170">
        <ele>5.6</ele>
        <time>2020-08-07T17:29:24Z</time>
      </trkpt>
      <trkpt lat="42.5526620" lon="-8.8935170">
        <ele>5.6</ele>
        <time>2020-08-07T17:29:25Z</time>
      </trkpt>
      <trkpt lat="42.5526880" lon="-8.8935100">
        <ele>5.8</ele>
        <time>2020-08-07T17:29:26Z</time>
      </trkpt>
      <trkpt lat="42.5526880" lon="-8.8935100">
        <ele>5.6</ele>
        <time>2020-08-07T17:29:27Z</time>
      </trkpt>
      <trkpt lat="42.5527170" lon="-8.8935030">
        <ele>5.4</ele>
        <time>2020-08-07T17:29:28Z</time>
      </trkpt>
      <trkpt lat="42.5527170" lon="-8.8935030">
        <ele>5.2</ele>
        <time>2020-08-07T17:29:29Z</time>
      </trkpt>
      <trkpt lat="42.5527390" lon="-8.8934980">
        <ele>5.4</ele>
        <time>2020-08-07T17:29:30Z</time>
      </trkpt>
      <trkpt lat="42.5527390" lon="-8.8934980">
        <ele>5.6</ele>
        <time>2020-08-07T17:29:31Z</time>
      </trkpt>
      <trkpt lat="42.5527620" lon="-8.8934940">
        <ele>5.4</ele>
        <time>2020-08-07T17:29:32Z</time>
      </trkpt>
      <trkpt lat="42.5527620" lon="-8.8934940">
        <ele>5.6</ele>
        <time>2020-08-07T17:29:33Z</time>
      </trkpt>
      <trkpt lat="42.5527840" lon="-8.8934820">
        <ele>5.6</ele>
        <time>2020-08-07T17:29:34Z</time>
      </trkpt>
      <trkpt lat="42.5527840" lon="-8.8934820">
        <ele>5.4</ele>
        <time>2020-08-07T17:29:35Z</time>
      </trkpt>
      <trkpt lat="42.5528100" lon="-8.8934720">
        <ele>5.2</ele>
        <time>2020-08-07T17:29:36Z</time>
      </trkpt>
      <trkpt lat="42.5528100" lon="-8.8934720">
        <ele>5.2</ele>
        <time>2020-08-07T17:29:37Z</time>
      </trkpt>
      <trkpt lat="42.5528320" lon="-8.8934650">
        <ele>5.4</ele>
        <time>2020-08-07T17:29:38Z</time>
      </trkpt>
      <trkpt lat="42.5528320" lon="-8.8934650">
        <ele>5.0</ele>
        <time>2020-08-07T17:29:39Z</time>
      </trkpt>
      <trkpt lat="42.5528610" lon="-8.8934630">
        <ele>5.4</ele>
        <time>2020-08-07T17:29:40Z</time>
      </trkpt>
      <trkpt lat="42.5528610" lon="-8.8934630">
        <ele>5.6</ele>
        <time>2020-08-07T17:29:41Z</time>
      </trkpt>
      <trkpt lat="42.5528830" lon="-8.8934540">
        <ele>5.4</ele>
        <time>2020-08-07T17:29:42Z</time>
      </trkpt>
      <trkpt lat="42.5528830" lon="-8.8934540">
        <ele>4.8</ele>
        <time>2020-08-07T17:29:43Z</time>
      </trkpt>
      <trkpt lat="42.5529090" lon="-8.8934380">
        <ele>4.6</ele>
        <time>2020-08-07T17:29:44Z</time>
      </trkpt>
      <trkpt lat="42.5529090" lon="-8.8934380">
        <ele>4.4</ele>
        <time>2020-08-07T17:29:45Z</time>
      </trkpt>
      <trkpt lat="42.5529310" lon="-8.8934250">
        <ele>4.4</ele>
        <time>2020-08-07T17:29:46Z</time>
      </trkpt>
      <trkpt lat="42.5529310" lon="-8.8934250">
        <ele>4.2</ele>
        <time>2020-08-07T17:29:47Z</time>
      </trkpt>
      <trkpt lat="42.5529570" lon="-8.8934100">
        <ele>3.6</ele>
        <time>2020-08-07T17:29:48Z</time>
      </trkpt>
      <trkpt lat="42.5529570" lon="-8.8934100">
        <ele>3.6</ele>
        <time>2020-08-07T17:29:49Z</time>
      </trkpt>
      <trkpt lat="42.5529790" lon="-8.8933920">
        <ele>3.2</ele>
        <time>2020-08-07T17:29:50Z</time>
      </trkpt>
      <trkpt lat="42.5529790" lon="-8.8933920">
        <ele>3.0</ele>
        <time>2020-08-07T17:29:51Z</time>
      </trkpt>
      <trkpt lat="42.5529980" lon="-8.8933780">
        <ele>3.6</ele>
        <time>2020-08-07T17:29:52Z</time>
      </trkpt>
      <trkpt lat="42.5529980" lon="-8.8933780">
        <ele>3.8</ele>
        <time>2020-08-07T17:29:53Z</time>
      </trkpt>
      <trkpt lat="42.5530180" lon="-8.8933690">
        <ele>4.0</ele>
        <time>2020-08-07T17:29:54Z</time>
      </trkpt>
      <trkpt lat="42.5530180" lon="-8.8933690">
        <ele>3.6</ele>
        <time>2020-08-07T17:29:55Z</time>
      </trkpt>
      <trkpt lat="42.5530400" lon="-8.8933600">
        <ele>3.6</ele>
        <time>2020-08-07T17:29:56Z</time>
      </trkpt>
      <trkpt lat="42.5530400" lon="-8.8933600">
        <ele>3.8</ele>
        <time>2020-08-07T17:29:57Z</time>
      </trkpt>
      <trkpt lat="42.5530590" lon="-8.8933510">
        <ele>4.0</ele>
        <time>2020-08-07T17:29:58Z</time>
      </trkpt>
      <trkpt lat="42.5530590" lon="-8.8933510">
        <ele>4.2</ele>
        <time>2020-08-07T17:29:59Z</time>
      </trkpt>
      <trkpt lat="42.5530850" lon="-8.8933420">
        <ele>4.0</ele>
        <time>2020-08-07T17:30:00Z</time>
      </trkpt>
      <trkpt lat="42.5530850" lon="-8.8933420">
        <ele>4.6</ele>
        <time>2020-08-07T17:30:01Z</time>
      </trkpt>
      <trkpt lat="42.5531070" lon="-8.8933310">
        <ele>4.6</ele>
        <time>2020-08-07T17:30:02Z</time>
      </trkpt>
      <trkpt lat="42.5531070" lon="-8.8933310">
        <ele>4.8</ele>
        <time>2020-08-07T17:30:03Z</time>
      </trkpt>
      <trkpt lat="42.5531300" lon="-8.8933160">
        <ele>4.4</ele>
        <time>2020-08-07T17:30:04Z</time>
      </trkpt>
      <trkpt lat="42.5531300" lon="-8.8933160">
        <ele>4.4</ele>
        <time>2020-08-07T17:30:05Z</time>
      </trkpt>
      <trkpt lat="42.5531550" lon="-8.8933030">
        <ele>4.6</ele>
        <time>2020-08-07T17:30:06Z</time>
      </trkpt>
      <trkpt lat="42.5531550" lon="-8.8933030">
        <ele>4.4</ele>
        <time>2020-08-07T17:30:07Z</time>
      </trkpt>
      <trkpt lat="42.5531780" lon="-8.8932890">
        <ele>4.6</ele>
        <time>2020-08-07T17:30:08Z</time>
      </trkpt>
      <trkpt lat="42.5531780" lon="-8.8932890">
        <ele>4.8</ele>
        <time>2020-08-07T17:30:09Z</time>
      </trkpt>
      <trkpt lat="42.5531940" lon="-8.8932760">
        <ele>4.8</ele>
        <time>2020-08-07T17:30:10Z</time>
      </trkpt>
      <trkpt lat="42.5531940" lon="-8.8932760">
        <ele>4.6</ele>
        <time>2020-08-07T17:30:11Z</time>
      </trkpt>
      <trkpt lat="42.5532190" lon="-8.8932710">
        <ele>4.6</ele>
        <time>2020-08-07T17:30:12Z</time>
      </trkpt>
      <trkpt lat="42.5532190" lon="-8.8932710">
        <ele>4.6</ele>
        <time>2020-08-07T17:30:13Z</time>
      </trkpt>
      <trkpt lat="42.5532380" lon="-8.8932580">
        <ele>4.6</ele>
        <time>2020-08-07T17:30:14Z</time>
      </trkpt>
      <trkpt lat="42.5532380" lon="-8.8932580">
        <ele>4.8</ele>
        <time>2020-08-07T17:30:15Z</time>
      </trkpt>
      <trkpt lat="42.5532380" lon="-8.8932580">
        <ele>5.0</ele>
        <time>2020-08-07T17:30:16Z</time>
      </trkpt>
      <trkpt lat="42.5532640" lon="-8.8932440">
        <ele>5.4</ele>
        <time>2020-08-07T17:30:17Z</time>
      </trkpt>
      <trkpt lat="42.5532640" lon="-8.8932440">
        <ele>5.8</ele>
        <time>2020-08-07T17:30:18Z</time>
      </trkpt>
      <trkpt lat="42.5532830" lon="-8.8932310">
        <ele>5.6</ele>
        <time>2020-08-07T17:30:19Z</time>
      </trkpt>
      <trkpt lat="42.5532830" lon="-8.8932310">
        <ele>5.8</ele>
        <time>2020-08-07T17:30:20Z</time>
      </trkpt>
      <trkpt lat="42.5533020" lon="-8.8932240">
        <ele>5.8</ele>
        <time>2020-08-07T17:30:21Z</time>
      </trkpt>
      <trkpt lat="42.5533020" lon="-8.8932240">
        <ele>6.4</ele>
        <time>2020-08-07T17:30:22Z</time>
      </trkpt>
      <trkpt lat="42.5533220" lon="-8.8932150">
        <ele>6.6</ele>
        <time>2020-08-07T17:30:23Z</time>
      </trkpt>
      <trkpt lat="42.5533220" lon="-8.8932150">
        <ele>6.8</ele>
        <time>2020-08-07T17:30:24Z</time>
      </trkpt>
      <trkpt lat="42.5533470" lon="-8.8932040">
        <ele>6.4</ele>
        <time>2020-08-07T17:30:25Z</time>
      </trkpt>
      <trkpt lat="42.5533470" lon="-8.8932040">
        <ele>6.2</ele>
        <time>2020-08-07T17:30:26Z</time>
      </trkpt>
      <trkpt lat="42.5533730" lon="-8.8931940">
        <ele>6.2</ele>
        <time>2020-08-07T17:30:27Z</time>
      </trkpt>
      <trkpt lat="42.5533730" lon="-8.8931940">
        <ele>5.8</ele>
        <time>2020-08-07T17:30:28Z</time>
      </trkpt>
      <trkpt lat="42.5533950" lon="-8.8931840">
        <ele>5.6</ele>
        <time>2020-08-07T17:30:29Z</time>
      </trkpt>
      <trkpt lat="42.5533950" lon="-8.8931840">
        <ele>5.4</ele>
        <time>2020-08-07T17:30:30Z</time>
      </trkpt>
      <trkpt lat="42.5534140" lon="-8.8931690">
        <ele>5.4</ele>
        <time>2020-08-07T17:30:31Z</time>
      </trkpt>
      <trkpt lat="42.5534140" lon="-8.8931690">
        <ele>5.4</ele>
        <time>2020-08-07T17:30:32Z</time>
      </trkpt>
      <trkpt lat="42.5534400" lon="-8.8931580">
        <ele>5.2</ele>
        <time>2020-08-07T17:30:33Z</time>
      </trkpt>
      <trkpt lat="42.5534400" lon="-8.8931580">
        <ele>5.0</ele>
        <time>2020-08-07T17:30:34Z</time>
      </trkpt>
      <trkpt lat="42.5534620" lon="-8.8931490">
        <ele>5.4</ele>
        <time>2020-08-07T17:30:35Z</time>
      </trkpt>
      <trkpt lat="42.5534620" lon="-8.8931490">
        <ele>5.4</ele>
        <time>2020-08-07T17:30:36Z</time>
      </trkpt>
      <trkpt lat="42.5534850" lon="-8.8931440">
        <ele>5.8</ele>
        <time>2020-08-07T17:30:37Z</time>
      </trkpt>
      <trkpt lat="42.5534850" lon="-8.8931440">
        <ele>5.8</ele>
        <time>2020-08-07T17:30:38Z</time>
      </trkpt>
      <trkpt lat="42.5535040" lon="-8.8931330">
        <ele>5.8</ele>
        <time>2020-08-07T17:30:39Z</time>
      </trkpt>
      <trkpt lat="42.5535040" lon="-8.8931330">
        <ele>6.0</ele>
        <time>2020-08-07T17:30:40Z</time>
      </trkpt>
      <trkpt lat="42.5535330" lon="-8.8931200">
        <ele>5.8</ele>
        <time>2020-08-07T17:30:41Z</time>
      </trkpt>
      <trkpt lat="42.5535330" lon="-8.8931200">
        <ele>5.8</ele>
        <time>2020-08-07T17:30:42Z</time>
      </trkpt>
      <trkpt lat="42.5535550" lon="-8.8931060">
        <ele>5.6</ele>
        <time>2020-08-07T17:30:43Z</time>
      </trkpt>
      <trkpt lat="42.5535550" lon="-8.8931060">
        <ele>5.8</ele>
        <time>2020-08-07T17:30:44Z</time>
      </trkpt>
      <trkpt lat="42.5535780" lon="-8.8930930">
        <ele>6.0</ele>
        <time>2020-08-07T17:30:45Z</time>
      </trkpt>
      <trkpt lat="42.5535780" lon="-8.8930930">
        <ele>6.4</ele>
        <time>2020-08-07T17:30:46Z</time>
      </trkpt>
      <trkpt lat="42.5535970" lon="-8.8930800">
        <ele>6.0</ele>
        <time>2020-08-07T17:30:47Z</time>
      </trkpt>
      <trkpt lat="42.5535970" lon="-8.8930800">
        <ele>6.2</ele>
        <time>2020-08-07T17:30:48Z</time>
      </trkpt>
      <trkpt lat="42.5536160" lon="-8.8930660">
        <ele>6.0</ele>
        <time>2020-08-07T17:30:49Z</time>
      </trkpt>
      <trkpt lat="42.5536160" lon="-8.8930660">
        <ele>5.6</ele>
        <time>2020-08-07T17:30:50Z</time>
      </trkpt>
      <trkpt lat="42.5536380" lon="-8.8930550">
        <ele>5.6</ele>
        <time>2020-08-07T17:30:51Z</time>
      </trkpt>
      <trkpt lat="42.5536380" lon="-8.8930550">
        <ele>5.4</ele>
        <time>2020-08-07T17:30:52Z</time>
      </trkpt>
      <trkpt lat="42.5536580" lon="-8.8930380">
        <ele>5.4</ele>
        <time>2020-08-07T17:30:53Z</time>
      </trkpt>
      <trkpt lat="42.5536580" lon="-8.8930380">
        <ele>5.2</ele>
        <time>2020-08-07T17:30:54Z</time>
      </trkpt>
      <trkpt lat="42.5536770" lon="-8.8930260">
        <ele>5.6</ele>
        <time>2020-08-07T17:30:55Z</time>
      </trkpt>
      <trkpt lat="42.5536770" lon="-8.8930260">
        <ele>5.6</ele>
        <time>2020-08-07T17:30:56Z</time>
      </trkpt>
      <trkpt lat="42.5536930" lon="-8.8930120">
        <ele>6.0</ele>
        <time>2020-08-07T17:30:57Z</time>
      </trkpt>
      <trkpt lat="42.5536930" lon="-8.8930120">
        <ele>6.2</ele>
        <time>2020-08-07T17:30:58Z</time>
      </trkpt>
      <trkpt lat="42.5537150" lon="-8.8930000">
        <ele>6.6</ele>
        <time>2020-08-07T17:30:59Z</time>
      </trkpt>
      <trkpt lat="42.5537150" lon="-8.8930000">
        <ele>6.8</ele>
        <time>2020-08-07T17:31:00Z</time>
      </trkpt>
      <trkpt lat="42.5537150" lon="-8.8930000">
        <ele>6.6</ele>
        <time>2020-08-07T17:31:01Z</time>
      </trkpt>
      <trkpt lat="42.5537410" lon="-8.8929900">
        <ele>6.4</ele>
        <time>2020-08-07T17:31:02Z</time>
      </trkpt>
      <trkpt lat="42.5537410" lon="-8.8929900">
        <ele>6.2</ele>
        <time>2020-08-07T17:31:03Z</time>
      </trkpt>
      <trkpt lat="42.5537700" lon="-8.8929820">
        <ele>6.2</ele>
        <time>2020-08-07T17:31:04Z</time>
      </trkpt>
      <trkpt lat="42.5537700" lon="-8.8929820">
        <ele>6.0</ele>
        <time>2020-08-07T17:31:05Z</time>
      </trkpt>
      <trkpt lat="42.5537950" lon="-8.8929720">
        <ele>6.0</ele>
        <time>2020-08-07T17:31:06Z</time>
      </trkpt>
      <trkpt lat="42.5537950" lon="-8.8929720">
        <ele>6.2</ele>
        <time>2020-08-07T17:31:07Z</time>
      </trkpt>
      <trkpt lat="42.5538140" lon="-8.8929680">
        <ele>6.2</ele>
        <time>2020-08-07T17:31:08Z</time>
      </trkpt>
      <trkpt lat="42.5538140" lon="-8.8929680">
        <ele>6.4</ele>
        <time>2020-08-07T17:31:09Z</time>
      </trkpt>
      <trkpt lat="42.5538370" lon="-8.8929550">
        <ele>6.2</ele>
        <time>2020-08-07T17:31:10Z</time>
      </trkpt>
      <trkpt lat="42.5538370" lon="-8.8929550">
        <ele>6.4</ele>
        <time>2020-08-07T17:31:11Z</time>
      </trkpt>
      <trkpt lat="42.5538590" lon="-8.8929420">
        <ele>6.2</ele>
        <time>2020-08-07T17:31:12Z</time>
      </trkpt>
      <trkpt lat="42.5538590" lon="-8.8929420">
        <ele>6.0</ele>
        <time>2020-08-07T17:31:13Z</time>
      </trkpt>
      <trkpt lat="42.5538780" lon="-8.8929320">
        <ele>6.0</ele>
        <time>2020-08-07T17:31:14Z</time>
      </trkpt>
      <trkpt lat="42.5538780" lon="-8.8929320">
        <ele>5.8</ele>
        <time>2020-08-07T17:31:15Z</time>
      </trkpt>
      <trkpt lat="42.5538980" lon="-8.8929190">
        <ele>5.6</ele>
        <time>2020-08-07T17:31:16Z</time>
      </trkpt>
      <trkpt lat="42.5538980" lon="-8.8929190">
        <ele>5.6</ele>
        <time>2020-08-07T17:31:17Z</time>
      </trkpt>
      <trkpt lat="42.5539170" lon="-8.8929100">
        <ele>5.8</ele>
        <time>2020-08-07T17:31:18Z</time>
      </trkpt>
      <trkpt lat="42.5539170" lon="-8.8929100">
        <ele>5.8</ele>
        <time>2020-08-07T17:31:19Z</time>
      </trkpt>
      <trkpt lat="42.5539360" lon="-8.8928980">
        <ele>5.8</ele>
        <time>2020-08-07T17:31:20Z</time>
      </trkpt>
      <trkpt lat="42.5539360" lon="-8.8928980">
        <ele>6.0</ele>
        <time>2020-08-07T17:31:21Z</time>
      </trkpt>
      <trkpt lat="42.5539360" lon="-8.8928980">
        <ele>6.0</ele>
        <time>2020-08-07T17:31:22Z</time>
      </trkpt>
      <trkpt lat="42.5539550" lon="-8.8928780">
        <ele>6.2</ele>
        <time>2020-08-07T17:31:23Z</time>
      </trkpt>
      <trkpt lat="42.5539550" lon="-8.8928780">
        <ele>6.2</ele>
        <time>2020-08-07T17:31:24Z</time>
      </trkpt>
      <trkpt lat="42.5539710" lon="-8.8928650">
        <ele>5.8</ele>
        <time>2020-08-07T17:31:25Z</time>
      </trkpt>
      <trkpt lat="42.5539710" lon="-8.8928650">
        <ele>5.6</ele>
        <time>2020-08-07T17:31:26Z</time>
      </trkpt>
      <trkpt lat="42.5539900" lon="-8.8928570">
        <ele>5.8</ele>
        <time>2020-08-07T17:31:27Z</time>
      </trkpt>
      <trkpt lat="42.5539900" lon="-8.8928570">
        <ele>5.8</ele>
        <time>2020-08-07T17:31:28Z</time>
      </trkpt>
      <trkpt lat="42.5539900" lon="-8.8928570">
        <ele>5.6</ele>
        <time>2020-08-07T17:31:29Z</time>
      </trkpt>
      <trkpt lat="42.5540130" lon="-8.8928450">
        <ele>5.8</ele>
        <time>2020-08-07T17:31:30Z</time>
      </trkpt>
      <trkpt lat="42.5540130" lon="-8.8928450">
        <ele>6.0</ele>
        <time>2020-08-07T17:31:31Z</time>
      </trkpt>
      <trkpt lat="42.5540320" lon="-8.8928380">
        <ele>6.0</ele>
        <time>2020-08-07T17:31:32Z</time>
      </trkpt>
      <trkpt lat="42.5540320" lon="-8.8928380">
        <ele>5.8</ele>
        <time>2020-08-07T17:31:33Z</time>
      </trkpt>
      <trkpt lat="42.5540580" lon="-8.8928300">
        <ele>5.4</ele>
        <time>2020-08-07T17:31:34Z</time>
      </trkpt>
      <trkpt lat="42.5540580" lon="-8.8928300">
        <ele>5.4</ele>
        <time>2020-08-07T17:31:35Z</time>
      </trkpt>
      <trkpt lat="42.5540770" lon="-8.8928180">
        <ele>5.4</ele>
        <time>2020-08-07T17:31:36Z</time>
      </trkpt>
      <trkpt lat="42.5540770" lon="-8.8928180">
        <ele>5.4</ele>
        <time>2020-08-07T17:31:37Z</time>
      </trkpt>
      <trkpt lat="42.5540990" lon="-8.8928070">
        <ele>5.2</ele>
        <time>2020-08-07T17:31:38Z</time>
      </trkpt>
      <trkpt lat="42.5540990" lon="-8.8928070">
        <ele>5.2</ele>
        <time>2020-08-07T17:31:39Z</time>
      </trkpt>
      <trkpt lat="42.5541180" lon="-8.8927900">
        <ele>5.2</ele>
        <time>2020-08-07T17:31:40Z</time>
      </trkpt>
      <trkpt lat="42.5541180" lon="-8.8927900">
        <ele>5.4</ele>
        <time>2020-08-07T17:31:41Z</time>
      </trkpt>
      <trkpt lat="42.5541380" lon="-8.8927770">
        <ele>5.0</ele>
        <time>2020-08-07T17:31:42Z</time>
      </trkpt>
      <trkpt lat="42.5541380" lon="-8.8927770">
        <ele>4.6</ele>
        <time>2020-08-07T17:31:43Z</time>
      </trkpt>
      <trkpt lat="42.5541600" lon="-8.8927650">
        <ele>4.6</ele>
        <time>2020-08-07T17:31:44Z</time>
      </trkpt>
      <trkpt lat="42.5541600" lon="-8.8927650">
        <ele>4.0</ele>
        <time>2020-08-07T17:31:45Z</time>
      </trkpt>
      <trkpt lat="42.5541820" lon="-8.8927520">
        <ele>4.2</ele>
        <time>2020-08-07T17:31:46Z</time>
      </trkpt>
      <trkpt lat="42.5541820" lon="-8.8927520">
        <ele>4.4</ele>
        <time>2020-08-07T17:31:47Z</time>
      </trkpt>
      <trkpt lat="42.5542080" lon="-8.8927420">
        <ele>4.6</ele>
        <time>2020-08-07T17:31:48Z</time>
      </trkpt>
      <trkpt lat="42.5542080" lon="-8.8927420">
        <ele>4.6</ele>
        <time>2020-08-07T17:31:49Z</time>
      </trkpt>
      <trkpt lat="42.5542270" lon="-8.8927320">
        <ele>4.2</ele>
        <time>2020-08-07T17:31:50Z</time>
      </trkpt>
      <trkpt lat="42.5542270" lon="-8.8927320">
        <ele>4.2</ele>
        <time>2020-08-07T17:31:51Z</time>
      </trkpt>
      <trkpt lat="42.5542500" lon="-8.8927270">
        <ele>4.2</ele>
        <time>2020-08-07T17:31:52Z</time>
      </trkpt>
      <trkpt lat="42.5542500" lon="-8.8927270">
        <ele>4.2</ele>
        <time>2020-08-07T17:31:53Z</time>
      </trkpt>
      <trkpt lat="42.5542720" lon="-8.8927170">
        <ele>4.0</ele>
        <time>2020-08-07T17:31:54Z</time>
      </trkpt>
      <trkpt lat="42.5542720" lon="-8.8927170">
        <ele>4.0</ele>
        <time>2020-08-07T17:31:55Z</time>
      </trkpt>
      <trkpt lat="42.5542940" lon="-8.8927020">
        <ele>3.6</ele>
        <time>2020-08-07T17:31:56Z</time>
      </trkpt>
      <trkpt lat="42.5542940" lon="-8.8927020">
        <ele>3.2</ele>
        <time>2020-08-07T17:31:57Z</time>
      </trkpt>
      <trkpt lat="42.5543170" lon="-8.8926870">
        <ele>3.2</ele>
        <time>2020-08-07T17:31:58Z</time>
      </trkpt>
      <trkpt lat="42.5543170" lon="-8.8926870">
        <ele>3.2</ele>
        <time>2020-08-07T17:31:59Z</time>
      </trkpt>
      <trkpt lat="42.5543390" lon="-8.8926700">
        <ele>3.6</ele>
        <time>2020-08-07T17:32:00Z</time>
      </trkpt>
      <trkpt lat="42.5543390" lon="-8.8926700">
        <ele>3.8</ele>
        <time>2020-08-07T17:32:01Z</time>
      </trkpt>
      <trkpt lat="42.5543650" lon="-8.8926580">
        <ele>3.6</ele>
        <time>2020-08-07T17:32:02Z</time>
      </trkpt>
      <trkpt lat="42.5543650" lon="-8.8926580">
        <ele>4.2</ele>
        <time>2020-08-07T17:32:03Z</time>
      </trkpt>
      <trkpt lat="42.5543810" lon="-8.8926460">
        <ele>4.6</ele>
        <time>2020-08-07T17:32:04Z</time>
      </trkpt>
      <trkpt lat="42.5543810" lon="-8.8926460">
        <ele>4.8</ele>
        <time>2020-08-07T17:32:05Z</time>
      </trkpt>
      <trkpt lat="42.5544060" lon="-8.8926420">
        <ele>5.2</ele>
        <time>2020-08-07T17:32:06Z</time>
      </trkpt>
      <trkpt lat="42.5544060" lon="-8.8926420">
        <ele>5.0</ele>
        <time>2020-08-07T17:32:07Z</time>
      </trkpt>
      <trkpt lat="42.5544290" lon="-8.8926360">
        <ele>5.2</ele>
        <time>2020-08-07T17:32:08Z</time>
      </trkpt>
      <trkpt lat="42.5544290" lon="-8.8926360">
        <ele>5.0</ele>
        <time>2020-08-07T17:32:09Z</time>
      </trkpt>
      <trkpt lat="42.5544540" lon="-8.8926310">
        <ele>5.0</ele>
        <time>2020-08-07T17:32:10Z</time>
      </trkpt>
      <trkpt lat="42.5544540" lon="-8.8926310">
        <ele>5.0</ele>
        <time>2020-08-07T17:32:11Z</time>
      </trkpt>
      <trkpt lat="42.5544800" lon="-8.8926290">
        <ele>5.0</ele>
        <time>2020-08-07T17:32:12Z</time>
      </trkpt>
      <trkpt lat="42.5544800" lon="-8.8926290">
        <ele>4.8</ele>
        <time>2020-08-07T17:32:13Z</time>
      </trkpt>
      <trkpt lat="42.5545060" lon="-8.8926180">
        <ele>4.8</ele>
        <time>2020-08-07T17:32:14Z</time>
      </trkpt>
      <trkpt lat="42.5545060" lon="-8.8926180">
        <ele>5.0</ele>
        <time>2020-08-07T17:32:15Z</time>
      </trkpt>
      <trkpt lat="42.5545250" lon="-8.8926090">
        <ele>4.8</ele>
        <time>2020-08-07T17:32:16Z</time>
      </trkpt>
      <trkpt lat="42.5545250" lon="-8.8926090">
        <ele>4.8</ele>
        <time>2020-08-07T17:32:17Z</time>
      </trkpt>
      <trkpt lat="42.5545500" lon="-8.8926020">
        <ele>4.6</ele>
        <time>2020-08-07T17:32:18Z</time>
      </trkpt>
      <trkpt lat="42.5545500" lon="-8.8926020">
        <ele>4.8</ele>
        <time>2020-08-07T17:32:19Z</time>
      </trkpt>
      <trkpt lat="42.5545700" lon="-8.8925910">
        <ele>4.6</ele>
        <time>2020-08-07T17:32:20Z</time>
      </trkpt>
      <trkpt lat="42.5545700" lon="-8.8925910">
        <ele>4.8</ele>
        <time>2020-08-07T17:32:21Z</time>
      </trkpt>
      <trkpt lat="42.5545920" lon="-8.8925760">
        <ele>4.4</ele>
        <time>2020-08-07T17:32:22Z</time>
      </trkpt>
      <trkpt lat="42.5545920" lon="-8.8925760">
        <ele>4.2</ele>
        <time>2020-08-07T17:32:23Z</time>
      </trkpt>
      <trkpt lat="42.5546140" lon="-8.8925630">
        <ele>3.8</ele>
        <time>2020-08-07T17:32:24Z</time>
      </trkpt>
      <trkpt lat="42.5546140" lon="-8.8925630">
        <ele>4.0</ele>
        <time>2020-08-07T17:32:25Z</time>
      </trkpt>
      <trkpt lat="42.5546370" lon="-8.8925510">
        <ele>4.2</ele>
        <time>2020-08-07T17:32:26Z</time>
      </trkpt>
      <trkpt lat="42.5546370" lon="-8.8925510">
        <ele>3.8</ele>
        <time>2020-08-07T17:32:27Z</time>
      </trkpt>
      <trkpt lat="42.5546590" lon="-8.8925360">
        <ele>3.8</ele>
        <time>2020-08-07T17:32:28Z</time>
      </trkpt>
      <trkpt lat="42.5546590" lon="-8.8925360">
        <ele>3.6</ele>
        <time>2020-08-07T17:32:29Z</time>
      </trkpt>
      <trkpt lat="42.5546880" lon="-8.8925260">
        <ele>3.6</ele>
        <time>2020-08-07T17:32:30Z</time>
      </trkpt>
      <trkpt lat="42.5546880" lon="-8.8925260">
        <ele>3.8</ele>
        <time>2020-08-07T17:32:31Z</time>
      </trkpt>
      <trkpt lat="42.5547100" lon="-8.8925170">
        <ele>3.8</ele>
        <time>2020-08-07T17:32:32Z</time>
      </trkpt>
      <trkpt lat="42.5547100" lon="-8.8925170">
        <ele>4.2</ele>
        <time>2020-08-07T17:32:33Z</time>
      </trkpt>
      <trkpt lat="42.5547360" lon="-8.8925110">
        <ele>4.2</ele>
        <time>2020-08-07T17:32:34Z</time>
      </trkpt>
      <trkpt lat="42.5547360" lon="-8.8925110">
        <ele>4.6</ele>
        <time>2020-08-07T17:32:35Z</time>
      </trkpt>
      <trkpt lat="42.5547650" lon="-8.8925040">
        <ele>4.6</ele>
        <time>2020-08-07T17:32:36Z</time>
      </trkpt>
      <trkpt lat="42.5547650" lon="-8.8925040">
        <ele>4.6</ele>
        <time>2020-08-07T17:32:37Z</time>
      </trkpt>
      <trkpt lat="42.5547900" lon="-8.8924940">
        <ele>4.2</ele>
        <time>2020-08-07T17:32:38Z</time>
      </trkpt>
      <trkpt lat="42.5547900" lon="-8.8924940">
        <ele>4.6</ele>
        <time>2020-08-07T17:32:39Z</time>
      </trkpt>
      <trkpt lat="42.5548130" lon="-8.8924850">
        <ele>4.2</ele>
        <time>2020-08-07T17:32:40Z</time>
      </trkpt>
      <trkpt lat="42.5548130" lon="-8.8924850">
        <ele>4.4</ele>
        <time>2020-08-07T17:32:41Z</time>
      </trkpt>
      <trkpt lat="42.5548420" lon="-8.8924750">
        <ele>4.0</ele>
        <time>2020-08-07T17:32:42Z</time>
      </trkpt>
      <trkpt lat="42.5548420" lon="-8.8924750">
        <ele>4.2</ele>
        <time>2020-08-07T17:32:43Z</time>
      </trkpt>
      <trkpt lat="42.5548420" lon="-8.8924750">
        <ele>4.0</ele>
        <time>2020-08-07T17:32:44Z</time>
      </trkpt>
      <trkpt lat="42.5548670" lon="-8.8924550">
        <ele>4.4</ele>
        <time>2020-08-07T17:32:45Z</time>
      </trkpt>
      <trkpt lat="42.5548670" lon="-8.8924550">
        <ele>4.2</ele>
        <time>2020-08-07T17:32:46Z</time>
      </trkpt>
      <trkpt lat="42.5548900" lon="-8.8924420">
        <ele>4.4</ele>
        <time>2020-08-07T17:32:47Z</time>
      </trkpt>
      <trkpt lat="42.5548900" lon="-8.8924420">
        <ele>4.2</ele>
        <time>2020-08-07T17:32:48Z</time>
      </trkpt>
      <trkpt lat="42.5549120" lon="-8.8924280">
        <ele>3.8</ele>
        <time>2020-08-07T17:32:49Z</time>
      </trkpt>
      <trkpt lat="42.5549120" lon="-8.8924280">
        <ele>3.6</ele>
        <time>2020-08-07T17:32:50Z</time>
      </trkpt>
      <trkpt lat="42.5549310" lon="-8.8924150">
        <ele>4.0</ele>
        <time>2020-08-07T17:32:51Z</time>
      </trkpt>
      <trkpt lat="42.5549310" lon="-8.8924150">
        <ele>3.8</ele>
        <time>2020-08-07T17:32:52Z</time>
      </trkpt>
      <trkpt lat="42.5549500" lon="-8.8924000">
        <ele>4.4</ele>
        <time>2020-08-07T17:32:53Z</time>
      </trkpt>
      <trkpt lat="42.5549500" lon="-8.8924000">
        <ele>4.4</ele>
        <time>2020-08-07T17:32:54Z</time>
      </trkpt>
      <trkpt lat="42.5549730" lon="-8.8923860">
        <ele>4.6</ele>
        <time>2020-08-07T17:32:55Z</time>
      </trkpt>
      <trkpt lat="42.5549730" lon="-8.8923860">
        <ele>4.2</ele>
        <time>2020-08-07T17:32:56Z</time>
      </trkpt>
      <trkpt lat="42.5549950" lon="-8.8923770">
        <ele>4.2</ele>
        <time>2020-08-07T17:32:57Z</time>
      </trkpt>
      <trkpt lat="42.5549950" lon="-8.8923770">
        <ele>3.6</ele>
        <time>2020-08-07T17:32:58Z</time>
      </trkpt>
      <trkpt lat="42.5550240" lon="-8.8923650">
        <ele>3.8</ele>
        <time>2020-08-07T17:32:59Z</time>
      </trkpt>
      <trkpt lat="42.5550240" lon="-8.8923650">
        <ele>4.0</ele>
        <time>2020-08-07T17:33:00Z</time>
      </trkpt>
      <trkpt lat="42.5550460" lon="-8.8923550">
        <ele>4.0</ele>
        <time>2020-08-07T17:33:01Z</time>
      </trkpt>
      <trkpt lat="42.5550460" lon="-8.8923550">
        <ele>4.2</ele>
        <time>2020-08-07T17:33:02Z</time>
      </trkpt>
      <trkpt lat="42.5550690" lon="-8.8923430">
        <ele>3.8</ele>
        <time>2020-08-07T17:33:03Z</time>
      </trkpt>
      <trkpt lat="42.5550690" lon="-8.8923430">
        <ele>4.0</ele>
        <time>2020-08-07T17:33:04Z</time>
      </trkpt>
      <trkpt lat="42.5550910" lon="-8.8923350">
        <ele>4.4</ele>
        <time>2020-08-07T17:33:05Z</time>
      </trkpt>
      <trkpt lat="42.5550910" lon="-8.8923350">
        <ele>4.6</ele>
        <time>2020-08-07T17:33:06Z</time>
      </trkpt>
      <trkpt lat="42.5551100" lon="-8.8923260">
        <ele>4.6</ele>
        <time>2020-08-07T17:33:07Z</time>
      </trkpt>
      <trkpt lat="42.5551100" lon="-8.8923260">
        <ele>5.2</ele>
        <time>2020-08-07T17:33:08Z</time>
      </trkpt>
      <trkpt lat="42.5551100" lon="-8.8923260">
        <ele>5.4</ele>
        <time>2020-08-07T17:33:09Z</time>
      </trkpt>
      <trkpt lat="42.5551390" lon="-8.8923060">
        <ele>5.2</ele>
        <time>2020-08-07T17:33:10Z</time>
      </trkpt>
      <trkpt lat="42.5551390" lon="-8.8923060">
        <ele>5.0</ele>
        <time>2020-08-07T17:33:11Z</time>
      </trkpt>
      <trkpt lat="42.5551620" lon="-8.8922900">
        <ele>4.4</ele>
        <time>2020-08-07T17:33:12Z</time>
      </trkpt>
      <trkpt lat="42.5551620" lon="-8.8922900">
        <ele>4.4</ele>
        <time>2020-08-07T17:33:13Z</time>
      </trkpt>
      <trkpt lat="42.5551810" lon="-8.8922730">
        <ele>4.8</ele>
        <time>2020-08-07T17:33:14Z</time>
      </trkpt>
      <trkpt lat="42.5551810" lon="-8.8922730">
        <ele>5.0</ele>
        <time>2020-08-07T17:33:15Z</time>
      </trkpt>
      <trkpt lat="42.5552030" lon="-8.8922550">
        <ele>5.4</ele>
        <time>2020-08-07T17:33:16Z</time>
      </trkpt>
      <trkpt lat="42.5552030" lon="-8.8922550">
        <ele>5.2</ele>
        <time>2020-08-07T17:33:17Z</time>
      </trkpt>
      <trkpt lat="42.5552260" lon="-8.8922370">
        <ele>4.6</ele>
        <time>2020-08-07T17:33:18Z</time>
      </trkpt>
      <trkpt lat="42.5552260" lon="-8.8922370">
        <ele>4.4</ele>
        <time>2020-08-07T17:33:19Z</time>
      </trkpt>
      <trkpt lat="42.5552480" lon="-8.8922260">
        <ele>4.0</ele>
        <time>2020-08-07T17:33:20Z</time>
      </trkpt>
      <trkpt lat="42.5552480" lon="-8.8922260">
        <ele>4.0</ele>
        <time>2020-08-07T17:33:21Z</time>
      </trkpt>
      <trkpt lat="42.5552740" lon="-8.8922140">
        <ele>4.0</ele>
        <time>2020-08-07T17:33:22Z</time>
      </trkpt>
      <trkpt lat="42.5552740" lon="-8.8922140">
        <ele>3.8</ele>
        <time>2020-08-07T17:33:23Z</time>
      </trkpt>
      <trkpt lat="42.5553020" lon="-8.8922060">
        <ele>3.4</ele>
        <time>2020-08-07T17:33:24Z</time>
      </trkpt>
      <trkpt lat="42.5553020" lon="-8.8922060">
        <ele>3.4</ele>
        <time>2020-08-07T17:33:25Z</time>
      </trkpt>
      <trkpt lat="42.5553250" lon="-8.8921980">
        <ele>3.6</ele>
        <time>2020-08-07T17:33:26Z</time>
      </trkpt>
      <trkpt lat="42.5553250" lon="-8.8921980">
        <ele>3.8</ele>
        <time>2020-08-07T17:33:27Z</time>
      </trkpt>
      <trkpt lat="42.5553440" lon="-8.8921970">
        <ele>4.0</ele>
        <time>2020-08-07T17:33:28Z</time>
      </trkpt>
      <trkpt lat="42.5553440" lon="-8.8921970">
        <ele>4.2</ele>
        <time>2020-08-07T17:33:29Z</time>
      </trkpt>
      <trkpt lat="42.5553660" lon="-8.8921920">
        <ele>4.4</ele>
        <time>2020-08-07T17:33:30Z</time>
      </trkpt>
      <trkpt lat="42.5553660" lon="-8.8921920">
        <ele>4.8</ele>
        <time>2020-08-07T17:33:31Z</time>
      </trkpt>
      <trkpt lat="42.5553890" lon="-8.8921860">
        <ele>5.0</ele>
        <time>2020-08-07T17:33:32Z</time>
      </trkpt>
      <trkpt lat="42.5553890" lon="-8.8921860">
        <ele>5.2</ele>
        <time>2020-08-07T17:33:33Z</time>
      </trkpt>
      <trkpt lat="42.5554110" lon="-8.8921770">
        <ele>5.0</ele>
        <time>2020-08-07T17:33:34Z</time>
      </trkpt>
      <trkpt lat="42.5554110" lon="-8.8921770">
        <ele>5.2</ele>
        <time>2020-08-07T17:33:35Z</time>
      </trkpt>
      <trkpt lat="42.5554340" lon="-8.8921630">
        <ele>5.2</ele>
        <time>2020-08-07T17:33:36Z</time>
      </trkpt>
      <trkpt lat="42.5554340" lon="-8.8921630">
        <ele>5.4</ele>
        <time>2020-08-07T17:33:37Z</time>
      </trkpt>
      <trkpt lat="42.5554590" lon="-8.8921480">
        <ele>5.4</ele>
        <time>2020-08-07T17:33:38Z</time>
      </trkpt>
      <trkpt lat="42.5554590" lon="-8.8921480">
        <ele>5.6</ele>
        <time>2020-08-07T17:33:39Z</time>
      </trkpt>
      <trkpt lat="42.5554820" lon="-8.8921380">
        <ele>5.6</ele>
        <time>2020-08-07T17:33:40Z</time>
      </trkpt>
      <trkpt lat="42.5554820" lon="-8.8921380">
        <ele>6.0</ele>
        <time>2020-08-07T17:33:41Z</time>
      </trkpt>
      <trkpt lat="42.5555010" lon="-8.8921280">
        <ele>6.0</ele>
        <time>2020-08-07T17:33:42Z</time>
      </trkpt>
      <trkpt lat="42.5555010" lon="-8.8921280">
        <ele>6.0</ele>
        <time>2020-08-07T17:33:43Z</time>
      </trkpt>
      <trkpt lat="42.5555230" lon="-8.8921200">
        <ele>6.0</ele>
        <time>2020-08-07T17:33:44Z</time>
      </trkpt>
      <trkpt lat="42.5555230" lon="-8.8921200">
        <ele>6.0</ele>
        <time>2020-08-07T17:33:45Z</time>
      </trkpt>
      <trkpt lat="42.5555420" lon="-8.8921070">
        <ele>6.0</ele>
        <time>2020-08-07T17:33:46Z</time>
      </trkpt>
      <trkpt lat="42.5555420" lon="-8.8921070">
        <ele>6.0</ele>
        <time>2020-08-07T17:33:47Z</time>
      </trkpt>
      <trkpt lat="42.5555650" lon="-8.8920940">
        <ele>5.8</ele>
        <time>2020-08-07T17:33:48Z</time>
      </trkpt>
      <trkpt lat="42.5555650" lon="-8.8920940">
        <ele>5.8</ele>
        <time>2020-08-07T17:33:49Z</time>
      </trkpt>
      <trkpt lat="42.5555840" lon="-8.8920820">
        <ele>5.4</ele>
        <time>2020-08-07T17:33:50Z</time>
      </trkpt>
      <trkpt lat="42.5555840" lon="-8.8920820">
        <ele>5.6</ele>
        <time>2020-08-07T17:33:51Z</time>
      </trkpt>
      <trkpt lat="42.5556100" lon="-8.8920670">
        <ele>5.4</ele>
        <time>2020-08-07T17:33:52Z</time>
      </trkpt>
      <trkpt lat="42.5556100" lon="-8.8920670">
        <ele>5.2</ele>
        <time>2020-08-07T17:33:53Z</time>
      </trkpt>
      <trkpt lat="42.5556320" lon="-8.8920540">
        <ele>5.4</ele>
        <time>2020-08-07T17:33:54Z</time>
      </trkpt>
      <trkpt lat="42.5556320" lon="-8.8920540">
        <ele>5.6</ele>
        <time>2020-08-07T17:33:55Z</time>
      </trkpt>
      <trkpt lat="42.5556510" lon="-8.8920480">
        <ele>6.0</ele>
        <time>2020-08-07T17:33:56Z</time>
      </trkpt>
      <trkpt lat="42.5556510" lon="-8.8920480">
        <ele>6.0</ele>
        <time>2020-08-07T17:33:57Z</time>
      </trkpt>
      <trkpt lat="42.5556800" lon="-8.8920340">
        <ele>6.2</ele>
        <time>2020-08-07T17:33:58Z</time>
      </trkpt>
      <trkpt lat="42.5556800" lon="-8.8920340">
        <ele>6.2</ele>
        <time>2020-08-07T17:33:59Z</time>
      </trkpt>
      <trkpt lat="42.5557020" lon="-8.8920230">
        <ele>6.2</ele>
        <time>2020-08-07T17:34:00Z</time>
      </trkpt>
      <trkpt lat="42.5557020" lon="-8.8920230">
        <ele>6.2</ele>
        <time>2020-08-07T17:34:01Z</time>
      </trkpt>
      <trkpt lat="42.5557280" lon="-8.8920080">
        <ele>6.0</ele>
        <time>2020-08-07T17:34:02Z</time>
      </trkpt>
      <trkpt lat="42.5557280" lon="-8.8920080">
        <ele>6.0</ele>
        <time>2020-08-07T17:34:03Z</time>
      </trkpt>
      <trkpt lat="42.5557570" lon="-8.8919960">
        <ele>5.8</ele>
        <time>2020-08-07T17:34:04Z</time>
      </trkpt>
      <trkpt lat="42.5557570" lon="-8.8919960">
        <ele>6.2</ele>
        <time>2020-08-07T17:34:05Z</time>
      </trkpt>
      <trkpt lat="42.5557790" lon="-8.8919900">
        <ele>6.2</ele>
        <time>2020-08-07T17:34:06Z</time>
      </trkpt>
      <trkpt lat="42.5557790" lon="-8.8919900">
        <ele>6.6</ele>
        <time>2020-08-07T17:34:07Z</time>
      </trkpt>
      <trkpt lat="42.5558050" lon="-8.8919850">
        <ele>6.6</ele>
        <time>2020-08-07T17:34:08Z</time>
      </trkpt>
      <trkpt lat="42.5558050" lon="-8.8919850">
        <ele>6.8</ele>
        <time>2020-08-07T17:34:09Z</time>
      </trkpt>
      <trkpt lat="42.5558270" lon="-8.8919780">
        <ele>6.8</ele>
        <time>2020-08-07T17:34:10Z</time>
      </trkpt>
      <trkpt lat="42.5558270" lon="-8.8919780">
        <ele>6.4</ele>
        <time>2020-08-07T17:34:11Z</time>
      </trkpt>
      <trkpt lat="42.5558560" lon="-8.8919740">
        <ele>6.0</ele>
        <time>2020-08-07T17:34:12Z</time>
      </trkpt>
      <trkpt lat="42.5558560" lon="-8.8919740">
        <ele>6.0</ele>
        <time>2020-08-07T17:34:13Z</time>
      </trkpt>
      <trkpt lat="42.5558820" lon="-8.8919670">
        <ele>5.8</ele>
        <time>2020-08-07T17:34:14Z</time>
      </trkpt>
      <trkpt lat="42.5558820" lon="-8.8919670">
        <ele>5.0</ele>
        <time>2020-08-07T17:34:15Z</time>
      </trkpt>
      <trkpt lat="42.5559040" lon="-8.8919600">
        <ele>5.2</ele>
        <time>2020-08-07T17:34:16Z</time>
      </trkpt>
      <trkpt lat="42.5559040" lon="-8.8919600">
        <ele>5.4</ele>
        <time>2020-08-07T17:34:17Z</time>
      </trkpt>
      <trkpt lat="42.5559230" lon="-8.8919430">
        <ele>5.0</ele>
        <time>2020-08-07T17:34:18Z</time>
      </trkpt>
      <trkpt lat="42.5559230" lon="-8.8919430">
        <ele>5.0</ele>
        <time>2020-08-07T17:34:19Z</time>
      </trkpt>
      <trkpt lat="42.5559460" lon="-8.8919340">
        <ele>5.0</ele>
        <time>2020-08-07T17:34:20Z</time>
      </trkpt>
      <trkpt lat="42.5559460" lon="-8.8919340">
        <ele>5.2</ele>
        <time>2020-08-07T17:34:21Z</time>
      </trkpt>
      <trkpt lat="42.5559680" lon="-8.8919260">
        <ele>5.6</ele>
        <time>2020-08-07T17:34:22Z</time>
      </trkpt>
      <trkpt lat="42.5559680" lon="-8.8919260">
        <ele>5.4</ele>
        <time>2020-08-07T17:34:23Z</time>
      </trkpt>
      <trkpt lat="42.5559970" lon="-8.8919200">
        <ele>5.4</ele>
        <time>2020-08-07T17:34:24Z</time>
      </trkpt>
      <trkpt lat="42.5559970" lon="-8.8919200">
        <ele>5.4</ele>
        <time>2020-08-07T17:34:25Z</time>
      </trkpt>
      <trkpt lat="42.5560190" lon="-8.8919150">
        <ele>5.2</ele>
        <time>2020-08-07T17:34:26Z</time>
      </trkpt>
      <trkpt lat="42.5560190" lon="-8.8919150">
        <ele>4.6</ele>
        <time>2020-08-07T17:34:27Z</time>
      </trkpt>
      <trkpt lat="42.5560420" lon="-8.8919050">
        <ele>5.0</ele>
        <time>2020-08-07T17:34:28Z</time>
      </trkpt>
      <trkpt lat="42.5560420" lon="-8.8919050">
        <ele>5.0</ele>
        <time>2020-08-07T17:34:29Z</time>
      </trkpt>
      <trkpt lat="42.5560670" lon="-8.8918960">
        <ele>5.0</ele>
        <time>2020-08-07T17:34:30Z</time>
      </trkpt>
      <trkpt lat="42.5560670" lon="-8.8918960">
        <ele>5.2</ele>
        <time>2020-08-07T17:34:31Z</time>
      </trkpt>
      <trkpt lat="42.5560930" lon="-8.8918900">
        <ele>5.4</ele>
        <time>2020-08-07T17:34:32Z</time>
      </trkpt>
      <trkpt lat="42.5560930" lon="-8.8918900">
        <ele>5.4</ele>
        <time>2020-08-07T17:34:33Z</time>
      </trkpt>
      <trkpt lat="42.5561150" lon="-8.8918820">
        <ele>5.2</ele>
        <time>2020-08-07T17:34:34Z</time>
      </trkpt>
      <trkpt lat="42.5561150" lon="-8.8918820">
        <ele>5.2</ele>
        <time>2020-08-07T17:34:35Z</time>
      </trkpt>
      <trkpt lat="42.5561380" lon="-8.8918780">
        <ele>4.8</ele>
        <time>2020-08-07T17:34:36Z</time>
      </trkpt>
      <trkpt lat="42.5561380" lon="-8.8918780">
        <ele>5.0</ele>
        <time>2020-08-07T17:34:37Z</time>
      </trkpt>
      <trkpt lat="42.5561600" lon="-8.8918690">
        <ele>4.6</ele>
        <time>2020-08-07T17:34:38Z</time>
      </trkpt>
      <trkpt lat="42.5561600" lon="-8.8918690">
        <ele>4.6</ele>
        <time>2020-08-07T17:34:39Z</time>
      </trkpt>
      <trkpt lat="42.5561820" lon="-8.8918550">
        <ele>4.4</ele>
        <time>2020-08-07T17:34:40Z</time>
      </trkpt>
      <trkpt lat="42.5561820" lon="-8.8918550">
        <ele>4.6</ele>
        <time>2020-08-07T17:34:41Z</time>
      </trkpt>
      <trkpt lat="42.5562050" lon="-8.8918460">
        <ele>5.0</ele>
        <time>2020-08-07T17:34:42Z</time>
      </trkpt>
      <trkpt lat="42.5562050" lon="-8.8918460">
        <ele>5.6</ele>
        <time>2020-08-07T17:34:43Z</time>
      </trkpt>
      <trkpt lat="42.5562270" lon="-8.8918350">
        <ele>5.0</ele>
        <time>2020-08-07T17:34:44Z</time>
      </trkpt>
      <trkpt lat="42.5562270" lon="-8.8918350">
        <ele>4.8</ele>
        <time>2020-08-07T17:34:45Z</time>
      </trkpt>
      <trkpt lat="42.5562560" lon="-8.8918240">
        <ele>4.8</ele>
        <time>2020-08-07T17:34:46Z</time>
      </trkpt>
      <trkpt lat="42.5562560" lon="-8.8918240">
        <ele>4.8</ele>
        <time>2020-08-07T17:34:47Z</time>
      </trkpt>
      <trkpt lat="42.5562780" lon="-8.8918140">
        <ele>4.8</ele>
        <time>2020-08-07T17:34:48Z</time>
      </trkpt>
      <trkpt lat="42.5562780" lon="-8.8918140">
        <ele>4.6</ele>
        <time>2020-08-07T17:34:49Z</time>
      </trkpt>
      <trkpt lat="42.5563010" lon="-8.8918020">
        <ele>4.8</ele>
        <time>2020-08-07T17:34:50Z</time>
      </trkpt>
      <trkpt lat="42.5563010" lon="-8.8918020">
        <ele>4.8</ele>
        <time>2020-08-07T17:34:51Z</time>
      </trkpt>
      <trkpt lat="42.5563200" lon="-8.8917940">
        <ele>4.8</ele>
        <time>2020-08-07T17:34:52Z</time>
      </trkpt>
      <trkpt lat="42.5563200" lon="-8.8917940">
        <ele>4.8</ele>
        <time>2020-08-07T17:34:53Z</time>
      </trkpt>
      <trkpt lat="42.5563420" lon="-8.8917850">
        <ele>5.0</ele>
        <time>2020-08-07T17:34:54Z</time>
      </trkpt>
      <trkpt lat="42.5563420" lon="-8.8917850">
        <ele>5.0</ele>
        <time>2020-08-07T17:34:55Z</time>
      </trkpt>
      <trkpt lat="42.5563620" lon="-8.8917750">
        <ele>5.4</ele>
        <time>2020-08-07T17:34:56Z</time>
      </trkpt>
      <trkpt lat="42.5563620" lon="-8.8917750">
        <ele>5.6</ele>
        <time>2020-08-07T17:34:57Z</time>
      </trkpt>
      <trkpt lat="42.5563810" lon="-8.8917660">
        <ele>5.6</ele>
        <time>2020-08-07T17:34:58Z</time>
      </trkpt>
      <trkpt lat="42.5563810" lon="-8.8917660">
        <ele>5.8</ele>
        <time>2020-08-07T17:34:59Z</time>
      </trkpt>
      <trkpt lat="42.5563810" lon="-8.8917660">
        <ele>5.2</ele>
        <time>2020-08-07T17:35:00Z</time>
      </trkpt>
      <trkpt lat="42.5564030" lon="-8.8917530">
        <ele>4.8</ele>
        <time>2020-08-07T17:35:01Z</time>
      </trkpt>
      <trkpt lat="42.5564030" lon="-8.8917530">
        <ele>4.4</ele>
        <time>2020-08-07T17:35:02Z</time>
      </trkpt>
      <trkpt lat="42.5564030" lon="-8.8917530">
        <ele>4.6</ele>
        <time>2020-08-07T17:35:03Z</time>
      </trkpt>
      <trkpt lat="42.5564220" lon="-8.8917400">
        <ele>4.8</ele>
        <time>2020-08-07T17:35:04Z</time>
      </trkpt>
      <trkpt lat="42.5564220" lon="-8.8917400">
        <ele>4.8</ele>
        <time>2020-08-07T17:35:05Z</time>
      </trkpt>
      <trkpt lat="42.5564220" lon="-8.8917400">
        <ele>4.6</ele>
        <time>2020-08-07T17:35:06Z</time>
      </trkpt>
      <trkpt lat="42.5564450" lon="-8.8917240">
        <ele>4.4</ele>
        <time>2020-08-07T17:35:07Z</time>
      </trkpt>
      <trkpt lat="42.5564450" lon="-8.8917240">
        <ele>4.4</ele>
        <time>2020-08-07T17:35:08Z</time>
      </trkpt>
      <trkpt lat="42.5564450" lon="-8.8917240">
        <ele>4.4</ele>
        <time>2020-08-07T17:35:09Z</time>
      </trkpt>
      <trkpt lat="42.5564610" lon="-8.8917130">
        <ele>4.8</ele>
        <time>2020-08-07T17:35:10Z</time>
      </trkpt>
      <trkpt lat="42.5564610" lon="-8.8917130">
        <ele>5.0</ele>
        <time>2020-08-07T17:35:11Z</time>
      </trkpt>
      <trkpt lat="42.5564610" lon="-8.8917130">
        <ele>4.8</ele>
        <time>2020-08-07T17:35:12Z</time>
      </trkpt>
      <trkpt lat="42.5564610" lon="-8.8917130">
        <ele>4.4</ele>
        <time>2020-08-07T17:35:13Z</time>
      </trkpt>
      <trkpt lat="42.5564800" lon="-8.8916990">
        <ele>4.4</ele>
        <time>2020-08-07T17:35:14Z</time>
      </trkpt>
      <trkpt lat="42.5564800" lon="-8.8916990">
        <ele>4.2</ele>
        <time>2020-08-07T17:35:15Z</time>
      </trkpt>
      <trkpt lat="42.5564800" lon="-8.8916990">
        <ele>4.2</ele>
        <time>2020-08-07T17:35:16Z</time>
      </trkpt>
      <trkpt lat="42.5565020" lon="-8.8916830">
        <ele>4.0</ele>
        <time>2020-08-07T17:35:17Z</time>
      </trkpt>
      <trkpt lat="42.5565020" lon="-8.8916830">
        <ele>4.4</ele>
        <time>2020-08-07T17:35:18Z</time>
      </trkpt>
      <trkpt lat="42.5565220" lon="-8.8916780">
        <ele>4.4</ele>
        <time>2020-08-07T17:35:19Z</time>
      </trkpt>
      <trkpt lat="42.5565220" lon="-8.8916780">
        <ele>4.4</ele>
        <time>2020-08-07T17:35:20Z</time>
      </trkpt>
      <trkpt lat="42.5565410" lon="-8.8916730">
        <ele>4.2</ele>
        <time>2020-08-07T17:35:21Z</time>
      </trkpt>
      <trkpt lat="42.5565410" lon="-8.8916730">
        <ele>3.8</ele>
        <time>2020-08-07T17:35:22Z</time>
      </trkpt>
      <trkpt lat="42.5565630" lon="-8.8916680">
        <ele>3.8</ele>
        <time>2020-08-07T17:35:23Z</time>
      </trkpt>
      <trkpt lat="42.5565630" lon="-8.8916680">
        <ele>4.0</ele>
        <time>2020-08-07T17:35:24Z</time>
      </trkpt>
      <trkpt lat="42.5565630" lon="-8.8916680">
        <ele>4.2</ele>
        <time>2020-08-07T17:35:25Z</time>
      </trkpt>
      <trkpt lat="42.5565920" lon="-8.8916600">
        <ele>4.2</ele>
        <time>2020-08-07T17:35:26Z</time>
      </trkpt>
      <trkpt lat="42.5565920" lon="-8.8916600">
        <ele>4.0</ele>
        <time>2020-08-07T17:35:27Z</time>
      </trkpt>
      <trkpt lat="42.5566140" lon="-8.8916570">
        <ele>3.6</ele>
        <time>2020-08-07T17:35:28Z</time>
      </trkpt>
      <trkpt lat="42.5566140" lon="-8.8916570">
        <ele>3.8</ele>
        <time>2020-08-07T17:35:29Z</time>
      </trkpt>
      <trkpt lat="42.5566370" lon="-8.8916550">
        <ele>3.6</ele>
        <time>2020-08-07T17:35:30Z</time>
      </trkpt>
      <trkpt lat="42.5566370" lon="-8.8916550">
        <ele>3.4</ele>
        <time>2020-08-07T17:35:31Z</time>
      </trkpt>
      <trkpt lat="42.5566560" lon="-8.8916520">
        <ele>3.2</ele>
        <time>2020-08-07T17:35:32Z</time>
      </trkpt>
      <trkpt lat="42.5566560" lon="-8.8916520">
        <ele>3.4</ele>
        <time>2020-08-07T17:35:33Z</time>
      </trkpt>
      <trkpt lat="42.5566780" lon="-8.8916480">
        <ele>3.4</ele>
        <time>2020-08-07T17:35:34Z</time>
      </trkpt>
      <trkpt lat="42.5566780" lon="-8.8916480">
        <ele>3.6</ele>
        <time>2020-08-07T17:35:35Z</time>
      </trkpt>
      <trkpt lat="42.5566980" lon="-8.8916460">
        <ele>3.8</ele>
        <time>2020-08-07T17:35:36Z</time>
      </trkpt>
      <trkpt lat="42.5566980" lon="-8.8916460">
        <ele>4.0</ele>
        <time>2020-08-07T17:35:37Z</time>
      </trkpt>
      <trkpt lat="42.5567200" lon="-8.8916430">
        <ele>4.0</ele>
        <time>2020-08-07T17:35:38Z</time>
      </trkpt>
      <trkpt lat="42.5567200" lon="-8.8916430">
        <ele>4.4</ele>
        <time>2020-08-07T17:35:39Z</time>
      </trkpt>
      <trkpt lat="42.5567390" lon="-8.8916400">
        <ele>4.4</ele>
        <time>2020-08-07T17:35:40Z</time>
      </trkpt>
      <trkpt lat="42.5567390" lon="-8.8916400">
        <ele>4.6</ele>
        <time>2020-08-07T17:35:41Z</time>
      </trkpt>
      <trkpt lat="42.5567620" lon="-8.8916370">
        <ele>4.8</ele>
        <time>2020-08-07T17:35:42Z</time>
      </trkpt>
      <trkpt lat="42.5567620" lon="-8.8916370">
        <ele>5.2</ele>
        <time>2020-08-07T17:35:43Z</time>
      </trkpt>
      <trkpt lat="42.5567810" lon="-8.8916300">
        <ele>5.2</ele>
        <time>2020-08-07T17:35:44Z</time>
      </trkpt>
      <trkpt lat="42.5567810" lon="-8.8916300">
        <ele>5.2</ele>
        <time>2020-08-07T17:35:45Z</time>
      </trkpt>
      <trkpt lat="42.5568030" lon="-8.8916200">
        <ele>5.4</ele>
        <time>2020-08-07T17:35:46Z</time>
      </trkpt>
      <trkpt lat="42.5568030" lon="-8.8916200">
        <ele>5.4</ele>
        <time>2020-08-07T17:35:47Z</time>
      </trkpt>
      <trkpt lat="42.5568290" lon="-8.8916100">
        <ele>5.6</ele>
        <time>2020-08-07T17:35:48Z</time>
      </trkpt>
      <trkpt lat="42.5568290" lon="-8.8916100">
        <ele>5.4</ele>
        <time>2020-08-07T17:35:49Z</time>
      </trkpt>
      <trkpt lat="42.5568510" lon="-8.8915980">
        <ele>5.4</ele>
        <time>2020-08-07T17:35:50Z</time>
      </trkpt>
      <trkpt lat="42.5568510" lon="-8.8915980">
        <ele>5.2</ele>
        <time>2020-08-07T17:35:51Z</time>
      </trkpt>
      <trkpt lat="42.5568740" lon="-8.8915860">
        <ele>5.4</ele>
        <time>2020-08-07T17:35:52Z</time>
      </trkpt>
      <trkpt lat="42.5568740" lon="-8.8915860">
        <ele>5.2</ele>
        <time>2020-08-07T17:35:53Z</time>
      </trkpt>
      <trkpt lat="42.5568960" lon="-8.8915730">
        <ele>5.0</ele>
        <time>2020-08-07T17:35:54Z</time>
      </trkpt>
      <trkpt lat="42.5568960" lon="-8.8915730">
        <ele>4.8</ele>
        <time>2020-08-07T17:35:55Z</time>
      </trkpt>
      <trkpt lat="42.5569180" lon="-8.8915620">
        <ele>4.8</ele>
        <time>2020-08-07T17:35:56Z</time>
      </trkpt>
      <trkpt lat="42.5569180" lon="-8.8915620">
        <ele>4.8</ele>
        <time>2020-08-07T17:35:57Z</time>
      </trkpt>
      <trkpt lat="42.5569470" lon="-8.8915530">
        <ele>4.4</ele>
        <time>2020-08-07T17:35:58Z</time>
      </trkpt>
      <trkpt lat="42.5569470" lon="-8.8915530">
        <ele>4.2</ele>
        <time>2020-08-07T17:35:59Z</time>
      </trkpt>
      <trkpt lat="42.5569660" lon="-8.8915500">
        <ele>4.4</ele>
        <time>2020-08-07T17:36:00Z</time>
      </trkpt>
      <trkpt lat="42.5569660" lon="-8.8915500">
        <ele>4.4</ele>
        <time>2020-08-07T17:36:01Z</time>
      </trkpt>
      <trkpt lat="42.5569890" lon="-8.8915460">
        <ele>4.2</ele>
        <time>2020-08-07T17:36:02Z</time>
      </trkpt>
      <trkpt lat="42.5569890" lon="-8.8915460">
        <ele>4.4</ele>
        <time>2020-08-07T17:36:03Z</time>
      </trkpt>
      <trkpt lat="42.5570080" lon="-8.8915430">
        <ele>4.8</ele>
        <time>2020-08-07T17:36:04Z</time>
      </trkpt>
      <trkpt lat="42.5570080" lon="-8.8915430">
        <ele>5.2</ele>
        <time>2020-08-07T17:36:05Z</time>
      </trkpt>
      <trkpt lat="42.5570300" lon="-8.8915420">
        <ele>5.4</ele>
        <time>2020-08-07T17:36:06Z</time>
      </trkpt>
      <trkpt lat="42.5570300" lon="-8.8915420">
        <ele>5.4</ele>
        <time>2020-08-07T17:36:07Z</time>
      </trkpt>
      <trkpt lat="42.5570560" lon="-8.8915300">
        <ele>5.0</ele>
        <time>2020-08-07T17:36:08Z</time>
      </trkpt>
      <trkpt lat="42.5570560" lon="-8.8915300">
        <ele>4.6</ele>
        <time>2020-08-07T17:36:09Z</time>
      </trkpt>
      <trkpt lat="42.5570780" lon="-8.8915190">
        <ele>4.6</ele>
        <time>2020-08-07T17:36:10Z</time>
      </trkpt>
      <trkpt lat="42.5570780" lon="-8.8915190">
        <ele>4.6</ele>
        <time>2020-08-07T17:36:11Z</time>
      </trkpt>
      <trkpt lat="42.5571010" lon="-8.8915080">
        <ele>4.8</ele>
        <time>2020-08-07T17:36:12Z</time>
      </trkpt>
      <trkpt lat="42.5571010" lon="-8.8915080">
        <ele>5.4</ele>
        <time>2020-08-07T17:36:13Z</time>
      </trkpt>
      <trkpt lat="42.5571200" lon="-8.8915010">
        <ele>5.2</ele>
        <time>2020-08-07T17:36:14Z</time>
      </trkpt>
      <trkpt lat="42.5571200" lon="-8.8915010">
        <ele>5.2</ele>
        <time>2020-08-07T17:36:15Z</time>
      </trkpt>
      <trkpt lat="42.5571390" lon="-8.8914940">
        <ele>5.0</ele>
        <time>2020-08-07T17:36:16Z</time>
      </trkpt>
      <trkpt lat="42.5571390" lon="-8.8914940">
        <ele>5.4</ele>
        <time>2020-08-07T17:36:17Z</time>
      </trkpt>
      <trkpt lat="42.5571680" lon="-8.8914880">
        <ele>5.4</ele>
        <time>2020-08-07T17:36:18Z</time>
      </trkpt>
      <trkpt lat="42.5571680" lon="-8.8914880">
        <ele>5.4</ele>
        <time>2020-08-07T17:36:19Z</time>
      </trkpt>
      <trkpt lat="42.5571900" lon="-8.8914810">
        <ele>5.4</ele>
        <time>2020-08-07T17:36:20Z</time>
      </trkpt>
      <trkpt lat="42.5571900" lon="-8.8914810">
        <ele>6.0</ele>
        <time>2020-08-07T17:36:21Z</time>
      </trkpt>
      <trkpt lat="42.5572160" lon="-8.8914740">
        <ele>6.0</ele>
        <time>2020-08-07T17:36:22Z</time>
      </trkpt>
      <trkpt lat="42.5572160" lon="-8.8914740">
        <ele>6.2</ele>
        <time>2020-08-07T17:36:23Z</time>
      </trkpt>
      <trkpt lat="42.5572380" lon="-8.8914770">
        <ele>6.8</ele>
        <time>2020-08-07T17:36:24Z</time>
      </trkpt>
      <trkpt lat="42.5572380" lon="-8.8914770">
        <ele>7.0</ele>
        <time>2020-08-07T17:36:25Z</time>
      </trkpt>
      <trkpt lat="42.5572670" lon="-8.8914720">
        <ele>7.0</ele>
        <time>2020-08-07T17:36:26Z</time>
      </trkpt>
      <trkpt lat="42.5572670" lon="-8.8914720">
        <ele>7.0</ele>
        <time>2020-08-07T17:36:27Z</time>
      </trkpt>
      <trkpt lat="42.5572900" lon="-8.8914630">
        <ele>7.0</ele>
        <time>2020-08-07T17:36:28Z</time>
      </trkpt>
      <trkpt lat="42.5572900" lon="-8.8914630">
        <ele>6.6</ele>
        <time>2020-08-07T17:36:29Z</time>
      </trkpt>
      <trkpt lat="42.5573120" lon="-8.8914570">
        <ele>6.8</ele>
        <time>2020-08-07T17:36:30Z</time>
      </trkpt>
      <trkpt lat="42.5573120" lon="-8.8914570">
        <ele>6.8</ele>
        <time>2020-08-07T17:36:31Z</time>
      </trkpt>
      <trkpt lat="42.5573380" lon="-8.8914480">
        <ele>6.6</ele>
        <time>2020-08-07T17:36:32Z</time>
      </trkpt>
      <trkpt lat="42.5573380" lon="-8.8914480">
        <ele>6.4</ele>
        <time>2020-08-07T17:36:33Z</time>
      </trkpt>
      <trkpt lat="42.5573660" lon="-8.8914380">
        <ele>6.0</ele>
        <time>2020-08-07T17:36:34Z</time>
      </trkpt>
      <trkpt lat="42.5573660" lon="-8.8914380">
        <ele>5.8</ele>
        <time>2020-08-07T17:36:35Z</time>
      </trkpt>
      <trkpt lat="42.5573890" lon="-8.8914370">
        <ele>5.6</ele>
        <time>2020-08-07T17:36:36Z</time>
      </trkpt>
      <trkpt lat="42.5573890" lon="-8.8914370">
        <ele>5.6</ele>
        <time>2020-08-07T17:36:37Z</time>
      </trkpt>
      <trkpt lat="42.5574140" lon="-8.8914380">
        <ele>5.6</ele>
        <time>2020-08-07T17:36:38Z</time>
      </trkpt>
      <trkpt lat="42.5574140" lon="-8.8914380">
        <ele>5.6</ele>
        <time>2020-08-07T17:36:39Z</time>
      </trkpt>
      <trkpt lat="42.5574430" lon="-8.8914380">
        <ele>5.0</ele>
        <time>2020-08-07T17:36:40Z</time>
      </trkpt>
      <trkpt lat="42.5574430" lon="-8.8914380">
        <ele>4.6</ele>
        <time>2020-08-07T17:36:41Z</time>
      </trkpt>
      <trkpt lat="42.5574690" lon="-8.8914380">
        <ele>4.8</ele>
        <time>2020-08-07T17:36:42Z</time>
      </trkpt>
      <trkpt lat="42.5574690" lon="-8.8914380">
        <ele>4.8</ele>
        <time>2020-08-07T17:36:43Z</time>
      </trkpt>
      <trkpt lat="42.5574940" lon="-8.8914340">
        <ele>4.8</ele>
        <time>2020-08-07T17:36:44Z</time>
      </trkpt>
      <trkpt lat="42.5574940" lon="-8.8914340">
        <ele>5.0</ele>
        <time>2020-08-07T17:36:45Z</time>
      </trkpt>
      <trkpt lat="42.5575230" lon="-8.8914320">
        <ele>5.2</ele>
        <time>2020-08-07T17:36:46Z</time>
      </trkpt>
      <trkpt lat="42.5575230" lon="-8.8914320">
        <ele>5.2</ele>
        <time>2020-08-07T17:36:47Z</time>
      </trkpt>
      <trkpt lat="42.5575460" lon="-8.8914280">
        <ele>5.6</ele>
        <time>2020-08-07T17:36:48Z</time>
      </trkpt>
      <trkpt lat="42.5575460" lon="-8.8914280">
        <ele>5.8</ele>
        <time>2020-08-07T17:36:49Z</time>
      </trkpt>
      <trkpt lat="42.5575680" lon="-8.8914250">
        <ele>6.4</ele>
        <time>2020-08-07T17:36:50Z</time>
      </trkpt>
      <trkpt lat="42.5575680" lon="-8.8914250">
        <ele>6.6</ele>
        <time>2020-08-07T17:36:51Z</time>
      </trkpt>
      <trkpt lat="42.5575900" lon="-8.8914220">
        <ele>6.6</ele>
        <time>2020-08-07T17:36:52Z</time>
      </trkpt>
      <trkpt lat="42.5575900" lon="-8.8914220">
        <ele>6.6</ele>
        <time>2020-08-07T17:36:53Z</time>
      </trkpt>
      <trkpt lat="42.5576160" lon="-8.8914170">
        <ele>6.0</ele>
        <time>2020-08-07T17:36:54Z</time>
      </trkpt>
      <trkpt lat="42.5576160" lon="-8.8914170">
        <ele>6.0</ele>
        <time>2020-08-07T17:36:55Z</time>
      </trkpt>
      <trkpt lat="42.5576420" lon="-8.8914120">
        <ele>6.0</ele>
        <time>2020-08-07T17:36:56Z</time>
      </trkpt>
      <trkpt lat="42.5576420" lon="-8.8914120">
        <ele>6.2</ele>
        <time>2020-08-07T17:36:57Z</time>
      </trkpt>
      <trkpt lat="42.5576640" lon="-8.8914030">
        <ele>6.0</ele>
        <time>2020-08-07T17:36:58Z</time>
      </trkpt>
      <trkpt lat="42.5576640" lon="-8.8914030">
        <ele>5.8</ele>
        <time>2020-08-07T17:36:59Z</time>
      </trkpt>
      <trkpt lat="42.5576900" lon="-8.8914030">
        <ele>5.8</ele>
        <time>2020-08-07T17:37:00Z</time>
      </trkpt>
      <trkpt lat="42.5576900" lon="-8.8914030">
        <ele>5.8</ele>
        <time>2020-08-07T17:37:01Z</time>
      </trkpt>
      <trkpt lat="42.5577150" lon="-8.8913980">
        <ele>5.6</ele>
        <time>2020-08-07T17:37:02Z</time>
      </trkpt>
      <trkpt lat="42.5577150" lon="-8.8913980">
        <ele>5.4</ele>
        <time>2020-08-07T17:37:03Z</time>
      </trkpt>
      <trkpt lat="42.5577440" lon="-8.8913940">
        <ele>5.2</ele>
        <time>2020-08-07T17:37:04Z</time>
      </trkpt>
      <trkpt lat="42.5577440" lon="-8.8913940">
        <ele>5.0</ele>
        <time>2020-08-07T17:37:05Z</time>
      </trkpt>
      <trkpt lat="42.5577660" lon="-8.8913880">
        <ele>5.4</ele>
        <time>2020-08-07T17:37:06Z</time>
      </trkpt>
      <trkpt lat="42.5577660" lon="-8.8913880">
        <ele>5.4</ele>
        <time>2020-08-07T17:37:07Z</time>
      </trkpt>
      <trkpt lat="42.5577890" lon="-8.8913850">
        <ele>5.6</ele>
        <time>2020-08-07T17:37:08Z</time>
      </trkpt>
      <trkpt lat="42.5577890" lon="-8.8913850">
        <ele>5.8</ele>
        <time>2020-08-07T17:37:09Z</time>
      </trkpt>
      <trkpt lat="42.5578080" lon="-8.8913780">
        <ele>6.0</ele>
        <time>2020-08-07T17:37:10Z</time>
      </trkpt>
      <trkpt lat="42.5578080" lon="-8.8913780">
        <ele>6.2</ele>
        <time>2020-08-07T17:37:11Z</time>
      </trkpt>
      <trkpt lat="42.5578300" lon="-8.8913740">
        <ele>6.0</ele>
        <time>2020-08-07T17:37:12Z</time>
      </trkpt>
      <trkpt lat="42.5578300" lon="-8.8913740">
        <ele>5.8</ele>
        <time>2020-08-07T17:37:13Z</time>
      </trkpt>
      <trkpt lat="42.5578560" lon="-8.8913720">
        <ele>5.6</ele>
        <time>2020-08-07T17:37:14Z</time>
      </trkpt>
      <trkpt lat="42.5578560" lon="-8.8913720">
        <ele>5.2</ele>
        <time>2020-08-07T17:37:15Z</time>
      </trkpt>
      <trkpt lat="42.5578820" lon="-8.8913740">
        <ele>5.2</ele>
        <time>2020-08-07T17:37:16Z</time>
      </trkpt>
      <trkpt lat="42.5578820" lon="-8.8913740">
        <ele>5.4</ele>
        <time>2020-08-07T17:37:17Z</time>
      </trkpt>
      <trkpt lat="42.5579010" lon="-8.8913650">
        <ele>5.6</ele>
        <time>2020-08-07T17:37:18Z</time>
      </trkpt>
      <trkpt lat="42.5579010" lon="-8.8913650">
        <ele>5.8</ele>
        <time>2020-08-07T17:37:19Z</time>
      </trkpt>
      <trkpt lat="42.5579230" lon="-8.8913540">
        <ele>5.6</ele>
        <time>2020-08-07T17:37:20Z</time>
      </trkpt>
      <trkpt lat="42.5579230" lon="-8.8913540">
        <ele>5.2</ele>
        <time>2020-08-07T17:37:21Z</time>
      </trkpt>
      <trkpt lat="42.5579460" lon="-8.8913520">
        <ele>5.2</ele>
        <time>2020-08-07T17:37:22Z</time>
      </trkpt>
      <trkpt lat="42.5579460" lon="-8.8913520">
        <ele>5.0</ele>
        <time>2020-08-07T17:37:23Z</time>
      </trkpt>
      <trkpt lat="42.5579680" lon="-8.8913500">
        <ele>5.2</ele>
        <time>2020-08-07T17:37:24Z</time>
      </trkpt>
      <trkpt lat="42.5579680" lon="-8.8913500">
        <ele>5.2</ele>
        <time>2020-08-07T17:37:25Z</time>
      </trkpt>
      <trkpt lat="42.5579900" lon="-8.8913500">
        <ele>5.2</ele>
        <time>2020-08-07T17:37:26Z</time>
      </trkpt>
      <trkpt lat="42.5579900" lon="-8.8913500">
        <ele>5.0</ele>
        <time>2020-08-07T17:37:27Z</time>
      </trkpt>
      <trkpt lat="42.5580190" lon="-8.8913430">
        <ele>5.0</ele>
        <time>2020-08-07T17:37:28Z</time>
      </trkpt>
      <trkpt lat="42.5580190" lon="-8.8913430">
        <ele>5.0</ele>
        <time>2020-08-07T17:37:29Z</time>
      </trkpt>
      <trkpt lat="42.5580420" lon="-8.8913370">
        <ele>4.6</ele>
        <time>2020-08-07T17:37:30Z</time>
      </trkpt>
      <trkpt lat="42.5580420" lon="-8.8913370">
        <ele>4.8</ele>
        <time>2020-08-07T17:37:31Z</time>
      </trkpt>
      <trkpt lat="42.5580640" lon="-8.8913320">
        <ele>4.8</ele>
        <time>2020-08-07T17:37:32Z</time>
      </trkpt>
      <trkpt lat="42.5580640" lon="-8.8913320">
        <ele>5.0</ele>
        <time>2020-08-07T17:37:33Z</time>
      </trkpt>
      <trkpt lat="42.5580900" lon="-8.8913300">
        <ele>5.0</ele>
        <time>2020-08-07T17:37:34Z</time>
      </trkpt>
      <trkpt lat="42.5580900" lon="-8.8913300">
        <ele>4.8</ele>
        <time>2020-08-07T17:37:35Z</time>
      </trkpt>
      <trkpt lat="42.5581120" lon="-8.8913290">
        <ele>5.0</ele>
        <time>2020-08-07T17:37:36Z</time>
      </trkpt>
      <trkpt lat="42.5581120" lon="-8.8913290">
        <ele>5.2</ele>
        <time>2020-08-07T17:37:37Z</time>
      </trkpt>
      <trkpt lat="42.5581410" lon="-8.8913270">
        <ele>5.4</ele>
        <time>2020-08-07T17:37:38Z</time>
      </trkpt>
      <trkpt lat="42.5581410" lon="-8.8913270">
        <ele>5.2</ele>
        <time>2020-08-07T17:37:39Z</time>
      </trkpt>
      <trkpt lat="42.5581630" lon="-8.8913180">
        <ele>5.4</ele>
        <time>2020-08-07T17:37:40Z</time>
      </trkpt>
      <trkpt lat="42.5581630" lon="-8.8913180">
        <ele>5.2</ele>
        <time>2020-08-07T17:37:41Z</time>
      </trkpt>
      <trkpt lat="42.5581890" lon="-8.8913100">
        <ele>5.0</ele>
        <time>2020-08-07T17:37:42Z</time>
      </trkpt>
      <trkpt lat="42.5581890" lon="-8.8913100">
        <ele>5.2</ele>
        <time>2020-08-07T17:37:43Z</time>
      </trkpt>
      <trkpt lat="42.5582180" lon="-8.8913100">
        <ele>5.0</ele>
        <time>2020-08-07T17:37:44Z</time>
      </trkpt>
      <trkpt lat="42.5582180" lon="-8.8913100">
        <ele>4.8</ele>
        <time>2020-08-07T17:37:45Z</time>
      </trkpt>
      <trkpt lat="42.5582430" lon="-8.8913080">
        <ele>4.8</ele>
        <time>2020-08-07T17:37:46Z</time>
      </trkpt>
      <trkpt lat="42.5582430" lon="-8.8913080">
        <ele>4.8</ele>
        <time>2020-08-07T17:37:47Z</time>
      </trkpt>
      <trkpt lat="42.5582690" lon="-8.8913070">
        <ele>5.0</ele>
        <time>2020-08-07T17:37:48Z</time>
      </trkpt>
      <trkpt lat="42.5582690" lon="-8.8913070">
        <ele>5.0</ele>
        <time>2020-08-07T17:37:49Z</time>
      </trkpt>
      <trkpt lat="42.5582910" lon="-8.8913020">
        <ele>4.8</ele>
        <time>2020-08-07T17:37:50Z</time>
      </trkpt>
      <trkpt lat="42.5582910" lon="-8.8913020">
        <ele>4.6</ele>
        <time>2020-08-07T17:37:51Z</time>
      </trkpt>
      <trkpt lat="42.5583170" lon="-8.8912980">
        <ele>4.2</ele>
        <time>2020-08-07T17:37:52Z</time>
      </trkpt>
      <trkpt lat="42.5583170" lon="-8.8912980">
        <ele>4.2</ele>
        <time>2020-08-07T17:37:53Z</time>
      </trkpt>
      <trkpt lat="42.5583420" lon="-8.8912940">
        <ele>4.0</ele>
        <time>2020-08-07T17:37:54Z</time>
      </trkpt>
      <trkpt lat="42.5583420" lon="-8.8912940">
        <ele>4.4</ele>
        <time>2020-08-07T17:37:55Z</time>
      </trkpt>
      <trkpt lat="42.5583650" lon="-8.8912900">
        <ele>4.4</ele>
        <time>2020-08-07T17:37:56Z</time>
      </trkpt>
      <trkpt lat="42.5583650" lon="-8.8912900">
        <ele>4.4</ele>
        <time>2020-08-07T17:37:57Z</time>
      </trkpt>
      <trkpt lat="42.5583900" lon="-8.8912820">
        <ele>4.4</ele>
        <time>2020-08-07T17:37:58Z</time>
      </trkpt>
      <trkpt lat="42.5583900" lon="-8.8912820">
        <ele>4.6</ele>
        <time>2020-08-07T17:37:59Z</time>
      </trkpt>
      <trkpt lat="42.5584100" lon="-8.8912820">
        <ele>4.8</ele>
        <time>2020-08-07T17:38:00Z</time>
      </trkpt>
      <trkpt lat="42.5584100" lon="-8.8912820">
        <ele>4.6</ele>
        <time>2020-08-07T17:38:01Z</time>
      </trkpt>
      <trkpt lat="42.5584320" lon="-8.8912870">
        <ele>4.8</ele>
        <time>2020-08-07T17:38:02Z</time>
      </trkpt>
      <trkpt lat="42.5584320" lon="-8.8912870">
        <ele>4.4</ele>
        <time>2020-08-07T17:38:03Z</time>
      </trkpt>
      <trkpt lat="42.5584610" lon="-8.8912890">
        <ele>4.6</ele>
        <time>2020-08-07T17:38:04Z</time>
      </trkpt>
      <trkpt lat="42.5584610" lon="-8.8912890">
        <ele>4.8</ele>
        <time>2020-08-07T17:38:05Z</time>
      </trkpt>
      <trkpt lat="42.5584860" lon="-8.8912900">
        <ele>4.8</ele>
        <time>2020-08-07T17:38:06Z</time>
      </trkpt>
      <trkpt lat="42.5584860" lon="-8.8912900">
        <ele>4.8</ele>
        <time>2020-08-07T17:38:07Z</time>
      </trkpt>
      <trkpt lat="42.5585150" lon="-8.8912920">
        <ele>5.0</ele>
        <time>2020-08-07T17:38:08Z</time>
      </trkpt>
      <trkpt lat="42.5585150" lon="-8.8912920">
        <ele>5.0</ele>
        <time>2020-08-07T17:38:09Z</time>
      </trkpt>
      <trkpt lat="42.5585380" lon="-8.8912900">
        <ele>5.2</ele>
        <time>2020-08-07T17:38:10Z</time>
      </trkpt>
      <trkpt lat="42.5585380" lon="-8.8912900">
        <ele>5.4</ele>
        <time>2020-08-07T17:38:11Z</time>
      </trkpt>
      <trkpt lat="42.5585630" lon="-8.8912870">
        <ele>5.0</ele>
        <time>2020-08-07T17:38:12Z</time>
      </trkpt>
      <trkpt lat="42.5585630" lon="-8.8912870">
        <ele>5.2</ele>
        <time>2020-08-07T17:38:13Z</time>
      </trkpt>
      <trkpt lat="42.5585890" lon="-8.8912890">
        <ele>5.4</ele>
        <time>2020-08-07T17:38:14Z</time>
      </trkpt>
      <trkpt lat="42.5585890" lon="-8.8912890">
        <ele>5.4</ele>
        <time>2020-08-07T17:38:15Z</time>
      </trkpt>
      <trkpt lat="42.5586180" lon="-8.8912850">
        <ele>5.2</ele>
        <time>2020-08-07T17:38:16Z</time>
      </trkpt>
      <trkpt lat="42.5586180" lon="-8.8912850">
        <ele>5.2</ele>
        <time>2020-08-07T17:38:17Z</time>
      </trkpt>
      <trkpt lat="42.5586430" lon="-8.8912820">
        <ele>5.4</ele>
        <time>2020-08-07T17:38:18Z</time>
      </trkpt>
      <trkpt lat="42.5586430" lon="-8.8912820">
        <ele>5.2</ele>
        <time>2020-08-07T17:38:19Z</time>
      </trkpt>
      <trkpt lat="42.5586690" lon="-8.8912780">
        <ele>5.2</ele>
        <time>2020-08-07T17:38:20Z</time>
      </trkpt>
      <trkpt lat="42.5586690" lon="-8.8912780">
        <ele>5.0</ele>
        <time>2020-08-07T17:38:21Z</time>
      </trkpt>
      <trkpt lat="42.5586980" lon="-8.8912740">
        <ele>5.0</ele>
        <time>2020-08-07T17:38:22Z</time>
      </trkpt>
      <trkpt lat="42.5586980" lon="-8.8912740">
        <ele>4.8</ele>
        <time>2020-08-07T17:38:23Z</time>
      </trkpt>
      <trkpt lat="42.5587200" lon="-8.8912690">
        <ele>4.8</ele>
        <time>2020-08-07T17:38:24Z</time>
      </trkpt>
      <trkpt lat="42.5587200" lon="-8.8912690">
        <ele>4.8</ele>
        <time>2020-08-07T17:38:25Z</time>
      </trkpt>
      <trkpt lat="42.5587460" lon="-8.8912670">
        <ele>5.0</ele>
        <time>2020-08-07T17:38:26Z</time>
      </trkpt>
      <trkpt lat="42.5587460" lon="-8.8912670">
        <ele>4.8</ele>
        <time>2020-08-07T17:38:27Z</time>
      </trkpt>
      <trkpt lat="42.5587650" lon="-8.8912670">
        <ele>4.6</ele>
        <time>2020-08-07T17:38:28Z</time>
      </trkpt>
      <trkpt lat="42.5587650" lon="-8.8912670">
        <ele>5.0</ele>
        <time>2020-08-07T17:38:29Z</time>
      </trkpt>
      <trkpt lat="42.5587840" lon="-8.8912630">
        <ele>5.0</ele>
        <time>2020-08-07T17:38:30Z</time>
      </trkpt>
      <trkpt lat="42.5587840" lon="-8.8912630">
        <ele>4.8</ele>
        <time>2020-08-07T17:38:31Z</time>
      </trkpt>
      <trkpt lat="42.5588030" lon="-8.8912580">
        <ele>5.0</ele>
        <time>2020-08-07T17:38:32Z</time>
      </trkpt>
      <trkpt lat="42.5588030" lon="-8.8912580">
        <ele>5.2</ele>
        <time>2020-08-07T17:38:33Z</time>
      </trkpt>
      <trkpt lat="42.5588220" lon="-8.8912550">
        <ele>5.2</ele>
        <time>2020-08-07T17:38:34Z</time>
      </trkpt>
      <trkpt lat="42.5588220" lon="-8.8912550">
        <ele>5.0</ele>
        <time>2020-08-07T17:38:35Z</time>
      </trkpt>
      <trkpt lat="42.5588420" lon="-8.8912510">
        <ele>5.0</ele>
        <time>2020-08-07T17:38:36Z</time>
      </trkpt>
      <trkpt lat="42.5588420" lon="-8.8912510">
        <ele>5.2</ele>
        <time>2020-08-07T17:38:37Z</time>
      </trkpt>
      <trkpt lat="42.5588640" lon="-8.8912500">
        <ele>5.6</ele>
        <time>2020-08-07T17:38:38Z</time>
      </trkpt>
      <trkpt lat="42.5588640" lon="-8.8912500">
        <ele>5.6</ele>
        <time>2020-08-07T17:38:39Z</time>
      </trkpt>
      <trkpt lat="42.5588830" lon="-8.8912450">
        <ele>5.6</ele>
        <time>2020-08-07T17:38:40Z</time>
      </trkpt>
      <trkpt lat="42.5588830" lon="-8.8912450">
        <ele>5.6</ele>
        <time>2020-08-07T17:38:41Z</time>
      </trkpt>
      <trkpt lat="42.5589020" lon="-8.8912420">
        <ele>5.8</ele>
        <time>2020-08-07T17:38:42Z</time>
      </trkpt>
      <trkpt lat="42.5589020" lon="-8.8912420">
        <ele>5.8</ele>
        <time>2020-08-07T17:38:43Z</time>
      </trkpt>
      <trkpt lat="42.5589250" lon="-8.8912340">
        <ele>5.6</ele>
        <time>2020-08-07T17:38:44Z</time>
      </trkpt>
      <trkpt lat="42.5589250" lon="-8.8912340">
        <ele>5.4</ele>
        <time>2020-08-07T17:38:45Z</time>
      </trkpt>
      <trkpt lat="42.5589470" lon="-8.8912300">
        <ele>5.4</ele>
        <time>2020-08-07T17:38:46Z</time>
      </trkpt>
      <trkpt lat="42.5589470" lon="-8.8912300">
        <ele>5.4</ele>
        <time>2020-08-07T17:38:47Z</time>
      </trkpt>
      <trkpt lat="42.5589470" lon="-8.8912300">
        <ele>5.4</ele>
        <time>2020-08-07T17:38:48Z</time>
      </trkpt>
      <trkpt lat="42.5589760" lon="-8.8912200">
        <ele>5.4</ele>
        <time>2020-08-07T17:38:49Z</time>
      </trkpt>
      <trkpt lat="42.5589760" lon="-8.8912200">
        <ele>5.4</ele>
        <time>2020-08-07T17:38:50Z</time>
      </trkpt>
      <trkpt lat="42.5589950" lon="-8.8912150">
        <ele>5.4</ele>
        <time>2020-08-07T17:38:51Z</time>
      </trkpt>
      <trkpt lat="42.5589950" lon="-8.8912150">
        <ele>5.4</ele>
        <time>2020-08-07T17:38:52Z</time>
      </trkpt>
      <trkpt lat="42.5590180" lon="-8.8912050">
        <ele>5.0</ele>
        <time>2020-08-07T17:38:53Z</time>
      </trkpt>
      <trkpt lat="42.5590180" lon="-8.8912050">
        <ele>5.4</ele>
        <time>2020-08-07T17:38:54Z</time>
      </trkpt>
      <trkpt lat="42.5590370" lon="-8.8911980">
        <ele>5.4</ele>
        <time>2020-08-07T17:38:55Z</time>
      </trkpt>
      <trkpt lat="42.5590370" lon="-8.8911980">
        <ele>5.8</ele>
        <time>2020-08-07T17:38:56Z</time>
      </trkpt>
      <trkpt lat="42.5590370" lon="-8.8911980">
        <ele>6.0</ele>
        <time>2020-08-07T17:38:57Z</time>
      </trkpt>
      <trkpt lat="42.5590620" lon="-8.8911830">
        <ele>6.2</ele>
        <time>2020-08-07T17:38:58Z</time>
      </trkpt>
      <trkpt lat="42.5590620" lon="-8.8911830">
        <ele>6.2</ele>
        <time>2020-08-07T17:38:59Z</time>
      </trkpt>
      <trkpt lat="42.5590820" lon="-8.8911740">
        <ele>6.0</ele>
        <time>2020-08-07T17:39:00Z</time>
      </trkpt>
      <trkpt lat="42.5590820" lon="-8.8911740">
        <ele>5.6</ele>
        <time>2020-08-07T17:39:01Z</time>
      </trkpt>
      <trkpt lat="42.5591040" lon="-8.8911600">
        <ele>5.8</ele>
        <time>2020-08-07T17:39:02Z</time>
      </trkpt>
      <trkpt lat="42.5591040" lon="-8.8911600">
        <ele>5.8</ele>
        <time>2020-08-07T17:39:03Z</time>
      </trkpt>
      <trkpt lat="42.5591260" lon="-8.8911450">
        <ele>5.4</ele>
        <time>2020-08-07T17:39:04Z</time>
      </trkpt>
      <trkpt lat="42.5591260" lon="-8.8911450">
        <ele>5.0</ele>
        <time>2020-08-07T17:39:05Z</time>
      </trkpt>
      <trkpt lat="42.5591460" lon="-8.8911290">
        <ele>5.0</ele>
        <time>2020-08-07T17:39:06Z</time>
      </trkpt>
      <trkpt lat="42.5591460" lon="-8.8911290">
        <ele>5.4</ele>
        <time>2020-08-07T17:39:07Z</time>
      </trkpt>
      <trkpt lat="42.5591710" lon="-8.8911170">
        <ele>5.4</ele>
        <time>2020-08-07T17:39:08Z</time>
      </trkpt>
      <trkpt lat="42.5591710" lon="-8.8911170">
        <ele>5.4</ele>
        <time>2020-08-07T17:39:09Z</time>
      </trkpt>
      <trkpt lat="42.5591940" lon="-8.8911000">
        <ele>5.2</ele>
        <time>2020-08-07T17:39:10Z</time>
      </trkpt>
      <trkpt lat="42.5591940" lon="-8.8911000">
        <ele>4.8</ele>
        <time>2020-08-07T17:39:11Z</time>
      </trkpt>
      <trkpt lat="42.5592190" lon="-8.8910860">
        <ele>4.6</ele>
        <time>2020-08-07T17:39:12Z</time>
      </trkpt>
      <trkpt lat="42.5592190" lon="-8.8910860">
        <ele>4.4</ele>
        <time>2020-08-07T17:39:13Z</time>
      </trkpt>
      <trkpt lat="42.5592420" lon="-8.8910740">
        <ele>4.2</ele>
        <time>2020-08-07T17:39:14Z</time>
      </trkpt>
      <trkpt lat="42.5592420" lon="-8.8910740">
        <ele>4.2</ele>
        <time>2020-08-07T17:39:15Z</time>
      </trkpt>
      <trkpt lat="42.5592610" lon="-8.8910620">
        <ele>4.4</ele>
        <time>2020-08-07T17:39:16Z</time>
      </trkpt>
      <trkpt lat="42.5592610" lon="-8.8910620">
        <ele>4.4</ele>
        <time>2020-08-07T17:39:17Z</time>
      </trkpt>
      <trkpt lat="42.5592610" lon="-8.8910620">
        <ele>4.2</ele>
        <time>2020-08-07T17:39:18Z</time>
      </trkpt>
      <trkpt lat="42.5592900" lon="-8.8910440">
        <ele>4.2</ele>
        <time>2020-08-07T17:39:19Z</time>
      </trkpt>
      <trkpt lat="42.5592900" lon="-8.8910440">
        <ele>4.0</ele>
        <time>2020-08-07T17:39:20Z</time>
      </trkpt>
      <trkpt lat="42.5593020" lon="-8.8910260">
        <ele>4.0</ele>
        <time>2020-08-07T17:39:21Z</time>
      </trkpt>
      <trkpt lat="42.5593020" lon="-8.8910260">
        <ele>3.8</ele>
        <time>2020-08-07T17:39:22Z</time>
      </trkpt>
      <trkpt lat="42.5593250" lon="-8.8910150">
        <ele>3.6</ele>
        <time>2020-08-07T17:39:23Z</time>
      </trkpt>
      <trkpt lat="42.5593250" lon="-8.8910150">
        <ele>4.0</ele>
        <time>2020-08-07T17:39:24Z</time>
      </trkpt>
      <trkpt lat="42.5593410" lon="-8.8910020">
        <ele>4.0</ele>
        <time>2020-08-07T17:39:25Z</time>
      </trkpt>
      <trkpt lat="42.5593410" lon="-8.8910020">
        <ele>4.2</ele>
        <time>2020-08-07T17:39:26Z</time>
      </trkpt>
      <trkpt lat="42.5593630" lon="-8.8909830">
        <ele>4.0</ele>
        <time>2020-08-07T17:39:27Z</time>
      </trkpt>
      <trkpt lat="42.5593630" lon="-8.8909830">
        <ele>4.0</ele>
        <time>2020-08-07T17:39:28Z</time>
      </trkpt>
      <trkpt lat="42.5593890" lon="-8.8909680">
        <ele>3.8</ele>
        <time>2020-08-07T17:39:29Z</time>
      </trkpt>
      <trkpt lat="42.5593890" lon="-8.8909680">
        <ele>4.2</ele>
        <time>2020-08-07T17:39:30Z</time>
      </trkpt>
      <trkpt lat="42.5594050" lon="-8.8909480">
        <ele>4.4</ele>
        <time>2020-08-07T17:39:31Z</time>
      </trkpt>
      <trkpt lat="42.5594050" lon="-8.8909480">
        <ele>4.2</ele>
        <time>2020-08-07T17:39:32Z</time>
      </trkpt>
      <trkpt lat="42.5594240" lon="-8.8909330">
        <ele>4.4</ele>
        <time>2020-08-07T17:39:33Z</time>
      </trkpt>
      <trkpt lat="42.5594240" lon="-8.8909330">
        <ele>4.2</ele>
        <time>2020-08-07T17:39:34Z</time>
      </trkpt>
      <trkpt lat="42.5594530" lon="-8.8909180">
        <ele>4.4</ele>
        <time>2020-08-07T17:39:35Z</time>
      </trkpt>
      <trkpt lat="42.5594530" lon="-8.8909180">
        <ele>4.4</ele>
        <time>2020-08-07T17:39:36Z</time>
      </trkpt>
      <trkpt lat="42.5594750" lon="-8.8909060">
        <ele>4.6</ele>
        <time>2020-08-07T17:39:37Z</time>
      </trkpt>
      <trkpt lat="42.5594750" lon="-8.8909060">
        <ele>5.0</ele>
        <time>2020-08-07T17:39:38Z</time>
      </trkpt>
      <trkpt lat="42.5594980" lon="-8.8908970">
        <ele>5.0</ele>
        <time>2020-08-07T17:39:39Z</time>
      </trkpt>
      <trkpt lat="42.5594980" lon="-8.8908970">
        <ele>5.2</ele>
        <time>2020-08-07T17:39:40Z</time>
      </trkpt>
      <trkpt lat="42.5595200" lon="-8.8908860">
        <ele>5.0</ele>
        <time>2020-08-07T17:39:41Z</time>
      </trkpt>
      <trkpt lat="42.5595200" lon="-8.8908860">
        <ele>5.0</ele>
        <time>2020-08-07T17:39:42Z</time>
      </trkpt>
      <trkpt lat="42.5595490" lon="-8.8908780">
        <ele>4.4</ele>
        <time>2020-08-07T17:39:43Z</time>
      </trkpt>
      <trkpt lat="42.5595490" lon="-8.8908780">
        <ele>4.6</ele>
        <time>2020-08-07T17:39:44Z</time>
      </trkpt>
      <trkpt lat="42.5595710" lon="-8.8908730">
        <ele>5.0</ele>
        <time>2020-08-07T17:39:45Z</time>
      </trkpt>
      <trkpt lat="42.5595710" lon="-8.8908730">
        <ele>5.6</ele>
        <time>2020-08-07T17:39:46Z</time>
      </trkpt>
      <trkpt lat="42.5595900" lon="-8.8908630">
        <ele>6.0</ele>
        <time>2020-08-07T17:39:47Z</time>
      </trkpt>
      <trkpt lat="42.5595900" lon="-8.8908630">
        <ele>5.8</ele>
        <time>2020-08-07T17:39:48Z</time>
      </trkpt>
      <trkpt lat="42.5596130" lon="-8.8908500">
        <ele>5.4</ele>
        <time>2020-08-07T17:39:49Z</time>
      </trkpt>
      <trkpt lat="42.5596130" lon="-8.8908500">
        <ele>5.2</ele>
        <time>2020-08-07T17:39:50Z</time>
      </trkpt>
      <trkpt lat="42.5596350" lon="-8.8908380">
        <ele>5.4</ele>
        <time>2020-08-07T17:39:51Z</time>
      </trkpt>
      <trkpt lat="42.5596350" lon="-8.8908380">
        <ele>5.2</ele>
        <time>2020-08-07T17:39:52Z</time>
      </trkpt>
      <trkpt lat="42.5596540" lon="-8.8908220">
        <ele>5.4</ele>
        <time>2020-08-07T17:39:53Z</time>
      </trkpt>
      <trkpt lat="42.5596540" lon="-8.8908220">
        <ele>5.2</ele>
        <time>2020-08-07T17:39:54Z</time>
      </trkpt>
      <trkpt lat="42.5596740" lon="-8.8908020">
        <ele>5.2</ele>
        <time>2020-08-07T17:39:55Z</time>
      </trkpt>
      <trkpt lat="42.5596740" lon="-8.8908020">
        <ele>5.6</ele>
        <time>2020-08-07T17:39:56Z</time>
      </trkpt>
      <trkpt lat="42.5596900" lon="-8.8907900">
        <ele>6.0</ele>
        <time>2020-08-07T17:39:57Z</time>
      </trkpt>
      <trkpt lat="42.5596900" lon="-8.8907900">
        <ele>6.2</ele>
        <time>2020-08-07T17:39:58Z</time>
      </trkpt>
      <trkpt lat="42.5596900" lon="-8.8907900">
        <ele>6.4</ele>
        <time>2020-08-07T17:39:59Z</time>
      </trkpt>
      <trkpt lat="42.5597020" lon="-8.8907720">
        <ele>6.6</ele>
        <time>2020-08-07T17:40:00Z</time>
      </trkpt>
      <trkpt lat="42.5597020" lon="-8.8907720">
        <ele>6.8</ele>
        <time>2020-08-07T17:40:01Z</time>
      </trkpt>
      <trkpt lat="42.5597020" lon="-8.8907720">
        <ele>6.8</ele>
        <time>2020-08-07T17:40:02Z</time>
      </trkpt>
      <trkpt lat="42.5597020" lon="-8.8907720">
        <ele>6.8</ele>
        <time>2020-08-07T17:40:03Z</time>
      </trkpt>
      <trkpt lat="42.5597120" lon="-8.8907430">
        <ele>6.4</ele>
        <time>2020-08-07T17:40:04Z</time>
      </trkpt>
      <trkpt lat="42.5597120" lon="-8.8907430">
        <ele>6.4</ele>
        <time>2020-08-07T17:40:05Z</time>
      </trkpt>
      <trkpt lat="42.5597120" lon="-8.8907430">
        <ele>6.6</ele>
        <time>2020-08-07T17:40:06Z</time>
      </trkpt>
      <trkpt lat="42.5597120" lon="-8.8907430">
        <ele>6.8</ele>
        <time>2020-08-07T17:40:07Z</time>
      </trkpt>
      <trkpt lat="42.5597180" lon="-8.8907140">
        <ele>6.6</ele>
        <time>2020-08-07T17:40:08Z</time>
      </trkpt>
      <trkpt lat="42.5597180" lon="-8.8907140">
        <ele>6.4</ele>
        <time>2020-08-07T17:40:09Z</time>
      </trkpt>
      <trkpt lat="42.5597180" lon="-8.8907140">
        <ele>6.6</ele>
        <time>2020-08-07T17:40:10Z</time>
      </trkpt>
      <trkpt lat="42.5597380" lon="-8.8907020">
        <ele>6.8</ele>
        <time>2020-08-07T17:40:11Z</time>
      </trkpt>
      <trkpt lat="42.5597380" lon="-8.8907020">
        <ele>7.0</ele>
        <time>2020-08-07T17:40:12Z</time>
      </trkpt>
      <trkpt lat="42.5597380" lon="-8.8907020">
        <ele>6.6</ele>
        <time>2020-08-07T17:40:13Z</time>
      </trkpt>
      <trkpt lat="42.5597570" lon="-8.8906940">
        <ele>6.2</ele>
        <time>2020-08-07T17:40:14Z</time>
      </trkpt>
      <trkpt lat="42.5597570" lon="-8.8906940">
        <ele>6.0</ele>
        <time>2020-08-07T17:40:15Z</time>
      </trkpt>
      <trkpt lat="42.5597790" lon="-8.8906850">
        <ele>6.0</ele>
        <time>2020-08-07T17:40:16Z</time>
      </trkpt>
      <trkpt lat="42.5597790" lon="-8.8906850">
        <ele>5.6</ele>
        <time>2020-08-07T17:40:17Z</time>
      </trkpt>
      <trkpt lat="42.5597790" lon="-8.8906850">
        <ele>5.6</ele>
        <time>2020-08-07T17:40:18Z</time>
      </trkpt>
      <trkpt lat="42.5598020" lon="-8.8906770">
        <ele>5.6</ele>
        <time>2020-08-07T17:40:19Z</time>
      </trkpt>
      <trkpt lat="42.5598020" lon="-8.8906770">
        <ele>5.4</ele>
        <time>2020-08-07T17:40:20Z</time>
      </trkpt>
      <trkpt lat="42.5598020" lon="-8.8906770">
        <ele>5.2</ele>
        <time>2020-08-07T17:40:21Z</time>
      </trkpt>
      <trkpt lat="42.5598270" lon="-8.8906700">
        <ele>5.2</ele>
        <time>2020-08-07T17:40:22Z</time>
      </trkpt>
      <trkpt lat="42.5598270" lon="-8.8906700">
        <ele>5.4</ele>
        <time>2020-08-07T17:40:23Z</time>
      </trkpt>
      <trkpt lat="42.5598460" lon="-8.8906680">
        <ele>5.6</ele>
        <time>2020-08-07T17:40:24Z</time>
      </trkpt>
      <trkpt lat="42.5598460" lon="-8.8906680">
        <ele>6.0</ele>
        <time>2020-08-07T17:40:25Z</time>
      </trkpt>
      <trkpt lat="42.5598660" lon="-8.8906620">
        <ele>5.8</ele>
        <time>2020-08-07T17:40:26Z</time>
      </trkpt>
      <trkpt lat="42.5598660" lon="-8.8906620">
        <ele>6.0</ele>
        <time>2020-08-07T17:40:27Z</time>
      </trkpt>
      <trkpt lat="42.5598660" lon="-8.8906620">
        <ele>5.8</ele>
        <time>2020-08-07T17:40:28Z</time>
      </trkpt>
      <trkpt lat="42.5598940" lon="-8.8906540">
        <ele>6.2</ele>
        <time>2020-08-07T17:40:29Z</time>
      </trkpt>
      <trkpt lat="42.5598940" lon="-8.8906540">
        <ele>6.0</ele>
        <time>2020-08-07T17:40:30Z</time>
      </trkpt>
      <trkpt lat="42.5599140" lon="-8.8906480">
        <ele>6.2</ele>
        <time>2020-08-07T17:40:31Z</time>
      </trkpt>
      <trkpt lat="42.5599140" lon="-8.8906480">
        <ele>6.2</ele>
        <time>2020-08-07T17:40:32Z</time>
      </trkpt>
      <trkpt lat="42.5599390" lon="-8.8906420">
        <ele>6.0</ele>
        <time>2020-08-07T17:40:33Z</time>
      </trkpt>
      <trkpt lat="42.5599390" lon="-8.8906420">
        <ele>5.8</ele>
        <time>2020-08-07T17:40:34Z</time>
      </trkpt>
      <trkpt lat="42.5599650" lon="-8.8906370">
        <ele>5.8</ele>
        <time>2020-08-07T17:40:35Z</time>
      </trkpt>
      <trkpt lat="42.5599650" lon="-8.8906370">
        <ele>5.2</ele>
        <time>2020-08-07T17:40:36Z</time>
      </trkpt>
      <trkpt lat="42.5599900" lon="-8.8906290">
        <ele>5.2</ele>
        <time>2020-08-07T17:40:37Z</time>
      </trkpt>
      <trkpt lat="42.5599900" lon="-8.8906290">
        <ele>5.0</ele>
        <time>2020-08-07T17:40:38Z</time>
      </trkpt>
      <trkpt lat="42.5600100" lon="-8.8906200">
        <ele>5.2</ele>
        <time>2020-08-07T17:40:39Z</time>
      </trkpt>
      <trkpt lat="42.5600100" lon="-8.8906200">
        <ele>5.4</ele>
        <time>2020-08-07T17:40:40Z</time>
      </trkpt>
      <trkpt lat="42.5600320" lon="-8.8906080">
        <ele>5.6</ele>
        <time>2020-08-07T17:40:41Z</time>
      </trkpt>
      <trkpt lat="42.5600320" lon="-8.8906080">
        <ele>5.6</ele>
        <time>2020-08-07T17:40:42Z</time>
      </trkpt>
      <trkpt lat="42.5600580" lon="-8.8905950">
        <ele>5.8</ele>
        <time>2020-08-07T17:40:43Z</time>
      </trkpt>
      <trkpt lat="42.5600580" lon="-8.8905950">
        <ele>5.4</ele>
        <time>2020-08-07T17:40:44Z</time>
      </trkpt>
      <trkpt lat="42.5600770" lon="-8.8905780">
        <ele>5.4</ele>
        <time>2020-08-07T17:40:45Z</time>
      </trkpt>
      <trkpt lat="42.5600770" lon="-8.8905780">
        <ele>5.4</ele>
        <time>2020-08-07T17:40:46Z</time>
      </trkpt>
      <trkpt lat="42.5600990" lon="-8.8905670">
        <ele>5.6</ele>
        <time>2020-08-07T17:40:47Z</time>
      </trkpt>
      <trkpt lat="42.5600990" lon="-8.8905670">
        <ele>5.6</ele>
        <time>2020-08-07T17:40:48Z</time>
      </trkpt>
      <trkpt lat="42.5601180" lon="-8.8905550">
        <ele>6.0</ele>
        <time>2020-08-07T17:40:49Z</time>
      </trkpt>
      <trkpt lat="42.5601180" lon="-8.8905550">
        <ele>6.2</ele>
        <time>2020-08-07T17:40:50Z</time>
      </trkpt>
      <trkpt lat="42.5601440" lon="-8.8905450">
        <ele>6.2</ele>
        <time>2020-08-07T17:40:51Z</time>
      </trkpt>
      <trkpt lat="42.5601440" lon="-8.8905450">
        <ele>6.2</ele>
        <time>2020-08-07T17:40:52Z</time>
      </trkpt>
      <trkpt lat="42.5601660" lon="-8.8905380">
        <ele>6.4</ele>
        <time>2020-08-07T17:40:53Z</time>
      </trkpt>
      <trkpt lat="42.5601660" lon="-8.8905380">
        <ele>6.8</ele>
        <time>2020-08-07T17:40:54Z</time>
      </trkpt>
      <trkpt lat="42.5601890" lon="-8.8905310">
        <ele>6.8</ele>
        <time>2020-08-07T17:40:55Z</time>
      </trkpt>
      <trkpt lat="42.5601890" lon="-8.8905310">
        <ele>7.0</ele>
        <time>2020-08-07T17:40:56Z</time>
      </trkpt>
      <trkpt lat="42.5602140" lon="-8.8905250">
        <ele>7.2</ele>
        <time>2020-08-07T17:40:57Z</time>
      </trkpt>
      <trkpt lat="42.5602140" lon="-8.8905250">
        <ele>7.2</ele>
        <time>2020-08-07T17:40:58Z</time>
      </trkpt>
      <trkpt lat="42.5602370" lon="-8.8905110">
        <ele>6.8</ele>
        <time>2020-08-07T17:40:59Z</time>
      </trkpt>
      <trkpt lat="42.5602370" lon="-8.8905110">
        <ele>6.8</ele>
        <time>2020-08-07T17:41:00Z</time>
      </trkpt>
      <trkpt lat="42.5602590" lon="-8.8905020">
        <ele>7.0</ele>
        <time>2020-08-07T17:41:01Z</time>
      </trkpt>
      <trkpt lat="42.5602590" lon="-8.8905020">
        <ele>6.8</ele>
        <time>2020-08-07T17:41:02Z</time>
      </trkpt>
      <trkpt lat="42.5602850" lon="-8.8904910">
        <ele>6.4</ele>
        <time>2020-08-07T17:41:03Z</time>
      </trkpt>
      <trkpt lat="42.5602850" lon="-8.8904910">
        <ele>6.4</ele>
        <time>2020-08-07T17:41:04Z</time>
      </trkpt>
      <trkpt lat="42.5603070" lon="-8.8904850">
        <ele>6.6</ele>
        <time>2020-08-07T17:41:05Z</time>
      </trkpt>
      <trkpt lat="42.5603070" lon="-8.8904850">
        <ele>6.6</ele>
        <time>2020-08-07T17:41:06Z</time>
      </trkpt>
      <trkpt lat="42.5603260" lon="-8.8904800">
        <ele>6.6</ele>
        <time>2020-08-07T17:41:07Z</time>
      </trkpt>
      <trkpt lat="42.5603260" lon="-8.8904800">
        <ele>6.6</ele>
        <time>2020-08-07T17:41:08Z</time>
      </trkpt>
      <trkpt lat="42.5603490" lon="-8.8904710">
        <ele>6.8</ele>
        <time>2020-08-07T17:41:09Z</time>
      </trkpt>
      <trkpt lat="42.5603490" lon="-8.8904710">
        <ele>7.0</ele>
        <time>2020-08-07T17:41:10Z</time>
      </trkpt>
      <trkpt lat="42.5603710" lon="-8.8904700">
        <ele>7.0</ele>
        <time>2020-08-07T17:41:11Z</time>
      </trkpt>
      <trkpt lat="42.5603710" lon="-8.8904700">
        <ele>7.0</ele>
        <time>2020-08-07T17:41:12Z</time>
      </trkpt>
      <trkpt lat="42.5603940" lon="-8.8904650">
        <ele>6.8</ele>
        <time>2020-08-07T17:41:13Z</time>
      </trkpt>
      <trkpt lat="42.5604130" lon="-8.8904600">
        <ele>6.6</ele>
        <time>2020-08-07T17:41:14Z</time>
      </trkpt>
      <trkpt lat="42.5604130" lon="-8.8904600">
        <ele>6.4</ele>
        <time>2020-08-07T17:41:15Z</time>
      </trkpt>
      <trkpt lat="42.5604320" lon="-8.8904510">
        <ele>6.6</ele>
        <time>2020-08-07T17:41:16Z</time>
      </trkpt>
      <trkpt lat="42.5604320" lon="-8.8904510">
        <ele>7.0</ele>
        <time>2020-08-07T17:41:17Z</time>
      </trkpt>
      <trkpt lat="42.5604580" lon="-8.8904380">
        <ele>6.8</ele>
        <time>2020-08-07T17:41:18Z</time>
      </trkpt>
      <trkpt lat="42.5604580" lon="-8.8904380">
        <ele>6.8</ele>
        <time>2020-08-07T17:41:19Z</time>
      </trkpt>
      <trkpt lat="42.5604830" lon="-8.8904250">
        <ele>6.8</ele>
        <time>2020-08-07T17:41:20Z</time>
      </trkpt>
      <trkpt lat="42.5604830" lon="-8.8904250">
        <ele>7.0</ele>
        <time>2020-08-07T17:41:21Z</time>
      </trkpt>
      <trkpt lat="42.5605060" lon="-8.8904110">
        <ele>7.4</ele>
        <time>2020-08-07T17:41:22Z</time>
      </trkpt>
      <trkpt lat="42.5605060" lon="-8.8904110">
        <ele>7.4</ele>
        <time>2020-08-07T17:41:23Z</time>
      </trkpt>
      <trkpt lat="42.5605250" lon="-8.8904000">
        <ele>7.6</ele>
        <time>2020-08-07T17:41:24Z</time>
      </trkpt>
      <trkpt lat="42.5605250" lon="-8.8904000">
        <ele>7.8</ele>
        <time>2020-08-07T17:41:25Z</time>
      </trkpt>
      <trkpt lat="42.5605470" lon="-8.8903850">
        <ele>7.8</ele>
        <time>2020-08-07T17:41:26Z</time>
      </trkpt>
      <trkpt lat="42.5605470" lon="-8.8903850">
        <ele>7.2</ele>
        <time>2020-08-07T17:41:27Z</time>
      </trkpt>
      <trkpt lat="42.5605700" lon="-8.8903770">
        <ele>7.0</ele>
        <time>2020-08-07T17:41:28Z</time>
      </trkpt>
      <trkpt lat="42.5605700" lon="-8.8903770">
        <ele>6.8</ele>
        <time>2020-08-07T17:41:29Z</time>
      </trkpt>
      <trkpt lat="42.5605950" lon="-8.8903740">
        <ele>6.8</ele>
        <time>2020-08-07T17:41:30Z</time>
      </trkpt>
      <trkpt lat="42.5605950" lon="-8.8903740">
        <ele>6.8</ele>
        <time>2020-08-07T17:41:31Z</time>
      </trkpt>
      <trkpt lat="42.5606140" lon="-8.8903750">
        <ele>6.8</ele>
        <time>2020-08-07T17:41:32Z</time>
      </trkpt>
      <trkpt lat="42.5606140" lon="-8.8903750">
        <ele>6.6</ele>
        <time>2020-08-07T17:41:33Z</time>
      </trkpt>
      <trkpt lat="42.5606400" lon="-8.8903770">
        <ele>6.4</ele>
        <time>2020-08-07T17:41:34Z</time>
      </trkpt>
      <trkpt lat="42.5606400" lon="-8.8903770">
        <ele>6.2</ele>
        <time>2020-08-07T17:41:35Z</time>
      </trkpt>
      <trkpt lat="42.5606620" lon="-8.8903850">
        <ele>6.4</ele>
        <time>2020-08-07T17:41:36Z</time>
      </trkpt>
      <trkpt lat="42.5606620" lon="-8.8903850">
        <ele>6.4</ele>
        <time>2020-08-07T17:41:37Z</time>
      </trkpt>
      <trkpt lat="42.5606850" lon="-8.8903910">
        <ele>6.2</ele>
        <time>2020-08-07T17:41:38Z</time>
      </trkpt>
      <trkpt lat="42.5606850" lon="-8.8903910">
        <ele>6.2</ele>
        <time>2020-08-07T17:41:39Z</time>
      </trkpt>
      <trkpt lat="42.5607100" lon="-8.8903980">
        <ele>5.6</ele>
        <time>2020-08-07T17:41:40Z</time>
      </trkpt>
      <trkpt lat="42.5607100" lon="-8.8903980">
        <ele>5.4</ele>
        <time>2020-08-07T17:41:41Z</time>
      </trkpt>
      <trkpt lat="42.5607330" lon="-8.8904060">
        <ele>5.2</ele>
        <time>2020-08-07T17:41:42Z</time>
      </trkpt>
      <trkpt lat="42.5607330" lon="-8.8904060">
        <ele>5.4</ele>
        <time>2020-08-07T17:41:43Z</time>
      </trkpt>
      <trkpt lat="42.5607620" lon="-8.8904110">
        <ele>5.6</ele>
        <time>2020-08-07T17:41:44Z</time>
      </trkpt>
      <trkpt lat="42.5607620" lon="-8.8904110">
        <ele>5.4</ele>
        <time>2020-08-07T17:41:45Z</time>
      </trkpt>
      <trkpt lat="42.5607840" lon="-8.8904150">
        <ele>5.6</ele>
        <time>2020-08-07T17:41:46Z</time>
      </trkpt>
      <trkpt lat="42.5607840" lon="-8.8904150">
        <ele>5.4</ele>
        <time>2020-08-07T17:41:47Z</time>
      </trkpt>
      <trkpt lat="42.5608130" lon="-8.8904170">
        <ele>5.4</ele>
        <time>2020-08-07T17:41:48Z</time>
      </trkpt>
      <trkpt lat="42.5608130" lon="-8.8904170">
        <ele>4.8</ele>
        <time>2020-08-07T17:41:49Z</time>
      </trkpt>
      <trkpt lat="42.5608450" lon="-8.8904150">
        <ele>4.6</ele>
        <time>2020-08-07T17:41:50Z</time>
      </trkpt>
      <trkpt lat="42.5608450" lon="-8.8904150">
        <ele>4.8</ele>
        <time>2020-08-07T17:41:51Z</time>
      </trkpt>
      <trkpt lat="42.5608670" lon="-8.8904150">
        <ele>5.2</ele>
        <time>2020-08-07T17:41:52Z</time>
      </trkpt>
      <trkpt lat="42.5608670" lon="-8.8904150">
        <ele>5.4</ele>
        <time>2020-08-07T17:41:53Z</time>
      </trkpt>
      <trkpt lat="42.5608930" lon="-8.8904180">
        <ele>5.0</ele>
        <time>2020-08-07T17:41:54Z</time>
      </trkpt>
      <trkpt lat="42.5608930" lon="-8.8904180">
        <ele>4.8</ele>
        <time>2020-08-07T17:41:55Z</time>
      </trkpt>
      <trkpt lat="42.5609180" lon="-8.8904180">
        <ele>4.6</ele>
        <time>2020-08-07T17:41:56Z</time>
      </trkpt>
      <trkpt lat="42.5609180" lon="-8.8904180">
        <ele>4.4</ele>
        <time>2020-08-07T17:41:57Z</time>
      </trkpt>
      <trkpt lat="42.5609440" lon="-8.8904220">
        <ele>4.4</ele>
        <time>2020-08-07T17:41:58Z</time>
      </trkpt>
      <trkpt lat="42.5609440" lon="-8.8904220">
        <ele>4.4</ele>
        <time>2020-08-07T17:41:59Z</time>
      </trkpt>
      <trkpt lat="42.5609700" lon="-8.8904220">
        <ele>4.4</ele>
        <time>2020-08-07T17:42:00Z</time>
      </trkpt>
      <trkpt lat="42.5609700" lon="-8.8904220">
        <ele>4.2</ele>
        <time>2020-08-07T17:42:01Z</time>
      </trkpt>
      <trkpt lat="42.5609980" lon="-8.8904240">
        <ele>4.0</ele>
        <time>2020-08-07T17:42:02Z</time>
      </trkpt>
      <trkpt lat="42.5609980" lon="-8.8904240">
        <ele>3.8</ele>
        <time>2020-08-07T17:42:03Z</time>
      </trkpt>
      <trkpt lat="42.5610210" lon="-8.8904260">
        <ele>4.0</ele>
        <time>2020-08-07T17:42:04Z</time>
      </trkpt>
      <trkpt lat="42.5610210" lon="-8.8904260">
        <ele>4.0</ele>
        <time>2020-08-07T17:42:05Z</time>
      </trkpt>
      <trkpt lat="42.5610460" lon="-8.8904310">
        <ele>4.0</ele>
        <time>2020-08-07T17:42:06Z</time>
      </trkpt>
      <trkpt lat="42.5610460" lon="-8.8904310">
        <ele>3.8</ele>
        <time>2020-08-07T17:42:07Z</time>
      </trkpt>
      <trkpt lat="42.5610720" lon="-8.8904350">
        <ele>3.6</ele>
        <time>2020-08-07T17:42:08Z</time>
      </trkpt>
      <trkpt lat="42.5610720" lon="-8.8904350">
        <ele>3.6</ele>
        <time>2020-08-07T17:42:09Z</time>
      </trkpt>
      <trkpt lat="42.5610910" lon="-8.8904360">
        <ele>3.6</ele>
        <time>2020-08-07T17:42:10Z</time>
      </trkpt>
      <trkpt lat="42.5610910" lon="-8.8904360">
        <ele>3.6</ele>
        <time>2020-08-07T17:42:11Z</time>
      </trkpt>
      <trkpt lat="42.5611170" lon="-8.8904360">
        <ele>3.8</ele>
        <time>2020-08-07T17:42:12Z</time>
      </trkpt>
      <trkpt lat="42.5611170" lon="-8.8904360">
        <ele>4.0</ele>
        <time>2020-08-07T17:42:13Z</time>
      </trkpt>
      <trkpt lat="42.5611170" lon="-8.8904360">
        <ele>4.4</ele>
        <time>2020-08-07T17:42:14Z</time>
      </trkpt>
      <trkpt lat="42.5611460" lon="-8.8904350">
        <ele>4.4</ele>
        <time>2020-08-07T17:42:15Z</time>
      </trkpt>
      <trkpt lat="42.5611460" lon="-8.8904350">
        <ele>4.2</ele>
        <time>2020-08-07T17:42:16Z</time>
      </trkpt>
      <trkpt lat="42.5611650" lon="-8.8904310">
        <ele>4.2</ele>
        <time>2020-08-07T17:42:17Z</time>
      </trkpt>
      <trkpt lat="42.5611650" lon="-8.8904310">
        <ele>4.0</ele>
        <time>2020-08-07T17:42:18Z</time>
      </trkpt>
      <trkpt lat="42.5611870" lon="-8.8904260">
        <ele>4.4</ele>
        <time>2020-08-07T17:42:19Z</time>
      </trkpt>
      <trkpt lat="42.5611870" lon="-8.8904260">
        <ele>4.4</ele>
        <time>2020-08-07T17:42:20Z</time>
      </trkpt>
      <trkpt lat="42.5611870" lon="-8.8904260">
        <ele>4.4</ele>
        <time>2020-08-07T17:42:21Z</time>
      </trkpt>
      <trkpt lat="42.5612160" lon="-8.8904200">
        <ele>4.4</ele>
        <time>2020-08-07T17:42:22Z</time>
      </trkpt>
      <trkpt lat="42.5612160" lon="-8.8904200">
        <ele>4.4</ele>
        <time>2020-08-07T17:42:23Z</time>
      </trkpt>
      <trkpt lat="42.5612160" lon="-8.8904200">
        <ele>4.0</ele>
        <time>2020-08-07T17:42:24Z</time>
      </trkpt>
      <trkpt lat="42.5612450" lon="-8.8904180">
        <ele>4.2</ele>
        <time>2020-08-07T17:42:25Z</time>
      </trkpt>
      <trkpt lat="42.5612450" lon="-8.8904180">
        <ele>4.2</ele>
        <time>2020-08-07T17:42:26Z</time>
      </trkpt>
      <trkpt lat="42.5612640" lon="-8.8904200">
        <ele>4.6</ele>
        <time>2020-08-07T17:42:27Z</time>
      </trkpt>
      <trkpt lat="42.5612640" lon="-8.8904200">
        <ele>5.0</ele>
        <time>2020-08-07T17:42:28Z</time>
      </trkpt>
      <trkpt lat="42.5612830" lon="-8.8904300">
        <ele>5.4</ele>
        <time>2020-08-07T17:42:29Z</time>
      </trkpt>
      <trkpt lat="42.5612830" lon="-8.8904300">
        <ele>5.4</ele>
        <time>2020-08-07T17:42:30Z</time>
      </trkpt>
      <trkpt lat="42.5613060" lon="-8.8904350">
        <ele>5.2</ele>
        <time>2020-08-07T17:42:31Z</time>
      </trkpt>
      <trkpt lat="42.5613060" lon="-8.8904350">
        <ele>5.4</ele>
        <time>2020-08-07T17:42:32Z</time>
      </trkpt>
      <trkpt lat="42.5613380" lon="-8.8904440">
        <ele>5.6</ele>
        <time>2020-08-07T17:42:33Z</time>
      </trkpt>
      <trkpt lat="42.5613380" lon="-8.8904440">
        <ele>5.6</ele>
        <time>2020-08-07T17:42:34Z</time>
      </trkpt>
      <trkpt lat="42.5613570" lon="-8.8904500">
        <ele>5.6</ele>
        <time>2020-08-07T17:42:35Z</time>
      </trkpt>
      <trkpt lat="42.5613570" lon="-8.8904500">
        <ele>5.8</ele>
        <time>2020-08-07T17:42:36Z</time>
      </trkpt>
      <trkpt lat="42.5613790" lon="-8.8904570">
        <ele>5.6</ele>
        <time>2020-08-07T17:42:37Z</time>
      </trkpt>
      <trkpt lat="42.5613790" lon="-8.8904570">
        <ele>5.6</ele>
        <time>2020-08-07T17:42:38Z</time>
      </trkpt>
      <trkpt lat="42.5613980" lon="-8.8904600">
        <ele>6.0</ele>
        <time>2020-08-07T17:42:39Z</time>
      </trkpt>
      <trkpt lat="42.5613980" lon="-8.8904600">
        <ele>6.0</ele>
        <time>2020-08-07T17:42:40Z</time>
      </trkpt>
      <trkpt lat="42.5614180" lon="-8.8904580">
        <ele>6.0</ele>
        <time>2020-08-07T17:42:41Z</time>
      </trkpt>
      <trkpt lat="42.5614180" lon="-8.8904580">
        <ele>5.8</ele>
        <time>2020-08-07T17:42:42Z</time>
      </trkpt>
      <trkpt lat="42.5614180" lon="-8.8904580">
        <ele>5.8</ele>
        <time>2020-08-07T17:42:43Z</time>
      </trkpt>
      <trkpt lat="42.5614400" lon="-8.8904550">
        <ele>6.0</ele>
        <time>2020-08-07T17:42:44Z</time>
      </trkpt>
      <trkpt lat="42.5614400" lon="-8.8904550">
        <ele>5.8</ele>
        <time>2020-08-07T17:42:45Z</time>
      </trkpt>
      <trkpt lat="42.5614590" lon="-8.8904510">
        <ele>5.8</ele>
        <time>2020-08-07T17:42:46Z</time>
      </trkpt>
      <trkpt lat="42.5614590" lon="-8.8904510">
        <ele>6.2</ele>
        <time>2020-08-07T17:42:47Z</time>
      </trkpt>
      <trkpt lat="42.5614780" lon="-8.8904510">
        <ele>6.0</ele>
        <time>2020-08-07T17:42:48Z</time>
      </trkpt>
      <trkpt lat="42.5614780" lon="-8.8904510">
        <ele>6.0</ele>
        <time>2020-08-07T17:42:49Z</time>
      </trkpt>
      <trkpt lat="42.5615040" lon="-8.8904630">
        <ele>6.4</ele>
        <time>2020-08-07T17:42:50Z</time>
      </trkpt>
      <trkpt lat="42.5615040" lon="-8.8904630">
        <ele>6.4</ele>
        <time>2020-08-07T17:42:51Z</time>
      </trkpt>
      <trkpt lat="42.5615260" lon="-8.8904740">
        <ele>6.2</ele>
        <time>2020-08-07T17:42:52Z</time>
      </trkpt>
      <trkpt lat="42.5615260" lon="-8.8904740">
        <ele>6.4</ele>
        <time>2020-08-07T17:42:53Z</time>
      </trkpt>
      <trkpt lat="42.5615490" lon="-8.8904910">
        <ele>6.4</ele>
        <time>2020-08-07T17:42:54Z</time>
      </trkpt>
      <trkpt lat="42.5615670" lon="-8.8904980">
        <ele>6.4</ele>
        <time>2020-08-07T17:42:55Z</time>
      </trkpt>
      <trkpt lat="42.5615840" lon="-8.8905060">
        <ele>6.0</ele>
        <time>2020-08-07T17:42:56Z</time>
      </trkpt>
      <trkpt lat="42.5615840" lon="-8.8905060">
        <ele>5.6</ele>
        <time>2020-08-07T17:42:57Z</time>
      </trkpt>
      <trkpt lat="42.5616030" lon="-8.8905160">
        <ele>6.0</ele>
        <time>2020-08-07T17:42:58Z</time>
      </trkpt>
      <trkpt lat="42.5616030" lon="-8.8905160">
        <ele>5.8</ele>
        <time>2020-08-07T17:42:59Z</time>
      </trkpt>
      <trkpt lat="42.5616350" lon="-8.8905300">
        <ele>6.0</ele>
        <time>2020-08-07T17:43:00Z</time>
      </trkpt>
      <trkpt lat="42.5616350" lon="-8.8905300">
        <ele>5.6</ele>
        <time>2020-08-07T17:43:01Z</time>
      </trkpt>
      <trkpt lat="42.5616610" lon="-8.8905310">
        <ele>5.2</ele>
        <time>2020-08-07T17:43:02Z</time>
      </trkpt>
      <trkpt lat="42.5616610" lon="-8.8905310">
        <ele>4.8</ele>
        <time>2020-08-07T17:43:03Z</time>
      </trkpt>
      <trkpt lat="42.5616860" lon="-8.8905360">
        <ele>5.0</ele>
        <time>2020-08-07T17:43:04Z</time>
      </trkpt>
      <trkpt lat="42.5617060" lon="-8.8905380">
        <ele>5.2</ele>
        <time>2020-08-07T17:43:05Z</time>
      </trkpt>
      <trkpt lat="42.5617060" lon="-8.8905380">
        <ele>5.4</ele>
        <time>2020-08-07T17:43:06Z</time>
      </trkpt>
      <trkpt lat="42.5617340" lon="-8.8905430">
        <ele>5.4</ele>
        <time>2020-08-07T17:43:07Z</time>
      </trkpt>
      <trkpt lat="42.5617340" lon="-8.8905430">
        <ele>5.2</ele>
        <time>2020-08-07T17:43:08Z</time>
      </trkpt>
      <trkpt lat="42.5617630" lon="-8.8905400">
        <ele>5.0</ele>
        <time>2020-08-07T17:43:09Z</time>
      </trkpt>
      <trkpt lat="42.5617630" lon="-8.8905400">
        <ele>5.2</ele>
        <time>2020-08-07T17:43:10Z</time>
      </trkpt>
      <trkpt lat="42.5617920" lon="-8.8905420">
        <ele>5.4</ele>
        <time>2020-08-07T17:43:11Z</time>
      </trkpt>
      <trkpt lat="42.5617920" lon="-8.8905420">
        <ele>5.2</ele>
        <time>2020-08-07T17:43:12Z</time>
      </trkpt>
      <trkpt lat="42.5618240" lon="-8.8905350">
        <ele>4.8</ele>
        <time>2020-08-07T17:43:13Z</time>
      </trkpt>
      <trkpt lat="42.5618240" lon="-8.8905350">
        <ele>4.4</ele>
        <time>2020-08-07T17:43:14Z</time>
      </trkpt>
      <trkpt lat="42.5618460" lon="-8.8905290">
        <ele>4.4</ele>
        <time>2020-08-07T17:43:15Z</time>
      </trkpt>
      <trkpt lat="42.5618460" lon="-8.8905290">
        <ele>4.6</ele>
        <time>2020-08-07T17:43:16Z</time>
      </trkpt>
      <trkpt lat="42.5618780" lon="-8.8905200">
        <ele>4.6</ele>
        <time>2020-08-07T17:43:17Z</time>
      </trkpt>
      <trkpt lat="42.5618780" lon="-8.8905200">
        <ele>5.2</ele>
        <time>2020-08-07T17:43:18Z</time>
      </trkpt>
      <trkpt lat="42.5619040" lon="-8.8905160">
        <ele>5.4</ele>
        <time>2020-08-07T17:43:19Z</time>
      </trkpt>
      <trkpt lat="42.5619040" lon="-8.8905160">
        <ele>5.4</ele>
        <time>2020-08-07T17:43:20Z</time>
      </trkpt>
      <trkpt lat="42.5619330" lon="-8.8905100">
        <ele>5.2</ele>
        <time>2020-08-07T17:43:21Z</time>
      </trkpt>
      <trkpt lat="42.5619330" lon="-8.8905100">
        <ele>5.0</ele>
        <time>2020-08-07T17:43:22Z</time>
      </trkpt>
      <trkpt lat="42.5619580" lon="-8.8905050">
        <ele>5.2</ele>
        <time>2020-08-07T17:43:23Z</time>
      </trkpt>
      <trkpt lat="42.5619580" lon="-8.8905050">
        <ele>5.2</ele>
        <time>2020-08-07T17:43:24Z</time>
      </trkpt>
      <trkpt lat="42.5619840" lon="-8.8905020">
        <ele>5.4</ele>
        <time>2020-08-07T17:43:25Z</time>
      </trkpt>
      <trkpt lat="42.5619840" lon="-8.8905020">
        <ele>5.6</ele>
        <time>2020-08-07T17:43:26Z</time>
      </trkpt>
      <trkpt lat="42.5620160" lon="-8.8905050">
        <ele>5.6</ele>
        <time>2020-08-07T17:43:27Z</time>
      </trkpt>
      <trkpt lat="42.5620160" lon="-8.8905050">
        <ele>5.8</ele>
        <time>2020-08-07T17:43:28Z</time>
      </trkpt>
      <trkpt lat="42.5620380" lon="-8.8905100">
        <ele>5.8</ele>
        <time>2020-08-07T17:43:29Z</time>
      </trkpt>
      <trkpt lat="42.5620580" lon="-8.8905110">
        <ele>5.8</ele>
        <time>2020-08-07T17:43:30Z</time>
      </trkpt>
      <trkpt lat="42.5620580" lon="-8.8905110">
        <ele>5.6</ele>
        <time>2020-08-07T17:43:31Z</time>
      </trkpt>
      <trkpt lat="42.5620800" lon="-8.8905180">
        <ele>6.0</ele>
        <time>2020-08-07T17:43:32Z</time>
      </trkpt>
      <trkpt lat="42.5620800" lon="-8.8905180">
        <ele>6.2</ele>
        <time>2020-08-07T17:43:33Z</time>
      </trkpt>
      <trkpt lat="42.5621060" lon="-8.8905300">
        <ele>6.4</ele>
        <time>2020-08-07T17:43:34Z</time>
      </trkpt>
      <trkpt lat="42.5621250" lon="-8.8905310">
        <ele>6.4</ele>
        <time>2020-08-07T17:43:35Z</time>
      </trkpt>
      <trkpt lat="42.5621250" lon="-8.8905310">
        <ele>6.4</ele>
        <time>2020-08-07T17:43:36Z</time>
      </trkpt>
      <trkpt lat="42.5621500" lon="-8.8905400">
        <ele>6.4</ele>
        <time>2020-08-07T17:43:37Z</time>
      </trkpt>
      <trkpt lat="42.5621500" lon="-8.8905400">
        <ele>6.2</ele>
        <time>2020-08-07T17:43:38Z</time>
      </trkpt>
      <trkpt lat="42.5621790" lon="-8.8905430">
        <ele>6.2</ele>
        <time>2020-08-07T17:43:39Z</time>
      </trkpt>
      <trkpt lat="42.5621790" lon="-8.8905430">
        <ele>6.2</ele>
        <time>2020-08-07T17:43:40Z</time>
      </trkpt>
      <trkpt lat="42.5622050" lon="-8.8905490">
        <ele>6.2</ele>
        <time>2020-08-07T17:43:41Z</time>
      </trkpt>
      <trkpt lat="42.5622050" lon="-8.8905490">
        <ele>5.6</ele>
        <time>2020-08-07T17:43:42Z</time>
      </trkpt>
      <trkpt lat="42.5622370" lon="-8.8905450">
        <ele>5.6</ele>
        <time>2020-08-07T17:43:43Z</time>
      </trkpt>
      <trkpt lat="42.5622370" lon="-8.8905450">
        <ele>5.6</ele>
        <time>2020-08-07T17:43:44Z</time>
      </trkpt>
      <trkpt lat="42.5622590" lon="-8.8905450">
        <ele>5.8</ele>
        <time>2020-08-07T17:43:45Z</time>
      </trkpt>
      <trkpt lat="42.5622590" lon="-8.8905450">
        <ele>6.2</ele>
        <time>2020-08-07T17:43:46Z</time>
      </trkpt>
      <trkpt lat="42.5622910" lon="-8.8905490">
        <ele>6.0</ele>
        <time>2020-08-07T17:43:47Z</time>
      </trkpt>
      <trkpt lat="42.5622910" lon="-8.8905490">
        <ele>6.2</ele>
        <time>2020-08-07T17:43:48Z</time>
      </trkpt>
      <trkpt lat="42.5623170" lon="-8.8905510">
        <ele>6.0</ele>
        <time>2020-08-07T17:43:49Z</time>
      </trkpt>
      <trkpt lat="42.5623170" lon="-8.8905510">
        <ele>5.8</ele>
        <time>2020-08-07T17:43:50Z</time>
      </trkpt>
      <trkpt lat="42.5623390" lon="-8.8905550">
        <ele>5.4</ele>
        <time>2020-08-07T17:43:51Z</time>
      </trkpt>
      <trkpt lat="42.5623390" lon="-8.8905550">
        <ele>5.4</ele>
        <time>2020-08-07T17:43:52Z</time>
      </trkpt>
      <trkpt lat="42.5623620" lon="-8.8905650">
        <ele>5.4</ele>
        <time>2020-08-07T17:43:53Z</time>
      </trkpt>
      <trkpt lat="42.5623620" lon="-8.8905650">
        <ele>5.4</ele>
        <time>2020-08-07T17:43:54Z</time>
      </trkpt>
      <trkpt lat="42.5623840" lon="-8.8905780">
        <ele>5.2</ele>
        <time>2020-08-07T17:43:55Z</time>
      </trkpt>
      <trkpt lat="42.5623840" lon="-8.8905780">
        <ele>5.2</ele>
        <time>2020-08-07T17:43:56Z</time>
      </trkpt>
      <trkpt lat="42.5624130" lon="-8.8905920">
        <ele>6.0</ele>
        <time>2020-08-07T17:43:57Z</time>
      </trkpt>
      <trkpt lat="42.5624130" lon="-8.8905920">
        <ele>6.4</ele>
        <time>2020-08-07T17:43:58Z</time>
      </trkpt>
      <trkpt lat="42.5624350" lon="-8.8906030">
        <ele>6.2</ele>
        <time>2020-08-07T17:43:59Z</time>
      </trkpt>
      <trkpt lat="42.5624350" lon="-8.8906030">
        <ele>6.0</ele>
        <time>2020-08-07T17:44:00Z</time>
      </trkpt>
      <trkpt lat="42.5624610" lon="-8.8906100">
        <ele>6.0</ele>
        <time>2020-08-07T17:44:01Z</time>
      </trkpt>
      <trkpt lat="42.5624610" lon="-8.8906100">
        <ele>5.8</ele>
        <time>2020-08-07T17:44:02Z</time>
      </trkpt>
      <trkpt lat="42.5624830" lon="-8.8906180">
        <ele>5.8</ele>
        <time>2020-08-07T17:44:03Z</time>
      </trkpt>
      <trkpt lat="42.5624830" lon="-8.8906180">
        <ele>5.8</ele>
        <time>2020-08-07T17:44:04Z</time>
      </trkpt>
      <trkpt lat="42.5625120" lon="-8.8906250">
        <ele>6.2</ele>
        <time>2020-08-07T17:44:05Z</time>
      </trkpt>
      <trkpt lat="42.5625120" lon="-8.8906250">
        <ele>6.4</ele>
        <time>2020-08-07T17:44:06Z</time>
      </trkpt>
      <trkpt lat="42.5625340" lon="-8.8906320">
        <ele>6.6</ele>
        <time>2020-08-07T17:44:07Z</time>
      </trkpt>
      <trkpt lat="42.5625340" lon="-8.8906320">
        <ele>6.6</ele>
        <time>2020-08-07T17:44:08Z</time>
      </trkpt>
      <trkpt lat="42.5625570" lon="-8.8906320">
        <ele>6.6</ele>
        <time>2020-08-07T17:44:09Z</time>
      </trkpt>
      <trkpt lat="42.5625760" lon="-8.8906340">
        <ele>6.4</ele>
        <time>2020-08-07T17:44:10Z</time>
      </trkpt>
      <trkpt lat="42.5625760" lon="-8.8906340">
        <ele>6.4</ele>
        <time>2020-08-07T17:44:11Z</time>
      </trkpt>
      <trkpt lat="42.5626020" lon="-8.8906340">
        <ele>6.2</ele>
        <time>2020-08-07T17:44:12Z</time>
      </trkpt>
      <trkpt lat="42.5626020" lon="-8.8906340">
        <ele>6.2</ele>
        <time>2020-08-07T17:44:13Z</time>
      </trkpt>
      <trkpt lat="42.5626300" lon="-8.8906340">
        <ele>6.6</ele>
        <time>2020-08-07T17:44:14Z</time>
      </trkpt>
      <trkpt lat="42.5626300" lon="-8.8906340">
        <ele>6.4</ele>
        <time>2020-08-07T17:44:15Z</time>
      </trkpt>
      <trkpt lat="42.5626560" lon="-8.8906380">
        <ele>6.2</ele>
        <time>2020-08-07T17:44:16Z</time>
      </trkpt>
      <trkpt lat="42.5626560" lon="-8.8906380">
        <ele>5.8</ele>
        <time>2020-08-07T17:44:17Z</time>
      </trkpt>
      <trkpt lat="42.5626820" lon="-8.8906420">
        <ele>6.0</ele>
        <time>2020-08-07T17:44:18Z</time>
      </trkpt>
      <trkpt lat="42.5626820" lon="-8.8906420">
        <ele>6.2</ele>
        <time>2020-08-07T17:44:19Z</time>
      </trkpt>
      <trkpt lat="42.5627100" lon="-8.8906450">
        <ele>6.6</ele>
        <time>2020-08-07T17:44:20Z</time>
      </trkpt>
      <trkpt lat="42.5627100" lon="-8.8906450">
        <ele>6.6</ele>
        <time>2020-08-07T17:44:21Z</time>
      </trkpt>
      <trkpt lat="42.5627330" lon="-8.8906470">
        <ele>6.6</ele>
        <time>2020-08-07T17:44:22Z</time>
      </trkpt>
      <trkpt lat="42.5627330" lon="-8.8906470">
        <ele>6.4</ele>
        <time>2020-08-07T17:44:23Z</time>
      </trkpt>
      <trkpt lat="42.5627580" lon="-8.8906500">
        <ele>6.2</ele>
        <time>2020-08-07T17:44:24Z</time>
      </trkpt>
      <trkpt lat="42.5627580" lon="-8.8906500">
        <ele>6.2</ele>
        <time>2020-08-07T17:44:25Z</time>
      </trkpt>
      <trkpt lat="42.5627870" lon="-8.8906570">
        <ele>6.2</ele>
        <time>2020-08-07T17:44:26Z</time>
      </trkpt>
      <trkpt lat="42.5627870" lon="-8.8906570">
        <ele>6.4</ele>
        <time>2020-08-07T17:44:27Z</time>
      </trkpt>
      <trkpt lat="42.5628130" lon="-8.8906600">
        <ele>6.4</ele>
        <time>2020-08-07T17:44:28Z</time>
      </trkpt>
      <trkpt lat="42.5628130" lon="-8.8906600">
        <ele>6.4</ele>
        <time>2020-08-07T17:44:29Z</time>
      </trkpt>
      <trkpt lat="42.5628380" lon="-8.8906630">
        <ele>6.4</ele>
        <time>2020-08-07T17:44:30Z</time>
      </trkpt>
      <trkpt lat="42.5628380" lon="-8.8906630">
        <ele>6.4</ele>
        <time>2020-08-07T17:44:31Z</time>
      </trkpt>
      <trkpt lat="42.5628700" lon="-8.8906680">
        <ele>6.6</ele>
        <time>2020-08-07T17:44:32Z</time>
      </trkpt>
      <trkpt lat="42.5628700" lon="-8.8906680">
        <ele>6.4</ele>
        <time>2020-08-07T17:44:33Z</time>
      </trkpt>
      <trkpt lat="42.5628960" lon="-8.8906740">
        <ele>6.4</ele>
        <time>2020-08-07T17:44:34Z</time>
      </trkpt>
      <trkpt lat="42.5628960" lon="-8.8906740">
        <ele>6.4</ele>
        <time>2020-08-07T17:44:35Z</time>
      </trkpt>
      <trkpt lat="42.5629250" lon="-8.8906780">
        <ele>6.2</ele>
        <time>2020-08-07T17:44:36Z</time>
      </trkpt>
      <trkpt lat="42.5629250" lon="-8.8906780">
        <ele>6.4</ele>
        <time>2020-08-07T17:44:37Z</time>
      </trkpt>
      <trkpt lat="42.5629540" lon="-8.8906850">
        <ele>6.6</ele>
        <time>2020-08-07T17:44:38Z</time>
      </trkpt>
      <trkpt lat="42.5629540" lon="-8.8906850">
        <ele>7.0</ele>
        <time>2020-08-07T17:44:39Z</time>
      </trkpt>
      <trkpt lat="42.5629790" lon="-8.8906880">
        <ele>7.0</ele>
        <time>2020-08-07T17:44:40Z</time>
      </trkpt>
      <trkpt lat="42.5629790" lon="-8.8906880">
        <ele>7.0</ele>
        <time>2020-08-07T17:44:41Z</time>
      </trkpt>
      <trkpt lat="42.5630080" lon="-8.8906970">
        <ele>6.8</ele>
        <time>2020-08-07T17:44:42Z</time>
      </trkpt>
      <trkpt lat="42.5630080" lon="-8.8906970">
        <ele>6.8</ele>
        <time>2020-08-07T17:44:43Z</time>
      </trkpt>
      <trkpt lat="42.5630370" lon="-8.8907030">
        <ele>7.0</ele>
        <time>2020-08-07T17:44:44Z</time>
      </trkpt>
      <trkpt lat="42.5630370" lon="-8.8907030">
        <ele>7.2</ele>
        <time>2020-08-07T17:44:45Z</time>
      </trkpt>
      <trkpt lat="42.5630660" lon="-8.8907070">
        <ele>7.0</ele>
        <time>2020-08-07T17:44:46Z</time>
      </trkpt>
      <trkpt lat="42.5630660" lon="-8.8907070">
        <ele>6.8</ele>
        <time>2020-08-07T17:44:47Z</time>
      </trkpt>
      <trkpt lat="42.5630940" lon="-8.8907140">
        <ele>6.6</ele>
        <time>2020-08-07T17:44:48Z</time>
      </trkpt>
      <trkpt lat="42.5630940" lon="-8.8907140">
        <ele>6.8</ele>
        <time>2020-08-07T17:44:49Z</time>
      </trkpt>
      <trkpt lat="42.5631230" lon="-8.8907140">
        <ele>6.4</ele>
        <time>2020-08-07T17:44:50Z</time>
      </trkpt>
      <trkpt lat="42.5631420" lon="-8.8907170">
        <ele>6.2</ele>
        <time>2020-08-07T17:44:51Z</time>
      </trkpt>
      <trkpt lat="42.5631420" lon="-8.8907170">
        <ele>6.2</ele>
        <time>2020-08-07T17:44:52Z</time>
      </trkpt>
      <trkpt lat="42.5631420" lon="-8.8907170">
        <ele>6.0</ele>
        <time>2020-08-07T17:44:53Z</time>
      </trkpt>
      <trkpt lat="42.5631740" lon="-8.8907280">
        <ele>5.8</ele>
        <time>2020-08-07T17:44:54Z</time>
      </trkpt>
      <trkpt lat="42.5631740" lon="-8.8907280">
        <ele>6.2</ele>
        <time>2020-08-07T17:44:55Z</time>
      </trkpt>
      <trkpt lat="42.5631940" lon="-8.8907430">
        <ele>6.2</ele>
        <time>2020-08-07T17:44:56Z</time>
      </trkpt>
      <trkpt lat="42.5631940" lon="-8.8907430">
        <ele>6.4</ele>
        <time>2020-08-07T17:44:57Z</time>
      </trkpt>
      <trkpt lat="42.5632160" lon="-8.8907540">
        <ele>6.6</ele>
        <time>2020-08-07T17:44:58Z</time>
      </trkpt>
      <trkpt lat="42.5632160" lon="-8.8907540">
        <ele>7.0</ele>
        <time>2020-08-07T17:44:59Z</time>
      </trkpt>
      <trkpt lat="42.5632350" lon="-8.8907630">
        <ele>7.0</ele>
        <time>2020-08-07T17:45:00Z</time>
      </trkpt>
      <trkpt lat="42.5632350" lon="-8.8907630">
        <ele>6.8</ele>
        <time>2020-08-07T17:45:01Z</time>
      </trkpt>
      <trkpt lat="42.5632580" lon="-8.8907700">
        <ele>6.6</ele>
        <time>2020-08-07T17:45:02Z</time>
      </trkpt>
      <trkpt lat="42.5632580" lon="-8.8907700">
        <ele>6.6</ele>
        <time>2020-08-07T17:45:03Z</time>
      </trkpt>
      <trkpt lat="42.5632830" lon="-8.8907770">
        <ele>6.4</ele>
        <time>2020-08-07T17:45:04Z</time>
      </trkpt>
      <trkpt lat="42.5632830" lon="-8.8907770">
        <ele>6.0</ele>
        <time>2020-08-07T17:45:05Z</time>
      </trkpt>
      <trkpt lat="42.5633060" lon="-8.8907830">
        <ele>6.0</ele>
        <time>2020-08-07T17:45:06Z</time>
      </trkpt>
      <trkpt lat="42.5633060" lon="-8.8907830">
        <ele>6.0</ele>
        <time>2020-08-07T17:45:07Z</time>
      </trkpt>
      <trkpt lat="42.5633310" lon="-8.8907870">
        <ele>6.0</ele>
        <time>2020-08-07T17:45:08Z</time>
      </trkpt>
      <trkpt lat="42.5633310" lon="-8.8907870">
        <ele>5.6</ele>
        <time>2020-08-07T17:45:09Z</time>
      </trkpt>
      <trkpt lat="42.5633570" lon="-8.8907930">
        <ele>5.6</ele>
        <time>2020-08-07T17:45:10Z</time>
      </trkpt>
      <trkpt lat="42.5633570" lon="-8.8907930">
        <ele>5.6</ele>
        <time>2020-08-07T17:45:11Z</time>
      </trkpt>
      <trkpt lat="42.5633820" lon="-8.8908020">
        <ele>5.6</ele>
        <time>2020-08-07T17:45:12Z</time>
      </trkpt>
      <trkpt lat="42.5633820" lon="-8.8908020">
        <ele>5.6</ele>
        <time>2020-08-07T17:45:13Z</time>
      </trkpt>
      <trkpt lat="42.5634080" lon="-8.8908100">
        <ele>5.8</ele>
        <time>2020-08-07T17:45:14Z</time>
      </trkpt>
      <trkpt lat="42.5634080" lon="-8.8908100">
        <ele>5.6</ele>
        <time>2020-08-07T17:45:15Z</time>
      </trkpt>
      <trkpt lat="42.5634300" lon="-8.8908190">
        <ele>5.6</ele>
        <time>2020-08-07T17:45:16Z</time>
      </trkpt>
      <trkpt lat="42.5634300" lon="-8.8908190">
        <ele>5.8</ele>
        <time>2020-08-07T17:45:17Z</time>
      </trkpt>
      <trkpt lat="42.5634560" lon="-8.8908320">
        <ele>5.2</ele>
        <time>2020-08-07T17:45:18Z</time>
      </trkpt>
      <trkpt lat="42.5634750" lon="-8.8908350">
        <ele>5.4</ele>
        <time>2020-08-07T17:45:19Z</time>
      </trkpt>
      <trkpt lat="42.5634750" lon="-8.8908350">
        <ele>5.4</ele>
        <time>2020-08-07T17:45:20Z</time>
      </trkpt>
      <trkpt lat="42.5635010" lon="-8.8908350">
        <ele>5.8</ele>
        <time>2020-08-07T17:45:21Z</time>
      </trkpt>
      <trkpt lat="42.5635010" lon="-8.8908350">
        <ele>6.0</ele>
        <time>2020-08-07T17:45:22Z</time>
      </trkpt>
      <trkpt lat="42.5635230" lon="-8.8908420">
        <ele>5.8</ele>
        <time>2020-08-07T17:45:23Z</time>
      </trkpt>
      <trkpt lat="42.5635230" lon="-8.8908420">
        <ele>5.8</ele>
        <time>2020-08-07T17:45:24Z</time>
      </trkpt>
      <trkpt lat="42.5635460" lon="-8.8908460">
        <ele>5.4</ele>
        <time>2020-08-07T17:45:25Z</time>
      </trkpt>
      <trkpt lat="42.5635460" lon="-8.8908460">
        <ele>5.8</ele>
        <time>2020-08-07T17:45:26Z</time>
      </trkpt>
      <trkpt lat="42.5635710" lon="-8.8908500">
        <ele>5.8</ele>
        <time>2020-08-07T17:45:27Z</time>
      </trkpt>
      <trkpt lat="42.5635710" lon="-8.8908500">
        <ele>5.8</ele>
        <time>2020-08-07T17:45:28Z</time>
      </trkpt>
      <trkpt lat="42.5635940" lon="-8.8908600">
        <ele>6.0</ele>
        <time>2020-08-07T17:45:29Z</time>
      </trkpt>
      <trkpt lat="42.5635940" lon="-8.8908600">
        <ele>6.0</ele>
        <time>2020-08-07T17:45:30Z</time>
      </trkpt>
      <trkpt lat="42.5636190" lon="-8.8908660">
        <ele>6.2</ele>
        <time>2020-08-07T17:45:31Z</time>
      </trkpt>
      <trkpt lat="42.5636190" lon="-8.8908660">
        <ele>5.8</ele>
        <time>2020-08-07T17:45:32Z</time>
      </trkpt>
      <trkpt lat="42.5636450" lon="-8.8908700">
        <ele>6.0</ele>
        <time>2020-08-07T17:45:33Z</time>
      </trkpt>
      <trkpt lat="42.5636450" lon="-8.8908700">
        <ele>6.0</ele>
        <time>2020-08-07T17:45:34Z</time>
      </trkpt>
      <trkpt lat="42.5636670" lon="-8.8908750">
        <ele>5.8</ele>
        <time>2020-08-07T17:45:35Z</time>
      </trkpt>
      <trkpt lat="42.5636670" lon="-8.8908750">
        <ele>5.6</ele>
        <time>2020-08-07T17:45:36Z</time>
      </trkpt>
      <trkpt lat="42.5636990" lon="-8.8908780">
        <ele>5.6</ele>
        <time>2020-08-07T17:45:37Z</time>
      </trkpt>
      <trkpt lat="42.5636990" lon="-8.8908780">
        <ele>5.6</ele>
        <time>2020-08-07T17:45:38Z</time>
      </trkpt>
      <trkpt lat="42.5637180" lon="-8.8908830">
        <ele>5.4</ele>
        <time>2020-08-07T17:45:39Z</time>
      </trkpt>
      <trkpt lat="42.5637180" lon="-8.8908830">
        <ele>5.6</ele>
        <time>2020-08-07T17:45:40Z</time>
      </trkpt>
      <trkpt lat="42.5637470" lon="-8.8908900">
        <ele>6.2</ele>
        <time>2020-08-07T17:45:41Z</time>
      </trkpt>
      <trkpt lat="42.5637470" lon="-8.8908900">
        <ele>5.8</ele>
        <time>2020-08-07T17:45:42Z</time>
      </trkpt>
      <trkpt lat="42.5637730" lon="-8.8908930">
        <ele>5.6</ele>
        <time>2020-08-07T17:45:43Z</time>
      </trkpt>
      <trkpt lat="42.5637730" lon="-8.8908930">
        <ele>5.4</ele>
        <time>2020-08-07T17:45:44Z</time>
      </trkpt>
      <trkpt lat="42.5637980" lon="-8.8908930">
        <ele>5.4</ele>
        <time>2020-08-07T17:45:45Z</time>
      </trkpt>
      <trkpt lat="42.5637980" lon="-8.8908930">
        <ele>5.2</ele>
        <time>2020-08-07T17:45:46Z</time>
      </trkpt>
      <trkpt lat="42.5638240" lon="-8.8908950">
        <ele>4.8</ele>
        <time>2020-08-07T17:45:47Z</time>
      </trkpt>
      <trkpt lat="42.5638430" lon="-8.8908970">
        <ele>4.8</ele>
        <time>2020-08-07T17:45:48Z</time>
      </trkpt>
      <trkpt lat="42.5638430" lon="-8.8908970">
        <ele>4.6</ele>
        <time>2020-08-07T17:45:49Z</time>
      </trkpt>
      <trkpt lat="42.5638660" lon="-8.8909020">
        <ele>5.0</ele>
        <time>2020-08-07T17:45:50Z</time>
      </trkpt>
      <trkpt lat="42.5638660" lon="-8.8909020">
        <ele>5.0</ele>
        <time>2020-08-07T17:45:51Z</time>
      </trkpt>
      <trkpt lat="42.5638910" lon="-8.8909080">
        <ele>5.2</ele>
        <time>2020-08-07T17:45:52Z</time>
      </trkpt>
      <trkpt lat="42.5638910" lon="-8.8909080">
        <ele>5.4</ele>
        <time>2020-08-07T17:45:53Z</time>
      </trkpt>
      <trkpt lat="42.5639200" lon="-8.8909130">
        <ele>5.4</ele>
        <time>2020-08-07T17:45:54Z</time>
      </trkpt>
      <trkpt lat="42.5639200" lon="-8.8909130">
        <ele>5.2</ele>
        <time>2020-08-07T17:45:55Z</time>
      </trkpt>
      <trkpt lat="42.5639460" lon="-8.8909150">
        <ele>5.2</ele>
        <time>2020-08-07T17:45:56Z</time>
      </trkpt>
      <trkpt lat="42.5639460" lon="-8.8909150">
        <ele>5.6</ele>
        <time>2020-08-07T17:45:57Z</time>
      </trkpt>
      <trkpt lat="42.5639650" lon="-8.8909170">
        <ele>6.0</ele>
        <time>2020-08-07T17:45:58Z</time>
      </trkpt>
      <trkpt lat="42.5639650" lon="-8.8909170">
        <ele>6.0</ele>
        <time>2020-08-07T17:45:59Z</time>
      </trkpt>
      <trkpt lat="42.5639900" lon="-8.8909260">
        <ele>6.0</ele>
        <time>2020-08-07T17:46:00Z</time>
      </trkpt>
      <trkpt lat="42.5639900" lon="-8.8909260">
        <ele>6.0</ele>
        <time>2020-08-07T17:46:01Z</time>
      </trkpt>
      <trkpt lat="42.5640160" lon="-8.8909350">
        <ele>6.2</ele>
        <time>2020-08-07T17:46:02Z</time>
      </trkpt>
      <trkpt lat="42.5640160" lon="-8.8909350">
        <ele>5.8</ele>
        <time>2020-08-07T17:46:03Z</time>
      </trkpt>
      <trkpt lat="42.5640320" lon="-8.8909460">
        <ele>6.0</ele>
        <time>2020-08-07T17:46:04Z</time>
      </trkpt>
      <trkpt lat="42.5640320" lon="-8.8909460">
        <ele>6.2</ele>
        <time>2020-08-07T17:46:05Z</time>
      </trkpt>
      <trkpt lat="42.5640480" lon="-8.8909680">
        <ele>6.2</ele>
        <time>2020-08-07T17:46:06Z</time>
      </trkpt>
      <trkpt lat="42.5640480" lon="-8.8909680">
        <ele>6.0</ele>
        <time>2020-08-07T17:46:07Z</time>
      </trkpt>
      <trkpt lat="42.5640700" lon="-8.8909930">
        <ele>5.6</ele>
        <time>2020-08-07T17:46:08Z</time>
      </trkpt>
      <trkpt lat="42.5640700" lon="-8.8909930">
        <ele>5.6</ele>
        <time>2020-08-07T17:46:09Z</time>
      </trkpt>
      <trkpt lat="42.5640900" lon="-8.8910110">
        <ele>5.4</ele>
        <time>2020-08-07T17:46:10Z</time>
      </trkpt>
      <trkpt lat="42.5640900" lon="-8.8910110">
        <ele>5.8</ele>
        <time>2020-08-07T17:46:11Z</time>
      </trkpt>
      <trkpt lat="42.5641180" lon="-8.8910290">
        <ele>5.8</ele>
        <time>2020-08-07T17:46:12Z</time>
      </trkpt>
      <trkpt lat="42.5641180" lon="-8.8910290">
        <ele>5.8</ele>
        <time>2020-08-07T17:46:13Z</time>
      </trkpt>
      <trkpt lat="42.5641380" lon="-8.8910350">
        <ele>5.4</ele>
        <time>2020-08-07T17:46:14Z</time>
      </trkpt>
      <trkpt lat="42.5641380" lon="-8.8910350">
        <ele>5.4</ele>
        <time>2020-08-07T17:46:15Z</time>
      </trkpt>
      <trkpt lat="42.5641630" lon="-8.8910400">
        <ele>5.6</ele>
        <time>2020-08-07T17:46:16Z</time>
      </trkpt>
      <trkpt lat="42.5641630" lon="-8.8910400">
        <ele>5.8</ele>
        <time>2020-08-07T17:46:17Z</time>
      </trkpt>
      <trkpt lat="42.5641820" lon="-8.8910370">
        <ele>6.2</ele>
        <time>2020-08-07T17:46:18Z</time>
      </trkpt>
      <trkpt lat="42.5641820" lon="-8.8910370">
        <ele>6.2</ele>
        <time>2020-08-07T17:46:19Z</time>
      </trkpt>
      <trkpt lat="42.5642080" lon="-8.8910290">
        <ele>6.2</ele>
        <time>2020-08-07T17:46:20Z</time>
      </trkpt>
      <trkpt lat="42.5642080" lon="-8.8910290">
        <ele>6.2</ele>
        <time>2020-08-07T17:46:21Z</time>
      </trkpt>
      <trkpt lat="42.5642270" lon="-8.8910200">
        <ele>6.2</ele>
        <time>2020-08-07T17:46:22Z</time>
      </trkpt>
      <trkpt lat="42.5642270" lon="-8.8910200">
        <ele>6.8</ele>
        <time>2020-08-07T17:46:23Z</time>
      </trkpt>
      <trkpt lat="42.5642460" lon="-8.8910100">
        <ele>7.0</ele>
        <time>2020-08-07T17:46:24Z</time>
      </trkpt>
      <trkpt lat="42.5642460" lon="-8.8910100">
        <ele>7.0</ele>
        <time>2020-08-07T17:46:25Z</time>
      </trkpt>
      <trkpt lat="42.5642690" lon="-8.8909980">
        <ele>7.0</ele>
        <time>2020-08-07T17:46:26Z</time>
      </trkpt>
      <trkpt lat="42.5642690" lon="-8.8909980">
        <ele>7.0</ele>
        <time>2020-08-07T17:46:27Z</time>
      </trkpt>
      <trkpt lat="42.5642880" lon="-8.8909930">
        <ele>6.6</ele>
        <time>2020-08-07T17:46:28Z</time>
      </trkpt>
      <trkpt lat="42.5642880" lon="-8.8909930">
        <ele>6.8</ele>
        <time>2020-08-07T17:46:29Z</time>
      </trkpt>
      <trkpt lat="42.5643100" lon="-8.8909860">
        <ele>6.6</ele>
        <time>2020-08-07T17:46:30Z</time>
      </trkpt>
      <trkpt lat="42.5643100" lon="-8.8909860">
        <ele>6.2</ele>
        <time>2020-08-07T17:46:31Z</time>
      </trkpt>
      <trkpt lat="42.5643360" lon="-8.8909800">
        <ele>6.4</ele>
        <time>2020-08-07T17:46:32Z</time>
      </trkpt>
      <trkpt lat="42.5643360" lon="-8.8909800">
        <ele>6.4</ele>
        <time>2020-08-07T17:46:33Z</time>
      </trkpt>
      <trkpt lat="42.5643360" lon="-8.8909800">
        <ele>6.6</ele>
        <time>2020-08-07T17:46:34Z</time>
      </trkpt>
      <trkpt lat="42.5643580" lon="-8.8909780">
        <ele>6.4</ele>
        <time>2020-08-07T17:46:35Z</time>
      </trkpt>
      <trkpt lat="42.5643580" lon="-8.8909780">
        <ele>6.8</ele>
        <time>2020-08-07T17:46:36Z</time>
      </trkpt>
      <trkpt lat="42.5643780" lon="-8.8909800">
        <ele>7.0</ele>
        <time>2020-08-07T17:46:37Z</time>
      </trkpt>
      <trkpt lat="42.5643780" lon="-8.8909800">
        <ele>7.4</ele>
        <time>2020-08-07T17:46:38Z</time>
      </trkpt>
      <trkpt lat="42.5643780" lon="-8.8909800">
        <ele>7.6</ele>
        <time>2020-08-07T17:46:39Z</time>
      </trkpt>
      <trkpt lat="42.5643970" lon="-8.8909900">
        <ele>7.6</ele>
        <time>2020-08-07T17:46:40Z</time>
      </trkpt>
      <trkpt lat="42.5643970" lon="-8.8909900">
        <ele>8.0</ele>
        <time>2020-08-07T17:46:41Z</time>
      </trkpt>
      <trkpt lat="42.5643970" lon="-8.8909900">
        <ele>7.8</ele>
        <time>2020-08-07T17:46:42Z</time>
      </trkpt>
      <trkpt lat="42.5644100" lon="-8.8910110">
        <ele>7.8</ele>
        <time>2020-08-07T17:46:43Z</time>
      </trkpt>
      <trkpt lat="42.5644100" lon="-8.8910110">
        <ele>7.6</ele>
        <time>2020-08-07T17:46:44Z</time>
      </trkpt>
      <trkpt lat="42.5644290" lon="-8.8910370">
        <ele>7.4</ele>
        <time>2020-08-07T17:46:45Z</time>
      </trkpt>
      <trkpt lat="42.5644290" lon="-8.8910370">
        <ele>7.2</ele>
        <time>2020-08-07T17:46:46Z</time>
      </trkpt>
      <trkpt lat="42.5644450" lon="-8.8910570">
        <ele>7.2</ele>
        <time>2020-08-07T17:46:47Z</time>
      </trkpt>
      <trkpt lat="42.5644450" lon="-8.8910570">
        <ele>7.6</ele>
        <time>2020-08-07T17:46:48Z</time>
      </trkpt>
      <trkpt lat="42.5644740" lon="-8.8910650">
        <ele>7.4</ele>
        <time>2020-08-07T17:46:49Z</time>
      </trkpt>
      <trkpt lat="42.5644740" lon="-8.8910650">
        <ele>7.4</ele>
        <time>2020-08-07T17:46:50Z</time>
      </trkpt>
      <trkpt lat="42.5644990" lon="-8.8910660">
        <ele>7.0</ele>
        <time>2020-08-07T17:46:51Z</time>
      </trkpt>
      <trkpt lat="42.5644990" lon="-8.8910660">
        <ele>6.8</ele>
        <time>2020-08-07T17:46:52Z</time>
      </trkpt>
      <trkpt lat="42.5645250" lon="-8.8910700">
        <ele>6.4</ele>
        <time>2020-08-07T17:46:53Z</time>
      </trkpt>
      <trkpt lat="42.5645250" lon="-8.8910700">
        <ele>6.4</ele>
        <time>2020-08-07T17:46:54Z</time>
      </trkpt>
      <trkpt lat="42.5645540" lon="-8.8910700">
        <ele>6.0</ele>
        <time>2020-08-07T17:46:55Z</time>
      </trkpt>
      <trkpt lat="42.5645540" lon="-8.8910700">
        <ele>6.2</ele>
        <time>2020-08-07T17:46:56Z</time>
      </trkpt>
      <trkpt lat="42.5645760" lon="-8.8910700">
        <ele>6.2</ele>
        <time>2020-08-07T17:46:57Z</time>
      </trkpt>
      <trkpt lat="42.5645760" lon="-8.8910700">
        <ele>6.2</ele>
        <time>2020-08-07T17:46:58Z</time>
      </trkpt>
      <trkpt lat="42.5646020" lon="-8.8910710">
        <ele>6.2</ele>
        <time>2020-08-07T17:46:59Z</time>
      </trkpt>
      <trkpt lat="42.5646020" lon="-8.8910710">
        <ele>6.4</ele>
        <time>2020-08-07T17:47:00Z</time>
      </trkpt>
      <trkpt lat="42.5646210" lon="-8.8910700">
        <ele>6.6</ele>
        <time>2020-08-07T17:47:01Z</time>
      </trkpt>
      <trkpt lat="42.5646210" lon="-8.8910700">
        <ele>6.6</ele>
        <time>2020-08-07T17:47:02Z</time>
      </trkpt>
      <trkpt lat="42.5646530" lon="-8.8910700">
        <ele>7.0</ele>
        <time>2020-08-07T17:47:03Z</time>
      </trkpt>
      <trkpt lat="42.5646530" lon="-8.8910700">
        <ele>6.8</ele>
        <time>2020-08-07T17:47:04Z</time>
      </trkpt>
      <trkpt lat="42.5646750" lon="-8.8910750">
        <ele>7.0</ele>
        <time>2020-08-07T17:47:05Z</time>
      </trkpt>
      <trkpt lat="42.5646750" lon="-8.8910750">
        <ele>7.0</ele>
        <time>2020-08-07T17:47:06Z</time>
      </trkpt>
      <trkpt lat="42.5647010" lon="-8.8910800">
        <ele>7.2</ele>
        <time>2020-08-07T17:47:07Z</time>
      </trkpt>
      <trkpt lat="42.5647010" lon="-8.8910800">
        <ele>7.2</ele>
        <time>2020-08-07T17:47:08Z</time>
      </trkpt>
      <trkpt lat="42.5647200" lon="-8.8910820">
        <ele>7.0</ele>
        <time>2020-08-07T17:47:09Z</time>
      </trkpt>
      <trkpt lat="42.5647200" lon="-8.8910820">
        <ele>7.0</ele>
        <time>2020-08-07T17:47:10Z</time>
      </trkpt>
      <trkpt lat="42.5647460" lon="-8.8910860">
        <ele>7.2</ele>
        <time>2020-08-07T17:47:11Z</time>
      </trkpt>
      <trkpt lat="42.5647460" lon="-8.8910860">
        <ele>7.4</ele>
        <time>2020-08-07T17:47:12Z</time>
      </trkpt>
      <trkpt lat="42.5647710" lon="-8.8910910">
        <ele>7.2</ele>
        <time>2020-08-07T17:47:13Z</time>
      </trkpt>
      <trkpt lat="42.5647710" lon="-8.8910910">
        <ele>7.2</ele>
        <time>2020-08-07T17:47:14Z</time>
      </trkpt>
      <trkpt lat="42.5647940" lon="-8.8910980">
        <ele>7.2</ele>
        <time>2020-08-07T17:47:15Z</time>
      </trkpt>
      <trkpt lat="42.5647940" lon="-8.8910980">
        <ele>7.0</ele>
        <time>2020-08-07T17:47:16Z</time>
      </trkpt>
      <trkpt lat="42.5648220" lon="-8.8911050">
        <ele>7.0</ele>
        <time>2020-08-07T17:47:17Z</time>
      </trkpt>
      <trkpt lat="42.5648220" lon="-8.8911050">
        <ele>6.8</ele>
        <time>2020-08-07T17:47:18Z</time>
      </trkpt>
      <trkpt lat="42.5648510" lon="-8.8911100">
        <ele>6.8</ele>
        <time>2020-08-07T17:47:19Z</time>
      </trkpt>
      <trkpt lat="42.5648510" lon="-8.8911100">
        <ele>6.8</ele>
        <time>2020-08-07T17:47:20Z</time>
      </trkpt>
      <trkpt lat="42.5648770" lon="-8.8911200">
        <ele>6.4</ele>
        <time>2020-08-07T17:47:21Z</time>
      </trkpt>
      <trkpt lat="42.5648770" lon="-8.8911200">
        <ele>6.4</ele>
        <time>2020-08-07T17:47:22Z</time>
      </trkpt>
      <trkpt lat="42.5648990" lon="-8.8911240">
        <ele>6.4</ele>
        <time>2020-08-07T17:47:23Z</time>
      </trkpt>
      <trkpt lat="42.5648990" lon="-8.8911240">
        <ele>6.8</ele>
        <time>2020-08-07T17:47:24Z</time>
      </trkpt>
      <trkpt lat="42.5649250" lon="-8.8911350">
        <ele>6.8</ele>
        <time>2020-08-07T17:47:25Z</time>
      </trkpt>
      <trkpt lat="42.5649250" lon="-8.8911350">
        <ele>6.6</ele>
        <time>2020-08-07T17:47:26Z</time>
      </trkpt>
      <trkpt lat="42.5649540" lon="-8.8911420">
        <ele>6.6</ele>
        <time>2020-08-07T17:47:27Z</time>
      </trkpt>
      <trkpt lat="42.5649540" lon="-8.8911420">
        <ele>6.8</ele>
        <time>2020-08-07T17:47:28Z</time>
      </trkpt>
      <trkpt lat="42.5649790" lon="-8.8911490">
        <ele>6.2</ele>
        <time>2020-08-07T17:47:29Z</time>
      </trkpt>
      <trkpt lat="42.5649790" lon="-8.8911490">
        <ele>6.2</ele>
        <time>2020-08-07T17:47:30Z</time>
      </trkpt>
      <trkpt lat="42.5650110" lon="-8.8911580">
        <ele>6.2</ele>
        <time>2020-08-07T17:47:31Z</time>
      </trkpt>
      <trkpt lat="42.5650110" lon="-8.8911580">
        <ele>6.2</ele>
        <time>2020-08-07T17:47:32Z</time>
      </trkpt>
      <trkpt lat="42.5650340" lon="-8.8911570">
        <ele>5.6</ele>
        <time>2020-08-07T17:47:33Z</time>
      </trkpt>
      <trkpt lat="42.5650340" lon="-8.8911570">
        <ele>5.8</ele>
        <time>2020-08-07T17:47:34Z</time>
      </trkpt>
      <trkpt lat="42.5650620" lon="-8.8911580">
        <ele>5.8</ele>
        <time>2020-08-07T17:47:35Z</time>
      </trkpt>
      <trkpt lat="42.5650620" lon="-8.8911580">
        <ele>5.8</ele>
        <time>2020-08-07T17:47:36Z</time>
      </trkpt>
      <trkpt lat="42.5650820" lon="-8.8911600">
        <ele>6.0</ele>
        <time>2020-08-07T17:47:37Z</time>
      </trkpt>
      <trkpt lat="42.5650820" lon="-8.8911600">
        <ele>6.6</ele>
        <time>2020-08-07T17:47:38Z</time>
      </trkpt>
      <trkpt lat="42.5651010" lon="-8.8911620">
        <ele>7.0</ele>
        <time>2020-08-07T17:47:39Z</time>
      </trkpt>
      <trkpt lat="42.5651010" lon="-8.8911620">
        <ele>7.0</ele>
        <time>2020-08-07T17:47:40Z</time>
      </trkpt>
      <trkpt lat="42.5651010" lon="-8.8911620">
        <ele>7.2</ele>
        <time>2020-08-07T17:47:41Z</time>
      </trkpt>
      <trkpt lat="42.5651330" lon="-8.8911550">
        <ele>6.8</ele>
        <time>2020-08-07T17:47:42Z</time>
      </trkpt>
      <trkpt lat="42.5651330" lon="-8.8911550">
        <ele>7.2</ele>
        <time>2020-08-07T17:47:43Z</time>
      </trkpt>
      <trkpt lat="42.5651550" lon="-8.8911490">
        <ele>7.0</ele>
        <time>2020-08-07T17:47:44Z</time>
      </trkpt>
      <trkpt lat="42.5651550" lon="-8.8911490">
        <ele>7.2</ele>
        <time>2020-08-07T17:47:45Z</time>
      </trkpt>
      <trkpt lat="42.5651780" lon="-8.8911490">
        <ele>7.2</ele>
        <time>2020-08-07T17:47:46Z</time>
      </trkpt>
      <trkpt lat="42.5651780" lon="-8.8911490">
        <ele>6.8</ele>
        <time>2020-08-07T17:47:47Z</time>
      </trkpt>
      <trkpt lat="42.5652030" lon="-8.8911540">
        <ele>7.0</ele>
        <time>2020-08-07T17:47:48Z</time>
      </trkpt>
      <trkpt lat="42.5652030" lon="-8.8911540">
        <ele>7.0</ele>
        <time>2020-08-07T17:47:49Z</time>
      </trkpt>
      <trkpt lat="42.5652320" lon="-8.8911580">
        <ele>6.8</ele>
        <time>2020-08-07T17:47:50Z</time>
      </trkpt>
      <trkpt lat="42.5652320" lon="-8.8911580">
        <ele>6.8</ele>
        <time>2020-08-07T17:47:51Z</time>
      </trkpt>
      <trkpt lat="42.5652580" lon="-8.8911580">
        <ele>7.0</ele>
        <time>2020-08-07T17:47:52Z</time>
      </trkpt>
      <trkpt lat="42.5652580" lon="-8.8911580">
        <ele>6.8</ele>
        <time>2020-08-07T17:47:53Z</time>
      </trkpt>
      <trkpt lat="42.5652830" lon="-8.8911550">
        <ele>6.8</ele>
        <time>2020-08-07T17:47:54Z</time>
      </trkpt>
      <trkpt lat="42.5652830" lon="-8.8911550">
        <ele>7.0</ele>
        <time>2020-08-07T17:47:55Z</time>
      </trkpt>
      <trkpt lat="42.5653150" lon="-8.8911460">
        <ele>6.8</ele>
        <time>2020-08-07T17:47:56Z</time>
      </trkpt>
      <trkpt lat="42.5653150" lon="-8.8911460">
        <ele>6.6</ele>
        <time>2020-08-07T17:47:57Z</time>
      </trkpt>
      <trkpt lat="42.5653380" lon="-8.8911400">
        <ele>6.4</ele>
        <time>2020-08-07T17:47:58Z</time>
      </trkpt>
      <trkpt lat="42.5653380" lon="-8.8911400">
        <ele>6.4</ele>
        <time>2020-08-07T17:47:59Z</time>
      </trkpt>
      <trkpt lat="42.5653660" lon="-8.8911360">
        <ele>6.2</ele>
        <time>2020-08-07T17:48:00Z</time>
      </trkpt>
      <trkpt lat="42.5653660" lon="-8.8911360">
        <ele>6.2</ele>
        <time>2020-08-07T17:48:01Z</time>
      </trkpt>
      <trkpt lat="42.5653920" lon="-8.8911380">
        <ele>6.2</ele>
        <time>2020-08-07T17:48:02Z</time>
      </trkpt>
      <trkpt lat="42.5653920" lon="-8.8911380">
        <ele>6.4</ele>
        <time>2020-08-07T17:48:03Z</time>
      </trkpt>
      <trkpt lat="42.5654140" lon="-8.8911440">
        <ele>6.4</ele>
        <time>2020-08-07T17:48:04Z</time>
      </trkpt>
      <trkpt lat="42.5654140" lon="-8.8911440">
        <ele>6.6</ele>
        <time>2020-08-07T17:48:05Z</time>
      </trkpt>
      <trkpt lat="42.5654340" lon="-8.8911510">
        <ele>6.4</ele>
        <time>2020-08-07T17:48:06Z</time>
      </trkpt>
      <trkpt lat="42.5654340" lon="-8.8911510">
        <ele>6.6</ele>
        <time>2020-08-07T17:48:07Z</time>
      </trkpt>
      <trkpt lat="42.5654560" lon="-8.8911650">
        <ele>6.6</ele>
        <time>2020-08-07T17:48:08Z</time>
      </trkpt>
      <trkpt lat="42.5654560" lon="-8.8911650">
        <ele>6.8</ele>
        <time>2020-08-07T17:48:09Z</time>
      </trkpt>
      <trkpt lat="42.5654780" lon="-8.8911760">
        <ele>7.0</ele>
        <time>2020-08-07T17:48:10Z</time>
      </trkpt>
      <trkpt lat="42.5654780" lon="-8.8911760">
        <ele>6.8</ele>
        <time>2020-08-07T17:48:11Z</time>
      </trkpt>
      <trkpt lat="42.5655010" lon="-8.8911860">
        <ele>6.4</ele>
        <time>2020-08-07T17:48:12Z</time>
      </trkpt>
      <trkpt lat="42.5655010" lon="-8.8911860">
        <ele>6.0</ele>
        <time>2020-08-07T17:48:13Z</time>
      </trkpt>
      <trkpt lat="42.5655260" lon="-8.8912000">
        <ele>6.0</ele>
        <time>2020-08-07T17:48:14Z</time>
      </trkpt>
      <trkpt lat="42.5655260" lon="-8.8912000">
        <ele>6.0</ele>
        <time>2020-08-07T17:48:15Z</time>
      </trkpt>
      <trkpt lat="42.5655520" lon="-8.8912100">
        <ele>6.0</ele>
        <time>2020-08-07T17:48:16Z</time>
      </trkpt>
      <trkpt lat="42.5655520" lon="-8.8912100">
        <ele>6.2</ele>
        <time>2020-08-07T17:48:17Z</time>
      </trkpt>
      <trkpt lat="42.5655740" lon="-8.8912180">
        <ele>6.4</ele>
        <time>2020-08-07T17:48:18Z</time>
      </trkpt>
      <trkpt lat="42.5655740" lon="-8.8912180">
        <ele>6.4</ele>
        <time>2020-08-07T17:48:19Z</time>
      </trkpt>
      <trkpt lat="42.5656000" lon="-8.8912230">
        <ele>6.0</ele>
        <time>2020-08-07T17:48:20Z</time>
      </trkpt>
      <trkpt lat="42.5656000" lon="-8.8912230">
        <ele>6.0</ele>
        <time>2020-08-07T17:48:21Z</time>
      </trkpt>
      <trkpt lat="42.5656290" lon="-8.8912300">
        <ele>6.0</ele>
        <time>2020-08-07T17:48:22Z</time>
      </trkpt>
      <trkpt lat="42.5656290" lon="-8.8912300">
        <ele>6.2</ele>
        <time>2020-08-07T17:48:23Z</time>
      </trkpt>
      <trkpt lat="42.5656540" lon="-8.8912380">
        <ele>6.0</ele>
        <time>2020-08-07T17:48:24Z</time>
      </trkpt>
      <trkpt lat="42.5656540" lon="-8.8912380">
        <ele>6.4</ele>
        <time>2020-08-07T17:48:25Z</time>
      </trkpt>
      <trkpt lat="42.5656800" lon="-8.8912450">
        <ele>6.2</ele>
        <time>2020-08-07T17:48:26Z</time>
      </trkpt>
      <trkpt lat="42.5656800" lon="-8.8912450">
        <ele>6.0</ele>
        <time>2020-08-07T17:48:27Z</time>
      </trkpt>
      <trkpt lat="42.5657090" lon="-8.8912510">
        <ele>5.8</ele>
        <time>2020-08-07T17:48:28Z</time>
      </trkpt>
      <trkpt lat="42.5657090" lon="-8.8912510">
        <ele>5.8</ele>
        <time>2020-08-07T17:48:29Z</time>
      </trkpt>
      <trkpt lat="42.5657310" lon="-8.8912600">
        <ele>5.6</ele>
        <time>2020-08-07T17:48:30Z</time>
      </trkpt>
      <trkpt lat="42.5657310" lon="-8.8912600">
        <ele>5.8</ele>
        <time>2020-08-07T17:48:31Z</time>
      </trkpt>
      <trkpt lat="42.5657600" lon="-8.8912700">
        <ele>5.8</ele>
        <time>2020-08-07T17:48:32Z</time>
      </trkpt>
      <trkpt lat="42.5657600" lon="-8.8912700">
        <ele>5.8</ele>
        <time>2020-08-07T17:48:33Z</time>
      </trkpt>
      <trkpt lat="42.5657790" lon="-8.8912760">
        <ele>5.8</ele>
        <time>2020-08-07T17:48:34Z</time>
      </trkpt>
      <trkpt lat="42.5657790" lon="-8.8912760">
        <ele>5.6</ele>
        <time>2020-08-07T17:48:35Z</time>
      </trkpt>
      <trkpt lat="42.5658080" lon="-8.8912870">
        <ele>5.8</ele>
        <time>2020-08-07T17:48:36Z</time>
      </trkpt>
      <trkpt lat="42.5658080" lon="-8.8912870">
        <ele>5.8</ele>
        <time>2020-08-07T17:48:37Z</time>
      </trkpt>
      <trkpt lat="42.5658300" lon="-8.8912950">
        <ele>6.0</ele>
        <time>2020-08-07T17:48:38Z</time>
      </trkpt>
      <trkpt lat="42.5658300" lon="-8.8912950">
        <ele>6.0</ele>
        <time>2020-08-07T17:48:39Z</time>
      </trkpt>
      <trkpt lat="42.5658560" lon="-8.8913080">
        <ele>6.2</ele>
        <time>2020-08-07T17:48:40Z</time>
      </trkpt>
      <trkpt lat="42.5658560" lon="-8.8913080">
        <ele>6.2</ele>
        <time>2020-08-07T17:48:41Z</time>
      </trkpt>
      <trkpt lat="42.5658850" lon="-8.8913210">
        <ele>6.2</ele>
        <time>2020-08-07T17:48:42Z</time>
      </trkpt>
      <trkpt lat="42.5658850" lon="-8.8913210">
        <ele>6.0</ele>
        <time>2020-08-07T17:48:43Z</time>
      </trkpt>
      <trkpt lat="42.5659070" lon="-8.8913340">
        <ele>6.0</ele>
        <time>2020-08-07T17:48:44Z</time>
      </trkpt>
      <trkpt lat="42.5659070" lon="-8.8913340">
        <ele>6.2</ele>
        <time>2020-08-07T17:48:45Z</time>
      </trkpt>
      <trkpt lat="42.5659330" lon="-8.8913470">
        <ele>5.8</ele>
        <time>2020-08-07T17:48:46Z</time>
      </trkpt>
      <trkpt lat="42.5659330" lon="-8.8913470">
        <ele>6.2</ele>
        <time>2020-08-07T17:48:47Z</time>
      </trkpt>
      <trkpt lat="42.5659580" lon="-8.8913600">
        <ele>6.0</ele>
        <time>2020-08-07T17:48:48Z</time>
      </trkpt>
      <trkpt lat="42.5659580" lon="-8.8913600">
        <ele>6.0</ele>
        <time>2020-08-07T17:48:49Z</time>
      </trkpt>
      <trkpt lat="42.5659870" lon="-8.8913650">
        <ele>5.8</ele>
        <time>2020-08-07T17:48:50Z</time>
      </trkpt>
      <trkpt lat="42.5659870" lon="-8.8913650">
        <ele>5.6</ele>
        <time>2020-08-07T17:48:51Z</time>
      </trkpt>
      <trkpt lat="42.5660130" lon="-8.8913720">
        <ele>5.8</ele>
        <time>2020-08-07T17:48:52Z</time>
      </trkpt>
      <trkpt lat="42.5660130" lon="-8.8913720">
        <ele>6.0</ele>
        <time>2020-08-07T17:48:53Z</time>
      </trkpt>
      <trkpt lat="42.5660350" lon="-8.8913820">
        <ele>6.4</ele>
        <time>2020-08-07T17:48:54Z</time>
      </trkpt>
      <trkpt lat="42.5660350" lon="-8.8913820">
        <ele>6.2</ele>
        <time>2020-08-07T17:48:55Z</time>
      </trkpt>
      <trkpt lat="42.5660540" lon="-8.8913870">
        <ele>6.2</ele>
        <time>2020-08-07T17:48:56Z</time>
      </trkpt>
      <trkpt lat="42.5660540" lon="-8.8913870">
        <ele>6.2</ele>
        <time>2020-08-07T17:48:57Z</time>
      </trkpt>
      <trkpt lat="42.5660830" lon="-8.8913940">
        <ele>6.0</ele>
        <time>2020-08-07T17:48:58Z</time>
      </trkpt>
      <trkpt lat="42.5660830" lon="-8.8913940">
        <ele>5.8</ele>
        <time>2020-08-07T17:48:59Z</time>
      </trkpt>
      <trkpt lat="42.5661020" lon="-8.8914000">
        <ele>5.4</ele>
        <time>2020-08-07T17:49:00Z</time>
      </trkpt>
      <trkpt lat="42.5661020" lon="-8.8914000">
        <ele>5.4</ele>
        <time>2020-08-07T17:49:01Z</time>
      </trkpt>
      <trkpt lat="42.5661220" lon="-8.8914070">
        <ele>5.2</ele>
        <time>2020-08-07T17:49:02Z</time>
      </trkpt>
      <trkpt lat="42.5661220" lon="-8.8914070">
        <ele>5.4</ele>
        <time>2020-08-07T17:49:03Z</time>
      </trkpt>
      <trkpt lat="42.5661410" lon="-8.8914140">
        <ele>5.4</ele>
        <time>2020-08-07T17:49:04Z</time>
      </trkpt>
      <trkpt lat="42.5661410" lon="-8.8914140">
        <ele>5.2</ele>
        <time>2020-08-07T17:49:05Z</time>
      </trkpt>
      <trkpt lat="42.5661410" lon="-8.8914140">
        <ele>5.2</ele>
        <time>2020-08-07T17:49:06Z</time>
      </trkpt>
      <trkpt lat="42.5661700" lon="-8.8914230">
        <ele>5.4</ele>
        <time>2020-08-07T17:49:07Z</time>
      </trkpt>
      <trkpt lat="42.5661700" lon="-8.8914230">
        <ele>5.6</ele>
        <time>2020-08-07T17:49:08Z</time>
      </trkpt>
      <trkpt lat="42.5661920" lon="-8.8914340">
        <ele>5.6</ele>
        <time>2020-08-07T17:49:09Z</time>
      </trkpt>
      <trkpt lat="42.5661920" lon="-8.8914340">
        <ele>5.4</ele>
        <time>2020-08-07T17:49:10Z</time>
      </trkpt>
      <trkpt lat="42.5662110" lon="-8.8914420">
        <ele>5.2</ele>
        <time>2020-08-07T17:49:11Z</time>
      </trkpt>
      <trkpt lat="42.5662110" lon="-8.8914420">
        <ele>5.2</ele>
        <time>2020-08-07T17:49:12Z</time>
      </trkpt>
      <trkpt lat="42.5662340" lon="-8.8914480">
        <ele>5.2</ele>
        <time>2020-08-07T17:49:13Z</time>
      </trkpt>
      <trkpt lat="42.5662340" lon="-8.8914480">
        <ele>5.4</ele>
        <time>2020-08-07T17:49:14Z</time>
      </trkpt>
      <trkpt lat="42.5662620" lon="-8.8914570">
        <ele>5.2</ele>
        <time>2020-08-07T17:49:15Z</time>
      </trkpt>
      <trkpt lat="42.5662620" lon="-8.8914570">
        <ele>5.2</ele>
        <time>2020-08-07T17:49:16Z</time>
      </trkpt>
      <trkpt lat="42.5662880" lon="-8.8914670">
        <ele>4.8</ele>
        <time>2020-08-07T17:49:17Z</time>
      </trkpt>
      <trkpt lat="42.5662880" lon="-8.8914670">
        <ele>5.0</ele>
        <time>2020-08-07T17:49:18Z</time>
      </trkpt>
      <trkpt lat="42.5663100" lon="-8.8914810">
        <ele>4.6</ele>
        <time>2020-08-07T17:49:19Z</time>
      </trkpt>
      <trkpt lat="42.5663100" lon="-8.8914810">
        <ele>5.0</ele>
        <time>2020-08-07T17:49:20Z</time>
      </trkpt>
      <trkpt lat="42.5663300" lon="-8.8914930">
        <ele>4.8</ele>
        <time>2020-08-07T17:49:21Z</time>
      </trkpt>
      <trkpt lat="42.5663300" lon="-8.8914930">
        <ele>5.0</ele>
        <time>2020-08-07T17:49:22Z</time>
      </trkpt>
      <trkpt lat="42.5663520" lon="-8.8915060">
        <ele>4.8</ele>
        <time>2020-08-07T17:49:23Z</time>
      </trkpt>
      <trkpt lat="42.5663520" lon="-8.8915060">
        <ele>4.8</ele>
        <time>2020-08-07T17:49:24Z</time>
      </trkpt>
      <trkpt lat="42.5663740" lon="-8.8915140">
        <ele>4.6</ele>
        <time>2020-08-07T17:49:25Z</time>
      </trkpt>
      <trkpt lat="42.5663740" lon="-8.8915140">
        <ele>4.4</ele>
        <time>2020-08-07T17:49:26Z</time>
      </trkpt>
      <trkpt lat="42.5663940" lon="-8.8915230">
        <ele>4.2</ele>
        <time>2020-08-07T17:49:27Z</time>
      </trkpt>
      <trkpt lat="42.5663940" lon="-8.8915230">
        <ele>4.6</ele>
        <time>2020-08-07T17:49:28Z</time>
      </trkpt>
      <trkpt lat="42.5664130" lon="-8.8915350">
        <ele>4.4</ele>
        <time>2020-08-07T17:49:29Z</time>
      </trkpt>
      <trkpt lat="42.5664130" lon="-8.8915350">
        <ele>4.6</ele>
        <time>2020-08-07T17:49:30Z</time>
      </trkpt>
      <trkpt lat="42.5664130" lon="-8.8915350">
        <ele>4.8</ele>
        <time>2020-08-07T17:49:31Z</time>
      </trkpt>
      <trkpt lat="42.5664420" lon="-8.8915480">
        <ele>4.6</ele>
        <time>2020-08-07T17:49:32Z</time>
      </trkpt>
      <trkpt lat="42.5664420" lon="-8.8915480">
        <ele>4.4</ele>
        <time>2020-08-07T17:49:33Z</time>
      </trkpt>
      <trkpt lat="42.5664610" lon="-8.8915570">
        <ele>4.2</ele>
        <time>2020-08-07T17:49:34Z</time>
      </trkpt>
      <trkpt lat="42.5664610" lon="-8.8915570">
        <ele>4.2</ele>
        <time>2020-08-07T17:49:35Z</time>
      </trkpt>
      <trkpt lat="42.5664800" lon="-8.8915680">
        <ele>4.2</ele>
        <time>2020-08-07T17:49:36Z</time>
      </trkpt>
      <trkpt lat="42.5664800" lon="-8.8915680">
        <ele>4.4</ele>
        <time>2020-08-07T17:49:37Z</time>
      </trkpt>
      <trkpt lat="42.5665060" lon="-8.8915720">
        <ele>4.6</ele>
        <time>2020-08-07T17:49:38Z</time>
      </trkpt>
      <trkpt lat="42.5665060" lon="-8.8915720">
        <ele>4.8</ele>
        <time>2020-08-07T17:49:39Z</time>
      </trkpt>
      <trkpt lat="42.5665250" lon="-8.8915770">
        <ele>4.8</ele>
        <time>2020-08-07T17:49:40Z</time>
      </trkpt>
      <trkpt lat="42.5665250" lon="-8.8915770">
        <ele>5.2</ele>
        <time>2020-08-07T17:49:41Z</time>
      </trkpt>
      <trkpt lat="42.5665470" lon="-8.8915820">
        <ele>5.2</ele>
        <time>2020-08-07T17:49:42Z</time>
      </trkpt>
      <trkpt lat="42.5665470" lon="-8.8915820">
        <ele>5.4</ele>
        <time>2020-08-07T17:49:43Z</time>
      </trkpt>
      <trkpt lat="42.5665700" lon="-8.8915880">
        <ele>5.8</ele>
        <time>2020-08-07T17:49:44Z</time>
      </trkpt>
      <trkpt lat="42.5665700" lon="-8.8915880">
        <ele>5.6</ele>
        <time>2020-08-07T17:49:45Z</time>
      </trkpt>
      <trkpt lat="42.5665980" lon="-8.8915970">
        <ele>5.4</ele>
        <time>2020-08-07T17:49:46Z</time>
      </trkpt>
      <trkpt lat="42.5666180" lon="-8.8916030">
        <ele>5.6</ele>
        <time>2020-08-07T17:49:47Z</time>
      </trkpt>
      <trkpt lat="42.5666180" lon="-8.8916030">
        <ele>5.4</ele>
        <time>2020-08-07T17:49:48Z</time>
      </trkpt>
      <trkpt lat="42.5666460" lon="-8.8916130">
        <ele>4.8</ele>
        <time>2020-08-07T17:49:49Z</time>
      </trkpt>
      <trkpt lat="42.5666460" lon="-8.8916130">
        <ele>4.8</ele>
        <time>2020-08-07T17:49:50Z</time>
      </trkpt>
      <trkpt lat="42.5666720" lon="-8.8916220">
        <ele>4.6</ele>
        <time>2020-08-07T17:49:51Z</time>
      </trkpt>
      <trkpt lat="42.5666720" lon="-8.8916220">
        <ele>4.4</ele>
        <time>2020-08-07T17:49:52Z</time>
      </trkpt>
      <trkpt lat="42.5666980" lon="-8.8916300">
        <ele>4.6</ele>
        <time>2020-08-07T17:49:53Z</time>
      </trkpt>
      <trkpt lat="42.5666980" lon="-8.8916300">
        <ele>4.4</ele>
        <time>2020-08-07T17:49:54Z</time>
      </trkpt>
      <trkpt lat="42.5667230" lon="-8.8916330">
        <ele>4.6</ele>
        <time>2020-08-07T17:49:55Z</time>
      </trkpt>
      <trkpt lat="42.5667230" lon="-8.8916330">
        <ele>4.6</ele>
        <time>2020-08-07T17:49:56Z</time>
      </trkpt>
      <trkpt lat="42.5667520" lon="-8.8916370">
        <ele>5.0</ele>
        <time>2020-08-07T17:49:57Z</time>
      </trkpt>
      <trkpt lat="42.5667520" lon="-8.8916370">
        <ele>4.6</ele>
        <time>2020-08-07T17:49:58Z</time>
      </trkpt>
      <trkpt lat="42.5667780" lon="-8.8916380">
        <ele>4.4</ele>
        <time>2020-08-07T17:49:59Z</time>
      </trkpt>
      <trkpt lat="42.5667780" lon="-8.8916380">
        <ele>4.4</ele>
        <time>2020-08-07T17:50:00Z</time>
      </trkpt>
      <trkpt lat="42.5668060" lon="-8.8916520">
        <ele>4.8</ele>
        <time>2020-08-07T17:50:01Z</time>
      </trkpt>
      <trkpt lat="42.5668060" lon="-8.8916520">
        <ele>4.8</ele>
        <time>2020-08-07T17:50:02Z</time>
      </trkpt>
      <trkpt lat="42.5668260" lon="-8.8916580">
        <ele>5.0</ele>
        <time>2020-08-07T17:50:03Z</time>
      </trkpt>
      <trkpt lat="42.5668260" lon="-8.8916580">
        <ele>5.0</ele>
        <time>2020-08-07T17:50:04Z</time>
      </trkpt>
      <trkpt lat="42.5668580" lon="-8.8916700">
        <ele>5.0</ele>
        <time>2020-08-07T17:50:05Z</time>
      </trkpt>
      <trkpt lat="42.5668580" lon="-8.8916700">
        <ele>5.0</ele>
        <time>2020-08-07T17:50:06Z</time>
      </trkpt>
      <trkpt lat="42.5668770" lon="-8.8916830">
        <ele>5.2</ele>
        <time>2020-08-07T17:50:07Z</time>
      </trkpt>
      <trkpt lat="42.5668770" lon="-8.8916830">
        <ele>5.2</ele>
        <time>2020-08-07T17:50:08Z</time>
      </trkpt>
      <trkpt lat="42.5669060" lon="-8.8916970">
        <ele>5.4</ele>
        <time>2020-08-07T17:50:09Z</time>
      </trkpt>
      <trkpt lat="42.5669060" lon="-8.8916970">
        <ele>5.2</ele>
        <time>2020-08-07T17:50:10Z</time>
      </trkpt>
      <trkpt lat="42.5669310" lon="-8.8917080">
        <ele>5.4</ele>
        <time>2020-08-07T17:50:11Z</time>
      </trkpt>
      <trkpt lat="42.5669310" lon="-8.8917080">
        <ele>5.0</ele>
        <time>2020-08-07T17:50:12Z</time>
      </trkpt>
      <trkpt lat="42.5669570" lon="-8.8917220">
        <ele>5.0</ele>
        <time>2020-08-07T17:50:13Z</time>
      </trkpt>
      <trkpt lat="42.5669570" lon="-8.8917220">
        <ele>5.4</ele>
        <time>2020-08-07T17:50:14Z</time>
      </trkpt>
      <trkpt lat="42.5669790" lon="-8.8917250">
        <ele>5.2</ele>
        <time>2020-08-07T17:50:15Z</time>
      </trkpt>
      <trkpt lat="42.5669790" lon="-8.8917250">
        <ele>5.2</ele>
        <time>2020-08-07T17:50:16Z</time>
      </trkpt>
      <trkpt lat="42.5670050" lon="-8.8917290">
        <ele>5.2</ele>
        <time>2020-08-07T17:50:17Z</time>
      </trkpt>
      <trkpt lat="42.5670240" lon="-8.8917300">
        <ele>5.0</ele>
        <time>2020-08-07T17:50:18Z</time>
      </trkpt>
      <trkpt lat="42.5670240" lon="-8.8917300">
        <ele>4.8</ele>
        <time>2020-08-07T17:50:19Z</time>
      </trkpt>
      <trkpt lat="42.5670460" lon="-8.8917330">
        <ele>5.0</ele>
        <time>2020-08-07T17:50:20Z</time>
      </trkpt>
      <trkpt lat="42.5670460" lon="-8.8917330">
        <ele>5.0</ele>
        <time>2020-08-07T17:50:21Z</time>
      </trkpt>
      <trkpt lat="42.5670690" lon="-8.8917400">
        <ele>4.8</ele>
        <time>2020-08-07T17:50:22Z</time>
      </trkpt>
      <trkpt lat="42.5670690" lon="-8.8917400">
        <ele>4.8</ele>
        <time>2020-08-07T17:50:23Z</time>
      </trkpt>
      <trkpt lat="42.5670940" lon="-8.8917500">
        <ele>4.8</ele>
        <time>2020-08-07T17:50:24Z</time>
      </trkpt>
      <trkpt lat="42.5670940" lon="-8.8917500">
        <ele>5.2</ele>
        <time>2020-08-07T17:50:25Z</time>
      </trkpt>
      <trkpt lat="42.5671170" lon="-8.8917580">
        <ele>5.4</ele>
        <time>2020-08-07T17:50:26Z</time>
      </trkpt>
      <trkpt lat="42.5671170" lon="-8.8917580">
        <ele>5.4</ele>
        <time>2020-08-07T17:50:27Z</time>
      </trkpt>
      <trkpt lat="42.5671390" lon="-8.8917640">
        <ele>5.4</ele>
        <time>2020-08-07T17:50:28Z</time>
      </trkpt>
      <trkpt lat="42.5671390" lon="-8.8917640">
        <ele>6.0</ele>
        <time>2020-08-07T17:50:29Z</time>
      </trkpt>
      <trkpt lat="42.5671620" lon="-8.8917660">
        <ele>6.0</ele>
        <time>2020-08-07T17:50:30Z</time>
      </trkpt>
      <trkpt lat="42.5671620" lon="-8.8917660">
        <ele>5.8</ele>
        <time>2020-08-07T17:50:31Z</time>
      </trkpt>
      <trkpt lat="42.5671870" lon="-8.8917710">
        <ele>6.0</ele>
        <time>2020-08-07T17:50:32Z</time>
      </trkpt>
      <trkpt lat="42.5671870" lon="-8.8917710">
        <ele>6.2</ele>
        <time>2020-08-07T17:50:33Z</time>
      </trkpt>
      <trkpt lat="42.5672100" lon="-8.8917750">
        <ele>6.0</ele>
        <time>2020-08-07T17:50:34Z</time>
      </trkpt>
      <trkpt lat="42.5672100" lon="-8.8917750">
        <ele>6.0</ele>
        <time>2020-08-07T17:50:35Z</time>
      </trkpt>
      <trkpt lat="42.5672350" lon="-8.8917750">
        <ele>6.0</ele>
        <time>2020-08-07T17:50:36Z</time>
      </trkpt>
      <trkpt lat="42.5672350" lon="-8.8917750">
        <ele>5.6</ele>
        <time>2020-08-07T17:50:37Z</time>
      </trkpt>
      <trkpt lat="42.5672580" lon="-8.8917800">
        <ele>5.2</ele>
        <time>2020-08-07T17:50:38Z</time>
      </trkpt>
      <trkpt lat="42.5672580" lon="-8.8917800">
        <ele>5.0</ele>
        <time>2020-08-07T17:50:39Z</time>
      </trkpt>
      <trkpt lat="42.5672860" lon="-8.8917900">
        <ele>4.8</ele>
        <time>2020-08-07T17:50:40Z</time>
      </trkpt>
      <trkpt lat="42.5672860" lon="-8.8917900">
        <ele>5.2</ele>
        <time>2020-08-07T17:50:41Z</time>
      </trkpt>
      <trkpt lat="42.5673060" lon="-8.8917970">
        <ele>5.4</ele>
        <time>2020-08-07T17:50:42Z</time>
      </trkpt>
      <trkpt lat="42.5673060" lon="-8.8917970">
        <ele>5.4</ele>
        <time>2020-08-07T17:50:43Z</time>
      </trkpt>
      <trkpt lat="42.5673340" lon="-8.8918000">
        <ele>5.2</ele>
        <time>2020-08-07T17:50:44Z</time>
      </trkpt>
      <trkpt lat="42.5673340" lon="-8.8918000">
        <ele>5.0</ele>
        <time>2020-08-07T17:50:45Z</time>
      </trkpt>
      <trkpt lat="42.5673570" lon="-8.8918050">
        <ele>5.0</ele>
        <time>2020-08-07T17:50:46Z</time>
      </trkpt>
      <trkpt lat="42.5673570" lon="-8.8918050">
        <ele>5.2</ele>
        <time>2020-08-07T17:50:47Z</time>
      </trkpt>
      <trkpt lat="42.5673820" lon="-8.8918110">
        <ele>5.2</ele>
        <time>2020-08-07T17:50:48Z</time>
      </trkpt>
      <trkpt lat="42.5673820" lon="-8.8918110">
        <ele>5.2</ele>
        <time>2020-08-07T17:50:49Z</time>
      </trkpt>
      <trkpt lat="42.5674020" lon="-8.8918170">
        <ele>5.4</ele>
        <time>2020-08-07T17:50:50Z</time>
      </trkpt>
      <trkpt lat="42.5674020" lon="-8.8918170">
        <ele>5.4</ele>
        <time>2020-08-07T17:50:51Z</time>
      </trkpt>
      <trkpt lat="42.5674240" lon="-8.8918250">
        <ele>5.6</ele>
        <time>2020-08-07T17:50:52Z</time>
      </trkpt>
      <trkpt lat="42.5674240" lon="-8.8918250">
        <ele>5.6</ele>
        <time>2020-08-07T17:50:53Z</time>
      </trkpt>
      <trkpt lat="42.5674530" lon="-8.8918310">
        <ele>5.2</ele>
        <time>2020-08-07T17:50:54Z</time>
      </trkpt>
      <trkpt lat="42.5674530" lon="-8.8918310">
        <ele>5.2</ele>
        <time>2020-08-07T17:50:55Z</time>
      </trkpt>
      <trkpt lat="42.5674530" lon="-8.8918310">
        <ele>5.6</ele>
        <time>2020-08-07T17:50:56Z</time>
      </trkpt>
      <trkpt lat="42.5674780" lon="-8.8918440">
        <ele>5.6</ele>
        <time>2020-08-07T17:50:57Z</time>
      </trkpt>
      <trkpt lat="42.5674780" lon="-8.8918440">
        <ele>5.4</ele>
        <time>2020-08-07T17:50:58Z</time>
      </trkpt>
      <trkpt lat="42.5674980" lon="-8.8918510">
        <ele>5.4</ele>
        <time>2020-08-07T17:50:59Z</time>
      </trkpt>
      <trkpt lat="42.5674980" lon="-8.8918510">
        <ele>5.8</ele>
        <time>2020-08-07T17:51:00Z</time>
      </trkpt>
      <trkpt lat="42.5675170" lon="-8.8918600">
        <ele>5.6</ele>
        <time>2020-08-07T17:51:01Z</time>
      </trkpt>
      <trkpt lat="42.5675170" lon="-8.8918600">
        <ele>6.0</ele>
        <time>2020-08-07T17:51:02Z</time>
      </trkpt>
      <trkpt lat="42.5675360" lon="-8.8918660">
        <ele>5.8</ele>
        <time>2020-08-07T17:51:03Z</time>
      </trkpt>
      <trkpt lat="42.5675360" lon="-8.8918660">
        <ele>5.6</ele>
        <time>2020-08-07T17:51:04Z</time>
      </trkpt>
      <trkpt lat="42.5675360" lon="-8.8918660">
        <ele>5.8</ele>
        <time>2020-08-07T17:51:05Z</time>
      </trkpt>
      <trkpt lat="42.5675620" lon="-8.8918750">
        <ele>5.4</ele>
        <time>2020-08-07T17:51:06Z</time>
      </trkpt>
      <trkpt lat="42.5675620" lon="-8.8918750">
        <ele>5.4</ele>
        <time>2020-08-07T17:51:07Z</time>
      </trkpt>
      <trkpt lat="42.5675900" lon="-8.8918830">
        <ele>5.2</ele>
        <time>2020-08-07T17:51:08Z</time>
      </trkpt>
      <trkpt lat="42.5675900" lon="-8.8918830">
        <ele>5.0</ele>
        <time>2020-08-07T17:51:09Z</time>
      </trkpt>
      <trkpt lat="42.5676130" lon="-8.8918910">
        <ele>5.2</ele>
        <time>2020-08-07T17:51:10Z</time>
      </trkpt>
      <trkpt lat="42.5676130" lon="-8.8918910">
        <ele>5.2</ele>
        <time>2020-08-07T17:51:11Z</time>
      </trkpt>
      <trkpt lat="42.5676350" lon="-8.8919030">
        <ele>5.2</ele>
        <time>2020-08-07T17:51:12Z</time>
      </trkpt>
      <trkpt lat="42.5676350" lon="-8.8919030">
        <ele>5.2</ele>
        <time>2020-08-07T17:51:13Z</time>
      </trkpt>
      <trkpt lat="42.5676610" lon="-8.8919110">
        <ele>4.6</ele>
        <time>2020-08-07T17:51:14Z</time>
      </trkpt>
      <trkpt lat="42.5676610" lon="-8.8919110">
        <ele>5.0</ele>
        <time>2020-08-07T17:51:15Z</time>
      </trkpt>
      <trkpt lat="42.5676860" lon="-8.8919230">
        <ele>5.2</ele>
        <time>2020-08-07T17:51:16Z</time>
      </trkpt>
      <trkpt lat="42.5676860" lon="-8.8919230">
        <ele>5.2</ele>
        <time>2020-08-07T17:51:17Z</time>
      </trkpt>
      <trkpt lat="42.5677150" lon="-8.8919350">
        <ele>5.6</ele>
        <time>2020-08-07T17:51:18Z</time>
      </trkpt>
      <trkpt lat="42.5677150" lon="-8.8919350">
        <ele>5.4</ele>
        <time>2020-08-07T17:51:19Z</time>
      </trkpt>
      <trkpt lat="42.5677440" lon="-8.8919500">
        <ele>5.6</ele>
        <time>2020-08-07T17:51:20Z</time>
      </trkpt>
      <trkpt lat="42.5677440" lon="-8.8919500">
        <ele>6.0</ele>
        <time>2020-08-07T17:51:21Z</time>
      </trkpt>
      <trkpt lat="42.5677730" lon="-8.8919600">
        <ele>5.8</ele>
        <time>2020-08-07T17:51:22Z</time>
      </trkpt>
      <trkpt lat="42.5677730" lon="-8.8919600">
        <ele>6.0</ele>
        <time>2020-08-07T17:51:23Z</time>
      </trkpt>
      <trkpt lat="42.5678020" lon="-8.8919750">
        <ele>6.4</ele>
        <time>2020-08-07T17:51:24Z</time>
      </trkpt>
      <trkpt lat="42.5678240" lon="-8.8919830">
        <ele>5.8</ele>
        <time>2020-08-07T17:51:25Z</time>
      </trkpt>
      <trkpt lat="42.5678240" lon="-8.8919830">
        <ele>6.0</ele>
        <time>2020-08-07T17:51:26Z</time>
      </trkpt>
      <trkpt lat="42.5678530" lon="-8.8919920">
        <ele>6.0</ele>
        <time>2020-08-07T17:51:27Z</time>
      </trkpt>
      <trkpt lat="42.5678720" lon="-8.8919960">
        <ele>6.0</ele>
        <time>2020-08-07T17:51:28Z</time>
      </trkpt>
      <trkpt lat="42.5678720" lon="-8.8919960">
        <ele>6.4</ele>
        <time>2020-08-07T17:51:29Z</time>
      </trkpt>
      <trkpt lat="42.5678980" lon="-8.8920020">
        <ele>6.2</ele>
        <time>2020-08-07T17:51:30Z</time>
      </trkpt>
      <trkpt lat="42.5679170" lon="-8.8920070">
        <ele>6.6</ele>
        <time>2020-08-07T17:51:31Z</time>
      </trkpt>
      <trkpt lat="42.5679170" lon="-8.8920070">
        <ele>7.0</ele>
        <time>2020-08-07T17:51:32Z</time>
      </trkpt>
      <trkpt lat="42.5679420" lon="-8.8920200">
        <ele>6.8</ele>
        <time>2020-08-07T17:51:33Z</time>
      </trkpt>
      <trkpt lat="42.5679420" lon="-8.8920200">
        <ele>6.6</ele>
        <time>2020-08-07T17:51:34Z</time>
      </trkpt>
      <trkpt lat="42.5679710" lon="-8.8920250">
        <ele>6.4</ele>
        <time>2020-08-07T17:51:35Z</time>
      </trkpt>
      <trkpt lat="42.5679710" lon="-8.8920250">
        <ele>6.2</ele>
        <time>2020-08-07T17:51:36Z</time>
      </trkpt>
      <trkpt lat="42.5679940" lon="-8.8920290">
        <ele>6.0</ele>
        <time>2020-08-07T17:51:37Z</time>
      </trkpt>
      <trkpt lat="42.5679940" lon="-8.8920290">
        <ele>6.0</ele>
        <time>2020-08-07T17:51:38Z</time>
      </trkpt>
      <trkpt lat="42.5680190" lon="-8.8920340">
        <ele>6.4</ele>
        <time>2020-08-07T17:51:39Z</time>
      </trkpt>
      <trkpt lat="42.5680190" lon="-8.8920340">
        <ele>6.6</ele>
        <time>2020-08-07T17:51:40Z</time>
      </trkpt>
      <trkpt lat="42.5680510" lon="-8.8920340">
        <ele>6.2</ele>
        <time>2020-08-07T17:51:41Z</time>
      </trkpt>
      <trkpt lat="42.5680510" lon="-8.8920340">
        <ele>6.2</ele>
        <time>2020-08-07T17:51:42Z</time>
      </trkpt>
      <trkpt lat="42.5680770" lon="-8.8920430">
        <ele>6.6</ele>
        <time>2020-08-07T17:51:43Z</time>
      </trkpt>
      <trkpt lat="42.5680770" lon="-8.8920430">
        <ele>7.0</ele>
        <time>2020-08-07T17:51:44Z</time>
      </trkpt>
      <trkpt lat="42.5680990" lon="-8.8920480">
        <ele>6.8</ele>
        <time>2020-08-07T17:51:45Z</time>
      </trkpt>
      <trkpt lat="42.5680990" lon="-8.8920480">
        <ele>7.0</ele>
        <time>2020-08-07T17:51:46Z</time>
      </trkpt>
      <trkpt lat="42.5681280" lon="-8.8920480">
        <ele>6.8</ele>
        <time>2020-08-07T17:51:47Z</time>
      </trkpt>
      <trkpt lat="42.5681280" lon="-8.8920480">
        <ele>7.0</ele>
        <time>2020-08-07T17:51:48Z</time>
      </trkpt>
      <trkpt lat="42.5681540" lon="-8.8920500">
        <ele>7.0</ele>
        <time>2020-08-07T17:51:49Z</time>
      </trkpt>
      <trkpt lat="42.5681540" lon="-8.8920500">
        <ele>6.8</ele>
        <time>2020-08-07T17:51:50Z</time>
      </trkpt>
      <trkpt lat="42.5681820" lon="-8.8920480">
        <ele>6.8</ele>
        <time>2020-08-07T17:51:51Z</time>
      </trkpt>
      <trkpt lat="42.5681820" lon="-8.8920480">
        <ele>6.8</ele>
        <time>2020-08-07T17:51:52Z</time>
      </trkpt>
      <trkpt lat="42.5682110" lon="-8.8920500">
        <ele>6.6</ele>
        <time>2020-08-07T17:51:53Z</time>
      </trkpt>
      <trkpt lat="42.5682110" lon="-8.8920500">
        <ele>6.8</ele>
        <time>2020-08-07T17:51:54Z</time>
      </trkpt>
      <trkpt lat="42.5682370" lon="-8.8920500">
        <ele>6.4</ele>
        <time>2020-08-07T17:51:55Z</time>
      </trkpt>
      <trkpt lat="42.5682370" lon="-8.8920500">
        <ele>6.4</ele>
        <time>2020-08-07T17:51:56Z</time>
      </trkpt>
      <trkpt lat="42.5682690" lon="-8.8920520">
        <ele>6.2</ele>
        <time>2020-08-07T17:51:57Z</time>
      </trkpt>
      <trkpt lat="42.5682690" lon="-8.8920520">
        <ele>6.0</ele>
        <time>2020-08-07T17:51:58Z</time>
      </trkpt>
      <trkpt lat="42.5682910" lon="-8.8920500">
        <ele>6.0</ele>
        <time>2020-08-07T17:51:59Z</time>
      </trkpt>
      <trkpt lat="42.5682910" lon="-8.8920500">
        <ele>5.6</ele>
        <time>2020-08-07T17:52:00Z</time>
      </trkpt>
      <trkpt lat="42.5683200" lon="-8.8920450">
        <ele>5.6</ele>
        <time>2020-08-07T17:52:01Z</time>
      </trkpt>
      <trkpt lat="42.5683200" lon="-8.8920450">
        <ele>5.6</ele>
        <time>2020-08-07T17:52:02Z</time>
      </trkpt>
      <trkpt lat="42.5683460" lon="-8.8920420">
        <ele>5.6</ele>
        <time>2020-08-07T17:52:03Z</time>
      </trkpt>
      <trkpt lat="42.5683460" lon="-8.8920420">
        <ele>5.8</ele>
        <time>2020-08-07T17:52:04Z</time>
      </trkpt>
      <trkpt lat="42.5683710" lon="-8.8920400">
        <ele>5.8</ele>
        <time>2020-08-07T17:52:05Z</time>
      </trkpt>
      <trkpt lat="42.5683710" lon="-8.8920400">
        <ele>6.0</ele>
        <time>2020-08-07T17:52:06Z</time>
      </trkpt>
      <trkpt lat="42.5683970" lon="-8.8920370">
        <ele>6.0</ele>
        <time>2020-08-07T17:52:07Z</time>
      </trkpt>
      <trkpt lat="42.5683970" lon="-8.8920370">
        <ele>6.0</ele>
        <time>2020-08-07T17:52:08Z</time>
      </trkpt>
      <trkpt lat="42.5684190" lon="-8.8920320">
        <ele>6.4</ele>
        <time>2020-08-07T17:52:09Z</time>
      </trkpt>
      <trkpt lat="42.5684190" lon="-8.8920320">
        <ele>6.6</ele>
        <time>2020-08-07T17:52:10Z</time>
      </trkpt>
      <trkpt lat="42.5684380" lon="-8.8920180">
        <ele>6.6</ele>
        <time>2020-08-07T17:52:11Z</time>
      </trkpt>
      <trkpt lat="42.5684380" lon="-8.8920180">
        <ele>6.6</ele>
        <time>2020-08-07T17:52:12Z</time>
      </trkpt>
      <trkpt lat="42.5684580" lon="-8.8920030">
        <ele>6.4</ele>
        <time>2020-08-07T17:52:13Z</time>
      </trkpt>
      <trkpt lat="42.5684740" lon="-8.8919920">
        <ele>6.0</ele>
        <time>2020-08-07T17:52:14Z</time>
      </trkpt>
      <trkpt lat="42.5684740" lon="-8.8919920">
        <ele>5.8</ele>
        <time>2020-08-07T17:52:15Z</time>
      </trkpt>
      <trkpt lat="42.5684960" lon="-8.8919700">
        <ele>5.6</ele>
        <time>2020-08-07T17:52:16Z</time>
      </trkpt>
      <trkpt lat="42.5684960" lon="-8.8919700">
        <ele>5.2</ele>
        <time>2020-08-07T17:52:17Z</time>
      </trkpt>
      <trkpt lat="42.5685150" lon="-8.8919490">
        <ele>5.2</ele>
        <time>2020-08-07T17:52:18Z</time>
      </trkpt>
      <trkpt lat="42.5685150" lon="-8.8919490">
        <ele>5.2</ele>
        <time>2020-08-07T17:52:19Z</time>
      </trkpt>
      <trkpt lat="42.5685340" lon="-8.8919300">
        <ele>5.2</ele>
        <time>2020-08-07T17:52:20Z</time>
      </trkpt>
      <trkpt lat="42.5685340" lon="-8.8919300">
        <ele>5.4</ele>
        <time>2020-08-07T17:52:21Z</time>
      </trkpt>
      <trkpt lat="42.5685600" lon="-8.8919140">
        <ele>5.4</ele>
        <time>2020-08-07T17:52:22Z</time>
      </trkpt>
      <trkpt lat="42.5685600" lon="-8.8919140">
        <ele>5.2</ele>
        <time>2020-08-07T17:52:23Z</time>
      </trkpt>
      <trkpt lat="42.5685760" lon="-8.8919000">
        <ele>5.2</ele>
        <time>2020-08-07T17:52:24Z</time>
      </trkpt>
      <trkpt lat="42.5685760" lon="-8.8919000">
        <ele>5.4</ele>
        <time>2020-08-07T17:52:25Z</time>
      </trkpt>
      <trkpt lat="42.5685920" lon="-8.8918860">
        <ele>5.4</ele>
        <time>2020-08-07T17:52:26Z</time>
      </trkpt>
      <trkpt lat="42.5685920" lon="-8.8918860">
        <ele>5.8</ele>
        <time>2020-08-07T17:52:27Z</time>
      </trkpt>
      <trkpt lat="42.5686110" lon="-8.8918690">
        <ele>5.6</ele>
        <time>2020-08-07T17:52:28Z</time>
      </trkpt>
      <trkpt lat="42.5686110" lon="-8.8918690">
        <ele>5.8</ele>
        <time>2020-08-07T17:52:29Z</time>
      </trkpt>
      <trkpt lat="42.5686300" lon="-8.8918490">
        <ele>5.8</ele>
        <time>2020-08-07T17:52:30Z</time>
      </trkpt>
      <trkpt lat="42.5686300" lon="-8.8918490">
        <ele>5.8</ele>
        <time>2020-08-07T17:52:31Z</time>
      </trkpt>
      <trkpt lat="42.5686500" lon="-8.8918290">
        <ele>5.8</ele>
        <time>2020-08-07T17:52:32Z</time>
      </trkpt>
      <trkpt lat="42.5686500" lon="-8.8918290">
        <ele>6.0</ele>
        <time>2020-08-07T17:52:33Z</time>
      </trkpt>
      <trkpt lat="42.5686660" lon="-8.8918060">
        <ele>6.2</ele>
        <time>2020-08-07T17:52:34Z</time>
      </trkpt>
      <trkpt lat="42.5686660" lon="-8.8918060">
        <ele>6.2</ele>
        <time>2020-08-07T17:52:35Z</time>
      </trkpt>
      <trkpt lat="42.5686780" lon="-8.8917820">
        <ele>6.2</ele>
        <time>2020-08-07T17:52:36Z</time>
      </trkpt>
      <trkpt lat="42.5686780" lon="-8.8917820">
        <ele>6.4</ele>
        <time>2020-08-07T17:52:37Z</time>
      </trkpt>
      <trkpt lat="42.5686980" lon="-8.8917620">
        <ele>7.0</ele>
        <time>2020-08-07T17:52:38Z</time>
      </trkpt>
      <trkpt lat="42.5686980" lon="-8.8917620">
        <ele>6.6</ele>
        <time>2020-08-07T17:52:39Z</time>
      </trkpt>
      <trkpt lat="42.5687230" lon="-8.8917400">
        <ele>6.4</ele>
        <time>2020-08-07T17:52:40Z</time>
      </trkpt>
      <trkpt lat="42.5687230" lon="-8.8917400">
        <ele>6.2</ele>
        <time>2020-08-07T17:52:41Z</time>
      </trkpt>
      <trkpt lat="42.5687360" lon="-8.8917180">
        <ele>6.4</ele>
        <time>2020-08-07T17:52:42Z</time>
      </trkpt>
      <trkpt lat="42.5687360" lon="-8.8917180">
        <ele>6.6</ele>
        <time>2020-08-07T17:52:43Z</time>
      </trkpt>
      <trkpt lat="42.5687580" lon="-8.8916950">
        <ele>6.4</ele>
        <time>2020-08-07T17:52:44Z</time>
      </trkpt>
      <trkpt lat="42.5687580" lon="-8.8916950">
        <ele>6.4</ele>
        <time>2020-08-07T17:52:45Z</time>
      </trkpt>
      <trkpt lat="42.5687740" lon="-8.8916780">
        <ele>6.4</ele>
        <time>2020-08-07T17:52:46Z</time>
      </trkpt>
      <trkpt lat="42.5687740" lon="-8.8916780">
        <ele>6.2</ele>
        <time>2020-08-07T17:52:47Z</time>
      </trkpt>
      <trkpt lat="42.5687970" lon="-8.8916580">
        <ele>6.0</ele>
        <time>2020-08-07T17:52:48Z</time>
      </trkpt>
      <trkpt lat="42.5687970" lon="-8.8916580">
        <ele>5.8</ele>
        <time>2020-08-07T17:52:49Z</time>
      </trkpt>
      <trkpt lat="42.5688130" lon="-8.8916430">
        <ele>5.8</ele>
        <time>2020-08-07T17:52:50Z</time>
      </trkpt>
      <trkpt lat="42.5688130" lon="-8.8916430">
        <ele>5.4</ele>
        <time>2020-08-07T17:52:51Z</time>
      </trkpt>
      <trkpt lat="42.5688350" lon="-8.8916200">
        <ele>5.2</ele>
        <time>2020-08-07T17:52:52Z</time>
      </trkpt>
      <trkpt lat="42.5688350" lon="-8.8916200">
        <ele>4.6</ele>
        <time>2020-08-07T17:52:53Z</time>
      </trkpt>
      <trkpt lat="42.5688510" lon="-8.8915950">
        <ele>4.8</ele>
        <time>2020-08-07T17:52:54Z</time>
      </trkpt>
      <trkpt lat="42.5688510" lon="-8.8915950">
        <ele>4.8</ele>
        <time>2020-08-07T17:52:55Z</time>
      </trkpt>
      <trkpt lat="42.5688670" lon="-8.8915700">
        <ele>4.6</ele>
        <time>2020-08-07T17:52:56Z</time>
      </trkpt>
      <trkpt lat="42.5688670" lon="-8.8915700">
        <ele>4.4</ele>
        <time>2020-08-07T17:52:57Z</time>
      </trkpt>
      <trkpt lat="42.5688830" lon="-8.8915460">
        <ele>4.6</ele>
        <time>2020-08-07T17:52:58Z</time>
      </trkpt>
      <trkpt lat="42.5688830" lon="-8.8915460">
        <ele>5.0</ele>
        <time>2020-08-07T17:52:59Z</time>
      </trkpt>
      <trkpt lat="42.5689020" lon="-8.8915230">
        <ele>5.0</ele>
        <time>2020-08-07T17:53:00Z</time>
      </trkpt>
      <trkpt lat="42.5689020" lon="-8.8915230">
        <ele>5.2</ele>
        <time>2020-08-07T17:53:01Z</time>
      </trkpt>
      <trkpt lat="42.5689150" lon="-8.8914980">
        <ele>5.0</ele>
        <time>2020-08-07T17:53:02Z</time>
      </trkpt>
      <trkpt lat="42.5689150" lon="-8.8914980">
        <ele>5.0</ele>
        <time>2020-08-07T17:53:03Z</time>
      </trkpt>
      <trkpt lat="42.5689310" lon="-8.8914740">
        <ele>4.8</ele>
        <time>2020-08-07T17:53:04Z</time>
      </trkpt>
      <trkpt lat="42.5689310" lon="-8.8914740">
        <ele>4.6</ele>
        <time>2020-08-07T17:53:05Z</time>
      </trkpt>
      <trkpt lat="42.5689470" lon="-8.8914470">
        <ele>4.6</ele>
        <time>2020-08-07T17:53:06Z</time>
      </trkpt>
      <trkpt lat="42.5689470" lon="-8.8914470">
        <ele>4.6</ele>
        <time>2020-08-07T17:53:07Z</time>
      </trkpt>
      <trkpt lat="42.5689630" lon="-8.8914270">
        <ele>5.0</ele>
        <time>2020-08-07T17:53:08Z</time>
      </trkpt>
      <trkpt lat="42.5689630" lon="-8.8914270">
        <ele>5.0</ele>
        <time>2020-08-07T17:53:09Z</time>
      </trkpt>
      <trkpt lat="42.5689820" lon="-8.8913980">
        <ele>5.0</ele>
        <time>2020-08-07T17:53:10Z</time>
      </trkpt>
      <trkpt lat="42.5689820" lon="-8.8913980">
        <ele>5.0</ele>
        <time>2020-08-07T17:53:11Z</time>
      </trkpt>
      <trkpt lat="42.5689950" lon="-8.8913740">
        <ele>5.0</ele>
        <time>2020-08-07T17:53:12Z</time>
      </trkpt>
      <trkpt lat="42.5689950" lon="-8.8913740">
        <ele>4.8</ele>
        <time>2020-08-07T17:53:13Z</time>
      </trkpt>
      <trkpt lat="42.5690110" lon="-8.8913500">
        <ele>5.2</ele>
        <time>2020-08-07T17:53:14Z</time>
      </trkpt>
      <trkpt lat="42.5690110" lon="-8.8913500">
        <ele>5.2</ele>
        <time>2020-08-07T17:53:15Z</time>
      </trkpt>
      <trkpt lat="42.5690270" lon="-8.8913300">
        <ele>5.4</ele>
        <time>2020-08-07T17:53:16Z</time>
      </trkpt>
      <trkpt lat="42.5690270" lon="-8.8913300">
        <ele>5.2</ele>
        <time>2020-08-07T17:53:17Z</time>
      </trkpt>
      <trkpt lat="42.5690430" lon="-8.8913070">
        <ele>5.0</ele>
        <time>2020-08-07T17:53:18Z</time>
      </trkpt>
      <trkpt lat="42.5690430" lon="-8.8913070">
        <ele>5.0</ele>
        <time>2020-08-07T17:53:19Z</time>
      </trkpt>
      <trkpt lat="42.5690560" lon="-8.8912800">
        <ele>4.8</ele>
        <time>2020-08-07T17:53:20Z</time>
      </trkpt>
      <trkpt lat="42.5690560" lon="-8.8912800">
        <ele>5.0</ele>
        <time>2020-08-07T17:53:21Z</time>
      </trkpt>
      <trkpt lat="42.5690720" lon="-8.8912550">
        <ele>5.0</ele>
        <time>2020-08-07T17:53:22Z</time>
      </trkpt>
      <trkpt lat="42.5690720" lon="-8.8912550">
        <ele>5.0</ele>
        <time>2020-08-07T17:53:23Z</time>
      </trkpt>
      <trkpt lat="42.5690850" lon="-8.8912350">
        <ele>5.0</ele>
        <time>2020-08-07T17:53:24Z</time>
      </trkpt>
      <trkpt lat="42.5690850" lon="-8.8912350">
        <ele>5.2</ele>
        <time>2020-08-07T17:53:25Z</time>
      </trkpt>
      <trkpt lat="42.5691040" lon="-8.8912150">
        <ele>5.4</ele>
        <time>2020-08-07T17:53:26Z</time>
      </trkpt>
      <trkpt lat="42.5691040" lon="-8.8912150">
        <ele>5.4</ele>
        <time>2020-08-07T17:53:27Z</time>
      </trkpt>
      <trkpt lat="42.5691200" lon="-8.8911980">
        <ele>5.4</ele>
        <time>2020-08-07T17:53:28Z</time>
      </trkpt>
      <trkpt lat="42.5691200" lon="-8.8911980">
        <ele>5.0</ele>
        <time>2020-08-07T17:53:29Z</time>
      </trkpt>
      <trkpt lat="42.5691360" lon="-8.8911780">
        <ele>5.0</ele>
        <time>2020-08-07T17:53:30Z</time>
      </trkpt>
      <trkpt lat="42.5691360" lon="-8.8911780">
        <ele>5.0</ele>
        <time>2020-08-07T17:53:31Z</time>
      </trkpt>
      <trkpt lat="42.5691520" lon="-8.8911570">
        <ele>5.0</ele>
        <time>2020-08-07T17:53:32Z</time>
      </trkpt>
      <trkpt lat="42.5691520" lon="-8.8911570">
        <ele>5.2</ele>
        <time>2020-08-07T17:53:33Z</time>
      </trkpt>
      <trkpt lat="42.5691650" lon="-8.8911350">
        <ele>5.4</ele>
        <time>2020-08-07T17:53:34Z</time>
      </trkpt>
      <trkpt lat="42.5691650" lon="-8.8911350">
        <ele>5.6</ele>
        <time>2020-08-07T17:53:35Z</time>
      </trkpt>
      <trkpt lat="42.5691840" lon="-8.8911150">
        <ele>5.6</ele>
        <time>2020-08-07T17:53:36Z</time>
      </trkpt>
      <trkpt lat="42.5691840" lon="-8.8911150">
        <ele>6.0</ele>
        <time>2020-08-07T17:53:37Z</time>
      </trkpt>
      <trkpt lat="42.5692030" lon="-8.8910950">
        <ele>6.0</ele>
        <time>2020-08-07T17:53:38Z</time>
      </trkpt>
      <trkpt lat="42.5692030" lon="-8.8910950">
        <ele>6.0</ele>
        <time>2020-08-07T17:53:39Z</time>
      </trkpt>
      <trkpt lat="42.5692220" lon="-8.8910710">
        <ele>6.0</ele>
        <time>2020-08-07T17:53:40Z</time>
      </trkpt>
      <trkpt lat="42.5692220" lon="-8.8910710">
        <ele>5.8</ele>
        <time>2020-08-07T17:53:41Z</time>
      </trkpt>
      <trkpt lat="42.5692320" lon="-8.8910460">
        <ele>6.0</ele>
        <time>2020-08-07T17:53:42Z</time>
      </trkpt>
      <trkpt lat="42.5692320" lon="-8.8910460">
        <ele>6.2</ele>
        <time>2020-08-07T17:53:43Z</time>
      </trkpt>
      <trkpt lat="42.5692510" lon="-8.8910240">
        <ele>6.0</ele>
        <time>2020-08-07T17:53:44Z</time>
      </trkpt>
      <trkpt lat="42.5692510" lon="-8.8910240">
        <ele>6.2</ele>
        <time>2020-08-07T17:53:45Z</time>
      </trkpt>
      <trkpt lat="42.5692670" lon="-8.8910060">
        <ele>6.2</ele>
        <time>2020-08-07T17:53:46Z</time>
      </trkpt>
      <trkpt lat="42.5692670" lon="-8.8910060">
        <ele>6.2</ele>
        <time>2020-08-07T17:53:47Z</time>
      </trkpt>
      <trkpt lat="42.5692860" lon="-8.8909820">
        <ele>6.0</ele>
        <time>2020-08-07T17:53:48Z</time>
      </trkpt>
      <trkpt lat="42.5692860" lon="-8.8909820">
        <ele>6.0</ele>
        <time>2020-08-07T17:53:49Z</time>
      </trkpt>
      <trkpt lat="42.5693020" lon="-8.8909630">
        <ele>6.0</ele>
        <time>2020-08-07T17:53:50Z</time>
      </trkpt>
      <trkpt lat="42.5693020" lon="-8.8909630">
        <ele>6.2</ele>
        <time>2020-08-07T17:53:51Z</time>
      </trkpt>
      <trkpt lat="42.5693180" lon="-8.8909400">
        <ele>5.8</ele>
        <time>2020-08-07T17:53:52Z</time>
      </trkpt>
      <trkpt lat="42.5693180" lon="-8.8909400">
        <ele>6.0</ele>
        <time>2020-08-07T17:53:53Z</time>
      </trkpt>
      <trkpt lat="42.5693340" lon="-8.8909200">
        <ele>6.2</ele>
        <time>2020-08-07T17:53:54Z</time>
      </trkpt>
      <trkpt lat="42.5693340" lon="-8.8909200">
        <ele>6.2</ele>
        <time>2020-08-07T17:53:55Z</time>
      </trkpt>
      <trkpt lat="42.5693470" lon="-8.8908920">
        <ele>6.0</ele>
        <time>2020-08-07T17:53:56Z</time>
      </trkpt>
      <trkpt lat="42.5693470" lon="-8.8908920">
        <ele>6.4</ele>
        <time>2020-08-07T17:53:57Z</time>
      </trkpt>
      <trkpt lat="42.5693540" lon="-8.8908660">
        <ele>6.4</ele>
        <time>2020-08-07T17:53:58Z</time>
      </trkpt>
      <trkpt lat="42.5693540" lon="-8.8908660">
        <ele>6.0</ele>
        <time>2020-08-07T17:53:59Z</time>
      </trkpt>
      <trkpt lat="42.5693700" lon="-8.8908430">
        <ele>6.0</ele>
        <time>2020-08-07T17:54:00Z</time>
      </trkpt>
      <trkpt lat="42.5693700" lon="-8.8908430">
        <ele>6.0</ele>
        <time>2020-08-07T17:54:01Z</time>
      </trkpt>
      <trkpt lat="42.5693860" lon="-8.8908180">
        <ele>5.6</ele>
        <time>2020-08-07T17:54:02Z</time>
      </trkpt>
      <trkpt lat="42.5693860" lon="-8.8908180">
        <ele>5.6</ele>
        <time>2020-08-07T17:54:03Z</time>
      </trkpt>
      <trkpt lat="42.5694020" lon="-8.8908020">
        <ele>5.6</ele>
        <time>2020-08-07T17:54:04Z</time>
      </trkpt>
      <trkpt lat="42.5694020" lon="-8.8908020">
        <ele>5.4</ele>
        <time>2020-08-07T17:54:05Z</time>
      </trkpt>
      <trkpt lat="42.5694180" lon="-8.8907780">
        <ele>5.6</ele>
        <time>2020-08-07T17:54:06Z</time>
      </trkpt>
      <trkpt lat="42.5694180" lon="-8.8907780">
        <ele>5.8</ele>
        <time>2020-08-07T17:54:07Z</time>
      </trkpt>
      <trkpt lat="42.5694180" lon="-8.8907780">
        <ele>5.8</ele>
        <time>2020-08-07T17:54:08Z</time>
      </trkpt>
      <trkpt lat="42.5694340" lon="-8.8907480">
        <ele>5.6</ele>
        <time>2020-08-07T17:54:09Z</time>
      </trkpt>
      <trkpt lat="42.5694340" lon="-8.8907480">
        <ele>5.8</ele>
        <time>2020-08-07T17:54:10Z</time>
      </trkpt>
      <trkpt lat="42.5694500" lon="-8.8907320">
        <ele>5.8</ele>
        <time>2020-08-07T17:54:11Z</time>
      </trkpt>
      <trkpt lat="42.5694500" lon="-8.8907320">
        <ele>6.0</ele>
        <time>2020-08-07T17:54:12Z</time>
      </trkpt>
      <trkpt lat="42.5694690" lon="-8.8907170">
        <ele>5.6</ele>
        <time>2020-08-07T17:54:13Z</time>
      </trkpt>
      <trkpt lat="42.5694690" lon="-8.8907170">
        <ele>5.6</ele>
        <time>2020-08-07T17:54:14Z</time>
      </trkpt>
      <trkpt lat="42.5694850" lon="-8.8906980">
        <ele>5.2</ele>
        <time>2020-08-07T17:54:15Z</time>
      </trkpt>
      <trkpt lat="42.5694850" lon="-8.8906980">
        <ele>5.6</ele>
        <time>2020-08-07T17:54:16Z</time>
      </trkpt>
      <trkpt lat="42.5694850" lon="-8.8906980">
        <ele>5.8</ele>
        <time>2020-08-07T17:54:17Z</time>
      </trkpt>
      <trkpt lat="42.5695010" lon="-8.8906700">
        <ele>5.6</ele>
        <time>2020-08-07T17:54:18Z</time>
      </trkpt>
      <trkpt lat="42.5695010" lon="-8.8906700">
        <ele>5.6</ele>
        <time>2020-08-07T17:54:19Z</time>
      </trkpt>
      <trkpt lat="42.5695200" lon="-8.8906470">
        <ele>5.4</ele>
        <time>2020-08-07T17:54:20Z</time>
      </trkpt>
      <trkpt lat="42.5695200" lon="-8.8906470">
        <ele>5.6</ele>
        <time>2020-08-07T17:54:21Z</time>
      </trkpt>
      <trkpt lat="42.5695330" lon="-8.8906270">
        <ele>5.4</ele>
        <time>2020-08-07T17:54:22Z</time>
      </trkpt>
      <trkpt lat="42.5695330" lon="-8.8906270">
        <ele>5.6</ele>
        <time>2020-08-07T17:54:23Z</time>
      </trkpt>
      <trkpt lat="42.5695520" lon="-8.8905980">
        <ele>5.2</ele>
        <time>2020-08-07T17:54:24Z</time>
      </trkpt>
      <trkpt lat="42.5695520" lon="-8.8905980">
        <ele>5.4</ele>
        <time>2020-08-07T17:54:25Z</time>
      </trkpt>
      <trkpt lat="42.5695710" lon="-8.8905740">
        <ele>5.8</ele>
        <time>2020-08-07T17:54:26Z</time>
      </trkpt>
      <trkpt lat="42.5695710" lon="-8.8905740">
        <ele>6.0</ele>
        <time>2020-08-07T17:54:27Z</time>
      </trkpt>
      <trkpt lat="42.5695870" lon="-8.8905420">
        <ele>5.8</ele>
        <time>2020-08-07T17:54:28Z</time>
      </trkpt>
      <trkpt lat="42.5695870" lon="-8.8905420">
        <ele>5.6</ele>
        <time>2020-08-07T17:54:29Z</time>
      </trkpt>
      <trkpt lat="42.5696000" lon="-8.8905140">
        <ele>5.6</ele>
        <time>2020-08-07T17:54:30Z</time>
      </trkpt>
      <trkpt lat="42.5696000" lon="-8.8905140">
        <ele>5.4</ele>
        <time>2020-08-07T17:54:31Z</time>
      </trkpt>
      <trkpt lat="42.5696190" lon="-8.8904820">
        <ele>5.0</ele>
        <time>2020-08-07T17:54:32Z</time>
      </trkpt>
      <trkpt lat="42.5696190" lon="-8.8904820">
        <ele>5.0</ele>
        <time>2020-08-07T17:54:33Z</time>
      </trkpt>
      <trkpt lat="42.5696290" lon="-8.8904570">
        <ele>5.0</ele>
        <time>2020-08-07T17:54:34Z</time>
      </trkpt>
      <trkpt lat="42.5696290" lon="-8.8904570">
        <ele>4.8</ele>
        <time>2020-08-07T17:54:35Z</time>
      </trkpt>
      <trkpt lat="42.5696420" lon="-8.8904350">
        <ele>4.6</ele>
        <time>2020-08-07T17:54:36Z</time>
      </trkpt>
      <trkpt lat="42.5696420" lon="-8.8904350">
        <ele>4.6</ele>
        <time>2020-08-07T17:54:37Z</time>
      </trkpt>
      <trkpt lat="42.5696510" lon="-8.8904110">
        <ele>4.4</ele>
        <time>2020-08-07T17:54:38Z</time>
      </trkpt>
      <trkpt lat="42.5696510" lon="-8.8904110">
        <ele>4.6</ele>
        <time>2020-08-07T17:54:39Z</time>
      </trkpt>
      <trkpt lat="42.5696510" lon="-8.8904110">
        <ele>4.8</ele>
        <time>2020-08-07T17:54:40Z</time>
      </trkpt>
      <trkpt lat="42.5696670" lon="-8.8903820">
        <ele>5.0</ele>
        <time>2020-08-07T17:54:41Z</time>
      </trkpt>
      <trkpt lat="42.5696670" lon="-8.8903820">
        <ele>5.2</ele>
        <time>2020-08-07T17:54:42Z</time>
      </trkpt>
      <trkpt lat="42.5696830" lon="-8.8903580">
        <ele>5.4</ele>
        <time>2020-08-07T17:54:43Z</time>
      </trkpt>
      <trkpt lat="42.5696830" lon="-8.8903580">
        <ele>5.2</ele>
        <time>2020-08-07T17:54:44Z</time>
      </trkpt>
      <trkpt lat="42.5697020" lon="-8.8903260">
        <ele>5.0</ele>
        <time>2020-08-07T17:54:45Z</time>
      </trkpt>
      <trkpt lat="42.5697020" lon="-8.8903260">
        <ele>5.0</ele>
        <time>2020-08-07T17:54:46Z</time>
      </trkpt>
      <trkpt lat="42.5697250" lon="-8.8903050">
        <ele>4.6</ele>
        <time>2020-08-07T17:54:47Z</time>
      </trkpt>
      <trkpt lat="42.5697250" lon="-8.8903050">
        <ele>4.6</ele>
        <time>2020-08-07T17:54:48Z</time>
      </trkpt>
      <trkpt lat="42.5697380" lon="-8.8902830">
        <ele>4.4</ele>
        <time>2020-08-07T17:54:49Z</time>
      </trkpt>
      <trkpt lat="42.5697380" lon="-8.8902830">
        <ele>4.8</ele>
        <time>2020-08-07T17:54:50Z</time>
      </trkpt>
      <trkpt lat="42.5697570" lon="-8.8902550">
        <ele>4.8</ele>
        <time>2020-08-07T17:54:51Z</time>
      </trkpt>
      <trkpt lat="42.5697570" lon="-8.8902550">
        <ele>5.2</ele>
        <time>2020-08-07T17:54:52Z</time>
      </trkpt>
      <trkpt lat="42.5697660" lon="-8.8902330">
        <ele>5.2</ele>
        <time>2020-08-07T17:54:53Z</time>
      </trkpt>
      <trkpt lat="42.5697660" lon="-8.8902330">
        <ele>5.8</ele>
        <time>2020-08-07T17:54:54Z</time>
      </trkpt>
      <trkpt lat="42.5697820" lon="-8.8902000">
        <ele>6.4</ele>
        <time>2020-08-07T17:54:55Z</time>
      </trkpt>
      <trkpt lat="42.5697820" lon="-8.8902000">
        <ele>6.2</ele>
        <time>2020-08-07T17:54:56Z</time>
      </trkpt>
      <trkpt lat="42.5697980" lon="-8.8901720">
        <ele>6.2</ele>
        <time>2020-08-07T17:54:57Z</time>
      </trkpt>
      <trkpt lat="42.5697980" lon="-8.8901720">
        <ele>6.0</ele>
        <time>2020-08-07T17:54:58Z</time>
      </trkpt>
      <trkpt lat="42.5698180" lon="-8.8901380">
        <ele>5.8</ele>
        <time>2020-08-07T17:54:59Z</time>
      </trkpt>
      <trkpt lat="42.5698180" lon="-8.8901380">
        <ele>5.8</ele>
        <time>2020-08-07T17:55:00Z</time>
      </trkpt>
      <trkpt lat="42.5698300" lon="-8.8901140">
        <ele>5.6</ele>
        <time>2020-08-07T17:55:01Z</time>
      </trkpt>
      <trkpt lat="42.5698300" lon="-8.8901140">
        <ele>5.8</ele>
        <time>2020-08-07T17:55:02Z</time>
      </trkpt>
      <trkpt lat="42.5698460" lon="-8.8900830">
        <ele>5.6</ele>
        <time>2020-08-07T17:55:03Z</time>
      </trkpt>
      <trkpt lat="42.5698460" lon="-8.8900830">
        <ele>5.8</ele>
        <time>2020-08-07T17:55:04Z</time>
      </trkpt>
      <trkpt lat="42.5698660" lon="-8.8900610">
        <ele>6.0</ele>
        <time>2020-08-07T17:55:05Z</time>
      </trkpt>
      <trkpt lat="42.5698660" lon="-8.8900610">
        <ele>5.8</ele>
        <time>2020-08-07T17:55:06Z</time>
      </trkpt>
      <trkpt lat="42.5698820" lon="-8.8900340">
        <ele>5.8</ele>
        <time>2020-08-07T17:55:07Z</time>
      </trkpt>
      <trkpt lat="42.5698820" lon="-8.8900340">
        <ele>6.0</ele>
        <time>2020-08-07T17:55:08Z</time>
      </trkpt>
      <trkpt lat="42.5698980" lon="-8.8900070">
        <ele>6.0</ele>
        <time>2020-08-07T17:55:09Z</time>
      </trkpt>
      <trkpt lat="42.5698980" lon="-8.8900070">
        <ele>6.4</ele>
        <time>2020-08-07T17:55:10Z</time>
      </trkpt>
      <trkpt lat="42.5699100" lon="-8.8899780">
        <ele>6.0</ele>
        <time>2020-08-07T17:55:11Z</time>
      </trkpt>
      <trkpt lat="42.5699100" lon="-8.8899780">
        <ele>6.6</ele>
        <time>2020-08-07T17:55:12Z</time>
      </trkpt>
      <trkpt lat="42.5699260" lon="-8.8899500">
        <ele>6.6</ele>
        <time>2020-08-07T17:55:13Z</time>
      </trkpt>
      <trkpt lat="42.5699260" lon="-8.8899500">
        <ele>6.4</ele>
        <time>2020-08-07T17:55:14Z</time>
      </trkpt>
      <trkpt lat="42.5699390" lon="-8.8899290">
        <ele>6.4</ele>
        <time>2020-08-07T17:55:15Z</time>
      </trkpt>
      <trkpt lat="42.5699390" lon="-8.8899290">
        <ele>6.4</ele>
        <time>2020-08-07T17:55:16Z</time>
      </trkpt>
      <trkpt lat="42.5699550" lon="-8.8898980">
        <ele>6.8</ele>
        <time>2020-08-07T17:55:17Z</time>
      </trkpt>
      <trkpt lat="42.5699550" lon="-8.8898980">
        <ele>6.8</ele>
        <time>2020-08-07T17:55:18Z</time>
      </trkpt>
      <trkpt lat="42.5699650" lon="-8.8898710">
        <ele>7.0</ele>
        <time>2020-08-07T17:55:19Z</time>
      </trkpt>
      <trkpt lat="42.5699650" lon="-8.8898710">
        <ele>6.8</ele>
        <time>2020-08-07T17:55:20Z</time>
      </trkpt>
      <trkpt lat="42.5699780" lon="-8.8898470">
        <ele>6.8</ele>
        <time>2020-08-07T17:55:21Z</time>
      </trkpt>
      <trkpt lat="42.5699780" lon="-8.8898470">
        <ele>7.0</ele>
        <time>2020-08-07T17:55:22Z</time>
      </trkpt>
      <trkpt lat="42.5699870" lon="-8.8898180">
        <ele>6.8</ele>
        <time>2020-08-07T17:55:23Z</time>
      </trkpt>
      <trkpt lat="42.5699870" lon="-8.8898180">
        <ele>7.0</ele>
        <time>2020-08-07T17:55:24Z</time>
      </trkpt>
      <trkpt lat="42.5700030" lon="-8.8897900">
        <ele>7.0</ele>
        <time>2020-08-07T17:55:25Z</time>
      </trkpt>
      <trkpt lat="42.5700030" lon="-8.8897900">
        <ele>6.6</ele>
        <time>2020-08-07T17:55:26Z</time>
      </trkpt>
      <trkpt lat="42.5700190" lon="-8.8897650">
        <ele>6.6</ele>
        <time>2020-08-07T17:55:27Z</time>
      </trkpt>
      <trkpt lat="42.5700190" lon="-8.8897650">
        <ele>6.8</ele>
        <time>2020-08-07T17:55:28Z</time>
      </trkpt>
      <trkpt lat="42.5700350" lon="-8.8897400">
        <ele>7.2</ele>
        <time>2020-08-07T17:55:29Z</time>
      </trkpt>
      <trkpt lat="42.5700350" lon="-8.8897400">
        <ele>7.2</ele>
        <time>2020-08-07T17:55:30Z</time>
      </trkpt>
      <trkpt lat="42.5700540" lon="-8.8897180">
        <ele>7.0</ele>
        <time>2020-08-07T17:55:31Z</time>
      </trkpt>
      <trkpt lat="42.5700540" lon="-8.8897180">
        <ele>6.6</ele>
        <time>2020-08-07T17:55:32Z</time>
      </trkpt>
      <trkpt lat="42.5700670" lon="-8.8896950">
        <ele>6.4</ele>
        <time>2020-08-07T17:55:33Z</time>
      </trkpt>
      <trkpt lat="42.5700670" lon="-8.8896950">
        <ele>6.4</ele>
        <time>2020-08-07T17:55:34Z</time>
      </trkpt>
      <trkpt lat="42.5700770" lon="-8.8896740">
        <ele>6.4</ele>
        <time>2020-08-07T17:55:35Z</time>
      </trkpt>
      <trkpt lat="42.5700770" lon="-8.8896740">
        <ele>6.4</ele>
        <time>2020-08-07T17:55:36Z</time>
      </trkpt>
      <trkpt lat="42.5700930" lon="-8.8896510">
        <ele>6.2</ele>
        <time>2020-08-07T17:55:37Z</time>
      </trkpt>
      <trkpt lat="42.5700930" lon="-8.8896510">
        <ele>6.4</ele>
        <time>2020-08-07T17:55:38Z</time>
      </trkpt>
      <trkpt lat="42.5701060" lon="-8.8896250">
        <ele>6.0</ele>
        <time>2020-08-07T17:55:39Z</time>
      </trkpt>
      <trkpt lat="42.5701060" lon="-8.8896250">
        <ele>5.8</ele>
        <time>2020-08-07T17:55:40Z</time>
      </trkpt>
      <trkpt lat="42.5701220" lon="-8.8896000">
        <ele>5.6</ele>
        <time>2020-08-07T17:55:41Z</time>
      </trkpt>
      <trkpt lat="42.5701220" lon="-8.8896000">
        <ele>5.8</ele>
        <time>2020-08-07T17:55:42Z</time>
      </trkpt>
      <trkpt lat="42.5701340" lon="-8.8895770">
        <ele>6.2</ele>
        <time>2020-08-07T17:55:43Z</time>
      </trkpt>
      <trkpt lat="42.5701340" lon="-8.8895770">
        <ele>6.2</ele>
        <time>2020-08-07T17:55:44Z</time>
      </trkpt>
      <trkpt lat="42.5701540" lon="-8.8895460">
        <ele>6.0</ele>
        <time>2020-08-07T17:55:45Z</time>
      </trkpt>
      <trkpt lat="42.5701540" lon="-8.8895460">
        <ele>5.8</ele>
        <time>2020-08-07T17:55:46Z</time>
      </trkpt>
      <trkpt lat="42.5701630" lon="-8.8895260">
        <ele>6.0</ele>
        <time>2020-08-07T17:55:47Z</time>
      </trkpt>
      <trkpt lat="42.5701630" lon="-8.8895260">
        <ele>6.4</ele>
        <time>2020-08-07T17:55:48Z</time>
      </trkpt>
      <trkpt lat="42.5701790" lon="-8.8895000">
        <ele>6.4</ele>
        <time>2020-08-07T17:55:49Z</time>
      </trkpt>
      <trkpt lat="42.5701790" lon="-8.8895000">
        <ele>6.4</ele>
        <time>2020-08-07T17:55:50Z</time>
      </trkpt>
      <trkpt lat="42.5701950" lon="-8.8894800">
        <ele>6.6</ele>
        <time>2020-08-07T17:55:51Z</time>
      </trkpt>
      <trkpt lat="42.5701950" lon="-8.8894800">
        <ele>6.6</ele>
        <time>2020-08-07T17:55:52Z</time>
      </trkpt>
      <trkpt lat="42.5702210" lon="-8.8894580">
        <ele>6.0</ele>
        <time>2020-08-07T17:55:53Z</time>
      </trkpt>
      <trkpt lat="42.5702210" lon="-8.8894580">
        <ele>5.6</ele>
        <time>2020-08-07T17:55:54Z</time>
      </trkpt>
      <trkpt lat="42.5702400" lon="-8.8894320">
        <ele>5.2</ele>
        <time>2020-08-07T17:55:55Z</time>
      </trkpt>
      <trkpt lat="42.5702400" lon="-8.8894320">
        <ele>5.2</ele>
        <time>2020-08-07T17:55:56Z</time>
      </trkpt>
      <trkpt lat="42.5702560" lon="-8.8894060">
        <ele>5.4</ele>
        <time>2020-08-07T17:55:57Z</time>
      </trkpt>
      <trkpt lat="42.5702560" lon="-8.8894060">
        <ele>5.4</ele>
        <time>2020-08-07T17:55:58Z</time>
      </trkpt>
      <trkpt lat="42.5702660" lon="-8.8893860">
        <ele>5.4</ele>
        <time>2020-08-07T17:55:59Z</time>
      </trkpt>
      <trkpt lat="42.5702660" lon="-8.8893860">
        <ele>5.8</ele>
        <time>2020-08-07T17:56:00Z</time>
      </trkpt>
      <trkpt lat="42.5702780" lon="-8.8893650">
        <ele>5.8</ele>
        <time>2020-08-07T17:56:01Z</time>
      </trkpt>
      <trkpt lat="42.5702780" lon="-8.8893650">
        <ele>5.8</ele>
        <time>2020-08-07T17:56:02Z</time>
      </trkpt>
      <trkpt lat="42.5702940" lon="-8.8893420">
        <ele>6.0</ele>
        <time>2020-08-07T17:56:03Z</time>
      </trkpt>
      <trkpt lat="42.5702940" lon="-8.8893420">
        <ele>5.8</ele>
        <time>2020-08-07T17:56:04Z</time>
      </trkpt>
      <trkpt lat="42.5703170" lon="-8.8893120">
        <ele>6.0</ele>
        <time>2020-08-07T17:56:05Z</time>
      </trkpt>
      <trkpt lat="42.5703170" lon="-8.8893120">
        <ele>6.2</ele>
        <time>2020-08-07T17:56:06Z</time>
      </trkpt>
      <trkpt lat="42.5703330" lon="-8.8892880">
        <ele>6.4</ele>
        <time>2020-08-07T17:56:07Z</time>
      </trkpt>
      <trkpt lat="42.5703330" lon="-8.8892880">
        <ele>6.2</ele>
        <time>2020-08-07T17:56:08Z</time>
      </trkpt>
      <trkpt lat="42.5703460" lon="-8.8892620">
        <ele>6.4</ele>
        <time>2020-08-07T17:56:09Z</time>
      </trkpt>
      <trkpt lat="42.5703460" lon="-8.8892620">
        <ele>6.2</ele>
        <time>2020-08-07T17:56:10Z</time>
      </trkpt>
      <trkpt lat="42.5703580" lon="-8.8892370">
        <ele>6.4</ele>
        <time>2020-08-07T17:56:11Z</time>
      </trkpt>
      <trkpt lat="42.5703580" lon="-8.8892370">
        <ele>6.4</ele>
        <time>2020-08-07T17:56:12Z</time>
      </trkpt>
      <trkpt lat="42.5703740" lon="-8.8892140">
        <ele>6.6</ele>
        <time>2020-08-07T17:56:13Z</time>
      </trkpt>
      <trkpt lat="42.5703740" lon="-8.8892140">
        <ele>6.6</ele>
        <time>2020-08-07T17:56:14Z</time>
      </trkpt>
      <trkpt lat="42.5703940" lon="-8.8891900">
        <ele>6.4</ele>
        <time>2020-08-07T17:56:15Z</time>
      </trkpt>
      <trkpt lat="42.5703940" lon="-8.8891900">
        <ele>6.4</ele>
        <time>2020-08-07T17:56:16Z</time>
      </trkpt>
      <trkpt lat="42.5704060" lon="-8.8891620">
        <ele>6.4</ele>
        <time>2020-08-07T17:56:17Z</time>
      </trkpt>
      <trkpt lat="42.5704060" lon="-8.8891620">
        <ele>6.6</ele>
        <time>2020-08-07T17:56:18Z</time>
      </trkpt>
      <trkpt lat="42.5704220" lon="-8.8891350">
        <ele>6.6</ele>
        <time>2020-08-07T17:56:19Z</time>
      </trkpt>
      <trkpt lat="42.5704220" lon="-8.8891350">
        <ele>6.6</ele>
        <time>2020-08-07T17:56:20Z</time>
      </trkpt>
      <trkpt lat="42.5704350" lon="-8.8891090">
        <ele>6.4</ele>
        <time>2020-08-07T17:56:21Z</time>
      </trkpt>
      <trkpt lat="42.5704350" lon="-8.8891090">
        <ele>6.2</ele>
        <time>2020-08-07T17:56:22Z</time>
      </trkpt>
      <trkpt lat="42.5704510" lon="-8.8890830">
        <ele>6.4</ele>
        <time>2020-08-07T17:56:23Z</time>
      </trkpt>
      <trkpt lat="42.5704510" lon="-8.8890830">
        <ele>6.4</ele>
        <time>2020-08-07T17:56:24Z</time>
      </trkpt>
      <trkpt lat="42.5704580" lon="-8.8890510">
        <ele>6.4</ele>
        <time>2020-08-07T17:56:25Z</time>
      </trkpt>
      <trkpt lat="42.5704580" lon="-8.8890510">
        <ele>6.8</ele>
        <time>2020-08-07T17:56:26Z</time>
      </trkpt>
      <trkpt lat="42.5704700" lon="-8.8890230">
        <ele>6.8</ele>
        <time>2020-08-07T17:56:27Z</time>
      </trkpt>
      <trkpt lat="42.5704700" lon="-8.8890230">
        <ele>6.6</ele>
        <time>2020-08-07T17:56:28Z</time>
      </trkpt>
      <trkpt lat="42.5704800" lon="-8.8889900">
        <ele>6.4</ele>
        <time>2020-08-07T17:56:29Z</time>
      </trkpt>
      <trkpt lat="42.5704800" lon="-8.8889900">
        <ele>6.2</ele>
        <time>2020-08-07T17:56:30Z</time>
      </trkpt>
      <trkpt lat="42.5704860" lon="-8.8889620">
        <ele>6.0</ele>
        <time>2020-08-07T17:56:31Z</time>
      </trkpt>
      <trkpt lat="42.5704860" lon="-8.8889620">
        <ele>6.4</ele>
        <time>2020-08-07T17:56:32Z</time>
      </trkpt>
      <trkpt lat="42.5704930" lon="-8.8889350">
        <ele>6.4</ele>
        <time>2020-08-07T17:56:33Z</time>
      </trkpt>
      <trkpt lat="42.5704930" lon="-8.8889350">
        <ele>6.2</ele>
        <time>2020-08-07T17:56:34Z</time>
      </trkpt>
      <trkpt lat="42.5705020" lon="-8.8889050">
        <ele>6.0</ele>
        <time>2020-08-07T17:56:35Z</time>
      </trkpt>
      <trkpt lat="42.5705020" lon="-8.8889050">
        <ele>6.2</ele>
        <time>2020-08-07T17:56:36Z</time>
      </trkpt>
      <trkpt lat="42.5705180" lon="-8.8888680">
        <ele>5.8</ele>
        <time>2020-08-07T17:56:37Z</time>
      </trkpt>
      <trkpt lat="42.5705180" lon="-8.8888680">
        <ele>5.8</ele>
        <time>2020-08-07T17:56:38Z</time>
      </trkpt>
      <trkpt lat="42.5705250" lon="-8.8888430">
        <ele>6.0</ele>
        <time>2020-08-07T17:56:39Z</time>
      </trkpt>
      <trkpt lat="42.5705250" lon="-8.8888430">
        <ele>5.8</ele>
        <time>2020-08-07T17:56:40Z</time>
      </trkpt>
      <trkpt lat="42.5705410" lon="-8.8888180">
        <ele>6.0</ele>
        <time>2020-08-07T17:56:41Z</time>
      </trkpt>
      <trkpt lat="42.5705410" lon="-8.8888180">
        <ele>6.2</ele>
        <time>2020-08-07T17:56:42Z</time>
      </trkpt>
      <trkpt lat="42.5705630" lon="-8.8887920">
        <ele>5.8</ele>
        <time>2020-08-07T17:56:43Z</time>
      </trkpt>
      <trkpt lat="42.5705630" lon="-8.8887920">
        <ele>5.6</ele>
        <time>2020-08-07T17:56:44Z</time>
      </trkpt>
      <trkpt lat="42.5705820" lon="-8.8887770">
        <ele>5.6</ele>
        <time>2020-08-07T17:56:45Z</time>
      </trkpt>
      <trkpt lat="42.5705820" lon="-8.8887770">
        <ele>5.2</ele>
        <time>2020-08-07T17:56:46Z</time>
      </trkpt>
      <trkpt lat="42.5706050" lon="-8.8887530">
        <ele>5.4</ele>
        <time>2020-08-07T17:56:47Z</time>
      </trkpt>
      <trkpt lat="42.5706050" lon="-8.8887530">
        <ele>5.6</ele>
        <time>2020-08-07T17:56:48Z</time>
      </trkpt>
      <trkpt lat="42.5706210" lon="-8.8887330">
        <ele>5.4</ele>
        <time>2020-08-07T17:56:49Z</time>
      </trkpt>
      <trkpt lat="42.5706210" lon="-8.8887330">
        <ele>5.6</ele>
        <time>2020-08-07T17:56:50Z</time>
      </trkpt>
      <trkpt lat="42.5706400" lon="-8.8887170">
        <ele>6.0</ele>
        <time>2020-08-07T17:56:51Z</time>
      </trkpt>
      <trkpt lat="42.5706400" lon="-8.8887170">
        <ele>6.2</ele>
        <time>2020-08-07T17:56:52Z</time>
      </trkpt>
      <trkpt lat="42.5706560" lon="-8.8886930">
        <ele>6.2</ele>
        <time>2020-08-07T17:56:53Z</time>
      </trkpt>
      <trkpt lat="42.5706560" lon="-8.8886930">
        <ele>5.8</ele>
        <time>2020-08-07T17:56:54Z</time>
      </trkpt>
      <trkpt lat="42.5706750" lon="-8.8886740">
        <ele>6.0</ele>
        <time>2020-08-07T17:56:55Z</time>
      </trkpt>
      <trkpt lat="42.5706750" lon="-8.8886740">
        <ele>5.6</ele>
        <time>2020-08-07T17:56:56Z</time>
      </trkpt>
      <trkpt lat="42.5706910" lon="-8.8886570">
        <ele>5.4</ele>
        <time>2020-08-07T17:56:57Z</time>
      </trkpt>
      <trkpt lat="42.5706910" lon="-8.8886570">
        <ele>5.6</ele>
        <time>2020-08-07T17:56:58Z</time>
      </trkpt>
      <trkpt lat="42.5707100" lon="-8.8886340">
        <ele>6.0</ele>
        <time>2020-08-07T17:56:59Z</time>
      </trkpt>
      <trkpt lat="42.5707100" lon="-8.8886340">
        <ele>5.6</ele>
        <time>2020-08-07T17:57:00Z</time>
      </trkpt>
      <trkpt lat="42.5707230" lon="-8.8886140">
        <ele>5.4</ele>
        <time>2020-08-07T17:57:01Z</time>
      </trkpt>
      <trkpt lat="42.5707230" lon="-8.8886140">
        <ele>5.0</ele>
        <time>2020-08-07T17:57:02Z</time>
      </trkpt>
      <trkpt lat="42.5707390" lon="-8.8885920">
        <ele>5.0</ele>
        <time>2020-08-07T17:57:03Z</time>
      </trkpt>
      <trkpt lat="42.5707390" lon="-8.8885920">
        <ele>5.0</ele>
        <time>2020-08-07T17:57:04Z</time>
      </trkpt>
      <trkpt lat="42.5707580" lon="-8.8885620">
        <ele>4.8</ele>
        <time>2020-08-07T17:57:05Z</time>
      </trkpt>
      <trkpt lat="42.5707580" lon="-8.8885620">
        <ele>4.8</ele>
        <time>2020-08-07T17:57:06Z</time>
      </trkpt>
      <trkpt lat="42.5707710" lon="-8.8885380">
        <ele>4.8</ele>
        <time>2020-08-07T17:57:07Z</time>
      </trkpt>
      <trkpt lat="42.5707710" lon="-8.8885380">
        <ele>5.0</ele>
        <time>2020-08-07T17:57:08Z</time>
      </trkpt>
      <trkpt lat="42.5707840" lon="-8.8885100">
        <ele>4.8</ele>
        <time>2020-08-07T17:57:09Z</time>
      </trkpt>
      <trkpt lat="42.5707840" lon="-8.8885100">
        <ele>5.2</ele>
        <time>2020-08-07T17:57:10Z</time>
      </trkpt>
      <trkpt lat="42.5708100" lon="-8.8884800">
        <ele>5.2</ele>
        <time>2020-08-07T17:57:11Z</time>
      </trkpt>
      <trkpt lat="42.5708100" lon="-8.8884800">
        <ele>5.8</ele>
        <time>2020-08-07T17:57:12Z</time>
      </trkpt>
      <trkpt lat="42.5708220" lon="-8.8884550">
        <ele>6.0</ele>
        <time>2020-08-07T17:57:13Z</time>
      </trkpt>
      <trkpt lat="42.5708220" lon="-8.8884550">
        <ele>6.2</ele>
        <time>2020-08-07T17:57:14Z</time>
      </trkpt>
      <trkpt lat="42.5708480" lon="-8.8884260">
        <ele>6.2</ele>
        <time>2020-08-07T17:57:15Z</time>
      </trkpt>
      <trkpt lat="42.5708480" lon="-8.8884260">
        <ele>6.6</ele>
        <time>2020-08-07T17:57:16Z</time>
      </trkpt>
      <trkpt lat="42.5708670" lon="-8.8884030">
        <ele>7.0</ele>
        <time>2020-08-07T17:57:17Z</time>
      </trkpt>
      <trkpt lat="42.5708670" lon="-8.8884030">
        <ele>7.0</ele>
        <time>2020-08-07T17:57:18Z</time>
      </trkpt>
      <trkpt lat="42.5708830" lon="-8.8883740">
        <ele>7.0</ele>
        <time>2020-08-07T17:57:19Z</time>
      </trkpt>
      <trkpt lat="42.5708830" lon="-8.8883740">
        <ele>7.2</ele>
        <time>2020-08-07T17:57:20Z</time>
      </trkpt>
      <trkpt lat="42.5709020" lon="-8.8883440">
        <ele>7.4</ele>
        <time>2020-08-07T17:57:21Z</time>
      </trkpt>
      <trkpt lat="42.5709020" lon="-8.8883440">
        <ele>7.8</ele>
        <time>2020-08-07T17:57:22Z</time>
      </trkpt>
      <trkpt lat="42.5709150" lon="-8.8883230">
        <ele>7.6</ele>
        <time>2020-08-07T17:57:23Z</time>
      </trkpt>
      <trkpt lat="42.5709150" lon="-8.8883230">
        <ele>7.8</ele>
        <time>2020-08-07T17:57:24Z</time>
      </trkpt>
      <trkpt lat="42.5709340" lon="-8.8882910">
        <ele>7.8</ele>
        <time>2020-08-07T17:57:25Z</time>
      </trkpt>
      <trkpt lat="42.5709470" lon="-8.8882700">
        <ele>7.6</ele>
        <time>2020-08-07T17:57:26Z</time>
      </trkpt>
      <trkpt lat="42.5709470" lon="-8.8882700">
        <ele>7.6</ele>
        <time>2020-08-07T17:57:27Z</time>
      </trkpt>
      <trkpt lat="42.5709570" lon="-8.8882440">
        <ele>7.4</ele>
        <time>2020-08-07T17:57:28Z</time>
      </trkpt>
      <trkpt lat="42.5709700" lon="-8.8882250">
        <ele>7.4</ele>
        <time>2020-08-07T17:57:29Z</time>
      </trkpt>
      <trkpt lat="42.5709700" lon="-8.8882250">
        <ele>7.4</ele>
        <time>2020-08-07T17:57:30Z</time>
      </trkpt>
      <trkpt lat="42.5709890" lon="-8.8881930">
        <ele>7.6</ele>
        <time>2020-08-07T17:57:31Z</time>
      </trkpt>
      <trkpt lat="42.5709890" lon="-8.8881930">
        <ele>7.6</ele>
        <time>2020-08-07T17:57:32Z</time>
      </trkpt>
      <trkpt lat="42.5710080" lon="-8.8881650">
        <ele>7.6</ele>
        <time>2020-08-07T17:57:33Z</time>
      </trkpt>
      <trkpt lat="42.5710080" lon="-8.8881650">
        <ele>7.2</ele>
        <time>2020-08-07T17:57:34Z</time>
      </trkpt>
      <trkpt lat="42.5710270" lon="-8.8881430">
        <ele>7.2</ele>
        <time>2020-08-07T17:57:35Z</time>
      </trkpt>
      <trkpt lat="42.5710270" lon="-8.8881430">
        <ele>6.8</ele>
        <time>2020-08-07T17:57:36Z</time>
      </trkpt>
      <trkpt lat="42.5710500" lon="-8.8881180">
        <ele>7.0</ele>
        <time>2020-08-07T17:57:37Z</time>
      </trkpt>
      <trkpt lat="42.5710500" lon="-8.8881180">
        <ele>6.8</ele>
        <time>2020-08-07T17:57:38Z</time>
      </trkpt>
      <trkpt lat="42.5710620" lon="-8.8880880">
        <ele>6.8</ele>
        <time>2020-08-07T17:57:39Z</time>
      </trkpt>
      <trkpt lat="42.5710620" lon="-8.8880880">
        <ele>6.2</ele>
        <time>2020-08-07T17:57:40Z</time>
      </trkpt>
      <trkpt lat="42.5710820" lon="-8.8880620">
        <ele>6.4</ele>
        <time>2020-08-07T17:57:41Z</time>
      </trkpt>
      <trkpt lat="42.5710820" lon="-8.8880620">
        <ele>6.2</ele>
        <time>2020-08-07T17:57:42Z</time>
      </trkpt>
      <trkpt lat="42.5710980" lon="-8.8880390">
        <ele>6.8</ele>
        <time>2020-08-07T17:57:43Z</time>
      </trkpt>
      <trkpt lat="42.5710980" lon="-8.8880390">
        <ele>6.4</ele>
        <time>2020-08-07T17:57:44Z</time>
      </trkpt>
      <trkpt lat="42.5711170" lon="-8.8880060">
        <ele>6.6</ele>
        <time>2020-08-07T17:57:45Z</time>
      </trkpt>
      <trkpt lat="42.5711170" lon="-8.8880060">
        <ele>6.8</ele>
        <time>2020-08-07T17:57:46Z</time>
      </trkpt>
      <trkpt lat="42.5711330" lon="-8.8879820">
        <ele>6.8</ele>
        <time>2020-08-07T17:57:47Z</time>
      </trkpt>
      <trkpt lat="42.5711330" lon="-8.8879820">
        <ele>6.6</ele>
        <time>2020-08-07T17:57:48Z</time>
      </trkpt>
      <trkpt lat="42.5711520" lon="-8.8879580">
        <ele>6.8</ele>
        <time>2020-08-07T17:57:49Z</time>
      </trkpt>
      <trkpt lat="42.5711520" lon="-8.8879580">
        <ele>6.8</ele>
        <time>2020-08-07T17:57:50Z</time>
      </trkpt>
      <trkpt lat="42.5711680" lon="-8.8879410">
        <ele>7.0</ele>
        <time>2020-08-07T17:57:51Z</time>
      </trkpt>
      <trkpt lat="42.5711680" lon="-8.8879410">
        <ele>7.0</ele>
        <time>2020-08-07T17:57:52Z</time>
      </trkpt>
      <trkpt lat="42.5711870" lon="-8.8879140">
        <ele>7.0</ele>
        <time>2020-08-07T17:57:53Z</time>
      </trkpt>
      <trkpt lat="42.5711870" lon="-8.8879140">
        <ele>6.8</ele>
        <time>2020-08-07T17:57:54Z</time>
      </trkpt>
      <trkpt lat="42.5712060" lon="-8.8878940">
        <ele>7.0</ele>
        <time>2020-08-07T17:57:55Z</time>
      </trkpt>
      <trkpt lat="42.5712060" lon="-8.8878940">
        <ele>6.8</ele>
        <time>2020-08-07T17:57:56Z</time>
      </trkpt>
      <trkpt lat="42.5712260" lon="-8.8878720">
        <ele>6.4</ele>
        <time>2020-08-07T17:57:57Z</time>
      </trkpt>
      <trkpt lat="42.5712260" lon="-8.8878720">
        <ele>5.8</ele>
        <time>2020-08-07T17:57:58Z</time>
      </trkpt>
      <trkpt lat="42.5712380" lon="-8.8878540">
        <ele>5.8</ele>
        <time>2020-08-07T17:57:59Z</time>
      </trkpt>
      <trkpt lat="42.5712380" lon="-8.8878540">
        <ele>5.6</ele>
        <time>2020-08-07T17:58:00Z</time>
      </trkpt>
      <trkpt lat="42.5712610" lon="-8.8878290">
        <ele>5.8</ele>
        <time>2020-08-07T17:58:01Z</time>
      </trkpt>
      <trkpt lat="42.5712610" lon="-8.8878290">
        <ele>6.0</ele>
        <time>2020-08-07T17:58:02Z</time>
      </trkpt>
      <trkpt lat="42.5712770" lon="-8.8878070">
        <ele>5.8</ele>
        <time>2020-08-07T17:58:03Z</time>
      </trkpt>
      <trkpt lat="42.5712770" lon="-8.8878070">
        <ele>6.0</ele>
        <time>2020-08-07T17:58:04Z</time>
      </trkpt>
      <trkpt lat="42.5712960" lon="-8.8877820">
        <ele>6.0</ele>
        <time>2020-08-07T17:58:05Z</time>
      </trkpt>
      <trkpt lat="42.5712960" lon="-8.8877820">
        <ele>6.0</ele>
        <time>2020-08-07T17:58:06Z</time>
      </trkpt>
      <trkpt lat="42.5713150" lon="-8.8877620">
        <ele>5.6</ele>
        <time>2020-08-07T17:58:07Z</time>
      </trkpt>
      <trkpt lat="42.5713150" lon="-8.8877620">
        <ele>5.6</ele>
        <time>2020-08-07T17:58:08Z</time>
      </trkpt>
      <trkpt lat="42.5713310" lon="-8.8877430">
        <ele>5.4</ele>
        <time>2020-08-07T17:58:09Z</time>
      </trkpt>
      <trkpt lat="42.5713310" lon="-8.8877430">
        <ele>5.4</ele>
        <time>2020-08-07T17:58:10Z</time>
      </trkpt>
      <trkpt lat="42.5713500" lon="-8.8877180">
        <ele>5.4</ele>
        <time>2020-08-07T17:58:11Z</time>
      </trkpt>
      <trkpt lat="42.5713500" lon="-8.8877180">
        <ele>5.2</ele>
        <time>2020-08-07T17:58:12Z</time>
      </trkpt>
      <trkpt lat="42.5713500" lon="-8.8877180">
        <ele>5.2</ele>
        <time>2020-08-07T17:58:13Z</time>
      </trkpt>
      <trkpt lat="42.5713730" lon="-8.8876950">
        <ele>5.2</ele>
        <time>2020-08-07T17:58:14Z</time>
      </trkpt>
      <trkpt lat="42.5713730" lon="-8.8876950">
        <ele>5.4</ele>
        <time>2020-08-07T17:58:15Z</time>
      </trkpt>
      <trkpt lat="42.5713920" lon="-8.8876660">
        <ele>5.8</ele>
        <time>2020-08-07T17:58:16Z</time>
      </trkpt>
      <trkpt lat="42.5713920" lon="-8.8876660">
        <ele>6.2</ele>
        <time>2020-08-07T17:58:17Z</time>
      </trkpt>
      <trkpt lat="42.5714050" lon="-8.8876420">
        <ele>6.4</ele>
        <time>2020-08-07T17:58:18Z</time>
      </trkpt>
      <trkpt lat="42.5714050" lon="-8.8876420">
        <ele>6.6</ele>
        <time>2020-08-07T17:58:19Z</time>
      </trkpt>
      <trkpt lat="42.5714140" lon="-8.8876170">
        <ele>6.4</ele>
        <time>2020-08-07T17:58:20Z</time>
      </trkpt>
      <trkpt lat="42.5714140" lon="-8.8876170">
        <ele>6.8</ele>
        <time>2020-08-07T17:58:21Z</time>
      </trkpt>
      <trkpt lat="42.5714370" lon="-8.8875910">
        <ele>6.8</ele>
        <time>2020-08-07T17:58:22Z</time>
      </trkpt>
      <trkpt lat="42.5714370" lon="-8.8875910">
        <ele>6.8</ele>
        <time>2020-08-07T17:58:23Z</time>
      </trkpt>
      <trkpt lat="42.5714560" lon="-8.8875740">
        <ele>6.6</ele>
        <time>2020-08-07T17:58:24Z</time>
      </trkpt>
      <trkpt lat="42.5714560" lon="-8.8875740">
        <ele>5.8</ele>
        <time>2020-08-07T17:58:25Z</time>
      </trkpt>
      <trkpt lat="42.5714750" lon="-8.8875500">
        <ele>5.8</ele>
        <time>2020-08-07T17:58:26Z</time>
      </trkpt>
      <trkpt lat="42.5714750" lon="-8.8875500">
        <ele>5.8</ele>
        <time>2020-08-07T17:58:27Z</time>
      </trkpt>
      <trkpt lat="42.5714940" lon="-8.8875180">
        <ele>6.0</ele>
        <time>2020-08-07T17:58:28Z</time>
      </trkpt>
      <trkpt lat="42.5714940" lon="-8.8875180">
        <ele>6.0</ele>
        <time>2020-08-07T17:58:29Z</time>
      </trkpt>
      <trkpt lat="42.5715140" lon="-8.8874880">
        <ele>6.0</ele>
        <time>2020-08-07T17:58:30Z</time>
      </trkpt>
      <trkpt lat="42.5715140" lon="-8.8874880">
        <ele>6.6</ele>
        <time>2020-08-07T17:58:31Z</time>
      </trkpt>
      <trkpt lat="42.5715300" lon="-8.8874620">
        <ele>6.6</ele>
        <time>2020-08-07T17:58:32Z</time>
      </trkpt>
      <trkpt lat="42.5715300" lon="-8.8874620">
        <ele>6.4</ele>
        <time>2020-08-07T17:58:33Z</time>
      </trkpt>
      <trkpt lat="42.5715460" lon="-8.8874330">
        <ele>6.2</ele>
        <time>2020-08-07T17:58:34Z</time>
      </trkpt>
      <trkpt lat="42.5715460" lon="-8.8874330">
        <ele>6.0</ele>
        <time>2020-08-07T17:58:35Z</time>
      </trkpt>
      <trkpt lat="42.5715580" lon="-8.8874060">
        <ele>5.8</ele>
        <time>2020-08-07T17:58:36Z</time>
      </trkpt>
      <trkpt lat="42.5715580" lon="-8.8874060">
        <ele>5.8</ele>
        <time>2020-08-07T17:58:37Z</time>
      </trkpt>
      <trkpt lat="42.5715780" lon="-8.8873820">
        <ele>6.0</ele>
        <time>2020-08-07T17:58:38Z</time>
      </trkpt>
      <trkpt lat="42.5715780" lon="-8.8873820">
        <ele>6.2</ele>
        <time>2020-08-07T17:58:39Z</time>
      </trkpt>
      <trkpt lat="42.5715940" lon="-8.8873580">
        <ele>6.2</ele>
        <time>2020-08-07T17:58:40Z</time>
      </trkpt>
      <trkpt lat="42.5715940" lon="-8.8873580">
        <ele>6.0</ele>
        <time>2020-08-07T17:58:41Z</time>
      </trkpt>
      <trkpt lat="42.5716060" lon="-8.8873330">
        <ele>6.2</ele>
        <time>2020-08-07T17:58:42Z</time>
      </trkpt>
      <trkpt lat="42.5716060" lon="-8.8873330">
        <ele>5.8</ele>
        <time>2020-08-07T17:58:43Z</time>
      </trkpt>
      <trkpt lat="42.5716220" lon="-8.8873120">
        <ele>5.4</ele>
        <time>2020-08-07T17:58:44Z</time>
      </trkpt>
      <trkpt lat="42.5716220" lon="-8.8873120">
        <ele>5.6</ele>
        <time>2020-08-07T17:58:45Z</time>
      </trkpt>
      <trkpt lat="42.5716420" lon="-8.8872880">
        <ele>5.8</ele>
        <time>2020-08-07T17:58:46Z</time>
      </trkpt>
      <trkpt lat="42.5716420" lon="-8.8872880">
        <ele>6.0</ele>
        <time>2020-08-07T17:58:47Z</time>
      </trkpt>
      <trkpt lat="42.5716580" lon="-8.8872670">
        <ele>6.2</ele>
        <time>2020-08-07T17:58:48Z</time>
      </trkpt>
      <trkpt lat="42.5716580" lon="-8.8872670">
        <ele>6.0</ele>
        <time>2020-08-07T17:58:49Z</time>
      </trkpt>
      <trkpt lat="42.5716770" lon="-8.8872450">
        <ele>6.2</ele>
        <time>2020-08-07T17:58:50Z</time>
      </trkpt>
      <trkpt lat="42.5716770" lon="-8.8872450">
        <ele>6.0</ele>
        <time>2020-08-07T17:58:51Z</time>
      </trkpt>
      <trkpt lat="42.5716930" lon="-8.8872270">
        <ele>5.8</ele>
        <time>2020-08-07T17:58:52Z</time>
      </trkpt>
      <trkpt lat="42.5716930" lon="-8.8872270">
        <ele>5.2</ele>
        <time>2020-08-07T17:58:53Z</time>
      </trkpt>
      <trkpt lat="42.5717060" lon="-8.8872050">
        <ele>5.0</ele>
        <time>2020-08-07T17:58:54Z</time>
      </trkpt>
      <trkpt lat="42.5717060" lon="-8.8872050">
        <ele>4.6</ele>
        <time>2020-08-07T17:58:55Z</time>
      </trkpt>
      <trkpt lat="42.5717060" lon="-8.8872050">
        <ele>4.0</ele>
        <time>2020-08-07T17:58:56Z</time>
      </trkpt>
      <trkpt lat="42.5717220" lon="-8.8871780">
        <ele>4.0</ele>
        <time>2020-08-07T17:58:57Z</time>
      </trkpt>
      <trkpt lat="42.5717220" lon="-8.8871780">
        <ele>3.8</ele>
        <time>2020-08-07T17:58:58Z</time>
      </trkpt>
      <trkpt lat="42.5717220" lon="-8.8871780">
        <ele>3.8</ele>
        <time>2020-08-07T17:58:59Z</time>
      </trkpt>
      <trkpt lat="42.5717380" lon="-8.8871520">
        <ele>4.0</ele>
        <time>2020-08-07T17:59:00Z</time>
      </trkpt>
      <trkpt lat="42.5717380" lon="-8.8871520">
        <ele>4.2</ele>
        <time>2020-08-07T17:59:01Z</time>
      </trkpt>
      <trkpt lat="42.5717380" lon="-8.8871520">
        <ele>4.4</ele>
        <time>2020-08-07T17:59:02Z</time>
      </trkpt>
      <trkpt lat="42.5717540" lon="-8.8871230">
        <ele>4.4</ele>
        <time>2020-08-07T17:59:03Z</time>
      </trkpt>
      <trkpt lat="42.5717540" lon="-8.8871230">
        <ele>4.6</ele>
        <time>2020-08-07T17:59:04Z</time>
      </trkpt>
      <trkpt lat="42.5717700" lon="-8.8871030">
        <ele>4.6</ele>
        <time>2020-08-07T17:59:05Z</time>
      </trkpt>
      <trkpt lat="42.5717700" lon="-8.8871030">
        <ele>4.6</ele>
        <time>2020-08-07T17:59:06Z</time>
      </trkpt>
      <trkpt lat="42.5717860" lon="-8.8870800">
        <ele>4.6</ele>
        <time>2020-08-07T17:59:07Z</time>
      </trkpt>
      <trkpt lat="42.5717860" lon="-8.8870800">
        <ele>4.4</ele>
        <time>2020-08-07T17:59:08Z</time>
      </trkpt>
      <trkpt lat="42.5718020" lon="-8.8870580">
        <ele>4.4</ele>
        <time>2020-08-07T17:59:09Z</time>
      </trkpt>
      <trkpt lat="42.5718020" lon="-8.8870580">
        <ele>4.6</ele>
        <time>2020-08-07T17:59:10Z</time>
      </trkpt>
      <trkpt lat="42.5718020" lon="-8.8870580">
        <ele>5.0</ele>
        <time>2020-08-07T17:59:11Z</time>
      </trkpt>
      <trkpt lat="42.5718270" lon="-8.8870310">
        <ele>5.4</ele>
        <time>2020-08-07T17:59:12Z</time>
      </trkpt>
      <trkpt lat="42.5718270" lon="-8.8870310">
        <ele>5.4</ele>
        <time>2020-08-07T17:59:13Z</time>
      </trkpt>
      <trkpt lat="42.5718430" lon="-8.8870050">
        <ele>5.8</ele>
        <time>2020-08-07T17:59:14Z</time>
      </trkpt>
      <trkpt lat="42.5718430" lon="-8.8870050">
        <ele>6.0</ele>
        <time>2020-08-07T17:59:15Z</time>
      </trkpt>
      <trkpt lat="42.5718560" lon="-8.8869800">
        <ele>6.2</ele>
        <time>2020-08-07T17:59:16Z</time>
      </trkpt>
      <trkpt lat="42.5718560" lon="-8.8869800">
        <ele>6.4</ele>
        <time>2020-08-07T17:59:17Z</time>
      </trkpt>
      <trkpt lat="42.5718750" lon="-8.8869540">
        <ele>6.8</ele>
        <time>2020-08-07T17:59:18Z</time>
      </trkpt>
      <trkpt lat="42.5718750" lon="-8.8869540">
        <ele>7.2</ele>
        <time>2020-08-07T17:59:19Z</time>
      </trkpt>
      <trkpt lat="42.5718940" lon="-8.8869310">
        <ele>7.0</ele>
        <time>2020-08-07T17:59:20Z</time>
      </trkpt>
      <trkpt lat="42.5718940" lon="-8.8869310">
        <ele>7.2</ele>
        <time>2020-08-07T17:59:21Z</time>
      </trkpt>
      <trkpt lat="42.5719140" lon="-8.8869050">
        <ele>7.2</ele>
        <time>2020-08-07T17:59:22Z</time>
      </trkpt>
      <trkpt lat="42.5719140" lon="-8.8869050">
        <ele>7.2</ele>
        <time>2020-08-07T17:59:23Z</time>
      </trkpt>
      <trkpt lat="42.5719300" lon="-8.8868780">
        <ele>7.0</ele>
        <time>2020-08-07T17:59:24Z</time>
      </trkpt>
      <trkpt lat="42.5719300" lon="-8.8868780">
        <ele>6.8</ele>
        <time>2020-08-07T17:59:25Z</time>
      </trkpt>
      <trkpt lat="42.5719490" lon="-8.8868540">
        <ele>6.8</ele>
        <time>2020-08-07T17:59:26Z</time>
      </trkpt>
      <trkpt lat="42.5719490" lon="-8.8868540">
        <ele>6.6</ele>
        <time>2020-08-07T17:59:27Z</time>
      </trkpt>
      <trkpt lat="42.5719650" lon="-8.8868300">
        <ele>6.4</ele>
        <time>2020-08-07T17:59:28Z</time>
      </trkpt>
      <trkpt lat="42.5719650" lon="-8.8868300">
        <ele>6.2</ele>
        <time>2020-08-07T17:59:29Z</time>
      </trkpt>
      <trkpt lat="42.5719900" lon="-8.8868050">
        <ele>6.2</ele>
        <time>2020-08-07T17:59:30Z</time>
      </trkpt>
      <trkpt lat="42.5719900" lon="-8.8868050">
        <ele>6.0</ele>
        <time>2020-08-07T17:59:31Z</time>
      </trkpt>
      <trkpt lat="42.5720100" lon="-8.8867830">
        <ele>6.2</ele>
        <time>2020-08-07T17:59:32Z</time>
      </trkpt>
      <trkpt lat="42.5720100" lon="-8.8867830">
        <ele>5.8</ele>
        <time>2020-08-07T17:59:33Z</time>
      </trkpt>
      <trkpt lat="42.5720260" lon="-8.8867570">
        <ele>5.8</ele>
        <time>2020-08-07T17:59:34Z</time>
      </trkpt>
      <trkpt lat="42.5720260" lon="-8.8867570">
        <ele>6.2</ele>
        <time>2020-08-07T17:59:35Z</time>
      </trkpt>
      <trkpt lat="42.5720420" lon="-8.8867370">
        <ele>6.0</ele>
        <time>2020-08-07T17:59:36Z</time>
      </trkpt>
      <trkpt lat="42.5720420" lon="-8.8867370">
        <ele>5.6</ele>
        <time>2020-08-07T17:59:37Z</time>
      </trkpt>
      <trkpt lat="42.5720610" lon="-8.8867100">
        <ele>5.4</ele>
        <time>2020-08-07T17:59:38Z</time>
      </trkpt>
      <trkpt lat="42.5720610" lon="-8.8867100">
        <ele>5.0</ele>
        <time>2020-08-07T17:59:39Z</time>
      </trkpt>
      <trkpt lat="42.5720800" lon="-8.8866800">
        <ele>4.8</ele>
        <time>2020-08-07T17:59:40Z</time>
      </trkpt>
      <trkpt lat="42.5720800" lon="-8.8866800">
        <ele>4.6</ele>
        <time>2020-08-07T17:59:41Z</time>
      </trkpt>
      <trkpt lat="42.5720900" lon="-8.8866530">
        <ele>4.8</ele>
        <time>2020-08-07T17:59:42Z</time>
      </trkpt>
      <trkpt lat="42.5720900" lon="-8.8866530">
        <ele>5.0</ele>
        <time>2020-08-07T17:59:43Z</time>
      </trkpt>
      <trkpt lat="42.5721020" lon="-8.8866280">
        <ele>5.0</ele>
        <time>2020-08-07T17:59:44Z</time>
      </trkpt>
      <trkpt lat="42.5721020" lon="-8.8866280">
        <ele>4.8</ele>
        <time>2020-08-07T17:59:45Z</time>
      </trkpt>
      <trkpt lat="42.5721120" lon="-8.8866020">
        <ele>4.6</ele>
        <time>2020-08-07T17:59:46Z</time>
      </trkpt>
      <trkpt lat="42.5721120" lon="-8.8866020">
        <ele>4.6</ele>
        <time>2020-08-07T17:59:47Z</time>
      </trkpt>
      <trkpt lat="42.5721280" lon="-8.8865740">
        <ele>4.6</ele>
        <time>2020-08-07T17:59:48Z</time>
      </trkpt>
      <trkpt lat="42.5721280" lon="-8.8865740">
        <ele>4.8</ele>
        <time>2020-08-07T17:59:49Z</time>
      </trkpt>
      <trkpt lat="42.5721410" lon="-8.8865500">
        <ele>5.0</ele>
        <time>2020-08-07T17:59:50Z</time>
      </trkpt>
      <trkpt lat="42.5721410" lon="-8.8865500">
        <ele>4.8</ele>
        <time>2020-08-07T17:59:51Z</time>
      </trkpt>
      <trkpt lat="42.5721540" lon="-8.8865230">
        <ele>5.0</ele>
        <time>2020-08-07T17:59:52Z</time>
      </trkpt>
      <trkpt lat="42.5721540" lon="-8.8865230">
        <ele>4.8</ele>
        <time>2020-08-07T17:59:53Z</time>
      </trkpt>
      <trkpt lat="42.5721700" lon="-8.8865070">
        <ele>5.2</ele>
        <time>2020-08-07T17:59:54Z</time>
      </trkpt>
      <trkpt lat="42.5721700" lon="-8.8865070">
        <ele>5.2</ele>
        <time>2020-08-07T17:59:55Z</time>
      </trkpt>
      <trkpt lat="42.5721890" lon="-8.8864880">
        <ele>5.0</ele>
        <time>2020-08-07T17:59:56Z</time>
      </trkpt>
      <trkpt lat="42.5721890" lon="-8.8864880">
        <ele>5.2</ele>
        <time>2020-08-07T17:59:57Z</time>
      </trkpt>
      <trkpt lat="42.5722020" lon="-8.8864680">
        <ele>5.2</ele>
        <time>2020-08-07T17:59:58Z</time>
      </trkpt>
      <trkpt lat="42.5722020" lon="-8.8864680">
        <ele>5.6</ele>
        <time>2020-08-07T17:59:59Z</time>
      </trkpt>
      <trkpt lat="42.5722020" lon="-8.8864680">
        <ele>5.6</ele>
        <time>2020-08-07T18:00:00Z</time>
      </trkpt>
      <trkpt lat="42.5722210" lon="-8.8864380">
        <ele>5.8</ele>
        <time>2020-08-07T18:00:01Z</time>
      </trkpt>
      <trkpt lat="42.5722210" lon="-8.8864380">
        <ele>6.4</ele>
        <time>2020-08-07T18:00:02Z</time>
      </trkpt>
      <trkpt lat="42.5722340" lon="-8.8864180">
        <ele>6.2</ele>
        <time>2020-08-07T18:00:03Z</time>
      </trkpt>
      <trkpt lat="42.5722340" lon="-8.8864180">
        <ele>6.0</ele>
        <time>2020-08-07T18:00:04Z</time>
      </trkpt>
      <trkpt lat="42.5722460" lon="-8.8863970">
        <ele>6.0</ele>
        <time>2020-08-07T18:00:05Z</time>
      </trkpt>
      <trkpt lat="42.5722460" lon="-8.8863970">
        <ele>6.2</ele>
        <time>2020-08-07T18:00:06Z</time>
      </trkpt>
      <trkpt lat="42.5722590" lon="-8.8863690">
        <ele>6.4</ele>
        <time>2020-08-07T18:00:07Z</time>
      </trkpt>
      <trkpt lat="42.5722590" lon="-8.8863690">
        <ele>6.0</ele>
        <time>2020-08-07T18:00:08Z</time>
      </trkpt>
      <trkpt lat="42.5722720" lon="-8.8863430">
        <ele>5.8</ele>
        <time>2020-08-07T18:00:09Z</time>
      </trkpt>
      <trkpt lat="42.5722720" lon="-8.8863430">
        <ele>6.0</ele>
        <time>2020-08-07T18:00:10Z</time>
      </trkpt>
      <trkpt lat="42.5722880" lon="-8.8863140">
        <ele>5.8</ele>
        <time>2020-08-07T18:00:11Z</time>
      </trkpt>
      <trkpt lat="42.5722880" lon="-8.8863140">
        <ele>5.6</ele>
        <time>2020-08-07T18:00:12Z</time>
      </trkpt>
      <trkpt lat="42.5723040" lon="-8.8862900">
        <ele>5.4</ele>
        <time>2020-08-07T18:00:13Z</time>
      </trkpt>
      <trkpt lat="42.5723040" lon="-8.8862900">
        <ele>5.6</ele>
        <time>2020-08-07T18:00:14Z</time>
      </trkpt>
      <trkpt lat="42.5723170" lon="-8.8862650">
        <ele>5.4</ele>
        <time>2020-08-07T18:00:15Z</time>
      </trkpt>
      <trkpt lat="42.5723170" lon="-8.8862650">
        <ele>5.4</ele>
        <time>2020-08-07T18:00:16Z</time>
      </trkpt>
      <trkpt lat="42.5723300" lon="-8.8862450">
        <ele>5.6</ele>
        <time>2020-08-07T18:00:17Z</time>
      </trkpt>
      <trkpt lat="42.5723300" lon="-8.8862450">
        <ele>5.4</ele>
        <time>2020-08-07T18:00:18Z</time>
      </trkpt>
      <trkpt lat="42.5723460" lon="-8.8862250">
        <ele>5.6</ele>
        <time>2020-08-07T18:00:19Z</time>
      </trkpt>
      <trkpt lat="42.5723460" lon="-8.8862250">
        <ele>5.2</ele>
        <time>2020-08-07T18:00:20Z</time>
      </trkpt>
      <trkpt lat="42.5723460" lon="-8.8862250">
        <ele>5.0</ele>
        <time>2020-08-07T18:00:21Z</time>
      </trkpt>
      <trkpt lat="42.5723650" lon="-8.8861970">
        <ele>4.6</ele>
        <time>2020-08-07T18:00:22Z</time>
      </trkpt>
      <trkpt lat="42.5723650" lon="-8.8861970">
        <ele>4.8</ele>
        <time>2020-08-07T18:00:23Z</time>
      </trkpt>
      <trkpt lat="42.5723810" lon="-8.8861780">
        <ele>4.8</ele>
        <time>2020-08-07T18:00:24Z</time>
      </trkpt>
      <trkpt lat="42.5723810" lon="-8.8861780">
        <ele>5.0</ele>
        <time>2020-08-07T18:00:25Z</time>
      </trkpt>
      <trkpt lat="42.5723900" lon="-8.8861570">
        <ele>5.2</ele>
        <time>2020-08-07T18:00:26Z</time>
      </trkpt>
      <trkpt lat="42.5723900" lon="-8.8861570">
        <ele>5.0</ele>
        <time>2020-08-07T18:00:27Z</time>
      </trkpt>
      <trkpt lat="42.5724130" lon="-8.8861330">
        <ele>4.8</ele>
        <time>2020-08-07T18:00:28Z</time>
      </trkpt>
      <trkpt lat="42.5724130" lon="-8.8861330">
        <ele>4.6</ele>
        <time>2020-08-07T18:00:29Z</time>
      </trkpt>
      <trkpt lat="42.5724260" lon="-8.8861110">
        <ele>4.4</ele>
        <time>2020-08-07T18:00:30Z</time>
      </trkpt>
      <trkpt lat="42.5724260" lon="-8.8861110">
        <ele>4.8</ele>
        <time>2020-08-07T18:00:31Z</time>
      </trkpt>
      <trkpt lat="42.5724320" lon="-8.8860840">
        <ele>5.2</ele>
        <time>2020-08-07T18:00:32Z</time>
      </trkpt>
      <trkpt lat="42.5724320" lon="-8.8860840">
        <ele>6.0</ele>
        <time>2020-08-07T18:00:33Z</time>
      </trkpt>
      <trkpt lat="42.5724450" lon="-8.8860590">
        <ele>6.4</ele>
        <time>2020-08-07T18:00:34Z</time>
      </trkpt>
      <trkpt lat="42.5724450" lon="-8.8860590">
        <ele>6.6</ele>
        <time>2020-08-07T18:00:35Z</time>
      </trkpt>
      <trkpt lat="42.5724610" lon="-8.8860380">
        <ele>6.8</ele>
        <time>2020-08-07T18:00:36Z</time>
      </trkpt>
      <trkpt lat="42.5724610" lon="-8.8860380">
        <ele>6.8</ele>
        <time>2020-08-07T18:00:37Z</time>
      </trkpt>
      <trkpt lat="42.5724610" lon="-8.8860380">
        <ele>7.2</ele>
        <time>2020-08-07T18:00:38Z</time>
      </trkpt>
      <trkpt lat="42.5724800" lon="-8.8860060">
        <ele>7.2</ele>
        <time>2020-08-07T18:00:39Z</time>
      </trkpt>
      <trkpt lat="42.5724800" lon="-8.8860060">
        <ele>7.2</ele>
        <time>2020-08-07T18:00:40Z</time>
      </trkpt>
      <trkpt lat="42.5724900" lon="-8.8859860">
        <ele>6.8</ele>
        <time>2020-08-07T18:00:41Z</time>
      </trkpt>
      <trkpt lat="42.5724900" lon="-8.8859860">
        <ele>7.0</ele>
        <time>2020-08-07T18:00:42Z</time>
      </trkpt>
      <trkpt lat="42.5725060" lon="-8.8859630">
        <ele>7.0</ele>
        <time>2020-08-07T18:00:43Z</time>
      </trkpt>
      <trkpt lat="42.5725060" lon="-8.8859630">
        <ele>7.8</ele>
        <time>2020-08-07T18:00:44Z</time>
      </trkpt>
      <trkpt lat="42.5725180" lon="-8.8859460">
        <ele>8.2</ele>
        <time>2020-08-07T18:00:45Z</time>
      </trkpt>
      <trkpt lat="42.5725180" lon="-8.8859460">
        <ele>8.0</ele>
        <time>2020-08-07T18:00:46Z</time>
      </trkpt>
      <trkpt lat="42.5725310" lon="-8.8859220">
        <ele>8.4</ele>
        <time>2020-08-07T18:00:47Z</time>
      </trkpt>
      <trkpt lat="42.5725310" lon="-8.8859220">
        <ele>8.4</ele>
        <time>2020-08-07T18:00:48Z</time>
      </trkpt>
      <trkpt lat="42.5725470" lon="-8.8858980">
        <ele>9.0</ele>
        <time>2020-08-07T18:00:49Z</time>
      </trkpt>
      <trkpt lat="42.5725470" lon="-8.8858980">
        <ele>9.2</ele>
        <time>2020-08-07T18:00:50Z</time>
      </trkpt>
      <trkpt lat="42.5725630" lon="-8.8858780">
        <ele>9.0</ele>
        <time>2020-08-07T18:00:51Z</time>
      </trkpt>
      <trkpt lat="42.5725630" lon="-8.8858780">
        <ele>8.8</ele>
        <time>2020-08-07T18:00:52Z</time>
      </trkpt>
      <trkpt lat="42.5725790" lon="-8.8858520">
        <ele>8.0</ele>
        <time>2020-08-07T18:00:53Z</time>
      </trkpt>
      <trkpt lat="42.5725790" lon="-8.8858520">
        <ele>7.8</ele>
        <time>2020-08-07T18:00:54Z</time>
      </trkpt>
      <trkpt lat="42.5725890" lon="-8.8858230">
        <ele>7.8</ele>
        <time>2020-08-07T18:00:55Z</time>
      </trkpt>
      <trkpt lat="42.5725890" lon="-8.8858230">
        <ele>7.8</ele>
        <time>2020-08-07T18:00:56Z</time>
      </trkpt>
      <trkpt lat="42.5726020" lon="-8.8857970">
        <ele>7.8</ele>
        <time>2020-08-07T18:00:57Z</time>
      </trkpt>
      <trkpt lat="42.5726020" lon="-8.8857970">
        <ele>7.6</ele>
        <time>2020-08-07T18:00:58Z</time>
      </trkpt>
      <trkpt lat="42.5726080" lon="-8.8857700">
        <ele>7.6</ele>
        <time>2020-08-07T18:00:59Z</time>
      </trkpt>
      <trkpt lat="42.5726080" lon="-8.8857700">
        <ele>7.4</ele>
        <time>2020-08-07T18:01:00Z</time>
      </trkpt>
      <trkpt lat="42.5726180" lon="-8.8857470">
        <ele>7.2</ele>
        <time>2020-08-07T18:01:01Z</time>
      </trkpt>
      <trkpt lat="42.5726180" lon="-8.8857470">
        <ele>6.8</ele>
        <time>2020-08-07T18:01:02Z</time>
      </trkpt>
      <trkpt lat="42.5726180" lon="-8.8857470">
        <ele>6.4</ele>
        <time>2020-08-07T18:01:03Z</time>
      </trkpt>
      <trkpt lat="42.5726270" lon="-8.8857170">
        <ele>6.4</ele>
        <time>2020-08-07T18:01:04Z</time>
      </trkpt>
      <trkpt lat="42.5726270" lon="-8.8857170">
        <ele>6.6</ele>
        <time>2020-08-07T18:01:05Z</time>
      </trkpt>
      <trkpt lat="42.5726400" lon="-8.8856970">
        <ele>6.6</ele>
        <time>2020-08-07T18:01:06Z</time>
      </trkpt>
      <trkpt lat="42.5726400" lon="-8.8856970">
        <ele>6.0</ele>
        <time>2020-08-07T18:01:07Z</time>
      </trkpt>
      <trkpt lat="42.5726560" lon="-8.8856780">
        <ele>5.8</ele>
        <time>2020-08-07T18:01:08Z</time>
      </trkpt>
      <trkpt lat="42.5726560" lon="-8.8856780">
        <ele>6.2</ele>
        <time>2020-08-07T18:01:09Z</time>
      </trkpt>
      <trkpt lat="42.5726560" lon="-8.8856780">
        <ele>6.2</ele>
        <time>2020-08-07T18:01:10Z</time>
      </trkpt>
      <trkpt lat="42.5726780" lon="-8.8856510">
        <ele>6.6</ele>
        <time>2020-08-07T18:01:11Z</time>
      </trkpt>
      <trkpt lat="42.5726780" lon="-8.8856510">
        <ele>6.4</ele>
        <time>2020-08-07T18:01:12Z</time>
      </trkpt>
      <trkpt lat="42.5726940" lon="-8.8856340">
        <ele>6.2</ele>
        <time>2020-08-07T18:01:13Z</time>
      </trkpt>
      <trkpt lat="42.5726940" lon="-8.8856340">
        <ele>6.2</ele>
        <time>2020-08-07T18:01:14Z</time>
      </trkpt>
      <trkpt lat="42.5727070" lon="-8.8856160">
        <ele>6.0</ele>
        <time>2020-08-07T18:01:15Z</time>
      </trkpt>
      <trkpt lat="42.5727070" lon="-8.8856160">
        <ele>5.8</ele>
        <time>2020-08-07T18:01:16Z</time>
      </trkpt>
      <trkpt lat="42.5727230" lon="-8.8855960">
        <ele>5.8</ele>
        <time>2020-08-07T18:01:17Z</time>
      </trkpt>
      <trkpt lat="42.5727230" lon="-8.8855960">
        <ele>5.8</ele>
        <time>2020-08-07T18:01:18Z</time>
      </trkpt>
      <trkpt lat="42.5727360" lon="-8.8855780">
        <ele>5.8</ele>
        <time>2020-08-07T18:01:19Z</time>
      </trkpt>
      <trkpt lat="42.5727360" lon="-8.8855780">
        <ele>5.8</ele>
        <time>2020-08-07T18:01:20Z</time>
      </trkpt>
      <trkpt lat="42.5727360" lon="-8.8855780">
        <ele>6.2</ele>
        <time>2020-08-07T18:01:21Z</time>
      </trkpt>
      <trkpt lat="42.5727460" lon="-8.8855450">
        <ele>6.4</ele>
        <time>2020-08-07T18:01:22Z</time>
      </trkpt>
      <trkpt lat="42.5727460" lon="-8.8855450">
        <ele>6.4</ele>
        <time>2020-08-07T18:01:23Z</time>
      </trkpt>
      <trkpt lat="42.5727580" lon="-8.8855250">
        <ele>6.0</ele>
        <time>2020-08-07T18:01:24Z</time>
      </trkpt>
      <trkpt lat="42.5727580" lon="-8.8855250">
        <ele>6.2</ele>
        <time>2020-08-07T18:01:25Z</time>
      </trkpt>
      <trkpt lat="42.5727580" lon="-8.8855250">
        <ele>6.0</ele>
        <time>2020-08-07T18:01:26Z</time>
      </trkpt>
      <trkpt lat="42.5727780" lon="-8.8854910">
        <ele>6.0</ele>
        <time>2020-08-07T18:01:27Z</time>
      </trkpt>
      <trkpt lat="42.5727780" lon="-8.8854910">
        <ele>5.8</ele>
        <time>2020-08-07T18:01:28Z</time>
      </trkpt>
      <trkpt lat="42.5727870" lon="-8.8854660">
        <ele>5.8</ele>
        <time>2020-08-07T18:01:29Z</time>
      </trkpt>
      <trkpt lat="42.5727870" lon="-8.8854660">
        <ele>5.6</ele>
        <time>2020-08-07T18:01:30Z</time>
      </trkpt>
      <trkpt lat="42.5728030" lon="-8.8854460">
        <ele>5.6</ele>
        <time>2020-08-07T18:01:31Z</time>
      </trkpt>
      <trkpt lat="42.5728030" lon="-8.8854460">
        <ele>5.4</ele>
        <time>2020-08-07T18:01:32Z</time>
      </trkpt>
      <trkpt lat="42.5728160" lon="-8.8854240">
        <ele>5.2</ele>
        <time>2020-08-07T18:01:33Z</time>
      </trkpt>
      <trkpt lat="42.5728160" lon="-8.8854240">
        <ele>5.4</ele>
        <time>2020-08-07T18:01:34Z</time>
      </trkpt>
      <trkpt lat="42.5728290" lon="-8.8854000">
        <ele>5.2</ele>
        <time>2020-08-07T18:01:35Z</time>
      </trkpt>
      <trkpt lat="42.5728290" lon="-8.8854000">
        <ele>5.4</ele>
        <time>2020-08-07T18:01:36Z</time>
      </trkpt>
      <trkpt lat="42.5728420" lon="-8.8853750">
        <ele>4.8</ele>
        <time>2020-08-07T18:01:37Z</time>
      </trkpt>
      <trkpt lat="42.5728420" lon="-8.8853750">
        <ele>4.6</ele>
        <time>2020-08-07T18:01:38Z</time>
      </trkpt>
      <trkpt lat="42.5728610" lon="-8.8853480">
        <ele>4.6</ele>
        <time>2020-08-07T18:01:39Z</time>
      </trkpt>
      <trkpt lat="42.5728610" lon="-8.8853480">
        <ele>4.8</ele>
        <time>2020-08-07T18:01:40Z</time>
      </trkpt>
      <trkpt lat="42.5728800" lon="-8.8853230">
        <ele>5.0</ele>
        <time>2020-08-07T18:01:41Z</time>
      </trkpt>
      <trkpt lat="42.5728800" lon="-8.8853230">
        <ele>5.2</ele>
        <time>2020-08-07T18:01:42Z</time>
      </trkpt>
      <trkpt lat="42.5728960" lon="-8.8852980">
        <ele>5.6</ele>
        <time>2020-08-07T18:01:43Z</time>
      </trkpt>
      <trkpt lat="42.5728960" lon="-8.8852980">
        <ele>5.6</ele>
        <time>2020-08-07T18:01:44Z</time>
      </trkpt>
      <trkpt lat="42.5729090" lon="-8.8852770">
        <ele>5.6</ele>
        <time>2020-08-07T18:01:45Z</time>
      </trkpt>
      <trkpt lat="42.5729090" lon="-8.8852770">
        <ele>5.8</ele>
        <time>2020-08-07T18:01:46Z</time>
      </trkpt>
      <trkpt lat="42.5729090" lon="-8.8852770">
        <ele>5.8</ele>
        <time>2020-08-07T18:01:47Z</time>
      </trkpt>
      <trkpt lat="42.5729340" lon="-8.8852460">
        <ele>5.6</ele>
        <time>2020-08-07T18:01:48Z</time>
      </trkpt>
      <trkpt lat="42.5729340" lon="-8.8852460">
        <ele>5.4</ele>
        <time>2020-08-07T18:01:49Z</time>
      </trkpt>
      <trkpt lat="42.5729470" lon="-8.8852230">
        <ele>5.4</ele>
        <time>2020-08-07T18:01:50Z</time>
      </trkpt>
      <trkpt lat="42.5729470" lon="-8.8852230">
        <ele>5.8</ele>
        <time>2020-08-07T18:01:51Z</time>
      </trkpt>
      <trkpt lat="42.5729630" lon="-8.8851980">
        <ele>6.0</ele>
        <time>2020-08-07T18:01:52Z</time>
      </trkpt>
      <trkpt lat="42.5729630" lon="-8.8851980">
        <ele>5.8</ele>
        <time>2020-08-07T18:01:53Z</time>
      </trkpt>
      <trkpt lat="42.5729820" lon="-8.8851790">
        <ele>5.8</ele>
        <time>2020-08-07T18:01:54Z</time>
      </trkpt>
      <trkpt lat="42.5729820" lon="-8.8851790">
        <ele>5.6</ele>
        <time>2020-08-07T18:01:55Z</time>
      </trkpt>
      <trkpt lat="42.5730020" lon="-8.8851540">
        <ele>5.4</ele>
        <time>2020-08-07T18:01:56Z</time>
      </trkpt>
      <trkpt lat="42.5730020" lon="-8.8851540">
        <ele>5.8</ele>
        <time>2020-08-07T18:01:57Z</time>
      </trkpt>
      <trkpt lat="42.5730180" lon="-8.8851320">
        <ele>5.6</ele>
        <time>2020-08-07T18:01:58Z</time>
      </trkpt>
      <trkpt lat="42.5730180" lon="-8.8851320">
        <ele>5.8</ele>
        <time>2020-08-07T18:01:59Z</time>
      </trkpt>
      <trkpt lat="42.5730270" lon="-8.8851080">
        <ele>5.8</ele>
        <time>2020-08-07T18:02:00Z</time>
      </trkpt>
      <trkpt lat="42.5730270" lon="-8.8851080">
        <ele>5.8</ele>
        <time>2020-08-07T18:02:01Z</time>
      </trkpt>
      <trkpt lat="42.5730430" lon="-8.8850820">
        <ele>5.6</ele>
        <time>2020-08-07T18:02:02Z</time>
      </trkpt>
      <trkpt lat="42.5730430" lon="-8.8850820">
        <ele>5.4</ele>
        <time>2020-08-07T18:02:03Z</time>
      </trkpt>
      <trkpt lat="42.5730590" lon="-8.8850520">
        <ele>5.2</ele>
        <time>2020-08-07T18:02:04Z</time>
      </trkpt>
      <trkpt lat="42.5730590" lon="-8.8850520">
        <ele>4.8</ele>
        <time>2020-08-07T18:02:05Z</time>
      </trkpt>
      <trkpt lat="42.5730750" lon="-8.8850290">
        <ele>4.8</ele>
        <time>2020-08-07T18:02:06Z</time>
      </trkpt>
      <trkpt lat="42.5730750" lon="-8.8850290">
        <ele>4.6</ele>
        <time>2020-08-07T18:02:07Z</time>
      </trkpt>
      <trkpt lat="42.5730880" lon="-8.8850020">
        <ele>4.8</ele>
        <time>2020-08-07T18:02:08Z</time>
      </trkpt>
      <trkpt lat="42.5730880" lon="-8.8850020">
        <ele>5.2</ele>
        <time>2020-08-07T18:02:09Z</time>
      </trkpt>
      <trkpt lat="42.5731040" lon="-8.8849760">
        <ele>5.4</ele>
        <time>2020-08-07T18:02:10Z</time>
      </trkpt>
      <trkpt lat="42.5731040" lon="-8.8849760">
        <ele>5.6</ele>
        <time>2020-08-07T18:02:11Z</time>
      </trkpt>
      <trkpt lat="42.5731200" lon="-8.8849540">
        <ele>5.2</ele>
        <time>2020-08-07T18:02:12Z</time>
      </trkpt>
      <trkpt lat="42.5731200" lon="-8.8849540">
        <ele>5.4</ele>
        <time>2020-08-07T18:02:13Z</time>
      </trkpt>
      <trkpt lat="42.5731330" lon="-8.8849290">
        <ele>4.4</ele>
        <time>2020-08-07T18:02:14Z</time>
      </trkpt>
      <trkpt lat="42.5731330" lon="-8.8849290">
        <ele>4.2</ele>
        <time>2020-08-07T18:02:15Z</time>
      </trkpt>
      <trkpt lat="42.5731420" lon="-8.8849020">
        <ele>3.8</ele>
        <time>2020-08-07T18:02:16Z</time>
      </trkpt>
      <trkpt lat="42.5731420" lon="-8.8849020">
        <ele>3.8</ele>
        <time>2020-08-07T18:02:17Z</time>
      </trkpt>
      <trkpt lat="42.5731580" lon="-8.8848760">
        <ele>4.2</ele>
        <time>2020-08-07T18:02:18Z</time>
      </trkpt>
      <trkpt lat="42.5731580" lon="-8.8848760">
        <ele>4.2</ele>
        <time>2020-08-07T18:02:19Z</time>
      </trkpt>
      <trkpt lat="42.5731710" lon="-8.8848510">
        <ele>4.4</ele>
        <time>2020-08-07T18:02:20Z</time>
      </trkpt>
      <trkpt lat="42.5731710" lon="-8.8848510">
        <ele>4.2</ele>
        <time>2020-08-07T18:02:21Z</time>
      </trkpt>
      <trkpt lat="42.5731840" lon="-8.8848250">
        <ele>4.2</ele>
        <time>2020-08-07T18:02:22Z</time>
      </trkpt>
      <trkpt lat="42.5731840" lon="-8.8848250">
        <ele>4.0</ele>
        <time>2020-08-07T18:02:23Z</time>
      </trkpt>
      <trkpt lat="42.5731970" lon="-8.8847970">
        <ele>4.0</ele>
        <time>2020-08-07T18:02:24Z</time>
      </trkpt>
      <trkpt lat="42.5731970" lon="-8.8847970">
        <ele>3.6</ele>
        <time>2020-08-07T18:02:25Z</time>
      </trkpt>
      <trkpt lat="42.5732130" lon="-8.8847700">
        <ele>3.6</ele>
        <time>2020-08-07T18:02:26Z</time>
      </trkpt>
      <trkpt lat="42.5732130" lon="-8.8847700">
        <ele>3.8</ele>
        <time>2020-08-07T18:02:27Z</time>
      </trkpt>
      <trkpt lat="42.5732260" lon="-8.8847420">
        <ele>4.0</ele>
        <time>2020-08-07T18:02:28Z</time>
      </trkpt>
      <trkpt lat="42.5732260" lon="-8.8847420">
        <ele>4.2</ele>
        <time>2020-08-07T18:02:29Z</time>
      </trkpt>
      <trkpt lat="42.5732350" lon="-8.8847150">
        <ele>4.4</ele>
        <time>2020-08-07T18:02:30Z</time>
      </trkpt>
      <trkpt lat="42.5732350" lon="-8.8847150">
        <ele>4.8</ele>
        <time>2020-08-07T18:02:31Z</time>
      </trkpt>
      <trkpt lat="42.5732450" lon="-8.8846850">
        <ele>4.2</ele>
        <time>2020-08-07T18:02:32Z</time>
      </trkpt>
      <trkpt lat="42.5732450" lon="-8.8846850">
        <ele>4.2</ele>
        <time>2020-08-07T18:02:33Z</time>
      </trkpt>
      <trkpt lat="42.5732540" lon="-8.8846550">
        <ele>4.4</ele>
        <time>2020-08-07T18:02:34Z</time>
      </trkpt>
      <trkpt lat="42.5732540" lon="-8.8846550">
        <ele>4.8</ele>
        <time>2020-08-07T18:02:35Z</time>
      </trkpt>
      <trkpt lat="42.5732640" lon="-8.8846280">
        <ele>4.4</ele>
        <time>2020-08-07T18:02:36Z</time>
      </trkpt>
      <trkpt lat="42.5732640" lon="-8.8846280">
        <ele>4.2</ele>
        <time>2020-08-07T18:02:37Z</time>
      </trkpt>
      <trkpt lat="42.5732740" lon="-8.8845950">
        <ele>3.6</ele>
        <time>2020-08-07T18:02:38Z</time>
      </trkpt>
      <trkpt lat="42.5732740" lon="-8.8845950">
        <ele>3.2</ele>
        <time>2020-08-07T18:02:39Z</time>
      </trkpt>
      <trkpt lat="42.5732770" lon="-8.8845680">
        <ele>3.2</ele>
        <time>2020-08-07T18:02:40Z</time>
      </trkpt>
      <trkpt lat="42.5732770" lon="-8.8845680">
        <ele>3.0</ele>
        <time>2020-08-07T18:02:41Z</time>
      </trkpt>
      <trkpt lat="42.5732830" lon="-8.8845420">
        <ele>2.8</ele>
        <time>2020-08-07T18:02:42Z</time>
      </trkpt>
      <trkpt lat="42.5732830" lon="-8.8845420">
        <ele>2.8</ele>
        <time>2020-08-07T18:02:43Z</time>
      </trkpt>
      <trkpt lat="42.5732930" lon="-8.8845130">
        <ele>2.4</ele>
        <time>2020-08-07T18:02:44Z</time>
      </trkpt>
      <trkpt lat="42.5732930" lon="-8.8845130">
        <ele>2.0</ele>
        <time>2020-08-07T18:02:45Z</time>
      </trkpt>
      <trkpt lat="42.5732930" lon="-8.8844870">
        <ele>2.0</ele>
        <time>2020-08-07T18:02:46Z</time>
      </trkpt>
      <trkpt lat="42.5732930" lon="-8.8844870">
        <ele>2.0</ele>
        <time>2020-08-07T18:02:47Z</time>
      </trkpt>
      <trkpt lat="42.5732990" lon="-8.8844620">
        <ele>2.0</ele>
        <time>2020-08-07T18:02:48Z</time>
      </trkpt>
      <trkpt lat="42.5732990" lon="-8.8844620">
        <ele>2.2</ele>
        <time>2020-08-07T18:02:49Z</time>
      </trkpt>
      <trkpt lat="42.5732990" lon="-8.8844620">
        <ele>2.6</ele>
        <time>2020-08-07T18:02:50Z</time>
      </trkpt>
      <trkpt lat="42.5733060" lon="-8.8844270">
        <ele>3.0</ele>
        <time>2020-08-07T18:02:51Z</time>
      </trkpt>
      <trkpt lat="42.5733060" lon="-8.8844270">
        <ele>3.2</ele>
        <time>2020-08-07T18:02:52Z</time>
      </trkpt>
      <trkpt lat="42.5733060" lon="-8.8844270">
        <ele>3.8</ele>
        <time>2020-08-07T18:02:53Z</time>
      </trkpt>
      <trkpt lat="42.5733150" lon="-8.8843940">
        <ele>3.6</ele>
        <time>2020-08-07T18:02:54Z</time>
      </trkpt>
      <trkpt lat="42.5733150" lon="-8.8843940">
        <ele>3.2</ele>
        <time>2020-08-07T18:02:55Z</time>
      </trkpt>
      <trkpt lat="42.5733150" lon="-8.8843940">
        <ele>2.6</ele>
        <time>2020-08-07T18:02:56Z</time>
      </trkpt>
      <trkpt lat="42.5733150" lon="-8.8843700">
        <ele>2.8</ele>
        <time>2020-08-07T18:02:57Z</time>
      </trkpt>
      <trkpt lat="42.5733150" lon="-8.8843700">
        <ele>3.6</ele>
        <time>2020-08-07T18:02:58Z</time>
      </trkpt>
      <trkpt lat="42.5733150" lon="-8.8843700">
        <ele>4.2</ele>
        <time>2020-08-07T18:02:59Z</time>
      </trkpt>
      <trkpt lat="42.5733180" lon="-8.8843370">
        <ele>4.4</ele>
        <time>2020-08-07T18:03:00Z</time>
      </trkpt>
      <trkpt lat="42.5733180" lon="-8.8843370">
        <ele>4.2</ele>
        <time>2020-08-07T18:03:01Z</time>
      </trkpt>
      <trkpt lat="42.5733180" lon="-8.8843370">
        <ele>4.2</ele>
        <time>2020-08-07T18:03:02Z</time>
      </trkpt>
      <trkpt lat="42.5733150" lon="-8.8843050">
        <ele>4.4</ele>
        <time>2020-08-07T18:03:03Z</time>
      </trkpt>
      <trkpt lat="42.5733150" lon="-8.8843050">
        <ele>4.8</ele>
        <time>2020-08-07T18:03:04Z</time>
      </trkpt>
      <trkpt lat="42.5733150" lon="-8.8843050">
        <ele>5.2</ele>
        <time>2020-08-07T18:03:05Z</time>
      </trkpt>
      <trkpt lat="42.5733180" lon="-8.8842700">
        <ele>5.4</ele>
        <time>2020-08-07T18:03:06Z</time>
      </trkpt>
      <trkpt lat="42.5733180" lon="-8.8842700">
        <ele>5.4</ele>
        <time>2020-08-07T18:03:07Z</time>
      </trkpt>
      <trkpt lat="42.5733180" lon="-8.8842700">
        <ele>5.2</ele>
        <time>2020-08-07T18:03:08Z</time>
      </trkpt>
      <trkpt lat="42.5733180" lon="-8.8842360">
        <ele>5.2</ele>
        <time>2020-08-07T18:03:09Z</time>
      </trkpt>
      <trkpt lat="42.5733180" lon="-8.8842360">
        <ele>5.2</ele>
        <time>2020-08-07T18:03:10Z</time>
      </trkpt>
      <trkpt lat="42.5733180" lon="-8.8842090">
        <ele>5.8</ele>
        <time>2020-08-07T18:03:11Z</time>
      </trkpt>
      <trkpt lat="42.5733180" lon="-8.8842090">
        <ele>6.0</ele>
        <time>2020-08-07T18:03:12Z</time>
      </trkpt>
      <trkpt lat="42.5733150" lon="-8.8841780">
        <ele>6.0</ele>
        <time>2020-08-07T18:03:13Z</time>
      </trkpt>
      <trkpt lat="42.5733150" lon="-8.8841780">
        <ele>6.4</ele>
        <time>2020-08-07T18:03:14Z</time>
      </trkpt>
      <trkpt lat="42.5733150" lon="-8.8841780">
        <ele>6.6</ele>
        <time>2020-08-07T18:03:15Z</time>
      </trkpt>
      <trkpt lat="42.5733060" lon="-8.8841440">
        <ele>6.6</ele>
        <time>2020-08-07T18:03:16Z</time>
      </trkpt>
      <trkpt lat="42.5733060" lon="-8.8841440">
        <ele>6.6</ele>
        <time>2020-08-07T18:03:17Z</time>
      </trkpt>
      <trkpt lat="42.5733060" lon="-8.8841440">
        <ele>6.6</ele>
        <time>2020-08-07T18:03:18Z</time>
      </trkpt>
      <trkpt lat="42.5732990" lon="-8.8841110">
        <ele>6.8</ele>
        <time>2020-08-07T18:03:19Z</time>
      </trkpt>
      <trkpt lat="42.5732990" lon="-8.8841110">
        <ele>6.8</ele>
        <time>2020-08-07T18:03:20Z</time>
      </trkpt>
      <trkpt lat="42.5732930" lon="-8.8840860">
        <ele>7.0</ele>
        <time>2020-08-07T18:03:21Z</time>
      </trkpt>
      <trkpt lat="42.5732930" lon="-8.8840860">
        <ele>7.2</ele>
        <time>2020-08-07T18:03:22Z</time>
      </trkpt>
      <trkpt lat="42.5732830" lon="-8.8840640">
        <ele>7.4</ele>
        <time>2020-08-07T18:03:23Z</time>
      </trkpt>
      <trkpt lat="42.5732830" lon="-8.8840640">
        <ele>7.0</ele>
        <time>2020-08-07T18:03:24Z</time>
      </trkpt>
      <trkpt lat="42.5732700" lon="-8.8840310">
        <ele>6.4</ele>
        <time>2020-08-07T18:03:25Z</time>
      </trkpt>
      <trkpt lat="42.5732700" lon="-8.8840310">
        <ele>6.4</ele>
        <time>2020-08-07T18:03:26Z</time>
      </trkpt>
      <trkpt lat="42.5732610" lon="-8.8840060">
        <ele>6.2</ele>
        <time>2020-08-07T18:03:27Z</time>
      </trkpt>
      <trkpt lat="42.5732610" lon="-8.8840060">
        <ele>6.2</ele>
        <time>2020-08-07T18:03:28Z</time>
      </trkpt>
      <trkpt lat="42.5732610" lon="-8.8840060">
        <ele>6.0</ele>
        <time>2020-08-07T18:03:29Z</time>
      </trkpt>
      <trkpt lat="42.5732380" lon="-8.8839800">
        <ele>5.8</ele>
        <time>2020-08-07T18:03:30Z</time>
      </trkpt>
      <trkpt lat="42.5732380" lon="-8.8839800">
        <ele>6.0</ele>
        <time>2020-08-07T18:03:31Z</time>
      </trkpt>
      <trkpt lat="42.5732190" lon="-8.8839600">
        <ele>6.0</ele>
        <time>2020-08-07T18:03:32Z</time>
      </trkpt>
      <trkpt lat="42.5732190" lon="-8.8839600">
        <ele>5.8</ele>
        <time>2020-08-07T18:03:33Z</time>
      </trkpt>
      <trkpt lat="42.5732030" lon="-8.8839380">
        <ele>5.6</ele>
        <time>2020-08-07T18:03:34Z</time>
      </trkpt>
      <trkpt lat="42.5732030" lon="-8.8839380">
        <ele>5.8</ele>
        <time>2020-08-07T18:03:35Z</time>
      </trkpt>
      <trkpt lat="42.5731840" lon="-8.8839200">
        <ele>5.8</ele>
        <time>2020-08-07T18:03:36Z</time>
      </trkpt>
      <trkpt lat="42.5731840" lon="-8.8839200">
        <ele>5.4</ele>
        <time>2020-08-07T18:03:37Z</time>
      </trkpt>
      <trkpt lat="42.5731840" lon="-8.8839200">
        <ele>4.8</ele>
        <time>2020-08-07T18:03:38Z</time>
      </trkpt>
      <trkpt lat="42.5731620" lon="-8.8838920">
        <ele>4.6</ele>
        <time>2020-08-07T18:03:39Z</time>
      </trkpt>
      <trkpt lat="42.5731620" lon="-8.8838920">
        <ele>4.4</ele>
        <time>2020-08-07T18:03:40Z</time>
      </trkpt>
      <trkpt lat="42.5731460" lon="-8.8838770">
        <ele>4.2</ele>
        <time>2020-08-07T18:03:41Z</time>
      </trkpt>
      <trkpt lat="42.5731460" lon="-8.8838770">
        <ele>4.4</ele>
        <time>2020-08-07T18:03:42Z</time>
      </trkpt>
      <trkpt lat="42.5731330" lon="-8.8838580">
        <ele>4.4</ele>
        <time>2020-08-07T18:03:43Z</time>
      </trkpt>
      <trkpt lat="42.5731330" lon="-8.8838580">
        <ele>4.6</ele>
        <time>2020-08-07T18:03:44Z</time>
      </trkpt>
      <trkpt lat="42.5731140" lon="-8.8838380">
        <ele>4.4</ele>
        <time>2020-08-07T18:03:45Z</time>
      </trkpt>
      <trkpt lat="42.5731140" lon="-8.8838380">
        <ele>3.8</ele>
        <time>2020-08-07T18:03:46Z</time>
      </trkpt>
      <trkpt lat="42.5730980" lon="-8.8838190">
        <ele>3.8</ele>
        <time>2020-08-07T18:03:47Z</time>
      </trkpt>
      <trkpt lat="42.5730980" lon="-8.8838190">
        <ele>3.8</ele>
        <time>2020-08-07T18:03:48Z</time>
      </trkpt>
      <trkpt lat="42.5730750" lon="-8.8838060">
        <ele>3.4</ele>
        <time>2020-08-07T18:03:49Z</time>
      </trkpt>
      <trkpt lat="42.5730750" lon="-8.8838060">
        <ele>3.4</ele>
        <time>2020-08-07T18:03:50Z</time>
      </trkpt>
      <trkpt lat="42.5730560" lon="-8.8838010">
        <ele>3.2</ele>
        <time>2020-08-07T18:03:51Z</time>
      </trkpt>
      <trkpt lat="42.5730560" lon="-8.8838010">
        <ele>3.2</ele>
        <time>2020-08-07T18:03:52Z</time>
      </trkpt>
      <trkpt lat="42.5730340" lon="-8.8837880">
        <ele>3.0</ele>
        <time>2020-08-07T18:03:53Z</time>
      </trkpt>
      <trkpt lat="42.5730340" lon="-8.8837880">
        <ele>3.2</ele>
        <time>2020-08-07T18:03:54Z</time>
      </trkpt>
      <trkpt lat="42.5730080" lon="-8.8837790">
        <ele>3.6</ele>
        <time>2020-08-07T18:03:55Z</time>
      </trkpt>
      <trkpt lat="42.5730080" lon="-8.8837790">
        <ele>3.8</ele>
        <time>2020-08-07T18:03:56Z</time>
      </trkpt>
      <trkpt lat="42.5729860" lon="-8.8837720">
        <ele>3.6</ele>
        <time>2020-08-07T18:03:57Z</time>
      </trkpt>
      <trkpt lat="42.5729860" lon="-8.8837720">
        <ele>3.6</ele>
        <time>2020-08-07T18:03:58Z</time>
      </trkpt>
      <trkpt lat="42.5729600" lon="-8.8837630">
        <ele>4.0</ele>
        <time>2020-08-07T18:03:59Z</time>
      </trkpt>
      <trkpt lat="42.5729600" lon="-8.8837630">
        <ele>4.0</ele>
        <time>2020-08-07T18:04:00Z</time>
      </trkpt>
      <trkpt lat="42.5729380" lon="-8.8837540">
        <ele>4.2</ele>
        <time>2020-08-07T18:04:01Z</time>
      </trkpt>
      <trkpt lat="42.5729380" lon="-8.8837540">
        <ele>4.4</ele>
        <time>2020-08-07T18:04:02Z</time>
      </trkpt>
      <trkpt lat="42.5729180" lon="-8.8837480">
        <ele>4.6</ele>
        <time>2020-08-07T18:04:03Z</time>
      </trkpt>
      <trkpt lat="42.5729180" lon="-8.8837480">
        <ele>4.4</ele>
        <time>2020-08-07T18:04:04Z</time>
      </trkpt>
      <trkpt lat="42.5728990" lon="-8.8837450">
        <ele>4.6</ele>
        <time>2020-08-07T18:04:05Z</time>
      </trkpt>
      <trkpt lat="42.5728990" lon="-8.8837450">
        <ele>4.8</ele>
        <time>2020-08-07T18:04:06Z</time>
      </trkpt>
      <trkpt lat="42.5728770" lon="-8.8837430">
        <ele>5.0</ele>
        <time>2020-08-07T18:04:07Z</time>
      </trkpt>
      <trkpt lat="42.5728770" lon="-8.8837430">
        <ele>5.2</ele>
        <time>2020-08-07T18:04:08Z</time>
      </trkpt>
      <trkpt lat="42.5728540" lon="-8.8837370">
        <ele>5.4</ele>
        <time>2020-08-07T18:04:09Z</time>
      </trkpt>
      <trkpt lat="42.5728540" lon="-8.8837370">
        <ele>5.0</ele>
        <time>2020-08-07T18:04:10Z</time>
      </trkpt>
      <trkpt lat="42.5728290" lon="-8.8837340">
        <ele>5.0</ele>
        <time>2020-08-07T18:04:11Z</time>
      </trkpt>
      <trkpt lat="42.5728290" lon="-8.8837340">
        <ele>4.8</ele>
        <time>2020-08-07T18:04:12Z</time>
      </trkpt>
      <trkpt lat="42.5728100" lon="-8.8837250">
        <ele>4.6</ele>
        <time>2020-08-07T18:04:13Z</time>
      </trkpt>
      <trkpt lat="42.5728100" lon="-8.8837250">
        <ele>4.6</ele>
        <time>2020-08-07T18:04:14Z</time>
      </trkpt>
      <trkpt lat="42.5727870" lon="-8.8837180">
        <ele>5.0</ele>
        <time>2020-08-07T18:04:15Z</time>
      </trkpt>
      <trkpt lat="42.5727870" lon="-8.8837180">
        <ele>5.4</ele>
        <time>2020-08-07T18:04:16Z</time>
      </trkpt>
      <trkpt lat="42.5727680" lon="-8.8837140">
        <ele>5.6</ele>
        <time>2020-08-07T18:04:17Z</time>
      </trkpt>
      <trkpt lat="42.5727680" lon="-8.8837140">
        <ele>6.0</ele>
        <time>2020-08-07T18:04:18Z</time>
      </trkpt>
      <trkpt lat="42.5727460" lon="-8.8837050">
        <ele>6.0</ele>
        <time>2020-08-07T18:04:19Z</time>
      </trkpt>
      <trkpt lat="42.5727460" lon="-8.8837050">
        <ele>6.2</ele>
        <time>2020-08-07T18:04:20Z</time>
      </trkpt>
      <trkpt lat="42.5727230" lon="-8.8837000">
        <ele>6.4</ele>
        <time>2020-08-07T18:04:21Z</time>
      </trkpt>
      <trkpt lat="42.5727230" lon="-8.8837000">
        <ele>6.2</ele>
        <time>2020-08-07T18:04:22Z</time>
      </trkpt>
      <trkpt lat="42.5727010" lon="-8.8836940">
        <ele>6.2</ele>
        <time>2020-08-07T18:04:23Z</time>
      </trkpt>
      <trkpt lat="42.5727010" lon="-8.8836940">
        <ele>6.0</ele>
        <time>2020-08-07T18:04:24Z</time>
      </trkpt>
      <trkpt lat="42.5726820" lon="-8.8836850">
        <ele>5.8</ele>
        <time>2020-08-07T18:04:25Z</time>
      </trkpt>
      <trkpt lat="42.5726820" lon="-8.8836850">
        <ele>5.8</ele>
        <time>2020-08-07T18:04:26Z</time>
      </trkpt>
      <trkpt lat="42.5726620" lon="-8.8836780">
        <ele>6.0</ele>
        <time>2020-08-07T18:04:27Z</time>
      </trkpt>
      <trkpt lat="42.5726620" lon="-8.8836780">
        <ele>6.2</ele>
        <time>2020-08-07T18:04:28Z</time>
      </trkpt>
      <trkpt lat="42.5726400" lon="-8.8836700">
        <ele>6.6</ele>
        <time>2020-08-07T18:04:29Z</time>
      </trkpt>
      <trkpt lat="42.5726400" lon="-8.8836700">
        <ele>7.0</ele>
        <time>2020-08-07T18:04:30Z</time>
      </trkpt>
      <trkpt lat="42.5726180" lon="-8.8836670">
        <ele>7.0</ele>
        <time>2020-08-07T18:04:31Z</time>
      </trkpt>
      <trkpt lat="42.5726180" lon="-8.8836670">
        <ele>6.8</ele>
        <time>2020-08-07T18:04:32Z</time>
      </trkpt>
      <trkpt lat="42.5725950" lon="-8.8836650">
        <ele>6.6</ele>
        <time>2020-08-07T18:04:33Z</time>
      </trkpt>
      <trkpt lat="42.5725950" lon="-8.8836650">
        <ele>6.4</ele>
        <time>2020-08-07T18:04:34Z</time>
      </trkpt>
      <trkpt lat="42.5725700" lon="-8.8836600">
        <ele>6.6</ele>
        <time>2020-08-07T18:04:35Z</time>
      </trkpt>
      <trkpt lat="42.5725700" lon="-8.8836600">
        <ele>6.6</ele>
        <time>2020-08-07T18:04:36Z</time>
      </trkpt>
      <trkpt lat="42.5725500" lon="-8.8836540">
        <ele>6.6</ele>
        <time>2020-08-07T18:04:37Z</time>
      </trkpt>
      <trkpt lat="42.5725500" lon="-8.8836540">
        <ele>6.6</ele>
        <time>2020-08-07T18:04:38Z</time>
      </trkpt>
      <trkpt lat="42.5725250" lon="-8.8836540">
        <ele>6.6</ele>
        <time>2020-08-07T18:04:39Z</time>
      </trkpt>
      <trkpt lat="42.5725250" lon="-8.8836540">
        <ele>7.0</ele>
        <time>2020-08-07T18:04:40Z</time>
      </trkpt>
      <trkpt lat="42.5725020" lon="-8.8836480">
        <ele>7.0</ele>
        <time>2020-08-07T18:04:41Z</time>
      </trkpt>
      <trkpt lat="42.5725020" lon="-8.8836480">
        <ele>6.6</ele>
        <time>2020-08-07T18:04:42Z</time>
      </trkpt>
      <trkpt lat="42.5724800" lon="-8.8836470">
        <ele>6.6</ele>
        <time>2020-08-07T18:04:43Z</time>
      </trkpt>
      <trkpt lat="42.5724800" lon="-8.8836470">
        <ele>6.4</ele>
        <time>2020-08-07T18:04:44Z</time>
      </trkpt>
      <trkpt lat="42.5724510" lon="-8.8836450">
        <ele>6.6</ele>
        <time>2020-08-07T18:04:45Z</time>
      </trkpt>
      <trkpt lat="42.5724510" lon="-8.8836450">
        <ele>6.6</ele>
        <time>2020-08-07T18:04:46Z</time>
      </trkpt>
      <trkpt lat="42.5724290" lon="-8.8836340">
        <ele>6.4</ele>
        <time>2020-08-07T18:04:47Z</time>
      </trkpt>
      <trkpt lat="42.5724290" lon="-8.8836340">
        <ele>6.8</ele>
        <time>2020-08-07T18:04:48Z</time>
      </trkpt>
      <trkpt lat="42.5724100" lon="-8.8836280">
        <ele>7.0</ele>
        <time>2020-08-07T18:04:49Z</time>
      </trkpt>
      <trkpt lat="42.5724100" lon="-8.8836280">
        <ele>7.2</ele>
        <time>2020-08-07T18:04:50Z</time>
      </trkpt>
      <trkpt lat="42.5723870" lon="-8.8836150">
        <ele>7.0</ele>
        <time>2020-08-07T18:04:51Z</time>
      </trkpt>
      <trkpt lat="42.5723870" lon="-8.8836150">
        <ele>7.0</ele>
        <time>2020-08-07T18:04:52Z</time>
      </trkpt>
      <trkpt lat="42.5723650" lon="-8.8836030">
        <ele>7.0</ele>
        <time>2020-08-07T18:04:53Z</time>
      </trkpt>
      <trkpt lat="42.5723650" lon="-8.8836030">
        <ele>6.6</ele>
        <time>2020-08-07T18:04:54Z</time>
      </trkpt>
      <trkpt lat="42.5723420" lon="-8.8835900">
        <ele>6.6</ele>
        <time>2020-08-07T18:04:55Z</time>
      </trkpt>
      <trkpt lat="42.5723420" lon="-8.8835900">
        <ele>6.6</ele>
        <time>2020-08-07T18:04:56Z</time>
      </trkpt>
      <trkpt lat="42.5723200" lon="-8.8835800">
        <ele>6.6</ele>
        <time>2020-08-07T18:04:57Z</time>
      </trkpt>
      <trkpt lat="42.5723200" lon="-8.8835800">
        <ele>6.2</ele>
        <time>2020-08-07T18:04:58Z</time>
      </trkpt>
      <trkpt lat="42.5723010" lon="-8.8835720">
        <ele>6.2</ele>
        <time>2020-08-07T18:04:59Z</time>
      </trkpt>
      <trkpt lat="42.5723010" lon="-8.8835720">
        <ele>6.0</ele>
        <time>2020-08-07T18:05:00Z</time>
      </trkpt>
      <trkpt lat="42.5722820" lon="-8.8835650">
        <ele>6.0</ele>
        <time>2020-08-07T18:05:01Z</time>
      </trkpt>
      <trkpt lat="42.5722820" lon="-8.8835650">
        <ele>6.0</ele>
        <time>2020-08-07T18:05:02Z</time>
      </trkpt>
      <trkpt lat="42.5722620" lon="-8.8835580">
        <ele>5.8</ele>
        <time>2020-08-07T18:05:03Z</time>
      </trkpt>
      <trkpt lat="42.5722620" lon="-8.8835580">
        <ele>5.6</ele>
        <time>2020-08-07T18:05:04Z</time>
      </trkpt>
      <trkpt lat="42.5722430" lon="-8.8835500">
        <ele>5.8</ele>
        <time>2020-08-07T18:05:05Z</time>
      </trkpt>
      <trkpt lat="42.5722430" lon="-8.8835500">
        <ele>5.4</ele>
        <time>2020-08-07T18:05:06Z</time>
      </trkpt>
      <trkpt lat="42.5722210" lon="-8.8835470">
        <ele>5.0</ele>
        <time>2020-08-07T18:05:07Z</time>
      </trkpt>
      <trkpt lat="42.5722210" lon="-8.8835470">
        <ele>4.8</ele>
        <time>2020-08-07T18:05:08Z</time>
      </trkpt>
      <trkpt lat="42.5721980" lon="-8.8835420">
        <ele>5.0</ele>
        <time>2020-08-07T18:05:09Z</time>
      </trkpt>
      <trkpt lat="42.5721980" lon="-8.8835420">
        <ele>5.0</ele>
        <time>2020-08-07T18:05:10Z</time>
      </trkpt>
      <trkpt lat="42.5721790" lon="-8.8835340">
        <ele>5.2</ele>
        <time>2020-08-07T18:05:11Z</time>
      </trkpt>
      <trkpt lat="42.5721790" lon="-8.8835340">
        <ele>5.2</ele>
        <time>2020-08-07T18:05:12Z</time>
      </trkpt>
      <trkpt lat="42.5721540" lon="-8.8835250">
        <ele>5.0</ele>
        <time>2020-08-07T18:05:13Z</time>
      </trkpt>
      <trkpt lat="42.5721540" lon="-8.8835250">
        <ele>4.8</ele>
        <time>2020-08-07T18:05:14Z</time>
      </trkpt>
      <trkpt lat="42.5721340" lon="-8.8835180">
        <ele>4.6</ele>
        <time>2020-08-07T18:05:15Z</time>
      </trkpt>
      <trkpt lat="42.5721340" lon="-8.8835180">
        <ele>4.6</ele>
        <time>2020-08-07T18:05:16Z</time>
      </trkpt>
    </trkseg>
  </trk>
</gpx>
